<?xml version='1.0' encoding='UTF-8'?><gpx version="1.1" creator="JPX - https://github.com/jenetics/jpx" xmlns="http://www.topografix.com/GPX/1/1"><trk><trkseg><trkpt lat="45.13491748147383" lon="8.449960425535934"><ele>121.0</ele><time>2026-04-18T07:12:19Z</time></trkpt><trkpt lat="45.13504495761531" lon="8.449992052982822"><ele>121.0</ele><time>2026-04-18T07:12:22Z</time></trkpt><trkpt lat="45.135034882334956" lon="8.44980255838686"><ele>121.0</ele><time>2026-04-18T07:13:24Z</time></trkpt><trkpt lat="45.135032832579554" lon="8.449620265428871"><ele>121.0</ele><time>2026-04-18T07:13:25.999Z</time></trkpt><trkpt lat="45.13499828664212" lon="8.449528488650321"><ele>120.8</ele><time>2026-04-18T07:13:26.999Z</time></trkpt><trkpt lat="45.13501064890322" lon="8.449363078135134"><ele>120.6</ele><time>2026-04-18T07:13:28.999Z</time></trkpt><trkpt lat="45.135023649968694" lon="8.449189120222353"><ele>120.4</ele><time>2026-04-18T07:13:30.999Z</time></trkpt><trkpt lat="45.135031070408466" lon="8.449066209910043"><ele>120.2</ele><time>2026-04-18T07:13:32.999Z</time></trkpt><trkpt lat="45.13496447005929" lon="8.449046560741431"><ele>120.0</ele><time>2026-04-18T07:13:33.999Z</time></trkpt><trkpt lat="45.13489553509704" lon="8.449049036532708"><ele>120.33333333333333</ele><time>2026-04-18T07:13:34.999Z</time></trkpt><trkpt lat="45.13480940584405" lon="8.449031422264119"><ele>120.66666666666666</ele><time>2026-04-18T07:13:35.999Z</time></trkpt><trkpt lat="45.134720827818946" lon="8.449010808488278"><ele>121.0</ele><time>2026-04-18T07:13:36.999Z</time></trkpt><trkpt lat="45.13463390022817" lon="8.448992452340027"><ele>121.33333333333333</ele><time>2026-04-18T07:13:37.999Z</time></trkpt><trkpt lat="45.13454222914731" lon="8.44896583171781"><ele>121.66666666666666</ele><time>2026-04-18T07:13:38.999Z</time></trkpt><trkpt lat="45.13446457373328" lon="8.448947983369019"><ele>122.0</ele><time>2026-04-18T07:13:39.999Z</time></trkpt><trkpt lat="45.13439856791644" lon="8.448935020357723"><ele>122.0</ele><time>2026-04-18T07:13:40.999Z</time></trkpt><trkpt lat="45.13429392493152" lon="8.44892780130715"><ele>121.99999999999999</ele><time>2026-04-18T07:13:42.999Z</time></trkpt><trkpt lat="45.134281563378906" lon="8.449139383933511"><ele>121.99999999999999</ele><time>2026-04-18T07:13:44.999Z</time></trkpt><trkpt lat="45.13427445152719" lon="8.449263939521217"><ele>122.0</ele><time>2026-04-18T07:13:45.999Z</time></trkpt><trkpt lat="45.13426052374154" lon="8.449380661658877"><ele>122.0</ele><time>2026-04-18T07:13:46.999Z</time></trkpt><trkpt lat="45.13425250740917" lon="8.449483581345211"><ele>122.0</ele><time>2026-04-18T07:13:47.999Z</time></trkpt><trkpt lat="45.134230221376825" lon="8.44957333097706"><ele>121.99999999999999</ele><time>2026-04-18T07:13:48.999Z</time></trkpt><trkpt lat="45.134216012006284" lon="8.449734552705527"><ele>121.99999999999999</ele><time>2026-04-18T07:13:50.999Z</time></trkpt><trkpt lat="45.1342061970693" lon="8.449863979613083"><ele>122.0</ele><time>2026-04-18T07:13:52.999Z</time></trkpt><trkpt lat="45.13411188317552" lon="8.449939590504506"><ele>122.0</ele><time>2026-04-18T07:13:54.999Z</time></trkpt><trkpt lat="45.13404278587772" lon="8.449927455188005"><ele>121.66666666666666</ele><time>2026-04-18T07:13:55.999Z</time></trkpt><trkpt lat="45.13397457094756" lon="8.449902362105346"><ele>121.33333333333333</ele><time>2026-04-18T07:13:56.999Z</time></trkpt><trkpt lat="45.13389691711966" lon="8.449887046644964"><ele>121.0</ele><time>2026-04-18T07:13:57.999Z</time></trkpt><trkpt lat="45.13382080354529" lon="8.449870304306472"><ele>120.66666666666666</ele><time>2026-04-18T07:13:58.999Z</time></trkpt><trkpt lat="45.133732513530816" lon="8.449856734264628"><ele>120.33333333333333</ele><time>2026-04-18T07:13:59.999Z</time></trkpt><trkpt lat="45.1336397087654" lon="8.449848564130312"><ele>120.0</ele><time>2026-04-18T07:14:00.999Z</time></trkpt><trkpt lat="45.13356287226702" lon="8.449833642973188"><ele>120.0</ele><time>2026-04-18T07:14:01.999Z</time></trkpt><trkpt lat="45.13346969300654" lon="8.449805549715828"><ele>120.0</ele><time>2026-04-18T07:14:02.999Z</time></trkpt><trkpt lat="45.13337572676878" lon="8.449791982778887"><ele>120.0</ele><time>2026-04-18T07:14:03.999Z</time></trkpt><trkpt lat="45.13327830099824" lon="8.449782665420829"><ele>120.0</ele><time>2026-04-18T07:14:04.999Z</time></trkpt><trkpt lat="45.13319883093469" lon="8.449748656315881"><ele>120.0</ele><time>2026-04-18T07:14:05.999Z</time></trkpt><trkpt lat="45.13310840938041" lon="8.449739435529779"><ele>119.83333333333333</ele><time>2026-04-18T07:14:06.999Z</time></trkpt><trkpt lat="45.13301807197804" lon="8.449723780490416"><ele>119.66666666666666</ele><time>2026-04-18T07:14:07.999Z</time></trkpt><trkpt lat="45.13293297620797" lon="8.449704288954422"><ele>119.5</ele><time>2026-04-18T07:14:08.999Z</time></trkpt><trkpt lat="45.13284908363962" lon="8.449686370510097"><ele>119.33333333333333</ele><time>2026-04-18T07:14:09.999Z</time></trkpt><trkpt lat="45.13277113979788" lon="8.449652414089527"><ele>119.16666666666666</ele><time>2026-04-18T07:14:10.999Z</time></trkpt><trkpt lat="45.13268942525485" lon="8.449617196972575"><ele>119.0</ele><time>2026-04-18T07:14:11.999Z</time></trkpt><trkpt lat="45.13261567648156" lon="8.44958893768351"><ele>118.99999999999999</ele><time>2026-04-18T07:14:12.999Z</time></trkpt><trkpt lat="45.13254136989436" lon="8.449562259673966"><ele>119.0</ele><time>2026-04-18T07:14:13.999Z</time></trkpt><trkpt lat="45.13247581267779" lon="8.449535569813573"><ele>119.0</ele><time>2026-04-18T07:14:14.999Z</time></trkpt><trkpt lat="45.13237600289171" lon="8.449443254404004"><ele>119.0</ele><time>2026-04-18T07:14:16.999Z</time></trkpt><trkpt lat="45.132322158811064" lon="8.449382426130104"><ele>118.99999999999999</ele><time>2026-04-18T07:14:17.999Z</time></trkpt><trkpt lat="45.132252148042774" lon="8.449358702395248"><ele>119.0</ele><time>2026-04-18T07:14:18.999Z</time></trkpt><trkpt lat="45.132172036263825" lon="8.449365491551609"><ele>119.16666666666666</ele><time>2026-04-18T07:14:19.999Z</time></trkpt><trkpt lat="45.13209368060349" lon="8.44937252551424"><ele>119.33333333333333</ele><time>2026-04-18T07:14:20.999Z</time></trkpt><trkpt lat="45.13200968065924" lon="8.44936233888063"><ele>119.5</ele><time>2026-04-18T07:14:21.999Z</time></trkpt><trkpt lat="45.13192764352594" lon="8.449338370246416"><ele>119.66666666666666</ele><time>2026-04-18T07:14:22.999Z</time></trkpt><trkpt lat="45.13184794430365" lon="8.449310942211374"><ele>119.83333333333333</ele><time>2026-04-18T07:14:23.999Z</time></trkpt><trkpt lat="45.131761726389" lon="8.449281393674081"><ele>120.0</ele><time>2026-04-18T07:14:24.999Z</time></trkpt><trkpt lat="45.13167171991818" lon="8.449218395148426"><ele>120.0</ele><time>2026-04-18T07:14:25.999Z</time></trkpt><trkpt lat="45.13159335586566" lon="8.449190098767101"><ele>120.0</ele><time>2026-04-18T07:14:26.999Z</time></trkpt><trkpt lat="45.131510038709685" lon="8.449169186390302"><ele>120.0</ele><time>2026-04-18T07:14:27.999Z</time></trkpt><trkpt lat="45.131414880985304" lon="8.449122529115222"><ele>120.0</ele><time>2026-04-18T07:14:28.999Z</time></trkpt><trkpt lat="45.13133779394511" lon="8.449078833917575"><ele>120.0</ele><time>2026-04-18T07:14:30Z</time></trkpt><trkpt lat="45.13125675162209" lon="8.449045086437394"><ele>120.0</ele><time>2026-04-18T07:14:31Z</time></trkpt><trkpt lat="45.13117636265828" lon="8.449019126611477"><ele>119.66666666666667</ele><time>2026-04-18T07:14:32Z</time></trkpt><trkpt lat="45.13109777054852" lon="8.448986019744252"><ele>119.33333333333334</ele><time>2026-04-18T07:14:33Z</time></trkpt><trkpt lat="45.13102713748844" lon="8.448950442345945"><ele>119.0</ele><time>2026-04-18T07:14:34Z</time></trkpt><trkpt lat="45.130946820217424" lon="8.448933895837449"><ele>118.66666666666667</ele><time>2026-04-18T07:14:35Z</time></trkpt><trkpt lat="45.13087241994828" lon="8.448902235666568"><ele>118.33333333333334</ele><time>2026-04-18T07:14:36Z</time></trkpt><trkpt lat="45.130802557981475" lon="8.448863529579615"><ele>118.0</ele><time>2026-04-18T07:14:37Z</time></trkpt><trkpt lat="45.130724479425844" lon="8.448834704733605"><ele>118.16666666666667</ele><time>2026-04-18T07:14:38Z</time></trkpt><trkpt lat="45.13065381095569" lon="8.44879514528417"><ele>118.33333333333334</ele><time>2026-04-18T07:14:39Z</time></trkpt><trkpt lat="45.13058308798743" lon="8.448769009693162"><ele>118.5</ele><time>2026-04-18T07:14:40Z</time></trkpt><trkpt lat="45.13045824515609" lon="8.44871405309671"><ele>118.66666666666666</ele><time>2026-04-18T07:14:42Z</time></trkpt><trkpt lat="45.13038295615645" lon="8.448673859637442"><ele>118.83333333333333</ele><time>2026-04-18T07:14:43Z</time></trkpt><trkpt lat="45.13030690484312" lon="8.448622580740448"><ele>119.0</ele><time>2026-04-18T07:14:44Z</time></trkpt><trkpt lat="45.13022278251543" lon="8.4485653310805"><ele>119.0</ele><time>2026-04-18T07:14:45Z</time></trkpt><trkpt lat="45.13012859405382" lon="8.448511480464168"><ele>119.0</ele><time>2026-04-18T07:14:46Z</time></trkpt><trkpt lat="45.13003629174927" lon="8.44846696731563"><ele>119.0</ele><time>2026-04-18T07:14:47Z</time></trkpt><trkpt lat="45.12993531599376" lon="8.448418712891659"><ele>119.0</ele><time>2026-04-18T07:14:48Z</time></trkpt><trkpt lat="45.1298295791172" lon="8.448372104028731"><ele>119.0</ele><time>2026-04-18T07:14:49Z</time></trkpt><trkpt lat="45.129727437398984" lon="8.448322321960948"><ele>119.0</ele><time>2026-04-18T07:14:50Z</time></trkpt><trkpt lat="45.12963279612961" lon="8.44824634489627"><ele>119.0</ele><time>2026-04-18T07:14:51Z</time></trkpt><trkpt lat="45.12952748976051" lon="8.448222069869"><ele>119.0</ele><time>2026-04-18T07:14:52Z</time></trkpt><trkpt lat="45.129426229380954" lon="8.448165774840678"><ele>119.0</ele><time>2026-04-18T07:14:53Z</time></trkpt><trkpt lat="45.129323747636484" lon="8.448122094992714"><ele>119.0</ele><time>2026-04-18T07:14:54Z</time></trkpt><trkpt lat="45.12922360091065" lon="8.448083169561615"><ele>118.99999999999999</ele><time>2026-04-18T07:14:55Z</time></trkpt><trkpt lat="45.129140581887455" lon="8.44804457168683"><ele>119.0</ele><time>2026-04-18T07:14:56Z</time></trkpt><trkpt lat="45.12905903348161" lon="8.448005018972081"><ele>119.0</ele><time>2026-04-18T07:14:57Z</time></trkpt><trkpt lat="45.12898960240587" lon="8.447970491823344"><ele>119.0</ele><time>2026-04-18T07:14:58Z</time></trkpt><trkpt lat="45.12892381267578" lon="8.447944224772648"><ele>118.99999999999999</ele><time>2026-04-18T07:14:59Z</time></trkpt><trkpt lat="45.1288562221034" lon="8.447913299184027"><ele>119.0</ele><time>2026-04-18T07:15:00Z</time></trkpt><trkpt lat="45.12878473271551" lon="8.447877903327393"><ele>118.6</ele><time>2026-04-18T07:15:01Z</time></trkpt><trkpt lat="45.12867218961323" lon="8.447804094516886"><ele>118.2</ele><time>2026-04-18T07:15:03Z</time></trkpt><trkpt lat="45.12856648559143" lon="8.447755135090134"><ele>117.79999999999998</ele><time>2026-04-18T07:15:04.999Z</time></trkpt><trkpt lat="45.12847443939729" lon="8.447712563419339"><ele>117.39999999999999</ele><time>2026-04-18T07:15:06.999Z</time></trkpt><trkpt lat="45.12838175612557" lon="8.447669702460903"><ele>117.0</ele><time>2026-04-18T07:15:08.999Z</time></trkpt><trkpt lat="45.128279909916124" lon="8.447621872087623"><ele>117.19999999999999</ele><time>2026-04-18T07:15:10.999Z</time></trkpt><trkpt lat="45.128197233499435" lon="8.447582436255898"><ele>117.39999999999999</ele><time>2026-04-18T07:15:11.999Z</time></trkpt><trkpt lat="45.12809894165045" lon="8.447537265715953"><ele>117.60000000000001</ele><time>2026-04-18T07:15:12.999Z</time></trkpt><trkpt lat="45.1279826046943" lon="8.447498672730815"><ele>117.80000000000001</ele><time>2026-04-18T07:15:13.999Z</time></trkpt><trkpt lat="45.12785898140042" lon="8.447432479986984"><ele>118.0</ele><time>2026-04-18T07:15:14.999Z</time></trkpt><trkpt lat="45.12773392640082" lon="8.44738503953351"><ele>118.0</ele><time>2026-04-18T07:15:15.999Z</time></trkpt><trkpt lat="45.12760106748188" lon="8.447319412445562"><ele>118.0</ele><time>2026-04-18T07:15:16.999Z</time></trkpt><trkpt lat="45.127467919326975" lon="8.447255664385125"><ele>118.0</ele><time>2026-04-18T07:15:17.999Z</time></trkpt><trkpt lat="45.12732078606371" lon="8.44718464570067"><ele>118.0</ele><time>2026-04-18T07:15:18.999Z</time></trkpt><trkpt lat="45.12717334853353" lon="8.44712157189728"><ele>119.5</ele><time>2026-04-18T07:15:19.999Z</time></trkpt><trkpt lat="45.12702462636543" lon="8.447053075275354"><ele>121.0</ele><time>2026-04-18T07:15:20.999Z</time></trkpt><trkpt lat="45.12688653750516" lon="8.446987662015763"><ele>122.5</ele><time>2026-04-18T07:15:21.999Z</time></trkpt><trkpt lat="45.12675149339782" lon="8.446918739461728"><ele>124.0</ele><time>2026-04-18T07:15:22.999Z</time></trkpt><trkpt lat="45.12661806481266" lon="8.446861104109603"><ele>124.25</ele><time>2026-04-18T07:15:23.999Z</time></trkpt><trkpt lat="45.12648389278686" lon="8.446796014439592"><ele>124.5</ele><time>2026-04-18T07:15:24.999Z</time></trkpt><trkpt lat="45.126349108802344" lon="8.446735866426073"><ele>124.75</ele><time>2026-04-18T07:15:25.999Z</time></trkpt><trkpt lat="45.12621050363842" lon="8.446674655965479"><ele>125.0</ele><time>2026-04-18T07:15:26.999Z</time></trkpt><trkpt lat="45.126081789254805" lon="8.44660008928127"><ele>125.0</ele><time>2026-04-18T07:15:27.999Z</time></trkpt><trkpt lat="45.1259511809384" lon="8.446537427272302"><ele>125.0</ele><time>2026-04-18T07:15:28.999Z</time></trkpt><trkpt lat="45.12582150077117" lon="8.446472121389766"><ele>125.0</ele><time>2026-04-18T07:15:29.999Z</time></trkpt><trkpt lat="45.12569293872495" lon="8.446414958175328"><ele>125.0</ele><time>2026-04-18T07:15:30.999Z</time></trkpt><trkpt lat="45.12557979944128" lon="8.446357756225275"><ele>124.5</ele><time>2026-04-18T07:15:31.999Z</time></trkpt><trkpt lat="45.12546768805519" lon="8.446300313876549"><ele>124.0</ele><time>2026-04-18T07:15:32.999Z</time></trkpt><trkpt lat="45.12535583969173" lon="8.446247771576912"><ele>123.5</ele><time>2026-04-18T07:15:33.999Z</time></trkpt><trkpt lat="45.12524512000559" lon="8.446193895466543"><ele>123.0</ele><time>2026-04-18T07:15:34.999Z</time></trkpt><trkpt lat="45.12513642421165" lon="8.44614116711337"><ele>123.60000000000001</ele><time>2026-04-18T07:15:35.999Z</time></trkpt><trkpt lat="45.12503234792487" lon="8.446087916970912"><ele>124.20000000000002</ele><time>2026-04-18T07:15:36.999Z</time></trkpt><trkpt lat="45.12492669666713" lon="8.44603998586254"><ele>124.8</ele><time>2026-04-18T07:15:37.999Z</time></trkpt><trkpt lat="45.12481948740179" lon="8.44598818876191"><ele>125.4</ele><time>2026-04-18T07:15:38.999Z</time></trkpt><trkpt lat="45.12471311090759" lon="8.445936969328816"><ele>126.0</ele><time>2026-04-18T07:15:39.999Z</time></trkpt><trkpt lat="45.12460248097673" lon="8.44588335278307"><ele>126.0</ele><time>2026-04-18T07:15:40.999Z</time></trkpt><trkpt lat="45.124496525855676" lon="8.445827138530502"><ele>126.0</ele><time>2026-04-18T07:15:41.999Z</time></trkpt><trkpt lat="45.12438682008245" lon="8.44577792325934"><ele>126.0</ele><time>2026-04-18T07:15:42.999Z</time></trkpt><trkpt lat="45.124277189899416" lon="8.445721465792841"><ele>126.0</ele><time>2026-04-18T07:15:43.999Z</time></trkpt><trkpt lat="45.12416353496131" lon="8.445666227850518"><ele>126.19999999999999</ele><time>2026-04-18T07:15:44.999Z</time></trkpt><trkpt lat="45.12405218248807" lon="8.445613959923476"><ele>126.39999999999999</ele><time>2026-04-18T07:15:45.999Z</time></trkpt><trkpt lat="45.123940163377505" lon="8.445562910913642"><ele>126.6</ele><time>2026-04-18T07:15:46.999Z</time></trkpt><trkpt lat="45.12383353764663" lon="8.445515524021824"><ele>126.8</ele><time>2026-04-18T07:15:47.999Z</time></trkpt><trkpt lat="45.123737783072144" lon="8.445472685056226"><ele>127.0</ele><time>2026-04-18T07:15:48.999Z</time></trkpt><trkpt lat="45.1236404051888" lon="8.44543049454103"><ele>127.0</ele><time>2026-04-18T07:15:49.999Z</time></trkpt><trkpt lat="45.123549041572204" lon="8.44538440223595"><ele>126.99999999999999</ele><time>2026-04-18T07:15:50.999Z</time></trkpt><trkpt lat="45.12345287155835" lon="8.445342589301234"><ele>126.99999999999999</ele><time>2026-04-18T07:15:51.999Z</time></trkpt><trkpt lat="45.12335343301545" lon="8.44529699224169"><ele>127.0</ele><time>2026-04-18T07:15:52.999Z</time></trkpt><trkpt lat="45.12325884480573" lon="8.44525909420685"><ele>127.0</ele><time>2026-04-18T07:15:53.999Z</time></trkpt><trkpt lat="45.12317697713851" lon="8.445226991301377"><ele>127.33333333333334</ele><time>2026-04-18T07:15:54.999Z</time></trkpt><trkpt lat="45.12309379180074" lon="8.445197135124522"><ele>127.66666666666667</ele><time>2026-04-18T07:15:55.999Z</time></trkpt><trkpt lat="45.12301154269832" lon="8.445157731321055"><ele>128.0</ele><time>2026-04-18T07:15:56.999Z</time></trkpt><trkpt lat="45.12293000002361" lon="8.44511335424839"><ele>128.33333333333334</ele><time>2026-04-18T07:15:57.999Z</time></trkpt><trkpt lat="45.12284699507108" lon="8.44506761287105"><ele>128.66666666666666</ele><time>2026-04-18T07:15:58.999Z</time></trkpt><trkpt lat="45.1227620596016" lon="8.445022484293833"><ele>129.0</ele><time>2026-04-18T07:15:59.999Z</time></trkpt><trkpt lat="45.12267878792197" lon="8.444976386212838"><ele>128.99999999999997</ele><time>2026-04-18T07:16:00.999Z</time></trkpt><trkpt lat="45.12260826572204" lon="8.444932257979362"><ele>129.0</ele><time>2026-04-18T07:16:01.999Z</time></trkpt><trkpt lat="45.122535500213154" lon="8.444881892504096"><ele>129.0</ele><time>2026-04-18T07:16:02.999Z</time></trkpt><trkpt lat="45.122468227275185" lon="8.444830231582596"><ele>129.0</ele><time>2026-04-18T07:16:03.999Z</time></trkpt><trkpt lat="45.1224011975732" lon="8.444781615799961"><ele>129.0</ele><time>2026-04-18T07:16:04.999Z</time></trkpt><trkpt lat="45.122333338868486" lon="8.444739976779466"><ele>128.99999999999997</ele><time>2026-04-18T07:16:05.999Z</time></trkpt><trkpt lat="45.12228264871103" lon="8.444685712952204"><ele>129.0</ele><time>2026-04-18T07:16:07.999Z</time></trkpt><trkpt lat="45.12221038094263" lon="8.444633981524994"><ele>129.2</ele><time>2026-04-18T07:16:12.999Z</time></trkpt><trkpt lat="45.12211046157034" lon="8.444568322556055"><ele>129.4</ele><time>2026-04-18T07:16:14.999Z</time></trkpt><trkpt lat="45.12197410979649" lon="8.444511031266986"><ele>129.6</ele><time>2026-04-18T07:16:16.999Z</time></trkpt><trkpt lat="45.12190008563557" lon="8.444454864227078"><ele>129.8</ele><time>2026-04-18T07:16:17.999Z</time></trkpt><trkpt lat="45.121823195492496" lon="8.444407148522865"><ele>130.0</ele><time>2026-04-18T07:16:18.999Z</time></trkpt><trkpt lat="45.12176026493814" lon="8.44440418154074"><ele>130.0</ele><time>2026-04-18T07:16:19.999Z</time></trkpt><trkpt lat="45.12170090487896" lon="8.444467599650409"><ele>130.0</ele><time>2026-04-18T07:16:20.999Z</time></trkpt><trkpt lat="45.121684738194766" lon="8.444582423450449"><ele>130.0</ele><time>2026-04-18T07:16:21.999Z</time></trkpt><trkpt lat="45.121710637053695" lon="8.444709153465606"><ele>130.0</ele><time>2026-04-18T07:16:22.999Z</time></trkpt><trkpt lat="45.121794512764424" lon="8.4448044875372"><ele>130.0</ele><time>2026-04-18T07:16:23.999Z</time></trkpt><trkpt lat="45.121803249111935" lon="8.444965633369938"><ele>129.4</ele><time>2026-04-18T07:16:24.999Z</time></trkpt><trkpt lat="45.12179697813023" lon="8.445106086131101"><ele>128.8</ele><time>2026-04-18T07:16:25.999Z</time></trkpt><trkpt lat="45.12179264679513" lon="8.445254722163073"><ele>128.2</ele><time>2026-04-18T07:16:26.999Z</time></trkpt><trkpt lat="45.12177554197454" lon="8.445417038716386"><ele>127.6</ele><time>2026-04-18T07:16:27.999Z</time></trkpt><trkpt lat="45.12177409978663" lon="8.445587496579154"><ele>127.0</ele><time>2026-04-18T07:16:28.999Z</time></trkpt><trkpt lat="45.12174590672244" lon="8.445759403996895"><ele>126.75</ele><time>2026-04-18T07:16:29.999Z</time></trkpt><trkpt lat="45.121743282943896" lon="8.445917452451686"><ele>126.5</ele><time>2026-04-18T07:16:30.999Z</time></trkpt><trkpt lat="45.121732099183205" lon="8.446073015872306"><ele>126.25</ele><time>2026-04-18T07:16:31.999Z</time></trkpt><trkpt lat="45.12172121518648" lon="8.446238168364058"><ele>126.0</ele><time>2026-04-18T07:16:32.999Z</time></trkpt><trkpt lat="45.12170049606002" lon="8.446405042312994"><ele>126.0</ele><time>2026-04-18T07:16:33.999Z</time></trkpt><trkpt lat="45.121683735295996" lon="8.446575642491354"><ele>126.0</ele><time>2026-04-18T07:16:34.999Z</time></trkpt><trkpt lat="45.121670730259915" lon="8.446744268670301"><ele>126.0</ele><time>2026-04-18T07:16:36Z</time></trkpt><trkpt lat="45.12166705148923" lon="8.446912807930772"><ele>126.0</ele><time>2026-04-18T07:16:37Z</time></trkpt><trkpt lat="45.12165635171351" lon="8.447071375194598"><ele>125.8</ele><time>2026-04-18T07:16:38Z</time></trkpt><trkpt lat="45.12164728489989" lon="8.447231743514143"><ele>125.6</ele><time>2026-04-18T07:16:39Z</time></trkpt><trkpt lat="45.121639753667615" lon="8.447386598165632"><ele>125.4</ele><time>2026-04-18T07:16:40Z</time></trkpt><trkpt lat="45.12163232427344" lon="8.447539922615075"><ele>125.2</ele><time>2026-04-18T07:16:41Z</time></trkpt><trkpt lat="45.1216291103995" lon="8.447692330000285"><ele>125.0</ele><time>2026-04-18T07:16:42Z</time></trkpt><trkpt lat="45.12162785756062" lon="8.447848922559638"><ele>124.6</ele><time>2026-04-18T07:16:43Z</time></trkpt><trkpt lat="45.121621580568366" lon="8.448003717459617"><ele>124.2</ele><time>2026-04-18T07:16:44Z</time></trkpt><trkpt lat="45.121611404329855" lon="8.448160578021996"><ele>123.80000000000001</ele><time>2026-04-18T07:16:45Z</time></trkpt><trkpt lat="45.12160051671675" lon="8.4483163055566"><ele>123.4</ele><time>2026-04-18T07:16:46Z</time></trkpt><trkpt lat="45.12158980875063" lon="8.448467595936863"><ele>123.0</ele><time>2026-04-18T07:16:47Z</time></trkpt><trkpt lat="45.1215783807449" lon="8.448623748539651"><ele>123.0</ele><time>2026-04-18T07:16:48Z</time></trkpt><trkpt lat="45.12156838076584" lon="8.448776988004333"><ele>123.00000000000001</ele><time>2026-04-18T07:16:49Z</time></trkpt><trkpt lat="45.12155884141334" lon="8.448937207879482"><ele>123.00000000000001</ele><time>2026-04-18T07:16:50Z</time></trkpt><trkpt lat="45.12155032089105" lon="8.449095672364091"><ele>123.0</ele><time>2026-04-18T07:16:51Z</time></trkpt><trkpt lat="45.12154051191775" lon="8.449255028505902"><ele>123.0</ele><time>2026-04-18T07:16:52Z</time></trkpt><trkpt lat="45.121528908643775" lon="8.449411996593149"><ele>122.75</ele><time>2026-04-18T07:16:53Z</time></trkpt><trkpt lat="45.12151533617653" lon="8.44957044380733"><ele>122.5</ele><time>2026-04-18T07:16:54Z</time></trkpt><trkpt lat="45.12150348547758" lon="8.449733368114657"><ele>122.25</ele><time>2026-04-18T07:16:55Z</time></trkpt><trkpt lat="45.12149335728098" lon="8.449897328448605"><ele>122.0</ele><time>2026-04-18T07:16:56Z</time></trkpt><trkpt lat="45.121484443981615" lon="8.450059779974383"><ele>121.6</ele><time>2026-04-18T07:16:57Z</time></trkpt><trkpt lat="45.12147643170179" lon="8.450217636907853"><ele>121.19999999999999</ele><time>2026-04-18T07:16:58Z</time></trkpt><trkpt lat="45.12146963640653" lon="8.450361135143513"><ele>120.8</ele><time>2026-04-18T07:16:59Z</time></trkpt><trkpt lat="45.121461192159394" lon="8.450493808222502"><ele>120.4</ele><time>2026-04-18T07:17:00Z</time></trkpt><trkpt lat="45.12145791254841" lon="8.450617889370218"><ele>120.0</ele><time>2026-04-18T07:17:01Z</time></trkpt><trkpt lat="45.12146510324169" lon="8.450715774589757"><ele>119.75</ele><time>2026-04-18T07:17:02Z</time></trkpt><trkpt lat="45.12147085428103" lon="8.450813515729449"><ele>119.5</ele><time>2026-04-18T07:17:03Z</time></trkpt><trkpt lat="45.12144788958815" lon="8.451004282112391"><ele>119.25</ele><time>2026-04-18T07:17:05Z</time></trkpt><trkpt lat="45.12130339288347" lon="8.451080837178717"><ele>119.0</ele><time>2026-04-18T07:17:07Z</time></trkpt><trkpt lat="45.121202938196845" lon="8.451083739651471"><ele>119.0</ele><time>2026-04-18T07:17:08Z</time></trkpt><trkpt lat="45.1211022811112" lon="8.451080906824426"><ele>119.0</ele><time>2026-04-18T07:17:09Z</time></trkpt><trkpt lat="45.120997698126104" lon="8.45108427440851"><ele>119.0</ele><time>2026-04-18T07:17:10Z</time></trkpt><trkpt lat="45.12089108014261" lon="8.451088576269449"><ele>119.0</ele><time>2026-04-18T07:17:11Z</time></trkpt><trkpt lat="45.120781623622335" lon="8.451093033377333"><ele>119.0</ele><time>2026-04-18T07:17:12Z</time></trkpt><trkpt lat="45.12067394566651" lon="8.451094448760019"><ele>119.16666666666666</ele><time>2026-04-18T07:17:13Z</time></trkpt><trkpt lat="45.12057449330947" lon="8.451084061148368"><ele>119.33333333333333</ele><time>2026-04-18T07:17:14Z</time></trkpt><trkpt lat="45.120486433777344" lon="8.45106717534348"><ele>119.5</ele><time>2026-04-18T07:17:15Z</time></trkpt><trkpt lat="45.120408171647234" lon="8.451038904487246"><ele>119.66666666666666</ele><time>2026-04-18T07:17:16Z</time></trkpt><trkpt lat="45.12033425201211" lon="8.451007433768337"><ele>119.83333333333333</ele><time>2026-04-18T07:17:17Z</time></trkpt><trkpt lat="45.12026154755117" lon="8.451003892369654"><ele>120.0</ele><time>2026-04-18T07:17:18Z</time></trkpt><trkpt lat="45.12018705916524" lon="8.451036410338078"><ele>120.0</ele><time>2026-04-18T07:17:19Z</time></trkpt><trkpt lat="45.12012320393903" lon="8.451110394288508"><ele>120.0</ele><time>2026-04-18T07:17:20Z</time></trkpt><trkpt lat="45.120049102787135" lon="8.451179291160692"><ele>120.0</ele><time>2026-04-18T07:17:21Z</time></trkpt><trkpt lat="45.11995583633808" lon="8.451200408757082"><ele>120.0</ele><time>2026-04-18T07:17:22Z</time></trkpt><trkpt lat="45.11985873109809" lon="8.45118339042838"><ele>120.0</ele><time>2026-04-18T07:17:23Z</time></trkpt><trkpt lat="45.11975314930325" lon="8.451180194522447"><ele>119.75</ele><time>2026-04-18T07:17:24Z</time></trkpt><trkpt lat="45.11963925515678" lon="8.451188158739496"><ele>119.5</ele><time>2026-04-18T07:17:25Z</time></trkpt><trkpt lat="45.119521978595905" lon="8.451199312350038"><ele>119.25</ele><time>2026-04-18T07:17:26Z</time></trkpt><trkpt lat="45.119400708349254" lon="8.45120979591471"><ele>119.0</ele><time>2026-04-18T07:17:27Z</time></trkpt><trkpt lat="45.11927209345143" lon="8.451219370147486"><ele>119.0</ele><time>2026-04-18T07:17:28Z</time></trkpt><trkpt lat="45.11913851553275" lon="8.451227482331847"><ele>119.0</ele><time>2026-04-18T07:17:29Z</time></trkpt><trkpt lat="45.11900203173513" lon="8.451235627091595"><ele>119.0</ele><time>2026-04-18T07:17:30Z</time></trkpt><trkpt lat="45.118862087916945" lon="8.451242555704857"><ele>119.0</ele><time>2026-04-18T07:17:31Z</time></trkpt><trkpt lat="45.11871518009528" lon="8.451249995967862"><ele>119.33333333333333</ele><time>2026-04-18T07:17:32Z</time></trkpt><trkpt lat="45.11856474264473" lon="8.45125860139264"><ele>119.66666666666666</ele><time>2026-04-18T07:17:33Z</time></trkpt><trkpt lat="45.1184091249471" lon="8.451268031885194"><ele>120.0</ele><time>2026-04-18T07:17:34Z</time></trkpt><trkpt lat="45.118262774586334" lon="8.451279116037869"><ele>119.0</ele><time>2026-04-18T07:17:35Z</time></trkpt><trkpt lat="45.11811869260368" lon="8.451294616775996"><ele>118.0</ele><time>2026-04-18T07:17:36Z</time></trkpt><trkpt lat="45.11796813064887" lon="8.45131079313149"><ele>117.0</ele><time>2026-04-18T07:17:36.999Z</time></trkpt><trkpt lat="45.11779992828089" lon="8.451322942331036"><ele>117.0</ele><time>2026-04-18T07:17:37.999Z</time></trkpt><trkpt lat="45.11765899239912" lon="8.451337429211232"><ele>117.0</ele><time>2026-04-18T07:17:38.999Z</time></trkpt><trkpt lat="45.11748902847901" lon="8.451326306571078"><ele>117.0</ele><time>2026-04-18T07:17:40.058Z</time></trkpt><trkpt lat="45.11720110950119" lon="8.451398908935486"><ele>116.75</ele><time>2026-04-18T07:17:41.999Z</time></trkpt><trkpt lat="45.11706678867507" lon="8.451361378994541"><ele>116.5</ele><time>2026-04-18T07:17:42.999Z</time></trkpt><trkpt lat="45.11690977202525" lon="8.451361983992602"><ele>116.25</ele><time>2026-04-18T07:17:43.999Z</time></trkpt><trkpt lat="45.116772265887505" lon="8.45138190405609"><ele>116.0</ele><time>2026-04-18T07:17:44.999Z</time></trkpt><trkpt lat="45.11662938708697" lon="8.451386649031917"><ele>116.25</ele><time>2026-04-18T07:17:45.999Z</time></trkpt><trkpt lat="45.11649255159134" lon="8.451395915453348"><ele>116.5</ele><time>2026-04-18T07:17:46.999Z</time></trkpt><trkpt lat="45.116358842177156" lon="8.451405038261838"><ele>116.75</ele><time>2026-04-18T07:17:47.999Z</time></trkpt><trkpt lat="45.116232934326916" lon="8.45140642337611"><ele>117.0</ele><time>2026-04-18T07:17:48.999Z</time></trkpt><trkpt lat="45.1161051418092" lon="8.451385752193742"><ele>117.0</ele><time>2026-04-18T07:17:49.999Z</time></trkpt><trkpt lat="45.11598096480565" lon="8.451338707734218"><ele>117.0</ele><time>2026-04-18T07:17:50.999Z</time></trkpt><trkpt lat="45.11586879596949" lon="8.451242848218277"><ele>117.0</ele><time>2026-04-18T07:17:51.999Z</time></trkpt><trkpt lat="45.115771716732" lon="8.451118996575415"><ele>117.0</ele><time>2026-04-18T07:17:52.999Z</time></trkpt><trkpt lat="45.115692977180544" lon="8.450981883893133"><ele>117.19999999999999</ele><time>2026-04-18T07:17:53.999Z</time></trkpt><trkpt lat="45.11562712457483" lon="8.450854059779722"><ele>117.39999999999999</ele><time>2026-04-18T07:17:54.999Z</time></trkpt><trkpt lat="45.115561300162895" lon="8.450739313095674"><ele>117.60000000000001</ele><time>2026-04-18T07:17:55.999Z</time></trkpt><trkpt lat="45.11547953662831" lon="8.450646398702927"><ele>117.80000000000001</ele><time>2026-04-18T07:17:56.999Z</time></trkpt><trkpt lat="45.11538388114166" lon="8.450593205190737"><ele>118.0</ele><time>2026-04-18T07:17:57.999Z</time></trkpt><trkpt lat="45.115278443226906" lon="8.450600894512247"><ele>118.0</ele><time>2026-04-18T07:17:58.999Z</time></trkpt><trkpt lat="45.115179106183525" lon="8.450654860675494"><ele>118.00000000000001</ele><time>2026-04-18T07:17:59.999Z</time></trkpt><trkpt lat="45.115098951718664" lon="8.450761680444602"><ele>118.00000000000001</ele><time>2026-04-18T07:18:00.999Z</time></trkpt><trkpt lat="45.11504883508483" lon="8.450902141546266"><ele>118.0</ele><time>2026-04-18T07:18:01.999Z</time></trkpt><trkpt lat="45.115037154593566" lon="8.451061929271889"><ele>118.0</ele><time>2026-04-18T07:18:02.999Z</time></trkpt><trkpt lat="45.1150403257353" lon="8.451203399131575"><ele>118.25</ele><time>2026-04-18T07:18:03.999Z</time></trkpt><trkpt lat="45.11504620184915" lon="8.451312318656038"><ele>118.5</ele><time>2026-04-18T07:18:04.999Z</time></trkpt><trkpt lat="45.11519394953892" lon="8.45139559000708"><ele>118.75</ele><time>2026-04-18T07:18:05.999Z</time></trkpt><trkpt lat="45.11529359445745" lon="8.451452984548784"><ele>119.0</ele><time>2026-04-18T07:18:06.999Z</time></trkpt><trkpt lat="45.11539987917881" lon="8.451477713587373"><ele>119.0</ele><time>2026-04-18T07:18:07.999Z</time></trkpt><trkpt lat="45.11551147645457" lon="8.451487956042229"><ele>119.0</ele><time>2026-04-18T07:18:08.999Z</time></trkpt><trkpt lat="45.115622692247655" lon="8.451481396312273"><ele>119.0</ele><time>2026-04-18T07:18:09.999Z</time></trkpt><trkpt lat="45.115726489649674" lon="8.451465064211565"><ele>119.0</ele><time>2026-04-18T07:18:10.999Z</time></trkpt><trkpt lat="45.11581974996768" lon="8.451459901007839"><ele>119.0</ele><time>2026-04-18T07:18:11.999Z</time></trkpt><trkpt lat="45.11589535831923" lon="8.451484096147649"><ele>118.6</ele><time>2026-04-18T07:18:12.999Z</time></trkpt><trkpt lat="45.115944015014215" lon="8.451551512593193"><ele>118.2</ele><time>2026-04-18T07:18:13.999Z</time></trkpt><trkpt lat="45.115975292735385" lon="8.451654742934332"><ele>117.79999999999998</ele><time>2026-04-18T07:18:14.999Z</time></trkpt><trkpt lat="45.116001685658325" lon="8.451763948159732"><ele>117.39999999999999</ele><time>2026-04-18T07:18:15.999Z</time></trkpt><trkpt lat="45.11593526965805" lon="8.451904521267094"><ele>117.0</ele><time>2026-04-18T07:18:16.999Z</time></trkpt><trkpt lat="45.11591024269273" lon="8.452054319849035"><ele>116.83333333333333</ele><time>2026-04-18T07:18:17.999Z</time></trkpt><trkpt lat="45.11590749171214" lon="8.452179853940683"><ele>116.66666666666666</ele><time>2026-04-18T07:18:18.999Z</time></trkpt><trkpt lat="45.115897624933595" lon="8.452313695314455"><ele>116.5</ele><time>2026-04-18T07:18:19.999Z</time></trkpt><trkpt lat="45.11591051126167" lon="8.452444942145084"><ele>116.33333333333333</ele><time>2026-04-18T07:18:20.999Z</time></trkpt><trkpt lat="45.11595826971405" lon="8.452541101266592"><ele>116.16666666666666</ele><time>2026-04-18T07:18:21.999Z</time></trkpt><trkpt lat="45.11598386552765" lon="8.45265614081081"><ele>116.0</ele><time>2026-04-18T07:18:22.999Z</time></trkpt><trkpt lat="45.116003826736204" lon="8.452763555291067"><ele>116.0</ele><time>2026-04-18T07:18:23.999Z</time></trkpt><trkpt lat="45.11600057193208" lon="8.452921240924612"><ele>116.0</ele><time>2026-04-18T07:18:24.999Z</time></trkpt><trkpt lat="45.11571526969883" lon="8.453162292645372"><ele>116.0</ele><time>2026-04-18T07:18:25.999Z</time></trkpt><trkpt lat="45.115690739171335" lon="8.453284160053823"><ele>115.99999999999999</ele><time>2026-04-18T07:18:26.999Z</time></trkpt><trkpt lat="45.1156695011126" lon="8.453393700245094"><ele>116.0</ele><time>2026-04-18T07:18:27.999Z</time></trkpt><trkpt lat="45.11565498520213" lon="8.453486247826099"><ele>116.0</ele><time>2026-04-18T07:18:28.999Z</time></trkpt><trkpt lat="45.11562488596297" lon="8.45357438424802"><ele>116.0</ele><time>2026-04-18T07:18:30.999Z</time></trkpt><trkpt lat="45.11553646014771" lon="8.45362272076631"><ele>115.99999999999999</ele><time>2026-04-18T07:18:32.999Z</time></trkpt><trkpt lat="45.115513629392986" lon="8.453795110719971"><ele>116.0</ele><time>2026-04-18T07:18:34.999Z</time></trkpt><trkpt lat="45.11551176013346" lon="8.453898011522691"><ele>115.99999999999999</ele><time>2026-04-18T07:18:35.999Z</time></trkpt><trkpt lat="45.11550520664738" lon="8.454009301243014"><ele>116.0</ele><time>2026-04-18T07:18:36.999Z</time></trkpt><trkpt lat="45.115502520339696" lon="8.454121298987374"><ele>116.0</ele><time>2026-04-18T07:18:37.999Z</time></trkpt><trkpt lat="45.11549776280727" lon="8.45425055271392"><ele>116.0</ele><time>2026-04-18T07:18:38.999Z</time></trkpt><trkpt lat="45.11549104641107" lon="8.45437746241893"><ele>115.99999999999999</ele><time>2026-04-18T07:18:39.999Z</time></trkpt><trkpt lat="45.11548390255635" lon="8.454511014428107"><ele>116.0</ele><time>2026-04-18T07:18:40.999Z</time></trkpt><trkpt lat="45.115478286130724" lon="8.454647972997634"><ele>116.0</ele><time>2026-04-18T07:18:42Z</time></trkpt><trkpt lat="45.1154712065072" lon="8.454782134575417"><ele>116.0</ele><time>2026-04-18T07:18:43Z</time></trkpt><trkpt lat="45.11546505226452" lon="8.45491742050963"><ele>116.0</ele><time>2026-04-18T07:18:44Z</time></trkpt><trkpt lat="45.11545758305435" lon="8.455053864226032"><ele>116.0</ele><time>2026-04-18T07:18:45Z</time></trkpt><trkpt lat="45.115451262597404" lon="8.455186054510397"><ele>116.0</ele><time>2026-04-18T07:18:46Z</time></trkpt><trkpt lat="45.11544397417812" lon="8.455324283611715"><ele>115.6</ele><time>2026-04-18T07:18:47Z</time></trkpt><trkpt lat="45.115439159051085" lon="8.455463143738358"><ele>115.19999999999999</ele><time>2026-04-18T07:18:48Z</time></trkpt><trkpt lat="45.11543301302697" lon="8.455600900951707"><ele>114.80000000000001</ele><time>2026-04-18T07:18:49Z</time></trkpt><trkpt lat="45.115426468715036" lon="8.455740769339"><ele>114.4</ele><time>2026-04-18T07:18:50Z</time></trkpt><trkpt lat="45.115421881178364" lon="8.45587616854303"><ele>114.0</ele><time>2026-04-18T07:18:51Z</time></trkpt><trkpt lat="45.11541477593034" lon="8.456006877217538"><ele>114.0</ele><time>2026-04-18T07:18:52Z</time></trkpt><trkpt lat="45.115410932739245" lon="8.456131212289161"><ele>114.0</ele><time>2026-04-18T07:18:53Z</time></trkpt><trkpt lat="45.11540238227102" lon="8.456258252434772"><ele>114.0</ele><time>2026-04-18T07:18:54Z</time></trkpt><trkpt lat="45.11539417847254" lon="8.456394450193262"><ele>114.0</ele><time>2026-04-18T07:18:55Z</time></trkpt><trkpt lat="45.11538236969056" lon="8.456530298408097"><ele>114.0</ele><time>2026-04-18T07:18:56Z</time></trkpt><trkpt lat="45.11536781913167" lon="8.456668480600918"><ele>114.0</ele><time>2026-04-18T07:18:57Z</time></trkpt><trkpt lat="45.11535981702229" lon="8.456805153298196"><ele>114.0</ele><time>2026-04-18T07:18:58Z</time></trkpt><trkpt lat="45.11535338569836" lon="8.456936034836753"><ele>114.0</ele><time>2026-04-18T07:18:59Z</time></trkpt><trkpt lat="45.1153432111425" lon="8.45706915225404"><ele>114.0</ele><time>2026-04-18T07:19:00Z</time></trkpt><trkpt lat="45.11533027922057" lon="8.457202939739995"><ele>114.0</ele><time>2026-04-18T07:19:01Z</time></trkpt><trkpt lat="45.115314550509055" lon="8.457342129807714"><ele>113.6</ele><time>2026-04-18T07:19:02Z</time></trkpt><trkpt lat="45.115304609291286" lon="8.457474280493749"><ele>113.2</ele><time>2026-04-18T07:19:03Z</time></trkpt><trkpt lat="45.115297374240825" lon="8.457614490657567"><ele>112.79999999999998</ele><time>2026-04-18T07:19:04Z</time></trkpt><trkpt lat="45.1152913653386" lon="8.457761376652742"><ele>112.39999999999999</ele><time>2026-04-18T07:19:05Z</time></trkpt><trkpt lat="45.11527463130101" lon="8.457898546334345"><ele>112.0</ele><time>2026-04-18T07:19:06Z</time></trkpt><trkpt lat="45.11527600512988" lon="8.458048722795116"><ele>112.0</ele><time>2026-04-18T07:19:07Z</time></trkpt><trkpt lat="45.115272598858084" lon="8.458195797462716"><ele>111.99999999999999</ele><time>2026-04-18T07:19:08Z</time></trkpt><trkpt lat="45.11526660285116" lon="8.458339820939448"><ele>111.99999999999999</ele><time>2026-04-18T07:19:09Z</time></trkpt><trkpt lat="45.1152619184641" lon="8.458472383573396"><ele>112.0</ele><time>2026-04-18T07:19:10Z</time></trkpt><trkpt lat="45.11525892869856" lon="8.458610491899487"><ele>112.0</ele><time>2026-04-18T07:19:11Z</time></trkpt><trkpt lat="45.115252548243774" lon="8.458743797794178"><ele>111.8</ele><time>2026-04-18T07:19:12Z</time></trkpt><trkpt lat="45.11524577549241" lon="8.458871102781952"><ele>111.6</ele><time>2026-04-18T07:19:13Z</time></trkpt><trkpt lat="45.11524028521334" lon="8.458997940278381"><ele>111.39999999999999</ele><time>2026-04-18T07:19:14Z</time></trkpt><trkpt lat="45.11523323662157" lon="8.459141819567167"><ele>111.19999999999999</ele><time>2026-04-18T07:19:15Z</time></trkpt><trkpt lat="45.1152259263587" lon="8.459285020610519"><ele>111.0</ele><time>2026-04-18T07:19:16Z</time></trkpt><trkpt lat="45.1152254529653" lon="8.459428389543007"><ele>111.0</ele><time>2026-04-18T07:19:17Z</time></trkpt><trkpt lat="45.115223594955914" lon="8.45957676039273"><ele>111.0</ele><time>2026-04-18T07:19:18Z</time></trkpt><trkpt lat="45.11522120832794" lon="8.459719333859605"><ele>111.0</ele><time>2026-04-18T07:19:19Z</time></trkpt><trkpt lat="45.11522225678167" lon="8.459853255316363"><ele>111.0</ele><time>2026-04-18T07:19:20Z</time></trkpt><trkpt lat="45.11522312278504" lon="8.459976505319174"><ele>111.0</ele><time>2026-04-18T07:19:21Z</time></trkpt><trkpt lat="45.11522391928268" lon="8.460099484182884"><ele>111.0</ele><time>2026-04-18T07:19:22Z</time></trkpt><trkpt lat="45.115225069138965" lon="8.460229104168596"><ele>111.0</ele><time>2026-04-18T07:19:23Z</time></trkpt><trkpt lat="45.11522137486866" lon="8.460371211410243"><ele>111.0</ele><time>2026-04-18T07:19:24Z</time></trkpt><trkpt lat="45.115217501650264" lon="8.460505383250645"><ele>111.0</ele><time>2026-04-18T07:19:25Z</time></trkpt><trkpt lat="45.11521586852424" lon="8.460639338954905"><ele>111.0</ele><time>2026-04-18T07:19:26Z</time></trkpt><trkpt lat="45.11521464341587" lon="8.460764288359655"><ele>111.0</ele><time>2026-04-18T07:19:27Z</time></trkpt><trkpt lat="45.11521028325848" lon="8.460869041037036"><ele>111.0</ele><time>2026-04-18T07:19:28Z</time></trkpt><trkpt lat="45.115205476307295" lon="8.460958825104356"><ele>111.0</ele><time>2026-04-18T07:19:29Z</time></trkpt><trkpt lat="45.11516460818944" lon="8.461101159002277"><ele>111.0</ele><time>2026-04-18T07:19:31Z</time></trkpt><trkpt lat="45.11504562645981" lon="8.46112535283112"><ele>111.0</ele><time>2026-04-18T07:19:33Z</time></trkpt><trkpt lat="45.114961546700414" lon="8.461118098868425"><ele>111.6</ele><time>2026-04-18T07:19:34Z</time></trkpt><trkpt lat="45.11487725100332" lon="8.461118879225792"><ele>112.19999999999999</ele><time>2026-04-18T07:19:35Z</time></trkpt><trkpt lat="45.114786113629066" lon="8.46112425547291"><ele>112.80000000000001</ele><time>2026-04-18T07:19:36Z</time></trkpt><trkpt lat="45.11469077527834" lon="8.461127307037238"><ele>113.4</ele><time>2026-04-18T07:19:37Z</time></trkpt><trkpt lat="45.114597861626926" lon="8.46112655457668"><ele>114.0</ele><time>2026-04-18T07:19:37.999Z</time></trkpt><trkpt lat="45.11450583583124" lon="8.461134538451107"><ele>114.0</ele><time>2026-04-18T07:19:38.999Z</time></trkpt><trkpt lat="45.11441393541436" lon="8.461133303942399"><ele>114.0</ele><time>2026-04-18T07:19:39.999Z</time></trkpt><trkpt lat="45.11431784580855" lon="8.461134638483994"><ele>114.0</ele><time>2026-04-18T07:19:40.999Z</time></trkpt><trkpt lat="45.114222182207314" lon="8.461143818785553"><ele>114.0</ele><time>2026-04-18T07:19:41.999Z</time></trkpt><trkpt lat="45.11412686789074" lon="8.461146724353247"><ele>114.0</ele><time>2026-04-18T07:19:42.999Z</time></trkpt><trkpt lat="45.11403359942269" lon="8.46114830676645"><ele>114.0</ele><time>2026-04-18T07:19:43.999Z</time></trkpt><trkpt lat="45.11393493693659" lon="8.46115059850644"><ele>114.0</ele><time>2026-04-18T07:19:44.999Z</time></trkpt><trkpt lat="45.11383630388421" lon="8.461154273297897"><ele>114.0</ele><time>2026-04-18T07:19:45.999Z</time></trkpt><trkpt lat="45.1137369168719" lon="8.461158411688462"><ele>114.0</ele><time>2026-04-18T07:19:46.999Z</time></trkpt><trkpt lat="45.113635387721814" lon="8.461159489880833"><ele>114.0</ele><time>2026-04-18T07:19:47.999Z</time></trkpt><trkpt lat="45.11353505903584" lon="8.461162172520318"><ele>114.0</ele><time>2026-04-18T07:19:48.999Z</time></trkpt><trkpt lat="45.113438538304734" lon="8.46116259098528"><ele>114.0</ele><time>2026-04-18T07:19:49.999Z</time></trkpt><trkpt lat="45.11336031224271" lon="8.461165188479201"><ele>114.0</ele><time>2026-04-18T07:19:50.999Z</time></trkpt><trkpt lat="45.11329073798518" lon="8.461171326624669"><ele>114.0</ele><time>2026-04-18T07:19:51.999Z</time></trkpt><trkpt lat="45.11321635037723" lon="8.461173454988787"><ele>114.0</ele><time>2026-04-18T07:19:52.999Z</time></trkpt><trkpt lat="45.11314688327337" lon="8.461170800547189"><ele>114.0</ele><time>2026-04-18T07:19:53.999Z</time></trkpt><trkpt lat="45.113051012499646" lon="8.46118682318962"><ele>114.0</ele><time>2026-04-18T07:19:55.999Z</time></trkpt><trkpt lat="45.1129801394954" lon="8.461277063689247"><ele>114.0</ele><time>2026-04-18T07:19:57.999Z</time></trkpt><trkpt lat="45.112978237748784" lon="8.461378239694858"><ele>114.0</ele><time>2026-04-18T07:19:58.999Z</time></trkpt><trkpt lat="45.11299347354438" lon="8.461481297344607"><ele>114.0</ele><time>2026-04-18T07:19:59.999Z</time></trkpt><trkpt lat="45.11301453111276" lon="8.46158321816697"><ele>114.0</ele><time>2026-04-18T07:20:00.999Z</time></trkpt><trkpt lat="45.113030771292856" lon="8.461700362994472"><ele>114.0</ele><time>2026-04-18T07:20:01.999Z</time></trkpt><trkpt lat="45.11304447395733" lon="8.46181626148382"><ele>113.80000000000001</ele><time>2026-04-18T07:20:02.999Z</time></trkpt><trkpt lat="45.1130560159314" lon="8.461939315386308"><ele>113.60000000000001</ele><time>2026-04-18T07:20:03.999Z</time></trkpt><trkpt lat="45.113071959060534" lon="8.462078454723935"><ele>113.4</ele><time>2026-04-18T07:20:04.999Z</time></trkpt><trkpt lat="45.11309231745805" lon="8.462221341013004"><ele>113.2</ele><time>2026-04-18T07:20:05.999Z</time></trkpt><trkpt lat="45.113114054191804" lon="8.46237301279939"><ele>113.0</ele><time>2026-04-18T07:20:06.999Z</time></trkpt><trkpt lat="45.113134122420156" lon="8.462524897638126"><ele>113.0</ele><time>2026-04-18T07:20:07.999Z</time></trkpt><trkpt lat="45.11314992032801" lon="8.462681189402248"><ele>113.00000000000001</ele><time>2026-04-18T07:20:08.999Z</time></trkpt><trkpt lat="45.11316518437863" lon="8.462834219529944"><ele>113.00000000000001</ele><time>2026-04-18T07:20:09.999Z</time></trkpt><trkpt lat="45.11318499773606" lon="8.462987243883818"><ele>113.0</ele><time>2026-04-18T07:20:10.999Z</time></trkpt><trkpt lat="45.11320928538063" lon="8.463138957231568"><ele>113.0</ele><time>2026-04-18T07:20:11.999Z</time></trkpt><trkpt lat="45.1132376916002" lon="8.463293035483368"><ele>113.2</ele><time>2026-04-18T07:20:12.999Z</time></trkpt><trkpt lat="45.11325264516207" lon="8.463449218890863"><ele>113.4</ele><time>2026-04-18T07:20:13.999Z</time></trkpt><trkpt lat="45.11327152851867" lon="8.463605266409795"><ele>113.60000000000001</ele><time>2026-04-18T07:20:14.999Z</time></trkpt><trkpt lat="45.11329300714218" lon="8.463765177722026"><ele>113.80000000000001</ele><time>2026-04-18T07:20:15.999Z</time></trkpt><trkpt lat="45.11330998972613" lon="8.463920269992155"><ele>114.0</ele><time>2026-04-18T07:20:16.999Z</time></trkpt><trkpt lat="45.1133315451109" lon="8.464061319507566"><ele>114.2</ele><time>2026-04-18T07:20:17.999Z</time></trkpt><trkpt lat="45.11334989979155" lon="8.464202505301088"><ele>114.4</ele><time>2026-04-18T07:20:18.999Z</time></trkpt><trkpt lat="45.113379729139695" lon="8.464344171634135"><ele>114.6</ele><time>2026-04-18T07:20:19.999Z</time></trkpt><trkpt lat="45.113436139381655" lon="8.464478073362914"><ele>114.8</ele><time>2026-04-18T07:20:20.999Z</time></trkpt><trkpt lat="45.11350238282903" lon="8.464609051134708"><ele>115.0</ele><time>2026-04-18T07:20:21.999Z</time></trkpt><trkpt lat="45.11358162083945" lon="8.464732771483643"><ele>114.6</ele><time>2026-04-18T07:20:22.999Z</time></trkpt><trkpt lat="45.113664949395904" lon="8.464847730129629"><ele>114.2</ele><time>2026-04-18T07:20:23.999Z</time></trkpt><trkpt lat="45.11375181492165" lon="8.464942314355673"><ele>113.80000000000001</ele><time>2026-04-18T07:20:24.999Z</time></trkpt><trkpt lat="45.11384736174964" lon="8.46500873673188"><ele>113.4</ele><time>2026-04-18T07:20:25.999Z</time></trkpt><trkpt lat="45.113951130779654" lon="8.465061465692434"><ele>113.0</ele><time>2026-04-18T07:20:26.999Z</time></trkpt><trkpt lat="45.1140600399839" lon="8.46510083620047"><ele>113.2</ele><time>2026-04-18T07:20:27.999Z</time></trkpt><trkpt lat="45.114168424379734" lon="8.465137659430052"><ele>113.4</ele><time>2026-04-18T07:20:28.999Z</time></trkpt><trkpt lat="45.11427207212878" lon="8.46518680834155"><ele>113.60000000000001</ele><time>2026-04-18T07:20:29.999Z</time></trkpt><trkpt lat="45.11437303933359" lon="8.465258262527296"><ele>113.80000000000001</ele><time>2026-04-18T07:20:30.999Z</time></trkpt><trkpt lat="45.114465676954666" lon="8.465341692379468"><ele>114.0</ele><time>2026-04-18T07:20:31.999Z</time></trkpt><trkpt lat="45.11455874654724" lon="8.465435520320193"><ele>113.80000000000001</ele><time>2026-04-18T07:20:32.999Z</time></trkpt><trkpt lat="45.11462940853007" lon="8.465549367329277"><ele>113.60000000000001</ele><time>2026-04-18T07:20:33.999Z</time></trkpt><trkpt lat="45.11471600010432" lon="8.465651832354823"><ele>113.4</ele><time>2026-04-18T07:20:34.999Z</time></trkpt><trkpt lat="45.11477091036612" lon="8.465788378224207"><ele>113.2</ele><time>2026-04-18T07:20:35.999Z</time></trkpt><trkpt lat="45.114852275169774" lon="8.465895607486628"><ele>113.0</ele><time>2026-04-18T07:20:36.999Z</time></trkpt><trkpt lat="45.11491361639016" lon="8.466014587485283"><ele>113.0</ele><time>2026-04-18T07:20:37.999Z</time></trkpt><trkpt lat="45.11498542855314" lon="8.466117983741448"><ele>113.00000000000001</ele><time>2026-04-18T07:20:38.999Z</time></trkpt><trkpt lat="45.11506139104936" lon="8.466212827303357"><ele>113.00000000000001</ele><time>2026-04-18T07:20:39.999Z</time></trkpt><trkpt lat="45.115121183644554" lon="8.46631350568327"><ele>113.0</ele><time>2026-04-18T07:20:40.999Z</time></trkpt><trkpt lat="45.11519734332552" lon="8.466392430527177"><ele>113.0</ele><time>2026-04-18T07:20:41.999Z</time></trkpt><trkpt lat="45.11526523976213" lon="8.466471357535744"><ele>113.0</ele><time>2026-04-18T07:20:42.999Z</time></trkpt><trkpt lat="45.1153182883432" lon="8.466549462203318"><ele>113.00000000000001</ele><time>2026-04-18T07:20:43.999Z</time></trkpt><trkpt lat="45.11538436266624" lon="8.466648878588735"><ele>113.00000000000001</ele><time>2026-04-18T07:20:45.999Z</time></trkpt><trkpt lat="45.11541625947614" lon="8.46673194033279"><ele>113.0</ele><time>2026-04-18T07:20:48Z</time></trkpt><trkpt lat="45.11555686685897" lon="8.466690234375447"><ele>113.0</ele><time>2026-04-18T07:20:50Z</time></trkpt><trkpt lat="45.11563239792116" lon="8.466769100262596"><ele>112.99999999999999</ele><time>2026-04-18T07:20:53Z</time></trkpt><trkpt lat="45.115666379190046" lon="8.466856742129378"><ele>113.0</ele><time>2026-04-18T07:20:55Z</time></trkpt><trkpt lat="45.115713385888434" lon="8.466957738187576"><ele>113.0</ele><time>2026-04-18T07:21:08Z</time></trkpt><trkpt lat="45.11565663293128" lon="8.466832966746244"><ele>113.0</ele><time>2026-04-18T07:21:17Z</time></trkpt><trkpt lat="45.11562528069193" lon="8.466738350152013"><ele>112.99999999999999</ele><time>2026-04-18T07:21:19Z</time></trkpt><trkpt lat="45.115577358493944" lon="8.466675628560779"><ele>113.0</ele><time>2026-04-18T07:21:21Z</time></trkpt><trkpt lat="45.11534243377029" lon="8.466791676780005"><ele>113.0</ele><time>2026-04-18T07:21:23Z</time></trkpt><trkpt lat="45.11525212955331" lon="8.466863792354967"><ele>113.0</ele><time>2026-04-18T07:21:24Z</time></trkpt><trkpt lat="45.11514610652659" lon="8.466940306018456"><ele>113.0</ele><time>2026-04-18T07:21:25Z</time></trkpt><trkpt lat="45.11503161400102" lon="8.467016660771545"><ele>113.0</ele><time>2026-04-18T07:21:26Z</time></trkpt><trkpt lat="45.11491574667011" lon="8.467094254296851"><ele>112.75</ele><time>2026-04-18T07:21:27Z</time></trkpt><trkpt lat="45.114793490219405" lon="8.46718252826432"><ele>112.5</ele><time>2026-04-18T07:21:28Z</time></trkpt><trkpt lat="45.114667311975865" lon="8.467271340308839"><ele>112.25</ele><time>2026-04-18T07:21:29Z</time></trkpt><trkpt lat="45.114535722135145" lon="8.467361510215298"><ele>112.0</ele><time>2026-04-18T07:21:30Z</time></trkpt><trkpt lat="45.11440178498571" lon="8.467455777102668"><ele>112.0</ele><time>2026-04-18T07:21:31Z</time></trkpt><trkpt lat="45.11426698380909" lon="8.467549213477941"><ele>112.0</ele><time>2026-04-18T07:21:32Z</time></trkpt><trkpt lat="45.114131680486345" lon="8.467644221653476"><ele>112.0</ele><time>2026-04-18T07:21:33Z</time></trkpt><trkpt lat="45.11399498194032" lon="8.467742826702965"><ele>112.33333333333334</ele><time>2026-04-18T07:21:34Z</time></trkpt><trkpt lat="45.1138567724875" lon="8.467848111695776"><ele>112.66666666666666</ele><time>2026-04-18T07:21:35Z</time></trkpt><trkpt lat="45.113719460783564" lon="8.467959136421575"><ele>113.0</ele><time>2026-04-18T07:21:36Z</time></trkpt><trkpt lat="45.11357936707775" lon="8.468063844260488"><ele>113.0</ele><time>2026-04-18T07:21:37Z</time></trkpt><trkpt lat="45.11344019811368" lon="8.468168262026534"><ele>113.0</ele><time>2026-04-18T07:21:38Z</time></trkpt><trkpt lat="45.11329864768609" lon="8.468272851276314"><ele>113.0</ele><time>2026-04-18T07:21:39Z</time></trkpt><trkpt lat="45.11315546571362" lon="8.468380153848951"><ele>113.0</ele><time>2026-04-18T07:21:40Z</time></trkpt><trkpt lat="45.11301248928534" lon="8.468486440217374"><ele>113.0</ele><time>2026-04-18T07:21:41Z</time></trkpt><trkpt lat="45.11286640300535" lon="8.468594922507515"><ele>113.0</ele><time>2026-04-18T07:21:41.999Z</time></trkpt><trkpt lat="45.112721289217745" lon="8.468703246207303"><ele>112.66666666666666</ele><time>2026-04-18T07:21:42.999Z</time></trkpt><trkpt lat="45.11257082481617" lon="8.46882479850763"><ele>112.33333333333334</ele><time>2026-04-18T07:21:43.999Z</time></trkpt><trkpt lat="45.11242433457362" lon="8.468931594717684"><ele>112.0</ele><time>2026-04-18T07:21:44.999Z</time></trkpt><trkpt lat="45.11228229215892" lon="8.46903889129266"><ele>112.0</ele><time>2026-04-18T07:21:45.999Z</time></trkpt><trkpt lat="45.112153471103795" lon="8.469140676562636"><ele>112.0</ele><time>2026-04-18T07:21:46.999Z</time></trkpt><trkpt lat="45.11203456466233" lon="8.469236246976838"><ele>112.0</ele><time>2026-04-18T07:21:47.999Z</time></trkpt><trkpt lat="45.111920354497016" lon="8.469334446057374"><ele>112.0</ele><time>2026-04-18T07:21:48.999Z</time></trkpt><trkpt lat="45.1118167093093" lon="8.469424060311702"><ele>112.0</ele><time>2026-04-18T07:21:49.999Z</time></trkpt><trkpt lat="45.111722792873465" lon="8.469517992643313"><ele>112.0</ele><time>2026-04-18T07:21:50.999Z</time></trkpt><trkpt lat="45.11162950623543" lon="8.469590160376015"><ele>112.0</ele><time>2026-04-18T07:21:51.999Z</time></trkpt><trkpt lat="45.11154932657212" lon="8.469703215432112"><ele>112.0</ele><time>2026-04-18T07:21:52.999Z</time></trkpt><trkpt lat="45.1114425196303" lon="8.469778359611952"><ele>111.75</ele><time>2026-04-18T07:21:53.999Z</time></trkpt><trkpt lat="45.111320717474214" lon="8.469841581824726"><ele>111.5</ele><time>2026-04-18T07:21:54.999Z</time></trkpt><trkpt lat="45.1111825429633" lon="8.469893659416178"><ele>111.25</ele><time>2026-04-18T07:21:55.999Z</time></trkpt><trkpt lat="45.11104079927157" lon="8.46993858597775"><ele>111.0</ele><time>2026-04-18T07:21:56.999Z</time></trkpt><trkpt lat="45.11089837908155" lon="8.46998001614938"><ele>111.0</ele><time>2026-04-18T07:21:57.999Z</time></trkpt><trkpt lat="45.11075614628731" lon="8.470020876651374"><ele>111.0</ele><time>2026-04-18T07:21:58.999Z</time></trkpt><trkpt lat="45.11061201371804" lon="8.470063780483713"><ele>111.0</ele><time>2026-04-18T07:21:59.999Z</time></trkpt><trkpt lat="45.11046129982277" lon="8.470107782364872"><ele>111.0</ele><time>2026-04-18T07:22:00.999Z</time></trkpt><trkpt lat="45.11031678309177" lon="8.470155296899193"><ele>111.0</ele><time>2026-04-18T07:22:01.999Z</time></trkpt><trkpt lat="45.11016701874798" lon="8.47019895180634"><ele>111.0</ele><time>2026-04-18T07:22:02.999Z</time></trkpt><trkpt lat="45.110021205729616" lon="8.470243920459946"><ele>111.0</ele><time>2026-04-18T07:22:03.999Z</time></trkpt><trkpt lat="45.10987768652632" lon="8.47028403672339"><ele>111.0</ele><time>2026-04-18T07:22:04.999Z</time></trkpt><trkpt lat="45.10973722528367" lon="8.47033009152325"><ele>111.0</ele><time>2026-04-18T07:22:05.999Z</time></trkpt><trkpt lat="45.10959501624974" lon="8.470374864141478"><ele>111.0</ele><time>2026-04-18T07:22:06.999Z</time></trkpt><trkpt lat="45.10945214318786" lon="8.470416433628024"><ele>111.0</ele><time>2026-04-18T07:22:07.999Z</time></trkpt><trkpt lat="45.10930868140963" lon="8.470462102366772"><ele>111.0</ele><time>2026-04-18T07:22:08.999Z</time></trkpt><trkpt lat="45.10916923900094" lon="8.470505353649823"><ele>111.0</ele><time>2026-04-18T07:22:09.999Z</time></trkpt><trkpt lat="45.109027043400275" lon="8.470546493667179"><ele>111.0</ele><time>2026-04-18T07:22:10.999Z</time></trkpt><trkpt lat="45.108889491353224" lon="8.470588441947232"><ele>111.0</ele><time>2026-04-18T07:22:11.999Z</time></trkpt><trkpt lat="45.10875119164026" lon="8.470630015373462"><ele>111.0</ele><time>2026-04-18T07:22:12.999Z</time></trkpt><trkpt lat="45.108612278023266" lon="8.470673836106727"><ele>111.0</ele><time>2026-04-18T07:22:13.999Z</time></trkpt><trkpt lat="45.10847329292204" lon="8.470718510083877"><ele>111.0</ele><time>2026-04-18T07:22:14.999Z</time></trkpt><trkpt lat="45.1083320066412" lon="8.470763569881003"><ele>111.0</ele><time>2026-04-18T07:22:15.999Z</time></trkpt><trkpt lat="45.10818843561338" lon="8.47080651935769"><ele>111.0</ele><time>2026-04-18T07:22:16.999Z</time></trkpt><trkpt lat="45.108048355377825" lon="8.470851392189548"><ele>111.0</ele><time>2026-04-18T07:22:17.999Z</time></trkpt><trkpt lat="45.10790995857856" lon="8.470896784683575"><ele>111.0</ele><time>2026-04-18T07:22:18.999Z</time></trkpt><trkpt lat="45.10776758795517" lon="8.470934533661664"><ele>111.0</ele><time>2026-04-18T07:22:19.999Z</time></trkpt><trkpt lat="45.107631517006155" lon="8.470978642038574"><ele>111.0</ele><time>2026-04-18T07:22:20.999Z</time></trkpt><trkpt lat="45.10749356609872" lon="8.471015512207892"><ele>111.0</ele><time>2026-04-18T07:22:21.999Z</time></trkpt><trkpt lat="45.10735919512275" lon="8.471069939635042"><ele>111.0</ele><time>2026-04-18T07:22:22.999Z</time></trkpt><trkpt lat="45.107223784790804" lon="8.471105512269437"><ele>111.0</ele><time>2026-04-18T07:22:23.999Z</time></trkpt><trkpt lat="45.1070863578107" lon="8.471154137357225"><ele>111.0</ele><time>2026-04-18T07:22:24.999Z</time></trkpt><trkpt lat="45.10694479730206" lon="8.471197625889285"><ele>111.0</ele><time>2026-04-18T07:22:25.999Z</time></trkpt><trkpt lat="45.106806297498224" lon="8.471237934787954"><ele>111.0</ele><time>2026-04-18T07:22:26.999Z</time></trkpt><trkpt lat="45.10666720640071" lon="8.471267437836406"><ele>111.0</ele><time>2026-04-18T07:22:27.999Z</time></trkpt><trkpt lat="45.106520931262345" lon="8.471298428286694"><ele>111.0</ele><time>2026-04-18T07:22:28.999Z</time></trkpt><trkpt lat="45.106377069781516" lon="8.471328858870255"><ele>110.75</ele><time>2026-04-18T07:22:29.999Z</time></trkpt><trkpt lat="45.10623594577752" lon="8.471358747681343"><ele>110.5</ele><time>2026-04-18T07:22:30.999Z</time></trkpt><trkpt lat="45.106094114200296" lon="8.471387575796514"><ele>110.25</ele><time>2026-04-18T07:22:31.999Z</time></trkpt><trkpt lat="45.10595864130447" lon="8.471422658971017"><ele>110.0</ele><time>2026-04-18T07:22:32.999Z</time></trkpt><trkpt lat="45.10582131022947" lon="8.471448543323895"><ele>109.75</ele><time>2026-04-18T07:22:33.999Z</time></trkpt><trkpt lat="45.105680649558714" lon="8.47147720444393"><ele>109.5</ele><time>2026-04-18T07:22:34.999Z</time></trkpt><trkpt lat="45.10554530954779" lon="8.471507147791613"><ele>109.25</ele><time>2026-04-18T07:22:35.999Z</time></trkpt><trkpt lat="45.10540807967921" lon="8.471535752014432"><ele>109.0</ele><time>2026-04-18T07:22:36.999Z</time></trkpt><trkpt lat="45.10527058646165" lon="8.47156349705783"><ele>109.0</ele><time>2026-04-18T07:22:37.999Z</time></trkpt><trkpt lat="45.1051377063738" lon="8.471591296582229"><ele>109.0</ele><time>2026-04-18T07:22:38.999Z</time></trkpt><trkpt lat="45.10500195443949" lon="8.471620076698473"><ele>109.0</ele><time>2026-04-18T07:22:39.999Z</time></trkpt><trkpt lat="45.10486533965889" lon="8.471647438368752"><ele>109.0</ele><time>2026-04-18T07:22:40.999Z</time></trkpt><trkpt lat="45.10472755173409" lon="8.471677328308159"><ele>108.75</ele><time>2026-04-18T07:22:41.999Z</time></trkpt><trkpt lat="45.10458473914622" lon="8.471709666371046"><ele>108.5</ele><time>2026-04-18T07:22:42.999Z</time></trkpt><trkpt lat="45.104440774563095" lon="8.471736143216942"><ele>108.25</ele><time>2026-04-18T07:22:43.999Z</time></trkpt><trkpt lat="45.104300088364276" lon="8.471765191718289"><ele>108.0</ele><time>2026-04-18T07:22:44.999Z</time></trkpt><trkpt lat="45.10416111499225" lon="8.471791618712093"><ele>108.0</ele><time>2026-04-18T07:22:45.999Z</time></trkpt><trkpt lat="45.10402247059561" lon="8.471821392931988"><ele>108.0</ele><time>2026-04-18T07:22:46.999Z</time></trkpt><trkpt lat="45.103881010944875" lon="8.47185121329368"><ele>108.0</ele><time>2026-04-18T07:22:47.999Z</time></trkpt><trkpt lat="45.10374395818637" lon="8.471879781224697"><ele>108.0</ele><time>2026-04-18T07:22:48.999Z</time></trkpt><trkpt lat="45.10360512015189" lon="8.47191157637274"><ele>108.0</ele><time>2026-04-18T07:22:49.999Z</time></trkpt><trkpt lat="45.10346721972955" lon="8.471936383795862"><ele>108.0</ele><time>2026-04-18T07:22:50.999Z</time></trkpt><trkpt lat="45.10333258184961" lon="8.471965939202205"><ele>108.0</ele><time>2026-04-18T07:22:51.999Z</time></trkpt><trkpt lat="45.10319451484982" lon="8.471997458041338"><ele>108.0</ele><time>2026-04-18T07:22:52.999Z</time></trkpt><trkpt lat="45.10305781770598" lon="8.47202595081147"><ele>108.0</ele><time>2026-04-18T07:22:54Z</time></trkpt><trkpt lat="45.10292275452155" lon="8.47205345970094"><ele>108.0</ele><time>2026-04-18T07:22:55Z</time></trkpt><trkpt lat="45.10278589396975" lon="8.472079329547343"><ele>108.0</ele><time>2026-04-18T07:22:56Z</time></trkpt><trkpt lat="45.102646693367326" lon="8.472107469186817"><ele>108.0</ele><time>2026-04-18T07:22:57Z</time></trkpt><trkpt lat="45.102508959284954" lon="8.472137433672263"><ele>108.25</ele><time>2026-04-18T07:22:58Z</time></trkpt><trkpt lat="45.10236853902639" lon="8.47216004328785"><ele>108.5</ele><time>2026-04-18T07:22:59Z</time></trkpt><trkpt lat="45.10223217200673" lon="8.472190466576626"><ele>108.75</ele><time>2026-04-18T07:23:00Z</time></trkpt><trkpt lat="45.102091410634664" lon="8.472211847573842"><ele>109.0</ele><time>2026-04-18T07:23:01Z</time></trkpt><trkpt lat="45.101949818741545" lon="8.47222793675443"><ele>109.0</ele><time>2026-04-18T07:23:02Z</time></trkpt><trkpt lat="45.101811353171975" lon="8.472248850576031"><ele>109.0</ele><time>2026-04-18T07:23:03Z</time></trkpt><trkpt lat="45.101671613966246" lon="8.47226243325992"><ele>109.0</ele><time>2026-04-18T07:23:04Z</time></trkpt><trkpt lat="45.101535753305086" lon="8.472279490769191"><ele>109.0</ele><time>2026-04-18T07:23:05Z</time></trkpt><trkpt lat="45.101399402726514" lon="8.472294702514137"><ele>109.0</ele><time>2026-04-18T07:23:06Z</time></trkpt><trkpt lat="45.10126336076951" lon="8.472310993272488"><ele>109.0</ele><time>2026-04-18T07:23:07Z</time></trkpt><trkpt lat="45.10112914355228" lon="8.472331236192419"><ele>109.0</ele><time>2026-04-18T07:23:08Z</time></trkpt><trkpt lat="45.10099343874248" lon="8.472350774720782"><ele>109.0</ele><time>2026-04-18T07:23:09Z</time></trkpt><trkpt lat="45.10085536993566" lon="8.47236178223314"><ele>108.75</ele><time>2026-04-18T07:23:10Z</time></trkpt><trkpt lat="45.10071759416238" lon="8.472376767749914"><ele>108.5</ele><time>2026-04-18T07:23:11Z</time></trkpt><trkpt lat="45.10057972341228" lon="8.472397057531989"><ele>108.25</ele><time>2026-04-18T07:23:12Z</time></trkpt><trkpt lat="45.10044307872383" lon="8.472417141343765"><ele>108.0</ele><time>2026-04-18T07:23:13Z</time></trkpt><trkpt lat="45.100305569859415" lon="8.472431982242865"><ele>108.0</ele><time>2026-04-18T07:23:14Z</time></trkpt><trkpt lat="45.1001659232343" lon="8.47244975254223"><ele>108.0</ele><time>2026-04-18T07:23:15Z</time></trkpt><trkpt lat="45.100026047131216" lon="8.472464923823907"><ele>108.0</ele><time>2026-04-18T07:23:16Z</time></trkpt><trkpt lat="45.0998860399871" lon="8.472483181005051"><ele>108.0</ele><time>2026-04-18T07:23:17Z</time></trkpt><trkpt lat="45.0997445095873" lon="8.47250158861641"><ele>107.75</ele><time>2026-04-18T07:23:18Z</time></trkpt><trkpt lat="45.09960531493651" lon="8.472517496778055"><ele>107.5</ele><time>2026-04-18T07:23:19Z</time></trkpt><trkpt lat="45.099466908890754" lon="8.472536111259645"><ele>107.25</ele><time>2026-04-18T07:23:20Z</time></trkpt><trkpt lat="45.09932644506087" lon="8.472550727786018"><ele>107.0</ele><time>2026-04-18T07:23:21Z</time></trkpt><trkpt lat="45.09919269156061" lon="8.47257622057189"><ele>107.0</ele><time>2026-04-18T07:23:22Z</time></trkpt><trkpt lat="45.09905663344846" lon="8.472586050594414"><ele>107.0</ele><time>2026-04-18T07:23:23Z</time></trkpt><trkpt lat="45.09892072912861" lon="8.472602613225737"><ele>107.0</ele><time>2026-04-18T07:23:24Z</time></trkpt><trkpt lat="45.09878475066684" lon="8.472621134349929"><ele>107.0</ele><time>2026-04-18T07:23:25Z</time></trkpt><trkpt lat="45.0986548007494" lon="8.472641201857654"><ele>107.0</ele><time>2026-04-18T07:23:26Z</time></trkpt><trkpt lat="45.09853367209867" lon="8.472656531088308"><ele>107.0</ele><time>2026-04-18T07:23:27Z</time></trkpt><trkpt lat="45.098420701836616" lon="8.472695098600667"><ele>107.0</ele><time>2026-04-18T07:23:28Z</time></trkpt><trkpt lat="45.09830021687618" lon="8.472730885341962"><ele>107.0</ele><time>2026-04-18T07:23:29Z</time></trkpt><trkpt lat="45.09818133722904" lon="8.472801078249221"><ele>107.0</ele><time>2026-04-18T07:23:30Z</time></trkpt><trkpt lat="45.09806373014651" lon="8.47288254840355"><ele>107.0</ele><time>2026-04-18T07:23:31Z</time></trkpt><trkpt lat="45.097948176756006" lon="8.472977618515042"><ele>107.0</ele><time>2026-04-18T07:23:32Z</time></trkpt><trkpt lat="45.097831543341464" lon="8.47306341503275"><ele>107.0</ele><time>2026-04-18T07:23:33Z</time></trkpt><trkpt lat="45.09770451748289" lon="8.473143447195033"><ele>107.0</ele><time>2026-04-18T07:23:34Z</time></trkpt><trkpt lat="45.09758328678204" lon="8.473226618604038"><ele>107.0</ele><time>2026-04-18T07:23:35Z</time></trkpt><trkpt lat="45.097457105911104" lon="8.473313314390177"><ele>107.0</ele><time>2026-04-18T07:23:36Z</time></trkpt><trkpt lat="45.09733515455915" lon="8.473398785786943"><ele>107.0</ele><time>2026-04-18T07:23:37Z</time></trkpt><trkpt lat="45.09722125201527" lon="8.473483195154548"><ele>107.0</ele><time>2026-04-18T07:23:38Z</time></trkpt><trkpt lat="45.09711403019687" lon="8.473554266221367"><ele>107.0</ele><time>2026-04-18T07:23:39Z</time></trkpt><trkpt lat="45.096999950880566" lon="8.473597027236679"><ele>107.0</ele><time>2026-04-18T07:23:40Z</time></trkpt><trkpt lat="45.09689308899823" lon="8.473642085893035"><ele>107.0</ele><time>2026-04-18T07:23:41Z</time></trkpt><trkpt lat="45.096783818107035" lon="8.473653638370017"><ele>107.0</ele><time>2026-04-18T07:23:42Z</time></trkpt><trkpt lat="45.09666667533556" lon="8.473643571413259"><ele>107.0</ele><time>2026-04-18T07:23:43Z</time></trkpt><trkpt lat="45.09654207516668" lon="8.473628635207465"><ele>107.0</ele><time>2026-04-18T07:23:44Z</time></trkpt><trkpt lat="45.09641107176071" lon="8.473611512964485"><ele>107.0</ele><time>2026-04-18T07:23:45Z</time></trkpt><trkpt lat="45.09627401015704" lon="8.47361586955283"><ele>107.0</ele><time>2026-04-18T07:23:46Z</time></trkpt><trkpt lat="45.096139677056364" lon="8.473573623486526"><ele>107.0</ele><time>2026-04-18T07:23:47Z</time></trkpt><trkpt lat="45.096003649439695" lon="8.473570111605014"><ele>107.0</ele><time>2026-04-18T07:23:48Z</time></trkpt><trkpt lat="45.09587217098988" lon="8.473558710519528"><ele>107.0</ele><time>2026-04-18T07:23:49Z</time></trkpt><trkpt lat="45.09575349102751" lon="8.473537421818785"><ele>107.19999999999999</ele><time>2026-04-18T07:23:50Z</time></trkpt><trkpt lat="45.09563960898877" lon="8.473515918481151"><ele>107.39999999999999</ele><time>2026-04-18T07:23:51Z</time></trkpt><trkpt lat="45.095532445025626" lon="8.473504036528588"><ele>107.60000000000001</ele><time>2026-04-18T07:23:52Z</time></trkpt><trkpt lat="45.09542964487905" lon="8.473491325984657"><ele>107.80000000000001</ele><time>2026-04-18T07:23:53Z</time></trkpt><trkpt lat="45.095328675541936" lon="8.473473730196936"><ele>108.0</ele><time>2026-04-18T07:23:53.999Z</time></trkpt><trkpt lat="45.09522434906891" lon="8.473458177596166"><ele>108.0</ele><time>2026-04-18T07:23:54.999Z</time></trkpt><trkpt lat="45.09511382963268" lon="8.473446582438095"><ele>108.0</ele><time>2026-04-18T07:23:55.999Z</time></trkpt><trkpt lat="45.094996723215516" lon="8.473410263619224"><ele>108.0</ele><time>2026-04-18T07:23:56.999Z</time></trkpt><trkpt lat="45.09486880724289" lon="8.473409918694017"><ele>108.0</ele><time>2026-04-18T07:23:57.999Z</time></trkpt><trkpt lat="45.09473378912241" lon="8.473382812047165"><ele>108.25</ele><time>2026-04-18T07:23:58.999Z</time></trkpt><trkpt lat="45.09459818948892" lon="8.473363408858294"><ele>108.5</ele><time>2026-04-18T07:23:59.999Z</time></trkpt><trkpt lat="45.094457734200624" lon="8.473366126466441"><ele>108.75</ele><time>2026-04-18T07:24:00.999Z</time></trkpt><trkpt lat="45.09431961649779" lon="8.473325214590746"><ele>109.0</ele><time>2026-04-18T07:24:01.999Z</time></trkpt><trkpt lat="45.09417817186889" lon="8.473326838039215"><ele>108.75</ele><time>2026-04-18T07:24:02.999Z</time></trkpt><trkpt lat="45.094037396942106" lon="8.473300874446407"><ele>108.5</ele><time>2026-04-18T07:24:03.999Z</time></trkpt><trkpt lat="45.09389564380584" lon="8.473284871624944"><ele>108.25</ele><time>2026-04-18T07:24:04.999Z</time></trkpt><trkpt lat="45.093756614391616" lon="8.473265021366343"><ele>108.0</ele><time>2026-04-18T07:24:05.999Z</time></trkpt><trkpt lat="45.09361392723268" lon="8.473245227250997"><ele>108.0</ele><time>2026-04-18T07:24:06.999Z</time></trkpt><trkpt lat="45.093475164850176" lon="8.473225979194467"><ele>108.0</ele><time>2026-04-18T07:24:07.999Z</time></trkpt><trkpt lat="45.09333458017436" lon="8.473204036653497"><ele>108.0</ele><time>2026-04-18T07:24:08.999Z</time></trkpt><trkpt lat="45.0931967060223" lon="8.473184884582619"><ele>108.0</ele><time>2026-04-18T07:24:09.999Z</time></trkpt><trkpt lat="45.09306037828428" lon="8.473167183214318"><ele>107.25</ele><time>2026-04-18T07:24:10.999Z</time></trkpt><trkpt lat="45.09291946334322" lon="8.473151333278253"><ele>106.5</ele><time>2026-04-18T07:24:11.999Z</time></trkpt><trkpt lat="45.09277723512741" lon="8.473131833806598"><ele>105.75</ele><time>2026-04-18T07:24:12.999Z</time></trkpt><trkpt lat="45.092637451497794" lon="8.473117264236599"><ele>105.0</ele><time>2026-04-18T07:24:13.999Z</time></trkpt><trkpt lat="45.09249871603157" lon="8.473094208610936"><ele>105.75</ele><time>2026-04-18T07:24:14.999Z</time></trkpt><trkpt lat="45.092359301722105" lon="8.473074616130162"><ele>106.5</ele><time>2026-04-18T07:24:15.999Z</time></trkpt><trkpt lat="45.09222034273898" lon="8.473055114228355"><ele>107.25</ele><time>2026-04-18T07:24:16.999Z</time></trkpt><trkpt lat="45.09208452114945" lon="8.473039140237113"><ele>108.0</ele><time>2026-04-18T07:24:17.999Z</time></trkpt><trkpt lat="45.09195085902453" lon="8.473020961455909"><ele>108.0</ele><time>2026-04-18T07:24:18.999Z</time></trkpt><trkpt lat="45.09181551132741" lon="8.473001832013892"><ele>108.0</ele><time>2026-04-18T07:24:19.999Z</time></trkpt><trkpt lat="45.09168476787273" lon="8.472983775700335"><ele>108.0</ele><time>2026-04-18T07:24:20.999Z</time></trkpt><trkpt lat="45.0915475464746" lon="8.472965602414794"><ele>108.0</ele><time>2026-04-18T07:24:21.999Z</time></trkpt><trkpt lat="45.09141458787213" lon="8.472945697354675"><ele>107.75</ele><time>2026-04-18T07:24:22.999Z</time></trkpt><trkpt lat="45.09128200069437" lon="8.472929760920184"><ele>107.5</ele><time>2026-04-18T07:24:23.999Z</time></trkpt><trkpt lat="45.09115140347068" lon="8.472893642570307"><ele>107.25</ele><time>2026-04-18T07:24:24.999Z</time></trkpt><trkpt lat="45.091021646028906" lon="8.472889580612552"><ele>107.0</ele><time>2026-04-18T07:24:25.999Z</time></trkpt><trkpt lat="45.09088721528505" lon="8.472870629946083"><ele>107.0</ele><time>2026-04-18T07:24:26.999Z</time></trkpt><trkpt lat="45.09075071587963" lon="8.472850858740312"><ele>107.0</ele><time>2026-04-18T07:24:27.999Z</time></trkpt><trkpt lat="45.09061077314015" lon="8.472832069407051"><ele>107.0</ele><time>2026-04-18T07:24:28.999Z</time></trkpt><trkpt lat="45.09048271974591" lon="8.472818911877477"><ele>107.0</ele><time>2026-04-18T07:24:29.999Z</time></trkpt><trkpt lat="45.09034656175432" lon="8.472803395788498"><ele>107.0</ele><time>2026-04-18T07:24:30.999Z</time></trkpt><trkpt lat="45.090215392869425" lon="8.472784119341"><ele>107.0</ele><time>2026-04-18T07:24:31.999Z</time></trkpt><trkpt lat="45.090087174502784" lon="8.47276707376101"><ele>107.0</ele><time>2026-04-18T07:24:32.999Z</time></trkpt><trkpt lat="45.08995713970802" lon="8.472748170534746"><ele>107.0</ele><time>2026-04-18T07:24:33.999Z</time></trkpt><trkpt lat="45.089829347447456" lon="8.472729110934464"><ele>107.25</ele><time>2026-04-18T07:24:34.999Z</time></trkpt><trkpt lat="45.08970235625492" lon="8.472709165963806"><ele>107.5</ele><time>2026-04-18T07:24:35.999Z</time></trkpt><trkpt lat="45.08957478580788" lon="8.472694205102092"><ele>107.75</ele><time>2026-04-18T07:24:36.999Z</time></trkpt><trkpt lat="45.089450281573995" lon="8.4726560259075"><ele>108.0</ele><time>2026-04-18T07:24:37.999Z</time></trkpt><trkpt lat="45.08932571471376" lon="8.472661782836111"><ele>108.0</ele><time>2026-04-18T07:24:38.999Z</time></trkpt><trkpt lat="45.089202940869036" lon="8.4726444979311"><ele>108.0</ele><time>2026-04-18T07:24:39.999Z</time></trkpt><trkpt lat="45.089088021317615" lon="8.472606110997829"><ele>108.0</ele><time>2026-04-18T07:24:40.999Z</time></trkpt><trkpt lat="45.088978102242585" lon="8.472606061203352"><ele>108.0</ele><time>2026-04-18T07:24:41.999Z</time></trkpt><trkpt lat="45.08887430355498" lon="8.47259556385287"><ele>108.4</ele><time>2026-04-18T07:24:42.999Z</time></trkpt><trkpt lat="45.08876968657476" lon="8.472580964328262"><ele>108.80000000000001</ele><time>2026-04-18T07:24:43.999Z</time></trkpt><trkpt lat="45.08866971033274" lon="8.472565021773724"><ele>109.2</ele><time>2026-04-18T07:24:44.999Z</time></trkpt><trkpt lat="45.08857905473785" lon="8.472555053176137"><ele>109.6</ele><time>2026-04-18T07:24:45.999Z</time></trkpt><trkpt lat="45.088498800603" lon="8.472544246800874"><ele>110.0</ele><time>2026-04-18T07:24:46.999Z</time></trkpt><trkpt lat="45.08842129648005" lon="8.472535713982824"><ele>110.0</ele><time>2026-04-18T07:24:47.999Z</time></trkpt><trkpt lat="45.08830458859929" lon="8.472559858282148"><ele>110.0</ele><time>2026-04-18T07:24:49.999Z</time></trkpt><trkpt lat="45.08824805345408" lon="8.47260097558495"><ele>110.0</ele><time>2026-04-18T07:24:50.999Z</time></trkpt><trkpt lat="45.08815830314361" lon="8.47268663244377"><ele>110.0</ele><time>2026-04-18T07:24:52.999Z</time></trkpt><trkpt lat="45.08807925171455" lon="8.47261240735496"><ele>110.0</ele><time>2026-04-18T07:24:54.999Z</time></trkpt><trkpt lat="45.08794635260353" lon="8.472511029069741"><ele>109.99999999999999</ele><time>2026-04-18T07:24:56.999Z</time></trkpt><trkpt lat="45.087885719046696" lon="8.472451799052768"><ele>110.0</ele><time>2026-04-18T07:24:57.999Z</time></trkpt><trkpt lat="45.08783289475938" lon="8.47238291822927"><ele>110.0</ele><time>2026-04-18T07:24:58.999Z</time></trkpt><trkpt lat="45.0877982829986" lon="8.472302691272597"><ele>110.0</ele><time>2026-04-18T07:25:00Z</time></trkpt><trkpt lat="45.087779317805634" lon="8.47218961128454"><ele>110.0</ele><time>2026-04-18T07:25:01Z</time></trkpt><trkpt lat="45.087796225485256" lon="8.47208535782084"><ele>109.99999999999999</ele><time>2026-04-18T07:25:02Z</time></trkpt><trkpt lat="45.08782224369142" lon="8.471993456014621"><ele>110.0</ele><time>2026-04-18T07:25:03Z</time></trkpt><trkpt lat="45.08782840149036" lon="8.471844711429197"><ele>109.99999999999999</ele><time>2026-04-18T07:25:05Z</time></trkpt><trkpt lat="45.0877701070373" lon="8.471775150541125"><ele>110.0</ele><time>2026-04-18T07:25:06Z</time></trkpt><trkpt lat="45.08767535376661" lon="8.471790083865185"><ele>110.0</ele><time>2026-04-18T07:25:07Z</time></trkpt><trkpt lat="45.087595885723935" lon="8.471785809804516"><ele>110.0</ele><time>2026-04-18T07:25:08Z</time></trkpt><trkpt lat="45.08752431970284" lon="8.471769388790227"><ele>109.99999999999999</ele><time>2026-04-18T07:25:09Z</time></trkpt><trkpt lat="45.08745985480407" lon="8.471749105160866"><ele>110.0</ele><time>2026-04-18T07:25:10Z</time></trkpt><trkpt lat="45.08739471314558" lon="8.471599368685679"><ele>109.99999999999999</ele><time>2026-04-18T07:25:12Z</time></trkpt><trkpt lat="45.08742797886145" lon="8.471489183381403"><ele>110.0</ele><time>2026-04-18T07:25:13Z</time></trkpt><trkpt lat="45.0874181056324" lon="8.471396415381085"><ele>110.0</ele><time>2026-04-18T07:25:14Z</time></trkpt><trkpt lat="45.08741571200549" lon="8.471248207202594"><ele>110.0</ele><time>2026-04-18T07:25:16Z</time></trkpt><trkpt lat="45.08730121292888" lon="8.471228663252969"><ele>109.99999999999999</ele><time>2026-04-18T07:25:17Z</time></trkpt><trkpt lat="45.08722934463309" lon="8.47121613664426"><ele>110.0</ele><time>2026-04-18T07:25:18Z</time></trkpt><trkpt lat="45.08715081700778" lon="8.471200049956828"><ele>110.33333333333333</ele><time>2026-04-18T07:25:19Z</time></trkpt><trkpt lat="45.08706487876888" lon="8.471178122979971"><ele>110.66666666666666</ele><time>2026-04-18T07:25:20Z</time></trkpt><trkpt lat="45.08698069730081" lon="8.471146420027202"><ele>111.0</ele><time>2026-04-18T07:25:21Z</time></trkpt><trkpt lat="45.08690171545131" lon="8.47113274543031"><ele>111.33333333333334</ele><time>2026-04-18T07:25:22Z</time></trkpt><trkpt lat="45.086822490405574" lon="8.471103919648286"><ele>111.66666666666667</ele><time>2026-04-18T07:25:23Z</time></trkpt><trkpt lat="45.08674786329615" lon="8.471084292849033"><ele>112.0</ele><time>2026-04-18T07:25:24Z</time></trkpt><trkpt lat="45.08668159144655" lon="8.47106561092257"><ele>112.00000000000001</ele><time>2026-04-18T07:25:25Z</time></trkpt><trkpt lat="45.08660589310775" lon="8.471056292018508"><ele>112.0</ele><time>2026-04-18T07:25:26Z</time></trkpt><trkpt lat="45.086537982973184" lon="8.471036187724923"><ele>112.0</ele><time>2026-04-18T07:25:27Z</time></trkpt><trkpt lat="45.08644342994056" lon="8.47100197156179"><ele>112.0</ele><time>2026-04-18T07:25:29Z</time></trkpt><trkpt lat="45.086387581736666" lon="8.470905119364106"><ele>112.00000000000001</ele><time>2026-04-18T07:25:32Z</time></trkpt><trkpt lat="45.0864415360374" lon="8.470853695821626"><ele>112.0</ele><time>2026-04-18T07:25:33Z</time></trkpt><trkpt lat="45.08647441214892" lon="8.47075113481816"><ele>112.19999999999999</ele><time>2026-04-18T07:25:34Z</time></trkpt><trkpt lat="45.08648890646059" lon="8.470632196414538"><ele>112.39999999999999</ele><time>2026-04-18T07:25:35Z</time></trkpt><trkpt lat="45.08652127465422" lon="8.470515960143034"><ele>112.60000000000001</ele><time>2026-04-18T07:25:36Z</time></trkpt><trkpt lat="45.08654410584623" lon="8.470382441317607"><ele>112.80000000000001</ele><time>2026-04-18T07:25:37Z</time></trkpt><trkpt lat="45.08656569778215" lon="8.470204707618558"><ele>113.0</ele><time>2026-04-18T07:25:38Z</time></trkpt><trkpt lat="45.08658886019523" lon="8.47005862760311"><ele>112.60000000000001</ele><time>2026-04-18T07:25:39Z</time></trkpt><trkpt lat="45.086610583266406" lon="8.469904283280552"><ele>112.20000000000002</ele><time>2026-04-18T07:25:40Z</time></trkpt><trkpt lat="45.08662780225779" lon="8.469766591855397"><ele>111.8</ele><time>2026-04-18T07:25:41Z</time></trkpt><trkpt lat="45.08666241403056" lon="8.469643615137697"><ele>111.4</ele><time>2026-04-18T07:25:42Z</time></trkpt><trkpt lat="45.08668211151532" lon="8.469523328459882"><ele>111.0</ele><time>2026-04-18T07:25:43Z</time></trkpt><trkpt lat="45.08667657022676" lon="8.469390167465109"><ele>111.0</ele><time>2026-04-18T07:25:44Z</time></trkpt><trkpt lat="45.0866981961029" lon="8.469275656838905"><ele>111.0</ele><time>2026-04-18T07:25:45Z</time></trkpt><trkpt lat="45.08671531807219" lon="8.469176663906447"><ele>111.0</ele><time>2026-04-18T07:25:46Z</time></trkpt><trkpt lat="45.086725817425176" lon="8.469074791390781"><ele>111.0</ele><time>2026-04-18T07:25:47Z</time></trkpt><trkpt lat="45.08670575331363" lon="8.468974397166917"><ele>111.0</ele><time>2026-04-18T07:25:48Z</time></trkpt><trkpt lat="45.08664958246517" lon="8.468897219700299"><ele>111.0</ele><time>2026-04-18T07:25:49Z</time></trkpt><trkpt lat="45.08657141163631" lon="8.468862469351295"><ele>111.4</ele><time>2026-04-18T07:25:50Z</time></trkpt><trkpt lat="45.08647969948215" lon="8.468878539020768"><ele>111.8</ele><time>2026-04-18T07:25:51Z</time></trkpt><trkpt lat="45.086384975614266" lon="8.468906902366665"><ele>112.20000000000002</ele><time>2026-04-18T07:25:52Z</time></trkpt><trkpt lat="45.086290264084944" lon="8.468937519636569"><ele>112.60000000000001</ele><time>2026-04-18T07:25:53Z</time></trkpt><trkpt lat="45.08619224338871" lon="8.468982588314935"><ele>113.0</ele><time>2026-04-18T07:25:54Z</time></trkpt><trkpt lat="45.0860885944931" lon="8.469035298018829"><ele>113.0</ele><time>2026-04-18T07:25:55Z</time></trkpt><trkpt lat="45.085980902057294" lon="8.469080926900876"><ele>113.0</ele><time>2026-04-18T07:25:56Z</time></trkpt><trkpt lat="45.08586617848221" lon="8.469107501249079"><ele>113.0</ele><time>2026-04-18T07:25:57Z</time></trkpt><trkpt lat="45.085746514408356" lon="8.4691073992612"><ele>113.0</ele><time>2026-04-18T07:25:58Z</time></trkpt><trkpt lat="45.085624348256324" lon="8.469094247665224"><ele>113.25</ele><time>2026-04-18T07:25:58.999Z</time></trkpt><trkpt lat="45.08549969141022" lon="8.469081108246392"><ele>113.5</ele><time>2026-04-18T07:25:59.999Z</time></trkpt><trkpt lat="45.08537504957861" lon="8.469071810973224"><ele>113.75</ele><time>2026-04-18T07:26:00.999Z</time></trkpt><trkpt lat="45.08524859723607" lon="8.469063000955522"><ele>114.0</ele><time>2026-04-18T07:26:01.999Z</time></trkpt><trkpt lat="45.08512338651655" lon="8.46905334346323"><ele>114.0</ele><time>2026-04-18T07:26:02.999Z</time></trkpt><trkpt lat="45.085003298859114" lon="8.46904247750064"><ele>114.0</ele><time>2026-04-18T07:26:03.999Z</time></trkpt><trkpt lat="45.08487954362416" lon="8.46902979794284"><ele>114.0</ele><time>2026-04-18T07:26:04.999Z</time></trkpt><trkpt lat="45.08475240842933" lon="8.469017222494637"><ele>114.0</ele><time>2026-04-18T07:26:05.999Z</time></trkpt><trkpt lat="45.084623824218475" lon="8.469007924955516"><ele>114.25</ele><time>2026-04-18T07:26:06.999Z</time></trkpt><trkpt lat="45.084493470253356" lon="8.4689975844381"><ele>114.5</ele><time>2026-04-18T07:26:07.999Z</time></trkpt><trkpt lat="45.08436038644386" lon="8.468984240267094"><ele>114.75</ele><time>2026-04-18T07:26:08.999Z</time></trkpt><trkpt lat="45.0842235979295" lon="8.468975525674521"><ele>115.0</ele><time>2026-04-18T07:26:09.999Z</time></trkpt><trkpt lat="45.08408674070767" lon="8.468966676776649"><ele>115.0</ele><time>2026-04-18T07:26:10.999Z</time></trkpt><trkpt lat="45.08395488917491" lon="8.468955169367215"><ele>115.0</ele><time>2026-04-18T07:26:11.999Z</time></trkpt><trkpt lat="45.08382008943986" lon="8.46894643080634"><ele>115.0</ele><time>2026-04-18T07:26:12.999Z</time></trkpt><trkpt lat="45.083682679936906" lon="8.468938042428126"><ele>115.0</ele><time>2026-04-18T07:26:13.999Z</time></trkpt><trkpt lat="45.08354254743671" lon="8.468930806265723"><ele>115.0</ele><time>2026-04-18T07:26:14.999Z</time></trkpt><trkpt lat="45.083404569580246" lon="8.468922626612176"><ele>115.0</ele><time>2026-04-18T07:26:15.999Z</time></trkpt><trkpt lat="45.0832647724089" lon="8.468911923533955"><ele>115.0</ele><time>2026-04-18T07:26:16.999Z</time></trkpt><trkpt lat="45.083123590813614" lon="8.46890059995308"><ele>115.0</ele><time>2026-04-18T07:26:17.999Z</time></trkpt><trkpt lat="45.0829805265045" lon="8.468889022432412"><ele>114.75</ele><time>2026-04-18T07:26:18.999Z</time></trkpt><trkpt lat="45.08283453105147" lon="8.468885291720472"><ele>114.5</ele><time>2026-04-18T07:26:19.999Z</time></trkpt><trkpt lat="45.08269100427071" lon="8.468871415327687"><ele>114.25</ele><time>2026-04-18T07:26:20.999Z</time></trkpt><trkpt lat="45.08254632335236" lon="8.468861264961781"><ele>114.0</ele><time>2026-04-18T07:26:21.999Z</time></trkpt><trkpt lat="45.08240011029465" lon="8.468849914777223"><ele>113.5</ele><time>2026-04-18T07:26:22.999Z</time></trkpt><trkpt lat="45.082251065638765" lon="8.468838324075714"><ele>113.0</ele><time>2026-04-18T07:26:23.999Z</time></trkpt><trkpt lat="45.08210270538097" lon="8.46882839837968"><ele>112.5</ele><time>2026-04-18T07:26:24.999Z</time></trkpt><trkpt lat="45.081953415555745" lon="8.468817149309281"><ele>112.0</ele><time>2026-04-18T07:26:25.999Z</time></trkpt><trkpt lat="45.081802635359686" lon="8.46880303499046"><ele>112.0</ele><time>2026-04-18T07:26:26.999Z</time></trkpt><trkpt lat="45.08164718974033" lon="8.468795291817964"><ele>112.0</ele><time>2026-04-18T07:26:27.999Z</time></trkpt><trkpt lat="45.08148736530926" lon="8.468794255243834"><ele>112.0</ele><time>2026-04-18T07:26:28.999Z</time></trkpt><trkpt lat="45.08132342983135" lon="8.46877175183635"><ele>112.5</ele><time>2026-04-18T07:26:29.999Z</time></trkpt><trkpt lat="45.08115721166019" lon="8.468756774510588"><ele>113.0</ele><time>2026-04-18T07:26:30.999Z</time></trkpt><trkpt lat="45.08104640478821" lon="8.468734192892002"><ele>113.5</ele><time>2026-04-18T07:26:31.999Z</time></trkpt><trkpt lat="45.08089449914755" lon="8.468717318702128"><ele>114.0</ele><time>2026-04-18T07:26:32.999Z</time></trkpt><trkpt lat="45.080744637876634" lon="8.468708621688627"><ele>114.0</ele><time>2026-04-18T07:26:33.999Z</time></trkpt><trkpt lat="45.08059381246468" lon="8.468701000090816"><ele>114.0</ele><time>2026-04-18T07:26:34.999Z</time></trkpt><trkpt lat="45.08044382659371" lon="8.468690493366273"><ele>114.0</ele><time>2026-04-18T07:26:35.999Z</time></trkpt><trkpt lat="45.080288226752565" lon="8.468683553932866"><ele>114.0</ele><time>2026-04-18T07:26:36.999Z</time></trkpt><trkpt lat="45.08013328739457" lon="8.468663979674623"><ele>114.0</ele><time>2026-04-18T07:26:37.999Z</time></trkpt><trkpt lat="45.07997871420558" lon="8.468654746465216"><ele>114.0</ele><time>2026-04-18T07:26:38.999Z</time></trkpt><trkpt lat="45.07982681427074" lon="8.468645688087136"><ele>114.0</ele><time>2026-04-18T07:26:39.999Z</time></trkpt><trkpt lat="45.079670988748376" lon="8.468634847283155"><ele>114.0</ele><time>2026-04-18T07:26:40.999Z</time></trkpt><trkpt lat="45.079515400457296" lon="8.46862371802089"><ele>114.0</ele><time>2026-04-18T07:26:41.999Z</time></trkpt><trkpt lat="45.07935767358906" lon="8.468610757767433"><ele>114.0</ele><time>2026-04-18T07:26:42.999Z</time></trkpt><trkpt lat="45.07920174607744" lon="8.468603435977883"><ele>114.0</ele><time>2026-04-18T07:26:43.999Z</time></trkpt><trkpt lat="45.07904653449994" lon="8.468594164149854"><ele>114.0</ele><time>2026-04-18T07:26:44.999Z</time></trkpt><trkpt lat="45.07889088978623" lon="8.468586346028742"><ele>114.0</ele><time>2026-04-18T07:26:45.999Z</time></trkpt><trkpt lat="45.07873834662965" lon="8.468571493732114"><ele>114.0</ele><time>2026-04-18T07:26:46.999Z</time></trkpt><trkpt lat="45.078583398468965" lon="8.468562739186522"><ele>114.0</ele><time>2026-04-18T07:26:47.999Z</time></trkpt><trkpt lat="45.078427554895306" lon="8.468548240924939"><ele>114.0</ele><time>2026-04-18T07:26:48.999Z</time></trkpt><trkpt lat="45.07827310002331" lon="8.468537526854176"><ele>114.0</ele><time>2026-04-18T07:26:49.999Z</time></trkpt><trkpt lat="45.078117453675276" lon="8.468527091887294"><ele>114.0</ele><time>2026-04-18T07:26:50.999Z</time></trkpt><trkpt lat="45.077960821090784" lon="8.468517634065458"><ele>113.75</ele><time>2026-04-18T07:26:51.999Z</time></trkpt><trkpt lat="45.077810198967036" lon="8.46850261911687"><ele>113.5</ele><time>2026-04-18T07:26:52.999Z</time></trkpt><trkpt lat="45.077673803770075" lon="8.468492289540631"><ele>113.25</ele><time>2026-04-18T07:26:53.999Z</time></trkpt><trkpt lat="45.07755558161515" lon="8.468483811945001"><ele>113.0</ele><time>2026-04-18T07:26:54.999Z</time></trkpt><trkpt lat="45.07743623822977" lon="8.468469987891794"><ele>113.16666666666666</ele><time>2026-04-18T07:26:55.999Z</time></trkpt><trkpt lat="45.077333690675665" lon="8.468466204798615"><ele>113.33333333333333</ele><time>2026-04-18T07:26:56.999Z</time></trkpt><trkpt lat="45.0772520726278" lon="8.46845993864095"><ele>113.5</ele><time>2026-04-18T07:26:57.999Z</time></trkpt><trkpt lat="45.077179605694134" lon="8.468460866334256"><ele>113.66666666666666</ele><time>2026-04-18T07:26:58.999Z</time></trkpt><trkpt lat="45.077076714580365" lon="8.468453347727891"><ele>113.83333333333333</ele><time>2026-04-18T07:27:00.999Z</time></trkpt><trkpt lat="45.07700596543568" lon="8.468447758557602"><ele>114.0</ele><time>2026-04-18T07:27:02.999Z</time></trkpt><trkpt lat="45.0769360900495" lon="8.46841999779786"><ele>114.0</ele><time>2026-04-18T07:27:05Z</time></trkpt><trkpt lat="45.07686784398141" lon="8.468589478367507"><ele>114.0</ele><time>2026-04-18T07:27:08Z</time></trkpt><trkpt lat="45.07686756148741" lon="8.46874839797548"><ele>114.0</ele><time>2026-04-18T07:27:10Z</time></trkpt><trkpt lat="45.07685508878343" lon="8.468860877138027"><ele>114.0</ele><time>2026-04-18T07:27:11Z</time></trkpt><trkpt lat="45.07684428350935" lon="8.468950217976241"><ele>114.0</ele><time>2026-04-18T07:27:12Z</time></trkpt><trkpt lat="45.07683398282724" lon="8.469103544057774"><ele>114.0</ele><time>2026-04-18T07:27:14Z</time></trkpt><trkpt lat="45.076817377157" lon="8.469266633002368"><ele>114.0</ele><time>2026-04-18T07:27:16Z</time></trkpt><trkpt lat="45.076804811919104" lon="8.46945704174399"><ele>114.0</ele><time>2026-04-18T07:27:18Z</time></trkpt><trkpt lat="45.07678794490914" lon="8.469633983487299"><ele>114.0</ele><time>2026-04-18T07:27:20Z</time></trkpt><trkpt lat="45.07678008276537" lon="8.469727272478655"><ele>114.0</ele><time>2026-04-18T07:27:21Z</time></trkpt><trkpt lat="45.076776510313024" lon="8.46981676672548"><ele>114.0</ele><time>2026-04-18T07:27:22Z</time></trkpt><trkpt lat="45.07677305851047" lon="8.469906975967163"><ele>114.0</ele><time>2026-04-18T07:27:23Z</time></trkpt><trkpt lat="45.07675793756653" lon="8.470000052221865"><ele>114.0</ele><time>2026-04-18T07:27:24Z</time></trkpt><trkpt lat="45.07674352502789" lon="8.470184492900135"><ele>114.0</ele><time>2026-04-18T07:27:26Z</time></trkpt><trkpt lat="45.07673835072616" lon="8.470279728696637"><ele>114.0</ele><time>2026-04-18T07:27:27Z</time></trkpt><trkpt lat="45.076730031804246" lon="8.47037401027396"><ele>114.0</ele><time>2026-04-18T07:27:28Z</time></trkpt><trkpt lat="45.07671855803832" lon="8.470473616340211"><ele>114.25</ele><time>2026-04-18T07:27:29Z</time></trkpt><trkpt lat="45.07670795709607" lon="8.4706414248168"><ele>114.5</ele><time>2026-04-18T07:27:31Z</time></trkpt><trkpt lat="45.07686109106881" lon="8.470842150530643"><ele>114.75</ele><time>2026-04-18T07:27:33Z</time></trkpt><trkpt lat="45.07684505705754" lon="8.470950924780064"><ele>115.0</ele><time>2026-04-18T07:27:35Z</time></trkpt><trkpt lat="45.07682995115702" lon="8.471070975918117"><ele>115.0</ele><time>2026-04-18T07:27:37Z</time></trkpt><trkpt lat="45.07681503654466" lon="8.471212140365258"><ele>115.0</ele><time>2026-04-18T07:27:39Z</time></trkpt><trkpt lat="45.07665664256327" lon="8.471264746353217"><ele>115.0</ele><time>2026-04-18T07:27:40Z</time></trkpt><trkpt lat="45.07664683628919" lon="8.47143910390649"><ele>115.0</ele><time>2026-04-18T07:27:42Z</time></trkpt><trkpt lat="45.07663532237714" lon="8.471618036347627"><ele>115.0</ele><time>2026-04-18T07:27:44Z</time></trkpt><trkpt lat="45.07663049458342" lon="8.471787167433472"><ele>115.0</ele><time>2026-04-18T07:27:46Z</time></trkpt><trkpt lat="45.07662516654524" lon="8.471961034156012"><ele>115.0</ele><time>2026-04-18T07:27:48Z</time></trkpt><trkpt lat="45.076618626613886" lon="8.472056961936039"><ele>115.0</ele><time>2026-04-18T07:27:49Z</time></trkpt><trkpt lat="45.07660570207347" lon="8.472158314324286"><ele>115.0</ele><time>2026-04-18T07:27:50Z</time></trkpt><trkpt lat="45.076602227558965" lon="8.472273187784479"><ele>114.66666666666667</ele><time>2026-04-18T07:27:51Z</time></trkpt><trkpt lat="45.076595852510096" lon="8.472394786476327"><ele>114.33333333333334</ele><time>2026-04-18T07:27:52Z</time></trkpt><trkpt lat="45.07658550947482" lon="8.472529591418258"><ele>114.0</ele><time>2026-04-18T07:27:53Z</time></trkpt><trkpt lat="45.07657742200843" lon="8.472645980940216"><ele>113.66666666666666</ele><time>2026-04-18T07:27:54Z</time></trkpt><trkpt lat="45.07656657271472" lon="8.472779086280863"><ele>113.33333333333333</ele><time>2026-04-18T07:27:55Z</time></trkpt><trkpt lat="45.076557218831965" lon="8.472904275376274"><ele>113.0</ele><time>2026-04-18T07:27:56Z</time></trkpt><trkpt lat="45.07655029596189" lon="8.473022283457965"><ele>112.99999999999999</ele><time>2026-04-18T07:27:57Z</time></trkpt><trkpt lat="45.07654675707358" lon="8.473130816837957"><ele>113.0</ele><time>2026-04-18T07:27:58Z</time></trkpt><trkpt lat="45.07653216167024" lon="8.473279689856797"><ele>113.0</ele><time>2026-04-18T07:28:00Z</time></trkpt><trkpt lat="45.076524138499046" lon="8.473374399764726"><ele>113.0</ele><time>2026-04-18T07:28:01Z</time></trkpt><trkpt lat="45.076519524025976" lon="8.473484977386475"><ele>112.99999999999999</ele><time>2026-04-18T07:28:02Z</time></trkpt><trkpt lat="45.076513703194706" lon="8.47358904269222"><ele>113.0</ele><time>2026-04-18T07:28:03Z</time></trkpt><trkpt lat="45.07649686985543" lon="8.473731437207487"><ele>112.66666666666666</ele><time>2026-04-18T07:28:05Z</time></trkpt><trkpt lat="45.07649617610957" lon="8.473820805061537"><ele>112.33333333333333</ele><time>2026-04-18T07:28:07Z</time></trkpt><trkpt lat="45.07648431832495" lon="8.473952400994817"><ele>112.0</ele><time>2026-04-18T07:28:09Z</time></trkpt><trkpt lat="45.07647013604756" lon="8.474086956711208"><ele>111.66666666666666</ele><time>2026-04-18T07:28:11Z</time></trkpt><trkpt lat="45.076464478537886" lon="8.474232011294054"><ele>111.33333333333333</ele><time>2026-04-18T07:28:13Z</time></trkpt><trkpt lat="45.07645857012408" lon="8.474363416109489"><ele>111.0</ele><time>2026-04-18T07:28:15Z</time></trkpt><trkpt lat="45.07640991054952" lon="8.474423801760846"><ele>111.0</ele><time>2026-04-18T07:28:17Z</time></trkpt><trkpt lat="45.07629302608689" lon="8.474422775650618"><ele>111.0</ele><time>2026-04-18T07:28:19Z</time></trkpt><trkpt lat="45.07622591031228" lon="8.474424491590144"><ele>111.0</ele><time>2026-04-18T07:28:20Z</time></trkpt><trkpt lat="45.076155687778055" lon="8.47443830555186"><ele>111.0</ele><time>2026-04-18T07:28:21Z</time></trkpt><trkpt lat="45.0760806210027" lon="8.474450719923537"><ele>111.0</ele><time>2026-04-18T07:28:22Z</time></trkpt><trkpt lat="45.07599874320989" lon="8.474463227812832"><ele>111.0</ele><time>2026-04-18T07:28:23Z</time></trkpt><trkpt lat="45.075919181844725" lon="8.474478051991161"><ele>111.0</ele><time>2026-04-18T07:28:23.999Z</time></trkpt><trkpt lat="45.075836782635044" lon="8.474492883884727"><ele>111.0</ele><time>2026-04-18T07:28:24.999Z</time></trkpt><trkpt lat="45.07575198187523" lon="8.474508293324753"><ele>111.0</ele><time>2026-04-18T07:28:25.999Z</time></trkpt><trkpt lat="45.07567050367777" lon="8.474522299600798"><ele>111.0</ele><time>2026-04-18T07:28:26.999Z</time></trkpt><trkpt lat="45.075595317998456" lon="8.474538708454379"><ele>111.0</ele><time>2026-04-18T07:28:27.999Z</time></trkpt><trkpt lat="45.075511133948524" lon="8.474554857068853"><ele>111.0</ele><time>2026-04-18T07:28:28.999Z</time></trkpt><trkpt lat="45.07542941126959" lon="8.47456627763205"><ele>111.0</ele><time>2026-04-18T07:28:29.999Z</time></trkpt><trkpt lat="45.07535170647304" lon="8.474578428587492"><ele>111.0</ele><time>2026-04-18T07:28:30.999Z</time></trkpt><trkpt lat="45.07526795451236" lon="8.474586462780893"><ele>111.0</ele><time>2026-04-18T07:28:31.999Z</time></trkpt><trkpt lat="45.075188281237374" lon="8.474597570930756"><ele>111.0</ele><time>2026-04-18T07:28:32.999Z</time></trkpt><trkpt lat="45.07510265177385" lon="8.474606936998683"><ele>111.0</ele><time>2026-04-18T07:28:33.999Z</time></trkpt><trkpt lat="45.075027581227175" lon="8.47461459108143"><ele>111.0</ele><time>2026-04-18T07:28:34.999Z</time></trkpt><trkpt lat="45.07495688061191" lon="8.474616639512764"><ele>111.0</ele><time>2026-04-18T07:28:35.999Z</time></trkpt><trkpt lat="45.074888631714295" lon="8.474617320571243"><ele>111.0</ele><time>2026-04-18T07:28:36.999Z</time></trkpt><trkpt lat="45.07481388598349" lon="8.47458130566818"><ele>111.0</ele><time>2026-04-18T07:28:37.999Z</time></trkpt><trkpt lat="45.07472600469163" lon="8.474583246134063"><ele>111.0</ele><time>2026-04-18T07:28:38.999Z</time></trkpt><trkpt lat="45.07464376871869" lon="8.47461315074849"><ele>111.0</ele><time>2026-04-18T07:28:39.999Z</time></trkpt><trkpt lat="45.07455516525089" lon="8.474630445967405"><ele>111.0</ele><time>2026-04-18T07:28:40.999Z</time></trkpt><trkpt lat="45.074463976112234" lon="8.474651785062495"><ele>111.0</ele><time>2026-04-18T07:28:41.999Z</time></trkpt><trkpt lat="45.07437248616802" lon="8.47467175507145"><ele>111.0</ele><time>2026-04-18T07:28:42.999Z</time></trkpt><trkpt lat="45.07428344933749" lon="8.47469970354307"><ele>111.0</ele><time>2026-04-18T07:28:43.999Z</time></trkpt><trkpt lat="45.07418945785802" lon="8.474723756758316"><ele>111.0</ele><time>2026-04-18T07:28:44.999Z</time></trkpt><trkpt lat="45.07409543798787" lon="8.474750465804956"><ele>111.0</ele><time>2026-04-18T07:28:45.999Z</time></trkpt><trkpt lat="45.07400082261999" lon="8.474777369706825"><ele>110.8</ele><time>2026-04-18T07:28:46.999Z</time></trkpt><trkpt lat="45.07390135805306" lon="8.474799639675311"><ele>110.6</ele><time>2026-04-18T07:28:47.999Z</time></trkpt><trkpt lat="45.0738023339064" lon="8.474822228196503"><ele>110.4</ele><time>2026-04-18T07:28:48.999Z</time></trkpt><trkpt lat="45.07369592507355" lon="8.474817895104577"><ele>110.2</ele><time>2026-04-18T07:28:49.999Z</time></trkpt><trkpt lat="45.0735948656275" lon="8.47482823454193"><ele>110.0</ele><time>2026-04-18T07:28:50.999Z</time></trkpt><trkpt lat="45.07349428293353" lon="8.474858966291977"><ele>110.0</ele><time>2026-04-18T07:28:51.999Z</time></trkpt><trkpt lat="45.07338942254097" lon="8.474866389388964"><ele>110.0</ele><time>2026-04-18T07:28:52.999Z</time></trkpt><trkpt lat="45.073285907739766" lon="8.474867988869415"><ele>110.0</ele><time>2026-04-18T07:28:53.999Z</time></trkpt><trkpt lat="45.07318437098651" lon="8.4748846356238"><ele>110.0</ele><time>2026-04-18T07:28:54.999Z</time></trkpt><trkpt lat="45.073081164149094" lon="8.474897452486317"><ele>110.0</ele><time>2026-04-18T07:28:55.999Z</time></trkpt><trkpt lat="45.072978853934295" lon="8.474915325657998"><ele>110.4</ele><time>2026-04-18T07:28:56.999Z</time></trkpt><trkpt lat="45.072877099563286" lon="8.474931597626806"><ele>110.8</ele><time>2026-04-18T07:28:57.999Z</time></trkpt><trkpt lat="45.07277272287282" lon="8.474945027932545"><ele>111.19999999999999</ele><time>2026-04-18T07:28:58.999Z</time></trkpt><trkpt lat="45.0726663055638" lon="8.47495525759173"><ele>111.6</ele><time>2026-04-18T07:28:59.999Z</time></trkpt><trkpt lat="45.07255803483027" lon="8.474949021291193"><ele>112.0</ele><time>2026-04-18T07:29:00.999Z</time></trkpt><trkpt lat="45.07244915672774" lon="8.47494134620571"><ele>112.0</ele><time>2026-04-18T07:29:01.999Z</time></trkpt><trkpt lat="45.072338883543665" lon="8.474930035700956"><ele>111.99999999999999</ele><time>2026-04-18T07:29:02.999Z</time></trkpt><trkpt lat="45.072231707582034" lon="8.474919149947754"><ele>111.99999999999999</ele><time>2026-04-18T07:29:03.999Z</time></trkpt><trkpt lat="45.07212465133063" lon="8.47490637610993"><ele>112.0</ele><time>2026-04-18T07:29:04.999Z</time></trkpt><trkpt lat="45.07201697398208" lon="8.4748877178536"><ele>112.0</ele><time>2026-04-18T07:29:05.999Z</time></trkpt><trkpt lat="45.071910906446234" lon="8.47486784508314"><ele>112.0</ele><time>2026-04-18T07:29:06.999Z</time></trkpt><trkpt lat="45.07180911377197" lon="8.474838752369651"><ele>111.99999999999999</ele><time>2026-04-18T07:29:07.999Z</time></trkpt><trkpt lat="45.07171495629062" lon="8.474764444038229"><ele>111.99999999999999</ele><time>2026-04-18T07:29:08.999Z</time></trkpt><trkpt lat="45.071610190839806" lon="8.4747510328907"><ele>112.0</ele><time>2026-04-18T07:29:09.999Z</time></trkpt><trkpt lat="45.071512000020284" lon="8.47471084729693"><ele>112.0</ele><time>2026-04-18T07:29:11Z</time></trkpt><trkpt lat="45.07141711918303" lon="8.474696504872595"><ele>112.16666666666667</ele><time>2026-04-18T07:29:12Z</time></trkpt><trkpt lat="45.07133655879017" lon="8.474684234000259"><ele>112.33333333333334</ele><time>2026-04-18T07:29:13Z</time></trkpt><trkpt lat="45.0712637243621" lon="8.474667961996184"><ele>112.5</ele><time>2026-04-18T07:29:14Z</time></trkpt><trkpt lat="45.071183473590764" lon="8.474629776113433"><ele>112.66666666666666</ele><time>2026-04-18T07:29:15Z</time></trkpt><trkpt lat="45.07111748488463" lon="8.474574553731186"><ele>112.83333333333333</ele><time>2026-04-18T07:29:16Z</time></trkpt><trkpt lat="45.07106269285355" lon="8.47449121551595"><ele>113.0</ele><time>2026-04-18T07:29:17Z</time></trkpt><trkpt lat="45.071037512180034" lon="8.474395809038601"><ele>113.0</ele><time>2026-04-18T07:29:18Z</time></trkpt><trkpt lat="45.071064238680705" lon="8.474273813736517"><ele>113.00000000000001</ele><time>2026-04-18T07:29:19Z</time></trkpt><trkpt lat="45.07106298598593" lon="8.474144762887056"><ele>113.00000000000001</ele><time>2026-04-18T07:29:20Z</time></trkpt><trkpt lat="45.071056528360856" lon="8.474001240292221"><ele>113.0</ele><time>2026-04-18T07:29:21Z</time></trkpt><trkpt lat="45.0710570509474" lon="8.473863303984869"><ele>113.0</ele><time>2026-04-18T07:29:22Z</time></trkpt><trkpt lat="45.07105811806901" lon="8.47372737374849"><ele>113.16666666666666</ele><time>2026-04-18T07:29:23Z</time></trkpt><trkpt lat="45.07105849898683" lon="8.473602205158356"><ele>113.33333333333333</ele><time>2026-04-18T07:29:24Z</time></trkpt><trkpt lat="45.071056657685155" lon="8.473489397129416"><ele>113.5</ele><time>2026-04-18T07:29:25Z</time></trkpt><trkpt lat="45.07104744240832" lon="8.473384341285785"><ele>113.66666666666666</ele><time>2026-04-18T07:29:26Z</time></trkpt><trkpt lat="45.07102771602519" lon="8.473220809639914"><ele>113.83333333333333</ele><time>2026-04-18T07:29:28Z</time></trkpt><trkpt lat="45.07101654394798" lon="8.473114003290426"><ele>114.0</ele><time>2026-04-18T07:29:30Z</time></trkpt><trkpt lat="45.07089549258789" lon="8.473131230194696"><ele>114.0</ele><time>2026-04-18T07:29:31Z</time></trkpt><trkpt lat="45.070823240535766" lon="8.473142725196215"><ele>114.0</ele><time>2026-04-18T07:29:32Z</time></trkpt><trkpt lat="45.07072591566947" lon="8.473143331148036"><ele>114.0</ele><time>2026-04-18T07:29:33Z</time></trkpt><trkpt lat="45.070636525124975" lon="8.473144477493749"><ele>114.0</ele><time>2026-04-18T07:29:34Z</time></trkpt><trkpt lat="45.07054580229997" lon="8.473155942010022"><ele>114.0</ele><time>2026-04-18T07:29:35Z</time></trkpt><trkpt lat="45.070449979991864" lon="8.473189427344455"><ele>114.0</ele><time>2026-04-18T07:29:36Z</time></trkpt><trkpt lat="45.07035082179303" lon="8.473227200850436"><ele>114.0</ele><time>2026-04-18T07:29:37Z</time></trkpt><trkpt lat="45.07024669950646" lon="8.473255918803362"><ele>114.0</ele><time>2026-04-18T07:29:38Z</time></trkpt><trkpt lat="45.07014157294947" lon="8.473292545532882"><ele>114.0</ele><time>2026-04-18T07:29:39Z</time></trkpt><trkpt lat="45.07003573818602" lon="8.473331224727776"><ele>114.0</ele><time>2026-04-18T07:29:40Z</time></trkpt><trkpt lat="45.069932671550106" lon="8.473388069677798"><ele>114.0</ele><time>2026-04-18T07:29:41Z</time></trkpt><trkpt lat="45.06982631655589" lon="8.473447970100986"><ele>114.0</ele><time>2026-04-18T07:29:42Z</time></trkpt><trkpt lat="45.06972127970632" lon="8.473509947629111"><ele>114.0</ele><time>2026-04-18T07:29:43Z</time></trkpt><trkpt lat="45.06961629129556" lon="8.473566673611728"><ele>114.0</ele><time>2026-04-18T07:29:44Z</time></trkpt><trkpt lat="45.06951096674036" lon="8.473625011049691"><ele>114.0</ele><time>2026-04-18T07:29:45Z</time></trkpt><trkpt lat="45.06940472685362" lon="8.473685258447487"><ele>114.0</ele><time>2026-04-18T07:29:46Z</time></trkpt><trkpt lat="45.069299405306836" lon="8.473740835604728"><ele>114.0</ele><time>2026-04-18T07:29:47Z</time></trkpt><trkpt lat="45.06919600177628" lon="8.473795254396157"><ele>114.0</ele><time>2026-04-18T07:29:48Z</time></trkpt><trkpt lat="45.069090965999436" lon="8.473843651906767"><ele>114.0</ele><time>2026-04-18T07:29:49Z</time></trkpt><trkpt lat="45.068987214482746" lon="8.473898083611582"><ele>114.0</ele><time>2026-04-18T07:29:50Z</time></trkpt><trkpt lat="45.06888661829556" lon="8.473947944862555"><ele>114.0</ele><time>2026-04-18T07:29:51Z</time></trkpt><trkpt lat="45.06879113771107" lon="8.4739946993145"><ele>114.0</ele><time>2026-04-18T07:29:52Z</time></trkpt><trkpt lat="45.06870357491105" lon="8.474038381864238"><ele>114.0</ele><time>2026-04-18T07:29:53Z</time></trkpt><trkpt lat="45.06861751480358" lon="8.47405129940451"><ele>114.0</ele><time>2026-04-18T07:29:54Z</time></trkpt><trkpt lat="45.06855178487575" lon="8.47409540266283"><ele>114.0</ele><time>2026-04-18T07:29:55Z</time></trkpt><trkpt lat="45.06849152530612" lon="8.474123922918883"><ele>114.0</ele><time>2026-04-18T07:29:56Z</time></trkpt><trkpt lat="45.06839342895107" lon="8.474166750525782"><ele>114.0</ele><time>2026-04-18T07:29:58Z</time></trkpt><trkpt lat="45.06831746180086" lon="8.474112039263346"><ele>114.0</ele><time>2026-04-18T07:30:00Z</time></trkpt><trkpt lat="45.06833426573981" lon="8.474010604099199"><ele>114.0</ele><time>2026-04-18T07:30:01Z</time></trkpt><trkpt lat="45.068315764572304" lon="8.473908786336338"><ele>114.0</ele><time>2026-04-18T07:30:02Z</time></trkpt><trkpt lat="45.06829465114522" lon="8.47378848826714"><ele>114.0</ele><time>2026-04-18T07:30:03Z</time></trkpt><trkpt lat="45.0682570663008" lon="8.473669613878677"><ele>114.0</ele><time>2026-04-18T07:30:04Z</time></trkpt><trkpt lat="45.06823745068644" lon="8.473528818076783"><ele>114.2</ele><time>2026-04-18T07:30:05Z</time></trkpt><trkpt lat="45.06820279651694" lon="8.473383283627596"><ele>114.4</ele><time>2026-04-18T07:30:06Z</time></trkpt><trkpt lat="45.068190736658956" lon="8.47323117377601"><ele>114.6</ele><time>2026-04-18T07:30:07Z</time></trkpt><trkpt lat="45.06816140833004" lon="8.473079915172788"><ele>114.8</ele><time>2026-04-18T07:30:08Z</time></trkpt><trkpt lat="45.06811911629349" lon="8.47292766481344"><ele>115.0</ele><time>2026-04-18T07:30:09Z</time></trkpt><trkpt lat="45.06808220894632" lon="8.47276961640306"><ele>115.0</ele><time>2026-04-18T07:30:10Z</time></trkpt><trkpt lat="45.06804886425219" lon="8.472607158975157"><ele>115.0</ele><time>2026-04-18T07:30:11Z</time></trkpt><trkpt lat="45.068020255165465" lon="8.472448500716329"><ele>115.0</ele><time>2026-04-18T07:30:12Z</time></trkpt><trkpt lat="45.068002724343096" lon="8.472280130060094"><ele>115.0</ele><time>2026-04-18T07:30:13Z</time></trkpt><trkpt lat="45.06796105957247" lon="8.47212510680874"><ele>115.0</ele><time>2026-04-18T07:30:14Z</time></trkpt><trkpt lat="45.06793533139971" lon="8.471962970309438"><ele>115.0</ele><time>2026-04-18T07:30:15Z</time></trkpt><trkpt lat="45.06791078145303" lon="8.471799084931202"><ele>115.0</ele><time>2026-04-18T07:30:16Z</time></trkpt><trkpt lat="45.06788459752317" lon="8.471636434500725"><ele>115.0</ele><time>2026-04-18T07:30:17Z</time></trkpt><trkpt lat="45.06785754575915" lon="8.471473863691527"><ele>115.0</ele><time>2026-04-18T07:30:18Z</time></trkpt><trkpt lat="45.06783066384808" lon="8.471307712695985"><ele>115.0</ele><time>2026-04-18T07:30:19Z</time></trkpt><trkpt lat="45.06781204477813" lon="8.471143830154663"><ele>115.0</ele><time>2026-04-18T07:30:20Z</time></trkpt><trkpt lat="45.0677951705246" lon="8.47097902164034"><ele>115.0</ele><time>2026-04-18T07:30:21Z</time></trkpt><trkpt lat="45.06778960870388" lon="8.470813957666643"><ele>115.0</ele><time>2026-04-18T07:30:22Z</time></trkpt><trkpt lat="45.067783455139256" lon="8.470647045501096"><ele>115.0</ele><time>2026-04-18T07:30:23Z</time></trkpt><trkpt lat="45.067775780311415" lon="8.470478314023113"><ele>115.0</ele><time>2026-04-18T07:30:24Z</time></trkpt><trkpt lat="45.06776686821499" lon="8.470311823923764"><ele>115.0</ele><time>2026-04-18T07:30:25Z</time></trkpt><trkpt lat="45.067778406851225" lon="8.470143886933204"><ele>115.5</ele><time>2026-04-18T07:30:26Z</time></trkpt><trkpt lat="45.06776249872095" lon="8.469977206624186"><ele>116.0</ele><time>2026-04-18T07:30:27Z</time></trkpt><trkpt lat="45.06776198959682" lon="8.469809921727855"><ele>116.5</ele><time>2026-04-18T07:30:28Z</time></trkpt><trkpt lat="45.067767834962076" lon="8.469643993962713"><ele>117.0</ele><time>2026-04-18T07:30:29Z</time></trkpt><trkpt lat="45.06777364970062" lon="8.469479251055896"><ele>117.5</ele><time>2026-04-18T07:30:30Z</time></trkpt><trkpt lat="45.067777453559955" lon="8.469309128832437"><ele>118.0</ele><time>2026-04-18T07:30:30.999Z</time></trkpt><trkpt lat="45.06778365550413" lon="8.469142164277084"><ele>118.5</ele><time>2026-04-18T07:30:31.999Z</time></trkpt><trkpt lat="45.06779526692458" lon="8.468978232611214"><ele>119.0</ele><time>2026-04-18T07:30:32.999Z</time></trkpt><trkpt lat="45.067808776384695" lon="8.468814130400313"><ele>119.0</ele><time>2026-04-18T07:30:33.999Z</time></trkpt><trkpt lat="45.06783000164664" lon="8.468652088126674"><ele>119.0</ele><time>2026-04-18T07:30:34.999Z</time></trkpt><trkpt lat="45.06785787777705" lon="8.46849008832447"><ele>119.0</ele><time>2026-04-18T07:30:35.999Z</time></trkpt><trkpt lat="45.06789016726421" lon="8.468345331930646"><ele>119.0</ele><time>2026-04-18T07:30:36.999Z</time></trkpt><trkpt lat="45.067920713283144" lon="8.46822133158829"><ele>119.0</ele><time>2026-04-18T07:30:37.999Z</time></trkpt><trkpt lat="45.06794225528055" lon="8.468120033217698"><ele>119.0</ele><time>2026-04-18T07:30:38.999Z</time></trkpt><trkpt lat="45.067965983877365" lon="8.468030790708758"><ele>119.0</ele><time>2026-04-18T07:30:39.999Z</time></trkpt><trkpt lat="45.06801427215631" lon="8.467912848130968"><ele>119.0</ele><time>2026-04-18T07:30:41.999Z</time></trkpt><trkpt lat="45.06804129442132" lon="8.46783069328275"><ele>119.0</ele><time>2026-04-18T07:30:43.999Z</time></trkpt><trkpt lat="45.06790998399874" lon="8.467708352327982"><ele>119.0</ele><time>2026-04-18T07:30:47.999Z</time></trkpt><trkpt lat="45.06783104464205" lon="8.467713669932223"><ele>119.2</ele><time>2026-04-18T07:30:48.999Z</time></trkpt><trkpt lat="45.067741504081944" lon="8.46771245283188"><ele>119.4</ele><time>2026-04-18T07:30:49.999Z</time></trkpt><trkpt lat="45.06764271065562" lon="8.467710328890327"><ele>119.6</ele><time>2026-04-18T07:30:50.999Z</time></trkpt><trkpt lat="45.06753395444215" lon="8.467711689378982"><ele>119.8</ele><time>2026-04-18T07:30:51.999Z</time></trkpt><trkpt lat="45.067419031793506" lon="8.467711817835308"><ele>120.0</ele><time>2026-04-18T07:30:52.999Z</time></trkpt><trkpt lat="45.06729765237079" lon="8.467713068290982"><ele>120.0</ele><time>2026-04-18T07:30:53.999Z</time></trkpt><trkpt lat="45.067167776600044" lon="8.467714136065174"><ele>120.0</ele><time>2026-04-18T07:30:54.999Z</time></trkpt><trkpt lat="45.067032883993605" lon="8.467713317934743"><ele>120.0</ele><time>2026-04-18T07:30:55.999Z</time></trkpt><trkpt lat="45.06689367058999" lon="8.467711639871341"><ele>120.0</ele><time>2026-04-18T07:30:56.999Z</time></trkpt><trkpt lat="45.066752918667824" lon="8.467714026575544"><ele>120.25</ele><time>2026-04-18T07:30:57.999Z</time></trkpt><trkpt lat="45.066605468964646" lon="8.467715026428621"><ele>120.5</ele><time>2026-04-18T07:30:58.999Z</time></trkpt><trkpt lat="45.06645816744212" lon="8.467715797141292"><ele>120.75</ele><time>2026-04-18T07:30:59.999Z</time></trkpt><trkpt lat="45.06630811315304" lon="8.467715206535255"><ele>121.0</ele><time>2026-04-18T07:31:00.999Z</time></trkpt><trkpt lat="45.06615463984063" lon="8.467703076966037"><ele>121.0</ele><time>2026-04-18T07:31:01.999Z</time></trkpt><trkpt lat="45.06599939558444" lon="8.467673716725427"><ele>121.0</ele><time>2026-04-18T07:31:02.999Z</time></trkpt><trkpt lat="45.065849630917654" lon="8.46763066606502"><ele>121.0</ele><time>2026-04-18T07:31:03.999Z</time></trkpt><trkpt lat="45.06570110759001" lon="8.467568030361129"><ele>120.66666666666667</ele><time>2026-04-18T07:31:04.999Z</time></trkpt><trkpt lat="45.065555071594915" lon="8.467488113816058"><ele>120.33333333333334</ele><time>2026-04-18T07:31:05.999Z</time></trkpt><trkpt lat="45.06541163999614" lon="8.467394541803216"><ele>120.0</ele><time>2026-04-18T07:31:06.999Z</time></trkpt><trkpt lat="45.06527295562108" lon="8.4672835163937"><ele>120.0</ele><time>2026-04-18T07:31:07.999Z</time></trkpt><trkpt lat="45.06514204636565" lon="8.467150872916829"><ele>120.0</ele><time>2026-04-18T07:31:08.999Z</time></trkpt><trkpt lat="45.0650201623702" lon="8.46700362411987"><ele>120.0</ele><time>2026-04-18T07:31:09.999Z</time></trkpt><trkpt lat="45.06489741287055" lon="8.46684942845118"><ele>120.0</ele><time>2026-04-18T07:31:10.999Z</time></trkpt><trkpt lat="45.06477693211231" lon="8.466692566981084"><ele>120.0</ele><time>2026-04-18T07:31:11.999Z</time></trkpt><trkpt lat="45.06465364760517" lon="8.466528876117978"><ele>120.0</ele><time>2026-04-18T07:31:12.999Z</time></trkpt><trkpt lat="45.064532592151934" lon="8.466365946162696"><ele>120.0</ele><time>2026-04-18T07:31:13.999Z</time></trkpt><trkpt lat="45.064410958413454" lon="8.466202296609618"><ele>120.0</ele><time>2026-04-18T07:31:14.999Z</time></trkpt><trkpt lat="45.0642884592152" lon="8.466038634748646"><ele>120.0</ele><time>2026-04-18T07:31:15.999Z</time></trkpt><trkpt lat="45.06416408347321" lon="8.465872555855002"><ele>120.0</ele><time>2026-04-18T07:31:17Z</time></trkpt><trkpt lat="45.06404047556181" lon="8.465706409047582"><ele>120.0</ele><time>2026-04-18T07:31:18Z</time></trkpt><trkpt lat="45.0639181531697" lon="8.46553971577609"><ele>120.0</ele><time>2026-04-18T07:31:19Z</time></trkpt><trkpt lat="45.063795692140424" lon="8.46537611689564"><ele>120.0</ele><time>2026-04-18T07:31:20Z</time></trkpt><trkpt lat="45.06367027785194" lon="8.46521202202665"><ele>120.0</ele><time>2026-04-18T07:31:21Z</time></trkpt><trkpt lat="45.063547369461205" lon="8.465051530276241"><ele>120.0</ele><time>2026-04-18T07:31:22Z</time></trkpt><trkpt lat="45.063428672108245" lon="8.464887809438691"><ele>120.0</ele><time>2026-04-18T07:31:23Z</time></trkpt><trkpt lat="45.06330987062716" lon="8.464721043633071"><ele>120.0</ele><time>2026-04-18T07:31:24Z</time></trkpt><trkpt lat="45.06319560937897" lon="8.464564605674207"><ele>120.0</ele><time>2026-04-18T07:31:25Z</time></trkpt><trkpt lat="45.063083078076595" lon="8.464412467459903"><ele>119.33333333333334</ele><time>2026-04-18T07:31:26Z</time></trkpt><trkpt lat="45.062973948724306" lon="8.464264538875264"><ele>118.66666666666667</ele><time>2026-04-18T07:31:27Z</time></trkpt><trkpt lat="45.06286252817625" lon="8.464120821855571"><ele>118.0</ele><time>2026-04-18T07:31:28Z</time></trkpt><trkpt lat="45.062752794208635" lon="8.463979289098445"><ele>118.0</ele><time>2026-04-18T07:31:29Z</time></trkpt><trkpt lat="45.062651958632266" lon="8.463846701415282"><ele>118.0</ele><time>2026-04-18T07:31:30Z</time></trkpt><trkpt lat="45.06255918581259" lon="8.463725821198167"><ele>118.0</ele><time>2026-04-18T07:31:31Z</time></trkpt><trkpt lat="45.06248150723078" lon="8.463613556725164"><ele>118.0</ele><time>2026-04-18T07:31:32Z</time></trkpt><trkpt lat="45.062412740102644" lon="8.463510853378962"><ele>118.33333333333334</ele><time>2026-04-18T07:31:33Z</time></trkpt><trkpt lat="45.06235388663786" lon="8.463426562321507"><ele>118.66666666666667</ele><time>2026-04-18T07:31:34Z</time></trkpt><trkpt lat="45.062299224137476" lon="8.463350154349147"><ele>119.0</ele><time>2026-04-18T07:31:35Z</time></trkpt><trkpt lat="45.06224942988434" lon="8.4632833554483"><ele>119.33333333333334</ele><time>2026-04-18T07:31:36Z</time></trkpt><trkpt lat="45.06216341305883" lon="8.463171343235851"><ele>119.66666666666667</ele><time>2026-04-18T07:31:38Z</time></trkpt><trkpt lat="45.06210522488688" lon="8.463085112207326"><ele>120.0</ele><time>2026-04-18T07:31:40Z</time></trkpt><trkpt lat="45.06200096960438" lon="8.463196939524918"><ele>120.0</ele><time>2026-04-18T07:31:41Z</time></trkpt><trkpt lat="45.06192367705312" lon="8.463271071024877"><ele>120.0</ele><time>2026-04-18T07:31:42Z</time></trkpt><trkpt lat="45.061839791609025" lon="8.463327635741445"><ele>120.0</ele><time>2026-04-18T07:31:43Z</time></trkpt><trkpt lat="45.061734471888094" lon="8.463391711039401"><ele>120.0</ele><time>2026-04-18T07:31:44Z</time></trkpt><trkpt lat="45.06163311844973" lon="8.463461731289508"><ele>120.0</ele><time>2026-04-18T07:31:45Z</time></trkpt><trkpt lat="45.06152304933455" lon="8.463530670434798"><ele>119.5</ele><time>2026-04-18T07:31:46Z</time></trkpt><trkpt lat="45.06139991464262" lon="8.463599765597614"><ele>119.0</ele><time>2026-04-18T07:31:47Z</time></trkpt><trkpt lat="45.061267150240354" lon="8.463668208043167"><ele>118.5</ele><time>2026-04-18T07:31:48Z</time></trkpt><trkpt lat="45.06113162891349" lon="8.463735438846362"><ele>118.0</ele><time>2026-04-18T07:31:49Z</time></trkpt><trkpt lat="45.06099495394193" lon="8.463801795360503"><ele>118.0</ele><time>2026-04-18T07:31:50Z</time></trkpt><trkpt lat="45.06085808041942" lon="8.46386782856454"><ele>118.0</ele><time>2026-04-18T07:31:51Z</time></trkpt><trkpt lat="45.06071794478295" lon="8.463941992258503"><ele>118.0</ele><time>2026-04-18T07:31:52Z</time></trkpt><trkpt lat="45.06057732827557" lon="8.46401224331845"><ele>118.0</ele><time>2026-04-18T07:31:53Z</time></trkpt><trkpt lat="45.06043422570397" lon="8.464083518787271"><ele>118.0</ele><time>2026-04-18T07:31:54Z</time></trkpt><trkpt lat="45.060292744267166" lon="8.464155289077894"><ele>118.0</ele><time>2026-04-18T07:31:55Z</time></trkpt><trkpt lat="45.06015938429834" lon="8.464218164046452"><ele>118.0</ele><time>2026-04-18T07:31:56Z</time></trkpt><trkpt lat="45.06002379433025" lon="8.464283152534664"><ele>118.0</ele><time>2026-04-18T07:31:57Z</time></trkpt><trkpt lat="45.059887219072905" lon="8.464353329563554"><ele>118.0</ele><time>2026-04-18T07:31:58Z</time></trkpt><trkpt lat="45.05976163378191" lon="8.464416613432121"><ele>118.0</ele><time>2026-04-18T07:31:59Z</time></trkpt><trkpt lat="45.05962675492953" lon="8.464484145718172"><ele>118.0</ele><time>2026-04-18T07:32:00Z</time></trkpt><trkpt lat="45.05949282576652" lon="8.464550884894594"><ele>118.0</ele><time>2026-04-18T07:32:01Z</time></trkpt><trkpt lat="45.059357113502365" lon="8.464619057419748"><ele>118.25</ele><time>2026-04-18T07:32:02Z</time></trkpt><trkpt lat="45.059221464639" lon="8.464685606150875"><ele>118.5</ele><time>2026-04-18T07:32:03Z</time></trkpt><trkpt lat="45.05908702328589" lon="8.464755745367956"><ele>118.75</ele><time>2026-04-18T07:32:04Z</time></trkpt><trkpt lat="45.05894873141102" lon="8.46482561035243"><ele>119.0</ele><time>2026-04-18T07:32:05Z</time></trkpt><trkpt lat="45.058808463150285" lon="8.46489153886689"><ele>119.25</ele><time>2026-04-18T07:32:06Z</time></trkpt><trkpt lat="45.058667794962204" lon="8.464954078386068"><ele>119.5</ele><time>2026-04-18T07:32:07Z</time></trkpt><trkpt lat="45.058528304379905" lon="8.465010866552786"><ele>119.75</ele><time>2026-04-18T07:32:08Z</time></trkpt><trkpt lat="45.05839076675516" lon="8.465064674644417"><ele>120.0</ele><time>2026-04-18T07:32:09Z</time></trkpt><trkpt lat="45.05825529530119" lon="8.46511228927074"><ele>119.5</ele><time>2026-04-18T07:32:10Z</time></trkpt><trkpt lat="45.058120658022034" lon="8.465151962550877"><ele>119.0</ele><time>2026-04-18T07:32:11Z</time></trkpt><trkpt lat="45.05798392407605" lon="8.465184646978729"><ele>118.5</ele><time>2026-04-18T07:32:12Z</time></trkpt><trkpt lat="45.057849287243506" lon="8.465210374345723"><ele>118.0</ele><time>2026-04-18T07:32:13Z</time></trkpt><trkpt lat="45.05771179408846" lon="8.465218708239615"><ele>118.0</ele><time>2026-04-18T07:32:14Z</time></trkpt><trkpt lat="45.05757493966695" lon="8.46522426722398"><ele>118.0</ele><time>2026-04-18T07:32:15Z</time></trkpt><trkpt lat="45.05743923351096" lon="8.465229644134077"><ele>118.0</ele><time>2026-04-18T07:32:16Z</time></trkpt><trkpt lat="45.05729854468758" lon="8.465237471702437"><ele>118.0</ele><time>2026-04-18T07:32:17Z</time></trkpt><trkpt lat="45.05716209009026" lon="8.465242472149953"><ele>118.25</ele><time>2026-04-18T07:32:18Z</time></trkpt><trkpt lat="45.057027262680144" lon="8.465242631858517"><ele>118.5</ele><time>2026-04-18T07:32:19Z</time></trkpt><trkpt lat="45.05688767018646" lon="8.465244836994932"><ele>118.75</ele><time>2026-04-18T07:32:20Z</time></trkpt><trkpt lat="45.056755471421475" lon="8.465239045204154"><ele>119.0</ele><time>2026-04-18T07:32:21Z</time></trkpt><trkpt lat="45.05662721761115" lon="8.46522424996549"><ele>119.0</ele><time>2026-04-18T07:32:22Z</time></trkpt><trkpt lat="45.05649477423584" lon="8.465201988722109"><ele>119.0</ele><time>2026-04-18T07:32:23Z</time></trkpt><trkpt lat="45.056360386550494" lon="8.46516220115757"><ele>119.0</ele><time>2026-04-18T07:32:24Z</time></trkpt><trkpt lat="45.05622245438941" lon="8.46511877459322"><ele>119.0</ele><time>2026-04-18T07:32:25Z</time></trkpt><trkpt lat="45.05608194451224" lon="8.465075153125362"><ele>119.0</ele><time>2026-04-18T07:32:26Z</time></trkpt><trkpt lat="45.055936089234" lon="8.465033079376697"><ele>119.0</ele><time>2026-04-18T07:32:27Z</time></trkpt><trkpt lat="45.055789264898415" lon="8.464990160465316"><ele>119.0</ele><time>2026-04-18T07:32:28Z</time></trkpt><trkpt lat="45.05564684326301" lon="8.464940786300357"><ele>119.0</ele><time>2026-04-18T07:32:29Z</time></trkpt><trkpt lat="45.05551514114823" lon="8.464892414478257"><ele>119.5</ele><time>2026-04-18T07:32:30Z</time></trkpt><trkpt lat="45.055385610058806" lon="8.46484099020336"><ele>120.0</ele><time>2026-04-18T07:32:31Z</time></trkpt><trkpt lat="45.055262753397855" lon="8.464795684114158"><ele>120.5</ele><time>2026-04-18T07:32:32Z</time></trkpt><trkpt lat="45.055143017462484" lon="8.464732285688351"><ele>121.0</ele><time>2026-04-18T07:32:33Z</time></trkpt><trkpt lat="45.05502303153243" lon="8.464686207279218"><ele>121.75</ele><time>2026-04-18T07:32:34Z</time></trkpt><trkpt lat="45.054908914229294" lon="8.464642382612196"><ele>122.5</ele><time>2026-04-18T07:32:35Z</time></trkpt><trkpt lat="45.054801180215335" lon="8.464600790384731"><ele>123.25</ele><time>2026-04-18T07:32:36Z</time></trkpt><trkpt lat="45.05469653625265" lon="8.46455960944022"><ele>124.0</ele><time>2026-04-18T07:32:37Z</time></trkpt><trkpt lat="45.05457072324829" lon="8.464530101868839"><ele>124.0</ele><time>2026-04-18T07:32:39Z</time></trkpt><trkpt lat="45.05448398628111" lon="8.464404740606602"><ele>124.0</ele><time>2026-04-18T07:32:41Z</time></trkpt><trkpt lat="45.05441244068043" lon="8.464362285183707"><ele>124.0</ele><time>2026-04-18T07:32:43Z</time></trkpt><trkpt lat="45.05443449764622" lon="8.464032873261527"><ele>124.0</ele><time>2026-04-18T07:32:44Z</time></trkpt><trkpt lat="45.05441804324389" lon="8.46389043755701"><ele>124.33333333333334</ele><time>2026-04-18T07:32:45Z</time></trkpt><trkpt lat="45.05441885334981" lon="8.463769283201916"><ele>124.66666666666667</ele><time>2026-04-18T07:32:46Z</time></trkpt><trkpt lat="45.05444088230166" lon="8.463656192612047"><ele>125.0</ele><time>2026-04-18T07:32:46.999Z</time></trkpt><trkpt lat="45.05448891510987" lon="8.463558044470505"><ele>125.33333333333334</ele><time>2026-04-18T07:32:47.999Z</time></trkpt><trkpt lat="45.0545560739223" lon="8.463471245116933"><ele>125.66666666666667</ele><time>2026-04-18T07:32:48.999Z</time></trkpt><trkpt lat="45.054633139762934" lon="8.463388453298554"><ele>126.0</ele><time>2026-04-18T07:32:49.999Z</time></trkpt><trkpt lat="45.05469588919923" lon="8.463302275155074"><ele>126.0</ele><time>2026-04-18T07:32:50.999Z</time></trkpt><trkpt lat="45.05473084729445" lon="8.463197344137575"><ele>126.0</ele><time>2026-04-18T07:32:51.999Z</time></trkpt><trkpt lat="45.054737635471824" lon="8.463079723394351"><ele>126.0</ele><time>2026-04-18T07:32:52.999Z</time></trkpt><trkpt lat="45.054723954021945" lon="8.46294214432574"><ele>126.0</ele><time>2026-04-18T07:32:53.999Z</time></trkpt><trkpt lat="45.05470793632596" lon="8.46279224914894"><ele>126.0</ele><time>2026-04-18T07:32:54.999Z</time></trkpt><trkpt lat="45.05469268993417" lon="8.462641476116412"><ele>126.8</ele><time>2026-04-18T07:32:55.999Z</time></trkpt><trkpt lat="45.054682993547786" lon="8.462487666114287"><ele>127.6</ele><time>2026-04-18T07:32:56.999Z</time></trkpt><trkpt lat="45.0546707015618" lon="8.462342916567605"><ele>128.4</ele><time>2026-04-18T07:32:57.999Z</time></trkpt><trkpt lat="45.05465489251941" lon="8.462200829422297"><ele>129.2</ele><time>2026-04-18T07:32:58.999Z</time></trkpt><trkpt lat="45.05464251766329" lon="8.462059950171309"><ele>130.0</ele><time>2026-04-18T07:32:59.999Z</time></trkpt><trkpt lat="45.05462799187453" lon="8.461922932399396"><ele>130.2</ele><time>2026-04-18T07:33:00.999Z</time></trkpt><trkpt lat="45.0546077500346" lon="8.46178417450529"><ele>130.4</ele><time>2026-04-18T07:33:01.999Z</time></trkpt><trkpt lat="45.054589172335525" lon="8.461652577776842"><ele>130.6</ele><time>2026-04-18T07:33:02.999Z</time></trkpt><trkpt lat="45.054569686367174" lon="8.461524890853639"><ele>130.8</ele><time>2026-04-18T07:33:03.999Z</time></trkpt><trkpt lat="45.05455464867812" lon="8.461405857143903"><ele>131.0</ele><time>2026-04-18T07:33:04.999Z</time></trkpt><trkpt lat="45.05454072355212" lon="8.461279695215017"><ele>131.0</ele><time>2026-04-18T07:33:05.999Z</time></trkpt><trkpt lat="45.054518824061056" lon="8.461152741891972"><ele>131.0</ele><time>2026-04-18T07:33:06.999Z</time></trkpt><trkpt lat="45.05449388492003" lon="8.46102427206508"><ele>131.0</ele><time>2026-04-18T07:33:07.999Z</time></trkpt><trkpt lat="45.05447488867431" lon="8.460890198604044"><ele>131.0</ele><time>2026-04-18T07:33:08.999Z</time></trkpt><trkpt lat="45.054434607442715" lon="8.460764775024955"><ele>131.0</ele><time>2026-04-18T07:33:09.999Z</time></trkpt><trkpt lat="45.05439933389305" lon="8.460624952298696"><ele>131.0</ele><time>2026-04-18T07:33:10.999Z</time></trkpt><trkpt lat="45.0543604631498" lon="8.460489920636311"><ele>131.0</ele><time>2026-04-18T07:33:11.999Z</time></trkpt><trkpt lat="45.054321696237885" lon="8.460347778846367"><ele>131.0</ele><time>2026-04-18T07:33:12.999Z</time></trkpt><trkpt lat="45.05428343716985" lon="8.460218214443008"><ele>131.0</ele><time>2026-04-18T07:33:13.999Z</time></trkpt><trkpt lat="45.05422430599001" lon="8.460098387584248"><ele>131.0</ele><time>2026-04-18T07:33:14.999Z</time></trkpt><trkpt lat="45.05416820367771" lon="8.45997114436908"><ele>131.4</ele><time>2026-04-18T07:33:15.999Z</time></trkpt><trkpt lat="45.05410426223909" lon="8.459857055603202"><ele>131.8</ele><time>2026-04-18T07:33:16.999Z</time></trkpt><trkpt lat="45.054041365628684" lon="8.459746157962822"><ele>132.20000000000002</ele><time>2026-04-18T07:33:17.999Z</time></trkpt><trkpt lat="45.05400278813062" lon="8.4596296542944"><ele>132.6</ele><time>2026-04-18T07:33:18.999Z</time></trkpt><trkpt lat="45.05397753601883" lon="8.459519475666621"><ele>133.0</ele><time>2026-04-18T07:33:19.999Z</time></trkpt><trkpt lat="45.05397263749483" lon="8.459410351239251"><ele>133.0</ele><time>2026-04-18T07:33:20.999Z</time></trkpt><trkpt lat="45.05396933660998" lon="8.459304306333685"><ele>133.0</ele><time>2026-04-18T07:33:21.999Z</time></trkpt><trkpt lat="45.05395454670916" lon="8.459194438342264"><ele>133.0</ele><time>2026-04-18T07:33:23Z</time></trkpt><trkpt lat="45.05391869715674" lon="8.459105770867104"><ele>133.0</ele><time>2026-04-18T07:33:24Z</time></trkpt><trkpt lat="45.05386633120532" lon="8.459008286907421"><ele>133.0</ele><time>2026-04-18T07:33:25Z</time></trkpt><trkpt lat="45.05380044038936" lon="8.458904100264323"><ele>133.0</ele><time>2026-04-18T07:33:26Z</time></trkpt><trkpt lat="45.05372629972286" lon="8.458811194880742"><ele>131.4</ele><time>2026-04-18T07:33:27Z</time></trkpt><trkpt lat="45.053643828198354" lon="8.458725913407886"><ele>129.8</ele><time>2026-04-18T07:33:28Z</time></trkpt><trkpt lat="45.053562874447394" lon="8.458638212434218"><ele>128.2</ele><time>2026-04-18T07:33:29Z</time></trkpt><trkpt lat="45.05348052466355" lon="8.458552918437878"><ele>126.6</ele><time>2026-04-18T07:33:30Z</time></trkpt><trkpt lat="45.05340327060926" lon="8.458460550823089"><ele>125.0</ele><time>2026-04-18T07:33:31Z</time></trkpt><trkpt lat="45.053328387816876" lon="8.458365828759922"><ele>125.6</ele><time>2026-04-18T07:33:32Z</time></trkpt><trkpt lat="45.05325929844037" lon="8.458269609858455"><ele>126.2</ele><time>2026-04-18T07:33:33Z</time></trkpt><trkpt lat="45.05319137195962" lon="8.458182414286652"><ele>126.80000000000001</ele><time>2026-04-18T07:33:34Z</time></trkpt><trkpt lat="45.05312208147183" lon="8.45810736395855"><ele>127.4</ele><time>2026-04-18T07:33:35Z</time></trkpt><trkpt lat="45.053048340407855" lon="8.45804743439123"><ele>128.0</ele><time>2026-04-18T07:33:36Z</time></trkpt><trkpt lat="45.052957715447285" lon="8.45800089971414"><ele>128.0</ele><time>2026-04-18T07:33:37Z</time></trkpt><trkpt lat="45.05286627666802" lon="8.45797321646269"><ele>128.0</ele><time>2026-04-18T07:33:38Z</time></trkpt><trkpt lat="45.05277028068509" lon="8.45797037442974"><ele>128.0</ele><time>2026-04-18T07:33:39Z</time></trkpt><trkpt lat="45.052671105283544" lon="8.457981099799566"><ele>128.0</ele><time>2026-04-18T07:33:40Z</time></trkpt><trkpt lat="45.0525696435909" lon="8.458002444098225"><ele>128.0</ele><time>2026-04-18T07:33:41Z</time></trkpt><trkpt lat="45.052473823996735" lon="8.458024650889113"><ele>128.0</ele><time>2026-04-18T07:33:42Z</time></trkpt><trkpt lat="45.05238059792378" lon="8.458041716349987"><ele>128.0</ele><time>2026-04-18T07:33:43Z</time></trkpt><trkpt lat="45.052284926988214" lon="8.458039050261924"><ele>128.0</ele><time>2026-04-18T07:33:44Z</time></trkpt><trkpt lat="45.05218672621346" lon="8.458010052390401"><ele>128.0</ele><time>2026-04-18T07:33:45Z</time></trkpt><trkpt lat="45.05208875822131" lon="8.457966150172373"><ele>128.0</ele><time>2026-04-18T07:33:46Z</time></trkpt><trkpt lat="45.051988206921884" lon="8.457910078760387"><ele>127.25</ele><time>2026-04-18T07:33:47Z</time></trkpt><trkpt lat="45.051878530058694" lon="8.457857778039438"><ele>126.5</ele><time>2026-04-18T07:33:48Z</time></trkpt><trkpt lat="45.0517688234529" lon="8.457799849440724"><ele>125.75</ele><time>2026-04-18T07:33:49Z</time></trkpt><trkpt lat="45.051665373897656" lon="8.457743238160303"><ele>125.0</ele><time>2026-04-18T07:33:50Z</time></trkpt><trkpt lat="45.051556167203074" lon="8.457687384876913"><ele>125.0</ele><time>2026-04-18T07:33:51Z</time></trkpt><trkpt lat="45.05144707149947" lon="8.457635060097958"><ele>125.0</ele><time>2026-04-18T07:33:52Z</time></trkpt><trkpt lat="45.051338032215746" lon="8.457580966999291"><ele>125.0</ele><time>2026-04-18T07:33:53Z</time></trkpt><trkpt lat="45.05122805570316" lon="8.457523717526005"><ele>125.0</ele><time>2026-04-18T07:33:54Z</time></trkpt><trkpt lat="45.051118923739566" lon="8.457467793457052"><ele>125.0</ele><time>2026-04-18T07:33:55Z</time></trkpt><trkpt lat="45.051006801883176" lon="8.457413235913258"><ele>125.0</ele><time>2026-04-18T07:33:56Z</time></trkpt><trkpt lat="45.050887814243296" lon="8.457359167929248"><ele>125.0</ele><time>2026-04-18T07:33:57Z</time></trkpt><trkpt lat="45.05076856312631" lon="8.45730596771805"><ele>125.0</ele><time>2026-04-18T07:33:58Z</time></trkpt><trkpt lat="45.050655176443854" lon="8.457245768110143"><ele>125.0</ele><time>2026-04-18T07:33:59Z</time></trkpt><trkpt lat="45.05053634267827" lon="8.457187297067364"><ele>125.0</ele><time>2026-04-18T07:34:00Z</time></trkpt><trkpt lat="45.05042186717676" lon="8.45713025119337"><ele>125.0</ele><time>2026-04-18T07:34:01Z</time></trkpt><trkpt lat="45.05030720952531" lon="8.45707096780936"><ele>125.0</ele><time>2026-04-18T07:34:02Z</time></trkpt><trkpt lat="45.05019134371868" lon="8.457008680561016"><ele>125.0</ele><time>2026-04-18T07:34:03Z</time></trkpt><trkpt lat="45.05007756953254" lon="8.456952466646898"><ele>125.0</ele><time>2026-04-18T07:34:04Z</time></trkpt><trkpt lat="45.04994813100136" lon="8.456913905476021"><ele>125.0</ele><time>2026-04-18T07:34:05Z</time></trkpt><trkpt lat="45.04981133989899" lon="8.456895259562737"><ele>125.0</ele><time>2026-04-18T07:34:06Z</time></trkpt><trkpt lat="45.0497234452453" lon="8.456789642173284"><ele>126.75</ele><time>2026-04-18T07:34:07Z</time></trkpt><trkpt lat="45.04961151060257" lon="8.456729018424364"><ele>128.5</ele><time>2026-04-18T07:34:08Z</time></trkpt><trkpt lat="45.049504566979" lon="8.456673817085129"><ele>130.25</ele><time>2026-04-18T07:34:09Z</time></trkpt><trkpt lat="45.049396963369425" lon="8.456617518520488"><ele>132.0</ele><time>2026-04-18T07:34:10Z</time></trkpt><trkpt lat="45.04928893201103" lon="8.456565103314917"><ele>132.0</ele><time>2026-04-18T07:34:11Z</time></trkpt><trkpt lat="45.04917843770495" lon="8.456517543698151"><ele>132.0</ele><time>2026-04-18T07:34:12Z</time></trkpt><trkpt lat="45.04906661397009" lon="8.456479575657287"><ele>132.0</ele><time>2026-04-18T07:34:13Z</time></trkpt><trkpt lat="45.04895289376507" lon="8.456459411371231"><ele>132.0</ele><time>2026-04-18T07:34:14Z</time></trkpt><trkpt lat="45.04883593126205" lon="8.456448154022192"><ele>132.0</ele><time>2026-04-18T07:34:15Z</time></trkpt><trkpt lat="45.048719780355725" lon="8.456433471402987"><ele>132.0</ele><time>2026-04-18T07:34:16Z</time></trkpt><trkpt lat="45.04859917977425" lon="8.45642687624843"><ele>132.0</ele><time>2026-04-18T07:34:17Z</time></trkpt><trkpt lat="45.048476713252384" lon="8.456423109559443"><ele>132.0</ele><time>2026-04-18T07:34:18Z</time></trkpt><trkpt lat="45.04835832605415" lon="8.456418436443299"><ele>132.0</ele><time>2026-04-18T07:34:19Z</time></trkpt><trkpt lat="45.04823914977087" lon="8.456413037150192"><ele>132.0</ele><time>2026-04-18T07:34:20Z</time></trkpt><trkpt lat="45.048123654464725" lon="8.45640770080803"><ele>132.0</ele><time>2026-04-18T07:34:21Z</time></trkpt><trkpt lat="45.048008380209616" lon="8.456408053072222"><ele>132.0</ele><time>2026-04-18T07:34:22Z</time></trkpt><trkpt lat="45.04789407165988" lon="8.456392403871009"><ele>132.0</ele><time>2026-04-18T07:34:23Z</time></trkpt><trkpt lat="45.04778154691831" lon="8.456376367865094"><ele>132.0</ele><time>2026-04-18T07:34:24Z</time></trkpt><trkpt lat="45.047671376081894" lon="8.456342854504864"><ele>132.0</ele><time>2026-04-18T07:34:25Z</time></trkpt><trkpt lat="45.04756025819509" lon="8.45629992831371"><ele>132.0</ele><time>2026-04-18T07:34:26Z</time></trkpt><trkpt lat="45.04745106900702" lon="8.456251607476128"><ele>132.0</ele><time>2026-04-18T07:34:27Z</time></trkpt><trkpt lat="45.04734119266423" lon="8.456203500097233"><ele>132.0</ele><time>2026-04-18T07:34:28Z</time></trkpt><trkpt lat="45.047233284523195" lon="8.456158303801088"><ele>132.0</ele><time>2026-04-18T07:34:29Z</time></trkpt><trkpt lat="45.04712474557105" lon="8.456114421235583"><ele>132.0</ele><time>2026-04-18T07:34:30Z</time></trkpt><trkpt lat="45.04701674083301" lon="8.456069601391725"><ele>132.0</ele><time>2026-04-18T07:34:31Z</time></trkpt><trkpt lat="45.04690984319006" lon="8.456027917840633"><ele>132.0</ele><time>2026-04-18T07:34:32Z</time></trkpt><trkpt lat="45.046799891890124" lon="8.455992125496817"><ele>132.0</ele><time>2026-04-18T07:34:33Z</time></trkpt><trkpt lat="45.04668577142743" lon="8.45595600774287"><ele>132.0</ele><time>2026-04-18T07:34:34Z</time></trkpt><trkpt lat="45.04657838269297" lon="8.455920862717406"><ele>133.2</ele><time>2026-04-18T07:34:35Z</time></trkpt><trkpt lat="45.046467737758135" lon="8.455880951228432"><ele>134.39999999999998</ele><time>2026-04-18T07:34:36Z</time></trkpt><trkpt lat="45.04636316716389" lon="8.455840523570735"><ele>135.60000000000002</ele><time>2026-04-18T07:34:37Z</time></trkpt><trkpt lat="45.04626535909707" lon="8.455788491184736"><ele>136.8</ele><time>2026-04-18T07:34:38Z</time></trkpt><trkpt lat="45.04617098450824" lon="8.455709896528964"><ele>138.0</ele><time>2026-04-18T07:34:39Z</time></trkpt><trkpt lat="45.046084067937834" lon="8.455616814851089"><ele>138.0</ele><time>2026-04-18T07:34:40Z</time></trkpt><trkpt lat="45.04600525688879" lon="8.45551049701699"><ele>138.0</ele><time>2026-04-18T07:34:41Z</time></trkpt><trkpt lat="45.04592583907264" lon="8.455398962116353"><ele>138.0</ele><time>2026-04-18T07:34:42Z</time></trkpt><trkpt lat="45.0458447521335" lon="8.455287558175462"><ele>138.0</ele><time>2026-04-18T07:34:43Z</time></trkpt><trkpt lat="45.04576462472671" lon="8.455171375989316"><ele>138.0</ele><time>2026-04-18T07:34:44Z</time></trkpt><trkpt lat="45.04568431785683" lon="8.45505712654465"><ele>138.0</ele><time>2026-04-18T07:34:45Z</time></trkpt><trkpt lat="45.04560389286124" lon="8.45494187483055"><ele>138.0</ele><time>2026-04-18T07:34:46Z</time></trkpt><trkpt lat="45.04552445352621" lon="8.454827527422564"><ele>138.0</ele><time>2026-04-18T07:34:47Z</time></trkpt><trkpt lat="45.04544831612341" lon="8.454708038060923"><ele>138.0</ele><time>2026-04-18T07:34:48Z</time></trkpt><trkpt lat="45.04537647142045" lon="8.454582051806536"><ele>136.25</ele><time>2026-04-18T07:34:49Z</time></trkpt><trkpt lat="45.04530411505692" lon="8.45445526482662"><ele>134.5</ele><time>2026-04-18T07:34:50Z</time></trkpt><trkpt lat="45.045234149166475" lon="8.454321156838411"><ele>132.75</ele><time>2026-04-18T07:34:51Z</time></trkpt><trkpt lat="45.04516949132185" lon="8.454183032258248"><ele>131.0</ele><time>2026-04-18T07:34:52Z</time></trkpt><trkpt lat="45.04511322319174" lon="8.454034738662585"><ele>131.0</ele><time>2026-04-18T07:34:53Z</time></trkpt><trkpt lat="45.04506609825599" lon="8.453882544210806"><ele>131.0</ele><time>2026-04-18T07:34:54Z</time></trkpt><trkpt lat="45.04502272287088" lon="8.453737612096937"><ele>131.0</ele><time>2026-04-18T07:34:55Z</time></trkpt><trkpt lat="45.044987797623754" lon="8.453614976424479"><ele>131.0</ele><time>2026-04-18T07:34:56Z</time></trkpt><trkpt lat="45.04494940272786" lon="8.453506020299406"><ele>131.0</ele><time>2026-04-18T07:34:57Z</time></trkpt><trkpt lat="45.04491716015716" lon="8.453411670198369"><ele>132.33333333333331</ele><time>2026-04-18T07:34:58Z</time></trkpt><trkpt lat="45.0448892239192" lon="8.453326222072935"><ele>133.66666666666666</ele><time>2026-04-18T07:34:59Z</time></trkpt><trkpt lat="45.04484881648388" lon="8.453193358904862"><ele>135.0</ele><time>2026-04-18T07:35:00.999Z</time></trkpt><trkpt lat="45.04483078438913" lon="8.453103154984882"><ele>136.33333333333334</ele><time>2026-04-18T07:35:02.999Z</time></trkpt><trkpt lat="45.04476673133635" lon="8.453036140648495"><ele>137.66666666666669</ele><time>2026-04-18T07:35:08.999Z</time></trkpt><trkpt lat="45.044668457388056" lon="8.453144904909342"><ele>139.0</ele><time>2026-04-18T07:35:10.999Z</time></trkpt><trkpt lat="45.04461365937582" lon="8.453216140910317"><ele>139.0</ele><time>2026-04-18T07:35:11.999Z</time></trkpt><trkpt lat="45.04454668811806" lon="8.453282976233096"><ele>139.0</ele><time>2026-04-18T07:35:12.999Z</time></trkpt><trkpt lat="45.04446718399039" lon="8.453356933096153"><ele>139.0</ele><time>2026-04-18T07:35:13.999Z</time></trkpt><trkpt lat="45.044388218259975" lon="8.453430119623054"><ele>139.0</ele><time>2026-04-18T07:35:14.999Z</time></trkpt><trkpt lat="45.04430664147354" lon="8.453506007707315"><ele>139.0</ele><time>2026-04-18T07:35:15.999Z</time></trkpt><trkpt lat="45.04423089335388" lon="8.45356291036575"><ele>139.0</ele><time>2026-04-18T07:35:16.999Z</time></trkpt><trkpt lat="45.04416672167743" lon="8.453603150861026"><ele>139.0</ele><time>2026-04-18T07:35:17.999Z</time></trkpt><trkpt lat="45.044105868808145" lon="8.453631540424121"><ele>139.0</ele><time>2026-04-18T07:35:18.999Z</time></trkpt><trkpt lat="45.044041310377665" lon="8.453647860520817"><ele>139.0</ele><time>2026-04-18T07:35:19.999Z</time></trkpt><trkpt lat="45.04397172912791" lon="8.453613487992737"><ele>139.0</ele><time>2026-04-18T07:35:20.999Z</time></trkpt><trkpt lat="45.04389642241532" lon="8.453615200244117"><ele>139.0</ele><time>2026-04-18T07:35:21.999Z</time></trkpt><trkpt lat="45.04379143494789" lon="8.453585571802268"><ele>139.0</ele><time>2026-04-18T07:35:23.999Z</time></trkpt><trkpt lat="45.0437091932609" lon="8.45354514325584"><ele>139.0</ele><time>2026-04-18T07:35:27.999Z</time></trkpt><trkpt lat="45.04361108196909" lon="8.453539241141318"><ele>139.0</ele><time>2026-04-18T07:35:30Z</time></trkpt><trkpt lat="45.043544411622996" lon="8.453520806417504"><ele>139.0</ele><time>2026-04-18T07:35:31Z</time></trkpt><trkpt lat="45.04347641936417" lon="8.453503165557652"><ele>139.0</ele><time>2026-04-18T07:35:32Z</time></trkpt><trkpt lat="45.04341242047187" lon="8.453490185330812"><ele>139.0</ele><time>2026-04-18T07:35:33Z</time></trkpt><trkpt lat="45.0433109823116" lon="8.453458941515546"><ele>139.16666666666669</ele><time>2026-04-18T07:35:35Z</time></trkpt><trkpt lat="45.04324818136569" lon="8.453442329481977"><ele>139.33333333333334</ele><time>2026-04-18T07:35:36Z</time></trkpt><trkpt lat="45.04315814555188" lon="8.453423884399706"><ele>139.5</ele><time>2026-04-18T07:35:38Z</time></trkpt><trkpt lat="45.04309282332362" lon="8.453591924796212"><ele>139.66666666666666</ele><time>2026-04-18T07:35:41Z</time></trkpt><trkpt lat="45.043095816871215" lon="8.453689431625873"><ele>139.83333333333331</ele><time>2026-04-18T07:35:42Z</time></trkpt><trkpt lat="45.043099563667205" lon="8.45379864088403"><ele>140.0</ele><time>2026-04-18T07:35:43Z</time></trkpt><trkpt lat="45.04308435664017" lon="8.453922106877261"><ele>140.0</ele><time>2026-04-18T07:35:44Z</time></trkpt><trkpt lat="45.04308477131535" lon="8.454042593107365"><ele>140.0</ele><time>2026-04-18T07:35:45Z</time></trkpt><trkpt lat="45.043097193796676" lon="8.454155723916237"><ele>140.0</ele><time>2026-04-18T07:35:46Z</time></trkpt><trkpt lat="45.043089851061474" lon="8.454251884371375"><ele>140.0</ele><time>2026-04-18T07:35:47Z</time></trkpt><trkpt lat="45.0430807483076" lon="8.454344018897373"><ele>140.0</ele><time>2026-04-18T07:35:48Z</time></trkpt><trkpt lat="45.04304633039687" lon="8.454496321379839"><ele>140.0</ele><time>2026-04-18T07:35:50Z</time></trkpt><trkpt lat="45.042997804872236" lon="8.454555373312648"><ele>140.0</ele><time>2026-04-18T07:35:51Z</time></trkpt><trkpt lat="45.042925482892606" lon="8.454566462126486"><ele>140.0</ele><time>2026-04-18T07:35:52Z</time></trkpt><trkpt lat="45.042851670698774" lon="8.454611669022709"><ele>140.0</ele><time>2026-04-18T07:35:53Z</time></trkpt><trkpt lat="45.04277256447234" lon="8.454648024972716"><ele>140.0</ele><time>2026-04-18T07:35:54Z</time></trkpt><trkpt lat="45.04267755712024" lon="8.454678049979401"><ele>140.0</ele><time>2026-04-18T07:35:55Z</time></trkpt><trkpt lat="45.04260244264609" lon="8.454708674467511"><ele>140.0</ele><time>2026-04-18T07:35:56Z</time></trkpt><trkpt lat="45.04252580629719" lon="8.454739362553804"><ele>140.2</ele><time>2026-04-18T07:35:57Z</time></trkpt><trkpt lat="45.04244030435385" lon="8.454772339926627"><ele>140.4</ele><time>2026-04-18T07:35:58Z</time></trkpt><trkpt lat="45.04234994657552" lon="8.454788859719772"><ele>140.6</ele><time>2026-04-18T07:35:59Z</time></trkpt><trkpt lat="45.04226414044915" lon="8.454842085363133"><ele>140.8</ele><time>2026-04-18T07:36:00Z</time></trkpt><trkpt lat="45.04217432072983" lon="8.45487715473586"><ele>141.0</ele><time>2026-04-18T07:36:01Z</time></trkpt><trkpt lat="45.0420842348111" lon="8.454917465682279"><ele>141.0</ele><time>2026-04-18T07:36:02Z</time></trkpt><trkpt lat="45.04200910546008" lon="8.454945286795835"><ele>141.0</ele><time>2026-04-18T07:36:03Z</time></trkpt><trkpt lat="45.041935582087795" lon="8.454952680662048"><ele>141.0</ele><time>2026-04-18T07:36:04Z</time></trkpt><trkpt lat="45.04187359460402" lon="8.454995461739214"><ele>141.0</ele><time>2026-04-18T07:36:05Z</time></trkpt><trkpt lat="45.04177422444505" lon="8.455016553054712"><ele>141.0</ele><time>2026-04-18T07:36:07Z</time></trkpt><trkpt lat="45.0417895668516" lon="8.455232021436482"><ele>141.0</ele><time>2026-04-18T07:36:10Z</time></trkpt><trkpt lat="45.0418202601856" lon="8.455321227646483"><ele>141.0</ele><time>2026-04-18T07:36:11Z</time></trkpt><trkpt lat="45.04185348617972" lon="8.455440906411587"><ele>141.0</ele><time>2026-04-18T07:36:12Z</time></trkpt><trkpt lat="45.04188516808565" lon="8.455570163612594"><ele>141.0</ele><time>2026-04-18T07:36:13Z</time></trkpt><trkpt lat="45.04191772918549" lon="8.455687280345622"><ele>141.0</ele><time>2026-04-18T07:36:14Z</time></trkpt><trkpt lat="45.04193893990591" lon="8.455775302717907"><ele>141.0</ele><time>2026-04-18T07:36:15Z</time></trkpt><trkpt lat="45.04196122555958" lon="8.455864295048999"><ele>140.83333333333334</ele><time>2026-04-18T07:36:16Z</time></trkpt><trkpt lat="45.04198810745674" lon="8.455969398988607"><ele>140.66666666666666</ele><time>2026-04-18T07:36:17Z</time></trkpt><trkpt lat="45.04201611864911" lon="8.456084600317222"><ele>140.5</ele><time>2026-04-18T07:36:18Z</time></trkpt><trkpt lat="45.04204442878151" lon="8.456182234513737"><ele>140.33333333333331</ele><time>2026-04-18T07:36:19Z</time></trkpt><trkpt lat="45.042069659775805" lon="8.456284577343517"><ele>140.16666666666666</ele><time>2026-04-18T07:36:20Z</time></trkpt><trkpt lat="45.04209869740541" lon="8.45638449151659"><ele>140.0</ele><time>2026-04-18T07:36:21Z</time></trkpt><trkpt lat="45.04212941945822" lon="8.456496058832142"><ele>140.0</ele><time>2026-04-18T07:36:22Z</time></trkpt><trkpt lat="45.04216160380344" lon="8.456608228946246"><ele>140.0</ele><time>2026-04-18T07:36:23Z</time></trkpt><trkpt lat="45.04219035557081" lon="8.456711786981762"><ele>140.0</ele><time>2026-04-18T07:36:24Z</time></trkpt><trkpt lat="45.0422150725977" lon="8.456800003955045"><ele>140.0</ele><time>2026-04-18T07:36:25Z</time></trkpt><trkpt lat="45.04223828864591" lon="8.45688927024046"><ele>140.0</ele><time>2026-04-18T07:36:26Z</time></trkpt><trkpt lat="45.04225995382465" lon="8.456984298391497"><ele>140.0</ele><time>2026-04-18T07:36:27Z</time></trkpt><trkpt lat="45.04228136022077" lon="8.457079488414271"><ele>140.0</ele><time>2026-04-18T07:36:28Z</time></trkpt><trkpt lat="45.04229935037655" lon="8.45717123301717"><ele>139.5</ele><time>2026-04-18T07:36:29Z</time></trkpt><trkpt lat="45.04230058734691" lon="8.457262703004487"><ele>139.0</ele><time>2026-04-18T07:36:30Z</time></trkpt><trkpt lat="45.042275041810825" lon="8.457363582839589"><ele>138.5</ele><time>2026-04-18T07:36:31Z</time></trkpt><trkpt lat="45.042232768796865" lon="8.457497086001087"><ele>138.0</ele><time>2026-04-18T07:36:32Z</time></trkpt><trkpt lat="45.04219978954884" lon="8.457619698180977"><ele>137.5</ele><time>2026-04-18T07:36:33Z</time></trkpt><trkpt lat="45.042171457695574" lon="8.457740989026183"><ele>137.0</ele><time>2026-04-18T07:36:34Z</time></trkpt><trkpt lat="45.0421521249371" lon="8.457830058299415"><ele>137.0</ele><time>2026-04-18T07:36:35Z</time></trkpt><trkpt lat="45.042125725207825" lon="8.457923207171207"><ele>137.0</ele><time>2026-04-18T07:36:36Z</time></trkpt><trkpt lat="45.04210283921225" lon="8.458017763197777"><ele>137.0</ele><time>2026-04-18T07:36:37Z</time></trkpt><trkpt lat="45.04208472545838" lon="8.458104128667276"><ele>137.0</ele><time>2026-04-18T07:36:38Z</time></trkpt><trkpt lat="45.04207009676025" lon="8.458237853274017"><ele>137.0</ele><time>2026-04-18T07:36:40Z</time></trkpt><trkpt lat="45.04197237665027" lon="8.458322972987245"><ele>137.0</ele><time>2026-04-18T07:36:42Z</time></trkpt><trkpt lat="45.04188710567691" lon="8.458353334076888"><ele>136.5</ele><time>2026-04-18T07:36:43Z</time></trkpt><trkpt lat="45.04179108951036" lon="8.458396495905587"><ele>136.0</ele><time>2026-04-18T07:36:44Z</time></trkpt><trkpt lat="45.04168142085656" lon="8.458457837406842"><ele>135.5</ele><time>2026-04-18T07:36:45Z</time></trkpt><trkpt lat="45.04156866734077" lon="8.458526643759928"><ele>135.0</ele><time>2026-04-18T07:36:46Z</time></trkpt><trkpt lat="45.04145083459723" lon="8.458609958168047"><ele>134.66666666666666</ele><time>2026-04-18T07:36:47Z</time></trkpt><trkpt lat="45.0413268241322" lon="8.458690981726974"><ele>134.33333333333331</ele><time>2026-04-18T07:36:48Z</time></trkpt><trkpt lat="45.04118915327085" lon="8.458778851009734"><ele>134.0</ele><time>2026-04-18T07:36:49Z</time></trkpt><trkpt lat="45.04102802236458" lon="8.458867862372047"><ele>134.0</ele><time>2026-04-18T07:36:50Z</time></trkpt><trkpt lat="45.04089988539498" lon="8.458966457427108"><ele>134.0</ele><time>2026-04-18T07:36:51Z</time></trkpt><trkpt lat="45.040779630938445" lon="8.45903917212771"><ele>134.0</ele><time>2026-04-18T07:36:52Z</time></trkpt><trkpt lat="45.04064758615319" lon="8.459125670716432"><ele>134.0</ele><time>2026-04-18T07:36:53Z</time></trkpt><trkpt lat="45.04053049983728" lon="8.459199532294996"><ele>134.2</ele><time>2026-04-18T07:36:54Z</time></trkpt><trkpt lat="45.04042370660749" lon="8.459270361912417"><ele>134.4</ele><time>2026-04-18T07:36:55Z</time></trkpt><trkpt lat="45.04032159640781" lon="8.45933269292959"><ele>134.6</ele><time>2026-04-18T07:36:56Z</time></trkpt><trkpt lat="45.04023894745301" lon="8.459401478050436"><ele>134.8</ele><time>2026-04-18T07:36:57Z</time></trkpt><trkpt lat="45.04014778799698" lon="8.459467067085598"><ele>135.0</ele><time>2026-04-18T07:36:58Z</time></trkpt><trkpt lat="45.040075452660034" lon="8.459507965522253"><ele>135.0</ele><time>2026-04-18T07:36:59Z</time></trkpt><trkpt lat="45.040009735915575" lon="8.45954704602981"><ele>135.0</ele><time>2026-04-18T07:37:00Z</time></trkpt><trkpt lat="45.03995844045141" lon="8.459620970993674"><ele>135.0</ele><time>2026-04-18T07:37:02Z</time></trkpt><trkpt lat="45.039980638255614" lon="8.45971886833043"><ele>135.0</ele><time>2026-04-18T07:37:04Z</time></trkpt><trkpt lat="45.04006292563764" lon="8.45985994750391"><ele>135.0</ele><time>2026-04-18T07:37:06Z</time></trkpt><trkpt lat="45.040112540495706" lon="8.459942276166974"><ele>135.0</ele><time>2026-04-18T07:37:06.999Z</time></trkpt><trkpt lat="45.040165762746945" lon="8.460036804093335"><ele>135.4</ele><time>2026-04-18T07:37:07.999Z</time></trkpt><trkpt lat="45.04022058499289" lon="8.460146476346019"><ele>135.8</ele><time>2026-04-18T07:37:08.999Z</time></trkpt><trkpt lat="45.0402712186719" lon="8.460252974914898"><ele>136.2</ele><time>2026-04-18T07:37:09.999Z</time></trkpt><trkpt lat="45.040329192355934" lon="8.460358698791248"><ele>136.6</ele><time>2026-04-18T07:37:10.999Z</time></trkpt><trkpt lat="45.040385687225566" lon="8.46046519842469"><ele>137.0</ele><time>2026-04-18T07:37:11.999Z</time></trkpt><trkpt lat="45.04044951256793" lon="8.46057890986464"><ele>137.0</ele><time>2026-04-18T07:37:12.999Z</time></trkpt><trkpt lat="45.04050649441401" lon="8.460692104047824"><ele>137.0</ele><time>2026-04-18T07:37:13.999Z</time></trkpt><trkpt lat="45.04056218621683" lon="8.460820028695514"><ele>137.0</ele><time>2026-04-18T07:37:14.999Z</time></trkpt><trkpt lat="45.04062954375453" lon="8.460950055230775"><ele>137.0</ele><time>2026-04-18T07:37:15.999Z</time></trkpt><trkpt lat="45.040693604422195" lon="8.461090109628632"><ele>137.0</ele><time>2026-04-18T07:37:16.999Z</time></trkpt><trkpt lat="45.04075573277694" lon="8.461229930235541"><ele>136.75</ele><time>2026-04-18T07:37:17.999Z</time></trkpt><trkpt lat="45.04082327896405" lon="8.46136818881639"><ele>136.5</ele><time>2026-04-18T07:37:18.999Z</time></trkpt><trkpt lat="45.04088383071682" lon="8.461518333846517"><ele>136.25</ele><time>2026-04-18T07:37:19.999Z</time></trkpt><trkpt lat="45.04094255495777" lon="8.461656650322784"><ele>136.0</ele><time>2026-04-18T07:37:20.999Z</time></trkpt><trkpt lat="45.04099420659586" lon="8.461804825433477"><ele>136.0</ele><time>2026-04-18T07:37:21.999Z</time></trkpt><trkpt lat="45.04102992777453" lon="8.46195146058218"><ele>136.0</ele><time>2026-04-18T07:37:22.999Z</time></trkpt><trkpt lat="45.041058029134184" lon="8.462092770271017"><ele>136.0</ele><time>2026-04-18T07:37:23.999Z</time></trkpt><trkpt lat="45.04107326355303" lon="8.462243001233269"><ele>136.0</ele><time>2026-04-18T07:37:24.999Z</time></trkpt><trkpt lat="45.04107488043608" lon="8.46241497704336"><ele>136.0</ele><time>2026-04-18T07:37:25.999Z</time></trkpt><trkpt lat="45.04106315832841" lon="8.462600859114017"><ele>136.0</ele><time>2026-04-18T07:37:26.999Z</time></trkpt><trkpt lat="45.04105289767702" lon="8.462797651332224"><ele>136.0</ele><time>2026-04-18T07:37:27.999Z</time></trkpt><trkpt lat="45.04104203138707" lon="8.462996186168994"><ele>136.0</ele><time>2026-04-18T07:37:28.999Z</time></trkpt><trkpt lat="45.04103854360095" lon="8.46319009467561"><ele>136.0</ele><time>2026-04-18T07:37:29.999Z</time></trkpt><trkpt lat="45.04103740551594" lon="8.463384208221685"><ele>136.0</ele><time>2026-04-18T07:37:30.999Z</time></trkpt><trkpt lat="45.041033047825714" lon="8.46357933740027"><ele>136.0</ele><time>2026-04-18T07:37:31.999Z</time></trkpt><trkpt lat="45.04102742709546" lon="8.463754092289381"><ele>136.0</ele><time>2026-04-18T07:37:32.999Z</time></trkpt><trkpt lat="45.04102919325444" lon="8.46391156966187"><ele>136.0</ele><time>2026-04-18T07:37:33.999Z</time></trkpt><trkpt lat="45.04103859905727" lon="8.464060610091826"><ele>136.0</ele><time>2026-04-18T07:37:35Z</time></trkpt><trkpt lat="45.04104325296118" lon="8.464174782550428"><ele>136.0</ele><time>2026-04-18T07:37:36Z</time></trkpt><trkpt lat="45.04105001291017" lon="8.464317981294071"><ele>136.0</ele><time>2026-04-18T07:37:38Z</time></trkpt><trkpt lat="45.04098788822943" lon="8.464431148796786"><ele>136.0</ele><time>2026-04-18T07:37:41Z</time></trkpt><trkpt lat="45.04087492726607" lon="8.464412374729756"><ele>136.0</ele><time>2026-04-18T07:37:43Z</time></trkpt><trkpt lat="45.04081380851587" lon="8.464375498609435"><ele>135.8</ele><time>2026-04-18T07:37:44Z</time></trkpt><trkpt lat="45.04074125281109" lon="8.464334126243221"><ele>135.6</ele><time>2026-04-18T07:37:45Z</time></trkpt><trkpt lat="45.04066646043198" lon="8.464285214186754"><ele>135.4</ele><time>2026-04-18T07:37:46Z</time></trkpt><trkpt lat="45.04057138268113" lon="8.464236618851674"><ele>135.2</ele><time>2026-04-18T07:37:48Z</time></trkpt><trkpt lat="45.040525908967176" lon="8.464319773077914"><ele>135.0</ele><time>2026-04-18T07:37:50Z</time></trkpt><trkpt lat="45.04049658392473" lon="8.464495826671808"><ele>135.0</ele><time>2026-04-18T07:37:52Z</time></trkpt><trkpt lat="45.04047825827102" lon="8.464583474263737"><ele>135.0</ele><time>2026-04-18T07:37:53Z</time></trkpt><trkpt lat="45.04044804939203" lon="8.464731335923688"><ele>135.0</ele><time>2026-04-18T07:37:55Z</time></trkpt><trkpt lat="45.040410151629644" lon="8.46486557683708"><ele>135.0</ele><time>2026-04-18T07:37:57Z</time></trkpt><trkpt lat="45.04033991324311" lon="8.46493687877051"><ele>135.0</ele><time>2026-04-18T07:37:59Z</time></trkpt><trkpt lat="45.04025266406798" lon="8.464986710414923"><ele>135.0</ele><time>2026-04-18T07:38:03Z</time></trkpt><trkpt lat="45.04020002282409" lon="8.465067379450197"><ele>135.0</ele><time>2026-04-18T07:38:20Z</time></trkpt><trkpt lat="45.040213502157194" lon="8.46516212001949"><ele>135.0</ele><time>2026-04-18T07:38:22Z</time></trkpt><trkpt lat="45.04018082711848" lon="8.465248970610952"><ele>135.0</ele><time>2026-04-18T07:38:24Z</time></trkpt><trkpt lat="45.04014982371452" lon="8.465340047504377"><ele>135.0</ele><time>2026-04-18T07:38:26Z</time></trkpt><trkpt lat="45.040132012834135" lon="8.46543545064366"><ele>135.0</ele><time>2026-04-18T07:38:28Z</time></trkpt><trkpt lat="45.04011481907322" lon="8.465535946380601"><ele>135.0</ele><time>2026-04-18T07:38:30Z</time></trkpt><trkpt lat="45.04009082828083" lon="8.465625289947454"><ele>134.83333333333334</ele><time>2026-04-18T07:38:32Z</time></trkpt><trkpt lat="45.040069225350656" lon="8.465729785070888"><ele>134.66666666666666</ele><time>2026-04-18T07:38:34Z</time></trkpt><trkpt lat="45.040033622902996" lon="8.465808309463187"><ele>134.5</ele><time>2026-04-18T07:38:36Z</time></trkpt><trkpt lat="45.03994500279785" lon="8.46580832574124"><ele>134.33333333333331</ele><time>2026-04-18T07:38:38Z</time></trkpt><trkpt lat="45.03989115475488" lon="8.465752721302794"><ele>134.16666666666666</ele><time>2026-04-18T07:38:39Z</time></trkpt><trkpt lat="45.03983254040291" lon="8.465686992813739"><ele>134.0</ele><time>2026-04-18T07:38:40Z</time></trkpt><trkpt lat="45.03975188913489" lon="8.465619415008502"><ele>133.25</ele><time>2026-04-18T07:38:41Z</time></trkpt><trkpt lat="45.039663919871906" lon="8.465548126336213"><ele>132.5</ele><time>2026-04-18T07:38:42Z</time></trkpt><trkpt lat="45.03956712221477" lon="8.465469420294244"><ele>131.75</ele><time>2026-04-18T07:38:43Z</time></trkpt><trkpt lat="45.03946065964276" lon="8.465383869899311"><ele>131.0</ele><time>2026-04-18T07:38:44Z</time></trkpt><trkpt lat="45.03936100415576" lon="8.465300468170373"><ele>130.75</ele><time>2026-04-18T07:38:45Z</time></trkpt><trkpt lat="45.039261551189064" lon="8.465216354109986"><ele>130.5</ele><time>2026-04-18T07:38:46Z</time></trkpt><trkpt lat="45.039163120252965" lon="8.465134053980233"><ele>130.25</ele><time>2026-04-18T07:38:47Z</time></trkpt><trkpt lat="45.039066890699864" lon="8.46505920827764"><ele>130.0</ele><time>2026-04-18T07:38:48Z</time></trkpt><trkpt lat="45.038968418971336" lon="8.464989653778318"><ele>129.5</ele><time>2026-04-18T07:38:49Z</time></trkpt><trkpt lat="45.03885764037763" lon="8.464927778715484"><ele>129.0</ele><time>2026-04-18T07:38:50Z</time></trkpt><trkpt lat="45.03874257351407" lon="8.464870898756008"><ele>128.5</ele><time>2026-04-18T07:38:51Z</time></trkpt><trkpt lat="45.038622681291166" lon="8.46481370115101"><ele>128.0</ele><time>2026-04-18T07:38:52Z</time></trkpt><trkpt lat="45.03850621832775" lon="8.464756513876113"><ele>128.0</ele><time>2026-04-18T07:38:53Z</time></trkpt><trkpt lat="45.03839145378963" lon="8.464697497487093"><ele>128.0</ele><time>2026-04-18T07:38:54Z</time></trkpt><trkpt lat="45.038269094977814" lon="8.464641474844854"><ele>128.0</ele><time>2026-04-18T07:38:55Z</time></trkpt><trkpt lat="45.03814670979495" lon="8.464586571227548"><ele>128.0</ele><time>2026-04-18T07:38:56Z</time></trkpt><trkpt lat="45.03802262592204" lon="8.4645202020111"><ele>128.5</ele><time>2026-04-18T07:38:57Z</time></trkpt><trkpt lat="45.03789810163466" lon="8.464457829437876"><ele>129.0</ele><time>2026-04-18T07:38:58Z</time></trkpt><trkpt lat="45.037774863930295" lon="8.464396131981266"><ele>129.5</ele><time>2026-04-18T07:38:59Z</time></trkpt><trkpt lat="45.037654801948335" lon="8.46433922237397"><ele>130.0</ele><time>2026-04-18T07:39:00Z</time></trkpt><trkpt lat="45.03753339607967" lon="8.464283187175228"><ele>131.0</ele><time>2026-04-18T07:39:01Z</time></trkpt><trkpt lat="45.03741474381017" lon="8.464225537591751"><ele>132.0</ele><time>2026-04-18T07:39:02Z</time></trkpt><trkpt lat="45.0372995062105" lon="8.464170742355172"><ele>133.0</ele><time>2026-04-18T07:39:03Z</time></trkpt><trkpt lat="45.037186426630676" lon="8.464118440633772"><ele>134.0</ele><time>2026-04-18T07:39:04Z</time></trkpt><trkpt lat="45.037071202574346" lon="8.464061623753514"><ele>134.0</ele><time>2026-04-18T07:39:05Z</time></trkpt><trkpt lat="45.03696246379066" lon="8.464004569107333"><ele>134.0</ele><time>2026-04-18T07:39:06Z</time></trkpt><trkpt lat="45.036858851954776" lon="8.463954077178107"><ele>134.0</ele><time>2026-04-18T07:39:07Z</time></trkpt><trkpt lat="45.0367661129435" lon="8.463910379043906"><ele>134.0</ele><time>2026-04-18T07:39:08Z</time></trkpt><trkpt lat="45.03668642519616" lon="8.463868470599133"><ele>134.0</ele><time>2026-04-18T07:39:09Z</time></trkpt><trkpt lat="45.036624884962805" lon="8.463819487332886"><ele>134.0</ele><time>2026-04-18T07:39:10Z</time></trkpt><trkpt lat="45.03659275233545" lon="8.463738163786184"><ele>134.0</ele><time>2026-04-18T07:39:11Z</time></trkpt><trkpt lat="45.03657790176067" lon="8.4636293652438"><ele>134.0</ele><time>2026-04-18T07:39:12Z</time></trkpt><trkpt lat="45.03656447602235" lon="8.46350303324493"><ele>134.0</ele><time>2026-04-18T07:39:13Z</time></trkpt><trkpt lat="45.036544101065864" lon="8.463377364926377"><ele>134.0</ele><time>2026-04-18T07:39:14Z</time></trkpt><trkpt lat="45.036505353430506" lon="8.463259059250737"><ele>134.0</ele><time>2026-04-18T07:39:15Z</time></trkpt><trkpt lat="45.03644860967919" lon="8.463160579570426"><ele>134.0</ele><time>2026-04-18T07:39:16Z</time></trkpt><trkpt lat="45.03637910188175" lon="8.463077107876005"><ele>134.0</ele><time>2026-04-18T07:39:17Z</time></trkpt><trkpt lat="45.03630205483742" lon="8.463015118466867"><ele>134.0</ele><time>2026-04-18T07:39:18Z</time></trkpt><trkpt lat="45.03621585257278" lon="8.462963350788556"><ele>134.0</ele><time>2026-04-18T07:39:19Z</time></trkpt><trkpt lat="45.0361130204986" lon="8.462921301084917"><ele>134.0</ele><time>2026-04-18T07:39:20Z</time></trkpt><trkpt lat="45.036004186350226" lon="8.462880774110793"><ele>134.0</ele><time>2026-04-18T07:39:21Z</time></trkpt><trkpt lat="45.03589037368824" lon="8.46284441969321"><ele>134.0</ele><time>2026-04-18T07:39:22Z</time></trkpt><trkpt lat="45.03577045637131" lon="8.462816133331419"><ele>134.0</ele><time>2026-04-18T07:39:23Z</time></trkpt><trkpt lat="45.03564736128014" lon="8.46278894653225"><ele>134.0</ele><time>2026-04-18T07:39:24Z</time></trkpt><trkpt lat="45.03552295965784" lon="8.462763979769774"><ele>134.0</ele><time>2026-04-18T07:39:24.999Z</time></trkpt><trkpt lat="45.03539507054432" lon="8.462738864036279"><ele>134.0</ele><time>2026-04-18T07:39:25.999Z</time></trkpt><trkpt lat="45.03526897296814" lon="8.462711018613497"><ele>134.0</ele><time>2026-04-18T07:39:26.999Z</time></trkpt><trkpt lat="45.035141808375776" lon="8.462674497061844"><ele>134.0</ele><time>2026-04-18T07:39:27.999Z</time></trkpt><trkpt lat="45.03501913297756" lon="8.462638866996434"><ele>134.5</ele><time>2026-04-18T07:39:28.999Z</time></trkpt><trkpt lat="45.03490169010284" lon="8.462602030646087"><ele>135.0</ele><time>2026-04-18T07:39:29.999Z</time></trkpt><trkpt lat="45.03479081788023" lon="8.4625586378991"><ele>135.5</ele><time>2026-04-18T07:39:30.999Z</time></trkpt><trkpt lat="45.034687978115215" lon="8.462496365399348"><ele>136.0</ele><time>2026-04-18T07:39:31.999Z</time></trkpt><trkpt lat="45.034596709349124" lon="8.462413603493733"><ele>136.0</ele><time>2026-04-18T07:39:32.999Z</time></trkpt><trkpt lat="45.03450809473408" lon="8.462291862426357"><ele>136.0</ele><time>2026-04-18T07:39:33.999Z</time></trkpt><trkpt lat="45.03442177125632" lon="8.462158208821954"><ele>136.0</ele><time>2026-04-18T07:39:34.999Z</time></trkpt><trkpt lat="45.0343393823618" lon="8.462033353186213"><ele>136.0</ele><time>2026-04-18T07:39:35.999Z</time></trkpt><trkpt lat="45.03427699122685" lon="8.461932047176342"><ele>136.0</ele><time>2026-04-18T07:39:36.999Z</time></trkpt><trkpt lat="45.03423309047356" lon="8.461841814744636"><ele>136.0</ele><time>2026-04-18T07:39:37.999Z</time></trkpt><trkpt lat="45.03416344121115" lon="8.461724972943692"><ele>136.0</ele><time>2026-04-18T07:39:39.999Z</time></trkpt><trkpt lat="45.03407329541235" lon="8.461729803712569"><ele>136.0</ele><time>2026-04-18T07:39:42Z</time></trkpt><trkpt lat="45.03397025180424" lon="8.461822697625577"><ele>136.0</ele><time>2026-04-18T07:39:44Z</time></trkpt><trkpt lat="45.03389209500449" lon="8.46187614023003"><ele>136.0</ele><time>2026-04-18T07:39:45Z</time></trkpt><trkpt lat="45.03379851793961" lon="8.46192189067512"><ele>136.0</ele><time>2026-04-18T07:39:46Z</time></trkpt><trkpt lat="45.03371533224324" lon="8.461955997960532"><ele>136.0</ele><time>2026-04-18T07:39:47Z</time></trkpt><trkpt lat="45.033636803953485" lon="8.46201024136219"><ele>136.0</ele><time>2026-04-18T07:39:48Z</time></trkpt><trkpt lat="45.03355384840266" lon="8.46207513147527"><ele>136.0</ele><time>2026-04-18T07:39:49Z</time></trkpt><trkpt lat="45.033481875404014" lon="8.46213462821522"><ele>136.2</ele><time>2026-04-18T07:39:50Z</time></trkpt><trkpt lat="45.0334253422592" lon="8.462235004519469"><ele>136.39999999999998</ele><time>2026-04-18T07:39:51Z</time></trkpt><trkpt lat="45.03337842008745" lon="8.462342608094296"><ele>136.6</ele><time>2026-04-18T07:39:52Z</time></trkpt><trkpt lat="45.033336757962836" lon="8.462444775764947"><ele>136.79999999999998</ele><time>2026-04-18T07:39:53Z</time></trkpt><trkpt lat="45.03329323435438" lon="8.462574729530685"><ele>137.0</ele><time>2026-04-18T07:39:54Z</time></trkpt><trkpt lat="45.03325101352519" lon="8.4627020160303"><ele>137.4</ele><time>2026-04-18T07:39:55Z</time></trkpt><trkpt lat="45.03318107371598" lon="8.4628114227216"><ele>137.79999999999998</ele><time>2026-04-18T07:39:56Z</time></trkpt><trkpt lat="45.033125464869606" lon="8.462933050263276"><ele>138.2</ele><time>2026-04-18T07:39:57Z</time></trkpt><trkpt lat="45.033068399274065" lon="8.4630577059041"><ele>138.6</ele><time>2026-04-18T07:39:58Z</time></trkpt><trkpt lat="45.033015392360625" lon="8.463187225036485"><ele>139.0</ele><time>2026-04-18T07:39:59Z</time></trkpt><trkpt lat="45.03296634192093" lon="8.463316699734282"><ele>139.4</ele><time>2026-04-18T07:40:00Z</time></trkpt><trkpt lat="45.032916513956415" lon="8.463454433712108"><ele>139.8</ele><time>2026-04-18T07:40:01Z</time></trkpt><trkpt lat="45.03287455808656" lon="8.463589483714818"><ele>140.2</ele><time>2026-04-18T07:40:02Z</time></trkpt><trkpt lat="45.03285333218131" lon="8.463737434844507"><ele>140.6</ele><time>2026-04-18T07:40:03Z</time></trkpt><trkpt lat="45.032817612058594" lon="8.463870609849822"><ele>141.0</ele><time>2026-04-18T07:40:04Z</time></trkpt><trkpt lat="45.032781948928296" lon="8.463993560660509"><ele>141.0</ele><time>2026-04-18T07:40:05Z</time></trkpt><trkpt lat="45.03275441576068" lon="8.464096806881466"><ele>141.0</ele><time>2026-04-18T07:40:06Z</time></trkpt><trkpt lat="45.032704610479634" lon="8.464254064741832"><ele>141.0</ele><time>2026-04-18T07:40:08Z</time></trkpt><trkpt lat="45.032669905558066" lon="8.464333050236183"><ele>141.0</ele><time>2026-04-18T07:40:09Z</time></trkpt><trkpt lat="45.03262947388022" lon="8.464414485771236"><ele>141.0</ele><time>2026-04-18T07:40:10Z</time></trkpt><trkpt lat="45.03258881441415" lon="8.464484276373694"><ele>141.0</ele><time>2026-04-18T07:40:11Z</time></trkpt><trkpt lat="45.032525937320514" lon="8.46458838896159"><ele>140.8</ele><time>2026-04-18T07:40:13Z</time></trkpt><trkpt lat="45.03246719000738" lon="8.464683280210416"><ele>140.6</ele><time>2026-04-18T07:40:15Z</time></trkpt><trkpt lat="45.03234266251701" lon="8.464746202734394"><ele>140.4</ele><time>2026-04-18T07:40:17Z</time></trkpt><trkpt lat="45.0322994575891" lon="8.464882207154773"><ele>140.2</ele><time>2026-04-18T07:40:18Z</time></trkpt><trkpt lat="45.03223677346783" lon="8.464997835060624"><ele>140.0</ele><time>2026-04-18T07:40:19Z</time></trkpt><trkpt lat="45.032180407719906" lon="8.465119928349251"><ele>140.0</ele><time>2026-04-18T07:40:20Z</time></trkpt><trkpt lat="45.032124664883" lon="8.465240737922883"><ele>140.0</ele><time>2026-04-18T07:40:21Z</time></trkpt><trkpt lat="45.03206222904054" lon="8.465377095688849"><ele>140.0</ele><time>2026-04-18T07:40:22Z</time></trkpt><trkpt lat="45.03199610608025" lon="8.465522881331738"><ele>140.0</ele><time>2026-04-18T07:40:23Z</time></trkpt><trkpt lat="45.031927592735194" lon="8.465679431810578"><ele>140.25</ele><time>2026-04-18T07:40:24Z</time></trkpt><trkpt lat="45.03185600533072" lon="8.4658430064152"><ele>140.5</ele><time>2026-04-18T07:40:25Z</time></trkpt><trkpt lat="45.031785080646976" lon="8.466005066691535"><ele>140.75</ele><time>2026-04-18T07:40:26Z</time></trkpt><trkpt lat="45.03171092544699" lon="8.466173532975603"><ele>141.0</ele><time>2026-04-18T07:40:27Z</time></trkpt><trkpt lat="45.03163449151164" lon="8.466342646668233"><ele>141.0</ele><time>2026-04-18T07:40:28Z</time></trkpt><trkpt lat="45.03156070600801" lon="8.46650590059505"><ele>141.0</ele><time>2026-04-18T07:40:29Z</time></trkpt><trkpt lat="45.031486828586964" lon="8.466672851833392"><ele>141.0</ele><time>2026-04-18T07:40:30Z</time></trkpt><trkpt lat="45.03141145457804" lon="8.466833938306687"><ele>141.0</ele><time>2026-04-18T07:40:31Z</time></trkpt><trkpt lat="45.03133278375055" lon="8.466986417359253"><ele>141.25</ele><time>2026-04-18T07:40:32Z</time></trkpt><trkpt lat="45.03126155260391" lon="8.467148791124508"><ele>141.5</ele><time>2026-04-18T07:40:33Z</time></trkpt><trkpt lat="45.03116037593569" lon="8.467279093653229"><ele>141.75</ele><time>2026-04-18T07:40:34Z</time></trkpt><trkpt lat="45.03108314174041" lon="8.46743692677201"><ele>142.0</ele><time>2026-04-18T07:40:35Z</time></trkpt><trkpt lat="45.0309856771946" lon="8.467557632756407"><ele>142.0</ele><time>2026-04-18T07:40:36Z</time></trkpt><trkpt lat="45.03090054473239" lon="8.4676933676881"><ele>142.0</ele><time>2026-04-18T07:40:37Z</time></trkpt><trkpt lat="45.030825186499584" lon="8.467837129741191"><ele>142.0</ele><time>2026-04-18T07:40:38Z</time></trkpt><trkpt lat="45.03075054832257" lon="8.467961618489726"><ele>142.0</ele><time>2026-04-18T07:40:39Z</time></trkpt><trkpt lat="45.03068494235678" lon="8.468084952561895"><ele>143.5</ele><time>2026-04-18T07:40:40Z</time></trkpt><trkpt lat="45.03062510897901" lon="8.468193556578973"><ele>145.0</ele><time>2026-04-18T07:40:41Z</time></trkpt><trkpt lat="45.0305618484039" lon="8.468277601260672"><ele>146.5</ele><time>2026-04-18T07:40:42Z</time></trkpt><trkpt lat="45.03050309905263" lon="8.468374365010224"><ele>148.0</ele><time>2026-04-18T07:40:44Z</time></trkpt><trkpt lat="45.030712971373674" lon="8.468598399450729"><ele>146.8</ele><time>2026-04-18T07:40:46Z</time></trkpt><trkpt lat="45.03080921071779" lon="8.468672156384473"><ele>145.60000000000002</ele><time>2026-04-18T07:40:47Z</time></trkpt><trkpt lat="45.030912313357405" lon="8.46873619262472"><ele>144.39999999999998</ele><time>2026-04-18T07:40:48Z</time></trkpt><trkpt lat="45.031012806327524" lon="8.468831904199014"><ele>143.2</ele><time>2026-04-18T07:40:49Z</time></trkpt><trkpt lat="45.03109959235141" lon="8.468912750859909"><ele>142.0</ele><time>2026-04-18T07:40:50Z</time></trkpt><trkpt lat="45.03117578770276" lon="8.468992646510602"><ele>141.83333333333334</ele><time>2026-04-18T07:40:51Z</time></trkpt><trkpt lat="45.03124876697058" lon="8.469059319419959"><ele>141.66666666666669</ele><time>2026-04-18T07:40:52Z</time></trkpt><trkpt lat="45.03131716875691" lon="8.46912450969355"><ele>141.5</ele><time>2026-04-18T07:40:53Z</time></trkpt><trkpt lat="45.03139663040049" lon="8.469213086132266"><ele>141.33333333333334</ele><time>2026-04-18T07:40:55Z</time></trkpt><trkpt lat="45.03132527267739" lon="8.469151419136303"><ele>141.16666666666666</ele><time>2026-04-18T07:41:04Z</time></trkpt><trkpt lat="45.031262777106" lon="8.469068239620178"><ele>141.0</ele><time>2026-04-18T07:41:05Z</time></trkpt><trkpt lat="45.03119386230357" lon="8.469002304421052"><ele>141.0</ele><time>2026-04-18T07:41:06Z</time></trkpt><trkpt lat="45.031122158477416" lon="8.4689350591326"><ele>141.0</ele><time>2026-04-18T07:41:07Z</time></trkpt><trkpt lat="45.031045730358365" lon="8.468858654259396"><ele>141.0</ele><time>2026-04-18T07:41:08Z</time></trkpt><trkpt lat="45.0309726786064" lon="8.46878361363016"><ele>141.0</ele><time>2026-04-18T07:41:09Z</time></trkpt><trkpt lat="45.0309016336744" lon="8.468706974275735"><ele>141.0</ele><time>2026-04-18T07:41:10Z</time></trkpt><trkpt lat="45.03083877774506" lon="8.46864520023043"><ele>141.0</ele><time>2026-04-18T07:41:11Z</time></trkpt><trkpt lat="45.03073726808484" lon="8.468551100754613"><ele>142.16666666666666</ele><time>2026-04-18T07:41:13Z</time></trkpt><trkpt lat="45.030654796840075" lon="8.468480817720787"><ele>143.33333333333334</ele><time>2026-04-18T07:41:15Z</time></trkpt><trkpt lat="45.03058556333014" lon="8.468457945394887"><ele>144.5</ele><time>2026-04-18T07:41:34Z</time></trkpt><trkpt lat="45.03050162901474" lon="8.468485298221397"><ele>145.66666666666669</ele><time>2026-04-18T07:41:39Z</time></trkpt><trkpt lat="45.03044154608677" lon="8.468537047545263"><ele>146.83333333333334</ele><time>2026-04-18T07:41:41Z</time></trkpt><trkpt lat="45.030383411749135" lon="8.468600894503096"><ele>148.0</ele><time>2026-04-18T07:41:43.999Z</time></trkpt><trkpt lat="45.030307111823504" lon="8.468684692112108"><ele>148.0</ele><time>2026-04-18T07:41:47Z</time></trkpt><trkpt lat="45.03025456804456" lon="8.468742955498803"><ele>148.0</ele><time>2026-04-18T07:41:49Z</time></trkpt><trkpt lat="45.03019622001304" lon="8.468811620473751"><ele>148.0</ele><time>2026-04-18T07:41:51Z</time></trkpt><trkpt lat="45.03012530690034" lon="8.468895072250056"><ele>148.0</ele><time>2026-04-18T07:41:53Z</time></trkpt><trkpt lat="45.0300643106795" lon="8.468964456515732"><ele>148.0</ele><time>2026-04-18T07:41:55Z</time></trkpt><trkpt lat="45.03000877034932" lon="8.469024882004527"><ele>148.0</ele><time>2026-04-18T07:41:57Z</time></trkpt><trkpt lat="45.029883443843936" lon="8.469161232070142"><ele>147.5</ele><time>2026-04-18T07:42:14.999Z</time></trkpt><trkpt lat="45.02981450306" lon="8.469228517832004"><ele>147.0</ele><time>2026-04-18T07:42:16.999Z</time></trkpt><trkpt lat="45.02983050951747" lon="8.469397394700042"><ele>146.5</ele><time>2026-04-18T07:42:32.999Z</time></trkpt><trkpt lat="45.02997566355175" lon="8.469203693080992"><ele>146.0</ele><time>2026-04-18T07:42:33.999Z</time></trkpt><trkpt lat="45.030093946326645" lon="8.469104670908605"><ele>146.0</ele><time>2026-04-18T07:42:35.999Z</time></trkpt><trkpt lat="45.03014722664305" lon="8.469033362246666"><ele>146.0</ele><time>2026-04-18T07:42:36.999Z</time></trkpt><trkpt lat="45.030219745865985" lon="8.468930771234907"><ele>146.0</ele><time>2026-04-18T07:42:38.999Z</time></trkpt><trkpt lat="45.03027319118892" lon="8.46886097900669"><ele>146.0</ele><time>2026-04-18T07:42:40.998Z</time></trkpt><trkpt lat="45.030335679407315" lon="8.46878820847717"><ele>146.0</ele><time>2026-04-18T07:42:48.998Z</time></trkpt><trkpt lat="45.03038852361295" lon="8.46867295345617"><ele>146.0</ele><time>2026-04-18T07:42:50.998Z</time></trkpt><trkpt lat="45.030477594339125" lon="8.468569071516443"><ele>146.4</ele><time>2026-04-18T07:42:52.998Z</time></trkpt><trkpt lat="45.03054286334344" lon="8.468465408154287"><ele>146.8</ele><time>2026-04-18T07:42:54.998Z</time></trkpt><trkpt lat="45.030654873443645" lon="8.468495991413857"><ele>147.20000000000002</ele><time>2026-04-18T07:42:58.998Z</time></trkpt><trkpt lat="45.030723837764334" lon="8.468562248696973"><ele>147.6</ele><time>2026-04-18T07:43:00.998Z</time></trkpt><trkpt lat="45.030785264753774" lon="8.468623310833449"><ele>148.0</ele><time>2026-04-18T07:43:01.998Z</time></trkpt><trkpt lat="45.03084908668551" lon="8.468689517200259"><ele>147.0</ele><time>2026-04-18T07:43:02.998Z</time></trkpt><trkpt lat="45.03092610568131" lon="8.468749386371453"><ele>146.0</ele><time>2026-04-18T07:43:03.998Z</time></trkpt><trkpt lat="45.03098752262623" lon="8.468829710353894"><ele>145.0</ele><time>2026-04-18T07:43:04.998Z</time></trkpt><trkpt lat="45.03105657506938" lon="8.46887614193542"><ele>144.0</ele><time>2026-04-18T07:43:05.998Z</time></trkpt><trkpt lat="45.03111780173995" lon="8.468942261110824"><ele>143.0</ele><time>2026-04-18T07:43:06.998Z</time></trkpt><trkpt lat="45.031182623439186" lon="8.468997851104156"><ele>142.0</ele><time>2026-04-18T07:43:07.998Z</time></trkpt><trkpt lat="45.03124353964907" lon="8.469055050011711"><ele>141.79999999999998</ele><time>2026-04-18T07:43:08.998Z</time></trkpt><trkpt lat="45.03130644424231" lon="8.469115581679114"><ele>141.6</ele><time>2026-04-18T07:43:09.998Z</time></trkpt><trkpt lat="45.03139084046102" lon="8.469239424412422"><ele>141.39999999999998</ele><time>2026-04-18T07:43:11.998Z</time></trkpt><trkpt lat="45.031402730273584" lon="8.469400920700592"><ele>141.2</ele><time>2026-04-18T07:43:13.998Z</time></trkpt><trkpt lat="45.03138628131183" lon="8.46949772719931"><ele>141.0</ele><time>2026-04-18T07:43:14.998Z</time></trkpt><trkpt lat="45.03137161420786" lon="8.469592392329119"><ele>140.83333333333334</ele><time>2026-04-18T07:43:15.998Z</time></trkpt><trkpt lat="45.03135279042969" lon="8.469755992821554"><ele>140.66666666666666</ele><time>2026-04-18T07:43:17.998Z</time></trkpt><trkpt lat="45.031378613324996" lon="8.46987802103885"><ele>140.5</ele><time>2026-04-18T07:43:19.998Z</time></trkpt><trkpt lat="45.031432849620096" lon="8.469816161262115"><ele>140.33333333333331</ele><time>2026-04-18T07:43:29.998Z</time></trkpt><trkpt lat="45.031503297412286" lon="8.469839287820687"><ele>140.16666666666666</ele><time>2026-04-18T07:43:32.998Z</time></trkpt><trkpt lat="45.03159928538506" lon="8.469869862489235"><ele>140.0</ele><time>2026-04-18T07:43:34.998Z</time></trkpt><trkpt lat="45.03168228974827" lon="8.469896301564884"><ele>139.0</ele><time>2026-04-18T07:43:36.998Z</time></trkpt><trkpt lat="45.03176018678321" lon="8.469921114028873"><ele>138.0</ele><time>2026-04-18T07:43:38.998Z</time></trkpt><trkpt lat="45.03183809195648" lon="8.469945929084435"><ele>137.0</ele><time>2026-04-18T07:43:40.998Z</time></trkpt><trkpt lat="45.031876095541136" lon="8.470404298859828"><ele>136.16666666666666</ele><time>2026-04-18T07:43:42.998Z</time></trkpt><trkpt lat="45.031930070987926" lon="8.470468671376718"><ele>135.33333333333331</ele><time>2026-04-18T07:43:43.998Z</time></trkpt><trkpt lat="45.031995249442616" lon="8.470536853181025"><ele>134.5</ele><time>2026-04-18T07:43:44.998Z</time></trkpt><trkpt lat="45.032063108409275" lon="8.470604757636767"><ele>133.66666666666666</ele><time>2026-04-18T07:43:45.998Z</time></trkpt><trkpt lat="45.03214336747116" lon="8.470663803427334"><ele>132.83333333333334</ele><time>2026-04-18T07:43:46.998Z</time></trkpt><trkpt lat="45.03222445679308" lon="8.470721053124638"><ele>132.0</ele><time>2026-04-18T07:43:47.998Z</time></trkpt><trkpt lat="45.03230686233705" lon="8.470779735068572"><ele>132.0</ele><time>2026-04-18T07:43:48.998Z</time></trkpt><trkpt lat="45.032376082444486" lon="8.470833137957793"><ele>132.0</ele><time>2026-04-18T07:43:49.998Z</time></trkpt><trkpt lat="45.03244631769938" lon="8.470886224857988"><ele>132.0</ele><time>2026-04-18T07:43:50.998Z</time></trkpt><trkpt lat="45.032516587435104" lon="8.470932353491694"><ele>132.0</ele><time>2026-04-18T07:43:51.998Z</time></trkpt><trkpt lat="45.03258115875135" lon="8.470982246309552"><ele>132.0</ele><time>2026-04-18T07:43:52.999Z</time></trkpt><trkpt lat="45.03264754466681" lon="8.471024362291695"><ele>132.0</ele><time>2026-04-18T07:43:53.999Z</time></trkpt><trkpt lat="45.03271012932357" lon="8.471068247291903"><ele>132.0</ele><time>2026-04-18T07:43:54.999Z</time></trkpt><trkpt lat="45.03277491649199" lon="8.471120448045479"><ele>132.0</ele><time>2026-04-18T07:43:55.999Z</time></trkpt><trkpt lat="45.032841290790415" lon="8.471163066020663"><ele>132.0</ele><time>2026-04-18T07:43:56.999Z</time></trkpt><trkpt lat="45.032908553592684" lon="8.4712147189099"><ele>132.0</ele><time>2026-04-18T07:43:57.999Z</time></trkpt><trkpt lat="45.03297611396408" lon="8.471267126990888"><ele>132.0</ele><time>2026-04-18T07:43:58.999Z</time></trkpt><trkpt lat="45.033036448158576" lon="8.471317137953198"><ele>132.0</ele><time>2026-04-18T07:43:59.999Z</time></trkpt><trkpt lat="45.03313158577723" lon="8.471403379612081"><ele>131.4</ele><time>2026-04-18T07:44:01.999Z</time></trkpt><trkpt lat="45.03318550628066" lon="8.471463424463868"><ele>130.79999999999998</ele><time>2026-04-18T07:44:03.999Z</time></trkpt><trkpt lat="45.03321494182829" lon="8.471569359862375"><ele>130.2</ele><time>2026-04-18T07:44:11Z</time></trkpt><trkpt lat="45.0331932251807" lon="8.471653741889687"><ele>129.6</ele><time>2026-04-18T07:44:12Z</time></trkpt><trkpt lat="45.03317588593239" lon="8.47181892926655"><ele>129.0</ele><time>2026-04-18T07:44:14Z</time></trkpt><trkpt lat="45.03315800472225" lon="8.471988294853315"><ele>129.0</ele><time>2026-04-18T07:44:16Z</time></trkpt><trkpt lat="45.03315272636957" lon="8.47210310908903"><ele>129.0</ele><time>2026-04-18T07:44:18Z</time></trkpt><trkpt lat="45.03313804928868" lon="8.472193107448"><ele>129.0</ele><time>2026-04-18T07:44:38Z</time></trkpt><trkpt lat="45.033150885645604" lon="8.472092485595658"><ele>129.0</ele><time>2026-04-18T07:44:59Z</time></trkpt><trkpt lat="45.03315976639315" lon="8.471930651527588"><ele>129.0</ele><time>2026-04-18T07:45:01Z</time></trkpt><trkpt lat="45.03317033950472" lon="8.471835819435167"><ele>129.0</ele><time>2026-04-18T07:45:02Z</time></trkpt><trkpt lat="45.033190595612886" lon="8.47167326113992"><ele>129.0</ele><time>2026-04-18T07:45:04Z</time></trkpt><trkpt lat="45.03320540419424" lon="8.471552488094902"><ele>129.0</ele><time>2026-04-18T07:45:06Z</time></trkpt><trkpt lat="45.03319669397715" lon="8.471463272590537"><ele>129.0</ele><time>2026-04-18T07:45:08Z</time></trkpt><trkpt lat="45.03312503018345" lon="8.471395407141912"><ele>129.0</ele><time>2026-04-18T07:45:10Z</time></trkpt><trkpt lat="45.03306362242006" lon="8.471338843134662"><ele>129.0</ele><time>2026-04-18T07:45:11Z</time></trkpt><trkpt lat="45.03299356958654" lon="8.471273289553142"><ele>129.0</ele><time>2026-04-18T07:45:12Z</time></trkpt><trkpt lat="45.03293541221447" lon="8.471221025466024"><ele>129.6</ele><time>2026-04-18T07:45:13Z</time></trkpt><trkpt lat="45.03285639306729" lon="8.471159316490123"><ele>130.2</ele><time>2026-04-18T07:45:14Z</time></trkpt><trkpt lat="45.032777388532686" lon="8.471105426499815"><ele>130.79999999999998</ele><time>2026-04-18T07:45:15Z</time></trkpt><trkpt lat="45.03269078754441" lon="8.471045344287488"><ele>131.4</ele><time>2026-04-18T07:45:16Z</time></trkpt><trkpt lat="45.032607247961415" lon="8.47098350608893"><ele>132.0</ele><time>2026-04-18T07:45:17Z</time></trkpt><trkpt lat="45.03253566665816" lon="8.470929225498418"><ele>132.0</ele><time>2026-04-18T07:45:18Z</time></trkpt><trkpt lat="45.032461318716415" lon="8.470876348726698"><ele>132.0</ele><time>2026-04-18T07:45:19Z</time></trkpt><trkpt lat="45.03238088450692" lon="8.470818991046555"><ele>132.0</ele><time>2026-04-18T07:45:20Z</time></trkpt><trkpt lat="45.032305579274606" lon="8.47076610454907"><ele>132.0</ele><time>2026-04-18T07:45:21Z</time></trkpt><trkpt lat="45.032231257168036" lon="8.470713866022733"><ele>132.0</ele><time>2026-04-18T07:45:22Z</time></trkpt><trkpt lat="45.032158230077926" lon="8.470654905735314"><ele>132.0</ele><time>2026-04-18T07:45:23Z</time></trkpt><trkpt lat="45.032083462396" lon="8.470598546486485"><ele>132.0</ele><time>2026-04-18T07:45:24Z</time></trkpt><trkpt lat="45.0320114853724" lon="8.470546061126209"><ele>132.0</ele><time>2026-04-18T07:45:25Z</time></trkpt><trkpt lat="45.031935133126794" lon="8.47048835661723"><ele>132.0</ele><time>2026-04-18T07:45:26Z</time></trkpt><trkpt lat="45.031875429952194" lon="8.470433478398402"><ele>132.0</ele><time>2026-04-18T07:45:27Z</time></trkpt><trkpt lat="45.03182168041016" lon="8.470374553736722"><ele>132.0</ele><time>2026-04-18T07:45:28Z</time></trkpt><trkpt lat="45.031738099455055" lon="8.470260124484357"><ele>132.0</ele><time>2026-04-18T07:45:30Z</time></trkpt><trkpt lat="45.031681107470305" lon="8.470221058578257"><ele>133.33333333333334</ele><time>2026-04-18T07:45:31Z</time></trkpt><trkpt lat="45.03160901904579" lon="8.470205863601182"><ele>134.66666666666666</ele><time>2026-04-18T07:45:32Z</time></trkpt><trkpt lat="45.03153443450155" lon="8.470178978836168"><ele>136.0</ele><time>2026-04-18T07:45:33Z</time></trkpt><trkpt lat="45.0314637675048" lon="8.47012226073865"><ele>137.33333333333331</ele><time>2026-04-18T07:45:34Z</time></trkpt><trkpt lat="45.03141313879638" lon="8.470063606158392"><ele>138.66666666666666</ele><time>2026-04-18T07:45:35Z</time></trkpt><trkpt lat="45.031357638539234" lon="8.469960647203466"><ele>140.0</ele><time>2026-04-18T07:45:37Z</time></trkpt><trkpt lat="45.03135274494876" lon="8.469800787168904"><ele>140.0</ele><time>2026-04-18T07:45:39Z</time></trkpt><trkpt lat="45.03136176650618" lon="8.469705229914183"><ele>140.0</ele><time>2026-04-18T07:45:40Z</time></trkpt><trkpt lat="45.03137339075409" lon="8.469611042325957"><ele>140.0</ele><time>2026-04-18T07:45:41Z</time></trkpt><trkpt lat="45.03138974480507" lon="8.469524214823618"><ele>140.0</ele><time>2026-04-18T07:45:42Z</time></trkpt><trkpt lat="45.03142220132314" lon="8.469371106187001"><ele>140.0</ele><time>2026-04-18T07:45:44Z</time></trkpt><trkpt lat="45.03143027600898" lon="8.46924470843366"><ele>140.0</ele><time>2026-04-18T07:45:46Z</time></trkpt><trkpt lat="45.03134576568945" lon="8.469115866465874"><ele>140.16666666666666</ele><time>2026-04-18T07:45:48Z</time></trkpt><trkpt lat="45.03124773169063" lon="8.469050390670192"><ele>140.33333333333331</ele><time>2026-04-18T07:45:50Z</time></trkpt><trkpt lat="45.0311563523206" lon="8.46893456486304"><ele>140.5</ele><time>2026-04-18T07:45:52Z</time></trkpt><trkpt lat="45.03109173144504" lon="8.468897491992388"><ele>140.66666666666666</ele><time>2026-04-18T07:45:53Z</time></trkpt><trkpt lat="45.03103560325733" lon="8.468845474121176"><ele>140.83333333333334</ele><time>2026-04-18T07:45:54Z</time></trkpt><trkpt lat="45.03099132718375" lon="8.468776681811478"><ele>141.0</ele><time>2026-04-18T07:45:55Z</time></trkpt><trkpt lat="45.03093515292197" lon="8.46872318922933"><ele>141.16666666666666</ele><time>2026-04-18T07:45:56Z</time></trkpt><trkpt lat="45.030880222001606" lon="8.468670880647824"><ele>141.33333333333334</ele><time>2026-04-18T07:45:57Z</time></trkpt><trkpt lat="45.030812831157064" lon="8.468635007771418"><ele>141.5</ele><time>2026-04-18T07:45:58Z</time></trkpt><trkpt lat="45.03076025468422" lon="8.468579354866135"><ele>141.66666666666669</ele><time>2026-04-18T07:45:59Z</time></trkpt><trkpt lat="45.03069236963275" lon="8.4684947033224"><ele>141.83333333333334</ele><time>2026-04-18T07:46:01Z</time></trkpt><trkpt lat="45.03062695429759" lon="8.4684335542213"><ele>142.0</ele><time>2026-04-18T07:46:03Z</time></trkpt><trkpt lat="45.030549578302086" lon="8.468361224493083"><ele>143.2</ele><time>2026-04-18T07:46:05Z</time></trkpt><trkpt lat="45.03041342401117" lon="8.468326334121576"><ele>144.39999999999998</ele><time>2026-04-18T07:46:07Z</time></trkpt><trkpt lat="45.03031219334152" lon="8.468207687374708"><ele>145.60000000000002</ele><time>2026-04-18T07:46:09Z</time></trkpt><trkpt lat="45.030259845167755" lon="8.468127778670382"><ele>146.8</ele><time>2026-04-18T07:46:10Z</time></trkpt><trkpt lat="45.030206003328054" lon="8.468042782879962"><ele>148.0</ele><time>2026-04-18T07:46:11Z</time></trkpt><trkpt lat="45.03015210290296" lon="8.467952198563891"><ele>148.16666666666669</ele><time>2026-04-18T07:46:12Z</time></trkpt><trkpt lat="45.030094523748026" lon="8.467855431853486"><ele>148.33333333333334</ele><time>2026-04-18T07:46:13Z</time></trkpt><trkpt lat="45.03003565970996" lon="8.46776460097747"><ele>148.5</ele><time>2026-04-18T07:46:14Z</time></trkpt><trkpt lat="45.029985923117174" lon="8.467692808890783"><ele>148.66666666666666</ele><time>2026-04-18T07:46:15Z</time></trkpt><trkpt lat="45.02993499491634" lon="8.467619646349306"><ele>148.83333333333331</ele><time>2026-04-18T07:46:16Z</time></trkpt><trkpt lat="45.02987995120166" lon="8.467543402453241"><ele>149.0</ele><time>2026-04-18T07:46:17Z</time></trkpt><trkpt lat="45.02981586875201" lon="8.467481593666628"><ele>149.66666666666666</ele><time>2026-04-18T07:46:18Z</time></trkpt><trkpt lat="45.02977191316529" lon="8.46739162679654"><ele>150.33333333333331</ele><time>2026-04-18T07:46:19Z</time></trkpt><trkpt lat="45.02971793556003" lon="8.467315797174345"><ele>151.0</ele><time>2026-04-18T07:46:20Z</time></trkpt><trkpt lat="45.02965526466778" lon="8.467231442175887"><ele>151.66666666666666</ele><time>2026-04-18T07:46:21Z</time></trkpt><trkpt lat="45.029593520366966" lon="8.46715086197388"><ele>152.33333333333334</ele><time>2026-04-18T07:46:22Z</time></trkpt><trkpt lat="45.02953126724946" lon="8.467071599466582"><ele>153.0</ele><time>2026-04-18T07:46:23Z</time></trkpt><trkpt lat="45.029472503133704" lon="8.466996779286362"><ele>153.16666666666666</ele><time>2026-04-18T07:46:24Z</time></trkpt><trkpt lat="45.029417154022696" lon="8.466926307057193"><ele>153.33333333333334</ele><time>2026-04-18T07:46:25Z</time></trkpt><trkpt lat="45.02936476193857" lon="8.466856522628003"><ele>153.5</ele><time>2026-04-18T07:46:26Z</time></trkpt><trkpt lat="45.02931192222079" lon="8.466781937413536"><ele>153.66666666666669</ele><time>2026-04-18T07:46:27Z</time></trkpt><trkpt lat="45.0292600714556" lon="8.466702465002182"><ele>153.83333333333334</ele><time>2026-04-18T07:46:28Z</time></trkpt><trkpt lat="45.02920704163331" lon="8.46661993793589"><ele>154.0</ele><time>2026-04-18T07:46:29Z</time></trkpt><trkpt lat="45.029153368521925" lon="8.46653921545756"><ele>154.16666666666669</ele><time>2026-04-18T07:46:30Z</time></trkpt><trkpt lat="45.02909541906178" lon="8.46645636037143"><ele>154.33333333333334</ele><time>2026-04-18T07:46:31Z</time></trkpt><trkpt lat="45.02903863201746" lon="8.466378620453787"><ele>154.5</ele><time>2026-04-18T07:46:32Z</time></trkpt><trkpt lat="45.02897943872651" lon="8.466297586457987"><ele>154.66666666666666</ele><time>2026-04-18T07:46:33Z</time></trkpt><trkpt lat="45.02890928494328" lon="8.466235659759432"><ele>154.83333333333331</ele><time>2026-04-18T07:46:34Z</time></trkpt><trkpt lat="45.0288499628066" lon="8.466145271395094"><ele>155.0</ele><time>2026-04-18T07:46:35Z</time></trkpt><trkpt lat="45.02878249159681" lon="8.466060369473565"><ele>155.5</ele><time>2026-04-18T07:46:36Z</time></trkpt><trkpt lat="45.02871642808602" lon="8.465977324102184"><ele>156.0</ele><time>2026-04-18T07:46:37Z</time></trkpt><trkpt lat="45.028648888381966" lon="8.46589851627894"><ele>156.5</ele><time>2026-04-18T07:46:38Z</time></trkpt><trkpt lat="45.02858787056413" lon="8.465824066964357"><ele>157.0</ele><time>2026-04-18T07:46:39Z</time></trkpt><trkpt lat="45.02852630461575" lon="8.465751216517244"><ele>157.5</ele><time>2026-04-18T07:46:40Z</time></trkpt><trkpt lat="45.02846684479752" lon="8.465683288394299"><ele>158.0</ele><time>2026-04-18T07:46:41Z</time></trkpt><trkpt lat="45.02840738913835" lon="8.46561691345645"><ele>158.0</ele><time>2026-04-18T07:46:42Z</time></trkpt><trkpt lat="45.028353367120275" lon="8.465560763529716"><ele>158.0</ele><time>2026-04-18T07:46:43Z</time></trkpt><trkpt lat="45.02829515916157" lon="8.465501768322772"><ele>158.0</ele><time>2026-04-18T07:46:44Z</time></trkpt><trkpt lat="45.028240034257266" lon="8.465443958752124"><ele>158.0</ele><time>2026-04-18T07:46:45Z</time></trkpt><trkpt lat="45.02814245656726" lon="8.465357989816606"><ele>158.0</ele><time>2026-04-18T07:46:47Z</time></trkpt><trkpt lat="45.028066983432694" lon="8.46537873272814"><ele>158.0</ele><time>2026-04-18T07:46:48Z</time></trkpt><trkpt lat="45.0280032091173" lon="8.465445482014447"><ele>157.83333333333331</ele><time>2026-04-18T07:46:49Z</time></trkpt><trkpt lat="45.02793534444955" lon="8.465495397085823"><ele>157.66666666666666</ele><time>2026-04-18T07:46:50Z</time></trkpt><trkpt lat="45.027859268504535" lon="8.465490906157664"><ele>157.5</ele><time>2026-04-18T07:46:51Z</time></trkpt><trkpt lat="45.027776745637794" lon="8.465464380504127"><ele>157.33333333333334</ele><time>2026-04-18T07:46:52Z</time></trkpt><trkpt lat="45.02768395402198" lon="8.465449299917388"><ele>157.16666666666669</ele><time>2026-04-18T07:46:53Z</time></trkpt><trkpt lat="45.027587765154195" lon="8.465438247111138"><ele>157.0</ele><time>2026-04-18T07:46:54Z</time></trkpt><trkpt lat="45.02748644064815" lon="8.465427267073173"><ele>157.0</ele><time>2026-04-18T07:46:55Z</time></trkpt><trkpt lat="45.02738108107522" lon="8.465411767748504"><ele>157.0</ele><time>2026-04-18T07:46:56Z</time></trkpt><trkpt lat="45.02728310227434" lon="8.465396211857803"><ele>157.0</ele><time>2026-04-18T07:46:57Z</time></trkpt><trkpt lat="45.02719048921529" lon="8.465377334077312"><ele>157.0</ele><time>2026-04-18T07:46:58Z</time></trkpt><trkpt lat="45.027093270407576" lon="8.465356878546839"><ele>157.0</ele><time>2026-04-18T07:46:59Z</time></trkpt><trkpt lat="45.02700062925013" lon="8.465335289131549"><ele>157.0</ele><time>2026-04-18T07:47:00Z</time></trkpt><trkpt lat="45.02691069151643" lon="8.465312792691636"><ele>157.0</ele><time>2026-04-18T07:47:01Z</time></trkpt><trkpt lat="45.026818018183036" lon="8.465287861890545"><ele>157.0</ele><time>2026-04-18T07:47:02Z</time></trkpt><trkpt lat="45.02672381028836" lon="8.46528447874557"><ele>157.0</ele><time>2026-04-18T07:47:03Z</time></trkpt><trkpt lat="45.02664057994705" lon="8.46523949735458"><ele>157.0</ele><time>2026-04-18T07:47:04Z</time></trkpt><trkpt lat="45.02655315643099" lon="8.465231120942006"><ele>155.6</ele><time>2026-04-18T07:47:05Z</time></trkpt><trkpt lat="45.02646456274268" lon="8.465179814572108"><ele>154.2</ele><time>2026-04-18T07:47:06Z</time></trkpt><trkpt lat="45.026369302639715" lon="8.465127904756214"><ele>152.8</ele><time>2026-04-18T07:47:07Z</time></trkpt><trkpt lat="45.02627436320013" lon="8.465061851274795"><ele>151.4</ele><time>2026-04-18T07:47:08Z</time></trkpt><trkpt lat="45.026187956214514" lon="8.465000228684877"><ele>150.0</ele><time>2026-04-18T07:47:09Z</time></trkpt><trkpt lat="45.026112425773455" lon="8.464938214338106"><ele>150.0</ele><time>2026-04-18T07:47:10Z</time></trkpt><trkpt lat="45.02602596209661" lon="8.464867058851834"><ele>150.0</ele><time>2026-04-18T07:47:11Z</time></trkpt><trkpt lat="45.02594154946468" lon="8.464799450747726"><ele>150.0</ele><time>2026-04-18T07:47:12Z</time></trkpt><trkpt lat="45.025863817793244" lon="8.464743775140764"><ele>150.0</ele><time>2026-04-18T07:47:13Z</time></trkpt><trkpt lat="45.02578829390076" lon="8.464703541994384"><ele>150.0</ele><time>2026-04-18T07:47:14Z</time></trkpt><trkpt lat="45.02570312446409" lon="8.464711717275847"><ele>150.8</ele><time>2026-04-18T07:47:15Z</time></trkpt><trkpt lat="45.02562987453644" lon="8.46470395280413"><ele>151.6</ele><time>2026-04-18T07:47:16Z</time></trkpt><trkpt lat="45.025561417306534" lon="8.464711458906283"><ele>152.4</ele><time>2026-04-18T07:47:17Z</time></trkpt><trkpt lat="45.02548005257282" lon="8.464693525176846"><ele>153.2</ele><time>2026-04-18T07:47:19Z</time></trkpt><trkpt lat="45.02539284363581" lon="8.464697525177773"><ele>154.0</ele><time>2026-04-18T07:48:09Z</time></trkpt><trkpt lat="45.02531969757355" lon="8.464868932140702"><ele>154.0</ele><time>2026-04-18T07:48:12Z</time></trkpt><trkpt lat="45.025314979600616" lon="8.464973133041115"><ele>154.0</ele><time>2026-04-18T07:48:14Z</time></trkpt><trkpt lat="45.02530561672482" lon="8.465085668678666"><ele>154.0</ele><time>2026-04-18T07:48:17Z</time></trkpt><trkpt lat="45.02531183941938" lon="8.465198359502079"><ele>154.0</ele><time>2026-04-18T07:48:26Z</time></trkpt><trkpt lat="45.025321673197524" lon="8.465381020056782"><ele>154.0</ele><time>2026-04-18T07:48:28Z</time></trkpt><trkpt lat="45.02532888569046" lon="8.465499011923665"><ele>154.0</ele><time>2026-04-18T07:48:29Z</time></trkpt><trkpt lat="45.025334003941765" lon="8.465630295756977"><ele>154.0</ele><time>2026-04-18T07:48:30Z</time></trkpt><trkpt lat="45.02534091574596" lon="8.465758343221237"><ele>154.0</ele><time>2026-04-18T07:48:31Z</time></trkpt><trkpt lat="45.02535068843734" lon="8.465884254417055"><ele>154.0</ele><time>2026-04-18T07:48:32Z</time></trkpt><trkpt lat="45.02536594820953" lon="8.466006543927536"><ele>154.0</ele><time>2026-04-18T07:48:33Z</time></trkpt><trkpt lat="45.025373512655804" lon="8.46614383555176"><ele>154.0</ele><time>2026-04-18T07:48:34Z</time></trkpt><trkpt lat="45.02539897271671" lon="8.466280982943305"><ele>153.4</ele><time>2026-04-18T07:48:35Z</time></trkpt><trkpt lat="45.02543964222978" lon="8.466417209543494"><ele>152.8</ele><time>2026-04-18T07:48:36Z</time></trkpt><trkpt lat="45.02545230361349" lon="8.466565353919506"><ele>152.2</ele><time>2026-04-18T07:48:37Z</time></trkpt><trkpt lat="45.02547658901323" lon="8.466694848483275"><ele>151.6</ele><time>2026-04-18T07:48:38Z</time></trkpt><trkpt lat="45.02549998624729" lon="8.466819607167503"><ele>151.0</ele><time>2026-04-18T07:48:39Z</time></trkpt><trkpt lat="45.025522598051836" lon="8.466940177833015"><ele>151.0</ele><time>2026-04-18T07:48:40Z</time></trkpt><trkpt lat="45.025544973980935" lon="8.467059490841267"><ele>151.0</ele><time>2026-04-18T07:48:41Z</time></trkpt><trkpt lat="45.02556311418842" lon="8.467174581611387"><ele>151.0</ele><time>2026-04-18T07:48:42Z</time></trkpt><trkpt lat="45.02558720708082" lon="8.467284926945005"><ele>151.0</ele><time>2026-04-18T07:48:43Z</time></trkpt><trkpt lat="45.02559717736337" lon="8.467401113519633"><ele>151.0</ele><time>2026-04-18T07:48:44Z</time></trkpt><trkpt lat="45.02558575356757" lon="8.467518425962147"><ele>151.0</ele><time>2026-04-18T07:48:45Z</time></trkpt><trkpt lat="45.025582242542086" lon="8.467638000374414"><ele>151.0</ele><time>2026-04-18T07:48:46Z</time></trkpt><trkpt lat="45.02559011804764" lon="8.467752156476655"><ele>151.0</ele><time>2026-04-18T07:48:47Z</time></trkpt><trkpt lat="45.025593306950384" lon="8.467857042380249"><ele>151.0</ele><time>2026-04-18T07:48:48Z</time></trkpt><trkpt lat="45.02560712038211" lon="8.46798960402773"><ele>151.0</ele><time>2026-04-18T07:48:50Z</time></trkpt><trkpt lat="45.025610293445084" lon="8.468090062040265"><ele>151.0</ele><time>2026-04-18T07:48:53Z</time></trkpt><trkpt lat="45.02563916470937" lon="8.468239527831551"><ele>151.0</ele><time>2026-04-18T07:48:56Z</time></trkpt><trkpt lat="45.02567634481096" lon="8.468392489466133"><ele>151.0</ele><time>2026-04-18T07:48:58Z</time></trkpt><trkpt lat="45.02572740739064" lon="8.468491727752857"><ele>151.0</ele><time>2026-04-18T07:49:00Z</time></trkpt><trkpt lat="45.02575242455296" lon="8.468628360640974"><ele>151.0</ele><time>2026-04-18T07:49:02Z</time></trkpt><trkpt lat="45.02577375116881" lon="8.468714413352433"><ele>151.0</ele><time>2026-04-18T07:49:03Z</time></trkpt><trkpt lat="45.025777000371114" lon="8.468875221528142"><ele>151.0</ele><time>2026-04-18T07:49:05Z</time></trkpt><trkpt lat="45.025755824188195" lon="8.469015953985364"><ele>151.0</ele><time>2026-04-18T07:49:07Z</time></trkpt><trkpt lat="45.02569741429185" lon="8.469119041667348"><ele>151.0</ele><time>2026-04-18T07:49:09Z</time></trkpt><trkpt lat="45.02563065561113" lon="8.469237209759712"><ele>151.0</ele><time>2026-04-18T07:49:11Z</time></trkpt><trkpt lat="45.025566551799386" lon="8.469325732774049"><ele>151.0</ele><time>2026-04-18T07:49:13Z</time></trkpt><trkpt lat="45.025487703020865" lon="8.469384405139841"><ele>151.0</ele><time>2026-04-18T07:49:15Z</time></trkpt><trkpt lat="45.02538232344768" lon="8.469445738444726"><ele>151.0</ele><time>2026-04-18T07:49:17Z</time></trkpt><trkpt lat="45.025360648104474" lon="8.469539725025006"><ele>151.0</ele><time>2026-04-18T07:49:18Z</time></trkpt><trkpt lat="45.02530811481882" lon="8.469646756949707"><ele>151.0</ele><time>2026-04-18T07:49:20Z</time></trkpt><trkpt lat="45.0252636569228" lon="8.46974337255198"><ele>151.0</ele><time>2026-04-18T07:49:23Z</time></trkpt><trkpt lat="45.02521801334858" lon="8.469807899034269"><ele>151.0</ele><time>2026-04-18T07:49:27Z</time></trkpt><trkpt lat="45.02516797309488" lon="8.46991530104963"><ele>151.0</ele><time>2026-04-18T07:49:40Z</time></trkpt><trkpt lat="45.02511580077904" lon="8.47003111487736"><ele>150.2</ele><time>2026-04-18T07:49:42Z</time></trkpt><trkpt lat="45.02507449980719" lon="8.470171526996472"><ele>149.39999999999998</ele><time>2026-04-18T07:49:44Z</time></trkpt><trkpt lat="45.025015296362746" lon="8.470308591792438"><ele>148.6</ele><time>2026-04-18T07:49:46Z</time></trkpt><trkpt lat="45.02497136519402" lon="8.470418964002352"><ele>147.79999999999998</ele><time>2026-04-18T07:49:48Z</time></trkpt><trkpt lat="45.02494619767868" lon="8.470525703304162"><ele>147.0</ele><time>2026-04-18T07:49:51Z</time></trkpt><trkpt lat="45.02490265603997" lon="8.470645058053071"><ele>145.83333333333334</ele><time>2026-04-18T07:50:11Z</time></trkpt><trkpt lat="45.02483344667719" lon="8.470792313406148"><ele>144.66666666666666</ele><time>2026-04-18T07:50:13Z</time></trkpt><trkpt lat="45.02479716197157" lon="8.470881803322689"><ele>143.5</ele><time>2026-04-18T07:50:14Z</time></trkpt><trkpt lat="45.02474580274294" lon="8.470967704652983"><ele>142.33333333333331</ele><time>2026-04-18T07:50:15Z</time></trkpt><trkpt lat="45.02468827270212" lon="8.471043192399785"><ele>141.16666666666666</ele><time>2026-04-18T07:50:16Z</time></trkpt><trkpt lat="45.02465179031114" lon="8.471144670324001"><ele>140.0</ele><time>2026-04-18T07:50:17Z</time></trkpt><trkpt lat="45.024603797471066" lon="8.471226912423047"><ele>140.5</ele><time>2026-04-18T07:50:18Z</time></trkpt><trkpt lat="45.024549570255985" lon="8.471321759223988"><ele>141.0</ele><time>2026-04-18T07:50:19Z</time></trkpt><trkpt lat="45.02449213053328" lon="8.471409226949103"><ele>141.5</ele><time>2026-04-18T07:50:20Z</time></trkpt><trkpt lat="45.024439670449006" lon="8.471510517851906"><ele>142.0</ele><time>2026-04-18T07:50:21Z</time></trkpt><trkpt lat="45.02437902808198" lon="8.471614084904827"><ele>142.5</ele><time>2026-04-18T07:50:22Z</time></trkpt><trkpt lat="45.024317795464505" lon="8.47171531853741"><ele>143.0</ele><time>2026-04-18T07:50:23Z</time></trkpt><trkpt lat="45.02425100845706" lon="8.47182618182965"><ele>143.0</ele><time>2026-04-18T07:50:24Z</time></trkpt><trkpt lat="45.0241976951421" lon="8.471951675543263"><ele>143.0</ele><time>2026-04-18T07:50:25Z</time></trkpt><trkpt lat="45.02412609110296" lon="8.472048571110925"><ele>143.0</ele><time>2026-04-18T07:50:26Z</time></trkpt><trkpt lat="45.02409599453105" lon="8.472130776961412"><ele>143.0</ele><time>2026-04-18T07:50:27Z</time></trkpt><trkpt lat="45.02409025017274" lon="8.472285194079525"><ele>143.0</ele><time>2026-04-18T07:50:29Z</time></trkpt><trkpt lat="45.024192128735635" lon="8.472364366558867"><ele>143.6</ele><time>2026-04-18T07:50:31Z</time></trkpt><trkpt lat="45.024276042539476" lon="8.47242005182157"><ele>144.20000000000002</ele><time>2026-04-18T07:50:32Z</time></trkpt><trkpt lat="45.02435806015737" lon="8.472501275948172"><ele>144.8</ele><time>2026-04-18T07:50:33Z</time></trkpt><trkpt lat="45.02443442104544" lon="8.472585267669412"><ele>145.4</ele><time>2026-04-18T07:50:34Z</time></trkpt><trkpt lat="45.024501150107575" lon="8.472686624997891"><ele>146.0</ele><time>2026-04-18T07:50:35Z</time></trkpt><trkpt lat="45.024561677256514" lon="8.472773939136182"><ele>146.0</ele><time>2026-04-18T07:50:36Z</time></trkpt><trkpt lat="45.02461911248409" lon="8.472861590585053"><ele>146.0</ele><time>2026-04-18T07:50:37Z</time></trkpt><trkpt lat="45.024672894176" lon="8.472946307911087"><ele>146.0</ele><time>2026-04-18T07:50:38Z</time></trkpt><trkpt lat="45.02472814045414" lon="8.47303310508983"><ele>146.0</ele><time>2026-04-18T07:50:39Z</time></trkpt><trkpt lat="45.02479920816213" lon="8.473114533443255"><ele>146.0</ele><time>2026-04-18T07:50:40Z</time></trkpt><trkpt lat="45.02485062965551" lon="8.473199326015752"><ele>146.0</ele><time>2026-04-18T07:50:41Z</time></trkpt><trkpt lat="45.024914179467004" lon="8.473274502207236"><ele>145.4</ele><time>2026-04-18T07:50:42Z</time></trkpt><trkpt lat="45.024994037168135" lon="8.473344613423933"><ele>144.8</ele><time>2026-04-18T07:50:43Z</time></trkpt><trkpt lat="45.025086433682795" lon="8.473401968338147"><ele>144.20000000000002</ele><time>2026-04-18T07:50:44Z</time></trkpt><trkpt lat="45.025180480674436" lon="8.4734452212645"><ele>143.6</ele><time>2026-04-18T07:50:45Z</time></trkpt><trkpt lat="45.02526840630859" lon="8.473491041684925"><ele>143.0</ele><time>2026-04-18T07:50:46Z</time></trkpt><trkpt lat="45.02534117829569" lon="8.47355978354048"><ele>143.0</ele><time>2026-04-18T07:50:47Z</time></trkpt><trkpt lat="45.0254203145561" lon="8.473603654904029"><ele>143.0</ele><time>2026-04-18T07:50:48Z</time></trkpt><trkpt lat="45.02549917885472" lon="8.473676051377858"><ele>143.0</ele><time>2026-04-18T07:50:49Z</time></trkpt><trkpt lat="45.025570224083346" lon="8.473761628945942"><ele>143.0</ele><time>2026-04-18T07:50:50Z</time></trkpt><trkpt lat="45.0256370671209" lon="8.473875515067904"><ele>143.0</ele><time>2026-04-18T07:50:51Z</time></trkpt><trkpt lat="45.0257068594293" lon="8.473996343806208"><ele>140.75</ele><time>2026-04-18T07:50:52Z</time></trkpt><trkpt lat="45.02578159345882" lon="8.474141378184283"><ele>138.5</ele><time>2026-04-18T07:50:53Z</time></trkpt><trkpt lat="45.02586375551211" lon="8.474297616598808"><ele>136.25</ele><time>2026-04-18T07:50:54Z</time></trkpt><trkpt lat="45.02592884282812" lon="8.474472181124074"><ele>134.0</ele><time>2026-04-18T07:50:55Z</time></trkpt><trkpt lat="45.02601188275561" lon="8.474627422019035"><ele>133.0</ele><time>2026-04-18T07:50:56Z</time></trkpt><trkpt lat="45.026084154348105" lon="8.474801598311302"><ele>132.0</ele><time>2026-04-18T07:50:57Z</time></trkpt><trkpt lat="45.02615488554897" lon="8.47496514730107"><ele>131.0</ele><time>2026-04-18T07:50:58Z</time></trkpt><trkpt lat="45.02621811147268" lon="8.475108039070657"><ele>130.0</ele><time>2026-04-18T07:50:59Z</time></trkpt><trkpt lat="45.02625935889201" lon="8.475249254029363"><ele>130.0</ele><time>2026-04-18T07:51:00Z</time></trkpt><trkpt lat="45.026307366463456" lon="8.475376151917942"><ele>130.0</ele><time>2026-04-18T07:51:01Z</time></trkpt><trkpt lat="45.02635056599181" lon="8.475511430912748"><ele>130.0</ele><time>2026-04-18T07:51:02Z</time></trkpt><trkpt lat="45.026388517048886" lon="8.475663404983322"><ele>130.0</ele><time>2026-04-18T07:51:03Z</time></trkpt><trkpt lat="45.026418118415506" lon="8.475807267880596"><ele>130.0</ele><time>2026-04-18T07:51:04Z</time></trkpt><trkpt lat="45.02645382339408" lon="8.475933916784125"><ele>129.2</ele><time>2026-04-18T07:51:05Z</time></trkpt><trkpt lat="45.02647623043008" lon="8.476038108452748"><ele>128.4</ele><time>2026-04-18T07:51:06Z</time></trkpt><trkpt lat="45.026498216706955" lon="8.476131136170126"><ele>127.6</ele><time>2026-04-18T07:51:07Z</time></trkpt><trkpt lat="45.0265244831974" lon="8.47626335517646"><ele>126.8</ele><time>2026-04-18T07:51:09Z</time></trkpt><trkpt lat="45.02642023822641" lon="8.476283256300272"><ele>126.0</ele><time>2026-04-18T07:51:12Z</time></trkpt><trkpt lat="45.026266430831974" lon="8.47624922138475"><ele>126.0</ele><time>2026-04-18T07:51:14Z</time></trkpt><trkpt lat="45.02617610068905" lon="8.476217687636492"><ele>126.0</ele><time>2026-04-18T07:51:15Z</time></trkpt><trkpt lat="45.026086417116524" lon="8.476170668603375"><ele>126.0</ele><time>2026-04-18T07:51:16Z</time></trkpt><trkpt lat="45.02599840134429" lon="8.47610751771706"><ele>126.0</ele><time>2026-04-18T07:51:17Z</time></trkpt><trkpt lat="45.02590660087491" lon="8.476021285753585"><ele>126.0</ele><time>2026-04-18T07:51:18Z</time></trkpt><trkpt lat="45.025803828939424" lon="8.475921024927153"><ele>125.75</ele><time>2026-04-18T07:51:19Z</time></trkpt><trkpt lat="45.02568684372422" lon="8.475817635616002"><ele>125.5</ele><time>2026-04-18T07:51:20Z</time></trkpt><trkpt lat="45.02557274714818" lon="8.475712923328873"><ele>125.25</ele><time>2026-04-18T07:51:21Z</time></trkpt><trkpt lat="45.02545511406896" lon="8.475611034403084"><ele>125.0</ele><time>2026-04-18T07:51:22Z</time></trkpt><trkpt lat="45.025339707073705" lon="8.475493937386128"><ele>125.25</ele><time>2026-04-18T07:51:23Z</time></trkpt><trkpt lat="45.025215642042866" lon="8.475402071077585"><ele>125.5</ele><time>2026-04-18T07:51:24Z</time></trkpt><trkpt lat="45.02510430329809" lon="8.475323837126608"><ele>125.75</ele><time>2026-04-18T07:51:25Z</time></trkpt><trkpt lat="45.02500690902761" lon="8.475258947817563"><ele>126.0</ele><time>2026-04-18T07:51:26Z</time></trkpt><trkpt lat="45.02489891096368" lon="8.475212332660117"><ele>126.19999999999999</ele><time>2026-04-18T07:51:27Z</time></trkpt><trkpt lat="45.02480648127832" lon="8.475149329419663"><ele>126.39999999999999</ele><time>2026-04-18T07:51:28Z</time></trkpt><trkpt lat="45.024711322019" lon="8.47508689411034"><ele>126.6</ele><time>2026-04-18T07:51:29Z</time></trkpt><trkpt lat="45.02461481280114" lon="8.475031717689069"><ele>126.8</ele><time>2026-04-18T07:51:30Z</time></trkpt><trkpt lat="45.02452097907305" lon="8.474989665894153"><ele>127.0</ele><time>2026-04-18T07:51:31Z</time></trkpt><trkpt lat="45.0244297403935" lon="8.474951916936483"><ele>127.0</ele><time>2026-04-18T07:51:32Z</time></trkpt><trkpt lat="45.024324195811225" lon="8.474913282316244"><ele>127.0</ele><time>2026-04-18T07:51:33Z</time></trkpt><trkpt lat="45.02421210937447" lon="8.474878028034192"><ele>127.0</ele><time>2026-04-18T07:51:34Z</time></trkpt><trkpt lat="45.02409303321416" lon="8.474843177502384"><ele>127.0</ele><time>2026-04-18T07:51:35Z</time></trkpt><trkpt lat="45.02397519262276" lon="8.474811912335806"><ele>126.5</ele><time>2026-04-18T07:51:36Z</time></trkpt><trkpt lat="45.02386843258841" lon="8.474776565336578"><ele>126.0</ele><time>2026-04-18T07:51:37Z</time></trkpt><trkpt lat="45.02376765642025" lon="8.474722737654306"><ele>125.5</ele><time>2026-04-18T07:51:38Z</time></trkpt><trkpt lat="45.02367223274952" lon="8.47462528652945"><ele>125.0</ele><time>2026-04-18T07:51:39Z</time></trkpt><trkpt lat="45.023570000261195" lon="8.474527790699991"><ele>125.0</ele><time>2026-04-18T07:51:40Z</time></trkpt><trkpt lat="45.02345876471795" lon="8.474421740431115"><ele>125.0</ele><time>2026-04-18T07:51:41Z</time></trkpt><trkpt lat="45.023330187310286" lon="8.474349318267617"><ele>125.0</ele><time>2026-04-18T07:51:42Z</time></trkpt><trkpt lat="45.02320697815057" lon="8.47426027530683"><ele>125.0</ele><time>2026-04-18T07:51:43Z</time></trkpt><trkpt lat="45.02307014554159" lon="8.474198477845547"><ele>125.0</ele><time>2026-04-18T07:51:44Z</time></trkpt><trkpt lat="45.02293300886385" lon="8.474133493934534"><ele>125.0</ele><time>2026-04-18T07:51:45Z</time></trkpt><trkpt lat="45.02279682184628" lon="8.474070016509852"><ele>125.0</ele><time>2026-04-18T07:51:46Z</time></trkpt><trkpt lat="45.02266435057111" lon="8.474005661114905"><ele>125.0</ele><time>2026-04-18T07:51:47Z</time></trkpt><trkpt lat="45.02253793319718" lon="8.473947908038392"><ele>125.0</ele><time>2026-04-18T07:51:48Z</time></trkpt><trkpt lat="45.02241356716174" lon="8.473883413467929"><ele>125.0</ele><time>2026-04-18T07:51:49Z</time></trkpt><trkpt lat="45.02229088531084" lon="8.47381304546002"><ele>125.0</ele><time>2026-04-18T07:51:50Z</time></trkpt><trkpt lat="45.02216991457154" lon="8.473731016138018"><ele>125.0</ele><time>2026-04-18T07:51:51Z</time></trkpt><trkpt lat="45.02205117304264" lon="8.473642974833327"><ele>125.0</ele><time>2026-04-18T07:51:52Z</time></trkpt><trkpt lat="45.021942269469776" lon="8.473531247693973"><ele>125.0</ele><time>2026-04-18T07:51:53Z</time></trkpt><trkpt lat="45.02181378305152" lon="8.473446136890168"><ele>125.0</ele><time>2026-04-18T07:51:54Z</time></trkpt><trkpt lat="45.02168905086575" lon="8.473356915878343"><ele>125.0</ele><time>2026-04-18T07:51:55Z</time></trkpt><trkpt lat="45.02159042659848" lon="8.473259471060738"><ele>125.0</ele><time>2026-04-18T07:51:56Z</time></trkpt><trkpt lat="45.02146898785123" lon="8.473186440626769"><ele>125.0</ele><time>2026-04-18T07:51:57Z</time></trkpt><trkpt lat="45.02135775143004" lon="8.473111299328043"><ele>125.0</ele><time>2026-04-18T07:51:58Z</time></trkpt><trkpt lat="45.021240707773195" lon="8.473028716726013"><ele>125.0</ele><time>2026-04-18T07:51:59Z</time></trkpt><trkpt lat="45.02112942606895" lon="8.472941065594716"><ele>125.25</ele><time>2026-04-18T07:52:00Z</time></trkpt><trkpt lat="45.0210227566289" lon="8.472837189729004"><ele>125.5</ele><time>2026-04-18T07:52:01Z</time></trkpt><trkpt lat="45.02092671167374" lon="8.472728153586662"><ele>125.75</ele><time>2026-04-18T07:52:02Z</time></trkpt><trkpt lat="45.02084173868073" lon="8.472613053528233"><ele>126.0</ele><time>2026-04-18T07:52:03Z</time></trkpt><trkpt lat="45.02077249093946" lon="8.472465211077958"><ele>126.0</ele><time>2026-04-18T07:52:04Z</time></trkpt><trkpt lat="45.0206832457082" lon="8.472344529619114"><ele>126.0</ele><time>2026-04-18T07:52:05Z</time></trkpt><trkpt lat="45.02060690006619" lon="8.472199029658436"><ele>126.0</ele><time>2026-04-18T07:52:06Z</time></trkpt><trkpt lat="45.02052655846513" lon="8.472061705672035"><ele>126.0</ele><time>2026-04-18T07:52:07Z</time></trkpt><trkpt lat="45.02044265203409" lon="8.471916854113637"><ele>126.5</ele><time>2026-04-18T07:52:08Z</time></trkpt><trkpt lat="45.02034196642751" lon="8.471793762686508"><ele>127.0</ele><time>2026-04-18T07:52:09Z</time></trkpt><trkpt lat="45.020236775027065" lon="8.471670483692089"><ele>127.5</ele><time>2026-04-18T07:52:10Z</time></trkpt><trkpt lat="45.02012560083111" lon="8.471553068635778"><ele>128.0</ele><time>2026-04-18T07:52:11Z</time></trkpt><trkpt lat="45.02001368408132" lon="8.471438349841764"><ele>128.0</ele><time>2026-04-18T07:52:12Z</time></trkpt><trkpt lat="45.019894653612965" lon="8.471332761100527"><ele>128.0</ele><time>2026-04-18T07:52:13Z</time></trkpt><trkpt lat="45.01977463676806" lon="8.471236070612424"><ele>128.0</ele><time>2026-04-18T07:52:14Z</time></trkpt><trkpt lat="45.01964645776037" lon="8.471148437546173"><ele>128.0</ele><time>2026-04-18T07:52:15Z</time></trkpt><trkpt lat="45.01951630005697" lon="8.471058944484767"><ele>128.0</ele><time>2026-04-18T07:52:16Z</time></trkpt><trkpt lat="45.01938505152002" lon="8.470970153950951"><ele>128.0</ele><time>2026-04-18T07:52:17Z</time></trkpt><trkpt lat="45.01925556206596" lon="8.470884585038837"><ele>128.0</ele><time>2026-04-18T07:52:18Z</time></trkpt><trkpt lat="45.01913325865141" lon="8.470805006652204"><ele>128.0</ele><time>2026-04-18T07:52:19Z</time></trkpt><trkpt lat="45.01901518422178" lon="8.470727841219665"><ele>127.75</ele><time>2026-04-18T07:52:20Z</time></trkpt><trkpt lat="45.018899082198516" lon="8.470659433433786"><ele>127.5</ele><time>2026-04-18T07:52:21Z</time></trkpt><trkpt lat="45.01878694053345" lon="8.47059294914162"><ele>127.25</ele><time>2026-04-18T07:52:22Z</time></trkpt><trkpt lat="45.01868095102492" lon="8.47052052397937"><ele>127.0</ele><time>2026-04-18T07:52:23Z</time></trkpt><trkpt lat="45.01857732920403" lon="8.470430953738799"><ele>127.5</ele><time>2026-04-18T07:52:24Z</time></trkpt><trkpt lat="45.01848350841062" lon="8.470321383601727"><ele>128.0</ele><time>2026-04-18T07:52:25Z</time></trkpt><trkpt lat="45.01839298226554" lon="8.470187745594734"><ele>128.5</ele><time>2026-04-18T07:52:26Z</time></trkpt><trkpt lat="45.01831755209746" lon="8.47002887199512"><ele>129.0</ele><time>2026-04-18T07:52:27Z</time></trkpt><trkpt lat="45.01822381277683" lon="8.469886380833453"><ele>128.5</ele><time>2026-04-18T07:52:28Z</time></trkpt><trkpt lat="45.01816304130497" lon="8.469700743865637"><ele>128.0</ele><time>2026-04-18T07:52:29Z</time></trkpt><trkpt lat="45.01808219019699" lon="8.469530114519477"><ele>127.5</ele><time>2026-04-18T07:52:30Z</time></trkpt><trkpt lat="45.0180282363319" lon="8.46933358403691"><ele>127.0</ele><time>2026-04-18T07:52:31Z</time></trkpt><trkpt lat="45.017958752945354" lon="8.469149760571385"><ele>127.0</ele><time>2026-04-18T07:52:32Z</time></trkpt><trkpt lat="45.01788006055303" lon="8.468972674472765"><ele>127.0</ele><time>2026-04-18T07:52:33Z</time></trkpt><trkpt lat="45.01783210011544" lon="8.468776940797907"><ele>127.0</ele><time>2026-04-18T07:52:34Z</time></trkpt><trkpt lat="45.01777842932957" lon="8.46859299018555"><ele>127.0</ele><time>2026-04-18T07:52:35Z</time></trkpt><trkpt lat="45.01772806210823" lon="8.46840530131172"><ele>126.75</ele><time>2026-04-18T07:52:36Z</time></trkpt><trkpt lat="45.017676804785744" lon="8.468214294973176"><ele>126.5</ele><time>2026-04-18T07:52:37Z</time></trkpt><trkpt lat="45.01761009259345" lon="8.46802047812558"><ele>126.25</ele><time>2026-04-18T07:52:38Z</time></trkpt><trkpt lat="45.01754334369558" lon="8.467827144010567"><ele>126.0</ele><time>2026-04-18T07:52:39Z</time></trkpt><trkpt lat="45.017467031514386" lon="8.467637718662676"><ele>126.0</ele><time>2026-04-18T07:52:40Z</time></trkpt><trkpt lat="45.01740091912683" lon="8.46742815975885"><ele>126.0</ele><time>2026-04-18T07:52:41Z</time></trkpt><trkpt lat="45.017319842343" lon="8.467232509405276"><ele>126.0</ele><time>2026-04-18T07:52:42Z</time></trkpt><trkpt lat="45.01723554499446" lon="8.467041374773208"><ele>126.75</ele><time>2026-04-18T07:52:43Z</time></trkpt><trkpt lat="45.017157994859694" lon="8.466865538664218"><ele>127.5</ele><time>2026-04-18T07:52:44Z</time></trkpt><trkpt lat="45.01706458737072" lon="8.466708346648595"><ele>128.25</ele><time>2026-04-18T07:52:45Z</time></trkpt><trkpt lat="45.01698388361968" lon="8.466551518199024"><ele>129.0</ele><time>2026-04-18T07:52:46Z</time></trkpt><trkpt lat="45.01691272911565" lon="8.466396059744472"><ele>129.0</ele><time>2026-04-18T07:52:47Z</time></trkpt><trkpt lat="45.016816204713635" lon="8.466255919903379"><ele>129.0</ele><time>2026-04-18T07:52:48Z</time></trkpt><trkpt lat="45.01670087426064" lon="8.466145770717842"><ele>129.0</ele><time>2026-04-18T07:52:49Z</time></trkpt><trkpt lat="45.016584745611596" lon="8.466032835878666"><ele>129.0</ele><time>2026-04-18T07:52:50Z</time></trkpt><trkpt lat="45.01645976963552" lon="8.46593806180235"><ele>129.0</ele><time>2026-04-18T07:52:51Z</time></trkpt><trkpt lat="45.016332616396" lon="8.465834030346398"><ele>129.0</ele><time>2026-04-18T07:52:52Z</time></trkpt><trkpt lat="45.01622589819281" lon="8.46569693375168"><ele>129.0</ele><time>2026-04-18T07:52:53Z</time></trkpt><trkpt lat="45.01610071828216" lon="8.4655905894017"><ele>129.0</ele><time>2026-04-18T07:52:54Z</time></trkpt><trkpt lat="45.01598926349994" lon="8.465456249110753"><ele>129.5</ele><time>2026-04-18T07:52:55Z</time></trkpt><trkpt lat="45.015879551897214" lon="8.46531719626116"><ele>130.0</ele><time>2026-04-18T07:52:56Z</time></trkpt><trkpt lat="45.01577315540093" lon="8.465173157296526"><ele>130.5</ele><time>2026-04-18T07:52:57Z</time></trkpt><trkpt lat="45.01568569159725" lon="8.465014275279986"><ele>131.0</ele><time>2026-04-18T07:52:58Z</time></trkpt><trkpt lat="45.015598871925285" lon="8.464873887271397"><ele>131.0</ele><time>2026-04-18T07:52:59Z</time></trkpt><trkpt lat="45.015524204946466" lon="8.4647339285271"><ele>131.0</ele><time>2026-04-18T07:53:00Z</time></trkpt><trkpt lat="45.0154585802396" lon="8.464582570096223"><ele>131.0</ele><time>2026-04-18T07:53:01Z</time></trkpt><trkpt lat="45.01539760351152" lon="8.464414894554308"><ele>131.0</ele><time>2026-04-18T07:53:02Z</time></trkpt><trkpt lat="45.015322187195366" lon="8.464238744681689"><ele>131.5</ele><time>2026-04-18T07:53:03Z</time></trkpt><trkpt lat="45.01526011705167" lon="8.464053571169272"><ele>132.0</ele><time>2026-04-18T07:53:04Z</time></trkpt><trkpt lat="45.01519602423834" lon="8.463883831856277"><ele>132.5</ele><time>2026-04-18T07:53:05Z</time></trkpt><trkpt lat="45.01513342420377" lon="8.463733523264635"><ele>133.0</ele><time>2026-04-18T07:53:06Z</time></trkpt><trkpt lat="45.01507190701024" lon="8.463629880948716"><ele>133.0</ele><time>2026-04-18T07:53:07Z</time></trkpt><trkpt lat="45.01502350394077" lon="8.463544907433816"><ele>133.0</ele><time>2026-04-18T07:53:08Z</time></trkpt><trkpt lat="45.01497369542615" lon="8.46346028029735"><ele>133.0</ele><time>2026-04-18T07:53:10Z</time></trkpt><trkpt lat="45.01490800507449" lon="8.463358378130375"><ele>133.0</ele><time>2026-04-18T07:53:13Z</time></trkpt><trkpt lat="45.01490167996365" lon="8.463255816666846"><ele>133.0</ele><time>2026-04-18T07:53:14Z</time></trkpt><trkpt lat="45.01486459796272" lon="8.463150195480422"><ele>133.0</ele><time>2026-04-18T07:53:15Z</time></trkpt><trkpt lat="45.0148164671333" lon="8.463013103538627"><ele>132.66666666666669</ele><time>2026-04-18T07:53:16Z</time></trkpt><trkpt lat="45.014763988361054" lon="8.462863627390929"><ele>132.33333333333334</ele><time>2026-04-18T07:53:17Z</time></trkpt><trkpt lat="45.01455686203041" lon="8.462822011306493"><ele>132.0</ele><time>2026-04-18T07:53:18Z</time></trkpt><trkpt lat="45.014470796459804" lon="8.462649290963828"><ele>132.0</ele><time>2026-04-18T07:53:19Z</time></trkpt><trkpt lat="45.01437481758722" lon="8.46248170199141"><ele>132.0</ele><time>2026-04-18T07:53:20Z</time></trkpt><trkpt lat="45.01428662733247" lon="8.462321359978834"><ele>132.0</ele><time>2026-04-18T07:53:21Z</time></trkpt><trkpt lat="45.014213294590775" lon="8.462173303717286"><ele>132.0</ele><time>2026-04-18T07:53:22Z</time></trkpt><trkpt lat="45.014144664545555" lon="8.462030630996512"><ele>131.5</ele><time>2026-04-18T07:53:23Z</time></trkpt><trkpt lat="45.014074428661274" lon="8.46187664356721"><ele>131.0</ele><time>2026-04-18T07:53:24Z</time></trkpt><trkpt lat="45.01400670419737" lon="8.461713787983587"><ele>130.5</ele><time>2026-04-18T07:53:25Z</time></trkpt><trkpt lat="45.01393929002448" lon="8.461546765274388"><ele>130.0</ele><time>2026-04-18T07:53:26Z</time></trkpt><trkpt lat="45.01388329213187" lon="8.461381187038924"><ele>130.4</ele><time>2026-04-18T07:53:27Z</time></trkpt><trkpt lat="45.01383048452664" lon="8.46123454460016"><ele>130.8</ele><time>2026-04-18T07:53:28Z</time></trkpt><trkpt lat="45.013783147325086" lon="8.461105195235648"><ele>131.2</ele><time>2026-04-18T07:53:29Z</time></trkpt><trkpt lat="45.01374315920405" lon="8.46098906781085"><ele>131.6</ele><time>2026-04-18T07:53:30Z</time></trkpt><trkpt lat="45.01371137264429" lon="8.46088827252477"><ele>132.0</ele><time>2026-04-18T07:53:31Z</time></trkpt><trkpt lat="45.01367124808499" lon="8.460791040984676"><ele>132.0</ele><time>2026-04-18T07:53:32Z</time></trkpt><trkpt lat="45.01361367900612" lon="8.460712921877118"><ele>132.0</ele><time>2026-04-18T07:53:33Z</time></trkpt><trkpt lat="45.01353824566808" lon="8.460660657102302"><ele>132.0</ele><time>2026-04-18T07:53:34Z</time></trkpt><trkpt lat="45.013445409325655" lon="8.460673836722615"><ele>132.0</ele><time>2026-04-18T07:53:35Z</time></trkpt><trkpt lat="45.01334379763198" lon="8.46072968571857"><ele>132.0</ele><time>2026-04-18T07:53:36Z</time></trkpt><trkpt lat="45.013246448549346" lon="8.460796229969448"><ele>132.0</ele><time>2026-04-18T07:53:37Z</time></trkpt><trkpt lat="45.013159738547515" lon="8.460818846739265"><ele>132.0</ele><time>2026-04-18T07:53:38Z</time></trkpt><trkpt lat="45.013084171426975" lon="8.46077844625815"><ele>132.0</ele><time>2026-04-18T07:53:39Z</time></trkpt><trkpt lat="45.01301294959746" lon="8.460690642883069"><ele>132.0</ele><time>2026-04-18T07:53:40Z</time></trkpt><trkpt lat="45.01294802982091" lon="8.460558832069001"><ele>132.0</ele><time>2026-04-18T07:53:41Z</time></trkpt><trkpt lat="45.012893074010435" lon="8.46042535741371"><ele>132.0</ele><time>2026-04-18T07:53:42Z</time></trkpt><trkpt lat="45.01281762194007" lon="8.460277125578022"><ele>132.0</ele><time>2026-04-18T07:53:43Z</time></trkpt><trkpt lat="45.01274367716918" lon="8.460133707063127"><ele>132.0</ele><time>2026-04-18T07:53:44Z</time></trkpt><trkpt lat="45.01268884781337" lon="8.459995943097947"><ele>132.0</ele><time>2026-04-18T07:53:45Z</time></trkpt><trkpt lat="45.01262321955033" lon="8.45985182425311"><ele>132.0</ele><time>2026-04-18T07:53:46Z</time></trkpt><trkpt lat="45.01258194376661" lon="8.459706365275325"><ele>132.0</ele><time>2026-04-18T07:53:47Z</time></trkpt><trkpt lat="45.0125369504799" lon="8.459593344024741"><ele>132.0</ele><time>2026-04-18T07:53:48Z</time></trkpt><trkpt lat="45.01249748820987" lon="8.45948410034368"><ele>132.0</ele><time>2026-04-18T07:53:49Z</time></trkpt><trkpt lat="45.01246146787151" lon="8.459346610528824"><ele>132.0</ele><time>2026-04-18T07:53:50Z</time></trkpt><trkpt lat="45.01241896676102" lon="8.459198689355508"><ele>131.5</ele><time>2026-04-18T07:53:51Z</time></trkpt><trkpt lat="45.01237590108245" lon="8.45903691131834"><ele>131.0</ele><time>2026-04-18T07:53:52Z</time></trkpt><trkpt lat="45.01233066581488" lon="8.458874460323134"><ele>130.5</ele><time>2026-04-18T07:53:53Z</time></trkpt><trkpt lat="45.01228729549696" lon="8.458706629089043"><ele>130.0</ele><time>2026-04-18T07:53:54Z</time></trkpt><trkpt lat="45.01224673560631" lon="8.458540613092305"><ele>130.0</ele><time>2026-04-18T07:53:55Z</time></trkpt><trkpt lat="45.01221275997137" lon="8.458378248659093"><ele>130.0</ele><time>2026-04-18T07:53:56Z</time></trkpt><trkpt lat="45.01220139044072" lon="8.458200038382145"><ele>130.0</ele><time>2026-04-18T07:53:57Z</time></trkpt><trkpt lat="45.01220797035233" lon="8.458056790546456"><ele>130.0</ele><time>2026-04-18T07:53:58Z</time></trkpt><trkpt lat="45.01223010536113" lon="8.457926043296379"><ele>130.0</ele><time>2026-04-18T07:53:59Z</time></trkpt><trkpt lat="45.012272352230944" lon="8.457805617039947"><ele>130.2</ele><time>2026-04-18T07:54:00Z</time></trkpt><trkpt lat="45.01233044128348" lon="8.457702182326582"><ele>130.4</ele><time>2026-04-18T07:54:01Z</time></trkpt><trkpt lat="45.01237763591888" lon="8.457611196402038"><ele>130.6</ele><time>2026-04-18T07:54:02Z</time></trkpt><trkpt lat="45.012391084730254" lon="8.45750157047023"><ele>130.8</ele><time>2026-04-18T07:54:03Z</time></trkpt><trkpt lat="45.01237055553752" lon="8.457369030774359"><ele>131.0</ele><time>2026-04-18T07:54:04Z</time></trkpt><trkpt lat="45.01231174536628" lon="8.457235725841306"><ele>130.5</ele><time>2026-04-18T07:54:05Z</time></trkpt><trkpt lat="45.01222863078772" lon="8.457096930612156"><ele>130.0</ele><time>2026-04-18T07:54:06Z</time></trkpt><trkpt lat="45.01214487955503" lon="8.456942243658515"><ele>129.5</ele><time>2026-04-18T07:54:07Z</time></trkpt><trkpt lat="45.01205445695596" lon="8.456782484128084"><ele>129.0</ele><time>2026-04-18T07:54:08Z</time></trkpt><trkpt lat="45.01195842091316" lon="8.456618685427228"><ele>129.0</ele><time>2026-04-18T07:54:09Z</time></trkpt><trkpt lat="45.01186887367431" lon="8.456443577802052"><ele>129.0</ele><time>2026-04-18T07:54:10Z</time></trkpt><trkpt lat="45.0117855543039" lon="8.45627003522198"><ele>129.0</ele><time>2026-04-18T07:54:11Z</time></trkpt><trkpt lat="45.011707753161716" lon="8.456096914463835"><ele>129.0</ele><time>2026-04-18T07:54:12Z</time></trkpt><trkpt lat="45.011639592429475" lon="8.455948616427566"><ele>129.0</ele><time>2026-04-18T07:54:13Z</time></trkpt><trkpt lat="45.011594819265376" lon="8.455836314086742"><ele>129.0</ele><time>2026-04-18T07:54:14Z</time></trkpt><trkpt lat="45.011548040814084" lon="8.455714531576287"><ele>129.0</ele><time>2026-04-18T07:54:15Z</time></trkpt><trkpt lat="45.0114962387029" lon="8.455584434537078"><ele>129.0</ele><time>2026-04-18T07:54:16Z</time></trkpt><trkpt lat="45.01144265455324" lon="8.455453215466656"><ele>129.0</ele><time>2026-04-18T07:54:17Z</time></trkpt><trkpt lat="45.01138610343494" lon="8.455311324057037"><ele>129.5</ele><time>2026-04-18T07:54:18Z</time></trkpt><trkpt lat="45.01131571831632" lon="8.455172904132148"><ele>130.0</ele><time>2026-04-18T07:54:19Z</time></trkpt><trkpt lat="45.01125072884804" lon="8.455030407448563"><ele>130.5</ele><time>2026-04-18T07:54:20Z</time></trkpt><trkpt lat="45.01118535817596" lon="8.454880214055294"><ele>131.0</ele><time>2026-04-18T07:54:21Z</time></trkpt><trkpt lat="45.011134464111514" lon="8.454760257459164"><ele>131.0</ele><time>2026-04-18T07:54:22Z</time></trkpt><trkpt lat="45.011101613675926" lon="8.454639678208546"><ele>131.0</ele><time>2026-04-18T07:54:23Z</time></trkpt><trkpt lat="45.01107531558622" lon="8.45449724499065"><ele>131.0</ele><time>2026-04-18T07:54:24Z</time></trkpt><trkpt lat="45.01103037023702" lon="8.454350837405237"><ele>131.0</ele><time>2026-04-18T07:54:25Z</time></trkpt><trkpt lat="45.010983989418314" lon="8.45420832171884"><ele>131.0</ele><time>2026-04-18T07:54:26Z</time></trkpt><trkpt lat="45.010918769016435" lon="8.454066398844752"><ele>131.0</ele><time>2026-04-18T07:54:27Z</time></trkpt><trkpt lat="45.01083429514913" lon="8.45392893277965"><ele>131.0</ele><time>2026-04-18T07:54:28Z</time></trkpt><trkpt lat="45.01075757033287" lon="8.4537879302187"><ele>131.0</ele><time>2026-04-18T07:54:29Z</time></trkpt><trkpt lat="45.010682676490006" lon="8.453652091294055"><ele>131.0</ele><time>2026-04-18T07:54:30Z</time></trkpt><trkpt lat="45.01061534873451" lon="8.453512688086947"><ele>131.25</ele><time>2026-04-18T07:54:31Z</time></trkpt><trkpt lat="45.01054357979293" lon="8.453372719196986"><ele>131.5</ele><time>2026-04-18T07:54:32Z</time></trkpt><trkpt lat="45.0104710182581" lon="8.453234474230253"><ele>131.75</ele><time>2026-04-18T07:54:33Z</time></trkpt><trkpt lat="45.010404420824536" lon="8.453101119406204"><ele>132.0</ele><time>2026-04-18T07:54:34Z</time></trkpt><trkpt lat="45.0103496279656" lon="8.452965415972242"><ele>132.2</ele><time>2026-04-18T07:54:35Z</time></trkpt><trkpt lat="45.01030496350174" lon="8.452855585967953"><ele>132.39999999999998</ele><time>2026-04-18T07:54:36Z</time></trkpt><trkpt lat="45.01024954120141" lon="8.452739981325132"><ele>132.60000000000002</ele><time>2026-04-18T07:54:37Z</time></trkpt><trkpt lat="45.01018375848547" lon="8.452628931208466"><ele>132.8</ele><time>2026-04-18T07:54:38Z</time></trkpt><trkpt lat="45.01009300756283" lon="8.452532599721385"><ele>133.0</ele><time>2026-04-18T07:54:39Z</time></trkpt><trkpt lat="45.00998704417209" lon="8.452441065474416"><ele>132.75</ele><time>2026-04-18T07:54:40Z</time></trkpt><trkpt lat="45.00987474241991" lon="8.45234799525391"><ele>132.5</ele><time>2026-04-18T07:54:41Z</time></trkpt><trkpt lat="45.009757521713084" lon="8.452245661573786"><ele>132.25</ele><time>2026-04-18T07:54:42Z</time></trkpt><trkpt lat="45.00965996792131" lon="8.45215418518869"><ele>132.0</ele><time>2026-04-18T07:54:43Z</time></trkpt><trkpt lat="45.00957435231808" lon="8.452074026947907"><ele>132.0</ele><time>2026-04-18T07:54:44Z</time></trkpt><trkpt lat="45.009497759664605" lon="8.4519999398642"><ele>132.0</ele><time>2026-04-18T07:54:45Z</time></trkpt><trkpt lat="45.00940964192171" lon="8.451908608290086"><ele>132.0</ele><time>2026-04-18T07:54:46Z</time></trkpt><trkpt lat="45.00934719174828" lon="8.451806888306253"><ele>132.0</ele><time>2026-04-18T07:54:47Z</time></trkpt><trkpt lat="45.009320856377514" lon="8.451693221152803"><ele>132.0</ele><time>2026-04-18T07:54:48Z</time></trkpt><trkpt lat="45.00931381238844" lon="8.45154166607503"><ele>132.0</ele><time>2026-04-18T07:54:49Z</time></trkpt><trkpt lat="45.009312427454674" lon="8.45136107624384"><ele>132.0</ele><time>2026-04-18T07:54:50Z</time></trkpt><trkpt lat="45.009289354338286" lon="8.451203825727815"><ele>132.0</ele><time>2026-04-18T07:54:51Z</time></trkpt><trkpt lat="45.00921980690759" lon="8.45104559999561"><ele>132.0</ele><time>2026-04-18T07:54:52Z</time></trkpt><trkpt lat="45.00913355345987" lon="8.450901113173053"><ele>132.0</ele><time>2026-04-18T07:54:53Z</time></trkpt><trkpt lat="45.00903600764747" lon="8.450742985548692"><ele>132.0</ele><time>2026-04-18T07:54:54Z</time></trkpt><trkpt lat="45.00893551049089" lon="8.450576362825034"><ele>132.0</ele><time>2026-04-18T07:54:55Z</time></trkpt><trkpt lat="45.008821083264834" lon="8.450425961168587"><ele>132.0</ele><time>2026-04-18T07:54:56Z</time></trkpt><trkpt lat="45.00871216961756" lon="8.450288600103024"><ele>132.0</ele><time>2026-04-18T07:54:57Z</time></trkpt><trkpt lat="45.008617676774" lon="8.450186257955638"><ele>132.0</ele><time>2026-04-18T07:54:58Z</time></trkpt><trkpt lat="45.008527166770705" lon="8.450079482148627"><ele>132.0</ele><time>2026-04-18T07:54:59Z</time></trkpt><trkpt lat="45.00844159396889" lon="8.449983211804701"><ele>132.0</ele><time>2026-04-18T07:55:00Z</time></trkpt><trkpt lat="45.00835979071301" lon="8.449891555300729"><ele>132.0</ele><time>2026-04-18T07:55:01Z</time></trkpt><trkpt lat="45.00828203720532" lon="8.449790509777634"><ele>132.0</ele><time>2026-04-18T07:55:02Z</time></trkpt><trkpt lat="45.008216906178625" lon="8.449691796236161"><ele>132.0</ele><time>2026-04-18T07:55:03Z</time></trkpt><trkpt lat="45.00817961241456" lon="8.449601235462397"><ele>132.0</ele><time>2026-04-18T07:55:04Z</time></trkpt><trkpt lat="45.00816642224028" lon="8.449505455142006"><ele>132.0</ele><time>2026-04-18T07:55:05Z</time></trkpt><trkpt lat="45.00818927220128" lon="8.449393662309252"><ele>132.25</ele><time>2026-04-18T07:55:06Z</time></trkpt><trkpt lat="45.008236289413446" lon="8.449280863845472"><ele>132.5</ele><time>2026-04-18T07:55:07Z</time></trkpt><trkpt lat="45.00830524353901" lon="8.449156352325424"><ele>132.75</ele><time>2026-04-18T07:55:08Z</time></trkpt><trkpt lat="45.0083764903666" lon="8.449018249141448"><ele>133.0</ele><time>2026-04-18T07:55:09Z</time></trkpt><trkpt lat="45.008449620737885" lon="8.448866469215126"><ele>134.0</ele><time>2026-04-18T07:55:10Z</time></trkpt><trkpt lat="45.00852461551111" lon="8.44871763951639"><ele>135.0</ele><time>2026-04-18T07:55:11Z</time></trkpt><trkpt lat="45.00860046100477" lon="8.44857215376116"><ele>136.0</ele><time>2026-04-18T07:55:12Z</time></trkpt><trkpt lat="45.00867456404527" lon="8.448433306493804"><ele>137.0</ele><time>2026-04-18T07:55:13Z</time></trkpt><trkpt lat="45.00874307288802" lon="8.44831586975571"><ele>137.0</ele><time>2026-04-18T07:55:14Z</time></trkpt><trkpt lat="45.00880997355475" lon="8.44821078451984"><ele>137.0</ele><time>2026-04-18T07:55:15Z</time></trkpt><trkpt lat="45.00888868805264" lon="8.44811555354147"><ele>137.0</ele><time>2026-04-18T07:55:16Z</time></trkpt><trkpt lat="45.008956980831805" lon="8.448023861177662"><ele>137.0</ele><time>2026-04-18T07:55:17Z</time></trkpt><trkpt lat="45.00900828644947" lon="8.447952030313793"><ele>137.0</ele><time>2026-04-18T07:55:18Z</time></trkpt><trkpt lat="45.0090605856262" lon="8.447853792271617"><ele>138.2</ele><time>2026-04-18T07:55:20Z</time></trkpt><trkpt lat="45.009021392925995" lon="8.447750899598942"><ele>139.39999999999998</ele><time>2026-04-18T07:55:22Z</time></trkpt><trkpt lat="45.00892630574805" lon="8.447694970074007"><ele>140.60000000000002</ele><time>2026-04-18T07:55:24Z</time></trkpt><trkpt lat="45.00884273403181" lon="8.447662351583066"><ele>141.8</ele><time>2026-04-18T07:55:25Z</time></trkpt><trkpt lat="45.008746781839434" lon="8.447607593200631"><ele>143.0</ele><time>2026-04-18T07:55:26Z</time></trkpt><trkpt lat="45.00865501182846" lon="8.447556353538767"><ele>143.0</ele><time>2026-04-18T07:55:27Z</time></trkpt><trkpt lat="45.008555496540176" lon="8.447498081953889"><ele>143.0</ele><time>2026-04-18T07:55:28Z</time></trkpt><trkpt lat="45.00845881176743" lon="8.447437036618442"><ele>143.0</ele><time>2026-04-18T07:55:29Z</time></trkpt><trkpt lat="45.00835531652537" lon="8.447378853467937"><ele>143.0</ele><time>2026-04-18T07:55:29.999Z</time></trkpt><trkpt lat="45.00824095148654" lon="8.447332300914173"><ele>143.0</ele><time>2026-04-18T07:55:30.999Z</time></trkpt><trkpt lat="45.008119310845686" lon="8.447256036518375"><ele>142.25</ele><time>2026-04-18T07:55:31.999Z</time></trkpt><trkpt lat="45.00798883821648" lon="8.447176743433241"><ele>141.5</ele><time>2026-04-18T07:55:32.999Z</time></trkpt><trkpt lat="45.00786906516457" lon="8.447131818738788"><ele>140.75</ele><time>2026-04-18T07:55:33.999Z</time></trkpt><trkpt lat="45.00775477418619" lon="8.447097443008467"><ele>140.0</ele><time>2026-04-18T07:55:34.999Z</time></trkpt><trkpt lat="45.00765791517903" lon="8.447065942758606"><ele>140.4</ele><time>2026-04-18T07:55:35.999Z</time></trkpt><trkpt lat="45.007549787324415" lon="8.447042342241861"><ele>140.8</ele><time>2026-04-18T07:55:36.999Z</time></trkpt><trkpt lat="45.007434596153075" lon="8.447042325457582"><ele>141.2</ele><time>2026-04-18T07:55:37.999Z</time></trkpt><trkpt lat="45.00733238757672" lon="8.447055362997206"><ele>141.6</ele><time>2026-04-18T07:55:38.999Z</time></trkpt><trkpt lat="45.007236925448694" lon="8.447064684896647"><ele>142.0</ele><time>2026-04-18T07:55:39.999Z</time></trkpt><trkpt lat="45.00715940833374" lon="8.447093230005615"><ele>141.0</ele><time>2026-04-18T07:55:40.999Z</time></trkpt><trkpt lat="45.0070869624258" lon="8.447147476713743"><ele>140.0</ele><time>2026-04-18T07:55:41.999Z</time></trkpt><trkpt lat="45.00701681324895" lon="8.447238924753199"><ele>139.0</ele><time>2026-04-18T07:55:42.999Z</time></trkpt><trkpt lat="45.00697179779435" lon="8.447332711459756"><ele>138.0</ele><time>2026-04-18T07:55:43.999Z</time></trkpt><trkpt lat="45.006925819393814" lon="8.447418602226007"><ele>137.0</ele><time>2026-04-18T07:55:44.999Z</time></trkpt><trkpt lat="45.00686263703927" lon="8.44747673310055"><ele>136.0</ele><time>2026-04-18T07:55:45.999Z</time></trkpt><trkpt lat="45.006784652377256" lon="8.447500072206878"><ele>136.0</ele><time>2026-04-18T07:55:46.999Z</time></trkpt><trkpt lat="45.00670048530033" lon="8.447455427380952"><ele>136.0</ele><time>2026-04-18T07:55:47.999Z</time></trkpt><trkpt lat="45.00660655827495" lon="8.447407248813846"><ele>136.0</ele><time>2026-04-18T07:55:48.999Z</time></trkpt><trkpt lat="45.006498566545886" lon="8.447358533641237"><ele>136.0</ele><time>2026-04-18T07:55:49.999Z</time></trkpt><trkpt lat="45.006399706063625" lon="8.447285663037725"><ele>136.0</ele><time>2026-04-18T07:55:50.999Z</time></trkpt><trkpt lat="45.006300261808505" lon="8.447195661158842"><ele>136.0</ele><time>2026-04-18T07:55:51.999Z</time></trkpt><trkpt lat="45.00618442113932" lon="8.44712824988328"><ele>136.0</ele><time>2026-04-18T07:55:52.999Z</time></trkpt><trkpt lat="45.00608571223029" lon="8.44703186284548"><ele>136.0</ele><time>2026-04-18T07:55:53.999Z</time></trkpt><trkpt lat="45.00597412197564" lon="8.44694186138881"><ele>136.0</ele><time>2026-04-18T07:55:54.999Z</time></trkpt><trkpt lat="45.005859626005204" lon="8.446870981530678"><ele>136.25</ele><time>2026-04-18T07:55:55.999Z</time></trkpt><trkpt lat="45.00576120837029" lon="8.44678249232493"><ele>136.5</ele><time>2026-04-18T07:55:56.999Z</time></trkpt><trkpt lat="45.005658074416814" lon="8.446709170495978"><ele>136.75</ele><time>2026-04-18T07:55:57.999Z</time></trkpt><trkpt lat="45.00554969497455" lon="8.446662664894012"><ele>137.0</ele><time>2026-04-18T07:55:58.999Z</time></trkpt><trkpt lat="45.00544014136604" lon="8.446625587755127"><ele>137.0</ele><time>2026-04-18T07:55:59.999Z</time></trkpt><trkpt lat="45.00534160561447" lon="8.446565065890237"><ele>137.0</ele><time>2026-04-18T07:56:00.999Z</time></trkpt><trkpt lat="45.00524201616176" lon="8.446553594393587"><ele>137.0</ele><time>2026-04-18T07:56:01.999Z</time></trkpt><trkpt lat="45.005134395924316" lon="8.44654304751544"><ele>137.0</ele><time>2026-04-18T07:56:02.999Z</time></trkpt><trkpt lat="45.005015017891814" lon="8.446546483319493"><ele>137.0</ele><time>2026-04-18T07:56:03.999Z</time></trkpt><trkpt lat="45.00488192152276" lon="8.44656452076947"><ele>136.75</ele><time>2026-04-18T07:56:04.999Z</time></trkpt><trkpt lat="45.0047469305382" lon="8.446556304915426"><ele>136.5</ele><time>2026-04-18T07:56:05.999Z</time></trkpt><trkpt lat="45.00459887883141" lon="8.446573626602342"><ele>136.25</ele><time>2026-04-18T07:56:06.999Z</time></trkpt><trkpt lat="45.004464894416756" lon="8.446566795891746"><ele>136.0</ele><time>2026-04-18T07:56:07.999Z</time></trkpt><trkpt lat="45.004331096964805" lon="8.446553415887047"><ele>136.0</ele><time>2026-04-18T07:56:08.999Z</time></trkpt><trkpt lat="45.004188945132604" lon="8.446548104020774"><ele>136.0</ele><time>2026-04-18T07:56:09.999Z</time></trkpt><trkpt lat="45.00405299308675" lon="8.446535098704448"><ele>136.0</ele><time>2026-04-18T07:56:10.999Z</time></trkpt><trkpt lat="45.00391301519802" lon="8.446521874005347"><ele>136.0</ele><time>2026-04-18T07:56:11.999Z</time></trkpt><trkpt lat="45.003765014446216" lon="8.446507170513755"><ele>136.0</ele><time>2026-04-18T07:56:12.999Z</time></trkpt><trkpt lat="45.00361477593215" lon="8.44649418310252"><ele>136.0</ele><time>2026-04-18T07:56:13.999Z</time></trkpt><trkpt lat="45.00346492805891" lon="8.446485093358001"><ele>136.0</ele><time>2026-04-18T07:56:14.999Z</time></trkpt><trkpt lat="45.003333783609754" lon="8.446480262734642"><ele>136.0</ele><time>2026-04-18T07:56:15.999Z</time></trkpt><trkpt lat="45.003216607545696" lon="8.446479085841265"><ele>135.2</ele><time>2026-04-18T07:56:16.999Z</time></trkpt><trkpt lat="45.00309613865961" lon="8.4464772296399"><ele>134.39999999999998</ele><time>2026-04-18T07:56:17.999Z</time></trkpt><trkpt lat="45.00298071503317" lon="8.446471508441695"><ele>133.6</ele><time>2026-04-18T07:56:18.999Z</time></trkpt><trkpt lat="45.002870609234066" lon="8.446462034465286"><ele>132.79999999999998</ele><time>2026-04-18T07:56:19.999Z</time></trkpt><trkpt lat="45.002770112542066" lon="8.446455327143763"><ele>132.0</ele><time>2026-04-18T07:56:20.999Z</time></trkpt><trkpt lat="45.00267914816145" lon="8.44645199005685"><ele>132.0</ele><time>2026-04-18T07:56:21.999Z</time></trkpt><trkpt lat="45.00259754881052" lon="8.44643000865119"><ele>132.0</ele><time>2026-04-18T07:56:22.999Z</time></trkpt><trkpt lat="45.00252176944735" lon="8.44640804315877"><ele>132.0</ele><time>2026-04-18T07:56:23.999Z</time></trkpt><trkpt lat="45.00245786305753" lon="8.446336010439666"><ele>132.0</ele><time>2026-04-18T07:56:24.999Z</time></trkpt><trkpt lat="45.00239420685324" lon="8.446235430211594"><ele>132.0</ele><time>2026-04-18T07:56:25.999Z</time></trkpt><trkpt lat="45.002340999149986" lon="8.446106776340207"><ele>132.0</ele><time>2026-04-18T07:56:26.999Z</time></trkpt><trkpt lat="45.00228352864628" lon="8.445977002125048"><ele>132.5</ele><time>2026-04-18T07:56:27.999Z</time></trkpt><trkpt lat="45.002222150518186" lon="8.445836969355273"><ele>133.0</ele><time>2026-04-18T07:56:29Z</time></trkpt><trkpt lat="45.002146167383" lon="8.445708247840527"><ele>133.5</ele><time>2026-04-18T07:56:30Z</time></trkpt><trkpt lat="45.002088081765315" lon="8.445570924865205"><ele>134.0</ele><time>2026-04-18T07:56:31Z</time></trkpt><trkpt lat="45.00202499594736" lon="8.445431802436575"><ele>134.0</ele><time>2026-04-18T07:56:32Z</time></trkpt><trkpt lat="45.001952128543735" lon="8.445290636568057"><ele>134.0</ele><time>2026-04-18T07:56:33Z</time></trkpt><trkpt lat="45.00188728108617" lon="8.445129331752675"><ele>134.0</ele><time>2026-04-18T07:56:34Z</time></trkpt><trkpt lat="45.001811404603046" lon="8.44498076355145"><ele>134.0</ele><time>2026-04-18T07:56:35Z</time></trkpt><trkpt lat="45.0017295864616" lon="8.444836898302327"><ele>134.0</ele><time>2026-04-18T07:56:36Z</time></trkpt><trkpt lat="45.001648796770425" lon="8.444719279710416"><ele>134.0</ele><time>2026-04-18T07:56:37Z</time></trkpt><trkpt lat="45.001573668371066" lon="8.444603264938712"><ele>134.0</ele><time>2026-04-18T07:56:38Z</time></trkpt><trkpt lat="45.00149702598197" lon="8.44447484794049"><ele>134.0</ele><time>2026-04-18T07:56:39Z</time></trkpt><trkpt lat="45.00142063273759" lon="8.44436599754754"><ele>134.0</ele><time>2026-04-18T07:56:40Z</time></trkpt><trkpt lat="45.001369916753916" lon="8.444262563033751"><ele>134.0</ele><time>2026-04-18T07:56:41Z</time></trkpt><trkpt lat="45.001303959217466" lon="8.444187247955954"><ele>134.0</ele><time>2026-04-18T07:56:42Z</time></trkpt><trkpt lat="45.00124210833978" lon="8.444069780814088"><ele>134.0</ele><time>2026-04-18T07:56:43Z</time></trkpt><trkpt lat="45.00115559108526" lon="8.443951864661871"><ele>134.0</ele><time>2026-04-18T07:56:44Z</time></trkpt><trkpt lat="45.00104775855663" lon="8.443823096936937"><ele>134.25</ele><time>2026-04-18T07:56:45Z</time></trkpt><trkpt lat="45.00094056592836" lon="8.443691441906644"><ele>134.5</ele><time>2026-04-18T07:56:46Z</time></trkpt><trkpt lat="45.000837542632766" lon="8.443576447416582"><ele>134.75</ele><time>2026-04-18T07:56:47Z</time></trkpt><trkpt lat="45.00073480593223" lon="8.443488093668224"><ele>135.0</ele><time>2026-04-18T07:56:48Z</time></trkpt><trkpt lat="45.00062853989799" lon="8.443414310731153"><ele>135.0</ele><time>2026-04-18T07:56:49Z</time></trkpt><trkpt lat="45.00053637203523" lon="8.443348753877288"><ele>135.0</ele><time>2026-04-18T07:56:50Z</time></trkpt><trkpt lat="45.000444201138784" lon="8.443288256819205"><ele>135.0</ele><time>2026-04-18T07:56:51Z</time></trkpt><trkpt lat="45.000357464927056" lon="8.443231753416097"><ele>135.0</ele><time>2026-04-18T07:56:51.999Z</time></trkpt><trkpt lat="45.00027218296646" lon="8.443174993125748"><ele>135.0</ele><time>2026-04-18T07:56:52.999Z</time></trkpt><trkpt lat="45.00021385188114" lon="8.443063862479873"><ele>135.2</ele><time>2026-04-18T07:56:53.999Z</time></trkpt><trkpt lat="45.00013767700839" lon="8.442960240533177"><ele>135.4</ele><time>2026-04-18T07:56:54.999Z</time></trkpt><trkpt lat="45.000058689596024" lon="8.442852792651541"><ele>135.6</ele><time>2026-04-18T07:56:55.999Z</time></trkpt><trkpt lat="45.00004666113279" lon="8.44273476406385"><ele>135.8</ele><time>2026-04-18T07:56:56.999Z</time></trkpt><trkpt lat="44.99997633504129" lon="8.442622912150881"><ele>136.0</ele><time>2026-04-18T07:56:57.999Z</time></trkpt><trkpt lat="44.999908436472325" lon="8.442524560078242"><ele>136.0</ele><time>2026-04-18T07:56:58.999Z</time></trkpt><trkpt lat="44.999489378822794" lon="8.442797252441322"><ele>136.0</ele><time>2026-04-18T07:56:59.999Z</time></trkpt><trkpt lat="44.99937879541722" lon="8.442766093790896"><ele>136.0</ele><time>2026-04-18T07:57:00.999Z</time></trkpt><trkpt lat="44.99926748414947" lon="8.442740510130559"><ele>136.0</ele><time>2026-04-18T07:57:01.999Z</time></trkpt><trkpt lat="44.99916623595817" lon="8.442728295855229"><ele>136.0</ele><time>2026-04-18T07:57:02.999Z</time></trkpt><trkpt lat="44.99907179459963" lon="8.442724272249299"><ele>136.0</ele><time>2026-04-18T07:57:03.999Z</time></trkpt><trkpt lat="44.99898883378741" lon="8.442721623641427"><ele>136.0</ele><time>2026-04-18T07:57:04.999Z</time></trkpt><trkpt lat="44.99890579265711" lon="8.44271593577861"><ele>136.0</ele><time>2026-04-18T07:57:05.999Z</time></trkpt><trkpt lat="44.998828500688646" lon="8.442712021761722"><ele>136.0</ele><time>2026-04-18T07:57:06.999Z</time></trkpt><trkpt lat="44.99874824787721" lon="8.442696027936353"><ele>136.0</ele><time>2026-04-18T07:57:07.999Z</time></trkpt><trkpt lat="44.998674729397145" lon="8.442668365191144"><ele>136.0</ele><time>2026-04-18T07:57:08.999Z</time></trkpt><trkpt lat="44.998606831567" lon="8.442615109624915"><ele>136.0</ele><time>2026-04-18T07:57:09.999Z</time></trkpt><trkpt lat="44.99853679832657" lon="8.442541622479466"><ele>136.0</ele><time>2026-04-18T07:57:10.999Z</time></trkpt><trkpt lat="44.998466926934285" lon="8.442450372669292"><ele>136.0</ele><time>2026-04-18T07:57:11.999Z</time></trkpt><trkpt lat="44.99841717946783" lon="8.442366400751752"><ele>136.0</ele><time>2026-04-18T07:57:12.999Z</time></trkpt><trkpt lat="44.998368724878326" lon="8.442283690836065"><ele>136.0</ele><time>2026-04-18T07:57:13.999Z</time></trkpt><trkpt lat="44.998324321978515" lon="8.442210549952312"><ele>136.0</ele><time>2026-04-18T07:57:14.999Z</time></trkpt><trkpt lat="44.998273157180975" lon="8.442139635744459"><ele>136.0</ele><time>2026-04-18T07:57:15.999Z</time></trkpt><trkpt lat="44.99819335355896" lon="8.442026010383124"><ele>136.33333333333334</ele><time>2026-04-18T07:57:17.999Z</time></trkpt><trkpt lat="44.998143891634584" lon="8.441947426799533"><ele>136.66666666666669</ele><time>2026-04-18T07:57:19.999Z</time></trkpt><trkpt lat="44.998079275723605" lon="8.441861412642744"><ele>137.0</ele><time>2026-04-18T07:57:21.999Z</time></trkpt><trkpt lat="44.99802599469817" lon="8.441800474214721"><ele>137.33333333333334</ele><time>2026-04-18T07:57:22.999Z</time></trkpt><trkpt lat="44.997963865768156" lon="8.441738469254219"><ele>137.66666666666666</ele><time>2026-04-18T07:57:23.999Z</time></trkpt><trkpt lat="44.99791107090947" lon="8.441652158437583"><ele>138.0</ele><time>2026-04-18T07:57:24.999Z</time></trkpt><trkpt lat="44.99784750302037" lon="8.441576875831323"><ele>138.0</ele><time>2026-04-18T07:57:25.999Z</time></trkpt><trkpt lat="44.99776659018695" lon="8.441485192222684"><ele>138.0</ele><time>2026-04-18T07:57:26.999Z</time></trkpt><trkpt lat="44.99758911449506" lon="8.441539178942488"><ele>138.0</ele><time>2026-04-18T07:57:27.999Z</time></trkpt><trkpt lat="44.99745593972085" lon="8.441501238245031"><ele>138.0</ele><time>2026-04-18T07:57:28.999Z</time></trkpt><trkpt lat="44.997326251161006" lon="8.44146945599776"><ele>138.0</ele><time>2026-04-18T07:57:29.999Z</time></trkpt><trkpt lat="44.997190232606144" lon="8.441455943355297"><ele>138.0</ele><time>2026-04-18T07:57:30.999Z</time></trkpt><trkpt lat="44.99705554736573" lon="8.441444409566259"><ele>138.0</ele><time>2026-04-18T07:57:31.999Z</time></trkpt><trkpt lat="44.996923582468575" lon="8.441432955403027"><ele>138.0</ele><time>2026-04-18T07:57:32.999Z</time></trkpt><trkpt lat="44.99679451396738" lon="8.441423859500032"><ele>137.25</ele><time>2026-04-18T07:57:33.999Z</time></trkpt><trkpt lat="44.996659404667724" lon="8.44141315174406"><ele>136.5</ele><time>2026-04-18T07:57:34.999Z</time></trkpt><trkpt lat="44.996524554132506" lon="8.441392534179814"><ele>135.75</ele><time>2026-04-18T07:57:35.999Z</time></trkpt><trkpt lat="44.99638762360226" lon="8.441364709818297"><ele>135.0</ele><time>2026-04-18T07:57:36.999Z</time></trkpt><trkpt lat="44.996248683836036" lon="8.441316118576625"><ele>136.5</ele><time>2026-04-18T07:57:37.999Z</time></trkpt><trkpt lat="44.99612183508835" lon="8.441267353491563"><ele>138.0</ele><time>2026-04-18T07:57:38.999Z</time></trkpt><trkpt lat="44.99600693778994" lon="8.44121396354677"><ele>139.5</ele><time>2026-04-18T07:57:39.999Z</time></trkpt><trkpt lat="44.995901487254635" lon="8.441145155132325"><ele>141.0</ele><time>2026-04-18T07:57:40.999Z</time></trkpt><trkpt lat="44.99578780031246" lon="8.441069999562643"><ele>141.0</ele><time>2026-04-18T07:57:41.999Z</time></trkpt><trkpt lat="44.995664253347144" lon="8.440991724511179"><ele>141.0</ele><time>2026-04-18T07:57:42.999Z</time></trkpt><trkpt lat="44.99554281241445" lon="8.440912876713156"><ele>141.0</ele><time>2026-04-18T07:57:43.999Z</time></trkpt><trkpt lat="44.995415674954174" lon="8.440833852594107"><ele>141.0</ele><time>2026-04-18T07:57:44.999Z</time></trkpt><trkpt lat="44.99529050260498" lon="8.440765528078956"><ele>141.0</ele><time>2026-04-18T07:57:45.999Z</time></trkpt><trkpt lat="44.99516751942637" lon="8.440698209817759"><ele>141.0</ele><time>2026-04-18T07:57:46.999Z</time></trkpt><trkpt lat="44.99505911356374" lon="8.440640289649956"><ele>141.0</ele><time>2026-04-18T07:57:47.999Z</time></trkpt><trkpt lat="44.9949533240484" lon="8.440575218345229"><ele>141.0</ele><time>2026-04-18T07:57:48.999Z</time></trkpt><trkpt lat="44.99484297593338" lon="8.440507481249636"><ele>141.0</ele><time>2026-04-18T07:57:49.999Z</time></trkpt><trkpt lat="44.994731731462416" lon="8.440438397462522"><ele>141.0</ele><time>2026-04-18T07:57:50.999Z</time></trkpt><trkpt lat="44.99462311941765" lon="8.440336187392163"><ele>141.0</ele><time>2026-04-18T07:57:51.999Z</time></trkpt><trkpt lat="44.99450040638966" lon="8.440264395019339"><ele>141.0</ele><time>2026-04-18T07:57:52.999Z</time></trkpt><trkpt lat="44.99438125015779" lon="8.440184862107"><ele>141.0</ele><time>2026-04-18T07:57:53.999Z</time></trkpt><trkpt lat="44.99425792507549" lon="8.44012817246026"><ele>141.0</ele><time>2026-04-18T07:57:54.999Z</time></trkpt><trkpt lat="44.99413002902652" lon="8.440076679893593"><ele>141.0</ele><time>2026-04-18T07:57:55.999Z</time></trkpt><trkpt lat="44.99399616467748" lon="8.440028780588703"><ele>141.0</ele><time>2026-04-18T07:57:56.999Z</time></trkpt><trkpt lat="44.99385932493983" lon="8.439973676748497"><ele>140.25</ele><time>2026-04-18T07:57:57.999Z</time></trkpt><trkpt lat="44.99371890089216" lon="8.43991659787536"><ele>139.5</ele><time>2026-04-18T07:57:58.999Z</time></trkpt><trkpt lat="44.9935900585755" lon="8.43985991032229"><ele>138.75</ele><time>2026-04-18T07:57:59.999Z</time></trkpt><trkpt lat="44.99347172639004" lon="8.43980768505929"><ele>138.0</ele><time>2026-04-18T07:58:00.999Z</time></trkpt><trkpt lat="44.993370170100704" lon="8.439761494381646"><ele>138.0</ele><time>2026-04-18T07:58:01.999Z</time></trkpt><trkpt lat="44.99327249597424" lon="8.439726674643843"><ele>138.0</ele><time>2026-04-18T07:58:02.999Z</time></trkpt><trkpt lat="44.9931689639492" lon="8.439702934273976"><ele>138.0</ele><time>2026-04-18T07:58:03.999Z</time></trkpt><trkpt lat="44.99305950446367" lon="8.439684816110816"><ele>138.0</ele><time>2026-04-18T07:58:04.999Z</time></trkpt><trkpt lat="44.99295699801985" lon="8.439648744951095"><ele>138.0</ele><time>2026-04-18T07:58:05.999Z</time></trkpt><trkpt lat="44.9928640163205" lon="8.439540810555965"><ele>138.0</ele><time>2026-04-18T07:58:06.999Z</time></trkpt><trkpt lat="44.99276166167894" lon="8.439435616245259"><ele>138.0</ele><time>2026-04-18T07:58:07.999Z</time></trkpt><trkpt lat="44.99264716138266" lon="8.439339227498936"><ele>138.0</ele><time>2026-04-18T07:58:08.999Z</time></trkpt><trkpt lat="44.99255713117194" lon="8.43923565857493"><ele>138.0</ele><time>2026-04-18T07:58:09.999Z</time></trkpt><trkpt lat="44.99245729877258" lon="8.439111625918372"><ele>138.0</ele><time>2026-04-18T07:58:10.999Z</time></trkpt><trkpt lat="44.99236315514019" lon="8.438987775542724"><ele>138.0</ele><time>2026-04-18T07:58:11.999Z</time></trkpt><trkpt lat="44.992272176504486" lon="8.438867954723152"><ele>138.0</ele><time>2026-04-18T07:58:12.999Z</time></trkpt><trkpt lat="44.99218488825986" lon="8.438725436866997"><ele>138.0</ele><time>2026-04-18T07:58:13.999Z</time></trkpt><trkpt lat="44.99209470147381" lon="8.43857224125564"><ele>138.75</ele><time>2026-04-18T07:58:14.999Z</time></trkpt><trkpt lat="44.99199838410008" lon="8.438419345853568"><ele>139.5</ele><time>2026-04-18T07:58:15.999Z</time></trkpt><trkpt lat="44.99189587486053" lon="8.43826061550563"><ele>140.25</ele><time>2026-04-18T07:58:16.999Z</time></trkpt><trkpt lat="44.99178964436348" lon="8.43811240353451"><ele>141.0</ele><time>2026-04-18T07:58:17.999Z</time></trkpt><trkpt lat="44.991691226825395" lon="8.437954013667792"><ele>140.66666666666666</ele><time>2026-04-18T07:58:18.999Z</time></trkpt><trkpt lat="44.991578980393484" lon="8.437800622505327"><ele>140.33333333333331</ele><time>2026-04-18T07:58:19.999Z</time></trkpt><trkpt lat="44.99146882289207" lon="8.437641521190923"><ele>140.0</ele><time>2026-04-18T07:58:20.999Z</time></trkpt><trkpt lat="44.99135947947838" lon="8.43748160589189"><ele>140.0</ele><time>2026-04-18T07:58:21.999Z</time></trkpt><trkpt lat="44.991252994376964" lon="8.437328040936416"><ele>140.0</ele><time>2026-04-18T07:58:22.999Z</time></trkpt><trkpt lat="44.991151147103984" lon="8.43717902583926"><ele>140.0</ele><time>2026-04-18T07:58:23.999Z</time></trkpt><trkpt lat="44.99104665661667" lon="8.437027219130846"><ele>140.0</ele><time>2026-04-18T07:58:24.999Z</time></trkpt><trkpt lat="44.990949463495554" lon="8.436889152574281"><ele>140.25</ele><time>2026-04-18T07:58:25.999Z</time></trkpt><trkpt lat="44.99085504685928" lon="8.436757503715583"><ele>140.5</ele><time>2026-04-18T07:58:26.999Z</time></trkpt><trkpt lat="44.9907694649602" lon="8.436635237456679"><ele>140.75</ele><time>2026-04-18T07:58:27.999Z</time></trkpt><trkpt lat="44.99068564088687" lon="8.43651581508003"><ele>141.0</ele><time>2026-04-18T07:58:28.999Z</time></trkpt><trkpt lat="44.99062943984128" lon="8.436378164245886"><ele>140.5</ele><time>2026-04-18T07:58:29.999Z</time></trkpt><trkpt lat="44.9905796464071" lon="8.436227307577642"><ele>140.0</ele><time>2026-04-18T07:58:30.999Z</time></trkpt><trkpt lat="44.99054616591064" lon="8.436056681978407"><ele>139.5</ele><time>2026-04-18T07:58:31.999Z</time></trkpt><trkpt lat="44.990517896547296" lon="8.435875639160619"><ele>139.0</ele><time>2026-04-18T07:58:32.999Z</time></trkpt><trkpt lat="44.990472225706576" lon="8.435704754759774"><ele>139.0</ele><time>2026-04-18T07:58:33.999Z</time></trkpt><trkpt lat="44.99044668526409" lon="8.435543950368464"><ele>139.0</ele><time>2026-04-18T07:58:35Z</time></trkpt><trkpt lat="44.99040413416348" lon="8.435393397854838"><ele>139.0</ele><time>2026-04-18T07:58:36Z</time></trkpt><trkpt lat="44.99033408043238" lon="8.435241018427984"><ele>139.0</ele><time>2026-04-18T07:58:37Z</time></trkpt><trkpt lat="44.9902405700808" lon="8.435103092886237"><ele>139.6</ele><time>2026-04-18T07:58:38Z</time></trkpt><trkpt lat="44.99015768940736" lon="8.43498271745148"><ele>140.2</ele><time>2026-04-18T07:58:39Z</time></trkpt><trkpt lat="44.99010402165301" lon="8.434854415280741"><ele>140.79999999999998</ele><time>2026-04-18T07:58:40Z</time></trkpt><trkpt lat="44.99007757006374" lon="8.434744307541104"><ele>141.4</ele><time>2026-04-18T07:58:41Z</time></trkpt><trkpt lat="44.99005490793219" lon="8.434615420516526"><ele>142.0</ele><time>2026-04-18T07:58:42Z</time></trkpt><trkpt lat="44.99003807716247" lon="8.434487670658037"><ele>142.4</ele><time>2026-04-18T07:58:43Z</time></trkpt><trkpt lat="44.99003631622683" lon="8.434342276548954"><ele>142.79999999999998</ele><time>2026-04-18T07:58:44Z</time></trkpt><trkpt lat="44.99004417018716" lon="8.434202350102852"><ele>143.2</ele><time>2026-04-18T07:58:45Z</time></trkpt><trkpt lat="44.99006589521709" lon="8.434057734586386"><ele>143.6</ele><time>2026-04-18T07:58:46Z</time></trkpt><trkpt lat="44.990111350153654" lon="8.433895654142473"><ele>144.0</ele><time>2026-04-18T07:58:47Z</time></trkpt><trkpt lat="44.99014621286064" lon="8.433732632034888"><ele>144.2</ele><time>2026-04-18T07:58:48Z</time></trkpt><trkpt lat="44.99015741271211" lon="8.433583957885778"><ele>144.4</ele><time>2026-04-18T07:58:49Z</time></trkpt><trkpt lat="44.990183337546064" lon="8.433447323929576"><ele>144.6</ele><time>2026-04-18T07:58:50Z</time></trkpt><trkpt lat="44.99015978549603" lon="8.433286563148949"><ele>144.8</ele><time>2026-04-18T07:58:51Z</time></trkpt><trkpt lat="44.99013623348231" lon="8.433122151156033"><ele>145.0</ele><time>2026-04-18T07:58:52Z</time></trkpt><trkpt lat="44.99011733954059" lon="8.432948650658181"><ele>144.25</ele><time>2026-04-18T07:58:53Z</time></trkpt><trkpt lat="44.990087697519314" lon="8.432772846365328"><ele>143.5</ele><time>2026-04-18T07:58:54Z</time></trkpt><trkpt lat="44.99006318494566" lon="8.432605550386558"><ele>142.75</ele><time>2026-04-18T07:58:55Z</time></trkpt><trkpt lat="44.99004007891835" lon="8.432447385387624"><ele>142.0</ele><time>2026-04-18T07:58:56Z</time></trkpt><trkpt lat="44.99000387833393" lon="8.432309524802012"><ele>142.0</ele><time>2026-04-18T07:58:57Z</time></trkpt><trkpt lat="44.989984121489016" lon="8.432157037420748"><ele>142.0</ele><time>2026-04-18T07:58:58Z</time></trkpt><trkpt lat="44.989959443061316" lon="8.431993167009647"><ele>142.0</ele><time>2026-04-18T07:58:59Z</time></trkpt><trkpt lat="44.989925836178806" lon="8.4318257261231"><ele>142.0</ele><time>2026-04-18T07:59:00Z</time></trkpt><trkpt lat="44.9898915499605" lon="8.43166218631626"><ele>142.0</ele><time>2026-04-18T07:59:01Z</time></trkpt><trkpt lat="44.989852551747965" lon="8.431495264870017"><ele>142.0</ele><time>2026-04-18T07:59:02Z</time></trkpt><trkpt lat="44.989810694089115" lon="8.431334714527656"><ele>142.0</ele><time>2026-04-18T07:59:03Z</time></trkpt><trkpt lat="44.98976898939551" lon="8.431169715524574"><ele>142.0</ele><time>2026-04-18T07:59:04Z</time></trkpt><trkpt lat="44.989725835085416" lon="8.431004838684425"><ele>142.5</ele><time>2026-04-18T07:59:05Z</time></trkpt><trkpt lat="44.98968587561204" lon="8.430852725250944"><ele>143.0</ele><time>2026-04-18T07:59:06Z</time></trkpt><trkpt lat="44.989649221824095" lon="8.430711147160483"><ele>143.5</ele><time>2026-04-18T07:59:07Z</time></trkpt><trkpt lat="44.98959381086894" lon="8.430577967710017"><ele>144.0</ele><time>2026-04-18T07:59:07.999Z</time></trkpt><trkpt lat="44.98952600104853" lon="8.43042731118682"><ele>144.0</ele><time>2026-04-18T07:59:08.999Z</time></trkpt><trkpt lat="44.989465831256375" lon="8.430283166228667"><ele>144.0</ele><time>2026-04-18T07:59:09.999Z</time></trkpt><trkpt lat="44.989402889702745" lon="8.430130544822045"><ele>144.0</ele><time>2026-04-18T07:59:10.999Z</time></trkpt><trkpt lat="44.989347575182514" lon="8.429973190626477"><ele>144.0</ele><time>2026-04-18T07:59:11.999Z</time></trkpt><trkpt lat="44.9893004741121" lon="8.42981044029959"><ele>143.6</ele><time>2026-04-18T07:59:12.999Z</time></trkpt><trkpt lat="44.989260590333316" lon="8.429641657012132"><ele>143.2</ele><time>2026-04-18T07:59:13.999Z</time></trkpt><trkpt lat="44.98923078867378" lon="8.429484738164124"><ele>142.79999999999998</ele><time>2026-04-18T07:59:14.999Z</time></trkpt><trkpt lat="44.98923340423044" lon="8.429346133334729"><ele>142.4</ele><time>2026-04-18T07:59:15.999Z</time></trkpt><trkpt lat="44.98923596104229" lon="8.429221124105995"><ele>142.0</ele><time>2026-04-18T07:59:16.999Z</time></trkpt><trkpt lat="44.98926264116532" lon="8.429092175726575"><ele>142.0</ele><time>2026-04-18T07:59:17.999Z</time></trkpt><trkpt lat="44.9893157527406" lon="8.428967797161338"><ele>142.0</ele><time>2026-04-18T07:59:18.999Z</time></trkpt><trkpt lat="44.98938574543945" lon="8.428829523238095"><ele>142.0</ele><time>2026-04-18T07:59:19.999Z</time></trkpt><trkpt lat="44.98944844253509" lon="8.428719499275466"><ele>142.0</ele><time>2026-04-18T07:59:20.999Z</time></trkpt><trkpt lat="44.98951048858895" lon="8.428646220897603"><ele>142.0</ele><time>2026-04-18T07:59:21.999Z</time></trkpt><trkpt lat="44.98958500970976" lon="8.42858424443573"><ele>142.0</ele><time>2026-04-18T07:59:22.999Z</time></trkpt><trkpt lat="44.98967191549712" lon="8.42854872069835"><ele>142.0</ele><time>2026-04-18T07:59:23.999Z</time></trkpt><trkpt lat="44.98976834735619" lon="8.428553892727146"><ele>142.0</ele><time>2026-04-18T07:59:24.999Z</time></trkpt><trkpt lat="44.98983755786517" lon="8.428525622024548"><ele>142.0</ele><time>2026-04-18T07:59:25.999Z</time></trkpt><trkpt lat="44.98994157446715" lon="8.42847711118935"><ele>142.0</ele><time>2026-04-18T07:59:27.999Z</time></trkpt><trkpt lat="44.989956180390514" lon="8.428345886746376"><ele>142.0</ele><time>2026-04-18T07:59:28.999Z</time></trkpt><trkpt lat="44.98996303843697" lon="8.428217206923552"><ele>142.0</ele><time>2026-04-18T07:59:29.999Z</time></trkpt><trkpt lat="44.98993025996539" lon="8.428050922916311"><ele>142.0</ele><time>2026-04-18T07:59:30.999Z</time></trkpt><trkpt lat="44.9899178480423" lon="8.42786863207735"><ele>142.0</ele><time>2026-04-18T07:59:31.999Z</time></trkpt><trkpt lat="44.989885440412195" lon="8.4276825543246"><ele>143.25</ele><time>2026-04-18T07:59:32.999Z</time></trkpt><trkpt lat="44.98983774845193" lon="8.42751140492932"><ele>144.5</ele><time>2026-04-18T07:59:33.999Z</time></trkpt><trkpt lat="44.989803608222985" lon="8.427333227305121"><ele>145.75</ele><time>2026-04-18T07:59:34.999Z</time></trkpt><trkpt lat="44.98976868241697" lon="8.427155265777463"><ele>147.0</ele><time>2026-04-18T07:59:35.999Z</time></trkpt><trkpt lat="44.989743852860194" lon="8.426977268997296"><ele>147.75</ele><time>2026-04-18T07:59:36.999Z</time></trkpt><trkpt lat="44.98972233469137" lon="8.426811187294396"><ele>148.5</ele><time>2026-04-18T07:59:37.999Z</time></trkpt><trkpt lat="44.98969173252521" lon="8.426655346921423"><ele>149.25</ele><time>2026-04-18T07:59:38.999Z</time></trkpt><trkpt lat="44.989654120701196" lon="8.426499084768265"><ele>150.0</ele><time>2026-04-18T07:59:39.999Z</time></trkpt><trkpt lat="44.98960418475763" lon="8.42635452713834"><ele>149.75</ele><time>2026-04-18T07:59:40.999Z</time></trkpt><trkpt lat="44.989542583014874" lon="8.426205907397854"><ele>149.5</ele><time>2026-04-18T07:59:41.999Z</time></trkpt><trkpt lat="44.98948283743518" lon="8.426048356589257"><ele>149.25</ele><time>2026-04-18T07:59:42.999Z</time></trkpt><trkpt lat="44.98941939800748" lon="8.425888637565201"><ele>149.0</ele><time>2026-04-18T07:59:43.999Z</time></trkpt><trkpt lat="44.98935968025348" lon="8.425738308622458"><ele>149.0</ele><time>2026-04-18T07:59:44.999Z</time></trkpt><trkpt lat="44.9893020582955" lon="8.42558515007804"><ele>149.0</ele><time>2026-04-18T07:59:45.999Z</time></trkpt><trkpt lat="44.989247064111055" lon="8.425440012696415"><ele>149.0</ele><time>2026-04-18T07:59:46.999Z</time></trkpt><trkpt lat="44.98918328792389" lon="8.425320127840976"><ele>149.0</ele><time>2026-04-18T07:59:47.999Z</time></trkpt><trkpt lat="44.98911701598327" lon="8.42521001157113"><ele>149.0</ele><time>2026-04-18T07:59:48.999Z</time></trkpt><trkpt lat="44.98902974463628" lon="8.425105427924535"><ele>148.8</ele><time>2026-04-18T07:59:49.999Z</time></trkpt><trkpt lat="44.988946788657714" lon="8.424985561818078"><ele>148.60000000000002</ele><time>2026-04-18T07:59:50.999Z</time></trkpt><trkpt lat="44.98888809133677" lon="8.424857475932793"><ele>148.4</ele><time>2026-04-18T07:59:51.999Z</time></trkpt><trkpt lat="44.98883842981085" lon="8.42473281365888"><ele>148.20000000000002</ele><time>2026-04-18T07:59:52.999Z</time></trkpt><trkpt lat="44.98880382760109" lon="8.424593735536927"><ele>148.0</ele><time>2026-04-18T07:59:53.999Z</time></trkpt><trkpt lat="44.98877233388176" lon="8.424440190026864"><ele>148.0</ele><time>2026-04-18T07:59:54.999Z</time></trkpt><trkpt lat="44.988751541220395" lon="8.42427400636783"><ele>148.0</ele><time>2026-04-18T07:59:55.999Z</time></trkpt><trkpt lat="44.98874300774308" lon="8.424109031002429"><ele>148.0</ele><time>2026-04-18T07:59:56.999Z</time></trkpt><trkpt lat="44.98874499970086" lon="8.423949790632813"><ele>148.0</ele><time>2026-04-18T07:59:57.999Z</time></trkpt><trkpt lat="44.988758194626804" lon="8.423794805190315"><ele>148.20000000000002</ele><time>2026-04-18T07:59:58.999Z</time></trkpt><trkpt lat="44.988782880533876" lon="8.423648693978189"><ele>148.4</ele><time>2026-04-18T07:59:59.999Z</time></trkpt><trkpt lat="44.988818534824034" lon="8.423500297066246"><ele>148.60000000000002</ele><time>2026-04-18T08:00:00.999Z</time></trkpt><trkpt lat="44.988866329058304" lon="8.4233642723749"><ele>148.8</ele><time>2026-04-18T08:00:01.999Z</time></trkpt><trkpt lat="44.9889260831611" lon="8.423227241428751"><ele>149.0</ele><time>2026-04-18T08:00:02.999Z</time></trkpt><trkpt lat="44.98898506522538" lon="8.423092457248943"><ele>149.0</ele><time>2026-04-18T08:00:03.999Z</time></trkpt><trkpt lat="44.98901102850681" lon="8.422955195784242"><ele>149.0</ele><time>2026-04-18T08:00:04.999Z</time></trkpt><trkpt lat="44.98903053656596" lon="8.422806588655558"><ele>149.0</ele><time>2026-04-18T08:00:05.999Z</time></trkpt><trkpt lat="44.98903380723213" lon="8.422633569933831"><ele>149.0</ele><time>2026-04-18T08:00:06.999Z</time></trkpt><trkpt lat="44.98903937904003" lon="8.422448236698628"><ele>149.0</ele><time>2026-04-18T08:00:07.999Z</time></trkpt><trkpt lat="44.989030764578615" lon="8.422264060713776"><ele>149.0</ele><time>2026-04-18T08:00:08.999Z</time></trkpt><trkpt lat="44.98902425289587" lon="8.42208345437997"><ele>149.0</ele><time>2026-04-18T08:00:09.999Z</time></trkpt><trkpt lat="44.989018398529055" lon="8.421899982527885"><ele>149.0</ele><time>2026-04-18T08:00:10.999Z</time></trkpt><trkpt lat="44.98900747439593" lon="8.42173596448433"><ele>149.0</ele><time>2026-04-18T08:00:11.999Z</time></trkpt><trkpt lat="44.988998768615645" lon="8.421581701229229"><ele>149.0</ele><time>2026-04-18T08:00:12.999Z</time></trkpt><trkpt lat="44.9889908706855" lon="8.421421720358953"><ele>149.0</ele><time>2026-04-18T08:00:13.999Z</time></trkpt><trkpt lat="44.98897154760697" lon="8.421254767917851"><ele>149.0</ele><time>2026-04-18T08:00:14.999Z</time></trkpt><trkpt lat="44.988958092955386" lon="8.421099979969858"><ele>149.2</ele><time>2026-04-18T08:00:15.999Z</time></trkpt><trkpt lat="44.988948876532874" lon="8.420977200321916"><ele>149.4</ele><time>2026-04-18T08:00:16.999Z</time></trkpt><trkpt lat="44.988944646695344" lon="8.420778287181214"><ele>149.6</ele><time>2026-04-18T08:00:18.999Z</time></trkpt><trkpt lat="44.98894813411165" lon="8.420653103431338"><ele>149.8</ele><time>2026-04-18T08:00:19.999Z</time></trkpt><trkpt lat="44.98895244991337" lon="8.420516071719476"><ele>150.0</ele><time>2026-04-18T08:00:20.999Z</time></trkpt><trkpt lat="44.988937467305874" lon="8.420370285952368"><ele>150.0</ele><time>2026-04-18T08:00:21.999Z</time></trkpt><trkpt lat="44.98891500268946" lon="8.420220794607719"><ele>150.0</ele><time>2026-04-18T08:00:22.999Z</time></trkpt><trkpt lat="44.98889796209482" lon="8.420075382014396"><ele>150.0</ele><time>2026-04-18T08:00:23.999Z</time></trkpt><trkpt lat="44.9888774277626" lon="8.41995782393024"><ele>150.0</ele><time>2026-04-18T08:00:24.999Z</time></trkpt><trkpt lat="44.9888492905362" lon="8.419797839551226"><ele>150.0</ele><time>2026-04-18T08:00:25.999Z</time></trkpt><trkpt lat="44.98881898366471" lon="8.419657195510249"><ele>150.5</ele><time>2026-04-18T08:00:26.999Z</time></trkpt><trkpt lat="44.98878855294914" lon="8.419504856500717"><ele>151.0</ele><time>2026-04-18T08:00:27.999Z</time></trkpt><trkpt lat="44.98876367953621" lon="8.419354831122424"><ele>151.5</ele><time>2026-04-18T08:00:28.999Z</time></trkpt><trkpt lat="44.988737184315475" lon="8.419199806934687"><ele>152.0</ele><time>2026-04-18T08:00:29.999Z</time></trkpt><trkpt lat="44.988705373071085" lon="8.419030311526779"><ele>152.0</ele><time>2026-04-18T08:00:30.999Z</time></trkpt><trkpt lat="44.988676590861076" lon="8.41886897857507"><ele>152.0</ele><time>2026-04-18T08:00:31.999Z</time></trkpt><trkpt lat="44.98865949310378" lon="8.418716236542865"><ele>152.0</ele><time>2026-04-18T08:00:32.999Z</time></trkpt><trkpt lat="44.98865417158998" lon="8.41857332798067"><ele>152.0</ele><time>2026-04-18T08:00:33.999Z</time></trkpt><trkpt lat="44.98863103759447" lon="8.41845182994055"><ele>152.0</ele><time>2026-04-18T08:00:34.999Z</time></trkpt><trkpt lat="44.98865714385356" lon="8.418323478155243"><ele>152.0</ele><time>2026-04-18T08:00:35.999Z</time></trkpt><trkpt lat="44.988678736656475" lon="8.418191127237865"><ele>152.0</ele><time>2026-04-18T08:00:36.999Z</time></trkpt><trkpt lat="44.98870914985465" lon="8.418047038008023"><ele>152.0</ele><time>2026-04-18T08:00:37.999Z</time></trkpt><trkpt lat="44.988746446599826" lon="8.417910892318746"><ele>152.0</ele><time>2026-04-18T08:00:38.999Z</time></trkpt><trkpt lat="44.98877738908236" lon="8.417761392615155"><ele>152.0</ele><time>2026-04-18T08:00:39.999Z</time></trkpt><trkpt lat="44.98882736689149" lon="8.41762021322377"><ele>151.4</ele><time>2026-04-18T08:00:41Z</time></trkpt><trkpt lat="44.98886761200172" lon="8.417489414010568"><ele>150.79999999999998</ele><time>2026-04-18T08:00:42Z</time></trkpt><trkpt lat="44.98890574014881" lon="8.417348261630321"><ele>150.2</ele><time>2026-04-18T08:00:43Z</time></trkpt><trkpt lat="44.98896237558239" lon="8.417217958037542"><ele>149.6</ele><time>2026-04-18T08:00:44Z</time></trkpt><trkpt lat="44.98901920292881" lon="8.417090073278981"><ele>149.0</ele><time>2026-04-18T08:00:45Z</time></trkpt><trkpt lat="44.98908229810202" lon="8.416966238592545"><ele>148.2</ele><time>2026-04-18T08:00:46Z</time></trkpt><trkpt lat="44.98915102151141" lon="8.41684101584241"><ele>147.4</ele><time>2026-04-18T08:00:47Z</time></trkpt><trkpt lat="44.98922589442159" lon="8.416711209709742"><ele>146.6</ele><time>2026-04-18T08:00:48Z</time></trkpt><trkpt lat="44.98929085595303" lon="8.416599437629339"><ele>145.8</ele><time>2026-04-18T08:00:49Z</time></trkpt><trkpt lat="44.98934379927689" lon="8.41649242766835"><ele>145.0</ele><time>2026-04-18T08:00:50Z</time></trkpt><trkpt lat="44.9894099408176" lon="8.416382541177766"><ele>146.5</ele><time>2026-04-18T08:00:51Z</time></trkpt><trkpt lat="44.98946939072058" lon="8.416252169886429"><ele>148.0</ele><time>2026-04-18T08:00:52Z</time></trkpt><trkpt lat="44.98954722001883" lon="8.416136005037178"><ele>149.5</ele><time>2026-04-18T08:00:53Z</time></trkpt><trkpt lat="44.98959226068029" lon="8.415987275788389"><ele>151.0</ele><time>2026-04-18T08:00:54Z</time></trkpt><trkpt lat="44.98964376978793" lon="8.415845571111355"><ele>151.0</ele><time>2026-04-18T08:00:55Z</time></trkpt><trkpt lat="44.98968133693488" lon="8.415704015724495"><ele>151.0</ele><time>2026-04-18T08:00:56Z</time></trkpt><trkpt lat="44.98970180443589" lon="8.415583471184867"><ele>151.0</ele><time>2026-04-18T08:00:57Z</time></trkpt><trkpt lat="44.98972417274087" lon="8.415465772427106"><ele>151.0</ele><time>2026-04-18T08:00:58Z</time></trkpt><trkpt lat="44.989738805650305" lon="8.415328381122992"><ele>151.0</ele><time>2026-04-18T08:00:59Z</time></trkpt><trkpt lat="44.98975267099608" lon="8.415202077254001"><ele>150.8</ele><time>2026-04-18T08:01:00Z</time></trkpt><trkpt lat="44.98976946676724" lon="8.415066564802567"><ele>150.6</ele><time>2026-04-18T08:01:01Z</time></trkpt><trkpt lat="44.98978199832986" lon="8.414922881799994"><ele>150.4</ele><time>2026-04-18T08:01:02Z</time></trkpt><trkpt lat="44.9897946072678" lon="8.414779550752428"><ele>150.2</ele><time>2026-04-18T08:01:03Z</time></trkpt><trkpt lat="44.9897984408799" lon="8.414636319523423"><ele>150.0</ele><time>2026-04-18T08:01:04Z</time></trkpt><trkpt lat="44.989806957082045" lon="8.414483255958036"><ele>149.75</ele><time>2026-04-18T08:01:05Z</time></trkpt><trkpt lat="44.989818688555786" lon="8.414316039892514"><ele>149.5</ele><time>2026-04-18T08:01:06Z</time></trkpt><trkpt lat="44.98982155755615" lon="8.414150618443484"><ele>149.25</ele><time>2026-04-18T08:01:07Z</time></trkpt><trkpt lat="44.98983106728746" lon="8.413986668697353"><ele>149.0</ele><time>2026-04-18T08:01:08Z</time></trkpt><trkpt lat="44.989833013984935" lon="8.413819329714318"><ele>148.66666666666666</ele><time>2026-04-18T08:01:09Z</time></trkpt><trkpt lat="44.98984003250605" lon="8.413658428123933"><ele>148.33333333333331</ele><time>2026-04-18T08:01:10Z</time></trkpt><trkpt lat="44.98984482632909" lon="8.41353236398021"><ele>148.0</ele><time>2026-04-18T08:01:11Z</time></trkpt><trkpt lat="44.989849105634285" lon="8.41343964281638"><ele>147.66666666666666</ele><time>2026-04-18T08:01:12Z</time></trkpt><trkpt lat="44.98985426403645" lon="8.413342633076342"><ele>147.33333333333334</ele><time>2026-04-18T08:01:13Z</time></trkpt><trkpt lat="44.98985634453773" lon="8.41323312830398"><ele>147.0</ele><time>2026-04-18T08:01:14Z</time></trkpt><trkpt lat="44.989863142883074" lon="8.413125671923"><ele>147.0</ele><time>2026-04-18T08:01:15Z</time></trkpt><trkpt lat="44.98987640159822" lon="8.413028231738142"><ele>147.0</ele><time>2026-04-18T08:01:16Z</time></trkpt><trkpt lat="44.98988396175393" lon="8.412904395315266"><ele>147.0</ele><time>2026-04-18T08:01:17Z</time></trkpt><trkpt lat="44.98990209186773" lon="8.412781177494798"><ele>147.0</ele><time>2026-04-18T08:01:18Z</time></trkpt><trkpt lat="44.989920041957006" lon="8.412667038823482"><ele>147.0</ele><time>2026-04-18T08:01:19Z</time></trkpt><trkpt lat="44.98993513597312" lon="8.412580038827272"><ele>147.0</ele><time>2026-04-18T08:01:20Z</time></trkpt><trkpt lat="44.989952295108175" lon="8.412478135780983"><ele>147.16666666666666</ele><time>2026-04-18T08:01:21Z</time></trkpt><trkpt lat="44.989968943952164" lon="8.412349523108238"><ele>147.33333333333334</ele><time>2026-04-18T08:01:22Z</time></trkpt><trkpt lat="44.99000867975294" lon="8.412244906152079"><ele>147.5</ele><time>2026-04-18T08:01:23Z</time></trkpt><trkpt lat="44.990033862473105" lon="8.41214392837233"><ele>147.66666666666669</ele><time>2026-04-18T08:01:24Z</time></trkpt><trkpt lat="44.990064819981626" lon="8.412025342244903"><ele>147.83333333333334</ele><time>2026-04-18T08:01:24.999Z</time></trkpt><trkpt lat="44.990096427649576" lon="8.411906302114646"><ele>148.0</ele><time>2026-04-18T08:01:25.999Z</time></trkpt><trkpt lat="44.99012646855033" lon="8.411793162692286"><ele>148.16666666666669</ele><time>2026-04-18T08:01:26.999Z</time></trkpt><trkpt lat="44.99016058606283" lon="8.411665898322857"><ele>148.33333333333334</ele><time>2026-04-18T08:01:27.999Z</time></trkpt><trkpt lat="44.99019380911168" lon="8.411542563425325"><ele>148.5</ele><time>2026-04-18T08:01:28.999Z</time></trkpt><trkpt lat="44.99022661023157" lon="8.411423132108903"><ele>148.66666666666666</ele><time>2026-04-18T08:01:29.999Z</time></trkpt><trkpt lat="44.990257443602815" lon="8.411313204433155"><ele>148.83333333333331</ele><time>2026-04-18T08:01:30.999Z</time></trkpt><trkpt lat="44.99028547553053" lon="8.41120197031393"><ele>149.0</ele><time>2026-04-18T08:01:31.999Z</time></trkpt><trkpt lat="44.99030267626415" lon="8.411100718384553"><ele>149.0</ele><time>2026-04-18T08:01:32.999Z</time></trkpt><trkpt lat="44.990312839481554" lon="8.410989841537345"><ele>149.0</ele><time>2026-04-18T08:01:33.999Z</time></trkpt><trkpt lat="44.99030126057925" lon="8.410883849352553"><ele>149.0</ele><time>2026-04-18T08:01:34.999Z</time></trkpt><trkpt lat="44.99028951875093" lon="8.41077878561291"><ele>149.0</ele><time>2026-04-18T08:01:35.999Z</time></trkpt><trkpt lat="44.99027415974505" lon="8.41067951944469"><ele>149.0</ele><time>2026-04-18T08:01:36.999Z</time></trkpt><trkpt lat="44.99025603210192" lon="8.410530392098947"><ele>149.0</ele><time>2026-04-18T08:01:38.999Z</time></trkpt><trkpt lat="44.99024694654824" lon="8.410380994551689"><ele>149.4</ele><time>2026-04-18T08:01:40.999Z</time></trkpt><trkpt lat="44.99025502614803" lon="8.410228549787641"><ele>149.8</ele><time>2026-04-18T08:01:42.999Z</time></trkpt><trkpt lat="44.990271579605256" lon="8.410096896432064"><ele>150.2</ele><time>2026-04-18T08:01:44.999Z</time></trkpt><trkpt lat="44.99031265499625" lon="8.409973753546781"><ele>150.6</ele><time>2026-04-18T08:01:46.999Z</time></trkpt><trkpt lat="44.99037876693833" lon="8.409886252759552"><ele>151.0</ele><time>2026-04-18T08:01:48.999Z</time></trkpt><trkpt lat="44.99046101212897" lon="8.40990480557179"><ele>151.0</ele><time>2026-04-18T08:01:50.999Z</time></trkpt><trkpt lat="44.99052901947679" lon="8.409892949056015"><ele>151.0</ele><time>2026-04-18T08:01:52.999Z</time></trkpt><trkpt lat="44.990645474103836" lon="8.409851989376909"><ele>151.0</ele><time>2026-04-18T08:01:53.999Z</time></trkpt><trkpt lat="44.99054326176783" lon="8.40966663360659"><ele>151.0</ele><time>2026-04-18T08:01:54.999Z</time></trkpt><trkpt lat="44.99057504682631" lon="8.409576564088923"><ele>151.0</ele><time>2026-04-18T08:01:57.999Z</time></trkpt><trkpt lat="44.99054946858507" lon="8.409663126959142"><ele>151.0</ele><time>2026-04-18T08:02:11.999Z</time></trkpt><trkpt lat="44.99051502333582" lon="8.4097872890743"><ele>151.0</ele><time>2026-04-18T08:02:13.999Z</time></trkpt><trkpt lat="44.99057135221833" lon="8.409838661958055"><ele>151.0</ele><time>2026-04-18T08:02:16.999Z</time></trkpt><trkpt lat="44.99064151297076" lon="8.409801315452363"><ele>151.0</ele><time>2026-04-18T08:02:18.999Z</time></trkpt><trkpt lat="44.990694948182465" lon="8.409667781276664"><ele>151.0</ele><time>2026-04-18T08:02:20.999Z</time></trkpt><trkpt lat="44.990725542322046" lon="8.409482992365774"><ele>150.83333333333334</ele><time>2026-04-18T08:02:22.999Z</time></trkpt><trkpt lat="44.99074466413228" lon="8.409390375453595"><ele>150.66666666666669</ele><time>2026-04-18T08:02:23.999Z</time></trkpt><trkpt lat="44.99076947163207" lon="8.409302653413544"><ele>150.5</ele><time>2026-04-18T08:02:24.999Z</time></trkpt><trkpt lat="44.99079288318159" lon="8.409219617735912"><ele>150.33333333333334</ele><time>2026-04-18T08:02:25.999Z</time></trkpt><trkpt lat="44.99086092441048" lon="8.409080755883403"><ele>150.16666666666666</ele><time>2026-04-18T08:02:27.999Z</time></trkpt><trkpt lat="44.99091786608683" lon="8.408968539398288"><ele>150.0</ele><time>2026-04-18T08:02:29.999Z</time></trkpt><trkpt lat="44.9910001412428" lon="8.40890118149866"><ele>150.5</ele><time>2026-04-18T08:02:31.999Z</time></trkpt><trkpt lat="44.99103937918743" lon="8.408827201473347"><ele>151.0</ele><time>2026-04-18T08:02:32.999Z</time></trkpt><trkpt lat="44.99108152950132" lon="8.408727749774888"><ele>151.5</ele><time>2026-04-18T08:02:33.999Z</time></trkpt><trkpt lat="44.99112382577797" lon="8.408633993390962"><ele>152.0</ele><time>2026-04-18T08:02:34.999Z</time></trkpt><trkpt lat="44.99117293769529" lon="8.40855110194598"><ele>152.5</ele><time>2026-04-18T08:02:35.999Z</time></trkpt><trkpt lat="44.99123669836539" lon="8.408486931176567"><ele>153.0</ele><time>2026-04-18T08:02:36.999Z</time></trkpt><trkpt lat="44.991311188800246" lon="8.408428956391058"><ele>153.0</ele><time>2026-04-18T08:02:37.999Z</time></trkpt><trkpt lat="44.99138092031169" lon="8.4083879903918"><ele>153.0</ele><time>2026-04-18T08:02:38.999Z</time></trkpt><trkpt lat="44.9914533613729" lon="8.408334438361244"><ele>153.0</ele><time>2026-04-18T08:02:39.999Z</time></trkpt><trkpt lat="44.99151222578727" lon="8.408284025169147"><ele>153.0</ele><time>2026-04-18T08:02:40.999Z</time></trkpt><trkpt lat="44.99158412142045" lon="8.408233802023634"><ele>153.0</ele><time>2026-04-18T08:02:41.999Z</time></trkpt><trkpt lat="44.99165607592055" lon="8.40818834214275"><ele>153.0</ele><time>2026-04-18T08:02:42.999Z</time></trkpt><trkpt lat="44.991734709498765" lon="8.408138929657952"><ele>153.33333333333334</ele><time>2026-04-18T08:02:43.999Z</time></trkpt><trkpt lat="44.991809920050315" lon="8.408085977187326"><ele>153.66666666666666</ele><time>2026-04-18T08:02:44.999Z</time></trkpt><trkpt lat="44.99187639016194" lon="8.408016229821506"><ele>154.0</ele><time>2026-04-18T08:02:45.999Z</time></trkpt><trkpt lat="44.99194164039973" lon="8.407939059543272"><ele>154.33333333333331</ele><time>2026-04-18T08:02:47Z</time></trkpt><trkpt lat="44.992002077800585" lon="8.407849650641168"><ele>154.66666666666666</ele><time>2026-04-18T08:02:48Z</time></trkpt><trkpt lat="44.99204900867204" lon="8.407745636261728"><ele>155.0</ele><time>2026-04-18T08:02:49Z</time></trkpt><trkpt lat="44.992086256461015" lon="8.407637849834822"><ele>154.0</ele><time>2026-04-18T08:02:50Z</time></trkpt><trkpt lat="44.99211372089285" lon="8.407530595514425"><ele>153.0</ele><time>2026-04-18T08:02:51Z</time></trkpt><trkpt lat="44.99214273034441" lon="8.40743102207552"><ele>152.0</ele><time>2026-04-18T08:02:52Z</time></trkpt><trkpt lat="44.99216539950061" lon="8.407346892023586"><ele>151.0</ele><time>2026-04-18T08:02:53Z</time></trkpt><trkpt lat="44.992208630028664" lon="8.407194820094842"><ele>150.0</ele><time>2026-04-18T08:02:55Z</time></trkpt><trkpt lat="44.99225083987911" lon="8.407036241126393"><ele>149.66666666666666</ele><time>2026-04-18T08:02:57Z</time></trkpt><trkpt lat="44.9922719415168" lon="8.406930413188363"><ele>149.33333333333334</ele><time>2026-04-18T08:02:58Z</time></trkpt><trkpt lat="44.99229114325283" lon="8.406836315385279"><ele>149.0</ele><time>2026-04-18T08:02:59Z</time></trkpt><trkpt lat="44.99231106648452" lon="8.406740756745984"><ele>148.66666666666669</ele><time>2026-04-18T08:03:00Z</time></trkpt><trkpt lat="44.99233917499122" lon="8.406627302255112"><ele>148.33333333333334</ele><time>2026-04-18T08:03:01Z</time></trkpt><trkpt lat="44.99236736082373" lon="8.406520184248683"><ele>148.0</ele><time>2026-04-18T08:03:02Z</time></trkpt><trkpt lat="44.99239345731128" lon="8.406399397188958"><ele>147.66666666666669</ele><time>2026-04-18T08:03:03Z</time></trkpt><trkpt lat="44.99242046065972" lon="8.406277368275147"><ele>147.33333333333334</ele><time>2026-04-18T08:03:04Z</time></trkpt><trkpt lat="44.99244881145298" lon="8.406160683314793"><ele>147.0</ele><time>2026-04-18T08:03:05Z</time></trkpt><trkpt lat="44.992471649063596" lon="8.406046594431269"><ele>146.66666666666666</ele><time>2026-04-18T08:03:06Z</time></trkpt><trkpt lat="44.99249577835887" lon="8.405937557560518"><ele>146.33333333333331</ele><time>2026-04-18T08:03:07Z</time></trkpt><trkpt lat="44.992518508814875" lon="8.40584066462944"><ele>146.0</ele><time>2026-04-18T08:03:08Z</time></trkpt><trkpt lat="44.992556953559095" lon="8.405748977977355"><ele>146.57142857142856</ele><time>2026-04-18T08:03:09Z</time></trkpt><trkpt lat="44.992579732929315" lon="8.405652442003282"><ele>147.14285714285714</ele><time>2026-04-18T08:03:10Z</time></trkpt><trkpt lat="44.99259374673177" lon="8.405531870063452"><ele>147.71428571428572</ele><time>2026-04-18T08:03:11Z</time></trkpt><trkpt lat="44.99262045779961" lon="8.405430175221195"><ele>148.28571428571428</ele><time>2026-04-18T08:03:12Z</time></trkpt><trkpt lat="44.99264913525052" lon="8.405336619868173"><ele>148.85714285714286</ele><time>2026-04-18T08:03:13Z</time></trkpt><trkpt lat="44.99269076307034" lon="8.40524763751226"><ele>149.42857142857142</ele><time>2026-04-18T08:03:14Z</time></trkpt><trkpt lat="44.992706441145494" lon="8.405156755451028"><ele>150.0</ele><time>2026-04-18T08:03:15Z</time></trkpt><trkpt lat="44.99275400936335" lon="8.40506367106861"><ele>150.16666666666666</ele><time>2026-04-18T08:03:18Z</time></trkpt><trkpt lat="44.99277605960107" lon="8.40496558801459"><ele>150.33333333333334</ele><time>2026-04-18T08:03:20Z</time></trkpt><trkpt lat="44.992804133197154" lon="8.40488043929231"><ele>150.5</ele><time>2026-04-18T08:03:21Z</time></trkpt><trkpt lat="44.99283864317116" lon="8.404784357173813"><ele>150.66666666666669</ele><time>2026-04-18T08:03:22Z</time></trkpt><trkpt lat="44.992890008355786" lon="8.404689384765689"><ele>150.83333333333334</ele><time>2026-04-18T08:03:23Z</time></trkpt><trkpt lat="44.99292641856692" lon="8.404592806856858"><ele>151.0</ele><time>2026-04-18T08:03:24Z</time></trkpt><trkpt lat="44.99294538150301" lon="8.404493676548475"><ele>150.66666666666669</ele><time>2026-04-18T08:03:25Z</time></trkpt><trkpt lat="44.99299101971916" lon="8.404389665140982"><ele>150.33333333333334</ele><time>2026-04-18T08:03:26Z</time></trkpt><trkpt lat="44.993026114711256" lon="8.404285379202763"><ele>150.0</ele><time>2026-04-18T08:03:27Z</time></trkpt><trkpt lat="44.993063973270715" lon="8.404188434699037"><ele>149.66666666666666</ele><time>2026-04-18T08:03:28Z</time></trkpt><trkpt lat="44.9931038422136" lon="8.404082577297046"><ele>149.33333333333331</ele><time>2026-04-18T08:03:29Z</time></trkpt><trkpt lat="44.993139392454836" lon="8.403977996786036"><ele>149.0</ele><time>2026-04-18T08:03:30Z</time></trkpt><trkpt lat="44.993173036850656" lon="8.403879417249293"><ele>148.6</ele><time>2026-04-18T08:03:31Z</time></trkpt><trkpt lat="44.993219087497444" lon="8.403711051531825"><ele>148.2</ele><time>2026-04-18T08:03:33Z</time></trkpt><trkpt lat="44.99324278888733" lon="8.403605868919822"><ele>147.79999999999998</ele><time>2026-04-18T08:03:34Z</time></trkpt><trkpt lat="44.99328343429643" lon="8.403490326492241"><ele>147.4</ele><time>2026-04-18T08:03:35Z</time></trkpt><trkpt lat="44.99329519616481" lon="8.403370626662536"><ele>147.0</ele><time>2026-04-18T08:03:36Z</time></trkpt><trkpt lat="44.99332849308648" lon="8.403244222758092"><ele>147.0</ele><time>2026-04-18T08:03:37Z</time></trkpt><trkpt lat="44.993377287053555" lon="8.403115546131465"><ele>147.0</ele><time>2026-04-18T08:03:38Z</time></trkpt><trkpt lat="44.993403010253246" lon="8.40297356733333"><ele>147.0</ele><time>2026-04-18T08:03:39Z</time></trkpt><trkpt lat="44.99344997360276" lon="8.402835999214352"><ele>147.0</ele><time>2026-04-18T08:03:40Z</time></trkpt><trkpt lat="44.993487975749645" lon="8.402704539508626"><ele>147.0</ele><time>2026-04-18T08:03:41Z</time></trkpt><trkpt lat="44.993520909879855" lon="8.402567012153463"><ele>147.16666666666666</ele><time>2026-04-18T08:03:42Z</time></trkpt><trkpt lat="44.993554766767026" lon="8.4024324304125"><ele>147.33333333333334</ele><time>2026-04-18T08:03:42.999Z</time></trkpt><trkpt lat="44.99360349293539" lon="8.402317535451346"><ele>147.5</ele><time>2026-04-18T08:03:43.999Z</time></trkpt><trkpt lat="44.993613821730676" lon="8.402217266172133"><ele>147.66666666666669</ele><time>2026-04-18T08:03:44.999Z</time></trkpt><trkpt lat="44.99365264092161" lon="8.402140710341854"><ele>147.83333333333334</ele><time>2026-04-18T08:03:45.999Z</time></trkpt><trkpt lat="44.99367863097504" lon="8.402015580877881"><ele>148.0</ele><time>2026-04-18T08:03:46.999Z</time></trkpt><trkpt lat="44.993714423908514" lon="8.401884176110714"><ele>148.0</ele><time>2026-04-18T08:03:47.999Z</time></trkpt><trkpt lat="44.99375006243063" lon="8.401755097439178"><ele>148.0</ele><time>2026-04-18T08:03:48.999Z</time></trkpt><trkpt lat="44.993786332775485" lon="8.401625378837117"><ele>148.0</ele><time>2026-04-18T08:03:49.999Z</time></trkpt><trkpt lat="44.993827424957445" lon="8.401495885066424"><ele>148.0</ele><time>2026-04-18T08:03:50.999Z</time></trkpt><trkpt lat="44.993864294624885" lon="8.401363273324087"><ele>148.0</ele><time>2026-04-18T08:03:51.999Z</time></trkpt><trkpt lat="44.99390095028723" lon="8.401231907213713"><ele>148.8</ele><time>2026-04-18T08:03:52.999Z</time></trkpt><trkpt lat="44.993941801336234" lon="8.401106681474776"><ele>149.60000000000002</ele><time>2026-04-18T08:03:53.999Z</time></trkpt><trkpt lat="44.99397958347427" lon="8.400981274011112"><ele>150.39999999999998</ele><time>2026-04-18T08:03:54.999Z</time></trkpt><trkpt lat="44.99400712681044" lon="8.400875143491918"><ele>151.2</ele><time>2026-04-18T08:03:55.999Z</time></trkpt><trkpt lat="44.994048194895704" lon="8.400699153458891"><ele>152.0</ele><time>2026-04-18T08:03:57.999Z</time></trkpt><trkpt lat="44.99406525012268" lon="8.400611344180152"><ele>152.0</ele><time>2026-04-18T08:03:58.999Z</time></trkpt><trkpt lat="44.994091618986246" lon="8.400500504289175"><ele>152.0</ele><time>2026-04-18T08:03:59.999Z</time></trkpt><trkpt lat="44.994116128699524" lon="8.400395783488321"><ele>152.0</ele><time>2026-04-18T08:04:00.999Z</time></trkpt><trkpt lat="44.99413617924895" lon="8.400285478111766"><ele>152.0</ele><time>2026-04-18T08:04:01.999Z</time></trkpt><trkpt lat="44.99414879635311" lon="8.400163955624512"><ele>152.0</ele><time>2026-04-18T08:04:02.999Z</time></trkpt><trkpt lat="44.994167338786795" lon="8.40003637153729"><ele>152.0</ele><time>2026-04-18T08:04:03.999Z</time></trkpt><trkpt lat="44.99419061723414" lon="8.3999106450863"><ele>151.6</ele><time>2026-04-18T08:04:04.999Z</time></trkpt><trkpt lat="44.994213932964016" lon="8.399773286264773"><ele>151.2</ele><time>2026-04-18T08:04:05.999Z</time></trkpt><trkpt lat="44.9942339798451" lon="8.39963316931379"><ele>150.8</ele><time>2026-04-18T08:04:06.999Z</time></trkpt><trkpt lat="44.99425981832993" lon="8.39948777977187"><ele>150.4</ele><time>2026-04-18T08:04:07.999Z</time></trkpt><trkpt lat="44.99428666739767" lon="8.39934648543589"><ele>150.0</ele><time>2026-04-18T08:04:08.999Z</time></trkpt><trkpt lat="44.99431303286251" lon="8.399200857096794"><ele>150.0</ele><time>2026-04-18T08:04:09.999Z</time></trkpt><trkpt lat="44.994341213246564" lon="8.399060517041542"><ele>150.0</ele><time>2026-04-18T08:04:10.999Z</time></trkpt><trkpt lat="44.994368146217504" lon="8.398908237393911"><ele>150.0</ele><time>2026-04-18T08:04:11.999Z</time></trkpt><trkpt lat="44.99439658883778" lon="8.398758583413333"><ele>150.0</ele><time>2026-04-18T08:04:12.999Z</time></trkpt><trkpt lat="44.99442417605748" lon="8.398607009211899"><ele>150.0</ele><time>2026-04-18T08:04:13.999Z</time></trkpt><trkpt lat="44.99444752365956" lon="8.398456912409678"><ele>150.4</ele><time>2026-04-18T08:04:14.999Z</time></trkpt><trkpt lat="44.994469673267524" lon="8.398308500324626"><ele>150.8</ele><time>2026-04-18T08:04:15.999Z</time></trkpt><trkpt lat="44.99449147848026" lon="8.3981689129121"><ele>151.2</ele><time>2026-04-18T08:04:16.999Z</time></trkpt><trkpt lat="44.9945085419584" lon="8.398043936868596"><ele>151.6</ele><time>2026-04-18T08:04:17.999Z</time></trkpt><trkpt lat="44.994528997500325" lon="8.397921687779185"><ele>152.0</ele><time>2026-04-18T08:04:18.999Z</time></trkpt><trkpt lat="44.99454647977721" lon="8.397800460021815"><ele>152.0</ele><time>2026-04-18T08:04:19.999Z</time></trkpt><trkpt lat="44.99459044197517" lon="8.397682135562983"><ele>152.0</ele><time>2026-04-18T08:04:20.999Z</time></trkpt><trkpt lat="44.994604986926" lon="8.397564916260428"><ele>152.0</ele><time>2026-04-18T08:04:21.999Z</time></trkpt><trkpt lat="44.99465847885668" lon="8.397466257520225"><ele>152.0</ele><time>2026-04-18T08:04:22.999Z</time></trkpt><trkpt lat="44.994703735423016" lon="8.397382886372608"><ele>152.0</ele><time>2026-04-18T08:04:23.999Z</time></trkpt><trkpt lat="44.99476084370227" lon="8.397305621939168"><ele>152.0</ele><time>2026-04-18T08:04:24.999Z</time></trkpt><trkpt lat="44.99482126213532" lon="8.39721930558314"><ele>151.83333333333331</ele><time>2026-04-18T08:04:25.999Z</time></trkpt><trkpt lat="44.99485793792798" lon="8.397119432070422"><ele>151.66666666666666</ele><time>2026-04-18T08:04:26.999Z</time></trkpt><trkpt lat="44.994904789172786" lon="8.397035614379902"><ele>151.5</ele><time>2026-04-18T08:04:27.999Z</time></trkpt><trkpt lat="44.99493290562076" lon="8.396942222237435"><ele>151.33333333333334</ele><time>2026-04-18T08:04:28.999Z</time></trkpt><trkpt lat="44.99495686331447" lon="8.396822848370473"><ele>151.16666666666669</ele><time>2026-04-18T08:04:30.999Z</time></trkpt><trkpt lat="44.99490865659125" lon="8.396699099244326"><ele>151.0</ele><time>2026-04-18T08:04:33.999Z</time></trkpt><trkpt lat="44.99484908125518" lon="8.396667845855319"><ele>151.0</ele><time>2026-04-18T08:04:34.999Z</time></trkpt><trkpt lat="44.99477220671591" lon="8.396631940160104"><ele>151.0</ele><time>2026-04-18T08:04:35.999Z</time></trkpt><trkpt lat="44.99468646270651" lon="8.396592783854771"><ele>151.0</ele><time>2026-04-18T08:04:36.999Z</time></trkpt><trkpt lat="44.99458648233845" lon="8.396555230523852"><ele>151.0</ele><time>2026-04-18T08:04:37.999Z</time></trkpt><trkpt lat="44.99446132511005" lon="8.39651665552801"><ele>151.0</ele><time>2026-04-18T08:04:38.999Z</time></trkpt><trkpt lat="44.99432515817467" lon="8.396467791948405"><ele>151.0</ele><time>2026-04-18T08:04:39.999Z</time></trkpt><trkpt lat="44.9941798027694" lon="8.396397648126216"><ele>151.0</ele><time>2026-04-18T08:04:40.999Z</time></trkpt><trkpt lat="44.994039070563936" lon="8.396329621163868"><ele>151.0</ele><time>2026-04-18T08:04:41.999Z</time></trkpt><trkpt lat="44.993921776530904" lon="8.396271920966482"><ele>151.0</ele><time>2026-04-18T08:04:42.999Z</time></trkpt><trkpt lat="44.99381638914149" lon="8.396222526945996"><ele>150.83333333333334</ele><time>2026-04-18T08:04:43.999Z</time></trkpt><trkpt lat="44.99371883911564" lon="8.396175052486258"><ele>150.66666666666669</ele><time>2026-04-18T08:04:44.999Z</time></trkpt><trkpt lat="44.993628124365394" lon="8.396128105161926"><ele>150.5</ele><time>2026-04-18T08:04:45.999Z</time></trkpt><trkpt lat="44.99354665025616" lon="8.396089103157395"><ele>150.33333333333334</ele><time>2026-04-18T08:04:46.999Z</time></trkpt><trkpt lat="44.99347201412972" lon="8.39605074958011"><ele>150.16666666666666</ele><time>2026-04-18T08:04:47.999Z</time></trkpt><trkpt lat="44.9934051514667" lon="8.396015481207648"><ele>150.0</ele><time>2026-04-18T08:04:48.999Z</time></trkpt><trkpt lat="44.993298590888976" lon="8.395973424248394"><ele>150.0</ele><time>2026-04-18T08:04:50.999Z</time></trkpt><trkpt lat="44.99321168720417" lon="8.395927572953378"><ele>150.0</ele><time>2026-04-18T08:04:54Z</time></trkpt><trkpt lat="44.993133067322006" lon="8.396099571700555"><ele>150.0</ele><time>2026-04-18T08:04:56Z</time></trkpt><trkpt lat="44.9931123905636" lon="8.396210979171844"><ele>150.0</ele><time>2026-04-18T08:04:57Z</time></trkpt><trkpt lat="44.9930919122998" lon="8.396325595933213"><ele>150.0</ele><time>2026-04-18T08:04:58Z</time></trkpt><trkpt lat="44.993065211029815" lon="8.396446854044337"><ele>150.0</ele><time>2026-04-18T08:04:59Z</time></trkpt><trkpt lat="44.993033538703436" lon="8.396577685993803"><ele>150.0</ele><time>2026-04-18T08:05:00Z</time></trkpt><trkpt lat="44.99299896128173" lon="8.396708394191842"><ele>150.0</ele><time>2026-04-18T08:05:01Z</time></trkpt><trkpt lat="44.99296553080958" lon="8.39685023267228"><ele>150.0</ele><time>2026-04-18T08:05:02Z</time></trkpt><trkpt lat="44.99294509201929" lon="8.396941235887818"><ele>150.0</ele><time>2026-04-18T08:05:03Z</time></trkpt><trkpt lat="44.992919070914965" lon="8.397038258974453"><ele>150.0</ele><time>2026-04-18T08:05:04Z</time></trkpt><trkpt lat="44.992808023612405" lon="8.396999739967827"><ele>150.0</ele><time>2026-04-18T08:05:07Z</time></trkpt><trkpt lat="44.99273496999659" lon="8.39699973996733"><ele>150.0</ele><time>2026-04-18T08:05:08Z</time></trkpt><trkpt lat="44.99265252335544" lon="8.397009780801987"><ele>150.0</ele><time>2026-04-18T08:05:09Z</time></trkpt><trkpt lat="44.99257027873656" lon="8.39697481351929"><ele>150.0</ele><time>2026-04-18T08:05:10Z</time></trkpt><trkpt lat="44.9924971027603" lon="8.396945919707944"><ele>150.0</ele><time>2026-04-18T08:05:11Z</time></trkpt><trkpt lat="44.99247511843434" lon="8.396814092698516"><ele>150.0</ele><time>2026-04-18T08:05:12Z</time></trkpt><trkpt lat="44.99246681960338" lon="8.396692282343656"><ele>150.75</ele><time>2026-04-18T08:05:13Z</time></trkpt><trkpt lat="44.992460721287415" lon="8.396537193121924"><ele>151.5</ele><time>2026-04-18T08:05:14Z</time></trkpt><trkpt lat="44.99245641136883" lon="8.396366912100566"><ele>152.25</ele><time>2026-04-18T08:05:15Z</time></trkpt><trkpt lat="44.99243297775344" lon="8.396194598982218"><ele>153.0</ele><time>2026-04-18T08:05:16Z</time></trkpt><trkpt lat="44.992426481548854" lon="8.396017032610326"><ele>153.0</ele><time>2026-04-18T08:05:17Z</time></trkpt><trkpt lat="44.992417781733224" lon="8.395833106021044"><ele>153.0</ele><time>2026-04-18T08:05:18Z</time></trkpt><trkpt lat="44.99240754867601" lon="8.395645126382593"><ele>153.0</ele><time>2026-04-18T08:05:19Z</time></trkpt><trkpt lat="44.99239856477914" lon="8.395469898919417"><ele>153.0</ele><time>2026-04-18T08:05:20Z</time></trkpt><trkpt lat="44.99238914654368" lon="8.395309539518175"><ele>152.8</ele><time>2026-04-18T08:05:21Z</time></trkpt><trkpt lat="44.99238147592252" lon="8.395142415980194"><ele>152.60000000000002</ele><time>2026-04-18T08:05:22Z</time></trkpt><trkpt lat="44.99237406631979" lon="8.395001347044854"><ele>152.39999999999998</ele><time>2026-04-18T08:05:23Z</time></trkpt><trkpt lat="44.9923584878316" lon="8.394889101256338"><ele>152.2</ele><time>2026-04-18T08:05:24Z</time></trkpt><trkpt lat="44.9923263505993" lon="8.394764185976129"><ele>152.0</ele><time>2026-04-18T08:05:26Z</time></trkpt><trkpt lat="44.99227887114684" lon="8.394682022105885"><ele>152.0</ele><time>2026-04-18T08:05:29Z</time></trkpt><trkpt lat="44.992221048862554" lon="8.394607988868643"><ele>152.0</ele><time>2026-04-18T08:05:30Z</time></trkpt><trkpt lat="44.992139790344936" lon="8.39459815886247"><ele>152.0</ele><time>2026-04-18T08:05:31Z</time></trkpt><trkpt lat="44.99207454604202" lon="8.394504111729065"><ele>152.0</ele><time>2026-04-18T08:05:32Z</time></trkpt><trkpt lat="44.99200112891033" lon="8.394421367456134"><ele>152.0</ele><time>2026-04-18T08:05:33Z</time></trkpt><trkpt lat="44.991945375112465" lon="8.394322506719345"><ele>152.0</ele><time>2026-04-18T08:05:34Z</time></trkpt><trkpt lat="44.99208613584577" lon="8.393919329227321"><ele>152.2</ele><time>2026-04-18T08:05:35Z</time></trkpt><trkpt lat="44.99203914933122" lon="8.393810388037146"><ele>152.39999999999998</ele><time>2026-04-18T08:05:36Z</time></trkpt><trkpt lat="44.9919929363553" lon="8.393687943014475"><ele>152.60000000000002</ele><time>2026-04-18T08:05:37Z</time></trkpt><trkpt lat="44.991945982753634" lon="8.393545640224886"><ele>152.8</ele><time>2026-04-18T08:05:38Z</time></trkpt><trkpt lat="44.991905077982835" lon="8.3933981393338"><ele>153.0</ele><time>2026-04-18T08:05:39Z</time></trkpt><trkpt lat="44.99186427176727" lon="8.393252956059824"><ele>153.0</ele><time>2026-04-18T08:05:40Z</time></trkpt><trkpt lat="44.99181928522551" lon="8.393109260708208"><ele>153.0</ele><time>2026-04-18T08:05:41Z</time></trkpt><trkpt lat="44.99177538149235" lon="8.392969690719344"><ele>153.0</ele><time>2026-04-18T08:05:42Z</time></trkpt><trkpt lat="44.991731978909414" lon="8.392830917848487"><ele>153.0</ele><time>2026-04-18T08:05:43Z</time></trkpt><trkpt lat="44.99169729908128" lon="8.392700607854406"><ele>153.0</ele><time>2026-04-18T08:05:44Z</time></trkpt><trkpt lat="44.99166384403503" lon="8.392569018926189"><ele>153.20000000000002</ele><time>2026-04-18T08:05:45Z</time></trkpt><trkpt lat="44.991625460217314" lon="8.392455605478283"><ele>153.4</ele><time>2026-04-18T08:05:46Z</time></trkpt><trkpt lat="44.99160127573275" lon="8.392338624362775"><ele>153.60000000000002</ele><time>2026-04-18T08:05:47Z</time></trkpt><trkpt lat="44.991569215410436" lon="8.39221416012348"><ele>153.8</ele><time>2026-04-18T08:05:48Z</time></trkpt><trkpt lat="44.99153356694546" lon="8.392090703741594"><ele>154.0</ele><time>2026-04-18T08:05:49Z</time></trkpt><trkpt lat="44.99150590908041" lon="8.391969621135479"><ele>154.0</ele><time>2026-04-18T08:05:50Z</time></trkpt><trkpt lat="44.99147401932409" lon="8.391844985046768"><ele>154.0</ele><time>2026-04-18T08:05:51Z</time></trkpt><trkpt lat="44.99143846865583" lon="8.39170728005921"><ele>154.0</ele><time>2026-04-18T08:05:52Z</time></trkpt><trkpt lat="44.99141684200142" lon="8.39159189253742"><ele>154.0</ele><time>2026-04-18T08:05:53Z</time></trkpt><trkpt lat="44.99139756530286" lon="8.391485270514405"><ele>154.0</ele><time>2026-04-18T08:05:53.999Z</time></trkpt><trkpt lat="44.99138713186716" lon="8.391370960308281"><ele>154.0</ele><time>2026-04-18T08:05:54.999Z</time></trkpt><trkpt lat="44.99137922978363" lon="8.391252776616653"><ele>154.0</ele><time>2026-04-18T08:05:55.999Z</time></trkpt><trkpt lat="44.99136707527345" lon="8.391132765772213"><ele>154.0</ele><time>2026-04-18T08:05:56.999Z</time></trkpt><trkpt lat="44.99135478354625" lon="8.391011522739621"><ele>154.0</ele><time>2026-04-18T08:05:57.999Z</time></trkpt><trkpt lat="44.99133939857767" lon="8.39090450818661"><ele>154.0</ele><time>2026-04-18T08:05:58.999Z</time></trkpt><trkpt lat="44.991317069022195" lon="8.390783233376396"><ele>154.0</ele><time>2026-04-18T08:05:59.999Z</time></trkpt><trkpt lat="44.99129609912376" lon="8.390671125108472"><ele>154.0</ele><time>2026-04-18T08:06:00.999Z</time></trkpt><trkpt lat="44.99126935196036" lon="8.390557745641207"><ele>154.0</ele><time>2026-04-18T08:06:01.999Z</time></trkpt><trkpt lat="44.99123414098989" lon="8.390447955432975"><ele>154.0</ele><time>2026-04-18T08:06:02.999Z</time></trkpt><trkpt lat="44.99119861111567" lon="8.39033512279078"><ele>154.0</ele><time>2026-04-18T08:06:03.999Z</time></trkpt><trkpt lat="44.99115446047597" lon="8.390231916994923"><ele>154.0</ele><time>2026-04-18T08:06:04.999Z</time></trkpt><trkpt lat="44.991111138664294" lon="8.390138351442985"><ele>154.0</ele><time>2026-04-18T08:06:05.999Z</time></trkpt><trkpt lat="44.99106538739552" lon="8.390041863484985"><ele>154.0</ele><time>2026-04-18T08:06:06.999Z</time></trkpt><trkpt lat="44.99101622186078" lon="8.389945912625569"><ele>154.0</ele><time>2026-04-18T08:06:07.999Z</time></trkpt><trkpt lat="44.9909598643248" lon="8.389852143673476"><ele>154.0</ele><time>2026-04-18T08:06:08.999Z</time></trkpt><trkpt lat="44.99090544186113" lon="8.389761540863226"><ele>154.0</ele><time>2026-04-18T08:06:09.999Z</time></trkpt><trkpt lat="44.990851431269526" lon="8.389680068262095"><ele>154.0</ele><time>2026-04-18T08:06:10.999Z</time></trkpt><trkpt lat="44.99079057189047" lon="8.389604916528205"><ele>154.0</ele><time>2026-04-18T08:06:11.999Z</time></trkpt><trkpt lat="44.99072368257721" lon="8.389524674593991"><ele>154.0</ele><time>2026-04-18T08:06:12.999Z</time></trkpt><trkpt lat="44.990659715368466" lon="8.389446233199623"><ele>153.5</ele><time>2026-04-18T08:06:13.999Z</time></trkpt><trkpt lat="44.990599667067514" lon="8.389371926635182"><ele>153.0</ele><time>2026-04-18T08:06:14.999Z</time></trkpt><trkpt lat="44.99053414561273" lon="8.3893015396284"><ele>152.5</ele><time>2026-04-18T08:06:15.999Z</time></trkpt><trkpt lat="44.99046072523872" lon="8.389230775925842"><ele>152.0</ele><time>2026-04-18T08:06:16.999Z</time></trkpt><trkpt lat="44.990385921099175" lon="8.389165004132018"><ele>151.5</ele><time>2026-04-18T08:06:17.999Z</time></trkpt><trkpt lat="44.990311117529764" lon="8.389090980740866"><ele>151.0</ele><time>2026-04-18T08:06:18.999Z</time></trkpt><trkpt lat="44.99023915895429" lon="8.389014882295434"><ele>151.0</ele><time>2026-04-18T08:06:19.999Z</time></trkpt><trkpt lat="44.99016584488566" lon="8.388937796886886"><ele>151.0</ele><time>2026-04-18T08:06:20.999Z</time></trkpt><trkpt lat="44.99009530148692" lon="8.388862768581012"><ele>151.0</ele><time>2026-04-18T08:06:21.999Z</time></trkpt><trkpt lat="44.990026666574224" lon="8.388790894206155"><ele>151.0</ele><time>2026-04-18T08:06:22.999Z</time></trkpt><trkpt lat="44.98996214698061" lon="8.388722982624133"><ele>151.0</ele><time>2026-04-18T08:06:23.999Z</time></trkpt><trkpt lat="44.98989010780753" lon="8.388659814221278"><ele>151.0</ele><time>2026-04-18T08:06:24.999Z</time></trkpt><trkpt lat="44.98981907111717" lon="8.38859546758912"><ele>151.16666666666669</ele><time>2026-04-18T08:06:25.999Z</time></trkpt><trkpt lat="44.98974107010679" lon="8.388536238096924"><ele>151.33333333333334</ele><time>2026-04-18T08:06:26.999Z</time></trkpt><trkpt lat="44.98966470042533" lon="8.388486798104735"><ele>151.5</ele><time>2026-04-18T08:06:27.999Z</time></trkpt><trkpt lat="44.989583370200044" lon="8.3884349731417"><ele>151.66666666666666</ele><time>2026-04-18T08:06:28.999Z</time></trkpt><trkpt lat="44.98950266776783" lon="8.388375947760188"><ele>151.83333333333331</ele><time>2026-04-18T08:06:29.999Z</time></trkpt><trkpt lat="44.989418479747584" lon="8.388308179758738"><ele>152.0</ele><time>2026-04-18T08:06:30.999Z</time></trkpt><trkpt lat="44.98933153795523" lon="8.38823881246975"><ele>152.0</ele><time>2026-04-18T08:06:31.999Z</time></trkpt><trkpt lat="44.98924744181323" lon="8.38816391347951"><ele>152.0</ele><time>2026-04-18T08:06:32.999Z</time></trkpt><trkpt lat="44.98917378199434" lon="8.388079870286857"><ele>152.0</ele><time>2026-04-18T08:06:33.999Z</time></trkpt><trkpt lat="44.98911612216388" lon="8.387997975574946"><ele>152.0</ele><time>2026-04-18T08:06:34.999Z</time></trkpt><trkpt lat="44.98906824644397" lon="8.387882326636467"><ele>152.0</ele><time>2026-04-18T08:06:35.999Z</time></trkpt><trkpt lat="44.989029692248366" lon="8.387737929391212"><ele>152.0</ele><time>2026-04-18T08:06:36.999Z</time></trkpt><trkpt lat="44.98898614454474" lon="8.387589599673962"><ele>152.0</ele><time>2026-04-18T08:06:37.999Z</time></trkpt><trkpt lat="44.98894255278182" lon="8.387446892487855"><ele>152.0</ele><time>2026-04-18T08:06:38.999Z</time></trkpt><trkpt lat="44.98889287870392" lon="8.387307943938966"><ele>152.0</ele><time>2026-04-18T08:06:39.999Z</time></trkpt><trkpt lat="44.9888380752371" lon="8.387169584130248"><ele>152.0</ele><time>2026-04-18T08:06:40.999Z</time></trkpt><trkpt lat="44.98877705177084" lon="8.387035895028898"><ele>152.0</ele><time>2026-04-18T08:06:41.999Z</time></trkpt><trkpt lat="44.98871982171765" lon="8.386902619524768"><ele>152.0</ele><time>2026-04-18T08:06:42.999Z</time></trkpt><trkpt lat="44.98867308602363" lon="8.386780745746128"><ele>152.0</ele><time>2026-04-18T08:06:43.999Z</time></trkpt><trkpt lat="44.98863257541909" lon="8.386656321829793"><ele>152.0</ele><time>2026-04-18T08:06:44.999Z</time></trkpt><trkpt lat="44.988593380254336" lon="8.386533972881224"><ele>152.0</ele><time>2026-04-18T08:06:45.999Z</time></trkpt><trkpt lat="44.98853929973289" lon="8.386411869022686"><ele>151.79999999999998</ele><time>2026-04-18T08:06:46.999Z</time></trkpt><trkpt lat="44.98847437820296" lon="8.386295398184235"><ele>151.6</ele><time>2026-04-18T08:06:47.999Z</time></trkpt><trkpt lat="44.98840488897378" lon="8.38617892762525"><ele>151.39999999999998</ele><time>2026-04-18T08:06:48.999Z</time></trkpt><trkpt lat="44.98833725518552" lon="8.386059855117493"><ele>151.2</ele><time>2026-04-18T08:06:49.999Z</time></trkpt><trkpt lat="44.98826860131278" lon="8.3859412178991"><ele>151.0</ele><time>2026-04-18T08:06:50.999Z</time></trkpt><trkpt lat="44.98821683989687" lon="8.385809405576932"><ele>150.8</ele><time>2026-04-18T08:06:51.999Z</time></trkpt><trkpt lat="44.98816295664817" lon="8.385691667797525"><ele>150.6</ele><time>2026-04-18T08:06:52.999Z</time></trkpt><trkpt lat="44.98811673768154" lon="8.385578147967548"><ele>150.4</ele><time>2026-04-18T08:06:53.999Z</time></trkpt><trkpt lat="44.98806240122649" lon="8.385461447267991"><ele>150.2</ele><time>2026-04-18T08:06:54.999Z</time></trkpt><trkpt lat="44.98803569049988" lon="8.385332937801923"><ele>150.0</ele><time>2026-04-18T08:06:55.999Z</time></trkpt><trkpt lat="44.9879902984591" lon="8.38521495957023"><ele>150.0</ele><time>2026-04-18T08:06:56.999Z</time></trkpt><trkpt lat="44.98792503387473" lon="8.385118128020357"><ele>150.0</ele><time>2026-04-18T08:06:57.999Z</time></trkpt><trkpt lat="44.98786918965153" lon="8.385012490518754"><ele>150.0</ele><time>2026-04-18T08:06:59Z</time></trkpt><trkpt lat="44.98780389730338" lon="8.384919524648133"><ele>150.0</ele><time>2026-04-18T08:07:00Z</time></trkpt><trkpt lat="44.9877338756679" lon="8.384832807580606"><ele>150.0</ele><time>2026-04-18T08:07:01Z</time></trkpt><trkpt lat="44.98765057939509" lon="8.38474787263827"><ele>150.4</ele><time>2026-04-18T08:07:02Z</time></trkpt><trkpt lat="44.98755871323362" lon="8.384673637912712"><ele>150.8</ele><time>2026-04-18T08:07:03Z</time></trkpt><trkpt lat="44.98746437833402" lon="8.38460665875863"><ele>151.2</ele><time>2026-04-18T08:07:04Z</time></trkpt><trkpt lat="44.98738460415414" lon="8.384549610308648"><ele>151.6</ele><time>2026-04-18T08:07:05Z</time></trkpt><trkpt lat="44.98733136841938" lon="8.3844897696099"><ele>152.0</ele><time>2026-04-18T08:07:06Z</time></trkpt><trkpt lat="44.98725506259103" lon="8.38443130463719"><ele>152.0</ele><time>2026-04-18T08:07:08Z</time></trkpt><trkpt lat="44.98719986725751" lon="8.384380905540885"><ele>152.0</ele><time>2026-04-18T08:07:10Z</time></trkpt><trkpt lat="44.98713247339588" lon="8.384281635031385"><ele>152.0</ele><time>2026-04-18T08:07:12Z</time></trkpt><trkpt lat="44.987052426054746" lon="8.384157530771597"><ele>152.0</ele><time>2026-04-18T08:07:14Z</time></trkpt><trkpt lat="44.986993999610924" lon="8.384068442369925"><ele>152.0</ele><time>2026-04-18T08:07:16Z</time></trkpt><trkpt lat="44.98692939961109" lon="8.384009185143695"><ele>152.0</ele><time>2026-04-18T08:07:19Z</time></trkpt><trkpt lat="44.98685799240941" lon="8.384145385376211"><ele>152.0</ele><time>2026-04-18T08:07:21Z</time></trkpt><trkpt lat="44.986841701024915" lon="8.384239381046694"><ele>152.0</ele><time>2026-04-18T08:07:22Z</time></trkpt><trkpt lat="44.986816872326386" lon="8.384325040037009"><ele>152.0</ele><time>2026-04-18T08:07:23Z</time></trkpt><trkpt lat="44.98677992869509" lon="8.384418505214335"><ele>152.0</ele><time>2026-04-18T08:07:24Z</time></trkpt><trkpt lat="44.98673551095496" lon="8.384520690345443"><ele>152.0</ele><time>2026-04-18T08:07:25Z</time></trkpt><trkpt lat="44.98668505585843" lon="8.38461937634582"><ele>152.0</ele><time>2026-04-18T08:07:26Z</time></trkpt><trkpt lat="44.98662085967175" lon="8.384699389140948"><ele>153.6</ele><time>2026-04-18T08:07:27Z</time></trkpt><trkpt lat="44.98654236006081" lon="8.3847573357972"><ele>155.2</ele><time>2026-04-18T08:07:28Z</time></trkpt><trkpt lat="44.986461986049015" lon="8.384810181810561"><ele>156.8</ele><time>2026-04-18T08:07:29Z</time></trkpt><trkpt lat="44.98637727296131" lon="8.38487049975485"><ele>158.4</ele><time>2026-04-18T08:07:30Z</time></trkpt><trkpt lat="44.98628969170332" lon="8.384933498198931"><ele>160.0</ele><time>2026-04-18T08:07:31Z</time></trkpt><trkpt lat="44.98619812225887" lon="8.384995210181913"><ele>160.0</ele><time>2026-04-18T08:07:32Z</time></trkpt><trkpt lat="44.98610908381828" lon="8.385060237408222"><ele>160.0</ele><time>2026-04-18T08:07:33Z</time></trkpt><trkpt lat="44.986018132985684" lon="8.385125690248643"><ele>160.0</ele><time>2026-04-18T08:07:34Z</time></trkpt><trkpt lat="44.98593356127947" lon="8.385185288255531"><ele>160.0</ele><time>2026-04-18T08:07:35Z</time></trkpt><trkpt lat="44.985858597543434" lon="8.385240319571228"><ele>160.0</ele><time>2026-04-18T08:07:36Z</time></trkpt><trkpt lat="44.98579356021588" lon="8.385285996271358"><ele>160.4</ele><time>2026-04-18T08:07:37Z</time></trkpt><trkpt lat="44.9856686669123" lon="8.385340038080765"><ele>160.8</ele><time>2026-04-18T08:07:39Z</time></trkpt><trkpt lat="44.98560877059586" lon="8.385379023883814"><ele>161.2</ele><time>2026-04-18T08:07:40Z</time></trkpt><trkpt lat="44.98550715534862" lon="8.385448073607147"><ele>161.6</ele><time>2026-04-18T08:07:41Z</time></trkpt><trkpt lat="44.985408550617365" lon="8.385467436042717"><ele>162.0</ele><time>2026-04-18T08:07:42Z</time></trkpt><trkpt lat="44.985311931019105" lon="8.385485220240184"><ele>162.0</ele><time>2026-04-18T08:07:43Z</time></trkpt><trkpt lat="44.98522465183246" lon="8.38549712378545"><ele>162.0</ele><time>2026-04-18T08:07:44Z</time></trkpt><trkpt lat="44.98512599281263" lon="8.385510800898784"><ele>162.0</ele><time>2026-04-18T08:07:45Z</time></trkpt><trkpt lat="44.985022657006496" lon="8.385519826995608"><ele>162.0</ele><time>2026-04-18T08:07:46Z</time></trkpt><trkpt lat="44.98493215141865" lon="8.385525473455337"><ele>162.0</ele><time>2026-04-18T08:07:47Z</time></trkpt><trkpt lat="44.98485907062224" lon="8.38553003281742"><ele>161.75</ele><time>2026-04-18T08:07:48Z</time></trkpt><trkpt lat="44.98478193430113" lon="8.385534845196448"><ele>161.5</ele><time>2026-04-18T08:07:49Z</time></trkpt><trkpt lat="44.984713362631005" lon="8.385524482592848"><ele>161.25</ele><time>2026-04-18T08:07:50Z</time></trkpt><trkpt lat="44.98461635645442" lon="8.385487893563084"><ele>161.0</ele><time>2026-04-18T08:07:52Z</time></trkpt><trkpt lat="44.9845179891731" lon="8.384576744499908"><ele>159.75</ele><time>2026-04-18T08:07:53Z</time></trkpt><trkpt lat="44.984456219291076" lon="8.384436207571486"><ele>158.5</ele><time>2026-04-18T08:07:54Z</time></trkpt><trkpt lat="44.98439262116976" lon="8.384292310463135"><ele>157.25</ele><time>2026-04-18T08:07:55Z</time></trkpt><trkpt lat="44.9843206549258" lon="8.384149251893888"><ele>156.0</ele><time>2026-04-18T08:07:56Z</time></trkpt><trkpt lat="44.98424999891029" lon="8.384004464997608"><ele>156.0</ele><time>2026-04-18T08:07:57Z</time></trkpt><trkpt lat="44.98417846515204" lon="8.383863798236336"><ele>156.0</ele><time>2026-04-18T08:07:58Z</time></trkpt><trkpt lat="44.98410271624188" lon="8.383731778850764"><ele>156.0</ele><time>2026-04-18T08:07:59Z</time></trkpt><trkpt lat="44.98402405968476" lon="8.383595905928505"><ele>156.0</ele><time>2026-04-18T08:08:00Z</time></trkpt><trkpt lat="44.98394968068011" lon="8.383451927504169"><ele>155.25</ele><time>2026-04-18T08:08:01Z</time></trkpt><trkpt lat="44.98388134071705" lon="8.383303238520611"><ele>154.5</ele><time>2026-04-18T08:08:02Z</time></trkpt><trkpt lat="44.983820527201864" lon="8.383164775916713"><ele>153.75</ele><time>2026-04-18T08:08:03Z</time></trkpt><trkpt lat="44.983767151249424" lon="8.383027464172578"><ele>153.0</ele><time>2026-04-18T08:08:04Z</time></trkpt><trkpt lat="44.98371760074932" lon="8.38287669633844"><ele>153.0</ele><time>2026-04-18T08:08:05Z</time></trkpt><trkpt lat="44.98367250369497" lon="8.382723443981188"><ele>153.0</ele><time>2026-04-18T08:08:06Z</time></trkpt><trkpt lat="44.98363619874331" lon="8.382583126231621"><ele>153.0</ele><time>2026-04-18T08:08:07Z</time></trkpt><trkpt lat="44.98360620722306" lon="8.382445207251495"><ele>153.0</ele><time>2026-04-18T08:08:07.999Z</time></trkpt><trkpt lat="44.983574548494815" lon="8.38230870176654"><ele>153.0</ele><time>2026-04-18T08:08:08.999Z</time></trkpt><trkpt lat="44.98355024656396" lon="8.382187517891087"><ele>152.6</ele><time>2026-04-18T08:08:09.999Z</time></trkpt><trkpt lat="44.9835464498241" lon="8.38206314461593"><ele>152.20000000000002</ele><time>2026-04-18T08:08:10.999Z</time></trkpt><trkpt lat="44.983551623258194" lon="8.381947621364858"><ele>151.8</ele><time>2026-04-18T08:08:11.999Z</time></trkpt><trkpt lat="44.983565894641984" lon="8.381805067714623"><ele>151.4</ele><time>2026-04-18T08:08:12.999Z</time></trkpt><trkpt lat="44.98358005739998" lon="8.38165678546783"><ele>151.0</ele><time>2026-04-18T08:08:13.999Z</time></trkpt><trkpt lat="44.98358693349311" lon="8.381498273850514"><ele>151.5</ele><time>2026-04-18T08:08:14.999Z</time></trkpt><trkpt lat="44.98359202356153" lon="8.381343265760568"><ele>152.0</ele><time>2026-04-18T08:08:15.999Z</time></trkpt><trkpt lat="44.98359749927222" lon="8.381180636348901"><ele>152.5</ele><time>2026-04-18T08:08:16.999Z</time></trkpt><trkpt lat="44.983593396750294" lon="8.381015920521762"><ele>153.0</ele><time>2026-04-18T08:08:17.999Z</time></trkpt><trkpt lat="44.983583944959236" lon="8.3808518331273"><ele>153.0</ele><time>2026-04-18T08:08:18.999Z</time></trkpt><trkpt lat="44.98357211240866" lon="8.380685054509508"><ele>153.0</ele><time>2026-04-18T08:08:19.999Z</time></trkpt><trkpt lat="44.983564297356416" lon="8.380520614366256"><ele>153.0</ele><time>2026-04-18T08:08:20.999Z</time></trkpt><trkpt lat="44.98356053259109" lon="8.380353612177956"><ele>153.0</ele><time>2026-04-18T08:08:21.999Z</time></trkpt><trkpt lat="44.983565170719494" lon="8.38019879069654"><ele>153.20000000000002</ele><time>2026-04-18T08:08:22.999Z</time></trkpt><trkpt lat="44.98356810123964" lon="8.380045208670184"><ele>153.4</ele><time>2026-04-18T08:08:23.999Z</time></trkpt><trkpt lat="44.98356835235706" lon="8.37989594072237"><ele>153.60000000000002</ele><time>2026-04-18T08:08:24.999Z</time></trkpt><trkpt lat="44.98356896809359" lon="8.379741185182416"><ele>153.8</ele><time>2026-04-18T08:08:25.999Z</time></trkpt><trkpt lat="44.983565198732" lon="8.379585314815364"><ele>154.0</ele><time>2026-04-18T08:08:26.999Z</time></trkpt><trkpt lat="44.98356609493514" lon="8.379425710727034"><ele>154.0</ele><time>2026-04-18T08:08:27.999Z</time></trkpt><trkpt lat="44.983541677554534" lon="8.379298727126582"><ele>154.0</ele><time>2026-04-18T08:08:28.999Z</time></trkpt><trkpt lat="44.98351252191046" lon="8.379162900227543"><ele>154.0</ele><time>2026-04-18T08:08:29.999Z</time></trkpt><trkpt lat="44.98347808441651" lon="8.379016414725053"><ele>154.0</ele><time>2026-04-18T08:08:30.999Z</time></trkpt><trkpt lat="44.98344732798103" lon="8.378871294676452"><ele>154.0</ele><time>2026-04-18T08:08:31.999Z</time></trkpt><trkpt lat="44.98342322111433" lon="8.37873165208385"><ele>154.4</ele><time>2026-04-18T08:08:32.999Z</time></trkpt><trkpt lat="44.98339920015634" lon="8.378605204513764"><ele>154.8</ele><time>2026-04-18T08:08:33.999Z</time></trkpt><trkpt lat="44.983383984038596" lon="8.378488287854367"><ele>155.2</ele><time>2026-04-18T08:08:34.999Z</time></trkpt><trkpt lat="44.98336641112532" lon="8.378359504042159"><ele>155.6</ele><time>2026-04-18T08:08:35.999Z</time></trkpt><trkpt lat="44.98334218786991" lon="8.37822070108864"><ele>156.0</ele><time>2026-04-18T08:08:36.999Z</time></trkpt><trkpt lat="44.98332086827502" lon="8.378106981262096"><ele>156.2</ele><time>2026-04-18T08:08:37.999Z</time></trkpt><trkpt lat="44.98329697039938" lon="8.377979748251418"><ele>156.39999999999998</ele><time>2026-04-18T08:08:38.999Z</time></trkpt><trkpt lat="44.983279663982245" lon="8.377846748238927"><ele>156.6</ele><time>2026-04-18T08:08:39.999Z</time></trkpt><trkpt lat="44.98325408773106" lon="8.377710081639059"><ele>156.79999999999998</ele><time>2026-04-18T08:08:40.999Z</time></trkpt><trkpt lat="44.98323658653062" lon="8.377559584404612"><ele>157.0</ele><time>2026-04-18T08:08:41.999Z</time></trkpt><trkpt lat="44.98322165467356" lon="8.377412183858914"><ele>157.0</ele><time>2026-04-18T08:08:42.999Z</time></trkpt><trkpt lat="44.983209674699296" lon="8.377280975340925"><ele>157.0</ele><time>2026-04-18T08:08:43.999Z</time></trkpt><trkpt lat="44.983199864302186" lon="8.377158632743907"><ele>157.0</ele><time>2026-04-18T08:08:44.999Z</time></trkpt><trkpt lat="44.98319443411602" lon="8.377019972217456"><ele>157.0</ele><time>2026-04-18T08:08:45.999Z</time></trkpt><trkpt lat="44.98319100691531" lon="8.376896903380224"><ele>157.0</ele><time>2026-04-18T08:08:46.999Z</time></trkpt><trkpt lat="44.98318816621749" lon="8.376793074779057"><ele>157.0</ele><time>2026-04-18T08:08:47.999Z</time></trkpt><trkpt lat="44.98318669097154" lon="8.376697887011101"><ele>157.16666666666669</ele><time>2026-04-18T08:08:48.999Z</time></trkpt><trkpt lat="44.98319052497333" lon="8.376599353801788"><ele>157.33333333333334</ele><time>2026-04-18T08:08:49.999Z</time></trkpt><trkpt lat="44.983191642660685" lon="8.376487559636146"><ele>157.5</ele><time>2026-04-18T08:08:50.999Z</time></trkpt><trkpt lat="44.983181785294136" lon="8.376372250449183"><ele>157.66666666666666</ele><time>2026-04-18T08:08:51.999Z</time></trkpt><trkpt lat="44.98316959413387" lon="8.376257720190056"><ele>157.83333333333331</ele><time>2026-04-18T08:08:52.999Z</time></trkpt><trkpt lat="44.98315479854643" lon="8.376134165211985"><ele>158.0</ele><time>2026-04-18T08:08:53.999Z</time></trkpt><trkpt lat="44.98314666275724" lon="8.376019126109258"><ele>157.5</ele><time>2026-04-18T08:08:54.999Z</time></trkpt><trkpt lat="44.98313881371068" lon="8.37590236393155"><ele>157.0</ele><time>2026-04-18T08:08:55.999Z</time></trkpt><trkpt lat="44.983131050249156" lon="8.375805346515271"><ele>156.5</ele><time>2026-04-18T08:08:56.999Z</time></trkpt><trkpt lat="44.98312749607416" lon="8.375715226026058"><ele>156.0</ele><time>2026-04-18T08:08:57.999Z</time></trkpt><trkpt lat="44.98310796639061" lon="8.375532509153146"><ele>155.5</ele><time>2026-04-18T08:08:59.999Z</time></trkpt><trkpt lat="44.98308406487111" lon="8.375424940803859"><ele>155.0</ele><time>2026-04-18T08:09:00.999Z</time></trkpt><trkpt lat="44.983060485337965" lon="8.375311000675039"><ele>155.0</ele><time>2026-04-18T08:09:01.999Z</time></trkpt><trkpt lat="44.98304757276189" lon="8.375196373671297"><ele>155.0</ele><time>2026-04-18T08:09:02.999Z</time></trkpt><trkpt lat="44.98303989335767" lon="8.37507865990878"><ele>155.0</ele><time>2026-04-18T08:09:03.999Z</time></trkpt><trkpt lat="44.98303525340198" lon="8.374967866306404"><ele>155.0</ele><time>2026-04-18T08:09:05Z</time></trkpt><trkpt lat="44.983034074184786" lon="8.374857627413093"><ele>155.0</ele><time>2026-04-18T08:09:06Z</time></trkpt><trkpt lat="44.98304063395193" lon="8.374741524106412"><ele>155.0</ele><time>2026-04-18T08:09:07Z</time></trkpt><trkpt lat="44.9830548840335" lon="8.374610713661195"><ele>155.0</ele><time>2026-04-18T08:09:08Z</time></trkpt><trkpt lat="44.98307143991796" lon="8.374494499730385"><ele>155.0</ele><time>2026-04-18T08:09:09Z</time></trkpt><trkpt lat="44.983091843148344" lon="8.37437263748187"><ele>155.0</ele><time>2026-04-18T08:09:10Z</time></trkpt><trkpt lat="44.98311740332478" lon="8.374255446046362"><ele>155.0</ele><time>2026-04-18T08:09:11Z</time></trkpt><trkpt lat="44.98315809335616" lon="8.37413374951618"><ele>155.0</ele><time>2026-04-18T08:09:12Z</time></trkpt><trkpt lat="44.983197052208574" lon="8.374031915688137"><ele>155.0</ele><time>2026-04-18T08:09:13Z</time></trkpt><trkpt lat="44.98323317691079" lon="8.373932245501607"><ele>155.33333333333331</ele><time>2026-04-18T08:09:14Z</time></trkpt><trkpt lat="44.98326524024026" lon="8.373834184190411"><ele>155.66666666666666</ele><time>2026-04-18T08:09:15Z</time></trkpt><trkpt lat="44.98328567638147" lon="8.373736562022124"><ele>156.0</ele><time>2026-04-18T08:09:16Z</time></trkpt><trkpt lat="44.98330046067314" lon="8.373632025818685"><ele>156.33333333333334</ele><time>2026-04-18T08:09:17Z</time></trkpt><trkpt lat="44.983310324741986" lon="8.373541489748014"><ele>156.66666666666669</ele><time>2026-04-18T08:09:18Z</time></trkpt><trkpt lat="44.98333897517321" lon="8.373352849412571"><ele>157.0</ele><time>2026-04-18T08:09:20Z</time></trkpt><trkpt lat="44.9833531924605" lon="8.373247055791502"><ele>157.16666666666669</ele><time>2026-04-18T08:09:21Z</time></trkpt><trkpt lat="44.98335583706705" lon="8.373156973165433"><ele>157.33333333333334</ele><time>2026-04-18T08:09:22Z</time></trkpt><trkpt lat="44.98333325171916" lon="8.372996503220762"><ele>157.5</ele><time>2026-04-18T08:09:24Z</time></trkpt><trkpt lat="44.98332519424326" lon="8.372900737562171"><ele>157.66666666666666</ele><time>2026-04-18T08:09:25Z</time></trkpt><trkpt lat="44.983319210140934" lon="8.372802552893766"><ele>157.83333333333331</ele><time>2026-04-18T08:09:26Z</time></trkpt><trkpt lat="44.98331972076862" lon="8.372678988325825"><ele>158.0</ele><time>2026-04-18T08:09:27Z</time></trkpt><trkpt lat="44.98331009733026" lon="8.372496653100917"><ele>158.0</ele><time>2026-04-18T08:09:29Z</time></trkpt><trkpt lat="44.98330078978331" lon="8.372402773272574"><ele>158.0</ele><time>2026-04-18T08:09:30Z</time></trkpt><trkpt lat="44.98328604196874" lon="8.372309124577288"><ele>158.0</ele><time>2026-04-18T08:09:31Z</time></trkpt><trkpt lat="44.9832695514851" lon="8.372198177613916"><ele>158.0</ele><time>2026-04-18T08:09:32Z</time></trkpt><trkpt lat="44.98325081089076" lon="8.372082998059618"><ele>158.0</ele><time>2026-04-18T08:09:33Z</time></trkpt><trkpt lat="44.983224887556794" lon="8.371967036366344"><ele>158.0</ele><time>2026-04-18T08:09:34Z</time></trkpt><trkpt lat="44.983193724536854" lon="8.371858732907418"><ele>158.0</ele><time>2026-04-18T08:09:35Z</time></trkpt><trkpt lat="44.983161971627865" lon="8.371743381038353"><ele>158.0</ele><time>2026-04-18T08:09:36Z</time></trkpt><trkpt lat="44.98312936318755" lon="8.371633565796511"><ele>158.0</ele><time>2026-04-18T08:09:37Z</time></trkpt><trkpt lat="44.983095089126316" lon="8.371526522173209"><ele>158.0</ele><time>2026-04-18T08:09:38Z</time></trkpt><trkpt lat="44.98306202534304" lon="8.371416041994458"><ele>158.0</ele><time>2026-04-18T08:09:39Z</time></trkpt><trkpt lat="44.98303079486963" lon="8.371302557465864"><ele>158.0</ele><time>2026-04-18T08:09:40Z</time></trkpt><trkpt lat="44.98299631778124" lon="8.37118776394549"><ele>158.0</ele><time>2026-04-18T08:09:41Z</time></trkpt><trkpt lat="44.98296291046635" lon="8.371075994937131"><ele>158.0</ele><time>2026-04-18T08:09:42Z</time></trkpt><trkpt lat="44.9829320628247" lon="8.370962268126384"><ele>158.0</ele><time>2026-04-18T08:09:43Z</time></trkpt><trkpt lat="44.98290100579813" lon="8.370849086864906"><ele>158.0</ele><time>2026-04-18T08:09:44Z</time></trkpt><trkpt lat="44.982871429804156" lon="8.370739083397744"><ele>158.0</ele><time>2026-04-18T08:09:45Z</time></trkpt><trkpt lat="44.98284430932672" lon="8.370622727181493"><ele>158.0</ele><time>2026-04-18T08:09:46Z</time></trkpt><trkpt lat="44.98282258321227" lon="8.370516187455706"><ele>158.0</ele><time>2026-04-18T08:09:47Z</time></trkpt><trkpt lat="44.98279585784529" lon="8.370400143851233"><ele>158.0</ele><time>2026-04-18T08:09:48Z</time></trkpt><trkpt lat="44.98277299332743" lon="8.370286692173744"><ele>158.0</ele><time>2026-04-18T08:09:49Z</time></trkpt><trkpt lat="44.982754505829504" lon="8.37018788553101"><ele>158.0</ele><time>2026-04-18T08:09:50Z</time></trkpt><trkpt lat="44.9827427521142" lon="8.370094178728671"><ele>158.0</ele><time>2026-04-18T08:09:51Z</time></trkpt><trkpt lat="44.98274661603117" lon="8.369991610727837"><ele>158.0</ele><time>2026-04-18T08:09:52Z</time></trkpt><trkpt lat="44.982747756972195" lon="8.369874964884216"><ele>158.0</ele><time>2026-04-18T08:09:53Z</time></trkpt><trkpt lat="44.98275449752566" lon="8.369771142360452"><ele>158.0</ele><time>2026-04-18T08:09:54Z</time></trkpt><trkpt lat="44.982762796239705" lon="8.36958194178261"><ele>158.0</ele><time>2026-04-18T08:09:56Z</time></trkpt><trkpt lat="44.982759659042976" lon="8.369455082933326"><ele>158.0</ele><time>2026-04-18T08:09:57Z</time></trkpt><trkpt lat="44.98276451981291" lon="8.36934032006247"><ele>158.0</ele><time>2026-04-18T08:09:58Z</time></trkpt><trkpt lat="44.98276572500025" lon="8.36921620694797"><ele>158.16666666666666</ele><time>2026-04-18T08:09:59Z</time></trkpt><trkpt lat="44.982769490642156" lon="8.369106169007782"><ele>158.33333333333331</ele><time>2026-04-18T08:10:00Z</time></trkpt><trkpt lat="44.98277348685304" lon="8.368988249836589"><ele>158.5</ele><time>2026-04-18T08:10:01Z</time></trkpt><trkpt lat="44.982775270518275" lon="8.368864401589045"><ele>158.66666666666666</ele><time>2026-04-18T08:10:02Z</time></trkpt><trkpt lat="44.982776197186396" lon="8.368751831251389"><ele>158.83333333333334</ele><time>2026-04-18T08:10:03Z</time></trkpt><trkpt lat="44.98277401864882" lon="8.368639573539213"><ele>159.0</ele><time>2026-04-18T08:10:04Z</time></trkpt><trkpt lat="44.9827692104028" lon="8.368519793654155"><ele>159.16666666666666</ele><time>2026-04-18T08:10:05Z</time></trkpt><trkpt lat="44.982760385983546" lon="8.368407973092138"><ele>159.33333333333334</ele><time>2026-04-18T08:10:06Z</time></trkpt><trkpt lat="44.98275111451207" lon="8.368301655741936"><ele>159.5</ele><time>2026-04-18T08:10:07Z</time></trkpt><trkpt lat="44.98274285880689" lon="8.368192861613547"><ele>159.66666666666669</ele><time>2026-04-18T08:10:08Z</time></trkpt><trkpt lat="44.9827481741815" lon="8.368072290318507"><ele>159.83333333333334</ele><time>2026-04-18T08:10:09Z</time></trkpt><trkpt lat="44.982745235114734" lon="8.367962568601158"><ele>160.0</ele><time>2026-04-18T08:10:10Z</time></trkpt><trkpt lat="44.98274441988167" lon="8.367848434186046"><ele>160.0</ele><time>2026-04-18T08:10:11Z</time></trkpt><trkpt lat="44.98275015802669" lon="8.367731971500358"><ele>160.0</ele><time>2026-04-18T08:10:12Z</time></trkpt><trkpt lat="44.982752673665246" lon="8.367636374097565"><ele>160.0</ele><time>2026-04-18T08:10:13Z</time></trkpt><trkpt lat="44.9827507842288" lon="8.36745959987956"><ele>160.0</ele><time>2026-04-18T08:10:15Z</time></trkpt><trkpt lat="44.98275444809996" lon="8.36735801697976"><ele>160.0</ele><time>2026-04-18T08:10:16Z</time></trkpt><trkpt lat="44.982785629120116" lon="8.36725273166174"><ele>160.0</ele><time>2026-04-18T08:10:17Z</time></trkpt><trkpt lat="44.98283165505233" lon="8.36715863575152"><ele>160.0</ele><time>2026-04-18T08:10:18Z</time></trkpt><trkpt lat="44.98287727959909" lon="8.367064976901474"><ele>160.0</ele><time>2026-04-18T08:10:19Z</time></trkpt><trkpt lat="44.98291404489865" lon="8.366937526950624"><ele>160.0</ele><time>2026-04-18T08:10:20Z</time></trkpt><trkpt lat="44.98294808865867" lon="8.366807152795385"><ele>160.0</ele><time>2026-04-18T08:10:21Z</time></trkpt><trkpt lat="44.98297862595911" lon="8.366689139411895"><ele>160.0</ele><time>2026-04-18T08:10:22Z</time></trkpt><trkpt lat="44.983004614273554" lon="8.366590837084804"><ele>160.0</ele><time>2026-04-18T08:10:22.999Z</time></trkpt><trkpt lat="44.98303493529928" lon="8.366473187664852"><ele>160.0</ele><time>2026-04-18T08:10:23.999Z</time></trkpt><trkpt lat="44.983068536969384" lon="8.366358288771671"><ele>160.0</ele><time>2026-04-18T08:10:24.999Z</time></trkpt><trkpt lat="44.983102291712754" lon="8.366239239629817"><ele>160.0</ele><time>2026-04-18T08:10:25.999Z</time></trkpt><trkpt lat="44.98313808786883" lon="8.366115936193204"><ele>160.0</ele><time>2026-04-18T08:10:26.999Z</time></trkpt><trkpt lat="44.98317287618973" lon="8.365999413219752"><ele>160.0</ele><time>2026-04-18T08:10:27.999Z</time></trkpt><trkpt lat="44.98320809030648" lon="8.365877364814027"><ele>160.0</ele><time>2026-04-18T08:10:28.999Z</time></trkpt><trkpt lat="44.98323758695174" lon="8.3657715236145"><ele>160.0</ele><time>2026-04-18T08:10:29.999Z</time></trkpt><trkpt lat="44.983258965467165" lon="8.365684908941756"><ele>160.0</ele><time>2026-04-18T08:10:30.999Z</time></trkpt><trkpt lat="44.983289493884" lon="8.365590660361734"><ele>160.0</ele><time>2026-04-18T08:10:31.999Z</time></trkpt><trkpt lat="44.983320383013194" lon="8.365482795516241"><ele>160.0</ele><time>2026-04-18T08:10:32.999Z</time></trkpt><trkpt lat="44.983353335023864" lon="8.365366207496853"><ele>160.0</ele><time>2026-04-18T08:10:33.999Z</time></trkpt><trkpt lat="44.98339164984432" lon="8.36524657820249"><ele>159.6</ele><time>2026-04-18T08:10:34.999Z</time></trkpt><trkpt lat="44.98342613301551" lon="8.36512588447026"><ele>159.2</ele><time>2026-04-18T08:10:35.999Z</time></trkpt><trkpt lat="44.98345215875079" lon="8.365012732793794"><ele>158.8</ele><time>2026-04-18T08:10:36.999Z</time></trkpt><trkpt lat="44.983477204137635" lon="8.364885731963659"><ele>158.4</ele><time>2026-04-18T08:10:37.999Z</time></trkpt><trkpt lat="44.983491867612805" lon="8.36476123956413"><ele>158.0</ele><time>2026-04-18T08:10:38.999Z</time></trkpt><trkpt lat="44.98351336278597" lon="8.364632883349456"><ele>158.66666666666666</ele><time>2026-04-18T08:10:39.999Z</time></trkpt><trkpt lat="44.983539501831316" lon="8.364506376635745"><ele>159.33333333333331</ele><time>2026-04-18T08:10:40.999Z</time></trkpt><trkpt lat="44.9835603859564" lon="8.364384253330886"><ele>160.0</ele><time>2026-04-18T08:10:41.999Z</time></trkpt><trkpt lat="44.98358448364835" lon="8.364280237104822"><ele>160.66666666666666</ele><time>2026-04-18T08:10:42.999Z</time></trkpt><trkpt lat="44.98361300431488" lon="8.36415460170019"><ele>161.33333333333334</ele><time>2026-04-18T08:10:43.999Z</time></trkpt><trkpt lat="44.9836400480864" lon="8.364043741538461"><ele>162.0</ele><time>2026-04-18T08:10:44.999Z</time></trkpt><trkpt lat="44.98366903017128" lon="8.363923059867648"><ele>162.0</ele><time>2026-04-18T08:10:45.999Z</time></trkpt><trkpt lat="44.98369973505216" lon="8.363798883156214"><ele>162.0</ele><time>2026-04-18T08:10:46.999Z</time></trkpt><trkpt lat="44.983732426110784" lon="8.363684684325872"><ele>162.0</ele><time>2026-04-18T08:10:47.999Z</time></trkpt><trkpt lat="44.9837690308367" lon="8.363569034611743"><ele>162.0</ele><time>2026-04-18T08:10:48.999Z</time></trkpt><trkpt lat="44.983809169284875" lon="8.36344590896081"><ele>162.0</ele><time>2026-04-18T08:10:49.999Z</time></trkpt><trkpt lat="44.983848713944376" lon="8.36331974134209"><ele>162.0</ele><time>2026-04-18T08:10:50.999Z</time></trkpt><trkpt lat="44.98388552150048" lon="8.363198773479462"><ele>162.0</ele><time>2026-04-18T08:10:51.999Z</time></trkpt><trkpt lat="44.98391905545192" lon="8.363084765862677"><ele>162.0</ele><time>2026-04-18T08:10:52.999Z</time></trkpt><trkpt lat="44.98395326747161" lon="8.362952560362752"><ele>162.0</ele><time>2026-04-18T08:10:53.999Z</time></trkpt><trkpt lat="44.983984458841704" lon="8.36282856213867"><ele>162.0</ele><time>2026-04-18T08:10:54.999Z</time></trkpt><trkpt lat="44.98401179827738" lon="8.362706821303638"><ele>162.39999999999998</ele><time>2026-04-18T08:10:55.999Z</time></trkpt><trkpt lat="44.984035481078" lon="8.36258645758486"><ele>162.79999999999998</ele><time>2026-04-18T08:10:56.999Z</time></trkpt><trkpt lat="44.984063036934145" lon="8.36247000701009"><ele>163.2</ele><time>2026-04-18T08:10:57.999Z</time></trkpt><trkpt lat="44.98409387185404" lon="8.362340941658099"><ele>163.6</ele><time>2026-04-18T08:10:58.999Z</time></trkpt><trkpt lat="44.98411653662111" lon="8.36221270304856"><ele>164.0</ele><time>2026-04-18T08:10:59.999Z</time></trkpt><trkpt lat="44.98413590951671" lon="8.362079682925044"><ele>164.0</ele><time>2026-04-18T08:11:00.999Z</time></trkpt><trkpt lat="44.984155451330814" lon="8.36195377619432"><ele>164.0</ele><time>2026-04-18T08:11:01.999Z</time></trkpt><trkpt lat="44.9841720064229" lon="8.361837063573406"><ele>164.0</ele><time>2026-04-18T08:11:02.999Z</time></trkpt><trkpt lat="44.98419816415189" lon="8.361711199973412"><ele>164.0</ele><time>2026-04-18T08:11:03.999Z</time></trkpt><trkpt lat="44.984223654320374" lon="8.361595335027738"><ele>164.0</ele><time>2026-04-18T08:11:04.999Z</time></trkpt><trkpt lat="44.98424567138305" lon="8.36150478571919"><ele>164.0</ele><time>2026-04-18T08:11:05.999Z</time></trkpt><trkpt lat="44.98427505098789" lon="8.361424786647705"><ele>164.0</ele><time>2026-04-18T08:11:06.999Z</time></trkpt><trkpt lat="44.984315002000685" lon="8.361352087822418"><ele>164.0</ele><time>2026-04-18T08:11:07.999Z</time></trkpt><trkpt lat="44.98435744966846" lon="8.361274019761535"><ele>164.0</ele><time>2026-04-18T08:11:08.999Z</time></trkpt><trkpt lat="44.98440667602863" lon="8.36119688236761"><ele>164.0</ele><time>2026-04-18T08:11:09.999Z</time></trkpt><trkpt lat="44.9844663266815" lon="8.361113927076572"><ele>164.0</ele><time>2026-04-18T08:11:11Z</time></trkpt><trkpt lat="44.9845519008965" lon="8.361024484151859"><ele>164.0</ele><time>2026-04-18T08:11:13Z</time></trkpt><trkpt lat="44.98460321957432" lon="8.36095709339029"><ele>164.0</ele><time>2026-04-18T08:11:15Z</time></trkpt><trkpt lat="44.98464931358356" lon="8.360805351741094"><ele>164.0</ele><time>2026-04-18T08:11:17Z</time></trkpt><trkpt lat="44.98470986985387" lon="8.360672610140579"><ele>164.0</ele><time>2026-04-18T08:11:19Z</time></trkpt><trkpt lat="44.98475781511716" lon="8.360548569851344"><ele>164.0</ele><time>2026-04-18T08:11:21Z</time></trkpt><trkpt lat="44.984788877203385" lon="8.360383500871619"><ele>164.0</ele><time>2026-04-18T08:11:23Z</time></trkpt><trkpt lat="44.98479718843992" lon="8.360292630710486"><ele>163.7142857142857</ele><time>2026-04-18T08:11:24Z</time></trkpt><trkpt lat="44.9848045460276" lon="8.360199624193449"><ele>163.42857142857142</ele><time>2026-04-18T08:11:25Z</time></trkpt><trkpt lat="44.98481261685927" lon="8.360101683977557"><ele>163.14285714285714</ele><time>2026-04-18T08:11:26Z</time></trkpt><trkpt lat="44.98481634298183" lon="8.359991635773355"><ele>162.85714285714283</ele><time>2026-04-18T08:11:27Z</time></trkpt><trkpt lat="44.98482485191227" lon="8.359890481332693"><ele>162.57142857142856</ele><time>2026-04-18T08:11:28Z</time></trkpt><trkpt lat="44.98484373332312" lon="8.3597834596918"><ele>162.28571428571428</ele><time>2026-04-18T08:11:29Z</time></trkpt><trkpt lat="44.98486252989472" lon="8.359674128266072"><ele>162.0</ele><time>2026-04-18T08:11:30Z</time></trkpt><trkpt lat="44.984885065730474" lon="8.359554323643923"><ele>162.16666666666666</ele><time>2026-04-18T08:11:31Z</time></trkpt><trkpt lat="44.98491293159164" lon="8.35943988047669"><ele>162.33333333333334</ele><time>2026-04-18T08:11:32Z</time></trkpt><trkpt lat="44.98493871275168" lon="8.359332597826628"><ele>162.5</ele><time>2026-04-18T08:11:33Z</time></trkpt><trkpt lat="44.98495747783822" lon="8.359228406343867"><ele>162.66666666666669</ele><time>2026-04-18T08:11:34Z</time></trkpt><trkpt lat="44.98496224087519" lon="8.359123487037529"><ele>162.83333333333334</ele><time>2026-04-18T08:11:35Z</time></trkpt><trkpt lat="44.984955267587345" lon="8.359025100089251"><ele>163.0</ele><time>2026-04-18T08:11:36Z</time></trkpt><trkpt lat="44.98497255203919" lon="8.358866189630321"><ele>163.16666666666669</ele><time>2026-04-18T08:11:38Z</time></trkpt><trkpt lat="44.98508942841223" lon="8.358782866262999"><ele>163.33333333333334</ele><time>2026-04-18T08:11:40Z</time></trkpt><trkpt lat="44.98516456600143" lon="8.358783875089344"><ele>163.5</ele><time>2026-04-18T08:11:41Z</time></trkpt><trkpt lat="44.985235604909505" lon="8.358828646444257"><ele>163.66666666666666</ele><time>2026-04-18T08:11:42Z</time></trkpt><trkpt lat="44.98529890030694" lon="8.358889651328404"><ele>163.83333333333331</ele><time>2026-04-18T08:11:43Z</time></trkpt><trkpt lat="44.98536127575143" lon="8.35896433628403"><ele>164.0</ele><time>2026-04-18T08:11:44Z</time></trkpt><trkpt lat="44.98542336373768" lon="8.359042692401587"><ele>163.83333333333331</ele><time>2026-04-18T08:11:45Z</time></trkpt><trkpt lat="44.98548989814715" lon="8.359114307214208"><ele>163.66666666666666</ele><time>2026-04-18T08:11:46Z</time></trkpt><trkpt lat="44.985556295570284" lon="8.35918444374107"><ele>163.5</ele><time>2026-04-18T08:11:47Z</time></trkpt><trkpt lat="44.98561966923698" lon="8.3592456539209"><ele>163.33333333333334</ele><time>2026-04-18T08:11:48Z</time></trkpt><trkpt lat="44.985693470779765" lon="8.359286181009479"><ele>163.16666666666669</ele><time>2026-04-18T08:11:49Z</time></trkpt><trkpt lat="44.98577917768595" lon="8.359317122076499"><ele>163.0</ele><time>2026-04-18T08:11:50Z</time></trkpt><trkpt lat="44.98585900138952" lon="8.359341833723345"><ele>163.0</ele><time>2026-04-18T08:11:51Z</time></trkpt><trkpt lat="44.98592783853179" lon="8.359363253368223"><ele>163.0</ele><time>2026-04-18T08:11:52Z</time></trkpt><trkpt lat="44.985992899778985" lon="8.359382050705847"><ele>163.0</ele><time>2026-04-18T08:11:53Z</time></trkpt><trkpt lat="44.98610897652157" lon="8.359404369837398"><ele>163.0</ele><time>2026-04-18T08:11:55Z</time></trkpt><trkpt lat="44.98619976142828" lon="8.359431955623839"><ele>163.0</ele><time>2026-04-18T08:11:57Z</time></trkpt><trkpt lat="44.98627993217084" lon="8.359438472316675"><ele>163.0</ele><time>2026-04-18T08:12:00Z</time></trkpt><trkpt lat="44.98637684349771" lon="8.359461946037584"><ele>163.0</ele><time>2026-04-18T08:12:02Z</time></trkpt><trkpt lat="44.98644702409201" lon="8.359481744007939"><ele>163.0</ele><time>2026-04-18T08:12:03Z</time></trkpt><trkpt lat="44.98652004280927" lon="8.359502707557814"><ele>163.0</ele><time>2026-04-18T08:12:04Z</time></trkpt><trkpt lat="44.98659468041939" lon="8.359509921254798"><ele>163.0</ele><time>2026-04-18T08:12:05Z</time></trkpt><trkpt lat="44.98668024257513" lon="8.359523537494976"><ele>163.0</ele><time>2026-04-18T08:12:06Z</time></trkpt><trkpt lat="44.986770138938994" lon="8.359546654630906"><ele>163.0</ele><time>2026-04-18T08:12:07Z</time></trkpt><trkpt lat="44.98683540084606" lon="8.359593375082067"><ele>162.60000000000002</ele><time>2026-04-18T08:12:08Z</time></trkpt><trkpt lat="44.986913483088344" lon="8.359607140220652"><ele>162.20000000000002</ele><time>2026-04-18T08:12:09Z</time></trkpt><trkpt lat="44.98705247424167" lon="8.359623716929065"><ele>161.8</ele><time>2026-04-18T08:12:11Z</time></trkpt><trkpt lat="44.987140380246444" lon="8.359631194057208"><ele>161.4</ele><time>2026-04-18T08:12:12Z</time></trkpt><trkpt lat="44.98722424313035" lon="8.359614058696282"><ele>161.0</ele><time>2026-04-18T08:12:13Z</time></trkpt><trkpt lat="44.98729805697605" lon="8.359571233941434"><ele>161.0</ele><time>2026-04-18T08:12:14Z</time></trkpt><trkpt lat="44.98739339562943" lon="8.359508443725316"><ele>161.0</ele><time>2026-04-18T08:12:15Z</time></trkpt><trkpt lat="44.98747687041208" lon="8.35944964873626"><ele>161.0</ele><time>2026-04-18T08:12:16Z</time></trkpt><trkpt lat="44.98759453801168" lon="8.359396716199402"><ele>161.0</ele><time>2026-04-18T08:12:17Z</time></trkpt><trkpt lat="44.98769804446182" lon="8.359326368842826"><ele>161.0</ele><time>2026-04-18T08:12:18Z</time></trkpt><trkpt lat="44.98779404350493" lon="8.359235299886393"><ele>162.25</ele><time>2026-04-18T08:12:19Z</time></trkpt><trkpt lat="44.987883157503546" lon="8.359138676631595"><ele>163.5</ele><time>2026-04-18T08:12:20Z</time></trkpt><trkpt lat="44.98795863738187" lon="8.35903570613534"><ele>164.75</ele><time>2026-04-18T08:12:21Z</time></trkpt><trkpt lat="44.988030921951555" lon="8.358906888859453"><ele>166.0</ele><time>2026-04-18T08:12:22Z</time></trkpt><trkpt lat="44.98809571144672" lon="8.358767423504602"><ele>166.0</ele><time>2026-04-18T08:12:23Z</time></trkpt><trkpt lat="44.98815906127688" lon="8.358638208014595"><ele>166.0</ele><time>2026-04-18T08:12:24Z</time></trkpt><trkpt lat="44.98820847437222" lon="8.358511359599209"><ele>166.0</ele><time>2026-04-18T08:12:25Z</time></trkpt><trkpt lat="44.988252750594334" lon="8.358370109244692"><ele>166.0</ele><time>2026-04-18T08:12:26Z</time></trkpt><trkpt lat="44.98827550485843" lon="8.358211109004309"><ele>166.0</ele><time>2026-04-18T08:12:27Z</time></trkpt><trkpt lat="44.98829770443067" lon="8.358040768942333"><ele>165.20000000000002</ele><time>2026-04-18T08:12:28Z</time></trkpt><trkpt lat="44.988315150997394" lon="8.357890291478823"><ele>164.4</ele><time>2026-04-18T08:12:29Z</time></trkpt><trkpt lat="44.98835789077505" lon="8.35773706968869"><ele>163.6</ele><time>2026-04-18T08:12:30Z</time></trkpt><trkpt lat="44.98839004029714" lon="8.357594675009292"><ele>162.8</ele><time>2026-04-18T08:12:31Z</time></trkpt><trkpt lat="44.988429463672155" lon="8.357448756907202"><ele>162.0</ele><time>2026-04-18T08:12:32Z</time></trkpt><trkpt lat="44.98847645624574" lon="8.357308620482508"><ele>162.39999999999998</ele><time>2026-04-18T08:12:33Z</time></trkpt><trkpt lat="44.98852970128504" lon="8.357170206128824"><ele>162.79999999999998</ele><time>2026-04-18T08:12:34Z</time></trkpt><trkpt lat="44.988585432611416" lon="8.357030969452937"><ele>163.2</ele><time>2026-04-18T08:12:35Z</time></trkpt><trkpt lat="44.988639366956285" lon="8.356893551024886"><ele>163.6</ele><time>2026-04-18T08:12:36Z</time></trkpt><trkpt lat="44.98869331377677" lon="8.356763053071568"><ele>164.0</ele><time>2026-04-18T08:12:36.999Z</time></trkpt><trkpt lat="44.98875027321098" lon="8.356641445146838"><ele>164.0</ele><time>2026-04-18T08:12:37.999Z</time></trkpt><trkpt lat="44.98881047566505" lon="8.356513440982301"><ele>164.0</ele><time>2026-04-18T08:12:38.999Z</time></trkpt><trkpt lat="44.98887506691615" lon="8.35638614642705"><ele>164.0</ele><time>2026-04-18T08:12:39.999Z</time></trkpt><trkpt lat="44.988935868262644" lon="8.356266837392814"><ele>164.0</ele><time>2026-04-18T08:12:40.999Z</time></trkpt><trkpt lat="44.988999092564775" lon="8.356139276482667"><ele>164.0</ele><time>2026-04-18T08:12:41.999Z</time></trkpt><trkpt lat="44.98905620774135" lon="8.356006949828734"><ele>164.39999999999998</ele><time>2026-04-18T08:12:42.999Z</time></trkpt><trkpt lat="44.98912036402236" lon="8.355877086145894"><ele>164.8</ele><time>2026-04-18T08:12:43.999Z</time></trkpt><trkpt lat="44.989178089750894" lon="8.355759496096036"><ele>165.2</ele><time>2026-04-18T08:12:44.999Z</time></trkpt><trkpt lat="44.989239547711" lon="8.355638239758635"><ele>165.60000000000002</ele><time>2026-04-18T08:12:45.999Z</time></trkpt><trkpt lat="44.98929553015574" lon="8.35550791123711"><ele>166.0</ele><time>2026-04-18T08:12:46.999Z</time></trkpt><trkpt lat="44.989350379439664" lon="8.355385680655363"><ele>166.0</ele><time>2026-04-18T08:12:47.999Z</time></trkpt><trkpt lat="44.98940373061485" lon="8.35527146908686"><ele>166.0</ele><time>2026-04-18T08:12:48.999Z</time></trkpt><trkpt lat="44.98946402041704" lon="8.355142000926566"><ele>166.0</ele><time>2026-04-18T08:12:49.999Z</time></trkpt><trkpt lat="44.989519754244526" lon="8.35502782191507"><ele>166.0</ele><time>2026-04-18T08:12:50.999Z</time></trkpt><trkpt lat="44.98958295016656" lon="8.3549097263574"><ele>166.0</ele><time>2026-04-18T08:12:51.999Z</time></trkpt><trkpt lat="44.989645579656234" lon="8.354791932403266"><ele>165.8</ele><time>2026-04-18T08:12:52.999Z</time></trkpt><trkpt lat="44.989708064954335" lon="8.354684477198587"><ele>165.60000000000002</ele><time>2026-04-18T08:12:53.999Z</time></trkpt><trkpt lat="44.98977607296048" lon="8.354576290816464"><ele>165.4</ele><time>2026-04-18T08:12:54.999Z</time></trkpt><trkpt lat="44.989846570565184" lon="8.354465677722127"><ele>165.2</ele><time>2026-04-18T08:12:55.999Z</time></trkpt><trkpt lat="44.98991651887382" lon="8.354369002063919"><ele>165.0</ele><time>2026-04-18T08:12:56.999Z</time></trkpt><trkpt lat="44.98998572077646" lon="8.354273116700128"><ele>166.4</ele><time>2026-04-18T08:12:57.999Z</time></trkpt><trkpt lat="44.990045294328965" lon="8.354173839458559"><ele>167.8</ele><time>2026-04-18T08:12:58.999Z</time></trkpt><trkpt lat="44.99009480222678" lon="8.354060446883116"><ele>169.2</ele><time>2026-04-18T08:12:59.999Z</time></trkpt><trkpt lat="44.990134628282924" lon="8.353935887285875"><ele>170.6</ele><time>2026-04-18T08:13:00.999Z</time></trkpt><trkpt lat="44.99016904579903" lon="8.353802423568801"><ele>172.0</ele><time>2026-04-18T08:13:01.999Z</time></trkpt><trkpt lat="44.99018792606015" lon="8.353672616878642"><ele>172.0</ele><time>2026-04-18T08:13:02.999Z</time></trkpt><trkpt lat="44.99019927931787" lon="8.353540524270036"><ele>172.0</ele><time>2026-04-18T08:13:03.999Z</time></trkpt><trkpt lat="44.99021615543666" lon="8.353401275253841"><ele>172.0</ele><time>2026-04-18T08:13:04.999Z</time></trkpt><trkpt lat="44.99023047904102" lon="8.353280606964457"><ele>172.0</ele><time>2026-04-18T08:13:05.999Z</time></trkpt><trkpt lat="44.990248706175876" lon="8.353160872966512"><ele>172.0</ele><time>2026-04-18T08:13:06.999Z</time></trkpt><trkpt lat="44.990271695060905" lon="8.353042820051899"><ele>172.0</ele><time>2026-04-18T08:13:07.999Z</time></trkpt><trkpt lat="44.99030309410189" lon="8.352928991541615"><ele>172.0</ele><time>2026-04-18T08:13:08.999Z</time></trkpt><trkpt lat="44.99032927908774" lon="8.352814414652693"><ele>172.0</ele><time>2026-04-18T08:13:09.999Z</time></trkpt><trkpt lat="44.990359347350946" lon="8.352695442559307"><ele>172.0</ele><time>2026-04-18T08:13:10.999Z</time></trkpt><trkpt lat="44.990391825012516" lon="8.352582158757285"><ele>172.0</ele><time>2026-04-18T08:13:11.999Z</time></trkpt><trkpt lat="44.99042272795168" lon="8.352472396310224"><ele>172.0</ele><time>2026-04-18T08:13:12.999Z</time></trkpt><trkpt lat="44.990457484667495" lon="8.35237792679046"><ele>172.0</ele><time>2026-04-18T08:13:13.999Z</time></trkpt><trkpt lat="44.99050228894525" lon="8.352285005411595"><ele>172.0</ele><time>2026-04-18T08:13:14.999Z</time></trkpt><trkpt lat="44.99054103765967" lon="8.352208929589287"><ele>172.0</ele><time>2026-04-18T08:13:15.999Z</time></trkpt><trkpt lat="44.990574277596714" lon="8.352123104057307"><ele>172.0</ele><time>2026-04-18T08:13:17Z</time></trkpt><trkpt lat="44.99060585509931" lon="8.351992595595966"><ele>172.0</ele><time>2026-04-18T08:13:19Z</time></trkpt><trkpt lat="44.99059492208166" lon="8.351866562094134"><ele>172.0</ele><time>2026-04-18T08:13:21Z</time></trkpt><trkpt lat="44.99054547129713" lon="8.351718309835444"><ele>171.33333333333334</ele><time>2026-04-18T08:13:23Z</time></trkpt><trkpt lat="44.99050214457835" lon="8.351631495761835"><ele>170.66666666666669</ele><time>2026-04-18T08:13:24Z</time></trkpt><trkpt lat="44.9904662495909" lon="8.351551425552781"><ele>170.0</ele><time>2026-04-18T08:13:25Z</time></trkpt><trkpt lat="44.990434056298284" lon="8.351474075455423"><ele>169.33333333333334</ele><time>2026-04-18T08:13:26Z</time></trkpt><trkpt lat="44.990396093487234" lon="8.351388380226663"><ele>168.66666666666666</ele><time>2026-04-18T08:13:27Z</time></trkpt><trkpt lat="44.990350831100194" lon="8.351214262750279"><ele>168.0</ele><time>2026-04-18T08:13:29Z</time></trkpt><trkpt lat="44.99034226953673" lon="8.351102125235306"><ele>167.66666666666666</ele><time>2026-04-18T08:13:30Z</time></trkpt><trkpt lat="44.99033078323992" lon="8.350977323957919"><ele>167.33333333333334</ele><time>2026-04-18T08:13:31Z</time></trkpt><trkpt lat="44.99031949683479" lon="8.350881991813957"><ele>167.0</ele><time>2026-04-18T08:13:32Z</time></trkpt><trkpt lat="44.990312543686514" lon="8.350743929908964"><ele>166.66666666666669</ele><time>2026-04-18T08:13:34Z</time></trkpt><trkpt lat="44.99032883680427" lon="8.350598691915176"><ele>166.33333333333334</ele><time>2026-04-18T08:13:36Z</time></trkpt><trkpt lat="44.99034593137335" lon="8.350500874703028"><ele>166.0</ele><time>2026-04-18T08:13:37Z</time></trkpt><trkpt lat="44.990371300810516" lon="8.350401505501527"><ele>166.0</ele><time>2026-04-18T08:13:38Z</time></trkpt><trkpt lat="44.990397220741045" lon="8.350311921004463"><ele>166.0</ele><time>2026-04-18T08:13:39Z</time></trkpt><trkpt lat="44.990442279935664" lon="8.350157469321477"><ele>166.0</ele><time>2026-04-18T08:13:41Z</time></trkpt><trkpt lat="44.99050371561793" lon="8.350023143140264"><ele>166.0</ele><time>2026-04-18T08:13:43Z</time></trkpt><trkpt lat="44.990600436635646" lon="8.34991228876893"><ele>166.0</ele><time>2026-04-18T08:13:45Z</time></trkpt><trkpt lat="44.99066776894102" lon="8.349902979012388"><ele>166.0</ele><time>2026-04-18T08:13:46Z</time></trkpt><trkpt lat="44.99074398478749" lon="8.349910445829673"><ele>166.0</ele><time>2026-04-18T08:13:47Z</time></trkpt><trkpt lat="44.990816356471896" lon="8.349937310082716"><ele>166.0</ele><time>2026-04-18T08:13:48Z</time></trkpt><trkpt lat="44.99089077547018" lon="8.349965979330625"><ele>166.0</ele><time>2026-04-18T08:13:49Z</time></trkpt><trkpt lat="44.990956537426385" lon="8.349971618051184"><ele>166.0</ele><time>2026-04-18T08:13:50Z</time></trkpt><trkpt lat="44.99104915201324" lon="8.349859391840035"><ele>166.0</ele><time>2026-04-18T08:13:52Z</time></trkpt><trkpt lat="44.99107924292378" lon="8.349754496845014"><ele>166.28571428571428</ele><time>2026-04-18T08:13:53Z</time></trkpt><trkpt lat="44.991108863444836" lon="8.34966622989327"><ele>166.57142857142858</ele><time>2026-04-18T08:13:54Z</time></trkpt><trkpt lat="44.99113709929331" lon="8.349573257721595"><ele>166.85714285714286</ele><time>2026-04-18T08:13:55Z</time></trkpt><trkpt lat="44.991163721843215" lon="8.349484299531035"><ele>167.14285714285714</ele><time>2026-04-18T08:13:56Z</time></trkpt><trkpt lat="44.991190994950614" lon="8.34938668104298"><ele>167.42857142857144</ele><time>2026-04-18T08:13:57Z</time></trkpt><trkpt lat="44.99121744076292" lon="8.349287843285765"><ele>167.71428571428572</ele><time>2026-04-18T08:13:58Z</time></trkpt><trkpt lat="44.991248575026674" lon="8.349187433766048"><ele>168.0</ele><time>2026-04-18T08:13:59Z</time></trkpt><trkpt lat="44.991281711771684" lon="8.349091330242093"><ele>168.0</ele><time>2026-04-18T08:14:00Z</time></trkpt><trkpt lat="44.991316584628834" lon="8.348988099795102"><ele>168.0</ele><time>2026-04-18T08:14:01Z</time></trkpt><trkpt lat="44.99134893754699" lon="8.348886336246444"><ele>168.0</ele><time>2026-04-18T08:14:02Z</time></trkpt><trkpt lat="44.99137736335608" lon="8.34879530616954"><ele>168.0</ele><time>2026-04-18T08:14:03Z</time></trkpt><trkpt lat="44.99140798717212" lon="8.34870224586766"><ele>168.0</ele><time>2026-04-18T08:14:04Z</time></trkpt><trkpt lat="44.9914367046005" lon="8.348612918171009"><ele>168.0</ele><time>2026-04-18T08:14:05Z</time></trkpt><trkpt lat="44.991491220919976" lon="8.348455166019212"><ele>168.16666666666666</ele><time>2026-04-18T08:14:07Z</time></trkpt><trkpt lat="44.99153664210821" lon="8.348309710477725"><ele>168.33333333333334</ele><time>2026-04-18T08:14:09Z</time></trkpt><trkpt lat="44.9915703110312" lon="8.348164194950899"><ele>168.5</ele><time>2026-04-18T08:14:11Z</time></trkpt><trkpt lat="44.991595838601775" lon="8.34807478386166"><ele>168.66666666666669</ele><time>2026-04-18T08:14:12Z</time></trkpt><trkpt lat="44.99162454906518" lon="8.347980579729342"><ele>168.83333333333334</ele><time>2026-04-18T08:14:13Z</time></trkpt><trkpt lat="44.99165196529966" lon="8.34788336187159"><ele>169.0</ele><time>2026-04-18T08:14:14Z</time></trkpt><trkpt lat="44.99167646136888" lon="8.347761064453847"><ele>169.0</ele><time>2026-04-18T08:14:15Z</time></trkpt><trkpt lat="44.99169362347593" lon="8.347643882154259"><ele>169.0</ele><time>2026-04-18T08:14:16Z</time></trkpt><trkpt lat="44.991701575508344" lon="8.347522661087956"><ele>169.0</ele><time>2026-04-18T08:14:17Z</time></trkpt><trkpt lat="44.991701676190274" lon="8.347391934472665"><ele>169.0</ele><time>2026-04-18T08:14:18Z</time></trkpt><trkpt lat="44.991703649444254" lon="8.347263626473541"><ele>169.0</ele><time>2026-04-18T08:14:19Z</time></trkpt><trkpt lat="44.99171109475017" lon="8.347138151080859"><ele>169.0</ele><time>2026-04-18T08:14:20Z</time></trkpt><trkpt lat="44.99171784419649" lon="8.346990097531592"><ele>169.0</ele><time>2026-04-18T08:14:21Z</time></trkpt><trkpt lat="44.99171940643624" lon="8.34686392183754"><ele>169.0</ele><time>2026-04-18T08:14:22Z</time></trkpt><trkpt lat="44.9917198556946" lon="8.346737775523474"><ele>169.0</ele><time>2026-04-18T08:14:23Z</time></trkpt><trkpt lat="44.99172450366262" lon="8.346608120037915"><ele>169.0</ele><time>2026-04-18T08:14:24Z</time></trkpt><trkpt lat="44.99173059047063" lon="8.346479916071662"><ele>169.0</ele><time>2026-04-18T08:14:25Z</time></trkpt><trkpt lat="44.99174575279532" lon="8.346339475042678"><ele>169.0</ele><time>2026-04-18T08:14:26Z</time></trkpt><trkpt lat="44.991747511577316" lon="8.346207679588812"><ele>169.0</ele><time>2026-04-18T08:14:27Z</time></trkpt><trkpt lat="44.99176556874983" lon="8.346068668061841"><ele>169.0</ele><time>2026-04-18T08:14:28Z</time></trkpt><trkpt lat="44.99178164950728" lon="8.345921958294129"><ele>169.0</ele><time>2026-04-18T08:14:29Z</time></trkpt><trkpt lat="44.991791996391655" lon="8.345773426779848"><ele>169.0</ele><time>2026-04-18T08:14:30Z</time></trkpt><trkpt lat="44.99180452351913" lon="8.34563413633828"><ele>168.39999999999998</ele><time>2026-04-18T08:14:31Z</time></trkpt><trkpt lat="44.99181603678112" lon="8.34549628964981"><ele>167.8</ele><time>2026-04-18T08:14:32Z</time></trkpt><trkpt lat="44.99182637837326" lon="8.345358877527492"><ele>167.2</ele><time>2026-04-18T08:14:33Z</time></trkpt><trkpt lat="44.99184472954889" lon="8.345218263801712"><ele>166.60000000000002</ele><time>2026-04-18T08:14:34Z</time></trkpt><trkpt lat="44.99187059480375" lon="8.345084400620284"><ele>166.0</ele><time>2026-04-18T08:14:35Z</time></trkpt><trkpt lat="44.99190931928137" lon="8.34496847315281"><ele>166.0</ele><time>2026-04-18T08:14:36Z</time></trkpt><trkpt lat="44.99195214629212" lon="8.344881207894677"><ele>166.0</ele><time>2026-04-18T08:14:37Z</time></trkpt><trkpt lat="44.99199893306673" lon="8.344803712544657"><ele>166.0</ele><time>2026-04-18T08:14:38Z</time></trkpt><trkpt lat="44.992023422694054" lon="8.344624155498595"><ele>166.0</ele><time>2026-04-18T08:14:40Z</time></trkpt><trkpt lat="44.99202019256907" lon="8.34448598825165"><ele>166.0</ele><time>2026-04-18T08:14:41Z</time></trkpt><trkpt lat="44.99201310992297" lon="8.344335530955451"><ele>166.20000000000002</ele><time>2026-04-18T08:14:42Z</time></trkpt><trkpt lat="44.99200957334631" lon="8.344190080292128"><ele>166.4</ele><time>2026-04-18T08:14:43Z</time></trkpt><trkpt lat="44.99201226856635" lon="8.34404765711064"><ele>166.6</ele><time>2026-04-18T08:14:44Z</time></trkpt><trkpt lat="44.992014785064136" lon="8.343899272877175"><ele>166.8</ele><time>2026-04-18T08:14:45Z</time></trkpt><trkpt lat="44.99201268950295" lon="8.343749858912457"><ele>167.0</ele><time>2026-04-18T08:14:46Z</time></trkpt><trkpt lat="44.992018176598364" lon="8.343607816811286"><ele>167.0</ele><time>2026-04-18T08:14:47Z</time></trkpt><trkpt lat="44.99202584667954" lon="8.343454684275722"><ele>167.0</ele><time>2026-04-18T08:14:48Z</time></trkpt><trkpt lat="44.99203492188271" lon="8.343298848789038"><ele>167.0</ele><time>2026-04-18T08:14:49Z</time></trkpt><trkpt lat="44.99204198784781" lon="8.343140158297713"><ele>167.0</ele><time>2026-04-18T08:14:50Z</time></trkpt><trkpt lat="44.992049813279195" lon="8.342985201207771"><ele>167.0</ele><time>2026-04-18T08:14:50.999Z</time></trkpt><trkpt lat="44.99205803297617" lon="8.34282462993901"><ele>167.2</ele><time>2026-04-18T08:14:51.999Z</time></trkpt><trkpt lat="44.992067412780834" lon="8.342669369756393"><ele>167.39999999999998</ele><time>2026-04-18T08:14:52.999Z</time></trkpt><trkpt lat="44.992081611383945" lon="8.34251293698168"><ele>167.60000000000002</ele><time>2026-04-18T08:14:53.999Z</time></trkpt><trkpt lat="44.99209929868783" lon="8.34235663510272"><ele>167.8</ele><time>2026-04-18T08:14:54.999Z</time></trkpt><trkpt lat="44.99211948313509" lon="8.34220059979325"><ele>168.0</ele><time>2026-04-18T08:14:55.999Z</time></trkpt><trkpt lat="44.99214390483823" lon="8.34204976264894"><ele>168.0</ele><time>2026-04-18T08:14:56.999Z</time></trkpt><trkpt lat="44.99217198192886" lon="8.341913942919474"><ele>168.0</ele><time>2026-04-18T08:14:57.999Z</time></trkpt><trkpt lat="44.99221633870103" lon="8.341780104591482"><ele>168.0</ele><time>2026-04-18T08:14:58.999Z</time></trkpt><trkpt lat="44.99226274677525" lon="8.341649656865503"><ele>168.0</ele><time>2026-04-18T08:14:59.999Z</time></trkpt><trkpt lat="44.992312631814634" lon="8.341525894217476"><ele>168.0</ele><time>2026-04-18T08:15:00.999Z</time></trkpt><trkpt lat="44.992355449746185" lon="8.341394264150539"><ele>168.4</ele><time>2026-04-18T08:15:01.999Z</time></trkpt><trkpt lat="44.99238500719084" lon="8.341257766630417"><ele>168.8</ele><time>2026-04-18T08:15:02.999Z</time></trkpt><trkpt lat="44.99240472670266" lon="8.341110894854545"><ele>169.2</ele><time>2026-04-18T08:15:03.999Z</time></trkpt><trkpt lat="44.9924201714016" lon="8.340968104245164"><ele>169.6</ele><time>2026-04-18T08:15:04.999Z</time></trkpt><trkpt lat="44.992436794742524" lon="8.340850767139727"><ele>170.0</ele><time>2026-04-18T08:15:05.999Z</time></trkpt><trkpt lat="44.99244962352606" lon="8.340742328789625"><ele>170.0</ele><time>2026-04-18T08:15:06.999Z</time></trkpt><trkpt lat="44.9924647579591" lon="8.340633108285607"><ele>170.0</ele><time>2026-04-18T08:15:07.999Z</time></trkpt><trkpt lat="44.99247986337354" lon="8.340526157884634"><ele>170.0</ele><time>2026-04-18T08:15:08.999Z</time></trkpt><trkpt lat="44.992487288687" lon="8.340419360994733"><ele>170.0</ele><time>2026-04-18T08:15:09.999Z</time></trkpt><trkpt lat="44.9924997872566" lon="8.340306477439903"><ele>170.0</ele><time>2026-04-18T08:15:10.999Z</time></trkpt><trkpt lat="44.99251580937461" lon="8.340202740856885"><ele>170.0</ele><time>2026-04-18T08:15:11.999Z</time></trkpt><trkpt lat="44.99253147775604" lon="8.340088561823674"><ele>169.66666666666666</ele><time>2026-04-18T08:15:12.999Z</time></trkpt><trkpt lat="44.992543264533964" lon="8.339985177377683"><ele>169.33333333333331</ele><time>2026-04-18T08:15:13.999Z</time></trkpt><trkpt lat="44.99255736314305" lon="8.339887920995231"><ele>169.0</ele><time>2026-04-18T08:15:14.999Z</time></trkpt><trkpt lat="44.9925468005339" lon="8.339728436683668"><ele>168.66666666666666</ele><time>2026-04-18T08:15:16.999Z</time></trkpt><trkpt lat="44.99249425446544" lon="8.339654845042244"><ele>168.33333333333334</ele><time>2026-04-18T08:15:17.999Z</time></trkpt><trkpt lat="44.99241122409831" lon="8.339582114180763"><ele>168.0</ele><time>2026-04-18T08:15:18.999Z</time></trkpt><trkpt lat="44.99232104110045" lon="8.339494184351071"><ele>169.4</ele><time>2026-04-18T08:15:19.999Z</time></trkpt><trkpt lat="44.992240265770675" lon="8.339417368740008"><ele>170.8</ele><time>2026-04-18T08:15:20.999Z</time></trkpt><trkpt lat="44.992152367319626" lon="8.339335268239076"><ele>172.2</ele><time>2026-04-18T08:15:21.999Z</time></trkpt><trkpt lat="44.99206339909644" lon="8.339245618275944"><ele>173.6</ele><time>2026-04-18T08:15:23Z</time></trkpt><trkpt lat="44.991973635160896" lon="8.339148248957848"><ele>175.0</ele><time>2026-04-18T08:15:24Z</time></trkpt><trkpt lat="44.99188449792049" lon="8.339049716880202"><ele>175.0</ele><time>2026-04-18T08:15:25Z</time></trkpt><trkpt lat="44.991800449721275" lon="8.33894865972461"><ele>175.0</ele><time>2026-04-18T08:15:26Z</time></trkpt><trkpt lat="44.9917111410188" lon="8.338845275411304"><ele>175.0</ele><time>2026-04-18T08:15:27Z</time></trkpt><trkpt lat="44.991625220069984" lon="8.33874389604043"><ele>175.0</ele><time>2026-04-18T08:15:28Z</time></trkpt><trkpt lat="44.9915430108109" lon="8.338636269980809"><ele>174.4</ele><time>2026-04-18T08:15:29Z</time></trkpt><trkpt lat="44.99146219773201" lon="8.33853334681381"><ele>173.8</ele><time>2026-04-18T08:15:30Z</time></trkpt><trkpt lat="44.99138062492117" lon="8.338429921847933"><ele>173.2</ele><time>2026-04-18T08:15:31Z</time></trkpt><trkpt lat="44.99130565652693" lon="8.3383384405433"><ele>172.6</ele><time>2026-04-18T08:15:32Z</time></trkpt><trkpt lat="44.991228881139946" lon="8.33824767067458"><ele>172.0</ele><time>2026-04-18T08:15:33Z</time></trkpt><trkpt lat="44.991154901742526" lon="8.338154727494143"><ele>172.0</ele><time>2026-04-18T08:15:34Z</time></trkpt><trkpt lat="44.99108959406261" lon="8.338067834025965"><ele>172.0</ele><time>2026-04-18T08:15:35Z</time></trkpt><trkpt lat="44.99103584356609" lon="8.337980549932325"><ele>172.0</ele><time>2026-04-18T08:15:36Z</time></trkpt><trkpt lat="44.990998581761204" lon="8.337869064977951"><ele>172.0</ele><time>2026-04-18T08:15:37Z</time></trkpt><trkpt lat="44.99098376124316" lon="8.337726612775718"><ele>172.0</ele><time>2026-04-18T08:15:38Z</time></trkpt><trkpt lat="44.99098007538801" lon="8.337571794900324"><ele>172.0</ele><time>2026-04-18T08:15:39Z</time></trkpt><trkpt lat="44.99098432465351" lon="8.337421641011565"><ele>172.0</ele><time>2026-04-18T08:15:40Z</time></trkpt><trkpt lat="44.990997582048124" lon="8.337287589110165"><ele>172.0</ele><time>2026-04-18T08:15:41Z</time></trkpt><trkpt lat="44.99101775613192" lon="8.33717330569946"><ele>172.0</ele><time>2026-04-18T08:15:42Z</time></trkpt><trkpt lat="44.99104302926176" lon="8.337065717147171"><ele>172.0</ele><time>2026-04-18T08:15:43Z</time></trkpt><trkpt lat="44.99106592928772" lon="8.336977975441023"><ele>172.0</ele><time>2026-04-18T08:15:44Z</time></trkpt><trkpt lat="44.99107109157475" lon="8.336877829560047"><ele>172.0</ele><time>2026-04-18T08:15:45Z</time></trkpt><trkpt lat="44.99104858126613" lon="8.336776566073691"><ele>172.0</ele><time>2026-04-18T08:15:46Z</time></trkpt><trkpt lat="44.99099565290594" lon="8.336671420889468"><ele>172.0</ele><time>2026-04-18T08:15:47Z</time></trkpt><trkpt lat="44.99093968399448" lon="8.336586320792671"><ele>172.0</ele><time>2026-04-18T08:15:48Z</time></trkpt><trkpt lat="44.99089530583445" lon="8.3364690239358"><ele>172.0</ele><time>2026-04-18T08:15:49Z</time></trkpt><trkpt lat="44.99086772337738" lon="8.33633222744172"><ele>172.0</ele><time>2026-04-18T08:15:50Z</time></trkpt><trkpt lat="44.990840757907534" lon="8.336181907785782"><ele>171.39999999999998</ele><time>2026-04-18T08:15:51Z</time></trkpt><trkpt lat="44.99081453876945" lon="8.336053413302135"><ele>170.79999999999998</ele><time>2026-04-18T08:15:52Z</time></trkpt><trkpt lat="44.990785174966696" lon="8.335918160355158"><ele>170.2</ele><time>2026-04-18T08:15:53Z</time></trkpt><trkpt lat="44.99075626247491" lon="8.33578919850121"><ele>169.6</ele><time>2026-04-18T08:15:54Z</time></trkpt><trkpt lat="44.990729423933004" lon="8.335666200662725"><ele>169.0</ele><time>2026-04-18T08:15:55Z</time></trkpt><trkpt lat="44.9906944505651" lon="8.335550415053754"><ele>169.0</ele><time>2026-04-18T08:15:56Z</time></trkpt><trkpt lat="44.990631299424365" lon="8.335451123739572"><ele>169.0</ele><time>2026-04-18T08:15:57Z</time></trkpt><trkpt lat="44.99055277188434" lon="8.335366803479022"><ele>169.0</ele><time>2026-04-18T08:15:58Z</time></trkpt><trkpt lat="44.99046275375326" lon="8.335291532541605"><ele>169.0</ele><time>2026-04-18T08:15:59Z</time></trkpt><trkpt lat="44.99037628406378" lon="8.335215392794128"><ele>169.0</ele><time>2026-04-18T08:16:00Z</time></trkpt><trkpt lat="44.99029026500196" lon="8.33513762941973"><ele>169.0</ele><time>2026-04-18T08:16:01Z</time></trkpt><trkpt lat="44.99020974616785" lon="8.33506274873493"><ele>169.0</ele><time>2026-04-18T08:16:02Z</time></trkpt><trkpt lat="44.99013661112067" lon="8.33497742175677"><ele>169.0</ele><time>2026-04-18T08:16:03Z</time></trkpt><trkpt lat="44.990075386215146" lon="8.334879887717786"><ele>169.0</ele><time>2026-04-18T08:16:04Z</time></trkpt><trkpt lat="44.99002181913397" lon="8.334764280801691"><ele>169.0</ele><time>2026-04-18T08:16:05Z</time></trkpt><trkpt lat="44.98998047960546" lon="8.334644181572852"><ele>169.39999999999998</ele><time>2026-04-18T08:16:06Z</time></trkpt><trkpt lat="44.989949895490774" lon="8.334509330756985"><ele>169.8</ele><time>2026-04-18T08:16:07Z</time></trkpt><trkpt lat="44.98992977305273" lon="8.33436733993925"><ele>170.2</ele><time>2026-04-18T08:16:08Z</time></trkpt><trkpt lat="44.98991675262146" lon="8.334234511518204"><ele>170.60000000000002</ele><time>2026-04-18T08:16:09Z</time></trkpt><trkpt lat="44.98991109624298" lon="8.33411429838688"><ele>171.0</ele><time>2026-04-18T08:16:10Z</time></trkpt><trkpt lat="44.98990090005279" lon="8.334000261599668"><ele>171.0</ele><time>2026-04-18T08:16:11Z</time></trkpt><trkpt lat="44.98989882798117" lon="8.333885418500259"><ele>171.0</ele><time>2026-04-18T08:16:13Z</time></trkpt><trkpt lat="44.989998429368804" lon="8.333799930105634"><ele>171.0</ele><time>2026-04-18T08:16:15Z</time></trkpt><trkpt lat="44.990061905878115" lon="8.333753065977524"><ele>171.0</ele><time>2026-04-18T08:16:16Z</time></trkpt><trkpt lat="44.990110572578395" lon="8.333671946328796"><ele>171.0</ele><time>2026-04-18T08:16:17Z</time></trkpt><trkpt lat="44.99014239574966" lon="8.3335655244092"><ele>171.0</ele><time>2026-04-18T08:16:18Z</time></trkpt><trkpt lat="44.99016900483492" lon="8.333453494394796"><ele>171.20000000000002</ele><time>2026-04-18T08:16:19Z</time></trkpt><trkpt lat="44.99019513805711" lon="8.333326122804229"><ele>171.4</ele><time>2026-04-18T08:16:20Z</time></trkpt><trkpt lat="44.990223564710774" lon="8.333186998552709"><ele>171.6</ele><time>2026-04-18T08:16:21Z</time></trkpt><trkpt lat="44.990257192240506" lon="8.333045116335969"><ele>171.8</ele><time>2026-04-18T08:16:22Z</time></trkpt><trkpt lat="44.99029038112028" lon="8.33290118036549"><ele>172.0</ele><time>2026-04-18T08:16:23Z</time></trkpt><trkpt lat="44.9903216709223" lon="8.332755762015388"><ele>171.6</ele><time>2026-04-18T08:16:24Z</time></trkpt><trkpt lat="44.99035241173309" lon="8.332620638526976"><ele>171.2</ele><time>2026-04-18T08:16:25Z</time></trkpt><trkpt lat="44.990379135292734" lon="8.332484009079717"><ele>170.8</ele><time>2026-04-18T08:16:26Z</time></trkpt><trkpt lat="44.99039959476454" lon="8.33235279327865"><ele>170.4</ele><time>2026-04-18T08:16:27Z</time></trkpt><trkpt lat="44.990415208789145" lon="8.33222887784996"><ele>170.0</ele><time>2026-04-18T08:16:28Z</time></trkpt><trkpt lat="44.99042953205196" lon="8.332124004994922"><ele>170.0</ele><time>2026-04-18T08:16:29Z</time></trkpt><trkpt lat="44.99044933366136" lon="8.332004466495954"><ele>170.0</ele><time>2026-04-18T08:16:30Z</time></trkpt><trkpt lat="44.99047499891443" lon="8.331877073888114"><ele>170.0</ele><time>2026-04-18T08:16:31Z</time></trkpt><trkpt lat="44.990513677465174" lon="8.331730795949195"><ele>170.0</ele><time>2026-04-18T08:16:32Z</time></trkpt><trkpt lat="44.99056756515661" lon="8.33159348462302"><ele>170.0</ele><time>2026-04-18T08:16:33Z</time></trkpt><trkpt lat="44.99063381759633" lon="8.33147172828906"><ele>170.0</ele><time>2026-04-18T08:16:34Z</time></trkpt><trkpt lat="44.99070368427864" lon="8.3313428961307"><ele>170.0</ele><time>2026-04-18T08:16:35Z</time></trkpt><trkpt lat="44.990772151395106" lon="8.331216008236916"><ele>170.0</ele><time>2026-04-18T08:16:36Z</time></trkpt><trkpt lat="44.990838564603784" lon="8.331095710177852"><ele>170.0</ele><time>2026-04-18T08:16:37Z</time></trkpt><trkpt lat="44.99090160353654" lon="8.33097204251838"><ele>170.0</ele><time>2026-04-18T08:16:38Z</time></trkpt><trkpt lat="44.990964234966164" lon="8.330846624011771"><ele>170.0</ele><time>2026-04-18T08:16:39Z</time></trkpt><trkpt lat="44.99103070287866" lon="8.330726570696505"><ele>170.0</ele><time>2026-04-18T08:16:40Z</time></trkpt><trkpt lat="44.99111276690387" lon="8.330634315461234"><ele>170.0</ele><time>2026-04-18T08:16:41Z</time></trkpt><trkpt lat="44.991203931080825" lon="8.330556416722803"><ele>170.0</ele><time>2026-04-18T08:16:42Z</time></trkpt><trkpt lat="44.99129779079633" lon="8.330489289094562"><ele>170.0</ele><time>2026-04-18T08:16:43Z</time></trkpt><trkpt lat="44.99139646308554" lon="8.330425178374195"><ele>170.6</ele><time>2026-04-18T08:16:44Z</time></trkpt><trkpt lat="44.99149584493326" lon="8.330353801934244"><ele>171.2</ele><time>2026-04-18T08:16:45Z</time></trkpt><trkpt lat="44.99159475156335" lon="8.330287164843492"><ele>171.8</ele><time>2026-04-18T08:16:46Z</time></trkpt><trkpt lat="44.99169672402192" lon="8.330227495409517"><ele>172.4</ele><time>2026-04-18T08:16:47Z</time></trkpt><trkpt lat="44.99180171469724" lon="8.330180790196273"><ele>173.0</ele><time>2026-04-18T08:16:48Z</time></trkpt><trkpt lat="44.99190784162504" lon="8.330133378488483"><ele>173.60000000000002</ele><time>2026-04-18T08:16:49Z</time></trkpt><trkpt lat="44.99201383399408" lon="8.330092927976013"><ele>174.20000000000002</ele><time>2026-04-18T08:16:50Z</time></trkpt><trkpt lat="44.99211717823831" lon="8.3300556373627"><ele>174.8</ele><time>2026-04-18T08:16:51Z</time></trkpt><trkpt lat="44.992207476739594" lon="8.33002637504516"><ele>175.4</ele><time>2026-04-18T08:16:52Z</time></trkpt><trkpt lat="44.99231768729639" lon="8.329983576108813"><ele>176.0</ele><time>2026-04-18T08:16:53Z</time></trkpt><trkpt lat="44.992412974363326" lon="8.329940815132208"><ele>175.8</ele><time>2026-04-18T08:16:54Z</time></trkpt><trkpt lat="44.992512638520566" lon="8.329887221825079"><ele>175.60000000000002</ele><time>2026-04-18T08:16:55Z</time></trkpt><trkpt lat="44.99260954400859" lon="8.329838561795379"><ele>175.4</ele><time>2026-04-18T08:16:56Z</time></trkpt><trkpt lat="44.9927022194706" lon="8.329772611404072"><ele>175.2</ele><time>2026-04-18T08:16:57Z</time></trkpt><trkpt lat="44.9927841463271" lon="8.329701953204939"><ele>175.0</ele><time>2026-04-18T08:16:58Z</time></trkpt><trkpt lat="44.99286701818669" lon="8.329626930957554"><ele>175.0</ele><time>2026-04-18T08:16:59Z</time></trkpt><trkpt lat="44.992932892671085" lon="8.329545369245652"><ele>175.0</ele><time>2026-04-18T08:17:00Z</time></trkpt><trkpt lat="44.99298249957341" lon="8.329474703054695"><ele>175.0</ele><time>2026-04-18T08:17:01Z</time></trkpt><trkpt lat="44.99303209382028" lon="8.329385312993864"><ele>175.0</ele><time>2026-04-18T08:17:02Z</time></trkpt><trkpt lat="44.9930809842481" lon="8.32927825230861"><ele>175.0</ele><time>2026-04-18T08:17:03Z</time></trkpt><trkpt lat="44.99312371356632" lon="8.329157383069756"><ele>175.0</ele><time>2026-04-18T08:17:04Z</time></trkpt><trkpt lat="44.99316308269889" lon="8.329037068033687"><ele>175.0</ele><time>2026-04-18T08:17:05Z</time></trkpt><trkpt lat="44.993199841449986" lon="8.32891632369197"><ele>175.0</ele><time>2026-04-18T08:17:06Z</time></trkpt><trkpt lat="44.993236756075575" lon="8.328818241921605"><ele>175.0</ele><time>2026-04-18T08:17:07Z</time></trkpt><trkpt lat="44.99328336141654" lon="8.328700911834153"><ele>175.0</ele><time>2026-04-18T08:17:08Z</time></trkpt><trkpt lat="44.993322781570605" lon="8.328583618172432"><ele>175.0</ele><time>2026-04-18T08:17:08.999Z</time></trkpt><trkpt lat="44.993362901217296" lon="8.328462416577933"><ele>174.6</ele><time>2026-04-18T08:17:09.999Z</time></trkpt><trkpt lat="44.993400359514176" lon="8.328333562660646"><ele>174.2</ele><time>2026-04-18T08:17:10.999Z</time></trkpt><trkpt lat="44.99344080950541" lon="8.32819558940776"><ele>173.8</ele><time>2026-04-18T08:17:11.999Z</time></trkpt><trkpt lat="44.99347686796176" lon="8.32805531045639"><ele>173.4</ele><time>2026-04-18T08:17:12.999Z</time></trkpt><trkpt lat="44.993512466412156" lon="8.327911320684299"><ele>173.0</ele><time>2026-04-18T08:17:13.999Z</time></trkpt><trkpt lat="44.99355781771644" lon="8.327778942885583"><ele>173.0</ele><time>2026-04-18T08:17:14.999Z</time></trkpt><trkpt lat="44.993586906270764" lon="8.327626382961878"><ele>173.0</ele><time>2026-04-18T08:17:15.999Z</time></trkpt><trkpt lat="44.99362583415157" lon="8.32749074404676"><ele>173.0</ele><time>2026-04-18T08:17:16.999Z</time></trkpt><trkpt lat="44.993674031489796" lon="8.32734848183248"><ele>173.0</ele><time>2026-04-18T08:17:17.999Z</time></trkpt><trkpt lat="44.99372634510816" lon="8.32721658240433"><ele>173.0</ele><time>2026-04-18T08:17:18.999Z</time></trkpt><trkpt lat="44.993775022998726" lon="8.327083987421002"><ele>173.2</ele><time>2026-04-18T08:17:19.999Z</time></trkpt><trkpt lat="44.993817972768916" lon="8.326955229774367"><ele>173.4</ele><time>2026-04-18T08:17:20.999Z</time></trkpt><trkpt lat="44.99386653951021" lon="8.326827167169633"><ele>173.6</ele><time>2026-04-18T08:17:21.999Z</time></trkpt><trkpt lat="44.99391594695301" lon="8.326700338801366"><ele>173.79999999999998</ele><time>2026-04-18T08:17:22.999Z</time></trkpt><trkpt lat="44.99396108056872" lon="8.326570730930365"><ele>174.0</ele><time>2026-04-18T08:17:23.999Z</time></trkpt><trkpt lat="44.994006955436" lon="8.326440587205331"><ele>173.79999999999998</ele><time>2026-04-18T08:17:24.999Z</time></trkpt><trkpt lat="44.99405358117575" lon="8.326310832490003"><ele>173.6</ele><time>2026-04-18T08:17:25.999Z</time></trkpt><trkpt lat="44.994100944115935" lon="8.326188720470224"><ele>173.4</ele><time>2026-04-18T08:17:26.999Z</time></trkpt><trkpt lat="44.994151406966125" lon="8.326077746040713"><ele>173.2</ele><time>2026-04-18T08:17:27.999Z</time></trkpt><trkpt lat="44.99419399353716" lon="8.325958434370856"><ele>173.0</ele><time>2026-04-18T08:17:29Z</time></trkpt><trkpt lat="44.99423670543857" lon="8.32583654369844"><ele>172.8</ele><time>2026-04-18T08:17:30Z</time></trkpt><trkpt lat="44.99428432106708" lon="8.325713446374627"><ele>172.60000000000002</ele><time>2026-04-18T08:17:31Z</time></trkpt><trkpt lat="44.99434045424892" lon="8.325592450777776"><ele>172.39999999999998</ele><time>2026-04-18T08:17:32Z</time></trkpt><trkpt lat="44.9943930437299" lon="8.325470155894452"><ele>172.2</ele><time>2026-04-18T08:17:33Z</time></trkpt><trkpt lat="44.994446666631106" lon="8.325351462468591"><ele>172.0</ele><time>2026-04-18T08:17:34Z</time></trkpt><trkpt lat="44.994505383476046" lon="8.325238983698398"><ele>172.0</ele><time>2026-04-18T08:17:35Z</time></trkpt><trkpt lat="44.99456557251875" lon="8.325127313351146"><ele>172.0</ele><time>2026-04-18T08:17:36Z</time></trkpt><trkpt lat="44.994619612088286" lon="8.325030110947118"><ele>172.0</ele><time>2026-04-18T08:17:37Z</time></trkpt><trkpt lat="44.99466974375176" lon="8.324918441659413"><ele>172.0</ele><time>2026-04-18T08:17:38Z</time></trkpt><trkpt lat="44.9947231664193" lon="8.324812076369845"><ele>172.0</ele><time>2026-04-18T08:17:39Z</time></trkpt><trkpt lat="44.99477822351402" lon="8.324697015648876"><ele>172.2</ele><time>2026-04-18T08:17:40Z</time></trkpt><trkpt lat="44.99483765874376" lon="8.32458948729575"><ele>172.39999999999998</ele><time>2026-04-18T08:17:41Z</time></trkpt><trkpt lat="44.994892565736414" lon="8.32448401414049"><ele>172.60000000000002</ele><time>2026-04-18T08:17:42Z</time></trkpt><trkpt lat="44.9949418190138" lon="8.324377158099223"><ele>172.8</ele><time>2026-04-18T08:17:43Z</time></trkpt><trkpt lat="44.99499650198978" lon="8.324259117314217"><ele>173.0</ele><time>2026-04-18T08:17:44Z</time></trkpt><trkpt lat="44.99505838329899" lon="8.324153451471231"><ele>173.0</ele><time>2026-04-18T08:17:45Z</time></trkpt><trkpt lat="44.9951243277413" lon="8.324039372562922"><ele>173.0</ele><time>2026-04-18T08:17:46Z</time></trkpt><trkpt lat="44.99519319643135" lon="8.323914628294906"><ele>173.0</ele><time>2026-04-18T08:17:47Z</time></trkpt><trkpt lat="44.99525670976877" lon="8.32379114857191"><ele>173.0</ele><time>2026-04-18T08:17:48Z</time></trkpt><trkpt lat="44.99532038977634" lon="8.323666838273496"><ele>173.0</ele><time>2026-04-18T08:17:49Z</time></trkpt><trkpt lat="44.99538450020469" lon="8.323544267600573"><ele>173.0</ele><time>2026-04-18T08:17:50Z</time></trkpt><trkpt lat="44.99544426126309" lon="8.323421353741866"><ele>173.0</ele><time>2026-04-18T08:17:51Z</time></trkpt><trkpt lat="44.99550663029235" lon="8.323295239864775"><ele>173.0</ele><time>2026-04-18T08:17:52Z</time></trkpt><trkpt lat="44.99557360588037" lon="8.323165702078565"><ele>173.0</ele><time>2026-04-18T08:17:53Z</time></trkpt><trkpt lat="44.99564391396085" lon="8.323036093220457"><ele>173.0</ele><time>2026-04-18T08:17:54Z</time></trkpt><trkpt lat="44.99572881988491" lon="8.322902244302847"><ele>173.0</ele><time>2026-04-18T08:17:55Z</time></trkpt><trkpt lat="44.9957973628436" lon="8.322772797290172"><ele>173.0</ele><time>2026-04-18T08:17:56Z</time></trkpt><trkpt lat="44.99587756273403" lon="8.322643526224738"><ele>173.0</ele><time>2026-04-18T08:17:57Z</time></trkpt><trkpt lat="44.99596110145193" lon="8.322518474065776"><ele>173.0</ele><time>2026-04-18T08:17:58Z</time></trkpt><trkpt lat="44.99604135159151" lon="8.32240114185121"><ele>173.0</ele><time>2026-04-18T08:17:59Z</time></trkpt><trkpt lat="44.99612784782681" lon="8.322286791207867"><ele>173.0</ele><time>2026-04-18T08:18:00Z</time></trkpt><trkpt lat="44.996213107675466" lon="8.322172057230794"><ele>173.0</ele><time>2026-04-18T08:18:01Z</time></trkpt><trkpt lat="44.9962969507891" lon="8.322055274692952"><ele>173.0</ele><time>2026-04-18T08:18:02Z</time></trkpt><trkpt lat="44.99637700539892" lon="8.321939793905056"><ele>173.0</ele><time>2026-04-18T08:18:03Z</time></trkpt><trkpt lat="44.99644972674271" lon="8.321838092204237"><ele>173.0</ele><time>2026-04-18T08:18:04Z</time></trkpt><trkpt lat="44.996522233012755" lon="8.321733837404587"><ele>173.0</ele><time>2026-04-18T08:18:05Z</time></trkpt><trkpt lat="44.99659155011384" lon="8.32163603949758"><ele>173.0</ele><time>2026-04-18T08:18:06Z</time></trkpt><trkpt lat="44.99666189759867" lon="8.321530443842665"><ele>173.0</ele><time>2026-04-18T08:18:07Z</time></trkpt><trkpt lat="44.99672665841637" lon="8.321426117290887"><ele>172.8</ele><time>2026-04-18T08:18:08Z</time></trkpt><trkpt lat="44.996787049224444" lon="8.321306059909476"><ele>172.60000000000002</ele><time>2026-04-18T08:18:09Z</time></trkpt><trkpt lat="44.99684292310252" lon="8.321180795081252"><ele>172.39999999999998</ele><time>2026-04-18T08:18:10Z</time></trkpt><trkpt lat="44.996905504823545" lon="8.3210530273512"><ele>172.2</ele><time>2026-04-18T08:18:11Z</time></trkpt><trkpt lat="44.996965709302096" lon="8.320909923689921"><ele>172.0</ele><time>2026-04-18T08:18:12Z</time></trkpt><trkpt lat="44.997028311878715" lon="8.32078342246803"><ele>172.0</ele><time>2026-04-18T08:18:13Z</time></trkpt><trkpt lat="44.99709421239632" lon="8.320654508410751"><ele>172.0</ele><time>2026-04-18T08:18:14Z</time></trkpt><trkpt lat="44.99716157992516" lon="8.320523169200364"><ele>172.0</ele><time>2026-04-18T08:18:15Z</time></trkpt><trkpt lat="44.99723836939137" lon="8.32039867498523"><ele>172.0</ele><time>2026-04-18T08:18:16Z</time></trkpt><trkpt lat="44.99731351731341" lon="8.32027727947922"><ele>172.0</ele><time>2026-04-18T08:18:17Z</time></trkpt><trkpt lat="44.997383931953664" lon="8.320155272304978"><ele>172.0</ele><time>2026-04-18T08:18:18Z</time></trkpt><trkpt lat="44.99745043989376" lon="8.320029859847969"><ele>172.0</ele><time>2026-04-18T08:18:19Z</time></trkpt><trkpt lat="44.997515891490934" lon="8.31991556784014"><ele>172.0</ele><time>2026-04-18T08:18:20Z</time></trkpt><trkpt lat="44.99758613821203" lon="8.31980435368613"><ele>172.0</ele><time>2026-04-18T08:18:21Z</time></trkpt><trkpt lat="44.997656177696605" lon="8.319687878917737"><ele>172.39999999999998</ele><time>2026-04-18T08:18:22Z</time></trkpt><trkpt lat="44.99772468259291" lon="8.319570273530688"><ele>172.79999999999998</ele><time>2026-04-18T08:18:23Z</time></trkpt><trkpt lat="44.997791300809375" lon="8.31945529393207"><ele>173.2</ele><time>2026-04-18T08:18:24Z</time></trkpt><trkpt lat="44.99785808278039" lon="8.319340384415009"><ele>173.6</ele><time>2026-04-18T08:18:25Z</time></trkpt><trkpt lat="44.99792540650112" lon="8.319217408474865"><ele>174.0</ele><time>2026-04-18T08:18:26Z</time></trkpt><trkpt lat="44.99799248615669" lon="8.319093533503963"><ele>174.0</ele><time>2026-04-18T08:18:27Z</time></trkpt><trkpt lat="44.99806277609326" lon="8.318968519863919"><ele>174.0</ele><time>2026-04-18T08:18:28Z</time></trkpt><trkpt lat="44.998131413724366" lon="8.318839897717114"><ele>174.0</ele><time>2026-04-18T08:18:29Z</time></trkpt><trkpt lat="44.99819623285157" lon="8.318711665010317"><ele>174.0</ele><time>2026-04-18T08:18:30Z</time></trkpt><trkpt lat="44.998261013618304" lon="8.318580860669368"><ele>174.2</ele><time>2026-04-18T08:18:31Z</time></trkpt><trkpt lat="44.99832645161143" lon="8.318452003161669"><ele>174.39999999999998</ele><time>2026-04-18T08:18:32Z</time></trkpt><trkpt lat="44.99838389445402" lon="8.318334571965474"><ele>174.6</ele><time>2026-04-18T08:18:33Z</time></trkpt><trkpt lat="44.99844216699075" lon="8.318218324017424"><ele>174.8</ele><time>2026-04-18T08:18:34Z</time></trkpt><trkpt lat="44.99850668152609" lon="8.318097295263026"><ele>175.0</ele><time>2026-04-18T08:18:35Z</time></trkpt><trkpt lat="44.998571403419064" lon="8.31798044332254"><ele>175.2</ele><time>2026-04-18T08:18:36Z</time></trkpt><trkpt lat="44.998636759297874" lon="8.317858558415887"><ele>175.4</ele><time>2026-04-18T08:18:37Z</time></trkpt><trkpt lat="44.99870291096999" lon="8.317733247942677"><ele>175.60000000000002</ele><time>2026-04-18T08:18:38Z</time></trkpt><trkpt lat="44.99876801130713" lon="8.317601893945508"><ele>175.8</ele><time>2026-04-18T08:18:39Z</time></trkpt><trkpt lat="44.99883144739854" lon="8.317476047723463"><ele>176.0</ele><time>2026-04-18T08:18:40Z</time></trkpt><trkpt lat="44.99889579807422" lon="8.317352754010587"><ele>175.8</ele><time>2026-04-18T08:18:41Z</time></trkpt><trkpt lat="44.99895470733547" lon="8.317229492524207"><ele>175.60000000000002</ele><time>2026-04-18T08:18:42Z</time></trkpt><trkpt lat="44.99901972990609" lon="8.317100531290432"><ele>175.4</ele><time>2026-04-18T08:18:43Z</time></trkpt><trkpt lat="44.99908230950377" lon="8.316968614629923"><ele>175.2</ele><time>2026-04-18T08:18:44Z</time></trkpt><trkpt lat="44.999138883852495" lon="8.31682544784431"><ele>175.0</ele><time>2026-04-18T08:18:45Z</time></trkpt><trkpt lat="44.99920114475291" lon="8.316691418908563"><ele>174.75</ele><time>2026-04-18T08:18:46Z</time></trkpt><trkpt lat="44.9992626578844" lon="8.316552257062483"><ele>174.5</ele><time>2026-04-18T08:18:47Z</time></trkpt><trkpt lat="44.99932788772744" lon="8.316399945140136"><ele>174.25</ele><time>2026-04-18T08:18:48Z</time></trkpt><trkpt lat="44.99939540726697" lon="8.316274350755867"><ele>174.0</ele><time>2026-04-18T08:18:49Z</time></trkpt><trkpt lat="44.99944889285712" lon="8.316161023916873"><ele>174.0</ele><time>2026-04-18T08:18:50Z</time></trkpt><trkpt lat="44.999499669516105" lon="8.316047568807768"><ele>174.0</ele><time>2026-04-18T08:18:51Z</time></trkpt><trkpt lat="44.99955272109772" lon="8.315920493532209"><ele>174.0</ele><time>2026-04-18T08:18:52Z</time></trkpt><trkpt lat="44.99961147935464" lon="8.315791416584553"><ele>174.0</ele><time>2026-04-18T08:18:53Z</time></trkpt><trkpt lat="44.999662767942496" lon="8.315660889243153"><ele>174.0</ele><time>2026-04-18T08:18:54Z</time></trkpt><trkpt lat="44.99970762605018" lon="8.315531674199454"><ele>174.0</ele><time>2026-04-18T08:18:55Z</time></trkpt><trkpt lat="44.9997434242767" lon="8.315398791441519"><ele>174.0</ele><time>2026-04-18T08:18:56Z</time></trkpt><trkpt lat="44.99977559375114" lon="8.31525510208844"><ele>174.0</ele><time>2026-04-18T08:18:57Z</time></trkpt><trkpt lat="44.99980622198565" lon="8.315105299757757"><ele>174.0</ele><time>2026-04-18T08:18:58Z</time></trkpt><trkpt lat="44.9998302925367" lon="8.314950114752055"><ele>174.0</ele><time>2026-04-18T08:18:59Z</time></trkpt><trkpt lat="44.99985053788133" lon="8.314805565817911"><ele>174.6</ele><time>2026-04-18T08:19:00Z</time></trkpt><trkpt lat="44.99987647236235" lon="8.31466738528714"><ele>175.2</ele><time>2026-04-18T08:19:01Z</time></trkpt><trkpt lat="44.999906757177364" lon="8.31453201703448"><ele>175.79999999999998</ele><time>2026-04-18T08:19:02Z</time></trkpt><trkpt lat="44.999943093124536" lon="8.314398272347585"><ele>176.39999999999998</ele><time>2026-04-18T08:19:03Z</time></trkpt><trkpt lat="44.99998035207982" lon="8.314259951067696"><ele>177.0</ele><time>2026-04-18T08:19:04Z</time></trkpt><trkpt lat="45.00001098305567" lon="8.314120331073914"><ele>177.0</ele><time>2026-04-18T08:19:05Z</time></trkpt><trkpt lat="45.00004032004118" lon="8.313974443091329"><ele>177.0</ele><time>2026-04-18T08:19:06Z</time></trkpt><trkpt lat="45.000069239531705" lon="8.313832419109936"><ele>177.0</ele><time>2026-04-18T08:19:07Z</time></trkpt><trkpt lat="45.000094703752595" lon="8.313691524188227"><ele>177.0</ele><time>2026-04-18T08:19:08Z</time></trkpt><trkpt lat="45.000117021425034" lon="8.313548459725762"><ele>177.0</ele><time>2026-04-18T08:19:09Z</time></trkpt><trkpt lat="45.00013505989468" lon="8.313414021021652"><ele>177.2</ele><time>2026-04-18T08:19:10Z</time></trkpt><trkpt lat="45.00014985124885" lon="8.31328920210666"><ele>177.39999999999998</ele><time>2026-04-18T08:19:11Z</time></trkpt><trkpt lat="45.00016840432039" lon="8.313160370905047"><ele>177.60000000000002</ele><time>2026-04-18T08:19:12Z</time></trkpt><trkpt lat="45.000183868335846" lon="8.313033256084255"><ele>177.8</ele><time>2026-04-18T08:19:13Z</time></trkpt><trkpt lat="45.0001997910122" lon="8.312895266653303"><ele>178.0</ele><time>2026-04-18T08:19:14Z</time></trkpt><trkpt lat="45.000215472009195" lon="8.31275607133798"><ele>178.0</ele><time>2026-04-18T08:19:15Z</time></trkpt><trkpt lat="45.00023577654802" lon="8.312621311357882"><ele>178.0</ele><time>2026-04-18T08:19:16Z</time></trkpt><trkpt lat="45.000256868325096" lon="8.312473854211477"><ele>178.0</ele><time>2026-04-18T08:19:17Z</time></trkpt><trkpt lat="45.00027799006659" lon="8.312333348315624"><ele>178.0</ele><time>2026-04-18T08:19:18Z</time></trkpt><trkpt lat="45.00029962172491" lon="8.31219926804517"><ele>178.0</ele><time>2026-04-18T08:19:19Z</time></trkpt><trkpt lat="45.00031987480668" lon="8.312070338883819"><ele>177.8</ele><time>2026-04-18T08:19:20Z</time></trkpt><trkpt lat="45.00033645432006" lon="8.311934749943376"><ele>177.60000000000002</ele><time>2026-04-18T08:19:21Z</time></trkpt><trkpt lat="45.00034616111696" lon="8.311801544469795"><ele>177.39999999999998</ele><time>2026-04-18T08:19:22Z</time></trkpt><trkpt lat="45.00035321794376" lon="8.311662494470779"><ele>177.2</ele><time>2026-04-18T08:19:23Z</time></trkpt><trkpt lat="45.00035571403658" lon="8.311523731851807"><ele>177.0</ele><time>2026-04-18T08:19:24Z</time></trkpt><trkpt lat="45.000357712857934" lon="8.31138695336856"><ele>176.8</ele><time>2026-04-18T08:19:24.999Z</time></trkpt><trkpt lat="45.00036344951143" lon="8.311247540665702"><ele>176.6</ele><time>2026-04-18T08:19:25.999Z</time></trkpt><trkpt lat="45.00037064615369" lon="8.311113157551205"><ele>176.4</ele><time>2026-04-18T08:19:26.999Z</time></trkpt><trkpt lat="45.00038313937894" lon="8.310971419957859"><ele>176.20000000000002</ele><time>2026-04-18T08:19:27.999Z</time></trkpt><trkpt lat="45.000407719642816" lon="8.310830566305023"><ele>176.0</ele><time>2026-04-18T08:19:28.999Z</time></trkpt><trkpt lat="45.000442064117294" lon="8.310704228431996"><ele>176.0</ele><time>2026-04-18T08:19:29.999Z</time></trkpt><trkpt lat="45.00047722569469" lon="8.310581259551299"><ele>176.0</ele><time>2026-04-18T08:19:30.999Z</time></trkpt><trkpt lat="45.00051200560581" lon="8.310466118860173"><ele>176.0</ele><time>2026-04-18T08:19:31.999Z</time></trkpt><trkpt lat="45.00054183734319" lon="8.310360961226856"><ele>176.0</ele><time>2026-04-18T08:19:32.999Z</time></trkpt><trkpt lat="45.000570283966965" lon="8.310245091237253"><ele>176.0</ele><time>2026-04-18T08:19:33.999Z</time></trkpt><trkpt lat="45.00058963364521" lon="8.310117409308557"><ele>176.0</ele><time>2026-04-18T08:19:35Z</time></trkpt><trkpt lat="45.000601705607785" lon="8.310001462750483"><ele>176.60000000000002</ele><time>2026-04-18T08:19:36Z</time></trkpt><trkpt lat="45.00061609471727" lon="8.309864085430663"><ele>177.2</ele><time>2026-04-18T08:19:37Z</time></trkpt><trkpt lat="45.000636704219666" lon="8.309747760386548"><ele>177.8</ele><time>2026-04-18T08:19:38Z</time></trkpt><trkpt lat="45.00066086136125" lon="8.309626423210881"><ele>178.39999999999998</ele><time>2026-04-18T08:19:39Z</time></trkpt><trkpt lat="45.00070431799674" lon="8.309500668446962"><ele>179.0</ele><time>2026-04-18T08:19:40Z</time></trkpt><trkpt lat="45.00074736204245" lon="8.309387130323058"><ele>179.2</ele><time>2026-04-18T08:19:41Z</time></trkpt><trkpt lat="45.00078120121924" lon="8.309268762637604"><ele>179.39999999999998</ele><time>2026-04-18T08:19:42Z</time></trkpt><trkpt lat="45.00080059029591" lon="8.309147474950288"><ele>179.6</ele><time>2026-04-18T08:19:43Z</time></trkpt><trkpt lat="45.000805606969266" lon="8.309002369194829"><ele>179.8</ele><time>2026-04-18T08:19:44Z</time></trkpt><trkpt lat="45.00081462419339" lon="8.308858305260307"><ele>180.0</ele><time>2026-04-18T08:19:45Z</time></trkpt><trkpt lat="45.00081856801667" lon="8.308711571678643"><ele>180.2</ele><time>2026-04-18T08:19:46Z</time></trkpt><trkpt lat="45.00081908968575" lon="8.308568415883935"><ele>180.4</ele><time>2026-04-18T08:19:47Z</time></trkpt><trkpt lat="45.00082257843575" lon="8.308425647803363"><ele>180.60000000000002</ele><time>2026-04-18T08:19:48Z</time></trkpt><trkpt lat="45.000826617192715" lon="8.308282076947329"><ele>180.8</ele><time>2026-04-18T08:19:49Z</time></trkpt><trkpt lat="45.00083574561417" lon="8.308145606637385"><ele>181.0</ele><time>2026-04-18T08:19:50Z</time></trkpt><trkpt lat="45.00084283646568" lon="8.308024738160698"><ele>181.0</ele><time>2026-04-18T08:19:51Z</time></trkpt><trkpt lat="45.00085232823222" lon="8.307902222497331"><ele>181.0</ele><time>2026-04-18T08:19:52Z</time></trkpt><trkpt lat="45.00087901424361" lon="8.307786593246194"><ele>181.0</ele><time>2026-04-18T08:19:53Z</time></trkpt><trkpt lat="45.000933726752685" lon="8.30768260228005"><ele>181.0</ele><time>2026-04-18T08:19:54Z</time></trkpt><trkpt lat="45.00101274766201" lon="8.307602498462341"><ele>181.0</ele><time>2026-04-18T08:19:55Z</time></trkpt><trkpt lat="45.00110327366863" lon="8.30751862632132"><ele>181.0</ele><time>2026-04-18T08:19:56Z</time></trkpt><trkpt lat="45.00119690560061" lon="8.307421889584136"><ele>181.0</ele><time>2026-04-18T08:19:57Z</time></trkpt><trkpt lat="45.00128807865464" lon="8.307325787889205"><ele>181.0</ele><time>2026-04-18T08:19:58Z</time></trkpt><trkpt lat="45.00137727499944" lon="8.30722301322737"><ele>181.0</ele><time>2026-04-18T08:19:59Z</time></trkpt><trkpt lat="45.00146394366361" lon="8.307115304797389"><ele>181.5</ele><time>2026-04-18T08:20:00Z</time></trkpt><trkpt lat="45.00155036162457" lon="8.307001823033643"><ele>182.0</ele><time>2026-04-18T08:20:01Z</time></trkpt><trkpt lat="45.001636406787526" lon="8.306892161542962"><ele>182.5</ele><time>2026-04-18T08:20:02Z</time></trkpt><trkpt lat="45.0017255676645" lon="8.306787483239413"><ele>183.0</ele><time>2026-04-18T08:20:03Z</time></trkpt><trkpt lat="45.001812999417645" lon="8.306679775483593"><ele>183.0</ele><time>2026-04-18T08:20:04Z</time></trkpt><trkpt lat="45.00189388192922" lon="8.306571529883804"><ele>183.0</ele><time>2026-04-18T08:20:05Z</time></trkpt><trkpt lat="45.001972573637644" lon="8.306456924784058"><ele>183.0</ele><time>2026-04-18T08:20:06Z</time></trkpt><trkpt lat="45.00205331770743" lon="8.30634236926217"><ele>183.0</ele><time>2026-04-18T08:20:07Z</time></trkpt><trkpt lat="45.00213500921254" lon="8.306229009794546"><ele>183.0</ele><time>2026-04-18T08:20:08Z</time></trkpt><trkpt lat="45.00221400612556" lon="8.306124182499257"><ele>183.0</ele><time>2026-04-18T08:20:09Z</time></trkpt><trkpt lat="45.00229077373017" lon="8.306023384531338"><ele>183.0</ele><time>2026-04-18T08:20:10Z</time></trkpt><trkpt lat="45.00235935915708" lon="8.305924875249179"><ele>183.0</ele><time>2026-04-18T08:20:11Z</time></trkpt><trkpt lat="45.002427422728395" lon="8.305822015655083"><ele>183.0</ele><time>2026-04-18T08:20:12Z</time></trkpt><trkpt lat="45.002489520419" lon="8.30572383218508"><ele>183.0</ele><time>2026-04-18T08:20:13Z</time></trkpt><trkpt lat="45.002550168356485" lon="8.305626118914848"><ele>183.0</ele><time>2026-04-18T08:20:14Z</time></trkpt><trkpt lat="45.002611218376984" lon="8.305529918219538"><ele>183.0</ele><time>2026-04-18T08:20:15Z</time></trkpt><trkpt lat="45.00267017770021" lon="8.305440667210357"><ele>183.0</ele><time>2026-04-18T08:20:16Z</time></trkpt><trkpt lat="45.002722065652506" lon="8.305371914484004"><ele>183.0</ele><time>2026-04-18T08:20:17Z</time></trkpt><trkpt lat="45.00277609771472" lon="8.305313710258206"><ele>183.0</ele><time>2026-04-18T08:20:18Z</time></trkpt><trkpt lat="45.002856419858716" lon="8.30524322735883"><ele>183.0</ele><time>2026-04-18T08:20:20Z</time></trkpt><trkpt lat="45.002920502765086" lon="8.305217201504895"><ele>183.0</ele><time>2026-04-18T08:20:21Z</time></trkpt><trkpt lat="45.003024694442935" lon="8.305186764285324"><ele>183.0</ele><time>2026-04-18T08:20:22Z</time></trkpt><trkpt lat="45.00313395291634" lon="8.305120478561179"><ele>183.0</ele><time>2026-04-18T08:20:23Z</time></trkpt><trkpt lat="45.00325475728444" lon="8.30506006608205"><ele>183.0</ele><time>2026-04-18T08:20:24Z</time></trkpt><trkpt lat="45.00337078471884" lon="8.304983883404946"><ele>183.0</ele><time>2026-04-18T08:20:25Z</time></trkpt><trkpt lat="45.00348413124121" lon="8.304891865314325"><ele>183.0</ele><time>2026-04-18T08:20:26Z</time></trkpt><trkpt lat="45.00358966224943" lon="8.304793078499106"><ele>183.0</ele><time>2026-04-18T08:20:27Z</time></trkpt><trkpt lat="45.00369546255304" lon="8.304699996907843"><ele>183.0</ele><time>2026-04-18T08:20:28Z</time></trkpt><trkpt lat="45.003809019775424" lon="8.304615924382746"><ele>182.60000000000002</ele><time>2026-04-18T08:20:29Z</time></trkpt><trkpt lat="45.00391800280601" lon="8.304536401292488"><ele>182.20000000000002</ele><time>2026-04-18T08:20:30Z</time></trkpt><trkpt lat="45.00402188093334" lon="8.304469479221579"><ele>181.8</ele><time>2026-04-18T08:20:31Z</time></trkpt><trkpt lat="45.004124107336736" lon="8.304409063631475"><ele>181.4</ele><time>2026-04-18T08:20:32Z</time></trkpt><trkpt lat="45.00421730738793" lon="8.30436362395907"><ele>181.0</ele><time>2026-04-18T08:20:33Z</time></trkpt><trkpt lat="45.00430144325771" lon="8.304290554159412"><ele>180.8</ele><time>2026-04-18T08:20:34Z</time></trkpt><trkpt lat="45.00436885894271" lon="8.304205949383084"><ele>180.60000000000002</ele><time>2026-04-18T08:20:35Z</time></trkpt><trkpt lat="45.0044661314003" lon="8.304122554701303"><ele>180.4</ele><time>2026-04-18T08:20:36Z</time></trkpt><trkpt lat="45.00455803884966" lon="8.304040529912644"><ele>180.2</ele><time>2026-04-18T08:20:37Z</time></trkpt><trkpt lat="45.00465063718069" lon="8.303971239687282"><ele>180.0</ele><time>2026-04-18T08:20:38Z</time></trkpt><trkpt lat="45.00475433296569" lon="8.30391404404036"><ele>180.2</ele><time>2026-04-18T08:20:39Z</time></trkpt><trkpt lat="45.004853339434405" lon="8.30388413634237"><ele>180.4</ele><time>2026-04-18T08:20:40Z</time></trkpt><trkpt lat="45.00495354487217" lon="8.303867449308616"><ele>180.60000000000002</ele><time>2026-04-18T08:20:41Z</time></trkpt><trkpt lat="45.005055501956804" lon="8.303852613737408"><ele>180.8</ele><time>2026-04-18T08:20:42Z</time></trkpt><trkpt lat="45.00514752382453" lon="8.30379478608524"><ele>181.0</ele><time>2026-04-18T08:20:43Z</time></trkpt><trkpt lat="45.00523430475567" lon="8.30371271400583"><ele>181.0</ele><time>2026-04-18T08:20:44Z</time></trkpt><trkpt lat="45.00530781273209" lon="8.303620611510663"><ele>181.0</ele><time>2026-04-18T08:20:45Z</time></trkpt><trkpt lat="45.005369854904124" lon="8.30350669148773"><ele>181.0</ele><time>2026-04-18T08:20:46Z</time></trkpt><trkpt lat="45.0054367677659" lon="8.303390853825723"><ele>181.0</ele><time>2026-04-18T08:20:47Z</time></trkpt><trkpt lat="45.005483200813295" lon="8.303293117232048"><ele>181.0</ele><time>2026-04-18T08:20:48Z</time></trkpt><trkpt lat="45.0055263305409" lon="8.303171536947954"><ele>181.0</ele><time>2026-04-18T08:20:49Z</time></trkpt><trkpt lat="45.005574818692715" lon="8.30304722397032"><ele>181.0</ele><time>2026-04-18T08:20:50Z</time></trkpt><trkpt lat="45.00561364131549" lon="8.302907459610458"><ele>181.0</ele><time>2026-04-18T08:20:51Z</time></trkpt><trkpt lat="45.00564636900258" lon="8.302765117335538"><ele>181.0</ele><time>2026-04-18T08:20:52Z</time></trkpt><trkpt lat="45.00568506128747" lon="8.302624181522381"><ele>181.0</ele><time>2026-04-18T08:20:53Z</time></trkpt><trkpt lat="45.00573910550944" lon="8.302486279242787"><ele>181.0</ele><time>2026-04-18T08:20:54Z</time></trkpt><trkpt lat="45.005805336312164" lon="8.3023619041347"><ele>181.0</ele><time>2026-04-18T08:20:55Z</time></trkpt><trkpt lat="45.00588570418065" lon="8.302243546471903"><ele>181.0</ele><time>2026-04-18T08:20:56Z</time></trkpt><trkpt lat="45.00596991249073" lon="8.302132927374954"><ele>181.0</ele><time>2026-04-18T08:20:57Z</time></trkpt><trkpt lat="45.00605777481024" lon="8.30202457695203"><ele>181.75</ele><time>2026-04-18T08:20:58Z</time></trkpt><trkpt lat="45.00614699537403" lon="8.301920718259948"><ele>182.5</ele><time>2026-04-18T08:20:59Z</time></trkpt><trkpt lat="45.006238658369966" lon="8.3018234443869"><ele>183.25</ele><time>2026-04-18T08:21:00Z</time></trkpt><trkpt lat="45.00632564889013" lon="8.301723936660796"><ele>184.0</ele><time>2026-04-18T08:21:01Z</time></trkpt><trkpt lat="45.006413161904604" lon="8.301626274093103"><ele>184.0</ele><time>2026-04-18T08:21:02Z</time></trkpt><trkpt lat="45.00649724021961" lon="8.301521037930131"><ele>184.0</ele><time>2026-04-18T08:21:03Z</time></trkpt><trkpt lat="45.00657816579552" lon="8.301408550530832"><ele>184.0</ele><time>2026-04-18T08:21:04Z</time></trkpt><trkpt lat="45.00665107210124" lon="8.30128683738379"><ele>184.0</ele><time>2026-04-18T08:21:05Z</time></trkpt><trkpt lat="45.006715243013055" lon="8.30115959504898"><ele>184.0</ele><time>2026-04-18T08:21:06Z</time></trkpt><trkpt lat="45.00677219317785" lon="8.301027194040342"><ele>184.0</ele><time>2026-04-18T08:21:07Z</time></trkpt><trkpt lat="45.00682236461648" lon="8.30088903582119"><ele>184.0</ele><time>2026-04-18T08:21:08Z</time></trkpt><trkpt lat="45.00687467682617" lon="8.300752101287165"><ele>184.0</ele><time>2026-04-18T08:21:09Z</time></trkpt><trkpt lat="45.0069313911385" lon="8.300612909768152"><ele>184.0</ele><time>2026-04-18T08:21:10Z</time></trkpt><trkpt lat="45.006985995049874" lon="8.300481387673731"><ele>184.0</ele><time>2026-04-18T08:21:11Z</time></trkpt><trkpt lat="45.00704334014667" lon="8.30035095418121"><ele>183.75</ele><time>2026-04-18T08:21:12Z</time></trkpt><trkpt lat="45.00710515617846" lon="8.300222307583514"><ele>183.5</ele><time>2026-04-18T08:21:13Z</time></trkpt><trkpt lat="45.00716812954206" lon="8.3000905511122"><ele>183.25</ele><time>2026-04-18T08:21:14Z</time></trkpt><trkpt lat="45.007233952808896" lon="8.299956910704827"><ele>183.0</ele><time>2026-04-18T08:21:15Z</time></trkpt><trkpt lat="45.007302101293675" lon="8.29982194852956"><ele>182.75</ele><time>2026-04-18T08:21:16Z</time></trkpt><trkpt lat="45.00736311047108" lon="8.299684576430854"><ele>182.5</ele><time>2026-04-18T08:21:17Z</time></trkpt><trkpt lat="45.007425669650104" lon="8.299533887679319"><ele>182.25</ele><time>2026-04-18T08:21:18Z</time></trkpt><trkpt lat="45.007477680661246" lon="8.299394941107876"><ele>182.0</ele><time>2026-04-18T08:21:19Z</time></trkpt><trkpt lat="45.00753397391182" lon="8.299266021476125"><ele>182.0</ele><time>2026-04-18T08:21:20Z</time></trkpt><trkpt lat="45.00760686788188" lon="8.29912865575724"><ele>182.0</ele><time>2026-04-18T08:21:21Z</time></trkpt><trkpt lat="45.00766828210621" lon="8.298977891187898"><ele>182.0</ele><time>2026-04-18T08:21:22Z</time></trkpt><trkpt lat="45.007715362081036" lon="8.298846829266468"><ele>182.0</ele><time>2026-04-18T08:21:23Z</time></trkpt><trkpt lat="45.00777225967489" lon="8.298734056213606"><ele>182.0</ele><time>2026-04-18T08:21:24Z</time></trkpt><trkpt lat="45.007858058476835" lon="8.298634220606704"><ele>182.0</ele><time>2026-04-18T08:21:25Z</time></trkpt><trkpt lat="45.00794984476881" lon="8.298561704737203"><ele>182.0</ele><time>2026-04-18T08:21:26Z</time></trkpt><trkpt lat="45.00803177447783" lon="8.298499202059043"><ele>182.0</ele><time>2026-04-18T08:21:27Z</time></trkpt><trkpt lat="45.00810456895731" lon="8.298437654594686"><ele>182.0</ele><time>2026-04-18T08:21:28Z</time></trkpt><trkpt lat="45.00817624356314" lon="8.298385446036113"><ele>182.0</ele><time>2026-04-18T08:21:29Z</time></trkpt><trkpt lat="45.00825062017489" lon="8.298326694442"><ele>182.0</ele><time>2026-04-18T08:21:30Z</time></trkpt><trkpt lat="45.00831315759095" lon="8.29826262876659"><ele>181.83333333333331</ele><time>2026-04-18T08:21:31Z</time></trkpt><trkpt lat="45.00837507473039" lon="8.298190895185245"><ele>181.66666666666666</ele><time>2026-04-18T08:21:32Z</time></trkpt><trkpt lat="45.00842767329171" lon="8.29810624873911"><ele>181.5</ele><time>2026-04-18T08:21:33Z</time></trkpt><trkpt lat="45.00847204362119" lon="8.298005984294187"><ele>181.33333333333334</ele><time>2026-04-18T08:21:34Z</time></trkpt><trkpt lat="45.00851706003443" lon="8.29789315598498"><ele>181.16666666666669</ele><time>2026-04-18T08:21:35Z</time></trkpt><trkpt lat="45.00855979700414" lon="8.297775270662829"><ele>181.0</ele><time>2026-04-18T08:21:36Z</time></trkpt><trkpt lat="45.00860436780087" lon="8.297644068504592"><ele>181.0</ele><time>2026-04-18T08:21:37Z</time></trkpt><trkpt lat="45.008667043805566" lon="8.297508202044193"><ele>181.0</ele><time>2026-04-18T08:21:37.999Z</time></trkpt><trkpt lat="45.008718757078896" lon="8.297393046316845"><ele>181.0</ele><time>2026-04-18T08:21:38.999Z</time></trkpt><trkpt lat="45.00875461942795" lon="8.297280662521448"><ele>181.0</ele><time>2026-04-18T08:21:39.999Z</time></trkpt><trkpt lat="45.00880086379162" lon="8.297157847916578"><ele>181.0</ele><time>2026-04-18T08:21:41Z</time></trkpt><trkpt lat="45.00885745470708" lon="8.29702539737078"><ele>181.4</ele><time>2026-04-18T08:21:42Z</time></trkpt><trkpt lat="45.00890438856565" lon="8.296894301418241"><ele>181.8</ele><time>2026-04-18T08:21:43Z</time></trkpt><trkpt lat="45.00894462625866" lon="8.29677186697341"><ele>182.20000000000002</ele><time>2026-04-18T08:21:44Z</time></trkpt><trkpt lat="45.00898588395235" lon="8.296648755928006"><ele>182.60000000000002</ele><time>2026-04-18T08:21:45Z</time></trkpt><trkpt lat="45.00902661561432" lon="8.296522099307476"><ele>183.0</ele><time>2026-04-18T08:21:46Z</time></trkpt><trkpt lat="45.00905190431564" lon="8.296378021191357"><ele>183.16666666666666</ele><time>2026-04-18T08:21:47Z</time></trkpt><trkpt lat="45.00906329866928" lon="8.296236088296444"><ele>183.33333333333334</ele><time>2026-04-18T08:21:48Z</time></trkpt><trkpt lat="45.00906129669097" lon="8.29612255337706"><ele>183.5</ele><time>2026-04-18T08:21:49Z</time></trkpt><trkpt lat="45.009055310290364" lon="8.296015415111643"><ele>183.66666666666669</ele><time>2026-04-18T08:21:50Z</time></trkpt><trkpt lat="45.00905004441726" lon="8.295887751456405"><ele>183.83333333333334</ele><time>2026-04-18T08:21:51Z</time></trkpt><trkpt lat="45.009044275715574" lon="8.295786137843574"><ele>184.0</ele><time>2026-04-18T08:21:52Z</time></trkpt><trkpt lat="45.00902650840099" lon="8.29563862687037"><ele>183.83333333333334</ele><time>2026-04-18T08:21:54Z</time></trkpt><trkpt lat="45.00899193958442" lon="8.295561586494571"><ele>183.66666666666669</ele><time>2026-04-18T08:21:55Z</time></trkpt><trkpt lat="45.00895113122107" lon="8.295462383637814"><ele>183.5</ele><time>2026-04-18T08:21:56Z</time></trkpt><trkpt lat="45.008921231809204" lon="8.295342677519162"><ele>183.33333333333334</ele><time>2026-04-18T08:21:57Z</time></trkpt><trkpt lat="45.008892438482015" lon="8.295223374182104"><ele>183.16666666666666</ele><time>2026-04-18T08:21:58Z</time></trkpt><trkpt lat="45.008874507952505" lon="8.295120379284215"><ele>183.0</ele><time>2026-04-18T08:21:59Z</time></trkpt><trkpt lat="45.008841159135045" lon="8.2950092051629"><ele>183.0</ele><time>2026-04-18T08:22:00Z</time></trkpt><trkpt lat="45.008813226839386" lon="8.294901638557379"><ele>183.0</ele><time>2026-04-18T08:22:01Z</time></trkpt><trkpt lat="45.00879952626562" lon="8.294811368955271"><ele>183.0</ele><time>2026-04-18T08:22:02Z</time></trkpt><trkpt lat="45.00878560744636" lon="8.294649010518047"><ele>183.0</ele><time>2026-04-18T08:22:04Z</time></trkpt><trkpt lat="45.00876593286093" lon="8.29454404128275"><ele>183.0</ele><time>2026-04-18T08:22:05Z</time></trkpt><trkpt lat="45.00875006347399" lon="8.2944235746471"><ele>183.0</ele><time>2026-04-18T08:22:06Z</time></trkpt><trkpt lat="45.00875193030362" lon="8.29429028963106"><ele>183.0</ele><time>2026-04-18T08:22:07Z</time></trkpt><trkpt lat="45.00875500225112" lon="8.294153324665249"><ele>183.0</ele><time>2026-04-18T08:22:08Z</time></trkpt><trkpt lat="45.0087488740139" lon="8.294014171479406"><ele>183.0</ele><time>2026-04-18T08:22:09Z</time></trkpt><trkpt lat="45.008741268642616" lon="8.293869700922608"><ele>183.0</ele><time>2026-04-18T08:22:10Z</time></trkpt><trkpt lat="45.00873783891394" lon="8.29372192899163"><ele>183.0</ele><time>2026-04-18T08:22:11Z</time></trkpt><trkpt lat="45.00873163345337" lon="8.293571131406102"><ele>183.0</ele><time>2026-04-18T08:22:12Z</time></trkpt><trkpt lat="45.00872702356096" lon="8.293430306192846"><ele>183.0</ele><time>2026-04-18T08:22:13Z</time></trkpt><trkpt lat="45.00872522504297" lon="8.293300904144091"><ele>183.0</ele><time>2026-04-18T08:22:14Z</time></trkpt><trkpt lat="45.00872759356364" lon="8.293175556941032"><ele>183.0</ele><time>2026-04-18T08:22:15Z</time></trkpt><trkpt lat="45.00872444572693" lon="8.29303764161938"><ele>183.0</ele><time>2026-04-18T08:22:16Z</time></trkpt><trkpt lat="45.00872181122338" lon="8.29289036980399"><ele>183.4</ele><time>2026-04-18T08:22:17Z</time></trkpt><trkpt lat="45.00871937912205" lon="8.292741077466024"><ele>183.8</ele><time>2026-04-18T08:22:18Z</time></trkpt><trkpt lat="45.00872398789549" lon="8.292586229791523"><ele>184.2</ele><time>2026-04-18T08:22:19Z</time></trkpt><trkpt lat="45.00873021154094" lon="8.292441470150626"><ele>184.6</ele><time>2026-04-18T08:22:20Z</time></trkpt><trkpt lat="45.00873765918078" lon="8.292307279579815"><ele>185.0</ele><time>2026-04-18T08:22:21Z</time></trkpt><trkpt lat="45.008747936938555" lon="8.292175274585029"><ele>185.4</ele><time>2026-04-18T08:22:22Z</time></trkpt><trkpt lat="45.008746252622124" lon="8.292057507270215"><ele>185.8</ele><time>2026-04-18T08:22:23Z</time></trkpt><trkpt lat="45.00874409337326" lon="8.291953530427723"><ele>186.2</ele><time>2026-04-18T08:22:24Z</time></trkpt><trkpt lat="45.00874446072295" lon="8.291771205174069"><ele>186.6</ele><time>2026-04-18T08:22:26Z</time></trkpt><trkpt lat="45.00874017949359" lon="8.291630530370703"><ele>187.0</ele><time>2026-04-18T08:22:27Z</time></trkpt><trkpt lat="45.00874291897155" lon="8.29147177524008"><ele>187.6</ele><time>2026-04-18T08:22:28Z</time></trkpt><trkpt lat="45.008743197841284" lon="8.291329530789856"><ele>188.2</ele><time>2026-04-18T08:22:29Z</time></trkpt><trkpt lat="45.00874147324296" lon="8.29119307459228"><ele>188.8</ele><time>2026-04-18T08:22:30Z</time></trkpt><trkpt lat="45.00873839250382" lon="8.29106933092738"><ele>189.4</ele><time>2026-04-18T08:22:31Z</time></trkpt><trkpt lat="45.008737724075736" lon="8.29094677147208"><ele>190.0</ele><time>2026-04-18T08:22:32Z</time></trkpt><trkpt lat="45.00874601370447" lon="8.290834496066912"><ele>190.0</ele><time>2026-04-18T08:22:33Z</time></trkpt><trkpt lat="45.0087521605843" lon="8.290738485340068"><ele>190.0</ele><time>2026-04-18T08:22:34Z</time></trkpt><trkpt lat="45.008734864048094" lon="8.290647816833303"><ele>190.0</ele><time>2026-04-18T08:22:35Z</time></trkpt><trkpt lat="45.00869323693112" lon="8.290576169744874"><ele>190.0</ele><time>2026-04-18T08:22:36Z</time></trkpt><trkpt lat="45.00864749023142" lon="8.29048580686357"><ele>190.0</ele><time>2026-04-18T08:22:37Z</time></trkpt><trkpt lat="45.00859995777445" lon="8.290389072506635"><ele>190.0</ele><time>2026-04-18T08:22:38Z</time></trkpt><trkpt lat="45.00855645018545" lon="8.290269299507123"><ele>190.33333333333334</ele><time>2026-04-18T08:22:39Z</time></trkpt><trkpt lat="45.008517834959136" lon="8.290146528570864"><ele>190.66666666666669</ele><time>2026-04-18T08:22:40Z</time></trkpt><trkpt lat="45.00848359419514" lon="8.290021575426296"><ele>191.0</ele><time>2026-04-18T08:22:41Z</time></trkpt><trkpt lat="45.00846710152473" lon="8.289911726190404"><ele>191.33333333333334</ele><time>2026-04-18T08:22:42Z</time></trkpt><trkpt lat="45.008446348484725" lon="8.289826394394952"><ele>191.66666666666666</ele><time>2026-04-18T08:22:43Z</time></trkpt><trkpt lat="45.008434538538786" lon="8.289725928265339"><ele>192.0</ele><time>2026-04-18T08:22:44Z</time></trkpt><trkpt lat="45.008427545108496" lon="8.289610308439256"><ele>192.0</ele><time>2026-04-18T08:22:45Z</time></trkpt><trkpt lat="45.00841887650266" lon="8.289490849431548"><ele>192.0</ele><time>2026-04-18T08:22:46Z</time></trkpt><trkpt lat="45.008423350622095" lon="8.289366228564031"><ele>192.0</ele><time>2026-04-18T08:22:47Z</time></trkpt><trkpt lat="45.00842072670811" lon="8.289242777861293"><ele>192.0</ele><time>2026-04-18T08:22:48Z</time></trkpt><trkpt lat="45.008412990628415" lon="8.289107958076404"><ele>192.0</ele><time>2026-04-18T08:22:49Z</time></trkpt><trkpt lat="45.00840772866882" lon="8.288968143246318"><ele>191.6</ele><time>2026-04-18T08:22:50Z</time></trkpt><trkpt lat="45.008392876495535" lon="8.28883078718902"><ele>191.2</ele><time>2026-04-18T08:22:51Z</time></trkpt><trkpt lat="45.00837477927449" lon="8.288695977636655"><ele>190.8</ele><time>2026-04-18T08:22:52Z</time></trkpt><trkpt lat="45.00835739427353" lon="8.288566105283815"><ele>190.4</ele><time>2026-04-18T08:22:53Z</time></trkpt><trkpt lat="45.00834541706588" lon="8.288437242947415"><ele>190.0</ele><time>2026-04-18T08:22:54Z</time></trkpt><trkpt lat="45.0083353625983" lon="8.288318714294002"><ele>190.0</ele><time>2026-04-18T08:22:55Z</time></trkpt><trkpt lat="45.00833009382385" lon="8.288183469646361"><ele>190.0</ele><time>2026-04-18T08:22:56Z</time></trkpt><trkpt lat="45.008317403679314" lon="8.288055691839302"><ele>190.0</ele><time>2026-04-18T08:22:57Z</time></trkpt><trkpt lat="45.0083014472389" lon="8.287906061215589"><ele>190.0</ele><time>2026-04-18T08:22:58Z</time></trkpt><trkpt lat="45.00828028260256" lon="8.287764913913952"><ele>190.0</ele><time>2026-04-18T08:22:59Z</time></trkpt><trkpt lat="45.00824433336867" lon="8.287635906149049"><ele>190.8</ele><time>2026-04-18T08:23:00Z</time></trkpt><trkpt lat="45.00822087071519" lon="8.287500530958079"><ele>191.6</ele><time>2026-04-18T08:23:01Z</time></trkpt><trkpt lat="45.008195674806394" lon="8.287374468658298"><ele>192.39999999999998</ele><time>2026-04-18T08:23:02Z</time></trkpt><trkpt lat="45.00817120071438" lon="8.28725633758662"><ele>193.2</ele><time>2026-04-18T08:23:03Z</time></trkpt><trkpt lat="45.00813692749214" lon="8.287126008588602"><ele>194.0</ele><time>2026-04-18T08:23:04Z</time></trkpt><trkpt lat="45.00810989637429" lon="8.287020903578039"><ele>194.0</ele><time>2026-04-18T08:23:05Z</time></trkpt><trkpt lat="45.00808156329038" lon="8.286900359177746"><ele>194.0</ele><time>2026-04-18T08:23:06Z</time></trkpt><trkpt lat="45.00804995556536" lon="8.286778825229893"><ele>194.0</ele><time>2026-04-18T08:23:07Z</time></trkpt><trkpt lat="45.00801754039262" lon="8.286658306829745"><ele>194.0</ele><time>2026-04-18T08:23:08Z</time></trkpt><trkpt lat="45.007985058548954" lon="8.286529170222991"><ele>194.0</ele><time>2026-04-18T08:23:09Z</time></trkpt><trkpt lat="45.007954491428215" lon="8.286404682975293"><ele>193.66666666666669</ele><time>2026-04-18T08:23:10Z</time></trkpt><trkpt lat="45.00793442040591" lon="8.286281961797615"><ele>193.33333333333334</ele><time>2026-04-18T08:23:11Z</time></trkpt><trkpt lat="45.0079065444644" lon="8.286153675600593"><ele>193.0</ele><time>2026-04-18T08:23:12Z</time></trkpt><trkpt lat="45.00787635607814" lon="8.286031078343626"><ele>192.66666666666669</ele><time>2026-04-18T08:23:13Z</time></trkpt><trkpt lat="45.007855020087064" lon="8.285928291465616"><ele>192.33333333333334</ele><time>2026-04-18T08:23:14Z</time></trkpt><trkpt lat="45.00783702019842" lon="8.285834889141288"><ele>192.0</ele><time>2026-04-18T08:23:15Z</time></trkpt><trkpt lat="45.007815566217" lon="8.285722641224408"><ele>192.0</ele><time>2026-04-18T08:23:16Z</time></trkpt><trkpt lat="45.00778941413707" lon="8.285619268862652"><ele>192.0</ele><time>2026-04-18T08:23:17Z</time></trkpt><trkpt lat="45.00776776779918" lon="8.285528250050342"><ele>192.0</ele><time>2026-04-18T08:23:18Z</time></trkpt><trkpt lat="45.00774154294695" lon="8.285421835750114"><ele>192.0</ele><time>2026-04-18T08:23:19Z</time></trkpt><trkpt lat="45.00770732490243" lon="8.28531530848332"><ele>192.0</ele><time>2026-04-18T08:23:20Z</time></trkpt><trkpt lat="45.0076628021949" lon="8.285224460409006"><ele>192.0</ele><time>2026-04-18T08:23:21Z</time></trkpt><trkpt lat="45.00759862720436" lon="8.285101148646177"><ele>191.6</ele><time>2026-04-18T08:23:22Z</time></trkpt><trkpt lat="45.0075431899759" lon="8.284998503017691"><ele>191.2</ele><time>2026-04-18T08:23:23Z</time></trkpt><trkpt lat="45.00748628334171" lon="8.284879240819057"><ele>190.8</ele><time>2026-04-18T08:23:24Z</time></trkpt><trkpt lat="45.00742445581466" lon="8.284773465642836"><ele>190.4</ele><time>2026-04-18T08:23:25Z</time></trkpt><trkpt lat="45.007358475614" lon="8.284665923616801"><ele>190.0</ele><time>2026-04-18T08:23:26Z</time></trkpt><trkpt lat="45.007294989580714" lon="8.284562234735215"><ele>191.8</ele><time>2026-04-18T08:23:27Z</time></trkpt><trkpt lat="45.00722363416081" lon="8.284463411395336"><ele>193.6</ele><time>2026-04-18T08:23:28Z</time></trkpt><trkpt lat="45.00714749631341" lon="8.284371092656771"><ele>195.39999999999998</ele><time>2026-04-18T08:23:29Z</time></trkpt><trkpt lat="45.00706988040729" lon="8.284294613775938"><ele>197.2</ele><time>2026-04-18T08:23:30Z</time></trkpt><trkpt lat="45.00697842744358" lon="8.284231540398546"><ele>199.0</ele><time>2026-04-18T08:23:31Z</time></trkpt><trkpt lat="45.00687603191529" lon="8.284192180320735"><ele>199.0</ele><time>2026-04-18T08:23:32Z</time></trkpt><trkpt lat="45.00677207400877" lon="8.284166093184043"><ele>199.0</ele><time>2026-04-18T08:23:33Z</time></trkpt><trkpt lat="45.00666739448922" lon="8.284141902436916"><ele>199.0</ele><time>2026-04-18T08:23:34Z</time></trkpt><trkpt lat="45.00657193826899" lon="8.284105620913268"><ele>199.0</ele><time>2026-04-18T08:23:35Z</time></trkpt><trkpt lat="45.00647168573838" lon="8.284069635781334"><ele>199.0</ele><time>2026-04-18T08:23:36Z</time></trkpt><trkpt lat="45.006364294207046" lon="8.284039046153305"><ele>199.2</ele><time>2026-04-18T08:23:37Z</time></trkpt><trkpt lat="45.00625788623982" lon="8.284011066789738"><ele>199.39999999999998</ele><time>2026-04-18T08:23:38Z</time></trkpt><trkpt lat="45.00615122795426" lon="8.283981274751351"><ele>199.6</ele><time>2026-04-18T08:23:39Z</time></trkpt><trkpt lat="45.0060503060073" lon="8.28394562247697"><ele>199.8</ele><time>2026-04-18T08:23:40Z</time></trkpt><trkpt lat="45.00594976604765" lon="8.283914168279033"><ele>200.0</ele><time>2026-04-18T08:23:41Z</time></trkpt><trkpt lat="45.005847974865205" lon="8.283898171920043"><ele>199.4</ele><time>2026-04-18T08:23:42Z</time></trkpt><trkpt lat="45.00574900442302" lon="8.283894398603689"><ele>198.8</ele><time>2026-04-18T08:23:43Z</time></trkpt><trkpt lat="45.005651000345985" lon="8.283885980243047"><ele>198.2</ele><time>2026-04-18T08:23:43.999Z</time></trkpt><trkpt lat="45.00554748384276" lon="8.283883685666758"><ele>197.6</ele><time>2026-04-18T08:23:44.999Z</time></trkpt><trkpt lat="45.005444979001545" lon="8.283885437770575"><ele>197.0</ele><time>2026-04-18T08:23:45.999Z</time></trkpt><trkpt lat="45.005345132811" lon="8.283889632049808"><ele>197.0</ele><time>2026-04-18T08:23:47Z</time></trkpt><trkpt lat="45.00525639527608" lon="8.28390052850975"><ele>197.0</ele><time>2026-04-18T08:23:48Z</time></trkpt><trkpt lat="45.0051575717118" lon="8.283921676532225"><ele>197.0</ele><time>2026-04-18T08:23:49Z</time></trkpt><trkpt lat="45.0050728440778" lon="8.283948515967536"><ele>197.0</ele><time>2026-04-18T08:23:50Z</time></trkpt><trkpt lat="45.00498491275113" lon="8.283984766451807"><ele>197.0</ele><time>2026-04-18T08:23:51Z</time></trkpt><trkpt lat="45.004902269550996" lon="8.284030834598932"><ele>197.50000000000003</ele><time>2026-04-18T08:23:52Z</time></trkpt><trkpt lat="45.00482036288512" lon="8.284087441380544"><ele>198.0</ele><time>2026-04-18T08:23:53Z</time></trkpt><trkpt lat="45.00473927200357" lon="8.28414077694597"><ele>198.5</ele><time>2026-04-18T08:23:54Z</time></trkpt><trkpt lat="45.00465516927987" lon="8.284196421386978"><ele>199.0</ele><time>2026-04-18T08:23:55Z</time></trkpt><trkpt lat="45.00458610504021" lon="8.284267451571981"><ele>199.50000000000003</ele><time>2026-04-18T08:23:56Z</time></trkpt><trkpt lat="45.004523049387124" lon="8.284325867208215"><ele>200.0</ele><time>2026-04-18T08:23:57Z</time></trkpt><trkpt lat="45.0044644273258" lon="8.284388752239458"><ele>200.00000000000003</ele><time>2026-04-18T08:23:58Z</time></trkpt><trkpt lat="45.00440677421599" lon="8.284444283781376"><ele>200.0</ele><time>2026-04-18T08:23:59Z</time></trkpt><trkpt lat="45.0043532083066" lon="8.284496576153934"><ele>200.0</ele><time>2026-04-18T08:24:00Z</time></trkpt><trkpt lat="45.00424753078386" lon="8.284601386843125"><ele>200.0</ele><time>2026-04-18T08:24:02Z</time></trkpt><trkpt lat="45.00419179201631" lon="8.284652146038146"><ele>200.00000000000003</ele><time>2026-04-18T08:24:03Z</time></trkpt><trkpt lat="45.004141248839275" lon="8.284714902664863"><ele>200.0</ele><time>2026-04-18T08:24:04Z</time></trkpt><trkpt lat="45.0040455532864" lon="8.28482646873515"><ele>200.50000000000003</ele><time>2026-04-18T08:24:06Z</time></trkpt><trkpt lat="45.00397859022476" lon="8.284855524142927"><ele>201.0</ele><time>2026-04-18T08:24:07Z</time></trkpt><trkpt lat="45.00388785361561" lon="8.284857956630223"><ele>201.5</ele><time>2026-04-18T08:24:08Z</time></trkpt><trkpt lat="45.00379809725087" lon="8.284846772394188"><ele>202.0</ele><time>2026-04-18T08:24:09Z</time></trkpt><trkpt lat="45.003706731624895" lon="8.284819913229315"><ele>202.50000000000003</ele><time>2026-04-18T08:24:10Z</time></trkpt><trkpt lat="45.003609194917765" lon="8.284813885273634"><ele>203.0</ele><time>2026-04-18T08:24:11Z</time></trkpt><trkpt lat="45.00350227664594" lon="8.284819009001977"><ele>203.0</ele><time>2026-04-18T08:24:12Z</time></trkpt><trkpt lat="45.00339901924242" lon="8.284774666591806"><ele>203.0</ele><time>2026-04-18T08:24:14Z</time></trkpt><trkpt lat="45.00332006764099" lon="8.28473434041719"><ele>203.0</ele><time>2026-04-18T08:24:16Z</time></trkpt><trkpt lat="45.00328870520698" lon="8.284586656008637"><ele>203.0</ele><time>2026-04-18T08:24:18Z</time></trkpt><trkpt lat="45.00331917830722" lon="8.284472006071555"><ele>203.0</ele><time>2026-04-18T08:24:19Z</time></trkpt><trkpt lat="45.00336580033808" lon="8.284329077225822"><ele>202.8</ele><time>2026-04-18T08:24:20Z</time></trkpt><trkpt lat="45.003396304241335" lon="8.284164376737047"><ele>202.60000000000002</ele><time>2026-04-18T08:24:21Z</time></trkpt><trkpt lat="45.003415084395954" lon="8.284040986803529"><ele>202.39999999999998</ele><time>2026-04-18T08:24:22Z</time></trkpt><trkpt lat="45.00343990564499" lon="8.283926974450745"><ele>202.2</ele><time>2026-04-18T08:24:23Z</time></trkpt><trkpt lat="45.003466923010876" lon="8.28382100284396"><ele>202.0</ele><time>2026-04-18T08:24:24Z</time></trkpt><trkpt lat="45.003497122821855" lon="8.283716970602967"><ele>201.99999999999997</ele><time>2026-04-18T08:24:25Z</time></trkpt><trkpt lat="45.003544303324695" lon="8.283610241521766"><ele>202.0</ele><time>2026-04-18T08:24:26Z</time></trkpt><trkpt lat="45.0036136445893" lon="8.283550049980136"><ele>202.0</ele><time>2026-04-18T08:24:27Z</time></trkpt><trkpt lat="45.003696662655024" lon="8.28349917384698"><ele>202.0</ele><time>2026-04-18T08:24:28Z</time></trkpt><trkpt lat="45.00378467796777" lon="8.283441514172337"><ele>201.99999999999997</ele><time>2026-04-18T08:24:29Z</time></trkpt><trkpt lat="45.00385787722292" lon="8.283387632286713"><ele>202.0</ele><time>2026-04-18T08:24:30Z</time></trkpt><trkpt lat="45.00393785102406" lon="8.283355475006443"><ele>202.0</ele><time>2026-04-18T08:24:31Z</time></trkpt><trkpt lat="45.004018201226316" lon="8.283305189738197"><ele>202.0</ele><time>2026-04-18T08:24:32Z</time></trkpt><trkpt lat="45.00409692563785" lon="8.2832396724585"><ele>202.0</ele><time>2026-04-18T08:24:33Z</time></trkpt><trkpt lat="45.00418344271501" lon="8.283164156676596"><ele>202.0</ele><time>2026-04-18T08:24:34Z</time></trkpt><trkpt lat="45.00426504555298" lon="8.283095621668094"><ele>202.0</ele><time>2026-04-18T08:24:35Z</time></trkpt><trkpt lat="45.00434603305673" lon="8.283035605103079"><ele>202.66666666666666</ele><time>2026-04-18T08:24:36Z</time></trkpt><trkpt lat="45.004425171056404" lon="8.282979219249151"><ele>203.33333333333331</ele><time>2026-04-18T08:24:37Z</time></trkpt><trkpt lat="45.00450048586312" lon="8.282925417105021"><ele>204.0</ele><time>2026-04-18T08:24:38Z</time></trkpt><trkpt lat="45.004580273143276" lon="8.282866174436244"><ele>204.66666666666669</ele><time>2026-04-18T08:24:39Z</time></trkpt><trkpt lat="45.00465445781339" lon="8.282809974197871"><ele>205.33333333333334</ele><time>2026-04-18T08:24:40Z</time></trkpt><trkpt lat="45.00472400275317" lon="8.282757063460263"><ele>206.0</ele><time>2026-04-18T08:24:41Z</time></trkpt><trkpt lat="45.0047976604002" lon="8.282711620807188"><ele>205.99999999999997</ele><time>2026-04-18T08:24:42Z</time></trkpt><trkpt lat="45.00487034108914" lon="8.282665514786775"><ele>206.0</ele><time>2026-04-18T08:24:43Z</time></trkpt><trkpt lat="45.004944581305494" lon="8.28261412159725"><ele>206.0</ele><time>2026-04-18T08:24:44Z</time></trkpt><trkpt lat="45.00500707200061" lon="8.282557530222213"><ele>206.0</ele><time>2026-04-18T08:24:45Z</time></trkpt><trkpt lat="45.005067372854334" lon="8.282505081303718"><ele>206.0</ele><time>2026-04-18T08:24:46Z</time></trkpt><trkpt lat="45.005132081176754" lon="8.282485177256323"><ele>205.99999999999997</ele><time>2026-04-18T08:24:47Z</time></trkpt><trkpt lat="45.0052002684918" lon="8.282479057799005"><ele>206.0</ele><time>2026-04-18T08:24:48Z</time></trkpt><trkpt lat="45.005274198172295" lon="8.282464787715499"><ele>204.8</ele><time>2026-04-18T08:24:49Z</time></trkpt><trkpt lat="45.00538930087333" lon="8.282470761440232"><ele>203.60000000000002</ele><time>2026-04-18T08:24:51Z</time></trkpt><trkpt lat="45.00551586221593" lon="8.282454580738962"><ele>202.4</ele><time>2026-04-18T08:24:53Z</time></trkpt><trkpt lat="45.00559459783705" lon="8.282430721478054"><ele>201.2</ele><time>2026-04-18T08:24:54Z</time></trkpt><trkpt lat="45.005675754377414" lon="8.282403798342528"><ele>200.0</ele><time>2026-04-18T08:24:55Z</time></trkpt><trkpt lat="45.0057564768765" lon="8.282370823548552"><ele>199.50000000000003</ele><time>2026-04-18T08:24:56Z</time></trkpt><trkpt lat="45.00583054446186" lon="8.282334296182109"><ele>199.0</ele><time>2026-04-18T08:24:57Z</time></trkpt><trkpt lat="45.00589906200966" lon="8.282287468776232"><ele>198.5</ele><time>2026-04-18T08:24:58Z</time></trkpt><trkpt lat="45.005965059742834" lon="8.282237844379889"><ele>198.0</ele><time>2026-04-18T08:24:59Z</time></trkpt><trkpt lat="45.00602207974697" lon="8.282199146443403"><ele>197.50000000000003</ele><time>2026-04-18T08:25:00Z</time></trkpt><trkpt lat="45.00612608918412" lon="8.282118272595758"><ele>197.0</ele><time>2026-04-18T08:25:02Z</time></trkpt><trkpt lat="45.00619219495279" lon="8.282058444002102"><ele>198.16666666666669</ele><time>2026-04-18T08:25:03Z</time></trkpt><trkpt lat="45.006254552255356" lon="8.28200605427904"><ele>199.33333333333334</ele><time>2026-04-18T08:25:04Z</time></trkpt><trkpt lat="45.00631765064168" lon="8.281958084201406"><ele>200.5</ele><time>2026-04-18T08:25:05Z</time></trkpt><trkpt lat="45.00640532873975" lon="8.281903077315286"><ele>201.66666666666669</ele><time>2026-04-18T08:25:06Z</time></trkpt><trkpt lat="45.00646231653953" lon="8.281855070565065"><ele>202.83333333333334</ele><time>2026-04-18T08:25:07Z</time></trkpt><trkpt lat="45.00654352135562" lon="8.281791563278526"><ele>204.0</ele><time>2026-04-18T08:25:08Z</time></trkpt><trkpt lat="45.00661765963724" lon="8.281726452728801"><ele>203.0</ele><time>2026-04-18T08:25:09Z</time></trkpt><trkpt lat="45.00668477416464" lon="8.281659681692009"><ele>202.0</ele><time>2026-04-18T08:25:10Z</time></trkpt><trkpt lat="45.00674786635966" lon="8.281590631633078"><ele>201.0</ele><time>2026-04-18T08:25:11Z</time></trkpt><trkpt lat="45.006810106185334" lon="8.281518441822081"><ele>200.0</ele><time>2026-04-18T08:25:12Z</time></trkpt><trkpt lat="45.006867267427225" lon="8.281443818828466"><ele>199.0</ele><time>2026-04-18T08:25:13Z</time></trkpt><trkpt lat="45.00692140140752" lon="8.281366409059606"><ele>198.0</ele><time>2026-04-18T08:25:14Z</time></trkpt><trkpt lat="45.006974558852384" lon="8.281281169725945"><ele>198.0</ele><time>2026-04-18T08:25:15Z</time></trkpt><trkpt lat="45.007045827488334" lon="8.281193532601455"><ele>198.0</ele><time>2026-04-18T08:25:16Z</time></trkpt><trkpt lat="45.00710410341324" lon="8.281111307675078"><ele>198.0</ele><time>2026-04-18T08:25:17Z</time></trkpt><trkpt lat="45.007164694798234" lon="8.281031486331702"><ele>198.0</ele><time>2026-04-18T08:25:18Z</time></trkpt><trkpt lat="45.0072288851707" lon="8.280952450270064"><ele>198.0</ele><time>2026-04-18T08:25:19Z</time></trkpt><trkpt lat="45.00727704167188" lon="8.280875225596622"><ele>198.0</ele><time>2026-04-18T08:25:20Z</time></trkpt><trkpt lat="45.00734501356539" lon="8.28080419894149"><ele>198.0</ele><time>2026-04-18T08:25:21Z</time></trkpt><trkpt lat="45.00741226782951" lon="8.280729737582078"><ele>198.0</ele><time>2026-04-18T08:25:22Z</time></trkpt><trkpt lat="45.0074689268483" lon="8.280669247291028"><ele>198.0</ele><time>2026-04-18T08:25:23Z</time></trkpt><trkpt lat="45.007565771973006" lon="8.280574363896468"><ele>198.0</ele><time>2026-04-18T08:25:25Z</time></trkpt><trkpt lat="45.00762187735632" lon="8.280507154891266"><ele>198.0</ele><time>2026-04-18T08:25:26Z</time></trkpt><trkpt lat="45.00767177257851" lon="8.280452274917073"><ele>198.0</ele><time>2026-04-18T08:25:27Z</time></trkpt><trkpt lat="45.00772473994431" lon="8.280393980508945"><ele>197.85714285714286</ele><time>2026-04-18T08:25:28Z</time></trkpt><trkpt lat="45.00778577667622" lon="8.280331358795728"><ele>197.7142857142857</ele><time>2026-04-18T08:25:29Z</time></trkpt><trkpt lat="45.00783778783865" lon="8.280273371236685"><ele>197.57142857142856</ele><time>2026-04-18T08:25:30Z</time></trkpt><trkpt lat="45.00788798317896" lon="8.280218789844259"><ele>197.42857142857144</ele><time>2026-04-18T08:25:31Z</time></trkpt><trkpt lat="45.00794197681671" lon="8.28016835715308"><ele>197.28571428571428</ele><time>2026-04-18T08:25:32Z</time></trkpt><trkpt lat="45.00800035586122" lon="8.280117769397819"><ele>197.14285714285714</ele><time>2026-04-18T08:25:33Z</time></trkpt><trkpt lat="45.00806287950284" lon="8.280066337394752"><ele>197.0</ele><time>2026-04-18T08:25:34Z</time></trkpt><trkpt lat="45.00813134510251" lon="8.280013899484807"><ele>197.00000000000003</ele><time>2026-04-18T08:25:35Z</time></trkpt><trkpt lat="45.008195413799434" lon="8.279965895941793"><ele>197.0</ele><time>2026-04-18T08:25:36Z</time></trkpt><trkpt lat="45.00825810008326" lon="8.279915421997051"><ele>197.0</ele><time>2026-04-18T08:25:37Z</time></trkpt><trkpt lat="45.008319523159294" lon="8.279863179873615"><ele>197.0</ele><time>2026-04-18T08:25:38Z</time></trkpt><trkpt lat="45.00837460085843" lon="8.27980755479637"><ele>197.00000000000003</ele><time>2026-04-18T08:25:39Z</time></trkpt><trkpt lat="45.008430684536776" lon="8.279737309141865"><ele>197.0</ele><time>2026-04-18T08:25:40Z</time></trkpt><trkpt lat="45.008501624665364" lon="8.279622033366971"><ele>195.8</ele><time>2026-04-18T08:25:42Z</time></trkpt><trkpt lat="45.00854954012543" lon="8.279552731807778"><ele>194.6</ele><time>2026-04-18T08:25:43Z</time></trkpt><trkpt lat="45.00863029653338" lon="8.279457281934773"><ele>193.4</ele><time>2026-04-18T08:25:45Z</time></trkpt><trkpt lat="45.00871367214971" lon="8.279388001402467"><ele>192.20000000000002</ele><time>2026-04-18T08:25:47Z</time></trkpt><trkpt lat="45.00880583233939" lon="8.279315489189402"><ele>191.0</ele><time>2026-04-18T08:25:49Z</time></trkpt><trkpt lat="45.00889620640159" lon="8.27923913280167"><ele>191.0</ele><time>2026-04-18T08:25:51Z</time></trkpt><trkpt lat="45.00895168221294" lon="8.279187378996433"><ele>191.0</ele><time>2026-04-18T08:25:52Z</time></trkpt><trkpt lat="45.00906106835888" lon="8.279063470725067"><ele>191.0</ele><time>2026-04-18T08:25:54Z</time></trkpt><trkpt lat="45.00911114817068" lon="8.278997882733952"><ele>191.0</ele><time>2026-04-18T08:25:55Z</time></trkpt><trkpt lat="45.009155251827515" lon="8.278926654515844"><ele>191.0</ele><time>2026-04-18T08:25:56Z</time></trkpt><trkpt lat="45.00923105471468" lon="8.278790044745824"><ele>191.33333333333331</ele><time>2026-04-18T08:25:58Z</time></trkpt><trkpt lat="45.00926987085962" lon="8.278713849419491"><ele>191.66666666666666</ele><time>2026-04-18T08:25:59Z</time></trkpt><trkpt lat="45.00930832830795" lon="8.278637155756828"><ele>192.0</ele><time>2026-04-18T08:26:00Z</time></trkpt><trkpt lat="45.009340866875206" lon="8.278549349283976"><ele>192.33333333333331</ele><time>2026-04-18T08:26:01Z</time></trkpt><trkpt lat="45.009379659124185" lon="8.278441553302192"><ele>192.66666666666666</ele><time>2026-04-18T08:26:02Z</time></trkpt><trkpt lat="45.00941417451221" lon="8.2783336077828"><ele>193.0</ele><time>2026-04-18T08:26:03Z</time></trkpt><trkpt lat="45.00944734023643" lon="8.278226775250225"><ele>192.99999999999997</ele><time>2026-04-18T08:26:04Z</time></trkpt><trkpt lat="45.00947575359055" lon="8.278126475312977"><ele>193.0</ele><time>2026-04-18T08:26:05Z</time></trkpt><trkpt lat="45.009511904787516" lon="8.278011175998946"><ele>193.0</ele><time>2026-04-18T08:26:06Z</time></trkpt><trkpt lat="45.00954427194371" lon="8.277906169172583"><ele>193.0</ele><time>2026-04-18T08:26:07Z</time></trkpt><trkpt lat="45.00957526717713" lon="8.277808823176441"><ele>192.99999999999997</ele><time>2026-04-18T08:26:08Z</time></trkpt><trkpt lat="45.00960477086673" lon="8.277702294482586"><ele>193.0</ele><time>2026-04-18T08:26:09Z</time></trkpt><trkpt lat="45.009629346886264" lon="8.277589040636785"><ele>193.60000000000002</ele><time>2026-04-18T08:26:10Z</time></trkpt><trkpt lat="45.00964807207258" lon="8.277475963153293"><ele>194.20000000000002</ele><time>2026-04-18T08:26:11Z</time></trkpt><trkpt lat="45.00967227649241" lon="8.277339944119143"><ele>194.8</ele><time>2026-04-18T08:26:12Z</time></trkpt><trkpt lat="45.00969459343581" lon="8.2772062936859"><ele>195.4</ele><time>2026-04-18T08:26:13Z</time></trkpt><trkpt lat="45.009719367151625" lon="8.277056511762536"><ele>196.0</ele><time>2026-04-18T08:26:14Z</time></trkpt><trkpt lat="45.00974242498744" lon="8.276922556838276"><ele>196.0</ele><time>2026-04-18T08:26:15Z</time></trkpt><trkpt lat="45.00976402236858" lon="8.276787950003136"><ele>196.0</ele><time>2026-04-18T08:26:16Z</time></trkpt><trkpt lat="45.009787018849515" lon="8.27664619761276"><ele>196.0</ele><time>2026-04-18T08:26:17Z</time></trkpt><trkpt lat="45.00980852679895" lon="8.276510459762244"><ele>196.0</ele><time>2026-04-18T08:26:18Z</time></trkpt><trkpt lat="45.00983052585134" lon="8.27638806598674"><ele>196.0</ele><time>2026-04-18T08:26:19Z</time></trkpt><trkpt lat="45.00985288973146" lon="8.276261298546043"><ele>196.4</ele><time>2026-04-18T08:26:20Z</time></trkpt><trkpt lat="45.009876379009704" lon="8.276128702149933"><ele>196.8</ele><time>2026-04-18T08:26:21Z</time></trkpt><trkpt lat="45.00989913896107" lon="8.276002182142268"><ele>197.20000000000002</ele><time>2026-04-18T08:26:22Z</time></trkpt><trkpt lat="45.00991446908157" lon="8.275875903700333"><ele>197.60000000000002</ele><time>2026-04-18T08:26:23Z</time></trkpt><trkpt lat="45.009934263970166" lon="8.275752634303455"><ele>198.0</ele><time>2026-04-18T08:26:24Z</time></trkpt><trkpt lat="45.00996003926989" lon="8.275636371691718"><ele>198.33333333333334</ele><time>2026-04-18T08:26:25Z</time></trkpt><trkpt lat="45.00997742203131" lon="8.275543864701868"><ele>198.66666666666669</ele><time>2026-04-18T08:26:26Z</time></trkpt><trkpt lat="45.010004277430255" lon="8.275431867160234"><ele>199.0</ele><time>2026-04-18T08:26:27Z</time></trkpt><trkpt lat="45.010015905169084" lon="8.275327177070023"><ele>199.33333333333334</ele><time>2026-04-18T08:26:28Z</time></trkpt><trkpt lat="45.01003336302018" lon="8.275224019927885"><ele>199.66666666666669</ele><time>2026-04-18T08:26:29Z</time></trkpt><trkpt lat="45.01005060037415" lon="8.275114325638244"><ele>200.0</ele><time>2026-04-18T08:26:30Z</time></trkpt><trkpt lat="45.010076882291074" lon="8.275002120682734"><ele>199.0</ele><time>2026-04-18T08:26:31Z</time></trkpt><trkpt lat="45.010105775705426" lon="8.274883315659483"><ele>198.0</ele><time>2026-04-18T08:26:32Z</time></trkpt><trkpt lat="45.01013671512502" lon="8.274765820853801"><ele>197.0</ele><time>2026-04-18T08:26:33Z</time></trkpt><trkpt lat="45.010166557771214" lon="8.274641817351913"><ele>196.0</ele><time>2026-04-18T08:26:34Z</time></trkpt><trkpt lat="45.01019576489646" lon="8.27451726711594"><ele>195.0</ele><time>2026-04-18T08:26:35Z</time></trkpt><trkpt lat="45.01022032079528" lon="8.274389862832612"><ele>195.0</ele><time>2026-04-18T08:26:36Z</time></trkpt><trkpt lat="45.010244100357696" lon="8.274250596913825"><ele>195.0</ele><time>2026-04-18T08:26:37Z</time></trkpt><trkpt lat="45.010265499866875" lon="8.274120909866248"><ele>195.0</ele><time>2026-04-18T08:26:38Z</time></trkpt><trkpt lat="45.01028565418642" lon="8.273993299912311"><ele>195.0</ele><time>2026-04-18T08:26:39Z</time></trkpt><trkpt lat="45.01031494127962" lon="8.273865965002258"><ele>195.0</ele><time>2026-04-18T08:26:40Z</time></trkpt><trkpt lat="45.01034208430533" lon="8.273736823157583"><ele>195.5</ele><time>2026-04-18T08:26:41Z</time></trkpt><trkpt lat="45.010363542713186" lon="8.273616722847429"><ele>196.0</ele><time>2026-04-18T08:26:42Z</time></trkpt><trkpt lat="45.01038233670463" lon="8.27351813126286"><ele>196.5</ele><time>2026-04-18T08:26:43Z</time></trkpt><trkpt lat="45.01041170925361" lon="8.273363995317684"><ele>197.0</ele><time>2026-04-18T08:26:45Z</time></trkpt><trkpt lat="45.01042103308919" lon="8.27327005638638"><ele>197.5</ele><time>2026-04-18T08:26:46Z</time></trkpt><trkpt lat="45.010445018972874" lon="8.273182962784437"><ele>198.0</ele><time>2026-04-18T08:26:47Z</time></trkpt><trkpt lat="45.01046779188071" lon="8.273079055606573"><ele>198.16666666666666</ele><time>2026-04-18T08:26:48Z</time></trkpt><trkpt lat="45.01048077471393" lon="8.272970644250238"><ele>198.33333333333331</ele><time>2026-04-18T08:26:49Z</time></trkpt><trkpt lat="45.01048349578668" lon="8.272862424682142"><ele>198.5</ele><time>2026-04-18T08:26:50Z</time></trkpt><trkpt lat="45.01048127367446" lon="8.272740832190348"><ele>198.66666666666666</ele><time>2026-04-18T08:26:51Z</time></trkpt><trkpt lat="45.0104741490455" lon="8.27263130533752"><ele>198.83333333333331</ele><time>2026-04-18T08:26:52Z</time></trkpt><trkpt lat="45.01046126969846" lon="8.27251457426081"><ele>199.0</ele><time>2026-04-18T08:26:53Z</time></trkpt><trkpt lat="45.01044615345666" lon="8.272401366464203"><ele>199.0</ele><time>2026-04-18T08:26:54Z</time></trkpt><trkpt lat="45.0104371430804" lon="8.272285327254219"><ele>199.0</ele><time>2026-04-18T08:26:55Z</time></trkpt><trkpt lat="45.01042993553428" lon="8.27215192003482"><ele>199.0</ele><time>2026-04-18T08:26:56Z</time></trkpt><trkpt lat="45.01040717605238" lon="8.272024767522778"><ele>199.0</ele><time>2026-04-18T08:26:57Z</time></trkpt><trkpt lat="45.010370482154336" lon="8.271901397048053"><ele>199.0</ele><time>2026-04-18T08:26:58Z</time></trkpt><trkpt lat="45.010318769127466" lon="8.271778439841873"><ele>199.39999999999998</ele><time>2026-04-18T08:26:59Z</time></trkpt><trkpt lat="45.01026075218275" lon="8.271665396924442"><ele>199.8</ele><time>2026-04-18T08:27:00Z</time></trkpt><trkpt lat="45.010200377838565" lon="8.271554224619365"><ele>200.2</ele><time>2026-04-18T08:27:01Z</time></trkpt><trkpt lat="45.01014429008657" lon="8.271455862151397"><ele>200.60000000000002</ele><time>2026-04-18T08:27:02Z</time></trkpt><trkpt lat="45.010084280929334" lon="8.271355243479077"><ele>201.0</ele><time>2026-04-18T08:27:03Z</time></trkpt><trkpt lat="45.010027976570925" lon="8.271255110276524"><ele>201.16666666666666</ele><time>2026-04-18T08:27:04Z</time></trkpt><trkpt lat="45.00996490444242" lon="8.271161900212059"><ele>201.33333333333331</ele><time>2026-04-18T08:27:05Z</time></trkpt><trkpt lat="45.00991640715964" lon="8.271074509718046"><ele>201.5</ele><time>2026-04-18T08:27:06Z</time></trkpt><trkpt lat="45.009852840843784" lon="8.270991344519572"><ele>201.66666666666666</ele><time>2026-04-18T08:27:07Z</time></trkpt><trkpt lat="45.00979114787799" lon="8.27090753922214"><ele>201.83333333333331</ele><time>2026-04-18T08:27:08Z</time></trkpt><trkpt lat="45.00975635146042" lon="8.270820726250184"><ele>202.0</ele><time>2026-04-18T08:27:09Z</time></trkpt><trkpt lat="45.00971041936413" lon="8.270733987353772"><ele>201.99999999999997</ele><time>2026-04-18T08:27:10Z</time></trkpt><trkpt lat="45.009663322232996" lon="8.270660571595569"><ele>202.0</ele><time>2026-04-18T08:27:11Z</time></trkpt><trkpt lat="45.0096187865199" lon="8.270589453340092"><ele>202.0</ele><time>2026-04-18T08:27:12Z</time></trkpt><trkpt lat="45.00961199202217" lon="8.270433151342864"><ele>202.0</ele><time>2026-04-18T08:27:14Z</time></trkpt><trkpt lat="45.00966851951278" lon="8.270347735429226"><ele>201.99999999999997</ele><time>2026-04-18T08:27:15Z</time></trkpt><trkpt lat="45.00972260176207" lon="8.270259377641807"><ele>202.0</ele><time>2026-04-18T08:27:16Z</time></trkpt><trkpt lat="45.0097720138629" lon="8.270128181605703"><ele>201.0</ele><time>2026-04-18T08:27:18Z</time></trkpt><trkpt lat="45.00983543616624" lon="8.269953420118172"><ele>200.0</ele><time>2026-04-18T08:27:20Z</time></trkpt><trkpt lat="45.009903665309864" lon="8.269845578635923"><ele>199.0</ele><time>2026-04-18T08:27:22Z</time></trkpt><trkpt lat="45.009971205745074" lon="8.269818020436515"><ele>198.0</ele><time>2026-04-18T08:27:25Z</time></trkpt><trkpt lat="45.01006273578299" lon="8.269920712893358"><ele>197.0</ele><time>2026-04-18T08:27:27Z</time></trkpt><trkpt lat="45.01011218838714" lon="8.269977744774161"><ele>196.85714285714286</ele><time>2026-04-18T08:27:28Z</time></trkpt><trkpt lat="45.010161659020326" lon="8.270039792527465"><ele>196.71428571428572</ele><time>2026-04-18T08:27:29Z</time></trkpt><trkpt lat="45.01021890235685" lon="8.270096020597423"><ele>196.57142857142856</ele><time>2026-04-18T08:27:30Z</time></trkpt><trkpt lat="45.01027827807753" lon="8.270138760178202"><ele>196.42857142857144</ele><time>2026-04-18T08:27:31Z</time></trkpt><trkpt lat="45.010340037897684" lon="8.270192521196913"><ele>196.28571428571428</ele><time>2026-04-18T08:27:32Z</time></trkpt><trkpt lat="45.01040417263444" lon="8.270243603250718"><ele>196.14285714285714</ele><time>2026-04-18T08:27:33Z</time></trkpt><trkpt lat="45.01046739733848" lon="8.270295279117006"><ele>196.0</ele><time>2026-04-18T08:27:34Z</time></trkpt><trkpt lat="45.01053231680042" lon="8.270351799190456"><ele>195.99999999999997</ele><time>2026-04-18T08:27:35Z</time></trkpt><trkpt lat="45.01059825925264" lon="8.270417223875247"><ele>196.0</ele><time>2026-04-18T08:27:36Z</time></trkpt><trkpt lat="45.0106673491952" lon="8.270482580950501"><ele>196.0</ele><time>2026-04-18T08:27:37Z</time></trkpt><trkpt lat="45.01073750386908" lon="8.270554384890445"><ele>196.0</ele><time>2026-04-18T08:27:38Z</time></trkpt><trkpt lat="45.010808844831175" lon="8.27063557360063"><ele>195.99999999999997</ele><time>2026-04-18T08:27:39Z</time></trkpt><trkpt lat="45.01087810704875" lon="8.270723762657378"><ele>196.0</ele><time>2026-04-18T08:27:40Z</time></trkpt><trkpt lat="45.010914654055156" lon="8.2708562875883"><ele>196.20000000000002</ele><time>2026-04-18T08:27:41Z</time></trkpt><trkpt lat="45.01098793493686" lon="8.270944216181315"><ele>196.4</ele><time>2026-04-18T08:27:42Z</time></trkpt><trkpt lat="45.011061743172995" lon="8.271028832877375"><ele>196.6</ele><time>2026-04-18T08:27:43Z</time></trkpt><trkpt lat="45.01113273788665" lon="8.27110634434737"><ele>196.8</ele><time>2026-04-18T08:27:44Z</time></trkpt><trkpt lat="45.01121820734541" lon="8.27116770779434"><ele>197.0</ele><time>2026-04-18T08:27:45Z</time></trkpt><trkpt lat="45.01129142479556" lon="8.271259838829943"><ele>197.00000000000003</ele><time>2026-04-18T08:27:46Z</time></trkpt><trkpt lat="45.01137540533653" lon="8.271305833027837"><ele>197.0</ele><time>2026-04-18T08:27:47Z</time></trkpt><trkpt lat="45.01144454749488" lon="8.27136372803845"><ele>197.0</ele><time>2026-04-18T08:27:48Z</time></trkpt><trkpt lat="45.01151793915829" lon="8.271442536368369"><ele>197.0</ele><time>2026-04-18T08:27:49Z</time></trkpt><trkpt lat="45.01158907517966" lon="8.271497049787566"><ele>197.00000000000003</ele><time>2026-04-18T08:27:50Z</time></trkpt><trkpt lat="45.01165773056917" lon="8.271530711571883"><ele>197.0</ele><time>2026-04-18T08:27:51Z</time></trkpt><trkpt lat="45.01171440255391" lon="8.271571498351884"><ele>196.39999999999998</ele><time>2026-04-18T08:27:52Z</time></trkpt><trkpt lat="45.0118017504106" lon="8.271634617196744"><ele>195.79999999999998</ele><time>2026-04-18T08:27:54Z</time></trkpt><trkpt lat="45.01186681086062" lon="8.271658147423507"><ele>195.2</ele><time>2026-04-18T08:27:56Z</time></trkpt><trkpt lat="45.011909060003006" lon="8.271515515495196"><ele>194.6</ele><time>2026-04-18T08:27:58Z</time></trkpt><trkpt lat="45.01196242650555" lon="8.271369176513247"><ele>194.0</ele><time>2026-04-18T08:28:00Z</time></trkpt><trkpt lat="45.01204458449299" lon="8.27126745580319"><ele>193.79999999999998</ele><time>2026-04-18T08:28:02Z</time></trkpt><trkpt lat="45.01215981094269" lon="8.271170950360894"><ele>193.6</ele><time>2026-04-18T08:28:04Z</time></trkpt><trkpt lat="45.012148891928376" lon="8.270987387933555"><ele>193.4</ele><time>2026-04-18T08:28:05Z</time></trkpt><trkpt lat="45.01218593023208" lon="8.270890311639025"><ele>193.2</ele><time>2026-04-18T08:28:06Z</time></trkpt><trkpt lat="45.01220743765054" lon="8.270786186223612"><ele>193.0</ele><time>2026-04-18T08:28:07Z</time></trkpt><trkpt lat="45.01224047981934" lon="8.27068573316709"><ele>192.8</ele><time>2026-04-18T08:28:08Z</time></trkpt><trkpt lat="45.01228399843137" lon="8.27058440368568"><ele>192.60000000000002</ele><time>2026-04-18T08:28:09Z</time></trkpt><trkpt lat="45.012324461795785" lon="8.270467263899302"><ele>192.39999999999998</ele><time>2026-04-18T08:28:10Z</time></trkpt><trkpt lat="45.0123651325304" lon="8.270349654639874"><ele>192.2</ele><time>2026-04-18T08:28:11Z</time></trkpt><trkpt lat="45.0124164993546" lon="8.270225817052143"><ele>192.0</ele><time>2026-04-18T08:28:12Z</time></trkpt><trkpt lat="45.01246909117345" lon="8.270111287087524"><ele>192.6</ele><time>2026-04-18T08:28:13Z</time></trkpt><trkpt lat="45.01251794242973" lon="8.269984919342562"><ele>193.2</ele><time>2026-04-18T08:28:14Z</time></trkpt><trkpt lat="45.01256681120493" lon="8.269865599151148"><ele>193.8</ele><time>2026-04-18T08:28:15Z</time></trkpt><trkpt lat="45.01261837557061" lon="8.269743288592924"><ele>194.4</ele><time>2026-04-18T08:28:16Z</time></trkpt><trkpt lat="45.0126730549651" lon="8.269627419905435"><ele>195.0</ele><time>2026-04-18T08:28:17Z</time></trkpt><trkpt lat="45.012728319870604" lon="8.26951906958805"><ele>195.2</ele><time>2026-04-18T08:28:18Z</time></trkpt><trkpt lat="45.01278535911504" lon="8.26940851982209"><ele>195.4</ele><time>2026-04-18T08:28:19Z</time></trkpt><trkpt lat="45.01284081522924" lon="8.269307494824252"><ele>195.60000000000002</ele><time>2026-04-18T08:28:20Z</time></trkpt><trkpt lat="45.012898405846464" lon="8.269209682337607"><ele>195.8</ele><time>2026-04-18T08:28:21Z</time></trkpt><trkpt lat="45.012958136435344" lon="8.269113764218991"><ele>196.0</ele><time>2026-04-18T08:28:22Z</time></trkpt><trkpt lat="45.01300655985421" lon="8.269016154861237"><ele>195.8</ele><time>2026-04-18T08:28:23Z</time></trkpt><trkpt lat="45.01305379758402" lon="8.268915622477847"><ele>195.60000000000002</ele><time>2026-04-18T08:28:24Z</time></trkpt><trkpt lat="45.013094865101266" lon="8.268812482595596"><ele>195.4</ele><time>2026-04-18T08:28:26Z</time></trkpt><trkpt lat="45.01314021589595" lon="8.268708390169868"><ele>195.2</ele><time>2026-04-18T08:28:29Z</time></trkpt><trkpt lat="45.01317748914595" lon="8.26857374205654"><ele>195.0</ele><time>2026-04-18T08:28:32Z</time></trkpt><trkpt lat="45.01320776625118" lon="8.268434935069857"><ele>195.0</ele><time>2026-04-18T08:28:34Z</time></trkpt><trkpt lat="45.01324119223049" lon="8.268294749942473"><ele>195.0</ele><time>2026-04-18T08:28:36Z</time></trkpt><trkpt lat="45.0132820299768" lon="8.268163428227785"><ele>195.0</ele><time>2026-04-18T08:28:38Z</time></trkpt><trkpt lat="45.01332996343188" lon="8.268056378105646"><ele>195.0</ele><time>2026-04-18T08:28:41Z</time></trkpt><trkpt lat="45.013369248235456" lon="8.26798562185601"><ele>195.0</ele><time>2026-04-18T08:28:43Z</time></trkpt><trkpt lat="45.0134222656005" lon="8.267874285959373"><ele>195.28571428571428</ele><time>2026-04-18T08:28:45Z</time></trkpt><trkpt lat="45.01346281460911" lon="8.267799891680054"><ele>195.57142857142856</ele><time>2026-04-18T08:28:46Z</time></trkpt><trkpt lat="45.01350524558514" lon="8.26772499729615"><ele>195.85714285714286</ele><time>2026-04-18T08:28:47Z</time></trkpt><trkpt lat="45.013555257173856" lon="8.26765438447973"><ele>196.14285714285714</ele><time>2026-04-18T08:28:48Z</time></trkpt><trkpt lat="45.01360842784983" lon="8.26758906207398"><ele>196.42857142857144</ele><time>2026-04-18T08:28:49Z</time></trkpt><trkpt lat="45.01366363887927" lon="8.267512687063633"><ele>196.71428571428572</ele><time>2026-04-18T08:28:50Z</time></trkpt><trkpt lat="45.013727826051245" lon="8.267421864740326"><ele>197.0</ele><time>2026-04-18T08:28:51Z</time></trkpt><trkpt lat="45.013784543322856" lon="8.267336616784892"><ele>197.33333333333334</ele><time>2026-04-18T08:28:52Z</time></trkpt><trkpt lat="45.01384524277222" lon="8.267243700706127"><ele>197.66666666666669</ele><time>2026-04-18T08:28:53Z</time></trkpt><trkpt lat="45.013902318275214" lon="8.267152072771633"><ele>198.0</ele><time>2026-04-18T08:28:54Z</time></trkpt><trkpt lat="45.01395561032861" lon="8.267061312774215"><ele>198.33333333333331</ele><time>2026-04-18T08:28:55Z</time></trkpt><trkpt lat="45.014008942855746" lon="8.266971190069546"><ele>198.66666666666666</ele><time>2026-04-18T08:28:56Z</time></trkpt><trkpt lat="45.0140809164472" lon="8.266863397142172"><ele>199.0</ele><time>2026-04-18T08:28:57Z</time></trkpt><trkpt lat="45.01414404906121" lon="8.26676280386863"><ele>199.0</ele><time>2026-04-18T08:28:58Z</time></trkpt><trkpt lat="45.014206987451686" lon="8.266659670775448"><ele>199.0</ele><time>2026-04-18T08:28:59Z</time></trkpt><trkpt lat="45.014257613102494" lon="8.266558181251783"><ele>199.0</ele><time>2026-04-18T08:29:00Z</time></trkpt><trkpt lat="45.01431521526807" lon="8.266453220707499"><ele>199.0</ele><time>2026-04-18T08:29:01Z</time></trkpt><trkpt lat="45.01437865290663" lon="8.266348118354342"><ele>199.0</ele><time>2026-04-18T08:29:02Z</time></trkpt><trkpt lat="45.0144542724357" lon="8.266246346344577"><ele>198.79999999999998</ele><time>2026-04-18T08:29:03Z</time></trkpt><trkpt lat="45.01452681473337" lon="8.266149560968115"><ele>198.6</ele><time>2026-04-18T08:29:04Z</time></trkpt><trkpt lat="45.01460254509657" lon="8.26604428880273"><ele>198.4</ele><time>2026-04-18T08:29:05Z</time></trkpt><trkpt lat="45.014684944962355" lon="8.265945060260364"><ele>198.2</ele><time>2026-04-18T08:29:06Z</time></trkpt><trkpt lat="45.014769382977775" lon="8.265850057302657"><ele>198.0</ele><time>2026-04-18T08:29:07Z</time></trkpt><trkpt lat="45.01485371918565" lon="8.265759794135985"><ele>198.0</ele><time>2026-04-18T08:29:08Z</time></trkpt><trkpt lat="45.014936334332006" lon="8.265667568267625"><ele>198.0</ele><time>2026-04-18T08:29:09Z</time></trkpt><trkpt lat="45.01501887912496" lon="8.265573766334457"><ele>198.0</ele><time>2026-04-18T08:29:10Z</time></trkpt><trkpt lat="45.01509844739498" lon="8.265480603348683"><ele>198.0</ele><time>2026-04-18T08:29:11Z</time></trkpt><trkpt lat="45.01517645363715" lon="8.265391983622308"><ele>198.0</ele><time>2026-04-18T08:29:12Z</time></trkpt><trkpt lat="45.01525414250563" lon="8.265294155952615"><ele>199.0</ele><time>2026-04-18T08:29:13Z</time></trkpt><trkpt lat="45.01532563063579" lon="8.265198430492948"><ele>200.0</ele><time>2026-04-18T08:29:14Z</time></trkpt><trkpt lat="45.01538652537693" lon="8.26512173454706"><ele>201.0</ele><time>2026-04-18T08:29:15Z</time></trkpt><trkpt lat="45.01545347679928" lon="8.265043122547905"><ele>202.0</ele><time>2026-04-18T08:29:16Z</time></trkpt><trkpt lat="45.01552009060207" lon="8.264960985440096"><ele>203.0</ele><time>2026-04-18T08:29:17Z</time></trkpt><trkpt lat="45.01558135902027" lon="8.264880055747563"><ele>204.0</ele><time>2026-04-18T08:29:18Z</time></trkpt><trkpt lat="45.01564953706681" lon="8.264813223756079"><ele>203.6</ele><time>2026-04-18T08:29:19Z</time></trkpt><trkpt lat="45.015713739117096" lon="8.264754585809394"><ele>203.2</ele><time>2026-04-18T08:29:20Z</time></trkpt><trkpt lat="45.015789801067214" lon="8.264683841377964"><ele>202.79999999999998</ele><time>2026-04-18T08:29:21Z</time></trkpt><trkpt lat="45.015862589755606" lon="8.264601301546888"><ele>202.39999999999998</ele><time>2026-04-18T08:29:22Z</time></trkpt><trkpt lat="45.01594003413507" lon="8.264517597635665"><ele>202.0</ele><time>2026-04-18T08:29:23Z</time></trkpt><trkpt lat="45.01601193778064" lon="8.264434391098547"><ele>201.39999999999998</ele><time>2026-04-18T08:29:24Z</time></trkpt><trkpt lat="45.01609340484886" lon="8.264351163929376"><ele>200.79999999999998</ele><time>2026-04-18T08:29:25Z</time></trkpt><trkpt lat="45.016175809851816" lon="8.264271079500817"><ele>200.2</ele><time>2026-04-18T08:29:26Z</time></trkpt><trkpt lat="45.016250978246674" lon="8.26419391762514"><ele>199.6</ele><time>2026-04-18T08:29:27Z</time></trkpt><trkpt lat="45.01633088285053" lon="8.264106808651528"><ele>199.0</ele><time>2026-04-18T08:29:28Z</time></trkpt><trkpt lat="45.01640824399888" lon="8.264025489945906"><ele>199.0</ele><time>2026-04-18T08:29:29Z</time></trkpt><trkpt lat="45.01649005253824" lon="8.263949697987997"><ele>199.0</ele><time>2026-04-18T08:29:30Z</time></trkpt><trkpt lat="45.016564463296284" lon="8.263877736926231"><ele>199.0</ele><time>2026-04-18T08:29:31Z</time></trkpt><trkpt lat="45.01663061910868" lon="8.263804907174666"><ele>199.0</ele><time>2026-04-18T08:29:32Z</time></trkpt><trkpt lat="45.01670349425163" lon="8.263728484099573"><ele>199.0</ele><time>2026-04-18T08:29:33Z</time></trkpt><trkpt lat="45.01677369454619" lon="8.263644871548726"><ele>199.39999999999998</ele><time>2026-04-18T08:29:34Z</time></trkpt><trkpt lat="45.01683017762178" lon="8.263560441255445"><ele>199.8</ele><time>2026-04-18T08:29:35Z</time></trkpt><trkpt lat="45.016889953365464" lon="8.263459936365523"><ele>200.2</ele><time>2026-04-18T08:29:36Z</time></trkpt><trkpt lat="45.016941602735926" lon="8.263342199052884"><ele>200.60000000000002</ele><time>2026-04-18T08:29:37Z</time></trkpt><trkpt lat="45.01699764287327" lon="8.263234980625494"><ele>201.0</ele><time>2026-04-18T08:29:38Z</time></trkpt><trkpt lat="45.01705816118608" lon="8.263139659498306"><ele>201.0</ele><time>2026-04-18T08:29:39Z</time></trkpt><trkpt lat="45.01712710306916" lon="8.263033928772925"><ele>201.0</ele><time>2026-04-18T08:29:40Z</time></trkpt><trkpt lat="45.0171959090418" lon="8.262931180095789"><ele>201.0</ele><time>2026-04-18T08:29:41Z</time></trkpt><trkpt lat="45.01725905174486" lon="8.262835837246561"><ele>201.0</ele><time>2026-04-18T08:29:42Z</time></trkpt><trkpt lat="45.01732597648438" lon="8.262745958062473"><ele>201.0</ele><time>2026-04-18T08:29:43Z</time></trkpt><trkpt lat="45.01738981383766" lon="8.262667110896285"><ele>201.0</ele><time>2026-04-18T08:29:44Z</time></trkpt><trkpt lat="45.01746928572597" lon="8.262598662385988"><ele>201.0</ele><time>2026-04-18T08:29:45Z</time></trkpt><trkpt lat="45.017559340389845" lon="8.262558767172951"><ele>201.0</ele><time>2026-04-18T08:29:46Z</time></trkpt><trkpt lat="45.01765266873092" lon="8.262531241811374"><ele>201.0</ele><time>2026-04-18T08:29:47Z</time></trkpt><trkpt lat="45.01775164002871" lon="8.262516511540925"><ele>201.0</ele><time>2026-04-18T08:29:48Z</time></trkpt><trkpt lat="45.017850946268716" lon="8.262508421502433"><ele>201.0</ele><time>2026-04-18T08:29:49Z</time></trkpt><trkpt lat="45.01794315526559" lon="8.262513494631131"><ele>201.0</ele><time>2026-04-18T08:29:50Z</time></trkpt><trkpt lat="45.01803283185953" lon="8.262525078580762"><ele>201.0</ele><time>2026-04-18T08:29:51Z</time></trkpt><trkpt lat="45.01811569018975" lon="8.262534166347633"><ele>201.0</ele><time>2026-04-18T08:29:52Z</time></trkpt><trkpt lat="45.01820709162347" lon="8.262517788000281"><ele>201.0</ele><time>2026-04-18T08:29:53Z</time></trkpt><trkpt lat="45.01828339797525" lon="8.26247360001187"><ele>201.0</ele><time>2026-04-18T08:29:54Z</time></trkpt><trkpt lat="45.01834565229646" lon="8.262399249241964"><ele>201.33333333333334</ele><time>2026-04-18T08:29:55Z</time></trkpt><trkpt lat="45.01837844879235" lon="8.262298293522065"><ele>201.66666666666669</ele><time>2026-04-18T08:29:57Z</time></trkpt><trkpt lat="45.01833331898641" lon="8.262201743338153"><ele>202.0</ele><time>2026-04-18T08:29:59Z</time></trkpt><trkpt lat="45.01827264181655" lon="8.262158283555388"><ele>202.33333333333334</ele><time>2026-04-18T08:30:00Z</time></trkpt><trkpt lat="45.01820535040122" lon="8.262092746965555"><ele>202.66666666666669</ele><time>2026-04-18T08:30:01Z</time></trkpt><trkpt lat="45.0181501376813" lon="8.262008694409857"><ele>203.0</ele><time>2026-04-18T08:30:02Z</time></trkpt><trkpt lat="45.01809009656307" lon="8.261921843040934"><ele>203.00000000000003</ele><time>2026-04-18T08:30:03Z</time></trkpt><trkpt lat="45.01803426849022" lon="8.261835744074752"><ele>203.0</ele><time>2026-04-18T08:30:04Z</time></trkpt><trkpt lat="45.01798320194332" lon="8.261752264502055"><ele>203.0</ele><time>2026-04-18T08:30:05Z</time></trkpt><trkpt lat="45.017929748844786" lon="8.261679192071442"><ele>203.0</ele><time>2026-04-18T08:30:06Z</time></trkpt><trkpt lat="45.017877121090024" lon="8.261576136427024"><ele>203.00000000000003</ele><time>2026-04-18T08:30:07Z</time></trkpt><trkpt lat="45.017825665756654" lon="8.261468039907955"><ele>203.0</ele><time>2026-04-18T08:30:08Z</time></trkpt><trkpt lat="45.01777463856101" lon="8.261371472801434"><ele>203.33333333333334</ele><time>2026-04-18T08:30:09Z</time></trkpt><trkpt lat="45.017739834238355" lon="8.261274188038588"><ele>203.66666666666669</ele><time>2026-04-18T08:30:10Z</time></trkpt><trkpt lat="45.01771791774233" lon="8.261180308232849"><ele>204.0</ele><time>2026-04-18T08:30:11Z</time></trkpt><trkpt lat="45.017734668486035" lon="8.261019579292437"><ele>204.33333333333331</ele><time>2026-04-18T08:30:13Z</time></trkpt><trkpt lat="45.01776712439014" lon="8.260934414800882"><ele>204.66666666666666</ele><time>2026-04-18T08:30:14Z</time></trkpt><trkpt lat="45.017783035388405" lon="8.260807834791787"><ele>205.0</ele><time>2026-04-18T08:30:15Z</time></trkpt><trkpt lat="45.017761414937574" lon="8.260687857702148"><ele>205.0</ele><time>2026-04-18T08:30:16Z</time></trkpt><trkpt lat="45.01771607457747" lon="8.260574307296606"><ele>205.0</ele><time>2026-04-18T08:30:17Z</time></trkpt><trkpt lat="45.01767023133268" lon="8.260474315820339"><ele>205.0</ele><time>2026-04-18T08:30:18Z</time></trkpt><trkpt lat="45.01762118376112" lon="8.260363618285135"><ele>205.0</ele><time>2026-04-18T08:30:19Z</time></trkpt><trkpt lat="45.01757398324125" lon="8.26025191866958"><ele>205.0</ele><time>2026-04-18T08:30:20Z</time></trkpt><trkpt lat="45.01753488731042" lon="8.260131012259015"><ele>204.99999999999997</ele><time>2026-04-18T08:30:21Z</time></trkpt><trkpt lat="45.01749736666332" lon="8.260010935444623"><ele>205.0</ele><time>2026-04-18T08:30:22Z</time></trkpt><trkpt lat="45.01746479423175" lon="8.259900988559053"><ele>205.0</ele><time>2026-04-18T08:30:23Z</time></trkpt><trkpt lat="45.017439171993786" lon="8.25979697187183"><ele>205.0</ele><time>2026-04-18T08:30:24Z</time></trkpt><trkpt lat="45.01742445252312" lon="8.259688302194247"><ele>204.99999999999997</ele><time>2026-04-18T08:30:25Z</time></trkpt><trkpt lat="45.01741686141205" lon="8.259574718051756"><ele>205.0</ele><time>2026-04-18T08:30:26Z</time></trkpt><trkpt lat="45.017410825546804" lon="8.259461479129191"><ele>205.66666666666666</ele><time>2026-04-18T08:30:27Z</time></trkpt><trkpt lat="45.01740691579088" lon="8.259343849803527"><ele>206.33333333333331</ele><time>2026-04-18T08:30:28Z</time></trkpt><trkpt lat="45.01740524934851" lon="8.259225196093087"><ele>207.0</ele><time>2026-04-18T08:30:29Z</time></trkpt><trkpt lat="45.017394600348524" lon="8.259111086602989"><ele>207.66666666666669</ele><time>2026-04-18T08:30:30Z</time></trkpt><trkpt lat="45.01737380315616" lon="8.25899628750118"><ele>208.33333333333334</ele><time>2026-04-18T08:30:31Z</time></trkpt><trkpt lat="45.0173387392739" lon="8.258875167917243"><ele>209.0</ele><time>2026-04-18T08:30:32Z</time></trkpt><trkpt lat="45.01730540529058" lon="8.258754356519127"><ele>209.50000000000003</ele><time>2026-04-18T08:30:33Z</time></trkpt><trkpt lat="45.01727223110079" lon="8.258630262195819"><ele>210.0</ele><time>2026-04-18T08:30:34Z</time></trkpt><trkpt lat="45.01725015113773" lon="8.258513986606685"><ele>210.5</ele><time>2026-04-18T08:30:35Z</time></trkpt><trkpt lat="45.01721216167894" lon="8.258397359625599"><ele>211.0</ele><time>2026-04-18T08:30:36Z</time></trkpt><trkpt lat="45.01717806460983" lon="8.25828665589905"><ele>211.50000000000003</ele><time>2026-04-18T08:30:37Z</time></trkpt><trkpt lat="45.01714152563205" lon="8.258185543639161"><ele>212.0</ele><time>2026-04-18T08:30:38Z</time></trkpt><trkpt lat="45.01710974642331" lon="8.258102166852279"><ele>212.50000000000003</ele><time>2026-04-18T08:30:39Z</time></trkpt><trkpt lat="45.01705359796888" lon="8.25801884259543"><ele>213.0</ele><time>2026-04-18T08:30:40Z</time></trkpt><trkpt lat="45.01700065771543" lon="8.257888868017547"><ele>213.5</ele><time>2026-04-18T08:30:41Z</time></trkpt><trkpt lat="45.016959756482784" lon="8.257798545422984"><ele>214.0</ele><time>2026-04-18T08:30:42Z</time></trkpt><trkpt lat="45.01691897920745" lon="8.25769846668935"><ele>214.50000000000003</ele><time>2026-04-18T08:30:43Z</time></trkpt><trkpt lat="45.01687534639113" lon="8.257601152982676"><ele>215.0</ele><time>2026-04-18T08:30:44Z</time></trkpt><trkpt lat="45.01684529928501" lon="8.257481450114009"><ele>215.00000000000003</ele><time>2026-04-18T08:30:45Z</time></trkpt><trkpt lat="45.01680993566641" lon="8.257370214024593"><ele>215.0</ele><time>2026-04-18T08:30:46Z</time></trkpt><trkpt lat="45.0167800953587" lon="8.257254240936481"><ele>215.0</ele><time>2026-04-18T08:30:47Z</time></trkpt><trkpt lat="45.01674741820814" lon="8.257130044643457"><ele>215.0</ele><time>2026-04-18T08:30:48Z</time></trkpt><trkpt lat="45.01671184133251" lon="8.257019976586296"><ele>215.00000000000003</ele><time>2026-04-18T08:30:49Z</time></trkpt><trkpt lat="45.01667639478458" lon="8.256919517261123"><ele>215.0</ele><time>2026-04-18T08:30:50Z</time></trkpt><trkpt lat="45.01664470053709" lon="8.256814683755865"><ele>216.66666666666669</ele><time>2026-04-18T08:30:51Z</time></trkpt><trkpt lat="45.01660633169967" lon="8.25671230606237"><ele>218.33333333333334</ele><time>2026-04-18T08:30:52Z</time></trkpt><trkpt lat="45.01657573898696" lon="8.2566168597874"><ele>220.0</ele><time>2026-04-18T08:30:53Z</time></trkpt><trkpt lat="45.01653610003115" lon="8.256515798234659"><ele>221.66666666666669</ele><time>2026-04-18T08:30:54Z</time></trkpt><trkpt lat="45.01648857313125" lon="8.256420373896269"><ele>223.33333333333334</ele><time>2026-04-18T08:30:55Z</time></trkpt><trkpt lat="45.01644706478217" lon="8.256327578278446"><ele>225.0</ele><time>2026-04-18T08:30:56Z</time></trkpt><trkpt lat="45.01640656071586" lon="8.256214785220628"><ele>225.6</ele><time>2026-04-18T08:30:57Z</time></trkpt><trkpt lat="45.01635456207698" lon="8.25610933323911"><ele>226.2</ele><time>2026-04-18T08:30:58Z</time></trkpt><trkpt lat="45.01631769309076" lon="8.256005985755374"><ele>226.8</ele><time>2026-04-18T08:30:59Z</time></trkpt><trkpt lat="45.0162832269077" lon="8.255908972491312"><ele>227.4</ele><time>2026-04-18T08:31:00Z</time></trkpt><trkpt lat="45.01625007574464" lon="8.255800647187918"><ele>228.0</ele><time>2026-04-18T08:31:01Z</time></trkpt><trkpt lat="45.01616575675931" lon="8.255676748385156"><ele>228.0</ele><time>2026-04-18T08:31:03Z</time></trkpt><trkpt lat="45.016104037177385" lon="8.255638476993283"><ele>228.0</ele><time>2026-04-18T08:31:04Z</time></trkpt><trkpt lat="45.01602960818944" lon="8.25559408559368"><ele>228.0</ele><time>2026-04-18T08:31:05Z</time></trkpt><trkpt lat="45.01592726180643" lon="8.255589735412721"><ele>228.0</ele><time>2026-04-18T08:31:06Z</time></trkpt><trkpt lat="45.015837740914776" lon="8.255561008597649"><ele>228.0</ele><time>2026-04-18T08:31:07Z</time></trkpt><trkpt lat="45.01577173410331" lon="8.255520124841077"><ele>228.0</ele><time>2026-04-18T08:31:08Z</time></trkpt><trkpt lat="45.015713619827906" lon="8.255462220770363"><ele>228.66666666666666</ele><time>2026-04-18T08:31:09Z</time></trkpt><trkpt lat="45.015646787189986" lon="8.255379995194142"><ele>229.33333333333331</ele><time>2026-04-18T08:31:10Z</time></trkpt><trkpt lat="45.01558918701669" lon="8.255296706587924"><ele>230.0</ele><time>2026-04-18T08:31:11Z</time></trkpt><trkpt lat="45.015524574717155" lon="8.255203194404668"><ele>230.66666666666666</ele><time>2026-04-18T08:31:12Z</time></trkpt><trkpt lat="45.015476690991974" lon="8.25511286867926"><ele>231.33333333333331</ele><time>2026-04-18T08:31:13Z</time></trkpt><trkpt lat="45.015431724154865" lon="8.255025762261543"><ele>232.0</ele><time>2026-04-18T08:31:14Z</time></trkpt><trkpt lat="45.01538269899094" lon="8.254926588010013"><ele>231.99999999999997</ele><time>2026-04-18T08:31:15Z</time></trkpt><trkpt lat="45.015340994389724" lon="8.254838726296937"><ele>232.0</ele><time>2026-04-18T08:31:16Z</time></trkpt><trkpt lat="45.015287191534604" lon="8.254747970729053"><ele>232.0</ele><time>2026-04-18T08:31:17Z</time></trkpt><trkpt lat="45.01524022086904" lon="8.254665315995135"><ele>232.0</ele><time>2026-04-18T08:31:18Z</time></trkpt><trkpt lat="45.01519721682787" lon="8.254587193047463"><ele>231.99999999999997</ele><time>2026-04-18T08:31:19Z</time></trkpt><trkpt lat="45.01515567797052" lon="8.254507058485695"><ele>232.0</ele><time>2026-04-18T08:31:20Z</time></trkpt><trkpt lat="45.01508072010928" lon="8.254392885672173"><ele>232.0</ele><time>2026-04-18T08:31:22Z</time></trkpt><trkpt lat="45.01505964800997" lon="8.254304383952995"><ele>232.0</ele><time>2026-04-18T08:31:44Z</time></trkpt><trkpt lat="45.015151855750474" lon="8.254273296365437"><ele>232.0</ele><time>2026-04-18T08:31:46Z</time></trkpt><trkpt lat="45.01526277493378" lon="8.25428544188656"><ele>232.0</ele><time>2026-04-18T08:31:47Z</time></trkpt><trkpt lat="45.01535336387011" lon="8.254281460402092"><ele>232.0</ele><time>2026-04-18T08:31:48Z</time></trkpt><trkpt lat="45.01545941150227" lon="8.254271523413161"><ele>232.0</ele><time>2026-04-18T08:31:49Z</time></trkpt><trkpt lat="45.01556587646137" lon="8.254267050621785"><ele>232.0</ele><time>2026-04-18T08:31:50Z</time></trkpt><trkpt lat="45.01567574038666" lon="8.25426484699891"><ele>232.0</ele><time>2026-04-18T08:31:51Z</time></trkpt><trkpt lat="45.015778884261124" lon="8.254279229243998"><ele>232.0</ele><time>2026-04-18T08:31:52Z</time></trkpt><trkpt lat="45.01587745429124" lon="8.254303811787953"><ele>232.0</ele><time>2026-04-18T08:31:53Z</time></trkpt><trkpt lat="45.01597195882591" lon="8.254325793943245"><ele>232.39999999999998</ele><time>2026-04-18T08:31:54Z</time></trkpt><trkpt lat="45.016059678268164" lon="8.254354460675616"><ele>232.79999999999998</ele><time>2026-04-18T08:31:55Z</time></trkpt><trkpt lat="45.016132084868005" lon="8.254396893355212"><ele>233.2</ele><time>2026-04-18T08:31:56Z</time></trkpt><trkpt lat="45.01622643344388" lon="8.254329805197838"><ele>233.6</ele><time>2026-04-18T08:31:57Z</time></trkpt><trkpt lat="45.016317534518045" lon="8.254277832597172"><ele>234.0</ele><time>2026-04-18T08:31:58Z</time></trkpt><trkpt lat="45.01641939016285" lon="8.254211299416745"><ele>234.0</ele><time>2026-04-18T08:31:59Z</time></trkpt><trkpt lat="45.01652504895337" lon="8.254144322291252"><ele>233.99999999999997</ele><time>2026-04-18T08:32:00Z</time></trkpt><trkpt lat="45.01662783330228" lon="8.254081293843514"><ele>233.99999999999997</ele><time>2026-04-18T08:32:01Z</time></trkpt><trkpt lat="45.01672480222916" lon="8.254011784440655"><ele>234.0</ele><time>2026-04-18T08:32:02Z</time></trkpt><trkpt lat="45.01681284101352" lon="8.253931250366225"><ele>234.0</ele><time>2026-04-18T08:32:03Z</time></trkpt><trkpt lat="45.016892858808774" lon="8.253847714077093"><ele>235.2</ele><time>2026-04-18T08:32:04Z</time></trkpt><trkpt lat="45.0169698546177" lon="8.253753610069733"><ele>236.39999999999998</ele><time>2026-04-18T08:32:05Z</time></trkpt><trkpt lat="45.017042270037386" lon="8.253663014577423"><ele>237.6</ele><time>2026-04-18T08:32:06Z</time></trkpt><trkpt lat="45.017114409513624" lon="8.25357574901497"><ele>238.8</ele><time>2026-04-18T08:32:07Z</time></trkpt><trkpt lat="45.01718205388508" lon="8.253485476808462"><ele>240.0</ele><time>2026-04-18T08:32:08Z</time></trkpt><trkpt lat="45.01723725787431" lon="8.25343390249593"><ele>240.0</ele><time>2026-04-18T08:32:09Z</time></trkpt><trkpt lat="45.017279665020816" lon="8.253348894530326"><ele>240.0</ele><time>2026-04-18T08:32:10Z</time></trkpt><trkpt lat="45.017337243469385" lon="8.253274359348904"><ele>240.0</ele><time>2026-04-18T08:32:11Z</time></trkpt><trkpt lat="45.01740353748223" lon="8.25322457429781"><ele>240.0</ele><time>2026-04-18T08:32:12Z</time></trkpt><trkpt lat="45.01746301228255" lon="8.253173032783009"><ele>240.0</ele><time>2026-04-18T08:32:13Z</time></trkpt><trkpt lat="45.01752777126003" lon="8.253111152053576"><ele>240.0</ele><time>2026-04-18T08:32:14Z</time></trkpt><trkpt lat="45.01760121019265" lon="8.253068323865415"><ele>239.0</ele><time>2026-04-18T08:32:15Z</time></trkpt><trkpt lat="45.01768656819244" lon="8.253050447605315"><ele>238.0</ele><time>2026-04-18T08:32:16Z</time></trkpt><trkpt lat="45.01776854135828" lon="8.253022681259832"><ele>237.0</ele><time>2026-04-18T08:32:17Z</time></trkpt><trkpt lat="45.01785182836948" lon="8.252984061164277"><ele>236.0</ele><time>2026-04-18T08:32:18Z</time></trkpt><trkpt lat="45.017941093692954" lon="8.252967350136"><ele>235.0</ele><time>2026-04-18T08:32:19Z</time></trkpt><trkpt lat="45.01802880094152" lon="8.252986829492228"><ele>234.0</ele><time>2026-04-18T08:32:20Z</time></trkpt><trkpt lat="45.01810886421565" lon="8.25299962198314"><ele>234.0</ele><time>2026-04-18T08:32:21Z</time></trkpt><trkpt lat="45.018198275529606" lon="8.253014369198812"><ele>234.0</ele><time>2026-04-18T08:32:22Z</time></trkpt><trkpt lat="45.0182857126123" lon="8.253030845141568"><ele>234.0</ele><time>2026-04-18T08:32:23Z</time></trkpt><trkpt lat="45.018371632033976" lon="8.253052836885542"><ele>234.0</ele><time>2026-04-18T08:32:24Z</time></trkpt><trkpt lat="45.01846239957828" lon="8.253061156515493"><ele>234.0</ele><time>2026-04-18T08:32:25Z</time></trkpt><trkpt lat="45.01854818612725" lon="8.253066970812444"><ele>234.0</ele><time>2026-04-18T08:32:26Z</time></trkpt><trkpt lat="45.01862783728063" lon="8.253099347569796"><ele>234.0</ele><time>2026-04-18T08:32:27Z</time></trkpt><trkpt lat="45.0187092270388" lon="8.253088956665477"><ele>234.0</ele><time>2026-04-18T08:32:28Z</time></trkpt><trkpt lat="45.01878450515391" lon="8.253124407005327"><ele>234.0</ele><time>2026-04-18T08:32:29Z</time></trkpt><trkpt lat="45.01887061141045" lon="8.253141995787939"><ele>234.0</ele><time>2026-04-18T08:32:30Z</time></trkpt><trkpt lat="45.01894164856696" lon="8.253157334513714"><ele>234.0</ele><time>2026-04-18T08:32:31Z</time></trkpt><trkpt lat="45.01900741571221" lon="8.253174973284935"><ele>234.0</ele><time>2026-04-18T08:32:32Z</time></trkpt><trkpt lat="45.01910482434578" lon="8.253201760305046"><ele>234.79999999999998</ele><time>2026-04-18T08:32:34Z</time></trkpt><trkpt lat="45.019180478563534" lon="8.253307050678421"><ele>235.59999999999997</ele><time>2026-04-18T08:32:36Z</time></trkpt><trkpt lat="45.0192471897986" lon="8.253397073648683"><ele>236.4</ele><time>2026-04-18T08:32:37Z</time></trkpt><trkpt lat="45.01932138906921" lon="8.25349720129762"><ele>237.2</ele><time>2026-04-18T08:32:38Z</time></trkpt><trkpt lat="45.01941066332286" lon="8.25361767175802"><ele>238.0</ele><time>2026-04-18T08:32:39Z</time></trkpt><trkpt lat="45.019500830692216" lon="8.253720257662993"><ele>238.0</ele><time>2026-04-18T08:32:40Z</time></trkpt><trkpt lat="45.019583412740296" lon="8.253850787152459"><ele>238.0</ele><time>2026-04-18T08:32:41Z</time></trkpt><trkpt lat="45.01968090488662" lon="8.253957122085469"><ele>238.0</ele><time>2026-04-18T08:32:42Z</time></trkpt><trkpt lat="45.01974986609584" lon="8.254083392173047"><ele>238.0</ele><time>2026-04-18T08:32:43Z</time></trkpt><trkpt lat="45.01983876368167" lon="8.254176098835028"><ele>238.8</ele><time>2026-04-18T08:32:44Z</time></trkpt><trkpt lat="45.01991218931676" lon="8.254281112422452"><ele>239.60000000000002</ele><time>2026-04-18T08:32:45Z</time></trkpt><trkpt lat="45.0199892854619" lon="8.254390116705506"><ele>240.39999999999998</ele><time>2026-04-18T08:32:46Z</time></trkpt><trkpt lat="45.020067030462954" lon="8.254499258224397"><ele>241.2</ele><time>2026-04-18T08:32:47Z</time></trkpt><trkpt lat="45.02013705888269" lon="8.25462500147941"><ele>242.0</ele><time>2026-04-18T08:32:48Z</time></trkpt><trkpt lat="45.02022375865125" lon="8.254710741617826"><ele>240.0</ele><time>2026-04-18T08:32:49Z</time></trkpt><trkpt lat="45.020290539134734" lon="8.254834604469224"><ele>238.0</ele><time>2026-04-18T08:32:50Z</time></trkpt><trkpt lat="45.02036983181764" lon="8.254942891906378"><ele>236.0</ele><time>2026-04-18T08:32:51Z</time></trkpt><trkpt lat="45.020442801773584" lon="8.25504537831971"><ele>234.0</ele><time>2026-04-18T08:32:52Z</time></trkpt><trkpt lat="45.020516189172305" lon="8.25515193555332"><ele>232.0</ele><time>2026-04-18T08:32:53Z</time></trkpt><trkpt lat="45.02058859102913" lon="8.25525864994649"><ele>232.0</ele><time>2026-04-18T08:32:54Z</time></trkpt><trkpt lat="45.02065795367116" lon="8.255366013210613"><ele>232.0</ele><time>2026-04-18T08:32:55Z</time></trkpt><trkpt lat="45.02074074371886" lon="8.25544806848636"><ele>232.0</ele><time>2026-04-18T08:32:56Z</time></trkpt><trkpt lat="45.02081379150798" lon="8.255536345480305"><ele>232.0</ele><time>2026-04-18T08:32:57Z</time></trkpt><trkpt lat="45.0208945588021" lon="8.25563350513375"><ele>232.0</ele><time>2026-04-18T08:32:58Z</time></trkpt><trkpt lat="45.020984051588066" lon="8.255696013073075"><ele>230.39999999999998</ele><time>2026-04-18T08:32:59Z</time></trkpt><trkpt lat="45.02105552973076" lon="8.255791032099511"><ele>228.79999999999998</ele><time>2026-04-18T08:33:00Z</time></trkpt><trkpt lat="45.02113696110854" lon="8.25587072127579"><ele>227.2</ele><time>2026-04-18T08:33:01Z</time></trkpt><trkpt lat="45.02121368541477" lon="8.255945804069501"><ele>225.6</ele><time>2026-04-18T08:33:02Z</time></trkpt><trkpt lat="45.02129486100902" lon="8.25599676625212"><ele>224.0</ele><time>2026-04-18T08:33:03Z</time></trkpt><trkpt lat="45.02135868801148" lon="8.256064505945922"><ele>224.0</ele><time>2026-04-18T08:33:04Z</time></trkpt><trkpt lat="45.02141675482353" lon="8.25615623505754"><ele>223.99999999999997</ele><time>2026-04-18T08:33:05Z</time></trkpt><trkpt lat="45.021444810688415" lon="8.256289253184292"><ele>223.99999999999997</ele><time>2026-04-18T08:33:06Z</time></trkpt><trkpt lat="45.02150024414795" lon="8.25639554481621"><ele>224.0</ele><time>2026-04-18T08:33:07Z</time></trkpt><trkpt lat="45.02156054074781" lon="8.25649269642888"><ele>224.0</ele><time>2026-04-18T08:33:08Z</time></trkpt><trkpt lat="45.021613625617555" lon="8.256584879526224"><ele>222.79999999999998</ele><time>2026-04-18T08:33:09Z</time></trkpt><trkpt lat="45.02166059997091" lon="8.256656864295696"><ele>221.59999999999997</ele><time>2026-04-18T08:33:10Z</time></trkpt><trkpt lat="45.021694605459885" lon="8.256773236428204"><ele>220.4</ele><time>2026-04-18T08:33:12Z</time></trkpt><trkpt lat="45.021725582319775" lon="8.256861524000152"><ele>219.2</ele><time>2026-04-18T08:33:16Z</time></trkpt><trkpt lat="45.02187548138473" lon="8.256842177734578"><ele>218.0</ele><time>2026-04-18T08:33:18Z</time></trkpt><trkpt lat="45.0219456674445" lon="8.256815570495906"><ele>218.00000000000003</ele><time>2026-04-18T08:33:19Z</time></trkpt><trkpt lat="45.02202221767886" lon="8.256795840845987"><ele>218.0</ele><time>2026-04-18T08:33:20Z</time></trkpt><trkpt lat="45.02210271190088" lon="8.256784287557341"><ele>218.0</ele><time>2026-04-18T08:33:21Z</time></trkpt><trkpt lat="45.02218883213856" lon="8.256769844958072"><ele>218.0</ele><time>2026-04-18T08:33:22Z</time></trkpt><trkpt lat="45.02228310139552" lon="8.256758741843456"><ele>218.00000000000003</ele><time>2026-04-18T08:33:23Z</time></trkpt><trkpt lat="45.022382620698636" lon="8.256750921861116"><ele>218.0</ele><time>2026-04-18T08:33:24Z</time></trkpt><trkpt lat="45.022487478310076" lon="8.25674853301403"><ele>218.16666666666669</ele><time>2026-04-18T08:33:25Z</time></trkpt><trkpt lat="45.02258052691508" lon="8.25674480063976"><ele>218.33333333333334</ele><time>2026-04-18T08:33:26Z</time></trkpt><trkpt lat="45.02266668526406" lon="8.256739638799946"><ele>218.5</ele><time>2026-04-18T08:33:27Z</time></trkpt><trkpt lat="45.02274551843432" lon="8.256735989835454"><ele>218.66666666666669</ele><time>2026-04-18T08:33:28Z</time></trkpt><trkpt lat="45.02282108645093" lon="8.256754979743905"><ele>218.83333333333334</ele><time>2026-04-18T08:33:29Z</time></trkpt><trkpt lat="45.022887985174556" lon="8.256755387473133"><ele>219.0</ele><time>2026-04-18T08:33:30Z</time></trkpt><trkpt lat="45.022936797062144" lon="8.256606195603863"><ele>219.0</ele><time>2026-04-18T08:33:31Z</time></trkpt><trkpt lat="45.022983063245874" lon="8.256504171682508"><ele>218.99999999999997</ele><time>2026-04-18T08:33:32Z</time></trkpt><trkpt lat="45.02304195385662" lon="8.256396503517292"><ele>218.99999999999997</ele><time>2026-04-18T08:33:33Z</time></trkpt><trkpt lat="45.02313203493687" lon="8.256309573373057"><ele>219.0</ele><time>2026-04-18T08:33:34Z</time></trkpt><trkpt lat="45.02320457889561" lon="8.256195970706715"><ele>219.0</ele><time>2026-04-18T08:33:35Z</time></trkpt><trkpt lat="45.02330007734714" lon="8.256115235750524"><ele>218.75</ele><time>2026-04-18T08:33:36Z</time></trkpt><trkpt lat="45.023386615812726" lon="8.256002323623816"><ele>218.5</ele><time>2026-04-18T08:33:37Z</time></trkpt><trkpt lat="45.02347885344492" lon="8.25588612151176"><ele>218.25</ele><time>2026-04-18T08:33:38Z</time></trkpt><trkpt lat="45.02356220636988" lon="8.255760821748638"><ele>218.0</ele><time>2026-04-18T08:33:39Z</time></trkpt><trkpt lat="45.02363132788646" lon="8.255626923429373"><ele>217.0</ele><time>2026-04-18T08:33:40Z</time></trkpt><trkpt lat="45.0236923798563" lon="8.255486874506612"><ele>216.0</ele><time>2026-04-18T08:33:41Z</time></trkpt><trkpt lat="45.02375582731952" lon="8.255343468143073"><ele>215.0</ele><time>2026-04-18T08:33:42Z</time></trkpt><trkpt lat="45.023819257155196" lon="8.25520839137397"><ele>214.0</ele><time>2026-04-18T08:33:43Z</time></trkpt><trkpt lat="45.02389763813371" lon="8.255098738146083"><ele>214.0</ele><time>2026-04-18T08:33:44Z</time></trkpt><trkpt lat="45.02397427192821" lon="8.254986503542282"><ele>214.0</ele><time>2026-04-18T08:33:45Z</time></trkpt><trkpt lat="45.02406306698133" lon="8.254866915305485"><ele>214.0</ele><time>2026-04-18T08:33:46Z</time></trkpt><trkpt lat="45.024143616015856" lon="8.254740844088383"><ele>214.0</ele><time>2026-04-18T08:33:47Z</time></trkpt><trkpt lat="45.02421736730015" lon="8.254631647888184"><ele>215.2</ele><time>2026-04-18T08:33:48Z</time></trkpt><trkpt lat="45.02429663007438" lon="8.254526151690325"><ele>216.39999999999998</ele><time>2026-04-18T08:33:49Z</time></trkpt><trkpt lat="45.02437233402157" lon="8.254416466933625"><ele>217.6</ele><time>2026-04-18T08:33:50Z</time></trkpt><trkpt lat="45.0244609405894" lon="8.25432370311135"><ele>218.8</ele><time>2026-04-18T08:33:51Z</time></trkpt><trkpt lat="45.024538724728394" lon="8.254214388472183"><ele>220.0</ele><time>2026-04-18T08:33:52Z</time></trkpt><trkpt lat="45.02461107489824" lon="8.25409072646887"><ele>220.0</ele><time>2026-04-18T08:33:53Z</time></trkpt><trkpt lat="45.02469242968278" lon="8.253976513511413"><ele>220.0</ele><time>2026-04-18T08:33:54Z</time></trkpt><trkpt lat="45.02478907799237" lon="8.253880331244247"><ele>220.0</ele><time>2026-04-18T08:33:55Z</time></trkpt><trkpt lat="45.024876794372" lon="8.253770381476814"><ele>220.0</ele><time>2026-04-18T08:33:56Z</time></trkpt><trkpt lat="45.02495835183339" lon="8.253655341723153"><ele>219.25</ele><time>2026-04-18T08:33:57Z</time></trkpt><trkpt lat="45.02505546426015" lon="8.253570129999618"><ele>218.5</ele><time>2026-04-18T08:33:58Z</time></trkpt><trkpt lat="45.02513292978926" lon="8.253449323639911"><ele>217.75</ele><time>2026-04-18T08:33:59Z</time></trkpt><trkpt lat="45.02525168235105" lon="8.253402682893377"><ele>217.0</ele><time>2026-04-18T08:34:00Z</time></trkpt><trkpt lat="45.02535254761516" lon="8.253319559448846"><ele>217.0</ele><time>2026-04-18T08:34:01Z</time></trkpt><trkpt lat="45.02545284254253" lon="8.253228892179411"><ele>217.0</ele><time>2026-04-18T08:34:02Z</time></trkpt><trkpt lat="45.025549373943846" lon="8.253139652606777"><ele>217.0</ele><time>2026-04-18T08:34:03Z</time></trkpt><trkpt lat="45.02564540040458" lon="8.253056710565303"><ele>217.0</ele><time>2026-04-18T08:34:04Z</time></trkpt><trkpt lat="45.02574843603386" lon="8.252991342789047"><ele>216.39999999999998</ele><time>2026-04-18T08:34:05Z</time></trkpt><trkpt lat="45.025857443469455" lon="8.252936665546375"><ele>215.79999999999998</ele><time>2026-04-18T08:34:06Z</time></trkpt><trkpt lat="45.0259630936962" lon="8.25288622977186"><ele>215.2</ele><time>2026-04-18T08:34:07Z</time></trkpt><trkpt lat="45.026058309822325" lon="8.252814048188556"><ele>214.6</ele><time>2026-04-18T08:34:08Z</time></trkpt><trkpt lat="45.02614511454976" lon="8.252723168866535"><ele>214.0</ele><time>2026-04-18T08:34:09Z</time></trkpt><trkpt lat="45.02621770616877" lon="8.252634323988909"><ele>214.0</ele><time>2026-04-18T08:34:10Z</time></trkpt><trkpt lat="45.02629406137011" lon="8.252546134955374"><ele>213.99999999999997</ele><time>2026-04-18T08:34:11Z</time></trkpt><trkpt lat="45.02637828922083" lon="8.252481415965896"><ele>213.99999999999997</ele><time>2026-04-18T08:34:12Z</time></trkpt><trkpt lat="45.026477609847404" lon="8.252415318429488"><ele>214.0</ele><time>2026-04-18T08:34:13Z</time></trkpt><trkpt lat="45.02658105664547" lon="8.252365391197614"><ele>214.0</ele><time>2026-04-18T08:34:14Z</time></trkpt><trkpt lat="45.026686194587484" lon="8.252323876458739"><ele>215.2</ele><time>2026-04-18T08:34:15Z</time></trkpt><trkpt lat="45.02678852832594" lon="8.252274477940501"><ele>216.39999999999998</ele><time>2026-04-18T08:34:16Z</time></trkpt><trkpt lat="45.02687568111287" lon="8.252241385197115"><ele>217.6</ele><time>2026-04-18T08:34:17Z</time></trkpt><trkpt lat="45.0269693269532" lon="8.252223073705393"><ele>218.8</ele><time>2026-04-18T08:34:18Z</time></trkpt><trkpt lat="45.027058729361265" lon="8.2522241741163"><ele>220.0</ele><time>2026-04-18T08:34:19Z</time></trkpt><trkpt lat="45.0271467075446" lon="8.252242602012492"><ele>220.0</ele><time>2026-04-18T08:34:20Z</time></trkpt><trkpt lat="45.027240117696756" lon="8.252277953075698"><ele>220.0</ele><time>2026-04-18T08:34:21Z</time></trkpt><trkpt lat="45.02733614987178" lon="8.25231259675377"><ele>220.0</ele><time>2026-04-18T08:34:22Z</time></trkpt><trkpt lat="45.0274347878763" lon="8.25233787106265"><ele>220.0</ele><time>2026-04-18T08:34:23Z</time></trkpt><trkpt lat="45.02753198119488" lon="8.252362813727803"><ele>220.0</ele><time>2026-04-18T08:34:24Z</time></trkpt><trkpt lat="45.02762274757707" lon="8.252383412421496"><ele>222.2</ele><time>2026-04-18T08:34:25Z</time></trkpt><trkpt lat="45.027714713524006" lon="8.252413152583264"><ele>224.4</ele><time>2026-04-18T08:34:26Z</time></trkpt><trkpt lat="45.027809479394456" lon="8.252441202381124"><ele>226.60000000000002</ele><time>2026-04-18T08:34:27Z</time></trkpt><trkpt lat="45.027903517791366" lon="8.25246097916196"><ele>228.8</ele><time>2026-04-18T08:34:28Z</time></trkpt><trkpt lat="45.02799772703235" lon="8.252483096998983"><ele>231.0</ele><time>2026-04-18T08:34:29Z</time></trkpt><trkpt lat="45.028081964895904" lon="8.252507396599672"><ele>231.0</ele><time>2026-04-18T08:34:30Z</time></trkpt><trkpt lat="45.028169203878306" lon="8.252534729773352"><ele>231.0</ele><time>2026-04-18T08:34:31Z</time></trkpt><trkpt lat="45.02825022632992" lon="8.25256116238223"><ele>231.0</ele><time>2026-04-18T08:34:32Z</time></trkpt><trkpt lat="45.02833192012913" lon="8.252590382300037"><ele>231.0</ele><time>2026-04-18T08:34:33Z</time></trkpt><trkpt lat="45.028412938401445" lon="8.25262750838497"><ele>231.0</ele><time>2026-04-18T08:34:34Z</time></trkpt><trkpt lat="45.02848158386184" lon="8.25264731003127"><ele>231.0</ele><time>2026-04-18T08:34:35Z</time></trkpt><trkpt lat="45.02854731546607" lon="8.252647373439096"><ele>230.8</ele><time>2026-04-18T08:34:36Z</time></trkpt><trkpt lat="45.02861363432434" lon="8.25262940404057"><ele>230.60000000000002</ele><time>2026-04-18T08:34:37Z</time></trkpt><trkpt lat="45.02870248085946" lon="8.252606287724715"><ele>230.4</ele><time>2026-04-18T08:34:38Z</time></trkpt><trkpt lat="45.02878861433216" lon="8.252569567385299"><ele>230.2</ele><time>2026-04-18T08:34:39Z</time></trkpt><trkpt lat="45.02887064481967" lon="8.25252325245954"><ele>230.0</ele><time>2026-04-18T08:34:40Z</time></trkpt><trkpt lat="45.02898958275577" lon="8.252430305251664"><ele>230.00000000000003</ele><time>2026-04-18T08:34:42Z</time></trkpt><trkpt lat="45.02906770324275" lon="8.252350355279209"><ele>230.0</ele><time>2026-04-18T08:34:43Z</time></trkpt><trkpt lat="45.029139164938535" lon="8.252276145446688"><ele>230.0</ele><time>2026-04-18T08:34:44Z</time></trkpt><trkpt lat="45.02919263796764" lon="8.252213023487657"><ele>230.0</ele><time>2026-04-18T08:34:45Z</time></trkpt><trkpt lat="45.02925393545731" lon="8.252139505226959"><ele>230.00000000000003</ele><time>2026-04-18T08:34:46Z</time></trkpt><trkpt lat="45.02933638161525" lon="8.25204006803487"><ele>230.0</ele><time>2026-04-18T08:34:48Z</time></trkpt><trkpt lat="45.02942149492538" lon="8.252050385360178"><ele>230.4</ele><time>2026-04-18T08:34:49Z</time></trkpt><trkpt lat="45.02945465147043" lon="8.2519095463796"><ele>230.8</ele><time>2026-04-18T08:34:54Z</time></trkpt><trkpt lat="45.02941708762767" lon="8.251742453391525"><ele>231.2</ele><time>2026-04-18T08:34:56Z</time></trkpt><trkpt lat="45.02935910334334" lon="8.251595192857621"><ele>231.6</ele><time>2026-04-18T08:34:58Z</time></trkpt><trkpt lat="45.02932571899776" lon="8.251511530818727"><ele>232.0</ele><time>2026-04-18T08:34:59Z</time></trkpt><trkpt lat="45.029294871361145" lon="8.251431579601821"><ele>231.99999999999997</ele><time>2026-04-18T08:35:00Z</time></trkpt><trkpt lat="45.029278725270395" lon="8.251324583876011"><ele>232.0</ele><time>2026-04-18T08:35:01Z</time></trkpt><trkpt lat="45.02927705656414" lon="8.251207849161428"><ele>232.0</ele><time>2026-04-18T08:35:02Z</time></trkpt><trkpt lat="45.029282767393546" lon="8.25109836512333"><ele>232.0</ele><time>2026-04-18T08:35:03Z</time></trkpt><trkpt lat="45.0292930283487" lon="8.25099196567131"><ele>231.99999999999997</ele><time>2026-04-18T08:35:04Z</time></trkpt><trkpt lat="45.029307882667986" lon="8.250890177173677"><ele>232.0</ele><time>2026-04-18T08:35:05Z</time></trkpt><trkpt lat="45.02932840360274" lon="8.250793706078245"><ele>232.0</ele><time>2026-04-18T08:35:06Z</time></trkpt><trkpt lat="45.029364224727765" lon="8.250708284683528"><ele>232.0</ele><time>2026-04-18T08:35:07Z</time></trkpt><trkpt lat="45.02942611349163" lon="8.250580005302883"><ele>232.0</ele><time>2026-04-18T08:35:09Z</time></trkpt><trkpt lat="45.02952290807771" lon="8.25043457159337"><ele>232.0</ele><time>2026-04-18T08:35:33Z</time></trkpt><trkpt lat="45.02939164571241" lon="8.25020552530377"><ele>231.83333333333331</ele><time>2026-04-18T08:35:34Z</time></trkpt><trkpt lat="45.029367870167825" lon="8.250114164003017"><ele>231.66666666666666</ele><time>2026-04-18T08:35:35Z</time></trkpt><trkpt lat="45.02935025769548" lon="8.250004907767824"><ele>231.5</ele><time>2026-04-18T08:35:36Z</time></trkpt><trkpt lat="45.02934653080672" lon="8.249891713207345"><ele>231.33333333333331</ele><time>2026-04-18T08:35:37Z</time></trkpt><trkpt lat="45.02934907882951" lon="8.249760311406014"><ele>231.16666666666666</ele><time>2026-04-18T08:35:38Z</time></trkpt><trkpt lat="45.02936043793841" lon="8.2496205217262"><ele>231.0</ele><time>2026-04-18T08:35:39Z</time></trkpt><trkpt lat="45.029388478938" lon="8.249477355635886"><ele>230.0</ele><time>2026-04-18T08:35:40Z</time></trkpt><trkpt lat="45.02942641029096" lon="8.24934090023188"><ele>229.00000000000003</ele><time>2026-04-18T08:35:41Z</time></trkpt><trkpt lat="45.02946265625753" lon="8.249209569971573"><ele>228.00000000000003</ele><time>2026-04-18T08:35:42Z</time></trkpt><trkpt lat="45.02948831729383" lon="8.249081647703681"><ele>227.0</ele><time>2026-04-18T08:35:43Z</time></trkpt><trkpt lat="45.02951636611308" lon="8.248947225650863"><ele>226.0</ele><time>2026-04-18T08:35:44Z</time></trkpt><trkpt lat="45.02954909591894" lon="8.24881954950087"><ele>225.20000000000002</ele><time>2026-04-18T08:35:45Z</time></trkpt><trkpt lat="45.029574020795316" lon="8.248680160412809"><ele>224.40000000000003</ele><time>2026-04-18T08:35:46Z</time></trkpt><trkpt lat="45.02960331852345" lon="8.2485524820096"><ele>223.6</ele><time>2026-04-18T08:35:47Z</time></trkpt><trkpt lat="45.02963161408425" lon="8.24842294924387"><ele>222.8</ele><time>2026-04-18T08:35:48Z</time></trkpt><trkpt lat="45.02966373042264" lon="8.248291962428484"><ele>222.0</ele><time>2026-04-18T08:35:49Z</time></trkpt><trkpt lat="45.02969117830942" lon="8.248162276094313"><ele>222.0</ele><time>2026-04-18T08:35:50Z</time></trkpt><trkpt lat="45.02972106392539" lon="8.248043667461719"><ele>222.0</ele><time>2026-04-18T08:35:51Z</time></trkpt><trkpt lat="45.02975800018881" lon="8.247933166442117"><ele>222.0</ele><time>2026-04-18T08:35:52Z</time></trkpt><trkpt lat="45.02981162527049" lon="8.247834470148476"><ele>222.0</ele><time>2026-04-18T08:35:53Z</time></trkpt><trkpt lat="45.02989555508712" lon="8.247777236729302"><ele>222.0</ele><time>2026-04-18T08:35:54Z</time></trkpt><trkpt lat="45.029979262807615" lon="8.247720375409763"><ele>222.0</ele><time>2026-04-18T08:35:55Z</time></trkpt><trkpt lat="45.0300631483403" lon="8.24764963917044"><ele>222.0</ele><time>2026-04-18T08:35:56Z</time></trkpt><trkpt lat="45.03015473142898" lon="8.247598372178494"><ele>222.0</ele><time>2026-04-18T08:35:57Z</time></trkpt><trkpt lat="45.03024538432075" lon="8.247541813063242"><ele>222.0</ele><time>2026-04-18T08:35:58Z</time></trkpt><trkpt lat="45.03033238564534" lon="8.247485292632224"><ele>222.0</ele><time>2026-04-18T08:35:59Z</time></trkpt><trkpt lat="45.03041117363321" lon="8.247416667122273"><ele>222.0</ele><time>2026-04-18T08:36:00Z</time></trkpt><trkpt lat="45.03048015237006" lon="8.24733784673958"><ele>220.83333333333334</ele><time>2026-04-18T08:36:01Z</time></trkpt><trkpt lat="45.03053925298245" lon="8.247252179964415"><ele>219.66666666666669</ele><time>2026-04-18T08:36:02Z</time></trkpt><trkpt lat="45.03059093881317" lon="8.24715965226639"><ele>218.5</ele><time>2026-04-18T08:36:03Z</time></trkpt><trkpt lat="45.030655054796874" lon="8.247077930170764"><ele>217.33333333333334</ele><time>2026-04-18T08:36:04Z</time></trkpt><trkpt lat="45.03069336915315" lon="8.246972362321955"><ele>216.16666666666669</ele><time>2026-04-18T08:36:05Z</time></trkpt><trkpt lat="45.03073533653363" lon="8.246881541022471"><ele>215.0</ele><time>2026-04-18T08:36:06Z</time></trkpt><trkpt lat="45.03077150998105" lon="8.246776837209337"><ele>215.0</ele><time>2026-04-18T08:36:07Z</time></trkpt><trkpt lat="45.03079498484845" lon="8.246681030463094"><ele>215.0</ele><time>2026-04-18T08:36:08Z</time></trkpt><trkpt lat="45.03080942026252" lon="8.246590815243163"><ele>215.0</ele><time>2026-04-18T08:36:09Z</time></trkpt><trkpt lat="45.03082663583679" lon="8.24648696056154"><ele>215.0</ele><time>2026-04-18T08:36:11Z</time></trkpt><trkpt lat="45.030795429616006" lon="8.24659081527568"><ele>215.0</ele><time>2026-04-18T08:36:20Z</time></trkpt><trkpt lat="45.03079332903835" lon="8.246694228593809"><ele>215.0</ele><time>2026-04-18T08:36:21Z</time></trkpt><trkpt lat="45.030772423222835" lon="8.24680194859142"><ele>215.0</ele><time>2026-04-18T08:36:22Z</time></trkpt><trkpt lat="45.03073613043382" lon="8.246914809363288"><ele>215.0</ele><time>2026-04-18T08:36:23.001Z</time></trkpt><trkpt lat="45.03061343151774" lon="8.247080420894099"><ele>215.0</ele><time>2026-04-18T08:36:24.001Z</time></trkpt><trkpt lat="45.030539286021266" lon="8.247171845019173"><ele>215.0</ele><time>2026-04-18T08:36:25.001Z</time></trkpt><trkpt lat="45.03048541293159" lon="8.247307896148094"><ele>215.0</ele><time>2026-04-18T08:36:26.001Z</time></trkpt><trkpt lat="45.03039927462586" lon="8.247426997425105"><ele>216.75</ele><time>2026-04-18T08:36:27.001Z</time></trkpt><trkpt lat="45.0302885365717" lon="8.247525990019534"><ele>218.5</ele><time>2026-04-18T08:36:28.001Z</time></trkpt><trkpt lat="45.03014865111454" lon="8.24756726549173"><ele>220.25</ele><time>2026-04-18T08:36:29.001Z</time></trkpt><trkpt lat="45.03003486227279" lon="8.247641942501648"><ele>222.0</ele><time>2026-04-18T08:36:30.001Z</time></trkpt><trkpt lat="45.02995912546419" lon="8.247685422474659"><ele>222.0</ele><time>2026-04-18T08:36:31.001Z</time></trkpt><trkpt lat="45.02987456855425" lon="8.247756612565741"><ele>222.0</ele><time>2026-04-18T08:36:32.001Z</time></trkpt><trkpt lat="45.02979918845316" lon="8.247819112514572"><ele>222.0</ele><time>2026-04-18T08:36:33.001Z</time></trkpt><trkpt lat="45.029741796472145" lon="8.247892603634675"><ele>222.0</ele><time>2026-04-18T08:36:34Z</time></trkpt><trkpt lat="45.029703073054485" lon="8.247988090120208"><ele>222.0</ele><time>2026-04-18T08:36:35Z</time></trkpt><trkpt lat="45.02967376853158" lon="8.248077146654575"><ele>222.0</ele><time>2026-04-18T08:36:36Z</time></trkpt><trkpt lat="45.029650782992086" lon="8.248175017380541"><ele>222.0</ele><time>2026-04-18T08:36:37Z</time></trkpt><trkpt lat="45.029627264407225" lon="8.248291405570857"><ele>222.0</ele><time>2026-04-18T08:36:38Z</time></trkpt><trkpt lat="45.02960486751231" lon="8.248426758200718"><ele>222.0</ele><time>2026-04-18T08:36:39Z</time></trkpt><trkpt lat="45.02957395003208" lon="8.248570231932176"><ele>222.0</ele><time>2026-04-18T08:36:40Z</time></trkpt><trkpt lat="45.02954608010942" lon="8.248712056985063"><ele>222.0</ele><time>2026-04-18T08:36:41Z</time></trkpt><trkpt lat="45.02951535149207" lon="8.2488761857044"><ele>223.0</ele><time>2026-04-18T08:36:42Z</time></trkpt><trkpt lat="45.02947489384165" lon="8.24904796322058"><ele>224.0</ele><time>2026-04-18T08:36:42.999Z</time></trkpt><trkpt lat="45.02943358005133" lon="8.24922222036562"><ele>225.0</ele><time>2026-04-18T08:36:43.999Z</time></trkpt><trkpt lat="45.02939434987702" lon="8.249395628185487"><ele>226.0</ele><time>2026-04-18T08:36:44.999Z</time></trkpt><trkpt lat="45.02936179472327" lon="8.249551867602776"><ele>226.0</ele><time>2026-04-18T08:36:45.999Z</time></trkpt><trkpt lat="45.02932057715516" lon="8.249706338123854"><ele>226.00000000000003</ele><time>2026-04-18T08:36:46.999Z</time></trkpt><trkpt lat="45.02930200439408" lon="8.24983986908807"><ele>226.00000000000003</ele><time>2026-04-18T08:36:47.999Z</time></trkpt><trkpt lat="45.02929633772831" lon="8.249965688781128"><ele>226.0</ele><time>2026-04-18T08:36:48.999Z</time></trkpt><trkpt lat="45.02930517844998" lon="8.250076261446262"><ele>226.0</ele><time>2026-04-18T08:36:49.999Z</time></trkpt><trkpt lat="45.02931928137836" lon="8.250172401493442"><ele>227.0</ele><time>2026-04-18T08:36:50.999Z</time></trkpt><trkpt lat="45.029337069471076" lon="8.250268017770734"><ele>228.00000000000003</ele><time>2026-04-18T08:36:51.999Z</time></trkpt><trkpt lat="45.029358101980115" lon="8.250364473627675"><ele>229.00000000000003</ele><time>2026-04-18T08:36:52.999Z</time></trkpt><trkpt lat="45.02940233748088" lon="8.25045071510056"><ele>230.0</ele><time>2026-04-18T08:36:54.999Z</time></trkpt><trkpt lat="45.02961265466823" lon="8.250364102671496"><ele>231.0</ele><time>2026-04-18T08:36:58.999Z</time></trkpt><trkpt lat="45.02967508072754" lon="8.250316826545902"><ele>231.0</ele><time>2026-04-18T08:36:59.999Z</time></trkpt><trkpt lat="45.02974890055008" lon="8.250305514515926"><ele>231.0</ele><time>2026-04-18T08:37:00.999Z</time></trkpt><trkpt lat="45.0298159575786" lon="8.250292203992577"><ele>231.0</ele><time>2026-04-18T08:37:01.999Z</time></trkpt><trkpt lat="45.029889768690225" lon="8.250288375766146"><ele>231.0</ele><time>2026-04-18T08:37:02.999Z</time></trkpt><trkpt lat="45.02996008616023" lon="8.250274898541523"><ele>231.0</ele><time>2026-04-18T08:37:03.999Z</time></trkpt><trkpt lat="45.03003731921188" lon="8.250278267744443"><ele>231.0</ele><time>2026-04-18T08:37:04.999Z</time></trkpt><trkpt lat="45.03011208365723" lon="8.250281398514304"><ele>231.0</ele><time>2026-04-18T08:37:05.999Z</time></trkpt><trkpt lat="45.030184450448125" lon="8.250285913556146"><ele>232.66666666666666</ele><time>2026-04-18T08:37:06.999Z</time></trkpt><trkpt lat="45.03026219619634" lon="8.250286262546336"><ele>234.33333333333331</ele><time>2026-04-18T08:37:07.999Z</time></trkpt><trkpt lat="45.030341353891124" lon="8.250309877419575"><ele>236.0</ele><time>2026-04-18T08:37:08.999Z</time></trkpt><trkpt lat="45.030429909972874" lon="8.250313500387303"><ele>237.66666666666666</ele><time>2026-04-18T08:37:09.999Z</time></trkpt><trkpt lat="45.03051881050788" lon="8.250316641917182"><ele>239.33333333333331</ele><time>2026-04-18T08:37:10.999Z</time></trkpt><trkpt lat="45.03060668358913" lon="8.25031974713514"><ele>241.0</ele><time>2026-04-18T08:37:11.999Z</time></trkpt><trkpt lat="45.03070376476084" lon="8.250328039130338"><ele>241.0</ele><time>2026-04-18T08:37:12.999Z</time></trkpt><trkpt lat="45.0307980482492" lon="8.250339623601562"><ele>241.00000000000003</ele><time>2026-04-18T08:37:13.999Z</time></trkpt><trkpt lat="45.030886832267605" lon="8.250356449106095"><ele>241.00000000000003</ele><time>2026-04-18T08:37:14.999Z</time></trkpt><trkpt lat="45.030980146821385" lon="8.250359664165156"><ele>241.0</ele><time>2026-04-18T08:37:15.999Z</time></trkpt><trkpt lat="45.031069905353746" lon="8.250393866256442"><ele>241.0</ele><time>2026-04-18T08:37:16.999Z</time></trkpt><trkpt lat="45.03115331986791" lon="8.250426514544277"><ele>241.0</ele><time>2026-04-18T08:37:17.999Z</time></trkpt><trkpt lat="45.03121632948457" lon="8.250457140792266"><ele>241.00000000000003</ele><time>2026-04-18T08:37:18.999Z</time></trkpt><trkpt lat="45.031307881782055" lon="8.250505653689276"><ele>241.00000000000003</ele><time>2026-04-18T08:37:20.999Z</time></trkpt><trkpt lat="45.031395914790195" lon="8.250554084879392"><ele>241.0</ele><time>2026-04-18T08:37:22.999Z</time></trkpt><trkpt lat="45.03150856483835" lon="8.250623154189848"><ele>241.0</ele><time>2026-04-18T08:37:24.999Z</time></trkpt><trkpt lat="45.03157950005907" lon="8.250672325611788"><ele>241.49999999999997</ele><time>2026-04-18T08:37:25.999Z</time></trkpt><trkpt lat="45.031654127845044" lon="8.250727189674855"><ele>242.0</ele><time>2026-04-18T08:37:26.999Z</time></trkpt><trkpt lat="45.03173079249516" lon="8.250787820862787"><ele>242.5</ele><time>2026-04-18T08:37:27.999Z</time></trkpt><trkpt lat="45.031792199568585" lon="8.250842890839225"><ele>243.0</ele><time>2026-04-18T08:37:28.999Z</time></trkpt><trkpt lat="45.03185683244637" lon="8.250897852902087"><ele>243.49999999999997</ele><time>2026-04-18T08:37:29.999Z</time></trkpt><trkpt lat="45.03191758655499" lon="8.250966543907884"><ele>244.0</ele><time>2026-04-18T08:37:30.999Z</time></trkpt><trkpt lat="45.03198015515556" lon="8.251045931062892"><ele>244.0</ele><time>2026-04-18T08:37:31.999Z</time></trkpt><trkpt lat="45.03203021990078" lon="8.251149342708894"><ele>243.99999999999997</ele><time>2026-04-18T08:37:32.999Z</time></trkpt><trkpt lat="45.032095371447056" lon="8.251243498466904"><ele>243.99999999999997</ele><time>2026-04-18T08:37:33.999Z</time></trkpt><trkpt lat="45.03216270620417" lon="8.251336273083163"><ele>244.0</ele><time>2026-04-18T08:37:34.999Z</time></trkpt><trkpt lat="45.03223308049181" lon="8.251431023045665"><ele>244.0</ele><time>2026-04-18T08:37:35.999Z</time></trkpt><trkpt lat="45.03230332966256" lon="8.251525605989642"><ele>243.6</ele><time>2026-04-18T08:37:36.999Z</time></trkpt><trkpt lat="45.032377595755754" lon="8.25162506682835"><ele>243.2</ele><time>2026-04-18T08:37:37.999Z</time></trkpt><trkpt lat="45.0324513759983" lon="8.251723762378665"><ele>242.79999999999998</ele><time>2026-04-18T08:37:38.999Z</time></trkpt><trkpt lat="45.03252443415544" lon="8.25182149200676"><ele>242.39999999999998</ele><time>2026-04-18T08:37:39.999Z</time></trkpt><trkpt lat="45.032596399093585" lon="8.251917759239257"><ele>242.0</ele><time>2026-04-18T08:37:40.999Z</time></trkpt><trkpt lat="45.032669228730256" lon="8.252015183171437"><ele>242.8</ele><time>2026-04-18T08:37:41.999Z</time></trkpt><trkpt lat="45.03273991477955" lon="8.252109865180602"><ele>243.6</ele><time>2026-04-18T08:37:42.999Z</time></trkpt><trkpt lat="45.032809524401166" lon="8.25220319343906"><ele>244.40000000000003</ele><time>2026-04-18T08:37:43.999Z</time></trkpt><trkpt lat="45.03287835459027" lon="8.252295476666452"><ele>245.20000000000002</ele><time>2026-04-18T08:37:44.999Z</time></trkpt><trkpt lat="45.03294421255878" lon="8.252383774932463"><ele>246.0</ele><time>2026-04-18T08:37:45.999Z</time></trkpt><trkpt lat="45.0330090429456" lon="8.252472536132158"><ele>246.5</ele><time>2026-04-18T08:37:46.999Z</time></trkpt><trkpt lat="45.03307366235952" lon="8.252561211108382"><ele>247.0</ele><time>2026-04-18T08:37:47.999Z</time></trkpt><trkpt lat="45.033136717693736" lon="8.25264773975556"><ele>247.5</ele><time>2026-04-18T08:37:48.999Z</time></trkpt><trkpt lat="45.033200032793815" lon="8.252734624864935"><ele>248.0</ele><time>2026-04-18T08:37:49.999Z</time></trkpt><trkpt lat="45.03325964208148" lon="8.252817539368982"><ele>248.5</ele><time>2026-04-18T08:37:50.999Z</time></trkpt><trkpt lat="45.03331695501942" lon="8.252898669618563"><ele>249.0</ele><time>2026-04-18T08:37:51.999Z</time></trkpt><trkpt lat="45.033363431733996" lon="8.252973440031635"><ele>250.16666666666666</ele><time>2026-04-18T08:37:52.999Z</time></trkpt><trkpt lat="45.03341758830851" lon="8.253059082622752"><ele>251.33333333333331</ele><time>2026-04-18T08:37:53.999Z</time></trkpt><trkpt lat="45.03346872661706" lon="8.253132273396156"><ele>252.5</ele><time>2026-04-18T08:37:54.999Z</time></trkpt><trkpt lat="45.033521799023184" lon="8.253209041084352"><ele>253.66666666666666</ele><time>2026-04-18T08:37:55.999Z</time></trkpt><trkpt lat="45.033575864424655" lon="8.25328870463323"><ele>254.83333333333331</ele><time>2026-04-18T08:37:56.999Z</time></trkpt><trkpt lat="45.03363302477498" lon="8.253374890173596"><ele>256.0</ele><time>2026-04-18T08:37:57.999Z</time></trkpt><trkpt lat="45.033688436001505" lon="8.253459723550154"><ele>256.66666666666663</ele><time>2026-04-18T08:37:58.999Z</time></trkpt><trkpt lat="45.033743489933926" lon="8.253549462741756"><ele>257.3333333333333</ele><time>2026-04-18T08:37:59.999Z</time></trkpt><trkpt lat="45.03379814559884" lon="8.253642730263717"><ele>258.0</ele><time>2026-04-18T08:38:00.999Z</time></trkpt><trkpt lat="45.033855405562136" lon="8.253736564722978"><ele>258.6666666666667</ele><time>2026-04-18T08:38:01.999Z</time></trkpt><trkpt lat="45.0339142963509" lon="8.253824103561412"><ele>259.33333333333337</ele><time>2026-04-18T08:38:02.999Z</time></trkpt><trkpt lat="45.033971237944286" lon="8.25390084164464"><ele>260.0</ele><time>2026-04-18T08:38:03.999Z</time></trkpt><trkpt lat="45.034079128231205" lon="8.25399817304109"><ele>261.1666666666667</ele><time>2026-04-18T08:38:05.999Z</time></trkpt><trkpt lat="45.0341387639392" lon="8.25404242886302"><ele>262.33333333333337</ele><time>2026-04-18T08:38:06.999Z</time></trkpt><trkpt lat="45.03421046849085" lon="8.25406888893194"><ele>263.5</ele><time>2026-04-18T08:38:07.999Z</time></trkpt><trkpt lat="45.03428762091834" lon="8.254099842496393"><ele>264.6666666666667</ele><time>2026-04-18T08:38:08.999Z</time></trkpt><trkpt lat="45.03437115984966" lon="8.25412700056796"><ele>265.8333333333333</ele><time>2026-04-18T08:38:09.999Z</time></trkpt><trkpt lat="45.0344559769516" lon="8.254154574191682"><ele>267.0</ele><time>2026-04-18T08:38:10.999Z</time></trkpt><trkpt lat="45.034547133475535" lon="8.254182499263885"><ele>267.0</ele><time>2026-04-18T08:38:11.999Z</time></trkpt><trkpt lat="45.03464196193313" lon="8.25420858724997"><ele>267.0</ele><time>2026-04-18T08:38:12.999Z</time></trkpt><trkpt lat="45.03473933682795" lon="8.25420986895702"><ele>267.0</ele><time>2026-04-18T08:38:13.999Z</time></trkpt><trkpt lat="45.034833746224166" lon="8.254256362805402"><ele>267.0</ele><time>2026-04-18T08:38:14.999Z</time></trkpt><trkpt lat="45.034930893437235" lon="8.25427557675823"><ele>267.0</ele><time>2026-04-18T08:38:15.999Z</time></trkpt><trkpt lat="45.03503038759342" lon="8.254289332927048"><ele>266.6</ele><time>2026-04-18T08:38:16.999Z</time></trkpt><trkpt lat="45.035133720613466" lon="8.254296866525818"><ele>266.2</ele><time>2026-04-18T08:38:17.999Z</time></trkpt><trkpt lat="45.03523214548852" lon="8.254300969673519"><ele>265.8</ele><time>2026-04-18T08:38:18.999Z</time></trkpt><trkpt lat="45.03532867866771" lon="8.254307440656985"><ele>265.4</ele><time>2026-04-18T08:38:19.999Z</time></trkpt><trkpt lat="45.035413574886086" lon="8.25432138794834"><ele>265.0</ele><time>2026-04-18T08:38:20.999Z</time></trkpt><trkpt lat="45.035506910882006" lon="8.254324602275453"><ele>265.0</ele><time>2026-04-18T08:38:21.999Z</time></trkpt><trkpt lat="45.03560237898692" lon="8.254376290999966"><ele>265.0</ele><time>2026-04-18T08:38:22.999Z</time></trkpt><trkpt lat="45.0356832667601" lon="8.254404229542548"><ele>265.0</ele><time>2026-04-18T08:38:23.999Z</time></trkpt><trkpt lat="45.03575857430052" lon="8.25443237795947"><ele>265.0</ele><time>2026-04-18T08:38:24.999Z</time></trkpt><trkpt lat="45.03583035502419" lon="8.254459495124557"><ele>265.0</ele><time>2026-04-18T08:38:25.999Z</time></trkpt><trkpt lat="45.03589601211362" lon="8.254484298914402"><ele>265.0</ele><time>2026-04-18T08:38:26.999Z</time></trkpt><trkpt lat="45.03595898556043" lon="8.254508088879465"><ele>262.0</ele><time>2026-04-18T08:38:28Z</time></trkpt><trkpt lat="45.03606638976929" lon="8.254551762786585"><ele>262.0</ele><time>2026-04-18T08:38:30Z</time></trkpt><trkpt lat="45.03613975507642" lon="8.254586562109216"><ele>262.0</ele><time>2026-04-18T08:38:32Z</time></trkpt><trkpt lat="45.0361869643864" lon="8.254647672680742"><ele>262.0</ele><time>2026-04-18T08:38:35Z</time></trkpt><trkpt lat="45.0361869643864" lon="8.254647672680742"><ele>262.0</ele><time>2026-04-18T08:38:35Z</time></trkpt></trkseg><trkseg><trkpt lat="45.03628112276572" lon="8.254544958514122"><ele>262.0</ele><time>2026-04-18T09:20:19.912Z</time></trkpt><trkpt lat="45.03622038959224" lon="8.254511175710228"><ele>262.0</ele><time>2026-04-18T09:20:24.912Z</time></trkpt><trkpt lat="45.036213809714674" lon="8.254612630700107"><ele>262.0</ele><time>2026-04-18T09:21:12Z</time></trkpt><trkpt lat="45.03617534905854" lon="8.254534398935727"><ele>262.0</ele><time>2026-04-18T09:21:15Z</time></trkpt><trkpt lat="45.03610657224334" lon="8.25452906113243"><ele>262.0</ele><time>2026-04-18T09:21:17Z</time></trkpt><trkpt lat="45.036014133367956" lon="8.25449471346799"><ele>262.0</ele><time>2026-04-18T09:21:20Z</time></trkpt><trkpt lat="45.035890714010286" lon="8.254459782176083"><ele>262.0</ele><time>2026-04-18T09:21:22Z</time></trkpt><trkpt lat="45.03581488240186" lon="8.25442589238734"><ele>262.0</ele><time>2026-04-18T09:21:23Z</time></trkpt><trkpt lat="45.03574625621002" lon="8.254403732226052"><ele>262.0</ele><time>2026-04-18T09:21:24Z</time></trkpt><trkpt lat="45.03567496421812" lon="8.254353023117726"><ele>262.0</ele><time>2026-04-18T09:21:25Z</time></trkpt><trkpt lat="45.03560078859118" lon="8.254327402947563"><ele>262.0</ele><time>2026-04-18T09:21:26Z</time></trkpt><trkpt lat="45.03552006956836" lon="8.254323276975535"><ele>262.0</ele><time>2026-04-18T09:21:27Z</time></trkpt><trkpt lat="45.03543661547306" lon="8.254302818582369"><ele>262.5</ele><time>2026-04-18T09:21:28Z</time></trkpt><trkpt lat="45.03535133331812" lon="8.254285764061645"><ele>263.0</ele><time>2026-04-18T09:21:29Z</time></trkpt><trkpt lat="45.035265699383714" lon="8.25427647774144"><ele>263.5</ele><time>2026-04-18T09:21:30Z</time></trkpt><trkpt lat="45.035178832097564" lon="8.254269314404636"><ele>264.0</ele><time>2026-04-18T09:21:31Z</time></trkpt><trkpt lat="45.03509127844348" lon="8.254265517121233"><ele>264.5</ele><time>2026-04-18T09:21:32Z</time></trkpt><trkpt lat="45.03500732833466" lon="8.254240257850144"><ele>265.0</ele><time>2026-04-18T09:21:33Z</time></trkpt><trkpt lat="45.03491887335861" lon="8.25422583422705"><ele>265.3333333333333</ele><time>2026-04-18T09:21:34Z</time></trkpt><trkpt lat="45.034825987317205" lon="8.254227492903162"><ele>265.66666666666663</ele><time>2026-04-18T09:21:35Z</time></trkpt><trkpt lat="45.03473641912554" lon="8.254199069156346"><ele>266.0</ele><time>2026-04-18T09:21:36Z</time></trkpt><trkpt lat="45.0346521122312" lon="8.254177697130382"><ele>266.3333333333333</ele><time>2026-04-18T09:21:37Z</time></trkpt><trkpt lat="45.0345744650835" lon="8.254157046740577"><ele>266.6666666666667</ele><time>2026-04-18T09:21:38Z</time></trkpt><trkpt lat="45.03449527188536" lon="8.254131706921985"><ele>267.0</ele><time>2026-04-18T09:21:39Z</time></trkpt><trkpt lat="45.03441854721449" lon="8.254109679246406"><ele>267.0</ele><time>2026-04-18T09:21:40Z</time></trkpt><trkpt lat="45.034348005718776" lon="8.254082616391745"><ele>267.0</ele><time>2026-04-18T09:21:41Z</time></trkpt><trkpt lat="45.03427385853374" lon="8.254052040469508"><ele>267.0</ele><time>2026-04-18T09:21:42Z</time></trkpt><trkpt lat="45.0342010680736" lon="8.254021909650039"><ele>267.0</ele><time>2026-04-18T09:21:43Z</time></trkpt><trkpt lat="45.03412404066773" lon="8.25399550501571"><ele>267.0</ele><time>2026-04-18T09:21:44Z</time></trkpt><trkpt lat="45.034050879813876" lon="8.25395066382409"><ele>267.0</ele><time>2026-04-18T09:21:45Z</time></trkpt><trkpt lat="45.034000993719296" lon="8.253884623049734"><ele>265.6</ele><time>2026-04-18T09:21:46Z</time></trkpt><trkpt lat="45.03393298348209" lon="8.25378582992225"><ele>264.2</ele><time>2026-04-18T09:21:47Z</time></trkpt><trkpt lat="45.03386965414517" lon="8.253688818372023"><ele>262.8</ele><time>2026-04-18T09:21:48Z</time></trkpt><trkpt lat="45.033810030990594" lon="8.253589367212712"><ele>261.4</ele><time>2026-04-18T09:21:49Z</time></trkpt><trkpt lat="45.033752766068964" lon="8.253491567286686"><ele>260.0</ele><time>2026-04-18T09:21:50Z</time></trkpt><trkpt lat="45.03368238036451" lon="8.253407233730972"><ele>260.0</ele><time>2026-04-18T09:21:51Z</time></trkpt><trkpt lat="45.03361857763731" lon="8.25330850433868"><ele>260.0</ele><time>2026-04-18T09:21:52Z</time></trkpt><trkpt lat="45.03354470214404" lon="8.253198066732802"><ele>260.0</ele><time>2026-04-18T09:21:53Z</time></trkpt><trkpt lat="45.03346952627749" lon="8.253087786475472"><ele>260.0</ele><time>2026-04-18T09:21:54Z</time></trkpt><trkpt lat="45.03339614657723" lon="8.252983667420763"><ele>260.0</ele><time>2026-04-18T09:21:55Z</time></trkpt><trkpt lat="45.033332363745664" lon="8.252853958072972"><ele>257.8</ele><time>2026-04-18T09:21:56Z</time></trkpt><trkpt lat="45.033248526265425" lon="8.252756683144655"><ele>255.6</ele><time>2026-04-18T09:21:57Z</time></trkpt><trkpt lat="45.03317371429559" lon="8.252644627287724"><ele>253.39999999999998</ele><time>2026-04-18T09:21:58Z</time></trkpt><trkpt lat="45.03310089075255" lon="8.252529701600938"><ele>251.2</ele><time>2026-04-18T09:21:59Z</time></trkpt><trkpt lat="45.03302000256739" lon="8.252433574465368"><ele>249.0</ele><time>2026-04-18T09:22:00Z</time></trkpt><trkpt lat="45.03294356001725" lon="8.252329165845067"><ele>248.39999999999998</ele><time>2026-04-18T09:22:01Z</time></trkpt><trkpt lat="45.03287019480825" lon="8.252236536652578"><ele>247.79999999999998</ele><time>2026-04-18T09:22:02Z</time></trkpt><trkpt lat="45.0328026218632" lon="8.252143632788764"><ele>247.20000000000002</ele><time>2026-04-18T09:22:03Z</time></trkpt><trkpt lat="45.03273238449988" lon="8.252053194870422"><ele>246.60000000000002</ele><time>2026-04-18T09:22:04Z</time></trkpt><trkpt lat="45.03266492785779" lon="8.251966490115757"><ele>246.0</ele><time>2026-04-18T09:22:05Z</time></trkpt><trkpt lat="45.032600317524484" lon="8.251870470857217"><ele>246.0</ele><time>2026-04-18T09:22:06Z</time></trkpt><trkpt lat="45.03253865651846" lon="8.25178191279165"><ele>246.0</ele><time>2026-04-18T09:22:07Z</time></trkpt><trkpt lat="45.03247130558668" lon="8.251688747378857"><ele>246.0</ele><time>2026-04-18T09:22:08Z</time></trkpt><trkpt lat="45.03240793278508" lon="8.251611849903531"><ele>246.0</ele><time>2026-04-18T09:22:09Z</time></trkpt><trkpt lat="45.03235078066917" lon="8.251536023194104"><ele>246.0</ele><time>2026-04-18T09:22:10Z</time></trkpt><trkpt lat="45.03229362077382" lon="8.251463493743445"><ele>246.0</ele><time>2026-04-18T09:22:11Z</time></trkpt><trkpt lat="45.0322402224187" lon="8.25138901664762"><ele>245.66666666666666</ele><time>2026-04-18T09:22:12Z</time></trkpt><trkpt lat="45.032187349696386" lon="8.25131880110706"><ele>245.33333333333331</ele><time>2026-04-18T09:22:13Z</time></trkpt><trkpt lat="45.032138657377736" lon="8.251255099930525"><ele>245.0</ele><time>2026-04-18T09:22:14Z</time></trkpt><trkpt lat="45.03209536477626" lon="8.251185438715742"><ele>244.66666666666666</ele><time>2026-04-18T09:22:15Z</time></trkpt><trkpt lat="45.03202065165656" lon="8.251081494651306"><ele>244.33333333333331</ele><time>2026-04-18T09:22:17Z</time></trkpt><trkpt lat="45.03194561683157" lon="8.25095071288047"><ele>244.0</ele><time>2026-04-18T09:23:49Z</time></trkpt><trkpt lat="45.031856005708256" lon="8.25084294313623"><ele>243.99999999999997</ele><time>2026-04-18T09:23:51Z</time></trkpt><trkpt lat="45.03179671049847" lon="8.250779789042362"><ele>244.0</ele><time>2026-04-18T09:23:52Z</time></trkpt><trkpt lat="45.03172300214324" lon="8.250732252350527"><ele>244.0</ele><time>2026-04-18T09:23:53Z</time></trkpt><trkpt lat="45.03163899224886" lon="8.250675656147333"><ele>244.0</ele><time>2026-04-18T09:23:54Z</time></trkpt><trkpt lat="45.03155006736584" lon="8.250617070101454"><ele>243.99999999999997</ele><time>2026-04-18T09:23:55Z</time></trkpt><trkpt lat="45.03146014445378" lon="8.250551975318036"><ele>244.0</ele><time>2026-04-18T09:23:56Z</time></trkpt><trkpt lat="45.03136428641086" lon="8.25049516009875"><ele>243.25</ele><time>2026-04-18T09:23:57Z</time></trkpt><trkpt lat="45.03125950378349" lon="8.250444820262372"><ele>242.5</ele><time>2026-04-18T09:23:58Z</time></trkpt><trkpt lat="45.03115172642919" lon="8.250398272966143"><ele>241.75</ele><time>2026-04-18T09:23:59Z</time></trkpt><trkpt lat="45.03104003327895" lon="8.250351840992952"><ele>241.0</ele><time>2026-04-18T09:24:00Z</time></trkpt><trkpt lat="45.030929641791666" lon="8.250318268888535"><ele>241.0</ele><time>2026-04-18T09:24:01Z</time></trkpt><trkpt lat="45.030816729579044" lon="8.250280757012899"><ele>241.00000000000003</ele><time>2026-04-18T09:24:02Z</time></trkpt><trkpt lat="45.030726781339425" lon="8.250272461363405"><ele>241.00000000000003</ele><time>2026-04-18T09:24:03Z</time></trkpt><trkpt lat="45.03063618024049" lon="8.250274820205702"><ele>241.0</ele><time>2026-04-18T09:24:04Z</time></trkpt><trkpt lat="45.03054720031394" lon="8.250272979666862"><ele>241.0</ele><time>2026-04-18T09:24:05Z</time></trkpt><trkpt lat="45.03045041677009" lon="8.250271304602116"><ele>241.0</ele><time>2026-04-18T09:24:06Z</time></trkpt><trkpt lat="45.03035316387336" lon="8.250267109061747"><ele>241.00000000000003</ele><time>2026-04-18T09:24:07Z</time></trkpt><trkpt lat="45.030257767127175" lon="8.250265899660949"><ele>241.00000000000003</ele><time>2026-04-18T09:24:08Z</time></trkpt><trkpt lat="45.030155914139314" lon="8.250267207745155"><ele>241.0</ele><time>2026-04-18T09:24:09Z</time></trkpt><trkpt lat="45.03006742742167" lon="8.250263910781959"><ele>241.0</ele><time>2026-04-18T09:24:10Z</time></trkpt><trkpt lat="45.0299833606269" lon="8.250256999008991"><ele>239.0</ele><time>2026-04-18T09:24:11Z</time></trkpt><trkpt lat="45.029907595856464" lon="8.250260102039237"><ele>237.00000000000003</ele><time>2026-04-18T09:24:12Z</time></trkpt><trkpt lat="45.029839503756214" lon="8.250253457962762"><ele>235.00000000000003</ele><time>2026-04-18T09:24:13Z</time></trkpt><trkpt lat="45.02976888401831" lon="8.25026470269433"><ele>233.0</ele><time>2026-04-18T09:24:14Z</time></trkpt><trkpt lat="45.02965106884418" lon="8.250312431579129"><ele>231.0</ele><time>2026-04-18T09:24:16Z</time></trkpt><trkpt lat="45.02954446664107" lon="8.250382461681854"><ele>231.0</ele><time>2026-04-18T09:24:18Z</time></trkpt><trkpt lat="45.02943742301581" lon="8.250428338882397"><ele>231.00000000000003</ele><time>2026-04-18T09:24:20Z</time></trkpt><trkpt lat="45.029403490541725" lon="8.25051751846786"><ele>231.00000000000003</ele><time>2026-04-18T09:24:22Z</time></trkpt><trkpt lat="45.029355188322846" lon="8.250615647173868"><ele>231.0</ele><time>2026-04-18T09:24:24Z</time></trkpt><trkpt lat="45.0292440608109" lon="8.250720950158618"><ele>231.0</ele><time>2026-04-18T09:24:26Z</time></trkpt><trkpt lat="45.029197794468836" lon="8.250788543754767"><ele>228.66666666666666</ele><time>2026-04-18T09:24:27Z</time></trkpt><trkpt lat="45.02913457587735" lon="8.25083090683453"><ele>226.33333333333331</ele><time>2026-04-18T09:24:28Z</time></trkpt><trkpt lat="45.02905474134817" lon="8.250864577743311"><ele>224.0</ele><time>2026-04-18T09:24:29Z</time></trkpt><trkpt lat="45.02897852768417" lon="8.250888976124676"><ele>221.66666666666666</ele><time>2026-04-18T09:24:30Z</time></trkpt><trkpt lat="45.02890324289458" lon="8.250923988003033"><ele>219.33333333333331</ele><time>2026-04-18T09:24:31Z</time></trkpt><trkpt lat="45.02882183427057" lon="8.25094735073125"><ele>217.0</ele><time>2026-04-18T09:24:32Z</time></trkpt><trkpt lat="45.02874234120078" lon="8.250980326371389"><ele>216.99999999999997</ele><time>2026-04-18T09:24:33Z</time></trkpt><trkpt lat="45.028672762928664" lon="8.251004635970386"><ele>217.0</ele><time>2026-04-18T09:24:34Z</time></trkpt><trkpt lat="45.028592745922076" lon="8.25102737988691"><ele>217.0</ele><time>2026-04-18T09:24:35Z</time></trkpt><trkpt lat="45.02850557081403" lon="8.251059517315463"><ele>217.0</ele><time>2026-04-18T09:24:36Z</time></trkpt><trkpt lat="45.028414080478775" lon="8.251034272252262"><ele>216.99999999999997</ele><time>2026-04-18T09:24:37Z</time></trkpt><trkpt lat="45.02832306885197" lon="8.251040290587646"><ele>217.0</ele><time>2026-04-18T09:24:37.999Z</time></trkpt><trkpt lat="45.02823352068197" lon="8.251024517621719"><ele>215.83333333333331</ele><time>2026-04-18T09:24:38.999Z</time></trkpt><trkpt lat="45.02814286342249" lon="8.2510082620617"><ele>214.66666666666666</ele><time>2026-04-18T09:24:39.999Z</time></trkpt><trkpt lat="45.028054655620195" lon="8.250990034148385"><ele>213.5</ele><time>2026-04-18T09:24:40.999Z</time></trkpt><trkpt lat="45.02796501583223" lon="8.25094519000696"><ele>212.33333333333331</ele><time>2026-04-18T09:24:41.999Z</time></trkpt><trkpt lat="45.02789392077634" lon="8.250897328338393"><ele>211.16666666666666</ele><time>2026-04-18T09:24:42.999Z</time></trkpt><trkpt lat="45.02781718537069" lon="8.250836472774202"><ele>210.0</ele><time>2026-04-18T09:24:43.999Z</time></trkpt><trkpt lat="45.027747649932444" lon="8.250762105985928"><ele>210.0</ele><time>2026-04-18T09:24:44.999Z</time></trkpt><trkpt lat="45.027679647983156" lon="8.250677263308845"><ele>210.0</ele><time>2026-04-18T09:24:45.999Z</time></trkpt><trkpt lat="45.027611414980214" lon="8.250593877591973"><ele>210.0</ele><time>2026-04-18T09:24:46.999Z</time></trkpt><trkpt lat="45.02754997369503" lon="8.250503058393722"><ele>210.0</ele><time>2026-04-18T09:24:47.999Z</time></trkpt><trkpt lat="45.02747863348741" lon="8.25041639857943"><ele>210.0</ele><time>2026-04-18T09:24:48.999Z</time></trkpt><trkpt lat="45.0274023490532" lon="8.250332063752925"><ele>207.4</ele><time>2026-04-18T09:24:49.999Z</time></trkpt><trkpt lat="45.02731370756136" lon="8.250252590356961"><ele>204.8</ele><time>2026-04-18T09:24:50.999Z</time></trkpt><trkpt lat="45.02721774653611" lon="8.25018305060082"><ele>202.2</ele><time>2026-04-18T09:24:52Z</time></trkpt><trkpt lat="45.027127446752054" lon="8.250118311340046"><ele>199.6</ele><time>2026-04-18T09:24:53Z</time></trkpt><trkpt lat="45.02704174125141" lon="8.250054481498294"><ele>197.0</ele><time>2026-04-18T09:24:54Z</time></trkpt><trkpt lat="45.02695743463213" lon="8.249995973359404"><ele>197.0</ele><time>2026-04-18T09:24:55Z</time></trkpt><trkpt lat="45.02687708829243" lon="8.24992655888829"><ele>197.0</ele><time>2026-04-18T09:24:56Z</time></trkpt><trkpt lat="45.026780433018786" lon="8.249893208424758"><ele>197.0</ele><time>2026-04-18T09:24:57Z</time></trkpt><trkpt lat="45.026694562422485" lon="8.249835986269114"><ele>197.0</ele><time>2026-04-18T09:24:58Z</time></trkpt><trkpt lat="45.02659758262884" lon="8.249805550684833"><ele>197.0</ele><time>2026-04-18T09:24:59Z</time></trkpt><trkpt lat="45.026507625547914" lon="8.24975862098029"><ele>194.39999999999998</ele><time>2026-04-18T09:25:00Z</time></trkpt><trkpt lat="45.026413379298134" lon="8.249716579531757"><ele>191.79999999999998</ele><time>2026-04-18T09:25:01Z</time></trkpt><trkpt lat="45.02631473324594" lon="8.249690393060618"><ele>189.2</ele><time>2026-04-18T09:25:02Z</time></trkpt><trkpt lat="45.02621959366264" lon="8.2496596232093"><ele>186.6</ele><time>2026-04-18T09:25:03Z</time></trkpt><trkpt lat="45.026137072857296" lon="8.249590578441001"><ele>184.0</ele><time>2026-04-18T09:25:04Z</time></trkpt><trkpt lat="45.02605716387705" lon="8.249519381087882"><ele>184.0</ele><time>2026-04-18T09:25:05Z</time></trkpt><trkpt lat="45.02597556075512" lon="8.249434910943082"><ele>184.0</ele><time>2026-04-18T09:25:06Z</time></trkpt><trkpt lat="45.025890411279526" lon="8.249353941057814"><ele>184.0</ele><time>2026-04-18T09:25:07Z</time></trkpt><trkpt lat="45.02582156215989" lon="8.249248701000171"><ele>184.0</ele><time>2026-04-18T09:25:08Z</time></trkpt><trkpt lat="45.025757443773024" lon="8.24914505018786"><ele>184.0</ele><time>2026-04-18T09:25:09Z</time></trkpt><trkpt lat="45.02569253495439" lon="8.2490427788169"><ele>183.39999999999998</ele><time>2026-04-18T09:25:10Z</time></trkpt><trkpt lat="45.02562574726376" lon="8.248944002179954"><ele>182.8</ele><time>2026-04-18T09:25:11Z</time></trkpt><trkpt lat="45.025558081182915" lon="8.24884594731567"><ele>182.2</ele><time>2026-04-18T09:25:12Z</time></trkpt><trkpt lat="45.02549404270849" lon="8.248735807713572"><ele>181.60000000000002</ele><time>2026-04-18T09:25:13Z</time></trkpt><trkpt lat="45.025426576733715" lon="8.248636085538193"><ele>181.0</ele><time>2026-04-18T09:25:14Z</time></trkpt><trkpt lat="45.02526667647795" lon="8.248615111006128"><ele>181.0</ele><time>2026-04-18T09:25:15Z</time></trkpt><trkpt lat="45.0252079880943" lon="8.248499626577232"><ele>181.0</ele><time>2026-04-18T09:25:16Z</time></trkpt><trkpt lat="45.02515077622646" lon="8.248387047667835"><ele>181.0</ele><time>2026-04-18T09:25:17Z</time></trkpt><trkpt lat="45.0251290783723" lon="8.248259281812375"><ele>181.0</ele><time>2026-04-18T09:25:18Z</time></trkpt><trkpt lat="45.02506974193275" lon="8.248196266496162"><ele>181.0</ele><time>2026-04-18T09:25:19Z</time></trkpt><trkpt lat="45.02500885309644" lon="8.2481316751504"><ele>181.0</ele><time>2026-04-18T09:25:20Z</time></trkpt><trkpt lat="45.024956437491795" lon="8.248045292567808"><ele>180.60000000000002</ele><time>2026-04-18T09:25:21Z</time></trkpt><trkpt lat="45.024894818659114" lon="8.247967904961303"><ele>180.2</ele><time>2026-04-18T09:25:22Z</time></trkpt><trkpt lat="45.02482659696401" lon="8.247881430182051"><ele>179.8</ele><time>2026-04-18T09:25:23Z</time></trkpt><trkpt lat="45.02475832837493" lon="8.247791469810554"><ele>179.39999999999998</ele><time>2026-04-18T09:25:24Z</time></trkpt><trkpt lat="45.02468783799509" lon="8.247696377654535"><ele>179.0</ele><time>2026-04-18T09:25:25Z</time></trkpt><trkpt lat="45.024616878341476" lon="8.247602737739436"><ele>179.0</ele><time>2026-04-18T09:25:26Z</time></trkpt><trkpt lat="45.02454427370146" lon="8.247509048070253"><ele>179.0</ele><time>2026-04-18T09:25:27Z</time></trkpt><trkpt lat="45.024472468185266" lon="8.24741339404107"><ele>179.0</ele><time>2026-04-18T09:25:28Z</time></trkpt><trkpt lat="45.02439611664539" lon="8.247314494325353"><ele>179.0</ele><time>2026-04-18T09:25:29Z</time></trkpt><trkpt lat="45.024326234355144" lon="8.247221097244392"><ele>179.0</ele><time>2026-04-18T09:25:30Z</time></trkpt><trkpt lat="45.02425382054831" lon="8.247126889551742"><ele>178.79999999999998</ele><time>2026-04-18T09:25:31Z</time></trkpt><trkpt lat="45.024178286893054" lon="8.247024935921248"><ele>178.6</ele><time>2026-04-18T09:25:32Z</time></trkpt><trkpt lat="45.02410147289623" lon="8.246924516305652"><ele>178.4</ele><time>2026-04-18T09:25:33Z</time></trkpt><trkpt lat="45.02402773782116" lon="8.246827002068644"><ele>178.2</ele><time>2026-04-18T09:25:34Z</time></trkpt><trkpt lat="45.02395613959872" lon="8.246728591557547"><ele>178.0</ele><time>2026-04-18T09:25:35Z</time></trkpt><trkpt lat="45.023880889255196" lon="8.246637362058863"><ele>178.0</ele><time>2026-04-18T09:25:36Z</time></trkpt><trkpt lat="45.023808863024215" lon="8.246540391191596"><ele>178.0</ele><time>2026-04-18T09:25:37Z</time></trkpt><trkpt lat="45.023739981008994" lon="8.246449866569398"><ele>178.0</ele><time>2026-04-18T09:25:38Z</time></trkpt><trkpt lat="45.02367556559786" lon="8.246361109978974"><ele>178.0</ele><time>2026-04-18T09:25:39Z</time></trkpt><trkpt lat="45.02361605446687" lon="8.246275707279596"><ele>178.0</ele><time>2026-04-18T09:25:40Z</time></trkpt><trkpt lat="45.02355886427353" lon="8.246183271862712"><ele>178.0</ele><time>2026-04-18T09:25:41Z</time></trkpt><trkpt lat="45.023501805859595" lon="8.24608284951608"><ele>178.0</ele><time>2026-04-18T09:25:42Z</time></trkpt><trkpt lat="45.0234541010805" lon="8.24597574313977"><ele>178.0</ele><time>2026-04-18T09:25:43Z</time></trkpt><trkpt lat="45.023394892555885" lon="8.245873855359623"><ele>178.0</ele><time>2026-04-18T09:25:44Z</time></trkpt><trkpt lat="45.023331507238424" lon="8.245774977254632"><ele>178.0</ele><time>2026-04-18T09:25:45Z</time></trkpt><trkpt lat="45.02325613869843" lon="8.245697352989104"><ele>177.4</ele><time>2026-04-18T09:25:46Z</time></trkpt><trkpt lat="45.023166641172416" lon="8.245642771181855"><ele>176.8</ele><time>2026-04-18T09:25:47Z</time></trkpt><trkpt lat="45.0230697586097" lon="8.245595979192109"><ele>176.2</ele><time>2026-04-18T09:25:48Z</time></trkpt><trkpt lat="45.02298099694184" lon="8.24555017308586"><ele>175.6</ele><time>2026-04-18T09:25:49Z</time></trkpt><trkpt lat="45.0228956464581" lon="8.24549060887935"><ele>175.0</ele><time>2026-04-18T09:25:50Z</time></trkpt><trkpt lat="45.02281557320951" lon="8.245402988349902"><ele>175.0</ele><time>2026-04-18T09:25:51Z</time></trkpt><trkpt lat="45.02273749727328" lon="8.245312446846368"><ele>175.0</ele><time>2026-04-18T09:25:52Z</time></trkpt><trkpt lat="45.02265527719355" lon="8.245225916680074"><ele>175.0</ele><time>2026-04-18T09:25:53Z</time></trkpt><trkpt lat="45.02257142526112" lon="8.24513608868351"><ele>175.0</ele><time>2026-04-18T09:25:54Z</time></trkpt><trkpt lat="45.02249239172355" lon="8.245057078186079"><ele>175.0</ele><time>2026-04-18T09:25:55Z</time></trkpt><trkpt lat="45.022409118133346" lon="8.24497545897776"><ele>174.8</ele><time>2026-04-18T09:25:56Z</time></trkpt><trkpt lat="45.02232613689134" lon="8.244894331751922"><ele>174.6</ele><time>2026-04-18T09:25:57Z</time></trkpt><trkpt lat="45.02224367773354" lon="8.244825077404709"><ele>174.39999999999998</ele><time>2026-04-18T09:25:58Z</time></trkpt><trkpt lat="45.02216083717232" lon="8.244745456038777"><ele>174.2</ele><time>2026-04-18T09:25:59Z</time></trkpt><trkpt lat="45.022075969605275" lon="8.244666083586676"><ele>174.0</ele><time>2026-04-18T09:26:00Z</time></trkpt><trkpt lat="45.021990077052486" lon="8.244590015555366"><ele>173.6</ele><time>2026-04-18T09:26:01Z</time></trkpt><trkpt lat="45.02190142419569" lon="8.244514347170815"><ele>173.2</ele><time>2026-04-18T09:26:02Z</time></trkpt><trkpt lat="45.02181573071264" lon="8.244445417642261"><ele>172.79999999999998</ele><time>2026-04-18T09:26:03Z</time></trkpt><trkpt lat="45.02173097592453" lon="8.244376135279706"><ele>172.39999999999998</ele><time>2026-04-18T09:26:04Z</time></trkpt><trkpt lat="45.021645203875174" lon="8.244301006024743"><ele>172.0</ele><time>2026-04-18T09:26:05Z</time></trkpt><trkpt lat="45.02155885085823" lon="8.244232492511722"><ele>172.0</ele><time>2026-04-18T09:26:06Z</time></trkpt><trkpt lat="45.021476331723534" lon="8.244167304835324"><ele>172.0</ele><time>2026-04-18T09:26:07Z</time></trkpt><trkpt lat="45.02139675042261" lon="8.244098120584225"><ele>172.0</ele><time>2026-04-18T09:26:08Z</time></trkpt><trkpt lat="45.02131945973534" lon="8.244026168851983"><ele>172.0</ele><time>2026-04-18T09:26:09Z</time></trkpt><trkpt lat="45.021242751977034" lon="8.243954243362616"><ele>172.0</ele><time>2026-04-18T09:26:10Z</time></trkpt><trkpt lat="45.02118548366827" lon="8.24390757289469"><ele>172.0</ele><time>2026-04-18T09:26:11Z</time></trkpt><trkpt lat="45.02113359697315" lon="8.243855539845894"><ele>171.6</ele><time>2026-04-18T09:26:12Z</time></trkpt><trkpt lat="45.021054972074545" lon="8.243776657215543"><ele>171.2</ele><time>2026-04-18T09:26:14Z</time></trkpt><trkpt lat="45.02108474351071" lon="8.243687779295538"><ele>170.8</ele><time>2026-04-18T09:26:16Z</time></trkpt><trkpt lat="45.02118876063918" lon="8.243576870556305"><ele>170.4</ele><time>2026-04-18T09:26:18Z</time></trkpt><trkpt lat="45.02125206848421" lon="8.24350935997815"><ele>170.0</ele><time>2026-04-18T09:26:19Z</time></trkpt><trkpt lat="45.02132169458041" lon="8.243437773426242"><ele>170.0</ele><time>2026-04-18T09:26:20Z</time></trkpt><trkpt lat="45.02138377070305" lon="8.24335877462992"><ele>170.0</ele><time>2026-04-18T09:26:21Z</time></trkpt><trkpt lat="45.02144649637615" lon="8.243282120278364"><ele>170.0</ele><time>2026-04-18T09:26:22Z</time></trkpt><trkpt lat="45.02151449275106" lon="8.243208610893818"><ele>170.0</ele><time>2026-04-18T09:26:23Z</time></trkpt><trkpt lat="45.021579977193674" lon="8.243137696318621"><ele>170.0</ele><time>2026-04-18T09:26:24Z</time></trkpt><trkpt lat="45.02164686067556" lon="8.243062873503703"><ele>170.0</ele><time>2026-04-18T09:26:25Z</time></trkpt><trkpt lat="45.02171606296303" lon="8.24298542504666"><ele>171.5</ele><time>2026-04-18T09:26:26Z</time></trkpt><trkpt lat="45.021790451329544" lon="8.242913682161653"><ele>173.0</ele><time>2026-04-18T09:26:27Z</time></trkpt><trkpt lat="45.0218585859271" lon="8.242851547435835"><ele>174.5</ele><time>2026-04-18T09:26:28Z</time></trkpt><trkpt lat="45.02193313088086" lon="8.242795279419482"><ele>176.0</ele><time>2026-04-18T09:26:29Z</time></trkpt><trkpt lat="45.02199811630025" lon="8.242736514653767"><ele>177.5</ele><time>2026-04-18T09:26:30Z</time></trkpt><trkpt lat="45.02206130306227" lon="8.242675127671026"><ele>179.0</ele><time>2026-04-18T09:26:31Z</time></trkpt><trkpt lat="45.02211570943531" lon="8.242595839084121"><ele>179.0</ele><time>2026-04-18T09:26:32Z</time></trkpt><trkpt lat="45.02216233723341" lon="8.242505111455536"><ele>179.0</ele><time>2026-04-18T09:26:33Z</time></trkpt><trkpt lat="45.02220606796369" lon="8.24241441229291"><ele>179.0</ele><time>2026-04-18T09:26:34Z</time></trkpt><trkpt lat="45.02223617249014" lon="8.242317289125491"><ele>179.0</ele><time>2026-04-18T09:26:35Z</time></trkpt><trkpt lat="45.02224597981868" lon="8.242218841666396"><ele>179.0</ele><time>2026-04-18T09:26:36Z</time></trkpt><trkpt lat="45.022236341548066" lon="8.242109199717031"><ele>179.0</ele><time>2026-04-18T09:26:37Z</time></trkpt><trkpt lat="45.02220225744014" lon="8.241994700665456"><ele>180.33333333333331</ele><time>2026-04-18T09:26:38Z</time></trkpt><trkpt lat="45.02215238848502" lon="8.241893972386551"><ele>181.66666666666666</ele><time>2026-04-18T09:26:39Z</time></trkpt><trkpt lat="45.022105403356626" lon="8.241779633220972"><ele>183.0</ele><time>2026-04-18T09:26:40Z</time></trkpt><trkpt lat="45.022067183631805" lon="8.241677641453615"><ele>184.33333333333334</ele><time>2026-04-18T09:26:40.999Z</time></trkpt><trkpt lat="45.02203135696849" lon="8.241575819665302"><ele>185.66666666666669</ele><time>2026-04-18T09:26:41.999Z</time></trkpt><trkpt lat="45.02200054335642" lon="8.241474155384248"><ele>187.0</ele><time>2026-04-18T09:26:42.999Z</time></trkpt><trkpt lat="45.02196687466482" lon="8.241379717134215"><ele>188.0</ele><time>2026-04-18T09:26:43.999Z</time></trkpt><trkpt lat="45.021932559325215" lon="8.241289679920046"><ele>189.0</ele><time>2026-04-18T09:26:44.999Z</time></trkpt><trkpt lat="45.02189336358709" lon="8.241190789726165"><ele>190.0</ele><time>2026-04-18T09:26:45.999Z</time></trkpt><trkpt lat="45.02186972602005" lon="8.241078135142505"><ele>191.0</ele><time>2026-04-18T09:26:46.999Z</time></trkpt><trkpt lat="45.02184147510134" lon="8.240971775010495"><ele>191.99999999999997</ele><time>2026-04-18T09:26:47.999Z</time></trkpt><trkpt lat="45.021814585151304" lon="8.240863411924849"><ele>193.0</ele><time>2026-04-18T09:26:48.999Z</time></trkpt><trkpt lat="45.02178478941321" lon="8.2407689565937"><ele>193.0</ele><time>2026-04-18T09:26:50Z</time></trkpt><trkpt lat="45.021754971324626" lon="8.240662875480343"><ele>193.0</ele><time>2026-04-18T09:26:52Z</time></trkpt><trkpt lat="45.021725848594585" lon="8.240539758418398"><ele>193.0</ele><time>2026-04-18T09:26:54Z</time></trkpt><trkpt lat="45.02174288345684" lon="8.240375068579672"><ele>193.0</ele><time>2026-04-18T09:26:56Z</time></trkpt><trkpt lat="45.02177175353594" lon="8.24027651586092"><ele>193.0</ele><time>2026-04-18T09:26:57Z</time></trkpt><trkpt lat="45.02182631345033" lon="8.240130492094512"><ele>194.4</ele><time>2026-04-18T09:26:59Z</time></trkpt><trkpt lat="45.02187641826821" lon="8.239984829495846"><ele>195.8</ele><time>2026-04-18T09:27:01Z</time></trkpt><trkpt lat="45.02194107093348" lon="8.239840001091247"><ele>197.2</ele><time>2026-04-18T09:27:03Z</time></trkpt><trkpt lat="45.021991524349126" lon="8.239686398123363"><ele>198.6</ele><time>2026-04-18T09:27:05Z</time></trkpt><trkpt lat="45.022036123926746" lon="8.239619938830028"><ele>200.0</ele><time>2026-04-18T09:27:06Z</time></trkpt><trkpt lat="45.02205574147918" lon="8.23949477793513"><ele>201.2</ele><time>2026-04-18T09:27:08Z</time></trkpt><trkpt lat="45.02198234818394" lon="8.239375158382463"><ele>202.4</ele><time>2026-04-18T09:27:10Z</time></trkpt><trkpt lat="45.02191148134269" lon="8.239277370011552"><ele>203.60000000000002</ele><time>2026-04-18T09:27:12Z</time></trkpt><trkpt lat="45.02187785210736" lon="8.239199782569253"><ele>204.8</ele><time>2026-04-18T09:27:13Z</time></trkpt><trkpt lat="45.02184612649509" lon="8.239035163451803"><ele>206.0</ele><time>2026-04-18T09:27:15Z</time></trkpt><trkpt lat="45.021837197578925" lon="8.238875941308837"><ele>206.20000000000002</ele><time>2026-04-18T09:27:17Z</time></trkpt><trkpt lat="45.02185886688193" lon="8.238734401904596"><ele>206.4</ele><time>2026-04-18T09:27:19Z</time></trkpt><trkpt lat="45.021927718886715" lon="8.238617989606729"><ele>206.6</ele><time>2026-04-18T09:27:21Z</time></trkpt><trkpt lat="45.02198213287378" lon="8.238538309923106"><ele>206.8</ele><time>2026-04-18T09:27:23Z</time></trkpt><trkpt lat="45.02194601431318" lon="8.238429718175158"><ele>207.0</ele><time>2026-04-18T09:27:27Z</time></trkpt><trkpt lat="45.02184644757218" lon="8.23834989661966"><ele>207.0</ele><time>2026-04-18T09:27:29Z</time></trkpt><trkpt lat="45.021788778955546" lon="8.238295857060137"><ele>207.0</ele><time>2026-04-18T09:27:30Z</time></trkpt><trkpt lat="45.02173497938509" lon="8.238239114013071"><ele>207.0</ele><time>2026-04-18T09:27:31Z</time></trkpt><trkpt lat="45.02166533488347" lon="8.23817686865623"><ele>207.0</ele><time>2026-04-18T09:27:32Z</time></trkpt><trkpt lat="45.021597515688846" lon="8.238118251812308"><ele>207.0</ele><time>2026-04-18T09:27:33Z</time></trkpt><trkpt lat="45.021535013607206" lon="8.23805721327451"><ele>207.0</ele><time>2026-04-18T09:27:34Z</time></trkpt><trkpt lat="45.02146866879441" lon="8.238001451257453"><ele>207.0</ele><time>2026-04-18T09:27:35Z</time></trkpt><trkpt lat="45.02139452112004" lon="8.237934712505641"><ele>207.0</ele><time>2026-04-18T09:27:36Z</time></trkpt><trkpt lat="45.0213211727904" lon="8.237871392632451"><ele>207.0</ele><time>2026-04-18T09:27:37Z</time></trkpt><trkpt lat="45.02124941351304" lon="8.237797806615294"><ele>207.0</ele><time>2026-04-18T09:27:38Z</time></trkpt><trkpt lat="45.021181635845984" lon="8.237734427007524"><ele>207.0</ele><time>2026-04-18T09:27:39Z</time></trkpt><trkpt lat="45.0211100963839" lon="8.237661669634836"><ele>207.0</ele><time>2026-04-18T09:27:40Z</time></trkpt><trkpt lat="45.02103829274383" lon="8.23761513095495"><ele>207.0</ele><time>2026-04-18T09:27:41Z</time></trkpt><trkpt lat="45.02096664817522" lon="8.237543621866765"><ele>207.0</ele><time>2026-04-18T09:27:42Z</time></trkpt><trkpt lat="45.02089764426327" lon="8.237480174293998"><ele>207.0</ele><time>2026-04-18T09:27:43Z</time></trkpt><trkpt lat="45.020826440908465" lon="8.23741199398097"><ele>207.0</ele><time>2026-04-18T09:27:44Z</time></trkpt><trkpt lat="45.02075452613306" lon="8.237344153560441"><ele>207.0</ele><time>2026-04-18T09:27:45Z</time></trkpt><trkpt lat="45.02067461953024" lon="8.237274301577042"><ele>207.0</ele><time>2026-04-18T09:27:46Z</time></trkpt><trkpt lat="45.020586619480284" lon="8.237196758752216"><ele>206.0</ele><time>2026-04-18T09:27:47Z</time></trkpt><trkpt lat="45.02049317695687" lon="8.237112990739693"><ele>205.0</ele><time>2026-04-18T09:27:48Z</time></trkpt><trkpt lat="45.020405145802435" lon="8.237006251626129"><ele>204.0</ele><time>2026-04-18T09:27:49Z</time></trkpt><trkpt lat="45.02029914978889" lon="8.236935570165114"><ele>203.0</ele><time>2026-04-18T09:27:50Z</time></trkpt><trkpt lat="45.02022280189508" lon="8.236857382758567"><ele>202.0</ele><time>2026-04-18T09:27:51Z</time></trkpt><trkpt lat="45.02013572269973" lon="8.23677808955974"><ele>202.0</ele><time>2026-04-18T09:27:52Z</time></trkpt><trkpt lat="45.020042633070666" lon="8.236683697568424"><ele>202.0</ele><time>2026-04-18T09:27:53Z</time></trkpt><trkpt lat="45.01996880523807" lon="8.236575344499572"><ele>202.0</ele><time>2026-04-18T09:27:54Z</time></trkpt><trkpt lat="45.019898418728374" lon="8.236493266699977"><ele>202.0</ele><time>2026-04-18T09:27:55Z</time></trkpt><trkpt lat="45.01984732488646" lon="8.236422384240086"><ele>202.0</ele><time>2026-04-18T09:27:56Z</time></trkpt><trkpt lat="45.01979383936575" lon="8.236342632979015"><ele>200.16666666666666</ele><time>2026-04-18T09:27:57Z</time></trkpt><trkpt lat="45.01975093884902" lon="8.23623493726104"><ele>198.33333333333331</ele><time>2026-04-18T09:27:58Z</time></trkpt><trkpt lat="45.01969771618489" lon="8.236140921680965"><ele>196.5</ele><time>2026-04-18T09:27:59Z</time></trkpt><trkpt lat="45.01965444994216" lon="8.236030721516142"><ele>194.66666666666666</ele><time>2026-04-18T09:28:00Z</time></trkpt><trkpt lat="45.0196082196525" lon="8.235932981677196"><ele>192.83333333333331</ele><time>2026-04-18T09:28:01Z</time></trkpt><trkpt lat="45.019573782296796" lon="8.235826269489385"><ele>191.0</ele><time>2026-04-18T09:28:02Z</time></trkpt><trkpt lat="45.019522207529434" lon="8.23574880849219"><ele>191.0</ele><time>2026-04-18T09:28:03Z</time></trkpt><trkpt lat="45.01948342394208" lon="8.235660768272783"><ele>191.0</ele><time>2026-04-18T09:28:04Z</time></trkpt><trkpt lat="45.019441935901995" lon="8.235571759339091"><ele>191.0</ele><time>2026-04-18T09:28:05Z</time></trkpt><trkpt lat="45.01941848482941" lon="8.23547537206922"><ele>191.0</ele><time>2026-04-18T09:28:06Z</time></trkpt><trkpt lat="45.01937628796515" lon="8.235406902520076"><ele>191.0</ele><time>2026-04-18T09:28:07Z</time></trkpt><trkpt lat="45.01933647102863" lon="8.235325984955551"><ele>191.0</ele><time>2026-04-18T09:28:08Z</time></trkpt><trkpt lat="45.019303091506295" lon="8.235227833041746"><ele>191.0</ele><time>2026-04-18T09:28:09Z</time></trkpt><trkpt lat="45.01925653059417" lon="8.23512224009982"><ele>189.5</ele><time>2026-04-18T09:28:10Z</time></trkpt><trkpt lat="45.019211855102235" lon="8.23501279636772"><ele>188.0</ele><time>2026-04-18T09:28:11Z</time></trkpt><trkpt lat="45.019168291440415" lon="8.23490199417168"><ele>186.5</ele><time>2026-04-18T09:28:12Z</time></trkpt><trkpt lat="45.01912013889509" lon="8.234797013935673"><ele>185.0</ele><time>2026-04-18T09:28:13Z</time></trkpt><trkpt lat="45.01907459008923" lon="8.234692476504419"><ele>183.5</ele><time>2026-04-18T09:28:14Z</time></trkpt><trkpt lat="45.01903977642995" lon="8.234579262304095"><ele>182.0</ele><time>2026-04-18T09:28:15Z</time></trkpt><trkpt lat="45.01899904991588" lon="8.234485084567122"><ele>179.5</ele><time>2026-04-18T09:28:16Z</time></trkpt><trkpt lat="45.01895658890531" lon="8.234386895906393"><ele>177.0</ele><time>2026-04-18T09:28:17Z</time></trkpt><trkpt lat="45.01891125930657" lon="8.234282073794452"><ele>174.5</ele><time>2026-04-18T09:28:18Z</time></trkpt><trkpt lat="45.01885168729312" lon="8.234188529284243"><ele>172.0</ele><time>2026-04-18T09:28:19Z</time></trkpt><trkpt lat="45.01881018376015" lon="8.234076538957813"><ele>169.5</ele><time>2026-04-18T09:28:19.999Z</time></trkpt><trkpt lat="45.018765427493605" lon="8.233973638747386"><ele>167.0</ele><time>2026-04-18T09:28:20.999Z</time></trkpt><trkpt lat="45.01872391418684" lon="8.233881962279177"><ele>166.66666666666666</ele><time>2026-04-18T09:28:21.999Z</time></trkpt><trkpt lat="45.018682356425174" lon="8.233784335156054"><ele>166.33333333333331</ele><time>2026-04-18T09:28:22.999Z</time></trkpt><trkpt lat="45.01864198694159" lon="8.23369197031963"><ele>166.0</ele><time>2026-04-18T09:28:23.999Z</time></trkpt><trkpt lat="45.01860672371034" lon="8.233612127934888"><ele>165.66666666666666</ele><time>2026-04-18T09:28:24.999Z</time></trkpt><trkpt lat="45.01855315722516" lon="8.233480105255035"><ele>165.33333333333334</ele><time>2026-04-18T09:28:26.999Z</time></trkpt><trkpt lat="45.018520025006985" lon="8.23339545016169"><ele>165.0</ele><time>2026-04-18T09:28:29.999Z</time></trkpt><trkpt lat="45.01841796577245" lon="8.233469772142278"><ele>165.0</ele><time>2026-04-18T09:28:30.999Z</time></trkpt><trkpt lat="45.01834241434309" lon="8.23353290900048"><ele>165.0</ele><time>2026-04-18T09:28:31.999Z</time></trkpt><trkpt lat="45.01826731155691" lon="8.233606328699585"><ele>165.0</ele><time>2026-04-18T09:28:32.999Z</time></trkpt><trkpt lat="45.01818074260921" lon="8.233683503336243"><ele>165.0</ele><time>2026-04-18T09:28:33.999Z</time></trkpt><trkpt lat="45.01810206671029" lon="8.233753052581699"><ele>165.0</ele><time>2026-04-18T09:28:34.999Z</time></trkpt><trkpt lat="45.01801104166793" lon="8.233806006640515"><ele>164.33333333333334</ele><time>2026-04-18T09:28:35.999Z</time></trkpt><trkpt lat="45.017932837123446" lon="8.233867104665235"><ele>163.66666666666666</ele><time>2026-04-18T09:28:36.999Z</time></trkpt><trkpt lat="45.01786994808329" lon="8.23393602171236"><ele>163.0</ele><time>2026-04-18T09:28:37.999Z</time></trkpt><trkpt lat="45.01780987131887" lon="8.233979246175357"><ele>162.33333333333331</ele><time>2026-04-18T09:28:38.999Z</time></trkpt><trkpt lat="45.017707389623766" lon="8.234051880197564"><ele>161.66666666666666</ele><time>2026-04-18T09:28:40.999Z</time></trkpt><trkpt lat="45.01762576405024" lon="8.234087439610164"><ele>161.0</ele><time>2026-04-18T09:28:42.999Z</time></trkpt><trkpt lat="45.01754192659115" lon="8.233915822504407"><ele>160.60000000000002</ele><time>2026-04-18T09:28:46.999Z</time></trkpt><trkpt lat="45.017515024013726" lon="8.233784923470946"><ele>160.20000000000002</ele><time>2026-04-18T09:28:47.999Z</time></trkpt><trkpt lat="45.01747308584329" lon="8.233641580962834"><ele>159.8</ele><time>2026-04-18T09:28:48.999Z</time></trkpt><trkpt lat="45.017424872918525" lon="8.23349897866526"><ele>159.4</ele><time>2026-04-18T09:28:49.999Z</time></trkpt><trkpt lat="45.01737043270729" lon="8.233353585056333"><ele>159.0</ele><time>2026-04-18T09:28:50.999Z</time></trkpt><trkpt lat="45.01729818496959" lon="8.233196760124857"><ele>159.5</ele><time>2026-04-18T09:28:51.999Z</time></trkpt><trkpt lat="45.01723492038319" lon="8.233047503796152"><ele>160.0</ele><time>2026-04-18T09:28:52.999Z</time></trkpt><trkpt lat="45.01717120305565" lon="8.232904841525798"><ele>160.5</ele><time>2026-04-18T09:28:53.999Z</time></trkpt><trkpt lat="45.01710614114647" lon="8.232767750182854"><ele>161.0</ele><time>2026-04-18T09:28:54.999Z</time></trkpt><trkpt lat="45.01704435663693" lon="8.23263609286678"><ele>161.0</ele><time>2026-04-18T09:28:55.999Z</time></trkpt><trkpt lat="45.01698744892548" lon="8.232503600149897"><ele>161.0</ele><time>2026-04-18T09:28:56.999Z</time></trkpt><trkpt lat="45.016921108558726" lon="8.232364102420798"><ele>161.0</ele><time>2026-04-18T09:28:57.999Z</time></trkpt><trkpt lat="45.01685752102196" lon="8.23221464738891"><ele>161.0</ele><time>2026-04-18T09:28:58.999Z</time></trkpt><trkpt lat="45.016795174374394" lon="8.232068926104184"><ele>161.0</ele><time>2026-04-18T09:28:59.999Z</time></trkpt><trkpt lat="45.01673053116651" lon="8.231929044648712"><ele>161.0</ele><time>2026-04-18T09:29:00.999Z</time></trkpt><trkpt lat="45.01666792043908" lon="8.231793312341736"><ele>161.0</ele><time>2026-04-18T09:29:01.999Z</time></trkpt><trkpt lat="45.01660831669526" lon="8.23165250482328"><ele>161.0</ele><time>2026-04-18T09:29:02.999Z</time></trkpt><trkpt lat="45.01654735007339" lon="8.231515076029012"><ele>159.8</ele><time>2026-04-18T09:29:03.999Z</time></trkpt><trkpt lat="45.016486370298054" lon="8.231381636012799"><ele>158.60000000000002</ele><time>2026-04-18T09:29:04.999Z</time></trkpt><trkpt lat="45.016435846052886" lon="8.231249205982332"><ele>157.4</ele><time>2026-04-18T09:29:05.999Z</time></trkpt><trkpt lat="45.01637535722588" lon="8.231117970843167"><ele>156.2</ele><time>2026-04-18T09:29:06.999Z</time></trkpt><trkpt lat="45.01631999763176" lon="8.23098447099466"><ele>155.0</ele><time>2026-04-18T09:29:07.999Z</time></trkpt><trkpt lat="45.016264375350325" lon="8.23085144932103"><ele>155.0</ele><time>2026-04-18T09:29:08.999Z</time></trkpt><trkpt lat="45.01620824911841" lon="8.230724185956415"><ele>155.0</ele><time>2026-04-18T09:29:09.999Z</time></trkpt><trkpt lat="45.01615178698832" lon="8.230593283882794"><ele>155.0</ele><time>2026-04-18T09:29:10.999Z</time></trkpt><trkpt lat="45.01609918193629" lon="8.230467326240094"><ele>155.0</ele><time>2026-04-18T09:29:11.999Z</time></trkpt><trkpt lat="45.01604841307539" lon="8.230353825991527"><ele>155.0</ele><time>2026-04-18T09:29:12.999Z</time></trkpt><trkpt lat="45.016002042232856" lon="8.230253439792424"><ele>155.33333333333331</ele><time>2026-04-18T09:29:13.999Z</time></trkpt><trkpt lat="45.01596215225404" lon="8.230138734215345"><ele>155.66666666666666</ele><time>2026-04-18T09:29:14.999Z</time></trkpt><trkpt lat="45.01592354508977" lon="8.230030171835143"><ele>156.0</ele><time>2026-04-18T09:29:15.999Z</time></trkpt><trkpt lat="45.01588671754104" lon="8.229917494017778"><ele>156.33333333333334</ele><time>2026-04-18T09:29:16.999Z</time></trkpt><trkpt lat="45.01584638534253" lon="8.22980462133386"><ele>156.66666666666669</ele><time>2026-04-18T09:29:17.999Z</time></trkpt><trkpt lat="45.01581379151075" lon="8.229699776729392"><ele>157.0</ele><time>2026-04-18T09:29:18.999Z</time></trkpt><trkpt lat="45.015768201602455" lon="8.229589956366306"><ele>157.0</ele><time>2026-04-18T09:29:19.999Z</time></trkpt><trkpt lat="45.015732209320326" lon="8.229494427886788"><ele>157.0</ele><time>2026-04-18T09:29:20.999Z</time></trkpt><trkpt lat="45.01569744094248" lon="8.229389633679718"><ele>157.0</ele><time>2026-04-18T09:29:21.999Z</time></trkpt><trkpt lat="45.015667119047166" lon="8.229284674708852"><ele>157.0</ele><time>2026-04-18T09:29:22.999Z</time></trkpt><trkpt lat="45.015636495145195" lon="8.229173210483266"><ele>157.0</ele><time>2026-04-18T09:29:23.999Z</time></trkpt><trkpt lat="45.01560019987196" lon="8.229053661066276"><ele>157.0</ele><time>2026-04-18T09:29:24.999Z</time></trkpt><trkpt lat="45.015579962003414" lon="8.228938295562159"><ele>156.83333333333334</ele><time>2026-04-18T09:29:25.999Z</time></trkpt><trkpt lat="45.01556372714145" lon="8.228820379980718"><ele>156.66666666666669</ele><time>2026-04-18T09:29:26.999Z</time></trkpt><trkpt lat="45.015549508336164" lon="8.22870163991376"><ele>156.5</ele><time>2026-04-18T09:29:27.999Z</time></trkpt><trkpt lat="45.01553567353436" lon="8.22858526783979"><ele>156.33333333333334</ele><time>2026-04-18T09:29:28.999Z</time></trkpt><trkpt lat="45.01553462438077" lon="8.228463938501324"><ele>156.16666666666666</ele><time>2026-04-18T09:29:29.999Z</time></trkpt><trkpt lat="45.01554034227978" lon="8.228325113021166"><ele>156.0</ele><time>2026-04-18T09:29:30.999Z</time></trkpt><trkpt lat="45.01554798243877" lon="8.22820568259901"><ele>155.83333333333334</ele><time>2026-04-18T09:29:31.999Z</time></trkpt><trkpt lat="45.01556503891691" lon="8.228098756907617"><ele>155.66666666666666</ele><time>2026-04-18T09:29:32.999Z</time></trkpt><trkpt lat="45.01558828227908" lon="8.228012466981781"><ele>155.5</ele><time>2026-04-18T09:29:33.999Z</time></trkpt><trkpt lat="45.01565116697257" lon="8.227863724872826"><ele>155.33333333333331</ele><time>2026-04-18T09:29:35.999Z</time></trkpt><trkpt lat="45.015677716562095" lon="8.227779986314797"><ele>155.16666666666666</ele><time>2026-04-18T09:29:36.999Z</time></trkpt><trkpt lat="45.01571399872175" lon="8.227638867162481"><ele>155.0</ele><time>2026-04-18T09:29:38.999Z</time></trkpt><trkpt lat="45.0156397263597" lon="8.227512289487496"><ele>155.0</ele><time>2026-04-18T09:29:40.999Z</time></trkpt><trkpt lat="45.015573725862076" lon="8.227437680123872"><ele>155.0</ele><time>2026-04-18T09:29:41.999Z</time></trkpt><trkpt lat="45.01550618021097" lon="8.227336677802953"><ele>155.0</ele><time>2026-04-18T09:29:42.999Z</time></trkpt><trkpt lat="45.015439920270424" lon="8.227236410734617"><ele>155.0</ele><time>2026-04-18T09:29:43.999Z</time></trkpt><trkpt lat="45.01536841629214" lon="8.227148355128426"><ele>155.0</ele><time>2026-04-18T09:29:44.999Z</time></trkpt><trkpt lat="45.01529631956788" lon="8.227058014360306"><ele>155.2</ele><time>2026-04-18T09:29:45.999Z</time></trkpt><trkpt lat="45.015213528274586" lon="8.226961822719144"><ele>155.4</ele><time>2026-04-18T09:29:46.999Z</time></trkpt><trkpt lat="45.01514566836349" lon="8.226858890134498"><ele>155.6</ele><time>2026-04-18T09:29:47.999Z</time></trkpt><trkpt lat="45.015070660510105" lon="8.22675898003133"><ele>155.8</ele><time>2026-04-18T09:29:48.999Z</time></trkpt><trkpt lat="45.01501307068678" lon="8.226647056667266"><ele>156.0</ele><time>2026-04-18T09:29:49.999Z</time></trkpt><trkpt lat="45.01494656700593" lon="8.226533936155016"><ele>156.4</ele><time>2026-04-18T09:29:50.999Z</time></trkpt><trkpt lat="45.01487921983979" lon="8.226423705679824"><ele>156.8</ele><time>2026-04-18T09:29:51.999Z</time></trkpt><trkpt lat="45.01481613589473" lon="8.226302071268389"><ele>157.20000000000002</ele><time>2026-04-18T09:29:52.999Z</time></trkpt><trkpt lat="45.01475443840904" lon="8.226181965761397"><ele>157.6</ele><time>2026-04-18T09:29:53.999Z</time></trkpt><trkpt lat="45.01468781372582" lon="8.22605311726532"><ele>158.0</ele><time>2026-04-18T09:29:54.999Z</time></trkpt><trkpt lat="45.014617655144654" lon="8.225931717136856"><ele>158.0</ele><time>2026-04-18T09:29:55.999Z</time></trkpt><trkpt lat="45.014543307109065" lon="8.225821661937404"><ele>158.0</ele><time>2026-04-18T09:29:56.999Z</time></trkpt><trkpt lat="45.01447202489807" lon="8.225698365253923"><ele>158.0</ele><time>2026-04-18T09:29:57.999Z</time></trkpt><trkpt lat="45.01440289692549" lon="8.22556139410572"><ele>158.0</ele><time>2026-04-18T09:29:58.999Z</time></trkpt><trkpt lat="45.01433095501846" lon="8.225424886324362"><ele>158.0</ele><time>2026-04-18T09:29:59.999Z</time></trkpt><trkpt lat="45.01427325874942" lon="8.225301182369437"><ele>158.0</ele><time>2026-04-18T09:30:00.999Z</time></trkpt><trkpt lat="45.014219732075816" lon="8.22516607316228"><ele>158.0</ele><time>2026-04-18T09:30:01.999Z</time></trkpt><trkpt lat="45.01418263633762" lon="8.225039167512634"><ele>158.0</ele><time>2026-04-18T09:30:02.999Z</time></trkpt><trkpt lat="45.01416308430699" lon="8.224896770637619"><ele>158.0</ele><time>2026-04-18T09:30:03.999Z</time></trkpt><trkpt lat="45.014142320725796" lon="8.224746226599894"><ele>158.20000000000002</ele><time>2026-04-18T09:30:04.999Z</time></trkpt><trkpt lat="45.01412289164886" lon="8.224609393090596"><ele>158.4</ele><time>2026-04-18T09:30:05.999Z</time></trkpt><trkpt lat="45.014103508776394" lon="8.22448030744207"><ele>158.60000000000002</ele><time>2026-04-18T09:30:06.999Z</time></trkpt><trkpt lat="45.01407755639587" lon="8.224360274853563"><ele>158.8</ele><time>2026-04-18T09:30:07.999Z</time></trkpt><trkpt lat="45.01405638016146" lon="8.224261352611496"><ele>159.0</ele><time>2026-04-18T09:30:08.999Z</time></trkpt><trkpt lat="45.0140817444114" lon="8.224120814541536"><ele>159.0</ele><time>2026-04-18T09:30:10.999Z</time></trkpt><trkpt lat="45.01415064385073" lon="8.224085882745584"><ele>159.0</ele><time>2026-04-18T09:30:11.999Z</time></trkpt><trkpt lat="45.014248964436504" lon="8.224070152459376"><ele>159.0</ele><time>2026-04-18T09:30:12.999Z</time></trkpt><trkpt lat="45.0143591629785" lon="8.2240421786005"><ele>159.0</ele><time>2026-04-18T09:30:13.999Z</time></trkpt><trkpt lat="45.01446756624831" lon="8.224007026183159"><ele>159.0</ele><time>2026-04-18T09:30:14.999Z</time></trkpt><trkpt lat="45.01457598827169" lon="8.223966644778812"><ele>158.0</ele><time>2026-04-18T09:30:15.999Z</time></trkpt><trkpt lat="45.01469168268278" lon="8.223923676629111"><ele>157.0</ele><time>2026-04-18T09:30:16.999Z</time></trkpt><trkpt lat="45.014808413460095" lon="8.223874382446038"><ele>156.0</ele><time>2026-04-18T09:30:17.999Z</time></trkpt><trkpt lat="45.01492087930372" lon="8.223836385262219"><ele>155.0</ele><time>2026-04-18T09:30:18.999Z</time></trkpt><trkpt lat="45.01504106994557" lon="8.223795153603628"><ele>155.0</ele><time>2026-04-18T09:30:19.999Z</time></trkpt><trkpt lat="45.015160063914344" lon="8.223756386797909"><ele>155.0</ele><time>2026-04-18T09:30:20.999Z</time></trkpt><trkpt lat="45.01528008493118" lon="8.223711950296282"><ele>155.0</ele><time>2026-04-18T09:30:21.999Z</time></trkpt><trkpt lat="45.01539637680133" lon="8.223681192237956"><ele>155.0</ele><time>2026-04-18T09:30:22.999Z</time></trkpt><trkpt lat="45.015516547991616" lon="8.223645113995643"><ele>155.0</ele><time>2026-04-18T09:30:23.999Z</time></trkpt><trkpt lat="45.01563422294599" lon="8.223610349376216"><ele>155.0</ele><time>2026-04-18T09:30:24.999Z</time></trkpt><trkpt lat="45.01574980788576" lon="8.22357956376683"><ele>155.0</ele><time>2026-04-18T09:30:25.999Z</time></trkpt><trkpt lat="45.01585387691459" lon="8.223561717584818"><ele>155.0</ele><time>2026-04-18T09:30:26.999Z</time></trkpt><trkpt lat="45.01594752618602" lon="8.223542902156963"><ele>155.0</ele><time>2026-04-18T09:30:27.999Z</time></trkpt><trkpt lat="45.01603243557275" lon="8.223517895645672"><ele>155.4</ele><time>2026-04-18T09:30:28.999Z</time></trkpt><trkpt lat="45.01610836554297" lon="8.223476535946123"><ele>155.8</ele><time>2026-04-18T09:30:29.999Z</time></trkpt><trkpt lat="45.01616356206243" lon="8.223419262622423"><ele>156.2</ele><time>2026-04-18T09:30:30.999Z</time></trkpt><trkpt lat="45.01624759482819" lon="8.223293218593577"><ele>156.6</ele><time>2026-04-18T09:30:32.999Z</time></trkpt><trkpt lat="45.01628054818543" lon="8.223137900922977"><ele>157.0</ele><time>2026-04-18T09:30:34.999Z</time></trkpt><trkpt lat="45.01626195109638" lon="8.223042183140787"><ele>157.0</ele><time>2026-04-18T09:30:35.999Z</time></trkpt><trkpt lat="45.016216324669315" lon="8.22294406070334"><ele>157.0</ele><time>2026-04-18T09:30:36.999Z</time></trkpt><trkpt lat="45.01616942345337" lon="8.222855349811768"><ele>157.0</ele><time>2026-04-18T09:30:37.999Z</time></trkpt><trkpt lat="45.01611670433969" lon="8.222768100680332"><ele>157.0</ele><time>2026-04-18T09:30:38.999Z</time></trkpt><trkpt lat="45.01606654705984" lon="8.222692018802581"><ele>157.0</ele><time>2026-04-18T09:30:39.999Z</time></trkpt><trkpt lat="45.01602090425627" lon="8.222625093764611"><ele>157.0</ele><time>2026-04-18T09:30:40.999Z</time></trkpt><trkpt lat="45.01594304371801" lon="8.222535111977574"><ele>157.0</ele><time>2026-04-18T09:30:42.999Z</time></trkpt><trkpt lat="45.0159261419523" lon="8.222442546744745"><ele>157.0</ele><time>2026-04-18T09:30:44.999Z</time></trkpt><trkpt lat="45.01599679698243" lon="8.222365162597713"><ele>157.0</ele><time>2026-04-18T09:30:46.999Z</time></trkpt><trkpt lat="45.01610112095241" lon="8.222324729595757"><ele>157.0</ele><time>2026-04-18T09:30:48.999Z</time></trkpt><trkpt lat="45.01616642393336" lon="8.222316375904402"><ele>157.0</ele><time>2026-04-18T09:30:49.999Z</time></trkpt><trkpt lat="45.01624031821789" lon="8.222306301343755"><ele>157.0</ele><time>2026-04-18T09:30:50.999Z</time></trkpt><trkpt lat="45.016293681693575" lon="8.222256594238546"><ele>156.66666666666669</ele><time>2026-04-18T09:30:51.999Z</time></trkpt><trkpt lat="45.01632076845121" lon="8.222154175719965"><ele>156.33333333333334</ele><time>2026-04-18T09:30:52.999Z</time></trkpt><trkpt lat="45.016321059647176" lon="8.222021928890562"><ele>156.0</ele><time>2026-04-18T09:30:53.999Z</time></trkpt><trkpt lat="45.016318093585376" lon="8.22189773796864"><ele>155.66666666666666</ele><time>2026-04-18T09:30:54.999Z</time></trkpt><trkpt lat="45.01633484001491" lon="8.22179982248095"><ele>155.33333333333331</ele><time>2026-04-18T09:30:55.999Z</time></trkpt><trkpt lat="45.0164002975976" lon="8.221735938638615"><ele>155.0</ele><time>2026-04-18T09:30:56.999Z</time></trkpt><trkpt lat="45.01650199983021" lon="8.221689767027653"><ele>155.0</ele><time>2026-04-18T09:30:57.999Z</time></trkpt><trkpt lat="45.016612690107955" lon="8.22164141947887"><ele>155.0</ele><time>2026-04-18T09:30:58.999Z</time></trkpt><trkpt lat="45.0167017412987" lon="8.221582016554361"><ele>155.0</ele><time>2026-04-18T09:30:59.999Z</time></trkpt><trkpt lat="45.01678455489102" lon="8.221519296446424"><ele>155.0</ele><time>2026-04-18T09:31:00.999Z</time></trkpt><trkpt lat="45.01685245974313" lon="8.221471885143984"><ele>155.0</ele><time>2026-04-18T09:31:01.999Z</time></trkpt><trkpt lat="45.016910805418185" lon="8.221402199953499"><ele>155.4</ele><time>2026-04-18T09:31:02.999Z</time></trkpt><trkpt lat="45.01695285233525" lon="8.221281650453752"><ele>155.8</ele><time>2026-04-18T09:31:03.999Z</time></trkpt><trkpt lat="45.01697401564076" lon="8.221138023866002"><ele>156.2</ele><time>2026-04-18T09:31:04.999Z</time></trkpt><trkpt lat="45.01696825152479" lon="8.220988783690096"><ele>156.6</ele><time>2026-04-18T09:31:05.999Z</time></trkpt><trkpt lat="45.01695140187578" lon="8.220823484995698"><ele>157.0</ele><time>2026-04-18T09:31:06.999Z</time></trkpt><trkpt lat="45.016941067713304" lon="8.22066019673545"><ele>156.75</ele><time>2026-04-18T09:31:07.999Z</time></trkpt><trkpt lat="45.0169313224831" lon="8.220488468253286"><ele>156.5</ele><time>2026-04-18T09:31:08.999Z</time></trkpt><trkpt lat="45.01691976155748" lon="8.220307365622366"><ele>156.25</ele><time>2026-04-18T09:31:09.999Z</time></trkpt><trkpt lat="45.016916602297414" lon="8.220134372614417"><ele>156.0</ele><time>2026-04-18T09:31:10.999Z</time></trkpt><trkpt lat="45.01691411033344" lon="8.219948379764288"><ele>156.16666666666666</ele><time>2026-04-18T09:31:11.999Z</time></trkpt><trkpt lat="45.01691504718632" lon="8.219793342201118"><ele>156.33333333333334</ele><time>2026-04-18T09:31:12.999Z</time></trkpt><trkpt lat="45.01691540299056" lon="8.21965470892122"><ele>156.5</ele><time>2026-04-18T09:31:13.999Z</time></trkpt><trkpt lat="45.01691814716713" lon="8.219527845373975"><ele>156.66666666666669</ele><time>2026-04-18T09:31:14.999Z</time></trkpt><trkpt lat="45.01691542217961" lon="8.219420815042316"><ele>156.83333333333334</ele><time>2026-04-18T09:31:15.999Z</time></trkpt><trkpt lat="45.0169192036716" lon="8.219319966267593"><ele>157.0</ele><time>2026-04-18T09:31:16.999Z</time></trkpt><trkpt lat="45.016923753424294" lon="8.219222530012345"><ele>157.0</ele><time>2026-04-18T09:31:17.999Z</time></trkpt><trkpt lat="45.016926204889856" lon="8.219112396594651"><ele>157.0</ele><time>2026-04-18T09:31:18.999Z</time></trkpt><trkpt lat="45.01698466113452" lon="8.218994517097933"><ele>157.0</ele><time>2026-04-18T09:31:19.999Z</time></trkpt><trkpt lat="45.01696845006388" lon="8.218834114445167"><ele>157.0</ele><time>2026-04-18T09:31:21.999Z</time></trkpt><trkpt lat="45.01694862058086" lon="8.218748716767827"><ele>157.0</ele><time>2026-04-18T09:31:22.999Z</time></trkpt><trkpt lat="45.016842574629464" lon="8.218688892751183"><ele>157.0</ele><time>2026-04-18T09:31:23.999Z</time></trkpt><trkpt lat="45.01680873564826" lon="8.218593085823414"><ele>157.0</ele><time>2026-04-18T09:31:24.999Z</time></trkpt><trkpt lat="45.01678885489405" lon="8.218507243307645"><ele>157.0</ele><time>2026-04-18T09:31:25.999Z</time></trkpt><trkpt lat="45.01674199882544" lon="8.218371165990922"><ele>157.0</ele><time>2026-04-18T09:31:27.999Z</time></trkpt><trkpt lat="45.01670447101161" lon="8.21824829720693"><ele>157.0</ele><time>2026-04-18T09:31:30Z</time></trkpt><trkpt lat="45.016690785141606" lon="8.21813324015139"><ele>157.0</ele><time>2026-04-18T09:31:32Z</time></trkpt><trkpt lat="45.01697450739973" lon="8.218520667292623"><ele>157.16666666666669</ele><time>2026-04-18T09:31:35Z</time></trkpt><trkpt lat="45.017056323312175" lon="8.218502924581491"><ele>157.33333333333334</ele><time>2026-04-18T09:31:36Z</time></trkpt><trkpt lat="45.01713646656061" lon="8.21846558084105"><ele>157.5</ele><time>2026-04-18T09:31:37Z</time></trkpt><trkpt lat="45.01721207971653" lon="8.21842210700112"><ele>157.66666666666666</ele><time>2026-04-18T09:31:38Z</time></trkpt><trkpt lat="45.01727628978755" lon="8.21838713821812"><ele>157.83333333333331</ele><time>2026-04-18T09:31:39Z</time></trkpt><trkpt lat="45.01734025494593" lon="8.218353467963702"><ele>158.0</ele><time>2026-04-18T09:31:40Z</time></trkpt><trkpt lat="45.017451111831896" lon="8.218305961567086"><ele>158.33333333333331</ele><time>2026-04-18T09:31:42Z</time></trkpt><trkpt lat="45.01754529545557" lon="8.218264420291424"><ele>158.66666666666666</ele><time>2026-04-18T09:31:44Z</time></trkpt><trkpt lat="45.01761053149085" lon="8.218235646887956"><ele>159.0</ele><time>2026-04-18T09:31:45Z</time></trkpt><trkpt lat="45.017674137219274" lon="8.218209713850465"><ele>159.33333333333334</ele><time>2026-04-18T09:31:46Z</time></trkpt><trkpt lat="45.01773669699631" lon="8.218183864505455"><ele>159.66666666666669</ele><time>2026-04-18T09:31:47Z</time></trkpt><trkpt lat="45.0178751137912" lon="8.218124719019949"><ele>160.0</ele><time>2026-04-18T09:31:49Z</time></trkpt><trkpt lat="45.01800144508827" lon="8.218067228413961"><ele>160.0</ele><time>2026-04-18T09:31:51Z</time></trkpt><trkpt lat="45.01811619142389" lon="8.21796766065972"><ele>160.0</ele><time>2026-04-18T09:31:53Z</time></trkpt><trkpt lat="45.01818276863408" lon="8.217885026708963"><ele>160.0</ele><time>2026-04-18T09:31:54Z</time></trkpt><trkpt lat="45.01824730176582" lon="8.21779877974233"><ele>160.0</ele><time>2026-04-18T09:31:55Z</time></trkpt><trkpt lat="45.018331122076724" lon="8.217695703307491"><ele>160.0</ele><time>2026-04-18T09:31:56Z</time></trkpt><trkpt lat="45.01839612078821" lon="8.217593284004781"><ele>158.0</ele><time>2026-04-18T09:31:57Z</time></trkpt><trkpt lat="45.01844785487149" lon="8.21749474918617"><ele>156.0</ele><time>2026-04-18T09:31:58Z</time></trkpt><trkpt lat="45.01830391783171" lon="8.216686470485103"><ele>156.16666666666666</ele><time>2026-04-18T09:31:59Z</time></trkpt><trkpt lat="45.01836496371955" lon="8.216602469400828"><ele>156.33333333333334</ele><time>2026-04-18T09:32:00Z</time></trkpt><trkpt lat="45.018420444694485" lon="8.216516188854643"><ele>156.5</ele><time>2026-04-18T09:32:01Z</time></trkpt><trkpt lat="45.01847386385543" lon="8.216433436668376"><ele>156.66666666666669</ele><time>2026-04-18T09:32:02Z</time></trkpt><trkpt lat="45.01851807168842" lon="8.21635004154535"><ele>156.83333333333334</ele><time>2026-04-18T09:32:03Z</time></trkpt><trkpt lat="45.01856659446227" lon="8.216252799082222"><ele>157.0</ele><time>2026-04-18T09:32:04Z</time></trkpt><trkpt lat="45.018640056515586" lon="8.216172068917171"><ele>157.0</ele><time>2026-04-18T09:32:05Z</time></trkpt><trkpt lat="45.01870997886633" lon="8.216083042297482"><ele>157.0</ele><time>2026-04-18T09:32:06Z</time></trkpt><trkpt lat="45.01875886807359" lon="8.215994462396162"><ele>157.0</ele><time>2026-04-18T09:32:07Z</time></trkpt><trkpt lat="45.01880507715242" lon="8.215929082374991"><ele>157.0</ele><time>2026-04-18T09:32:08Z</time></trkpt><trkpt lat="45.01886160427722" lon="8.215850636047259"><ele>157.0</ele><time>2026-04-18T09:32:09Z</time></trkpt><trkpt lat="45.01892308075929" lon="8.215779248246475"><ele>157.0</ele><time>2026-04-18T09:32:10Z</time></trkpt><trkpt lat="45.01899155221327" lon="8.215699481848821"><ele>157.33333333333334</ele><time>2026-04-18T09:32:11Z</time></trkpt><trkpt lat="45.019065541271665" lon="8.215625864824016"><ele>157.66666666666669</ele><time>2026-04-18T09:32:12Z</time></trkpt><trkpt lat="45.01913856334339" lon="8.215535560455775"><ele>158.0</ele><time>2026-04-18T09:32:13Z</time></trkpt><trkpt lat="45.01920441670684" lon="8.215449365678506"><ele>158.33333333333334</ele><time>2026-04-18T09:32:14Z</time></trkpt><trkpt lat="45.01925808739575" lon="8.215367645780393"><ele>158.66666666666666</ele><time>2026-04-18T09:32:15Z</time></trkpt><trkpt lat="45.019307064022584" lon="8.21529156353896"><ele>159.0</ele><time>2026-04-18T09:32:16Z</time></trkpt><trkpt lat="45.01936415416061" lon="8.21519774188798"><ele>159.2</ele><time>2026-04-18T09:32:17Z</time></trkpt><trkpt lat="45.01943071427389" lon="8.215097961034338"><ele>159.4</ele><time>2026-04-18T09:32:18Z</time></trkpt><trkpt lat="45.019493306156726" lon="8.21500578766116"><ele>159.6</ele><time>2026-04-18T09:32:19Z</time></trkpt><trkpt lat="45.01955334969839" lon="8.214903596321626"><ele>159.8</ele><time>2026-04-18T09:32:20Z</time></trkpt><trkpt lat="45.01961003377562" lon="8.214801280027109"><ele>160.0</ele><time>2026-04-18T09:32:21Z</time></trkpt><trkpt lat="45.01967274143191" lon="8.214699341231738"><ele>160.6</ele><time>2026-04-18T09:32:22Z</time></trkpt><trkpt lat="45.019740434066385" lon="8.214596485139484"><ele>161.2</ele><time>2026-04-18T09:32:23Z</time></trkpt><trkpt lat="45.01980780109324" lon="8.214488084756285"><ele>161.8</ele><time>2026-04-18T09:32:24Z</time></trkpt><trkpt lat="45.01987074669838" lon="8.214370875144873"><ele>162.4</ele><time>2026-04-18T09:32:25Z</time></trkpt><trkpt lat="45.019925405538544" lon="8.214247953638985"><ele>163.0</ele><time>2026-04-18T09:32:26Z</time></trkpt><trkpt lat="45.019981199413316" lon="8.214121263116096"><ele>163.2</ele><time>2026-04-18T09:32:27Z</time></trkpt><trkpt lat="45.0200318674594" lon="8.214005643768676"><ele>163.4</ele><time>2026-04-18T09:32:28Z</time></trkpt><trkpt lat="45.020086121329136" lon="8.213894413224507"><ele>163.6</ele><time>2026-04-18T09:32:29Z</time></trkpt><trkpt lat="45.020144421866185" lon="8.213801954262939"><ele>163.79999999999998</ele><time>2026-04-18T09:32:30Z</time></trkpt><trkpt lat="45.020227440974345" lon="8.213712650885007"><ele>164.0</ele><time>2026-04-18T09:32:31Z</time></trkpt><trkpt lat="45.02031609144196" lon="8.213637675827297"><ele>164.2</ele><time>2026-04-18T09:32:32Z</time></trkpt><trkpt lat="45.0204120025399" lon="8.213558662365772"><ele>164.39999999999998</ele><time>2026-04-18T09:32:33Z</time></trkpt><trkpt lat="45.02050802421678" lon="8.21350527808444"><ele>164.6</ele><time>2026-04-18T09:32:34Z</time></trkpt><trkpt lat="45.020594509950826" lon="8.213439310966795"><ele>164.8</ele><time>2026-04-18T09:32:35Z</time></trkpt><trkpt lat="45.02068824366897" lon="8.213370877078518"><ele>165.0</ele><time>2026-04-18T09:32:36Z</time></trkpt><trkpt lat="45.02078431102916" lon="8.213311636658322"><ele>163.4</ele><time>2026-04-18T09:32:37Z</time></trkpt><trkpt lat="45.02087534155372" lon="8.213251150183739"><ele>161.8</ele><time>2026-04-18T09:32:38Z</time></trkpt><trkpt lat="45.0209788986105" lon="8.213197764664063"><ele>160.2</ele><time>2026-04-18T09:32:39Z</time></trkpt><trkpt lat="45.021089145658514" lon="8.213139508520948"><ele>158.6</ele><time>2026-04-18T09:32:40Z</time></trkpt><trkpt lat="45.02119286460146" lon="8.213078158540034"><ele>157.0</ele><time>2026-04-18T09:32:41Z</time></trkpt><trkpt lat="45.02130268993734" lon="8.213007620248735"><ele>156.75</ele><time>2026-04-18T09:32:42Z</time></trkpt><trkpt lat="45.02140987427875" lon="8.212935896589537"><ele>156.5</ele><time>2026-04-18T09:32:43Z</time></trkpt><trkpt lat="45.021515816945325" lon="8.212855948379653"><ele>156.25</ele><time>2026-04-18T09:32:44Z</time></trkpt><trkpt lat="45.02162595412454" lon="8.212779715028871"><ele>156.0</ele><time>2026-04-18T09:32:45Z</time></trkpt><trkpt lat="45.02172740706528" lon="8.21269776263342"><ele>157.0</ele><time>2026-04-18T09:32:46Z</time></trkpt><trkpt lat="45.021828090793036" lon="8.212614187425212"><ele>158.0</ele><time>2026-04-18T09:32:47Z</time></trkpt><trkpt lat="45.02193005065857" lon="8.212524917138875"><ele>159.0</ele><time>2026-04-18T09:32:48Z</time></trkpt><trkpt lat="45.022032699225676" lon="8.212428400328516"><ele>160.0</ele><time>2026-04-18T09:32:49Z</time></trkpt><trkpt lat="45.022129850442646" lon="8.21233438531485"><ele>160.2</ele><time>2026-04-18T09:32:50Z</time></trkpt><trkpt lat="45.022230932885755" lon="8.212233615527772"><ele>160.4</ele><time>2026-04-18T09:32:51Z</time></trkpt><trkpt lat="45.02231094561085" lon="8.212154047514508"><ele>160.60000000000002</ele><time>2026-04-18T09:32:52Z</time></trkpt><trkpt lat="45.022388783157176" lon="8.212064661734503"><ele>160.8</ele><time>2026-04-18T09:32:53Z</time></trkpt><trkpt lat="45.02247622063616" lon="8.211975055696323"><ele>161.0</ele><time>2026-04-18T09:32:54Z</time></trkpt><trkpt lat="45.02257228514569" lon="8.211896502364048"><ele>161.0</ele><time>2026-04-18T09:32:55Z</time></trkpt><trkpt lat="45.02266970481219" lon="8.211815348535175"><ele>161.0</ele><time>2026-04-18T09:32:56Z</time></trkpt><trkpt lat="45.022770169886655" lon="8.211734320444132"><ele>161.0</ele><time>2026-04-18T09:32:57Z</time></trkpt><trkpt lat="45.02286630217381" lon="8.211661198795609"><ele>161.0</ele><time>2026-04-18T09:32:58Z</time></trkpt><trkpt lat="45.02296569474667" lon="8.211582578775884"><ele>161.0</ele><time>2026-04-18T09:32:59Z</time></trkpt><trkpt lat="45.02306478741089" lon="8.21150568861421"><ele>161.0</ele><time>2026-04-18T09:33:00Z</time></trkpt><trkpt lat="45.023163094240175" lon="8.211439932415573"><ele>161.0</ele><time>2026-04-18T09:33:01Z</time></trkpt><trkpt lat="45.02327616997811" lon="8.2113742698577"><ele>161.0</ele><time>2026-04-18T09:33:02Z</time></trkpt><trkpt lat="45.02339489781044" lon="8.21130446604244"><ele>161.5</ele><time>2026-04-18T09:33:03Z</time></trkpt><trkpt lat="45.02351154438755" lon="8.21123450780001"><ele>162.0</ele><time>2026-04-18T09:33:04Z</time></trkpt><trkpt lat="45.02361934478651" lon="8.211157290011307"><ele>162.5</ele><time>2026-04-18T09:33:05Z</time></trkpt><trkpt lat="45.02371957590433" lon="8.211089615985008"><ele>163.0</ele><time>2026-04-18T09:33:06Z</time></trkpt><trkpt lat="45.02381757393132" lon="8.211008306102638"><ele>163.0</ele><time>2026-04-18T09:33:07Z</time></trkpt><trkpt lat="45.02391603898427" lon="8.210931896426406"><ele>163.0</ele><time>2026-04-18T09:33:08Z</time></trkpt><trkpt lat="45.02400453179905" lon="8.210860603116734"><ele>163.0</ele><time>2026-04-18T09:33:09Z</time></trkpt><trkpt lat="45.0240748110549" lon="8.210798540242587"><ele>163.0</ele><time>2026-04-18T09:33:10Z</time></trkpt><trkpt lat="45.02416257370401" lon="8.210752103675116"><ele>163.0</ele><time>2026-04-18T09:33:11Z</time></trkpt><trkpt lat="45.02426334710533" lon="8.210726638201919"><ele>163.0</ele><time>2026-04-18T09:33:12Z</time></trkpt><trkpt lat="45.02437392288906" lon="8.210711495885265"><ele>163.0</ele><time>2026-04-18T09:33:13Z</time></trkpt><trkpt lat="45.024486124212864" lon="8.210685750810281"><ele>163.0</ele><time>2026-04-18T09:33:14Z</time></trkpt><trkpt lat="45.02460289776255" lon="8.210665006910215"><ele>163.0</ele><time>2026-04-18T09:33:15Z</time></trkpt><trkpt lat="45.0247195769507" lon="8.210650895979908"><ele>162.8</ele><time>2026-04-18T09:33:16Z</time></trkpt><trkpt lat="45.024835356921514" lon="8.210642395146296"><ele>162.60000000000002</ele><time>2026-04-18T09:33:17Z</time></trkpt><trkpt lat="45.02494919474111" lon="8.210644660483506"><ele>162.39999999999998</ele><time>2026-04-18T09:33:18Z</time></trkpt><trkpt lat="45.02505403488308" lon="8.210649865046244"><ele>162.2</ele><time>2026-04-18T09:33:19Z</time></trkpt><trkpt lat="45.02515848126125" lon="8.210659440130115"><ele>162.0</ele><time>2026-04-18T09:33:20Z</time></trkpt><trkpt lat="45.025266940616056" lon="8.210668563899631"><ele>162.0</ele><time>2026-04-18T09:33:21Z</time></trkpt><trkpt lat="45.02537736358678" lon="8.210671547574488"><ele>162.0</ele><time>2026-04-18T09:33:22Z</time></trkpt><trkpt lat="45.025479008136855" lon="8.210666934246548"><ele>162.0</ele><time>2026-04-18T09:33:23Z</time></trkpt><trkpt lat="45.02557999999786" lon="8.21066375635185"><ele>162.0</ele><time>2026-04-18T09:33:24Z</time></trkpt><trkpt lat="45.025688515170415" lon="8.210672466598771"><ele>162.0</ele><time>2026-04-18T09:33:25Z</time></trkpt><trkpt lat="45.025791377311414" lon="8.21068867366448"><ele>162.8</ele><time>2026-04-18T09:33:26Z</time></trkpt><trkpt lat="45.02589650725715" lon="8.210705028057834"><ele>163.6</ele><time>2026-04-18T09:33:27Z</time></trkpt><trkpt lat="45.02599794518936" lon="8.210721459216062"><ele>164.4</ele><time>2026-04-18T09:33:28Z</time></trkpt><trkpt lat="45.02610150299896" lon="8.210740151640673"><ele>165.20000000000002</ele><time>2026-04-18T09:33:29Z</time></trkpt><trkpt lat="45.026204873885675" lon="8.210763054858408"><ele>166.0</ele><time>2026-04-18T09:33:30Z</time></trkpt><trkpt lat="45.0263119990826" lon="8.210781136854157"><ele>166.0</ele><time>2026-04-18T09:33:31Z</time></trkpt><trkpt lat="45.02642143391188" lon="8.210794131410982"><ele>166.0</ele><time>2026-04-18T09:33:32Z</time></trkpt><trkpt lat="45.026532758724706" lon="8.21080179384013"><ele>166.0</ele><time>2026-04-18T09:33:33Z</time></trkpt><trkpt lat="45.026642281113745" lon="8.21080171176981"><ele>166.0</ele><time>2026-04-18T09:33:34Z</time></trkpt><trkpt lat="45.026749960220975" lon="8.210796692996505"><ele>166.0</ele><time>2026-04-18T09:33:35Z</time></trkpt><trkpt lat="45.026852094350275" lon="8.210797969733223"><ele>166.0</ele><time>2026-04-18T09:33:36Z</time></trkpt><trkpt lat="45.026941246715964" lon="8.210795857176036"><ele>166.0</ele><time>2026-04-18T09:33:37Z</time></trkpt><trkpt lat="45.027016869694755" lon="8.210792358423872"><ele>166.0</ele><time>2026-04-18T09:33:38Z</time></trkpt><trkpt lat="45.02708534401693" lon="8.210792542436526"><ele>166.0</ele><time>2026-04-18T09:33:39Z</time></trkpt><trkpt lat="45.02718906823659" lon="8.210769095977216"><ele>166.0</ele><time>2026-04-18T09:33:41Z</time></trkpt><trkpt lat="45.02723221700756" lon="8.210627978975895"><ele>166.0</ele><time>2026-04-18T09:33:43Z</time></trkpt><trkpt lat="45.02722922060604" lon="8.210526520881716"><ele>166.0</ele><time>2026-04-18T09:33:44Z</time></trkpt><trkpt lat="45.02721363252476" lon="8.210414303998041"><ele>166.0</ele><time>2026-04-18T09:33:45Z</time></trkpt><trkpt lat="45.0272030556052" lon="8.210291941225389"><ele>166.0</ele><time>2026-04-18T09:33:46Z</time></trkpt><trkpt lat="45.02720424922617" lon="8.210159101635979"><ele>166.0</ele><time>2026-04-18T09:33:47Z</time></trkpt><trkpt lat="45.027199628717796" lon="8.210032973596382"><ele>166.0</ele><time>2026-04-18T09:33:48Z</time></trkpt><trkpt lat="45.02719655468947" lon="8.209905674439337"><ele>166.0</ele><time>2026-04-18T09:33:49Z</time></trkpt><trkpt lat="45.02718887803855" lon="8.20977854750793"><ele>166.4</ele><time>2026-04-18T09:33:50Z</time></trkpt><trkpt lat="45.02718164878819" lon="8.20963863502686"><ele>166.8</ele><time>2026-04-18T09:33:51Z</time></trkpt><trkpt lat="45.02718455788838" lon="8.209524192254735"><ele>167.20000000000002</ele><time>2026-04-18T09:33:52Z</time></trkpt><trkpt lat="45.02718451061165" lon="8.209385192374125"><ele>167.60000000000002</ele><time>2026-04-18T09:33:53Z</time></trkpt><trkpt lat="45.027170590723024" lon="8.20925014693064"><ele>168.0</ele><time>2026-04-18T09:33:54Z</time></trkpt><trkpt lat="45.027175443464856" lon="8.209105150898303"><ele>168.5</ele><time>2026-04-18T09:33:55Z</time></trkpt><trkpt lat="45.02719055412439" lon="8.20897742233218"><ele>169.0</ele><time>2026-04-18T09:33:56Z</time></trkpt><trkpt lat="45.02717214311986" lon="8.208882538823838"><ele>169.5</ele><time>2026-04-18T09:33:57Z</time></trkpt><trkpt lat="45.02715759343656" lon="8.208721629207112"><ele>170.0</ele><time>2026-04-18T09:33:59Z</time></trkpt><trkpt lat="45.02714524503122" lon="8.208615818174108"><ele>170.5</ele><time>2026-04-18T09:34:00Z</time></trkpt><trkpt lat="45.02713611506749" lon="8.208521386777958"><ele>171.0</ele><time>2026-04-18T09:34:01Z</time></trkpt><trkpt lat="45.02710385136473" lon="8.208352225228262"><ele>171.0</ele><time>2026-04-18T09:34:03Z</time></trkpt><trkpt lat="45.02706522125447" lon="8.208174269396544"><ele>171.0</ele><time>2026-04-18T09:34:05Z</time></trkpt><trkpt lat="45.02705608445001" lon="8.208070352800231"><ele>171.0</ele><time>2026-04-18T09:34:06Z</time></trkpt><trkpt lat="45.02703208281587" lon="8.207927952992204"><ele>171.0</ele><time>2026-04-18T09:34:08Z</time></trkpt><trkpt lat="45.02701262301258" lon="8.207809640827193"><ele>171.0</ele><time>2026-04-18T09:34:10Z</time></trkpt><trkpt lat="45.02704592373057" lon="8.207720923093147"><ele>171.16666666666666</ele><time>2026-04-18T09:34:19Z</time></trkpt><trkpt lat="45.02711979827592" lon="8.20763034214243"><ele>171.33333333333334</ele><time>2026-04-18T09:34:21Z</time></trkpt><trkpt lat="45.027200364707326" lon="8.207535062440803"><ele>171.5</ele><time>2026-04-18T09:34:23Z</time></trkpt><trkpt lat="45.02726187007434" lon="8.207500627409624"><ele>171.66666666666669</ele><time>2026-04-18T09:34:24Z</time></trkpt><trkpt lat="45.02729248247896" lon="8.207391655530197"><ele>171.83333333333334</ele><time>2026-04-18T09:34:25Z</time></trkpt><trkpt lat="45.027322192225874" lon="8.207303738047921"><ele>172.0</ele><time>2026-04-18T09:34:26Z</time></trkpt><trkpt lat="45.027362226705876" lon="8.207228393474793"><ele>171.57142857142858</ele><time>2026-04-18T09:34:27Z</time></trkpt><trkpt lat="45.02739281300401" lon="8.207146904365821"><ele>171.14285714285714</ele><time>2026-04-18T09:34:28Z</time></trkpt><trkpt lat="45.0274592250567" lon="8.207123271904493"><ele>170.71428571428572</ele><time>2026-04-18T09:34:29Z</time></trkpt><trkpt lat="45.02750782194505" lon="8.207044495850297"><ele>170.28571428571428</ele><time>2026-04-18T09:34:30Z</time></trkpt><trkpt lat="45.027553878304914" lon="8.206954656818446"><ele>169.85714285714286</ele><time>2026-04-18T09:34:31Z</time></trkpt><trkpt lat="45.027605467765696" lon="8.206869873225047"><ele>169.42857142857144</ele><time>2026-04-18T09:34:32Z</time></trkpt><trkpt lat="45.027658068258404" lon="8.206784424381885"><ele>169.0</ele><time>2026-04-18T09:34:33Z</time></trkpt><trkpt lat="45.02771389047204" lon="8.20668222520277"><ele>170.33333333333334</ele><time>2026-04-18T09:34:34Z</time></trkpt><trkpt lat="45.02776786394546" lon="8.206601672876875"><ele>171.66666666666669</ele><time>2026-04-18T09:34:35Z</time></trkpt><trkpt lat="45.027820682652106" lon="8.206514007114416"><ele>173.0</ele><time>2026-04-18T09:34:36Z</time></trkpt><trkpt lat="45.02787361604712" lon="8.206437939889463"><ele>174.33333333333334</ele><time>2026-04-18T09:34:37Z</time></trkpt><trkpt lat="45.027953594655926" lon="8.206391270532977"><ele>175.66666666666666</ele><time>2026-04-18T09:34:38Z</time></trkpt><trkpt lat="45.028045722598215" lon="8.206350109074714"><ele>177.0</ele><time>2026-04-18T09:34:39Z</time></trkpt><trkpt lat="45.02811674741254" lon="8.206266923283842"><ele>177.0</ele><time>2026-04-18T09:34:40Z</time></trkpt><trkpt lat="45.028213322790805" lon="8.206205400588646"><ele>177.0</ele><time>2026-04-18T09:34:41Z</time></trkpt><trkpt lat="45.028302688062865" lon="8.2061262710034"><ele>177.0</ele><time>2026-04-18T09:34:42Z</time></trkpt><trkpt lat="45.02838216300729" lon="8.206059408067304"><ele>177.0</ele><time>2026-04-18T09:34:43Z</time></trkpt><trkpt lat="45.02846327897086" lon="8.20598083642476"><ele>177.0</ele><time>2026-04-18T09:34:44Z</time></trkpt><trkpt lat="45.02854986929425" lon="8.205891403693025"><ele>178.39999999999998</ele><time>2026-04-18T09:34:45Z</time></trkpt><trkpt lat="45.0286265079371" lon="8.205791307805708"><ele>179.79999999999998</ele><time>2026-04-18T09:34:46Z</time></trkpt><trkpt lat="45.02869864966679" lon="8.205690736959072"><ele>181.2</ele><time>2026-04-18T09:34:47Z</time></trkpt><trkpt lat="45.02877187376648" lon="8.205595076307297"><ele>182.6</ele><time>2026-04-18T09:34:48Z</time></trkpt><trkpt lat="45.02885886620214" lon="8.205492250572663"><ele>184.0</ele><time>2026-04-18T09:34:49Z</time></trkpt><trkpt lat="45.028940078546704" lon="8.205393134082238"><ele>184.0</ele><time>2026-04-18T09:34:50Z</time></trkpt><trkpt lat="45.029011708129495" lon="8.205284424304448"><ele>184.0</ele><time>2026-04-18T09:34:51Z</time></trkpt><trkpt lat="45.029082121750164" lon="8.20518521170579"><ele>184.0</ele><time>2026-04-18T09:34:52Z</time></trkpt><trkpt lat="45.029149851216" lon="8.205081907154195"><ele>184.0</ele><time>2026-04-18T09:34:53Z</time></trkpt><trkpt lat="45.029207432076525" lon="8.20497108251299"><ele>184.0</ele><time>2026-04-18T09:34:54Z</time></trkpt><trkpt lat="45.029259065922886" lon="8.204848648231629"><ele>187.39999999999998</ele><time>2026-04-18T09:34:55Z</time></trkpt><trkpt lat="45.02930792907947" lon="8.204719684127342"><ele>190.8</ele><time>2026-04-18T09:34:56Z</time></trkpt><trkpt lat="45.02933224586652" lon="8.20457617076313"><ele>194.2</ele><time>2026-04-18T09:34:57Z</time></trkpt><trkpt lat="45.02935402760642" lon="8.204430390564921"><ele>197.60000000000002</ele><time>2026-04-18T09:34:58Z</time></trkpt><trkpt lat="45.02937791375177" lon="8.204290366512328"><ele>201.0</ele><time>2026-04-18T09:34:59Z</time></trkpt><trkpt lat="45.029407847187166" lon="8.204141263359809"><ele>201.60000000000002</ele><time>2026-04-18T09:35:00Z</time></trkpt><trkpt lat="45.02943822062372" lon="8.203990689158411"><ele>202.2</ele><time>2026-04-18T09:35:01Z</time></trkpt><trkpt lat="45.02947719044368" lon="8.203835497530664"><ele>202.8</ele><time>2026-04-18T09:35:02Z</time></trkpt><trkpt lat="45.02951051779857" lon="8.203689902130236"><ele>203.39999999999998</ele><time>2026-04-18T09:35:03Z</time></trkpt><trkpt lat="45.029545263152784" lon="8.20354230802018"><ele>204.0</ele><time>2026-04-18T09:35:04Z</time></trkpt><trkpt lat="45.02957228930429" lon="8.203403848180523"><ele>204.0</ele><time>2026-04-18T09:35:05Z</time></trkpt><trkpt lat="45.02959415547362" lon="8.203280339404206"><ele>204.0</ele><time>2026-04-18T09:35:06Z</time></trkpt><trkpt lat="45.02962598103802" lon="8.20315408518718"><ele>204.0</ele><time>2026-04-18T09:35:07Z</time></trkpt><trkpt lat="45.029666896348566" lon="8.203030557781865"><ele>204.0</ele><time>2026-04-18T09:35:08Z</time></trkpt><trkpt lat="45.029721359925894" lon="8.202903617646896"><ele>204.0</ele><time>2026-04-18T09:35:09Z</time></trkpt><trkpt lat="45.029785488265425" lon="8.202760354562411"><ele>204.25</ele><time>2026-04-18T09:35:10Z</time></trkpt><trkpt lat="45.02985413690145" lon="8.202613281744359"><ele>204.5</ele><time>2026-04-18T09:35:11Z</time></trkpt><trkpt lat="45.02992791006237" lon="8.202472821277487"><ele>204.75</ele><time>2026-04-18T09:35:12Z</time></trkpt><trkpt lat="45.02999585232662" lon="8.202356602251557"><ele>205.0</ele><time>2026-04-18T09:35:13Z</time></trkpt><trkpt lat="45.030065350482424" lon="8.2022384879971"><ele>205.0</ele><time>2026-04-18T09:35:14Z</time></trkpt><trkpt lat="45.03013276069129" lon="8.202111163624359"><ele>205.0</ele><time>2026-04-18T09:35:15Z</time></trkpt><trkpt lat="45.030195783342855" lon="8.201968229709742"><ele>205.0</ele><time>2026-04-18T09:35:16Z</time></trkpt><trkpt lat="45.030250978978486" lon="8.201807912694324"><ele>205.0</ele><time>2026-04-18T09:35:17Z</time></trkpt><trkpt lat="45.030307517166385" lon="8.201649175639883"><ele>205.25</ele><time>2026-04-18T09:35:18Z</time></trkpt><trkpt lat="45.030356683167845" lon="8.201473029750893"><ele>205.5</ele><time>2026-04-18T09:35:19Z</time></trkpt><trkpt lat="45.030400137401934" lon="8.201315284998321"><ele>205.75</ele><time>2026-04-18T09:35:20Z</time></trkpt><trkpt lat="45.030442164804164" lon="8.201145301329507"><ele>206.0</ele><time>2026-04-18T09:35:21Z</time></trkpt><trkpt lat="45.03048953642087" lon="8.20098260955123"><ele>206.0</ele><time>2026-04-18T09:35:22Z</time></trkpt><trkpt lat="45.030533213639536" lon="8.200824243088245"><ele>206.0</ele><time>2026-04-18T09:35:23Z</time></trkpt><trkpt lat="45.030575191025804" lon="8.200687769878188"><ele>206.0</ele><time>2026-04-18T09:35:24Z</time></trkpt><trkpt lat="45.03062304992074" lon="8.200546333754263"><ele>206.0</ele><time>2026-04-18T09:35:25Z</time></trkpt><trkpt lat="45.03067074240584" lon="8.200399305696923"><ele>205.75</ele><time>2026-04-18T09:35:26Z</time></trkpt><trkpt lat="45.03071601539698" lon="8.200239760300455"><ele>205.5</ele><time>2026-04-18T09:35:27Z</time></trkpt><trkpt lat="45.03076206902993" lon="8.20008168484259"><ele>205.25</ele><time>2026-04-18T09:35:28Z</time></trkpt><trkpt lat="45.030810340329566" lon="8.199942010201555"><ele>205.0</ele><time>2026-04-18T09:35:29Z</time></trkpt><trkpt lat="45.03085900123981" lon="8.199795094988083"><ele>206.75</ele><time>2026-04-18T09:35:30Z</time></trkpt><trkpt lat="45.03091313755618" lon="8.19964571810354"><ele>208.5</ele><time>2026-04-18T09:35:31Z</time></trkpt><trkpt lat="45.0309684340972" lon="8.199501573369666"><ele>210.25</ele><time>2026-04-18T09:35:32Z</time></trkpt><trkpt lat="45.03102767579408" lon="8.199375616941518"><ele>212.0</ele><time>2026-04-18T09:35:33Z</time></trkpt><trkpt lat="45.0310990205136" lon="8.19925004381803"><ele>212.0</ele><time>2026-04-18T09:35:34Z</time></trkpt><trkpt lat="45.031182150968434" lon="8.199127614230282"><ele>212.0</ele><time>2026-04-18T09:35:35Z</time></trkpt><trkpt lat="45.03126504080495" lon="8.19901884040851"><ele>212.0</ele><time>2026-04-18T09:35:36Z</time></trkpt><trkpt lat="45.03135845282856" lon="8.198922152076962"><ele>212.0</ele><time>2026-04-18T09:35:37Z</time></trkpt><trkpt lat="45.0314562079567" lon="8.198827473645792"><ele>211.39999999999998</ele><time>2026-04-18T09:35:38Z</time></trkpt><trkpt lat="45.03154308645561" lon="8.198741431682624"><ele>210.79999999999998</ele><time>2026-04-18T09:35:39Z</time></trkpt><trkpt lat="45.03163199102404" lon="8.19864685793039"><ele>210.2</ele><time>2026-04-18T09:35:40Z</time></trkpt><trkpt lat="45.031719557061784" lon="8.198535374056537"><ele>209.6</ele><time>2026-04-18T09:35:41Z</time></trkpt><trkpt lat="45.03179340353824" lon="8.198430307073957"><ele>209.0</ele><time>2026-04-18T09:35:42Z</time></trkpt><trkpt lat="45.0318532790376" lon="8.198335230544304"><ele>210.39999999999998</ele><time>2026-04-18T09:35:43Z</time></trkpt><trkpt lat="45.0319352067233" lon="8.19819041384509"><ele>211.8</ele><time>2026-04-18T09:35:45Z</time></trkpt><trkpt lat="45.03198968561387" lon="8.198091806754135"><ele>213.20000000000002</ele><time>2026-04-18T09:35:46Z</time></trkpt><trkpt lat="45.032031240438876" lon="8.197975236675864"><ele>214.60000000000002</ele><time>2026-04-18T09:35:47Z</time></trkpt><trkpt lat="45.032068123021006" lon="8.197843449807294"><ele>216.0</ele><time>2026-04-18T09:35:48Z</time></trkpt><trkpt lat="45.032103086848885" lon="8.197718726645943"><ele>216.0</ele><time>2026-04-18T09:35:49Z</time></trkpt><trkpt lat="45.03213222466789" lon="8.197587064505418"><ele>216.00000000000003</ele><time>2026-04-18T09:35:50Z</time></trkpt><trkpt lat="45.032150583930836" lon="8.197455877765401"><ele>216.00000000000003</ele><time>2026-04-18T09:35:51Z</time></trkpt><trkpt lat="45.03216358194315" lon="8.197317945225967"><ele>216.0</ele><time>2026-04-18T09:35:52Z</time></trkpt><trkpt lat="45.03217732518704" lon="8.19717810535857"><ele>216.0</ele><time>2026-04-18T09:35:53Z</time></trkpt><trkpt lat="45.03220389149659" lon="8.197024287934717"><ele>215.20000000000002</ele><time>2026-04-18T09:35:54Z</time></trkpt><trkpt lat="45.03222181101001" lon="8.196866508110043"><ele>214.40000000000003</ele><time>2026-04-18T09:35:55Z</time></trkpt><trkpt lat="45.0322470550306" lon="8.196712010592382"><ele>213.6</ele><time>2026-04-18T09:35:56Z</time></trkpt><trkpt lat="45.03227095566016" lon="8.196571509516652"><ele>212.8</ele><time>2026-04-18T09:35:57Z</time></trkpt><trkpt lat="45.03230565916784" lon="8.196420761840056"><ele>212.0</ele><time>2026-04-18T09:35:58Z</time></trkpt><trkpt lat="45.032353436562246" lon="8.196274070675159"><ele>211.39999999999998</ele><time>2026-04-18T09:35:59Z</time></trkpt><trkpt lat="45.03241177856189" lon="8.196144909978818"><ele>210.79999999999998</ele><time>2026-04-18T09:36:00Z</time></trkpt><trkpt lat="45.03247407652833" lon="8.19601066328506"><ele>210.2</ele><time>2026-04-18T09:36:01Z</time></trkpt><trkpt lat="45.03253952412393" lon="8.195884975330323"><ele>209.6</ele><time>2026-04-18T09:36:02Z</time></trkpt><trkpt lat="45.03261264634387" lon="8.195767090869769"><ele>209.0</ele><time>2026-04-18T09:36:03Z</time></trkpt><trkpt lat="45.03267792884058" lon="8.19566472218423"><ele>210.79999999999998</ele><time>2026-04-18T09:36:04Z</time></trkpt><trkpt lat="45.03274821228047" lon="8.195585749563204"><ele>212.6</ele><time>2026-04-18T09:36:05Z</time></trkpt><trkpt lat="45.0328275782592" lon="8.195507198538014"><ele>214.4</ele><time>2026-04-18T09:36:06Z</time></trkpt><trkpt lat="45.03291576819703" lon="8.19543413136459"><ele>216.2</ele><time>2026-04-18T09:36:07Z</time></trkpt><trkpt lat="45.033007330315336" lon="8.195342695111252"><ele>218.0</ele><time>2026-04-18T09:36:08Z</time></trkpt><trkpt lat="45.03309175241894" lon="8.195258200054177"><ele>218.0</ele><time>2026-04-18T09:36:09Z</time></trkpt><trkpt lat="45.03318125348354" lon="8.195173610348068"><ele>218.0</ele><time>2026-04-18T09:36:10Z</time></trkpt><trkpt lat="45.033259272448724" lon="8.195072356174169"><ele>218.0</ele><time>2026-04-18T09:36:11Z</time></trkpt><trkpt lat="45.03333173484744" lon="8.194933883261612"><ele>218.0</ele><time>2026-04-18T09:36:12Z</time></trkpt><trkpt lat="45.03339688992733" lon="8.194778316373576"><ele>219.60000000000002</ele><time>2026-04-18T09:36:13Z</time></trkpt><trkpt lat="45.033452829514296" lon="8.19465903314782"><ele>221.20000000000002</ele><time>2026-04-18T09:36:14Z</time></trkpt><trkpt lat="45.03350624394594" lon="8.194542677273606"><ele>222.8</ele><time>2026-04-18T09:36:15Z</time></trkpt><trkpt lat="45.03355229946578" lon="8.194407906436323"><ele>224.4</ele><time>2026-04-18T09:36:16Z</time></trkpt><trkpt lat="45.033581800697064" lon="8.194240703437618"><ele>226.0</ele><time>2026-04-18T09:36:17Z</time></trkpt><trkpt lat="45.03359360814507" lon="8.194068308686873"><ele>225.25</ele><time>2026-04-18T09:36:18Z</time></trkpt><trkpt lat="45.0336099826546" lon="8.193895868092396"><ele>224.5</ele><time>2026-04-18T09:36:19Z</time></trkpt><trkpt lat="45.033631644033186" lon="8.193743983611787"><ele>223.75</ele><time>2026-04-18T09:36:20Z</time></trkpt><trkpt lat="45.03366636796847" lon="8.193584371158337"><ele>223.0</ele><time>2026-04-18T09:36:21Z</time></trkpt><trkpt lat="45.03369666298095" lon="8.193413274131247"><ele>223.0</ele><time>2026-04-18T09:36:22Z</time></trkpt><trkpt lat="45.033725799431835" lon="8.193265261815805"><ele>223.0</ele><time>2026-04-18T09:36:23Z</time></trkpt><trkpt lat="45.03375572087444" lon="8.193124945806163"><ele>223.0</ele><time>2026-04-18T09:36:24Z</time></trkpt><trkpt lat="45.03379255181723" lon="8.192990509820019"><ele>223.0</ele><time>2026-04-18T09:36:25Z</time></trkpt><trkpt lat="45.03384349604123" lon="8.192860791296868"><ele>223.0</ele><time>2026-04-18T09:36:26Z</time></trkpt><trkpt lat="45.03390553098642" lon="8.192730055226432"><ele>222.0</ele><time>2026-04-18T09:36:27Z</time></trkpt><trkpt lat="45.033977389094446" lon="8.192612137786005"><ele>221.0</ele><time>2026-04-18T09:36:28Z</time></trkpt><trkpt lat="45.034038972134724" lon="8.192491516090831"><ele>220.0</ele><time>2026-04-18T09:36:29Z</time></trkpt><trkpt lat="45.034114888210645" lon="8.192362418219236"><ele>219.0</ele><time>2026-04-18T09:36:30Z</time></trkpt><trkpt lat="45.03420550426716" lon="8.192248852651852"><ele>219.0</ele><time>2026-04-18T09:36:31Z</time></trkpt><trkpt lat="45.03430123500777" lon="8.192137274997373"><ele>219.0</ele><time>2026-04-18T09:36:32Z</time></trkpt><trkpt lat="45.034390732051584" lon="8.192044308112564"><ele>219.0</ele><time>2026-04-18T09:36:33Z</time></trkpt><trkpt lat="45.03448426997121" lon="8.191946244801668"><ele>219.0</ele><time>2026-04-18T09:36:34Z</time></trkpt><trkpt lat="45.034584858510065" lon="8.191843648098736"><ele>219.0</ele><time>2026-04-18T09:36:35Z</time></trkpt><trkpt lat="45.03468499134115" lon="8.191743507549571"><ele>218.99999999999997</ele><time>2026-04-18T09:36:36Z</time></trkpt><trkpt lat="45.03477181520428" lon="8.19166195548882"><ele>218.99999999999997</ele><time>2026-04-18T09:36:37Z</time></trkpt><trkpt lat="45.03486704591863" lon="8.191588874396002"><ele>219.0</ele><time>2026-04-18T09:36:38Z</time></trkpt><trkpt lat="45.034970305842" lon="8.191534618388516"><ele>219.0</ele><time>2026-04-18T09:36:39Z</time></trkpt><trkpt lat="45.035073365616284" lon="8.191479573021931"><ele>218.79999999999998</ele><time>2026-04-18T09:36:40Z</time></trkpt><trkpt lat="45.03516597315284" lon="8.191428102656225"><ele>218.59999999999997</ele><time>2026-04-18T09:36:41Z</time></trkpt><trkpt lat="45.035264706542954" lon="8.191381346419748"><ele>218.4</ele><time>2026-04-18T09:36:42Z</time></trkpt><trkpt lat="45.035368401346254" lon="8.191332048023563"><ele>218.2</ele><time>2026-04-18T09:36:43Z</time></trkpt><trkpt lat="45.03546732470932" lon="8.191280367755532"><ele>218.0</ele><time>2026-04-18T09:36:44Z</time></trkpt><trkpt lat="45.0355613102649" lon="8.191232946474678"><ele>218.0</ele><time>2026-04-18T09:36:45Z</time></trkpt><trkpt lat="45.035652204195394" lon="8.191186523803642"><ele>218.0</ele><time>2026-04-18T09:36:46Z</time></trkpt><trkpt lat="45.03574828834903" lon="8.191137358582354"><ele>218.0</ele><time>2026-04-18T09:36:47Z</time></trkpt><trkpt lat="45.03583823992279" lon="8.191094339121625"><ele>218.0</ele><time>2026-04-18T09:36:48Z</time></trkpt><trkpt lat="45.035938299562886" lon="8.191042966898959"><ele>218.0</ele><time>2026-04-18T09:36:49Z</time></trkpt><trkpt lat="45.03605055589364" lon="8.191041341317149"><ele>219.71428571428572</ele><time>2026-04-18T09:36:50Z</time></trkpt><trkpt lat="45.036129892581314" lon="8.19098341429199"><ele>221.42857142857144</ele><time>2026-04-18T09:36:51Z</time></trkpt><trkpt lat="45.03619687641422" lon="8.19093615576361"><ele>223.1428571428571</ele><time>2026-04-18T09:36:52Z</time></trkpt><trkpt lat="45.036256808522666" lon="8.190900580323524"><ele>224.85714285714283</ele><time>2026-04-18T09:36:53Z</time></trkpt><trkpt lat="45.03631995712272" lon="8.190878339473326"><ele>226.57142857142856</ele><time>2026-04-18T09:36:54Z</time></trkpt><trkpt lat="45.03638758614843" lon="8.19086435742678"><ele>228.28571428571425</ele><time>2026-04-18T09:36:55Z</time></trkpt><trkpt lat="45.03646072699309" lon="8.190864074244478"><ele>229.99999999999997</ele><time>2026-04-18T09:36:56Z</time></trkpt><trkpt lat="45.03653766032235" lon="8.190861849135034"><ele>230.0</ele><time>2026-04-18T09:36:57Z</time></trkpt><trkpt lat="45.03661592741534" lon="8.190859886212001"><ele>230.0</ele><time>2026-04-18T09:36:58Z</time></trkpt><trkpt lat="45.03670495214363" lon="8.190833702350337"><ele>230.0</ele><time>2026-04-18T09:36:59Z</time></trkpt><trkpt lat="45.03679773257097" lon="8.190850530723274"><ele>230.0</ele><time>2026-04-18T09:37:00Z</time></trkpt><trkpt lat="45.03690164539619" lon="8.190822595221888"><ele>230.0</ele><time>2026-04-18T09:37:01Z</time></trkpt><trkpt lat="45.03700261872441" lon="8.190806609007016"><ele>230.33333333333334</ele><time>2026-04-18T09:37:02Z</time></trkpt><trkpt lat="45.03708876044977" lon="8.190791279561319"><ele>230.66666666666669</ele><time>2026-04-18T09:37:03Z</time></trkpt><trkpt lat="45.03717549053233" lon="8.190799140504659"><ele>231.0</ele><time>2026-04-18T09:37:04Z</time></trkpt><trkpt lat="45.037250936633676" lon="8.190769790750483"><ele>231.33333333333331</ele><time>2026-04-18T09:37:05Z</time></trkpt><trkpt lat="45.03732345060884" lon="8.190749082204695"><ele>231.66666666666666</ele><time>2026-04-18T09:37:06Z</time></trkpt><trkpt lat="45.03743789505561" lon="8.190727572014472"><ele>232.0</ele><time>2026-04-18T09:37:08Z</time></trkpt><trkpt lat="45.03753198029762" lon="8.190686353310118"><ele>229.75</ele><time>2026-04-18T09:37:10Z</time></trkpt><trkpt lat="45.03762668843114" lon="8.190646120030921"><ele>227.5</ele><time>2026-04-18T09:37:12Z</time></trkpt><trkpt lat="45.037605066110515" lon="8.190392642576674"><ele>225.25</ele><time>2026-04-18T09:37:14Z</time></trkpt><trkpt lat="45.037599135065086" lon="8.190273532996315"><ele>223.0</ele><time>2026-04-18T09:37:15Z</time></trkpt><trkpt lat="45.03759429993719" lon="8.190149357737925"><ele>222.99999999999997</ele><time>2026-04-18T09:37:16Z</time></trkpt><trkpt lat="45.03759298531579" lon="8.19002330996454"><ele>223.0</ele><time>2026-04-18T09:37:17Z</time></trkpt><trkpt lat="45.03759018728725" lon="8.189900410975023"><ele>223.0</ele><time>2026-04-18T09:37:18Z</time></trkpt><trkpt lat="45.0375939082933" lon="8.189780892700206"><ele>223.0</ele><time>2026-04-18T09:37:19Z</time></trkpt><trkpt lat="45.037599074950656" lon="8.189670512470213"><ele>222.99999999999997</ele><time>2026-04-18T09:37:20Z</time></trkpt><trkpt lat="45.03761111102872" lon="8.189544082625995"><ele>223.0</ele><time>2026-04-18T09:37:21Z</time></trkpt><trkpt lat="45.03762948029405" lon="8.189419770074059"><ele>221.0</ele><time>2026-04-18T09:37:22Z</time></trkpt><trkpt lat="45.037655141532674" lon="8.18928962565267"><ele>219.0</ele><time>2026-04-18T09:37:23Z</time></trkpt><trkpt lat="45.037685346169134" lon="8.189161884746602"><ele>217.0</ele><time>2026-04-18T09:37:24Z</time></trkpt><trkpt lat="45.03772203418243" lon="8.18902561682413"><ele>215.0</ele><time>2026-04-18T09:37:25Z</time></trkpt><trkpt lat="45.037758490474246" lon="8.1888879532004"><ele>213.0</ele><time>2026-04-18T09:37:26Z</time></trkpt><trkpt lat="45.03779448808332" lon="8.18874655384679"><ele>212.2</ele><time>2026-04-18T09:37:27Z</time></trkpt><trkpt lat="45.03782809708928" lon="8.188607009557565"><ele>211.4</ele><time>2026-04-18T09:37:28Z</time></trkpt><trkpt lat="45.03785268613826" lon="8.188472877468755"><ele>210.6</ele><time>2026-04-18T09:37:29Z</time></trkpt><trkpt lat="45.03786615652477" lon="8.188334176810557"><ele>209.79999999999998</ele><time>2026-04-18T09:37:30Z</time></trkpt><trkpt lat="45.037872967229134" lon="8.18819384963659"><ele>209.0</ele><time>2026-04-18T09:37:31Z</time></trkpt><trkpt lat="45.03787101153798" lon="8.188057425870856"><ele>208.79999999999998</ele><time>2026-04-18T09:37:32Z</time></trkpt><trkpt lat="45.03785792989584" lon="8.187913500839255"><ele>208.6</ele><time>2026-04-18T09:37:33Z</time></trkpt><trkpt lat="45.03785370480729" lon="8.187770835453337"><ele>208.4</ele><time>2026-04-18T09:37:34Z</time></trkpt><trkpt lat="45.03784903000353" lon="8.187613535111584"><ele>208.2</ele><time>2026-04-18T09:37:35Z</time></trkpt><trkpt lat="45.037843773868225" lon="8.187465474108956"><ele>208.0</ele><time>2026-04-18T09:37:36Z</time></trkpt><trkpt lat="45.03783938183371" lon="8.187313309038583"><ele>208.4</ele><time>2026-04-18T09:37:37Z</time></trkpt><trkpt lat="45.03784314213691" lon="8.187157071237756"><ele>208.8</ele><time>2026-04-18T09:37:38Z</time></trkpt><trkpt lat="45.03784397522614" lon="8.187000477111773"><ele>209.2</ele><time>2026-04-18T09:37:39Z</time></trkpt><trkpt lat="45.0378356783578" lon="8.186843945981783"><ele>209.6</ele><time>2026-04-18T09:37:40Z</time></trkpt><trkpt lat="45.037838289642366" lon="8.186687793165023"><ele>210.0</ele><time>2026-04-18T09:37:41Z</time></trkpt><trkpt lat="45.03783802954484" lon="8.186527824775064"><ele>211.5</ele><time>2026-04-18T09:37:42Z</time></trkpt><trkpt lat="45.037843874138524" lon="8.186366058472409"><ele>213.0</ele><time>2026-04-18T09:37:43Z</time></trkpt><trkpt lat="45.03784595654876" lon="8.186213355530786"><ele>214.5</ele><time>2026-04-18T09:37:44Z</time></trkpt><trkpt lat="45.037852547379714" lon="8.186049191368562"><ele>216.0</ele><time>2026-04-18T09:37:45Z</time></trkpt><trkpt lat="45.03784564066179" lon="8.185879930531867"><ele>216.0</ele><time>2026-04-18T09:37:46Z</time></trkpt><trkpt lat="45.03785754947584" lon="8.185711539246853"><ele>216.0</ele><time>2026-04-18T09:37:47Z</time></trkpt><trkpt lat="45.03783566929249" lon="8.18555260111037"><ele>216.0</ele><time>2026-04-18T09:37:48Z</time></trkpt><trkpt lat="45.03782976697878" lon="8.185403967710313"><ele>216.0</ele><time>2026-04-18T09:37:49Z</time></trkpt><trkpt lat="45.03782938982979" lon="8.185247729306473"><ele>217.60000000000002</ele><time>2026-04-18T09:37:50Z</time></trkpt><trkpt lat="45.037847132613514" lon="8.185089778704093"><ele>219.20000000000002</ele><time>2026-04-18T09:37:51Z</time></trkpt><trkpt lat="45.037838969586524" lon="8.18494487708525"><ele>220.79999999999998</ele><time>2026-04-18T09:37:52Z</time></trkpt><trkpt lat="45.03785179916232" lon="8.184784952709318"><ele>222.39999999999998</ele><time>2026-04-18T09:37:53Z</time></trkpt><trkpt lat="45.03786621208478" lon="8.184623461171151"><ele>224.0</ele><time>2026-04-18T09:37:54Z</time></trkpt><trkpt lat="45.03788211247491" lon="8.184465089136735"><ele>225.00000000000003</ele><time>2026-04-18T09:37:55Z</time></trkpt><trkpt lat="45.03789300505961" lon="8.18431666755743"><ele>226.0</ele><time>2026-04-18T09:37:56Z</time></trkpt><trkpt lat="45.03790481552938" lon="8.184191323656698"><ele>227.0</ele><time>2026-04-18T09:37:57Z</time></trkpt><trkpt lat="45.03791506279685" lon="8.184076350739332"><ele>228.0</ele><time>2026-04-18T09:37:58Z</time></trkpt><trkpt lat="45.03792349428889" lon="8.18397233340362"><ele>229.00000000000003</ele><time>2026-04-18T09:37:59Z</time></trkpt><trkpt lat="45.03793933175758" lon="8.183849483420923"><ele>230.0</ele><time>2026-04-18T09:38:01Z</time></trkpt><trkpt lat="45.037953182293" lon="8.183744567770269"><ele>230.33333333333334</ele><time>2026-04-18T09:38:05Z</time></trkpt><trkpt lat="45.037960290336756" lon="8.183620444940413"><ele>230.66666666666669</ele><time>2026-04-18T09:38:07Z</time></trkpt><trkpt lat="45.037987693962975" lon="8.183534117006658"><ele>231.0</ele><time>2026-04-18T09:38:08Z</time></trkpt><trkpt lat="45.0379818379057" lon="8.183422869971634"><ele>231.33333333333331</ele><time>2026-04-18T09:38:09Z</time></trkpt><trkpt lat="45.03798193356118" lon="8.183293605327709"><ele>231.66666666666666</ele><time>2026-04-18T09:38:10Z</time></trkpt><trkpt lat="45.03795158994609" lon="8.183176430762243"><ele>232.0</ele><time>2026-04-18T09:38:11Z</time></trkpt><trkpt lat="45.037936839763766" lon="8.18304916432557"><ele>231.33333333333331</ele><time>2026-04-18T09:38:12Z</time></trkpt><trkpt lat="45.03794200000931" lon="8.182929131839277"><ele>230.66666666666666</ele><time>2026-04-18T09:38:13Z</time></trkpt><trkpt lat="45.037931823055324" lon="8.182815432464302"><ele>230.0</ele><time>2026-04-18T09:38:14Z</time></trkpt><trkpt lat="45.03792288018247" lon="8.18270420787808"><ele>229.33333333333331</ele><time>2026-04-18T09:38:15Z</time></trkpt><trkpt lat="45.037913745184305" lon="8.182596324717743"><ele>228.66666666666666</ele><time>2026-04-18T09:38:16Z</time></trkpt><trkpt lat="45.03790487579723" lon="8.182491578384521"><ele>228.0</ele><time>2026-04-18T09:38:17Z</time></trkpt><trkpt lat="45.03788836258189" lon="8.182296559452025"><ele>227.0</ele><time>2026-04-18T09:38:19Z</time></trkpt><trkpt lat="45.03786374892139" lon="8.182213322510616"><ele>226.0</ele><time>2026-04-18T09:38:20Z</time></trkpt><trkpt lat="45.037858401217754" lon="8.182053712499243"><ele>225.0</ele><time>2026-04-18T09:38:22Z</time></trkpt><trkpt lat="45.03783110019202" lon="8.181874176021715"><ele>224.0</ele><time>2026-04-18T09:38:24Z</time></trkpt><trkpt lat="45.03781357224886" lon="8.181781029358643"><ele>223.0</ele><time>2026-04-18T09:38:25Z</time></trkpt><trkpt lat="45.03775628039028" lon="8.181616641393987"><ele>223.0</ele><time>2026-04-18T09:38:27Z</time></trkpt><trkpt lat="45.03773156024501" lon="8.181517966517243"><ele>223.0</ele><time>2026-04-18T09:38:28Z</time></trkpt><trkpt lat="45.037721909404986" lon="8.181424191353576"><ele>223.0</ele><time>2026-04-18T09:38:29Z</time></trkpt><trkpt lat="45.037675925336416" lon="8.181256333391135"><ele>223.0</ele><time>2026-04-18T09:38:31Z</time></trkpt><trkpt lat="45.037642978183975" lon="8.181141402437353"><ele>223.0</ele><time>2026-04-18T09:38:32Z</time></trkpt><trkpt lat="45.03762124642219" lon="8.18100690057777"><ele>221.4</ele><time>2026-04-18T09:38:33Z</time></trkpt><trkpt lat="45.037595976571964" lon="8.180881381417354"><ele>219.8</ele><time>2026-04-18T09:38:34Z</time></trkpt><trkpt lat="45.037563366553464" lon="8.18074198174441"><ele>218.2</ele><time>2026-04-18T09:38:35Z</time></trkpt><trkpt lat="45.0375364486448" lon="8.180601012183743"><ele>216.6</ele><time>2026-04-18T09:38:36Z</time></trkpt><trkpt lat="45.037513862124804" lon="8.180455621691857"><ele>215.0</ele><time>2026-04-18T09:38:37Z</time></trkpt><trkpt lat="45.037491011211976" lon="8.180316390259541"><ele>214.8</ele><time>2026-04-18T09:38:38Z</time></trkpt><trkpt lat="45.03746261691876" lon="8.18018029081418"><ele>214.6</ele><time>2026-04-18T09:38:39Z</time></trkpt><trkpt lat="45.03743398156608" lon="8.180048434092763"><ele>214.39999999999998</ele><time>2026-04-18T09:38:40Z</time></trkpt><trkpt lat="45.037405450596104" lon="8.179915522727395"><ele>214.2</ele><time>2026-04-18T09:38:41Z</time></trkpt><trkpt lat="45.03737969558209" lon="8.179783257696867"><ele>214.0</ele><time>2026-04-18T09:38:42Z</time></trkpt><trkpt lat="45.03736310322348" lon="8.17964917566466"><ele>212.6</ele><time>2026-04-18T09:38:43Z</time></trkpt><trkpt lat="45.03735492300198" lon="8.17950224099548"><ele>211.2</ele><time>2026-04-18T09:38:44Z</time></trkpt><trkpt lat="45.03733698936041" lon="8.17935633596322"><ele>209.79999999999998</ele><time>2026-04-18T09:38:45Z</time></trkpt><trkpt lat="45.03731264299536" lon="8.179225899364603"><ele>208.39999999999998</ele><time>2026-04-18T09:38:46Z</time></trkpt><trkpt lat="45.03729181792614" lon="8.17909131142786"><ele>207.0</ele><time>2026-04-18T09:38:47Z</time></trkpt><trkpt lat="45.037270600294086" lon="8.178939191123138"><ele>206.39999999999998</ele><time>2026-04-18T09:38:48Z</time></trkpt><trkpt lat="45.037262202278264" lon="8.178786451402566"><ele>205.79999999999998</ele><time>2026-04-18T09:38:49Z</time></trkpt><trkpt lat="45.03725360786583" lon="8.178625151820299"><ele>205.2</ele><time>2026-04-18T09:38:50Z</time></trkpt><trkpt lat="45.037242257103834" lon="8.178490964734005"><ele>204.6</ele><time>2026-04-18T09:38:51Z</time></trkpt><trkpt lat="45.03722723480251" lon="8.17835899748558"><ele>204.0</ele><time>2026-04-18T09:38:52Z</time></trkpt><trkpt lat="45.03721250060983" lon="8.17820900441357"><ele>203.6</ele><time>2026-04-18T09:38:53Z</time></trkpt><trkpt lat="45.03719995483472" lon="8.178068058465382"><ele>203.2</ele><time>2026-04-18T09:38:54Z</time></trkpt><trkpt lat="45.037180070497556" lon="8.17791924109368"><ele>202.79999999999998</ele><time>2026-04-18T09:38:55Z</time></trkpt><trkpt lat="45.03716641331346" lon="8.177775444799046"><ele>202.39999999999998</ele><time>2026-04-18T09:38:56Z</time></trkpt><trkpt lat="45.037158847098695" lon="8.17763876831414"><ele>202.0</ele><time>2026-04-18T09:38:57Z</time></trkpt><trkpt lat="45.0371583917586" lon="8.177517124001655"><ele>202.0</ele><time>2026-04-18T09:38:58Z</time></trkpt><trkpt lat="45.0371368051547" lon="8.177378415383544"><ele>202.0</ele><time>2026-04-18T09:38:59Z</time></trkpt><trkpt lat="45.03711359788409" lon="8.177235007579151"><ele>202.0</ele><time>2026-04-18T09:39:00Z</time></trkpt><trkpt lat="45.037097929675184" lon="8.177101317558346"><ele>202.0</ele><time>2026-04-18T09:39:01Z</time></trkpt><trkpt lat="45.03707653865262" lon="8.176998752422001"><ele>202.0</ele><time>2026-04-18T09:39:02Z</time></trkpt><trkpt lat="45.037038787605866" lon="8.17690662586728"><ele>201.2</ele><time>2026-04-18T09:39:03Z</time></trkpt><trkpt lat="45.0369794815012" lon="8.176812562476881"><ele>200.39999999999998</ele><time>2026-04-18T09:39:04Z</time></trkpt><trkpt lat="45.03689391300343" lon="8.176704422027147"><ele>199.60000000000002</ele><time>2026-04-18T09:39:05Z</time></trkpt><trkpt lat="45.0368011549777" lon="8.176604204686033"><ele>198.8</ele><time>2026-04-18T09:39:06Z</time></trkpt><trkpt lat="45.03672378643202" lon="8.176516700108575"><ele>198.0</ele><time>2026-04-18T09:39:07Z</time></trkpt><trkpt lat="45.03665344970477" lon="8.176441055108164"><ele>196.5</ele><time>2026-04-18T09:39:08Z</time></trkpt><trkpt lat="45.03658496625348" lon="8.176375687610031"><ele>195.0</ele><time>2026-04-18T09:39:09Z</time></trkpt><trkpt lat="45.036520338445825" lon="8.176314334549014"><ele>193.5</ele><time>2026-04-18T09:39:10Z</time></trkpt><trkpt lat="45.03646427433051" lon="8.176243938765175"><ele>192.0</ele><time>2026-04-18T09:39:11Z</time></trkpt><trkpt lat="45.0364226639355" lon="8.176170644897965"><ele>190.5</ele><time>2026-04-18T09:39:12Z</time></trkpt><trkpt lat="45.03636673919322" lon="8.176082125097645"><ele>189.0</ele><time>2026-04-18T09:39:13Z</time></trkpt><trkpt lat="45.03629414454988" lon="8.17598718918223"><ele>189.0</ele><time>2026-04-18T09:39:14Z</time></trkpt><trkpt lat="45.036224157697596" lon="8.175892289597025"><ele>189.0</ele><time>2026-04-18T09:39:15Z</time></trkpt><trkpt lat="45.03616763828873" lon="8.17580323009066"><ele>189.0</ele><time>2026-04-18T09:39:16Z</time></trkpt><trkpt lat="45.03611442581071" lon="8.175721292533183"><ele>189.0</ele><time>2026-04-18T09:39:17Z</time></trkpt><trkpt lat="45.036063844586785" lon="8.17562671816304"><ele>189.0</ele><time>2026-04-18T09:39:18Z</time></trkpt><trkpt lat="45.03602613536101" lon="8.175522802407775"><ele>189.0</ele><time>2026-04-18T09:39:19Z</time></trkpt><trkpt lat="45.03600529590331" lon="8.175396929720002"><ele>187.79999999999998</ele><time>2026-04-18T09:39:20Z</time></trkpt><trkpt lat="45.03600463470259" lon="8.175246417661885"><ele>186.6</ele><time>2026-04-18T09:39:21Z</time></trkpt><trkpt lat="45.036024392557955" lon="8.175069200673073"><ele>185.4</ele><time>2026-04-18T09:39:22Z</time></trkpt><trkpt lat="45.03603106131687" lon="8.174906944400286"><ele>184.2</ele><time>2026-04-18T09:39:23Z</time></trkpt><trkpt lat="45.03602953560736" lon="8.174766233503576"><ele>183.0</ele><time>2026-04-18T09:39:24Z</time></trkpt><trkpt lat="45.03602215247893" lon="8.174644177093983"><ele>182.2</ele><time>2026-04-18T09:39:25Z</time></trkpt><trkpt lat="45.03600819113915" lon="8.174547731545532"><ele>181.4</ele><time>2026-04-18T09:39:26Z</time></trkpt><trkpt lat="45.035980719482126" lon="8.174400832527068"><ele>180.6</ele><time>2026-04-18T09:39:28Z</time></trkpt><trkpt lat="45.03593970868401" lon="8.174325840340526"><ele>179.79999999999998</ele><time>2026-04-18T09:39:29Z</time></trkpt><trkpt lat="45.035874099708295" lon="8.17424015239306"><ele>179.0</ele><time>2026-04-18T09:39:30Z</time></trkpt><trkpt lat="45.035781032381415" lon="8.174133981459288"><ele>177.75</ele><time>2026-04-18T09:39:31Z</time></trkpt><trkpt lat="45.0356869006794" lon="8.173991846273628"><ele>176.5</ele><time>2026-04-18T09:39:32Z</time></trkpt><trkpt lat="45.03559496374383" lon="8.17383594881266"><ele>175.25</ele><time>2026-04-18T09:39:33Z</time></trkpt><trkpt lat="45.03550255914173" lon="8.173677701292807"><ele>174.0</ele><time>2026-04-18T09:39:34Z</time></trkpt><trkpt lat="45.03540483596306" lon="8.17350997832862"><ele>174.0</ele><time>2026-04-18T09:39:35Z</time></trkpt><trkpt lat="45.035307860574264" lon="8.173355017660679"><ele>174.0</ele><time>2026-04-18T09:39:36Z</time></trkpt><trkpt lat="45.03520150008832" lon="8.173214389003494"><ele>174.0</ele><time>2026-04-18T09:39:37Z</time></trkpt><trkpt lat="45.0350986363886" lon="8.173071281031149"><ele>174.0</ele><time>2026-04-18T09:39:38Z</time></trkpt><trkpt lat="45.03499549126837" lon="8.172936907682454"><ele>173.5</ele><time>2026-04-18T09:39:39Z</time></trkpt><trkpt lat="45.03489476763645" lon="8.172813635427788"><ele>173.0</ele><time>2026-04-18T09:39:40Z</time></trkpt><trkpt lat="45.03478293893939" lon="8.172700930382433"><ele>172.5</ele><time>2026-04-18T09:39:41Z</time></trkpt><trkpt lat="45.03466569085527" lon="8.172581605966725"><ele>172.0</ele><time>2026-04-18T09:39:42Z</time></trkpt><trkpt lat="45.03455163648074" lon="8.172477592346924"><ele>172.0</ele><time>2026-04-18T09:39:43Z</time></trkpt><trkpt lat="45.034430970621564" lon="8.17238351968605"><ele>172.0</ele><time>2026-04-18T09:39:44Z</time></trkpt><trkpt lat="45.0343256991834" lon="8.172304609294972"><ele>172.0</ele><time>2026-04-18T09:39:45Z</time></trkpt><trkpt lat="45.03423624774314" lon="8.172239293122944"><ele>172.0</ele><time>2026-04-18T09:39:46Z</time></trkpt><trkpt lat="45.034149928961845" lon="8.172147485564253"><ele>172.75</ele><time>2026-04-18T09:39:47Z</time></trkpt><trkpt lat="45.03405197275984" lon="8.172060389498563"><ele>173.5</ele><time>2026-04-18T09:39:48Z</time></trkpt><trkpt lat="45.03393580478187" lon="8.171960870240753"><ele>174.25</ele><time>2026-04-18T09:39:49Z</time></trkpt><trkpt lat="45.033825079411194" lon="8.17185821351053"><ele>175.0</ele><time>2026-04-18T09:39:50Z</time></trkpt><trkpt lat="45.0337150775157" lon="8.171757260303206"><ele>175.0</ele><time>2026-04-18T09:39:51Z</time></trkpt><trkpt lat="45.03360417244616" lon="8.171655896268943"><ele>175.0</ele><time>2026-04-18T09:39:52Z</time></trkpt><trkpt lat="45.033492492124935" lon="8.171551470458864"><ele>175.0</ele><time>2026-04-18T09:39:53Z</time></trkpt><trkpt lat="45.033370660074205" lon="8.171457346589861"><ele>175.0</ele><time>2026-04-18T09:39:54Z</time></trkpt><trkpt lat="45.03324591308595" lon="8.171379312790894"><ele>175.75</ele><time>2026-04-18T09:39:55Z</time></trkpt><trkpt lat="45.03311367564341" lon="8.171294747905556"><ele>176.5</ele><time>2026-04-18T09:39:56Z</time></trkpt><trkpt lat="45.03297655860515" lon="8.17119954395139"><ele>177.25</ele><time>2026-04-18T09:39:57Z</time></trkpt><trkpt lat="45.032853147910274" lon="8.171109215527826"><ele>178.0</ele><time>2026-04-18T09:39:58Z</time></trkpt><trkpt lat="45.032741841381416" lon="8.17101989955946"><ele>178.0</ele><time>2026-04-18T09:39:59Z</time></trkpt><trkpt lat="45.032638366146074" lon="8.17094311560632"><ele>178.0</ele><time>2026-04-18T09:40:00Z</time></trkpt><trkpt lat="45.03253684252343" lon="8.17085551404875"><ele>178.0</ele><time>2026-04-18T09:40:01Z</time></trkpt><trkpt lat="45.032447127360626" lon="8.170769556900519"><ele>178.0</ele><time>2026-04-18T09:40:02Z</time></trkpt><trkpt lat="45.0323463680384" lon="8.170659127733488"><ele>176.2</ele><time>2026-04-18T09:40:03Z</time></trkpt><trkpt lat="45.03225472017575" lon="8.1705738076924"><ele>174.4</ele><time>2026-04-18T09:40:04Z</time></trkpt><trkpt lat="45.03217446441093" lon="8.170497448684348"><ele>172.6</ele><time>2026-04-18T09:40:05Z</time></trkpt><trkpt lat="45.032099129172074" lon="8.170423789383657"><ele>170.79999999999998</ele><time>2026-04-18T09:40:06Z</time></trkpt><trkpt lat="45.032033311407254" lon="8.170360109814405"><ele>169.0</ele><time>2026-04-18T09:40:07Z</time></trkpt><trkpt lat="45.031973567224895" lon="8.170300021987455"><ele>169.0</ele><time>2026-04-18T09:40:08Z</time></trkpt><trkpt lat="45.03191714571599" lon="8.170240808150695"><ele>169.0</ele><time>2026-04-18T09:40:09Z</time></trkpt><trkpt lat="45.03187902629842" lon="8.170164523894872"><ele>169.0</ele><time>2026-04-18T09:40:10Z</time></trkpt><trkpt lat="45.0318696113207" lon="8.170051904727998"><ele>169.0</ele><time>2026-04-18T09:40:11Z</time></trkpt><trkpt lat="45.03190050064338" lon="8.169921307222564"><ele>169.0</ele><time>2026-04-18T09:40:12Z</time></trkpt><trkpt lat="45.031963957337375" lon="8.169793054911905"><ele>169.0</ele><time>2026-04-18T09:40:13Z</time></trkpt><trkpt lat="45.0320228004499" lon="8.169663180695096"><ele>168.79999999999998</ele><time>2026-04-18T09:40:14Z</time></trkpt><trkpt lat="45.03205017093616" lon="8.169526682092444"><ele>168.6</ele><time>2026-04-18T09:40:15Z</time></trkpt><trkpt lat="45.03207006774445" lon="8.169395039679381"><ele>168.4</ele><time>2026-04-18T09:40:16Z</time></trkpt><trkpt lat="45.03208201392707" lon="8.16925398567136"><ele>168.2</ele><time>2026-04-18T09:40:17Z</time></trkpt><trkpt lat="45.03209406458586" lon="8.16909655958427"><ele>168.0</ele><time>2026-04-18T09:40:18Z</time></trkpt><trkpt lat="45.03211798773387" lon="8.168925883362975"><ele>168.0</ele><time>2026-04-18T09:40:19Z</time></trkpt><trkpt lat="45.03215968883623" lon="8.168751688439155"><ele>168.0</ele><time>2026-04-18T09:40:20Z</time></trkpt><trkpt lat="45.03218261743107" lon="8.168612543748372"><ele>168.0</ele><time>2026-04-18T09:40:21Z</time></trkpt><trkpt lat="45.03219303662138" lon="8.168464662238922"><ele>168.0</ele><time>2026-04-18T09:40:22Z</time></trkpt><trkpt lat="45.03218595822644" lon="8.168303797064432"><ele>168.4</ele><time>2026-04-18T09:40:23Z</time></trkpt><trkpt lat="45.03216545706678" lon="8.168129803763883"><ele>168.8</ele><time>2026-04-18T09:40:24Z</time></trkpt><trkpt lat="45.03213562361704" lon="8.167970581445001"><ele>169.2</ele><time>2026-04-18T09:40:25Z</time></trkpt><trkpt lat="45.03211270045895" lon="8.167825093261024"><ele>169.6</ele><time>2026-04-18T09:40:26Z</time></trkpt><trkpt lat="45.03208422226151" lon="8.167718831864509"><ele>170.0</ele><time>2026-04-18T09:40:27Z</time></trkpt><trkpt lat="45.032034955691834" lon="8.167638170165285"><ele>170.0</ele><time>2026-04-18T09:40:28Z</time></trkpt><trkpt lat="45.031950256098035" lon="8.16754626768943"><ele>170.0</ele><time>2026-04-18T09:40:29Z</time></trkpt><trkpt lat="45.03186025062553" lon="8.16745921497082"><ele>170.0</ele><time>2026-04-18T09:40:30Z</time></trkpt><trkpt lat="45.0317674064336" lon="8.16736602389275"><ele>170.0</ele><time>2026-04-18T09:40:31Z</time></trkpt><trkpt lat="45.03167775469268" lon="8.167255735384222"><ele>170.0</ele><time>2026-04-18T09:40:32Z</time></trkpt><trkpt lat="45.03159264310271" lon="8.16714926424974"><ele>169.2</ele><time>2026-04-18T09:40:33Z</time></trkpt><trkpt lat="45.031498638637565" lon="8.167045538420622"><ele>168.4</ele><time>2026-04-18T09:40:34Z</time></trkpt><trkpt lat="45.03141307850704" lon="8.166936125345604"><ele>167.60000000000002</ele><time>2026-04-18T09:40:35Z</time></trkpt><trkpt lat="45.03133781827914" lon="8.166832398608681"><ele>166.8</ele><time>2026-04-18T09:40:36Z</time></trkpt><trkpt lat="45.031285317812376" lon="8.166737940901147"><ele>166.0</ele><time>2026-04-18T09:40:37Z</time></trkpt><trkpt lat="45.03124482792448" lon="8.166620438713329"><ele>166.5</ele><time>2026-04-18T09:40:38Z</time></trkpt><trkpt lat="45.03120536234164" lon="8.166468198150696"><ele>167.0</ele><time>2026-04-18T09:40:39Z</time></trkpt><trkpt lat="45.03115735873024" lon="8.166306713339516"><ele>167.5</ele><time>2026-04-18T09:40:40Z</time></trkpt><trkpt lat="45.03110801001221" lon="8.166164621289441"><ele>168.0</ele><time>2026-04-18T09:40:41Z</time></trkpt><trkpt lat="45.031054049659694" lon="8.166023635186637"><ele>168.0</ele><time>2026-04-18T09:40:42Z</time></trkpt><trkpt lat="45.030996220635366" lon="8.165884269740616"><ele>168.0</ele><time>2026-04-18T09:40:43Z</time></trkpt><trkpt lat="45.03093737711921" lon="8.165752037446198"><ele>168.0</ele><time>2026-04-18T09:40:44Z</time></trkpt><trkpt lat="45.03086777993609" lon="8.16562739393462"><ele>168.0</ele><time>2026-04-18T09:40:45Z</time></trkpt><trkpt lat="45.03080620291779" lon="8.165531400293398"><ele>168.0</ele><time>2026-04-18T09:40:46Z</time></trkpt><trkpt lat="45.030747980873706" lon="8.16543988303834"><ele>167.2</ele><time>2026-04-18T09:40:47Z</time></trkpt><trkpt lat="45.0306985553387" lon="8.165342656223238"><ele>166.4</ele><time>2026-04-18T09:40:48Z</time></trkpt><trkpt lat="45.030637618472745" lon="8.165244320849094"><ele>165.6</ele><time>2026-04-18T09:40:49Z</time></trkpt><trkpt lat="45.03056981012722" lon="8.16513477532646"><ele>164.79999999999998</ele><time>2026-04-18T09:40:50Z</time></trkpt><trkpt lat="45.03050535504549" lon="8.165025956305458"><ele>164.0</ele><time>2026-04-18T09:40:51Z</time></trkpt><trkpt lat="45.03045956103503" lon="8.16494519675294"><ele>164.0</ele><time>2026-04-18T09:40:52Z</time></trkpt><trkpt lat="45.03041613936352" lon="8.164871369894627"><ele>164.0</ele><time>2026-04-18T09:40:53Z</time></trkpt><trkpt lat="45.03037223828352" lon="8.164706547014195"><ele>164.0</ele><time>2026-04-18T09:40:55Z</time></trkpt><trkpt lat="45.03036735002642" lon="8.16457401366218"><ele>164.0</ele><time>2026-04-18T09:40:56Z</time></trkpt><trkpt lat="45.03036938978073" lon="8.164433658992964"><ele>164.0</ele><time>2026-04-18T09:40:57Z</time></trkpt><trkpt lat="45.03036851279343" lon="8.164314882836877"><ele>163.83333333333331</ele><time>2026-04-18T09:40:58Z</time></trkpt><trkpt lat="45.030368533021324" lon="8.16419491752531"><ele>163.66666666666666</ele><time>2026-04-18T09:40:59Z</time></trkpt><trkpt lat="45.03037497396414" lon="8.164062757115177"><ele>163.5</ele><time>2026-04-18T09:41:00Z</time></trkpt><trkpt lat="45.03038312151434" lon="8.163932789025111"><ele>163.33333333333334</ele><time>2026-04-18T09:41:01Z</time></trkpt><trkpt lat="45.03039104074369" lon="8.163819787167485"><ele>163.16666666666669</ele><time>2026-04-18T09:41:02Z</time></trkpt><trkpt lat="45.030404727086434" lon="8.163717551559776"><ele>163.0</ele><time>2026-04-18T09:41:03Z</time></trkpt><trkpt lat="45.03041892738651" lon="8.163605398912464"><ele>163.0</ele><time>2026-04-18T09:41:04Z</time></trkpt><trkpt lat="45.03043788018975" lon="8.163503886876594"><ele>163.0</ele><time>2026-04-18T09:41:05Z</time></trkpt><trkpt lat="45.03047287041268" lon="8.163388178168164"><ele>163.0</ele><time>2026-04-18T09:41:06Z</time></trkpt><trkpt lat="45.030511836089545" lon="8.16328059366611"><ele>163.0</ele><time>2026-04-18T09:41:07Z</time></trkpt><trkpt lat="45.03056373625779" lon="8.16317915994191"><ele>163.0</ele><time>2026-04-18T09:41:08Z</time></trkpt><trkpt lat="45.03061628156351" lon="8.163070303004362"><ele>163.0</ele><time>2026-04-18T09:41:09Z</time></trkpt><trkpt lat="45.03067489810541" lon="8.16295564516303"><ele>163.2</ele><time>2026-04-18T09:41:10Z</time></trkpt><trkpt lat="45.03075728805583" lon="8.162837558465522"><ele>163.4</ele><time>2026-04-18T09:41:11Z</time></trkpt><trkpt lat="45.030833945412894" lon="8.162726988758164"><ele>163.6</ele><time>2026-04-18T09:41:12Z</time></trkpt><trkpt lat="45.03091398802819" lon="8.162635623710852"><ele>163.79999999999998</ele><time>2026-04-18T09:41:13Z</time></trkpt><trkpt lat="45.031005265704465" lon="8.162558576207598"><ele>164.0</ele><time>2026-04-18T09:41:14Z</time></trkpt><trkpt lat="45.03110278013016" lon="8.162490994275485"><ele>164.0</ele><time>2026-04-18T09:41:15Z</time></trkpt><trkpt lat="45.03121029116381" lon="8.162425956890687"><ele>164.0</ele><time>2026-04-18T09:41:16Z</time></trkpt><trkpt lat="45.03130701437854" lon="8.162371946724754"><ele>164.0</ele><time>2026-04-18T09:41:17Z</time></trkpt><trkpt lat="45.031395616807096" lon="8.162312920315657"><ele>164.0</ele><time>2026-04-18T09:41:18Z</time></trkpt><trkpt lat="45.031465347098404" lon="8.162277984405389"><ele>164.0</ele><time>2026-04-18T09:41:19Z</time></trkpt><trkpt lat="45.03154373712182" lon="8.162216940313188"><ele>163.79999999999998</ele><time>2026-04-18T09:41:20Z</time></trkpt><trkpt lat="45.03165148886361" lon="8.162170524230179"><ele>163.6</ele><time>2026-04-18T09:41:21Z</time></trkpt><trkpt lat="45.03174531955464" lon="8.162130182036622"><ele>163.4</ele><time>2026-04-18T09:41:22Z</time></trkpt><trkpt lat="45.031847249410646" lon="8.162089204967433"><ele>163.2</ele><time>2026-04-18T09:41:23Z</time></trkpt><trkpt lat="45.031957800855004" lon="8.16204906163293"><ele>163.0</ele><time>2026-04-18T09:41:24Z</time></trkpt><trkpt lat="45.03205784965857" lon="8.1620094333411"><ele>163.0</ele><time>2026-04-18T09:41:25Z</time></trkpt><trkpt lat="45.03216747563848" lon="8.16196582303827"><ele>163.0</ele><time>2026-04-18T09:41:26Z</time></trkpt><trkpt lat="45.03227278700869" lon="8.161936931691349"><ele>163.0</ele><time>2026-04-18T09:41:27Z</time></trkpt><trkpt lat="45.03238422732757" lon="8.16190328774182"><ele>163.0</ele><time>2026-04-18T09:41:28Z</time></trkpt><trkpt lat="45.03249116312388" lon="8.161869479160032"><ele>163.0</ele><time>2026-04-18T09:41:29Z</time></trkpt><trkpt lat="45.032602504173205" lon="8.161836562115774"><ele>163.2</ele><time>2026-04-18T09:41:30Z</time></trkpt><trkpt lat="45.03271418039201" lon="8.161797397473253"><ele>163.4</ele><time>2026-04-18T09:41:31Z</time></trkpt><trkpt lat="45.0328208236207" lon="8.161748895958382"><ele>163.6</ele><time>2026-04-18T09:41:32Z</time></trkpt><trkpt lat="45.032927005342394" lon="8.161716298791925"><ele>163.79999999999998</ele><time>2026-04-18T09:41:33Z</time></trkpt><trkpt lat="45.03302597189499" lon="8.161670832841939"><ele>164.0</ele><time>2026-04-18T09:41:34Z</time></trkpt><trkpt lat="45.033136788858506" lon="8.161633467104116"><ele>164.0</ele><time>2026-04-18T09:41:35Z</time></trkpt><trkpt lat="45.03325277090823" lon="8.161593157119382"><ele>164.0</ele><time>2026-04-18T09:41:36Z</time></trkpt><trkpt lat="45.03336548961125" lon="8.161553355563965"><ele>164.0</ele><time>2026-04-18T09:41:37Z</time></trkpt><trkpt lat="45.03347820766133" lon="8.161520950256007"><ele>164.0</ele><time>2026-04-18T09:41:38Z</time></trkpt><trkpt lat="45.03359910374351" lon="8.161486507871789"><ele>163.79999999999998</ele><time>2026-04-18T09:41:39Z</time></trkpt><trkpt lat="45.03371075493783" lon="8.16144470521955"><ele>163.6</ele><time>2026-04-18T09:41:40Z</time></trkpt><trkpt lat="45.03381354038585" lon="8.161406388692884"><ele>163.4</ele><time>2026-04-18T09:41:41Z</time></trkpt><trkpt lat="45.033916426160744" lon="8.161392163002095"><ele>163.2</ele><time>2026-04-18T09:41:42Z</time></trkpt><trkpt lat="45.034014151811895" lon="8.161376122539158"><ele>163.0</ele><time>2026-04-18T09:41:43Z</time></trkpt><trkpt lat="45.034115707125274" lon="8.16135429447906"><ele>163.60000000000002</ele><time>2026-04-18T09:41:44Z</time></trkpt><trkpt lat="45.03421729938531" lon="8.161328446923324"><ele>164.20000000000002</ele><time>2026-04-18T09:41:45Z</time></trkpt><trkpt lat="45.034313943191144" lon="8.161306702786936"><ele>164.8</ele><time>2026-04-18T09:41:46Z</time></trkpt><trkpt lat="45.03441015467542" lon="8.16128558151586"><ele>165.4</ele><time>2026-04-18T09:41:47Z</time></trkpt><trkpt lat="45.03451643931812" lon="8.161271067475289"><ele>166.0</ele><time>2026-04-18T09:41:48Z</time></trkpt><trkpt lat="45.03463327924731" lon="8.161256766105843"><ele>166.0</ele><time>2026-04-18T09:41:49Z</time></trkpt><trkpt lat="45.03475389303394" lon="8.161242609016744"><ele>166.0</ele><time>2026-04-18T09:41:50Z</time></trkpt><trkpt lat="45.03487297648935" lon="8.161224683420043"><ele>166.0</ele><time>2026-04-18T09:41:51Z</time></trkpt><trkpt lat="45.034979367040464" lon="8.16121739638765"><ele>166.0</ele><time>2026-04-18T09:41:52Z</time></trkpt><trkpt lat="45.03508490508707" lon="8.161211262522643"><ele>166.5</ele><time>2026-04-18T09:41:53Z</time></trkpt><trkpt lat="45.03518234199005" lon="8.161217778344794"><ele>167.0</ele><time>2026-04-18T09:41:54Z</time></trkpt><trkpt lat="45.035256623366614" lon="8.161235044625727"><ele>167.5</ele><time>2026-04-18T09:41:55Z</time></trkpt><trkpt lat="45.03533106777962" lon="8.161259291444948"><ele>168.0</ele><time>2026-04-18T09:41:57Z</time></trkpt><trkpt lat="45.03540462317514" lon="8.161198207078384"><ele>168.5</ele><time>2026-04-18T09:42:01Z</time></trkpt><trkpt lat="45.03541447403522" lon="8.161093110967878"><ele>169.0</ele><time>2026-04-18T09:42:02Z</time></trkpt><trkpt lat="45.03542542241174" lon="8.16097217669934"><ele>169.0</ele><time>2026-04-18T09:42:03Z</time></trkpt><trkpt lat="45.03543405629705" lon="8.16083523797883"><ele>169.0</ele><time>2026-04-18T09:42:04Z</time></trkpt><trkpt lat="45.03545042486418" lon="8.16068047331923"><ele>169.0</ele><time>2026-04-18T09:42:05Z</time></trkpt><trkpt lat="45.0354783520896" lon="8.160500464465983"><ele>169.0</ele><time>2026-04-18T09:42:06Z</time></trkpt><trkpt lat="45.035504559170285" lon="8.160316484306856"><ele>168.2</ele><time>2026-04-18T09:42:07Z</time></trkpt><trkpt lat="45.03554522456968" lon="8.160155139209964"><ele>167.39999999999998</ele><time>2026-04-18T09:42:08Z</time></trkpt><trkpt lat="45.03557040150025" lon="8.160016246186967"><ele>166.6</ele><time>2026-04-18T09:42:09Z</time></trkpt><trkpt lat="45.03557944537748" lon="8.159893649602202"><ele>165.8</ele><time>2026-04-18T09:42:10Z</time></trkpt><trkpt lat="45.03560769915926" lon="8.159788666005008"><ele>165.0</ele><time>2026-04-18T09:42:11Z</time></trkpt><trkpt lat="45.03562332159544" lon="8.159693898034735"><ele>164.75</ele><time>2026-04-18T09:42:12Z</time></trkpt><trkpt lat="45.03566377093818" lon="8.159566423386108"><ele>164.5</ele><time>2026-04-18T09:42:14Z</time></trkpt><trkpt lat="45.03569097356658" lon="8.159449252376621"><ele>164.25</ele><time>2026-04-18T09:42:16Z</time></trkpt><trkpt lat="45.035560008088325" lon="8.159435138410252"><ele>164.0</ele><time>2026-04-18T09:42:18Z</time></trkpt><trkpt lat="45.035531885526275" lon="8.158982036518358"><ele>164.0</ele><time>2026-04-18T09:42:20Z</time></trkpt><trkpt lat="45.03550286137683" lon="8.158841802560824"><ele>164.0</ele><time>2026-04-18T09:42:21Z</time></trkpt><trkpt lat="45.035481333553385" lon="8.158756187425231"><ele>164.0</ele><time>2026-04-18T09:42:22Z</time></trkpt><trkpt lat="45.0354869295009" lon="8.158533314199603"><ele>164.0</ele><time>2026-04-18T09:42:24Z</time></trkpt><trkpt lat="45.035529269501495" lon="8.15838846494665"><ele>164.0</ele><time>2026-04-18T09:42:25Z</time></trkpt><trkpt lat="45.03556238668201" lon="8.158235589738094"><ele>164.39999999999998</ele><time>2026-04-18T09:42:26Z</time></trkpt><trkpt lat="45.035597550170294" lon="8.158081922532812"><ele>164.8</ele><time>2026-04-18T09:42:27Z</time></trkpt><trkpt lat="45.03563362172063" lon="8.1579365869842"><ele>165.2</ele><time>2026-04-18T09:42:28Z</time></trkpt><trkpt lat="45.03567115512645" lon="8.15780512300038"><ele>165.60000000000002</ele><time>2026-04-18T09:42:29Z</time></trkpt><trkpt lat="45.035699341990075" lon="8.157697854419714"><ele>166.0</ele><time>2026-04-18T09:42:30Z</time></trkpt><trkpt lat="45.03573958245156" lon="8.157561036257565"><ele>166.0</ele><time>2026-04-18T09:42:31Z</time></trkpt><trkpt lat="45.03577255275552" lon="8.157415219170678"><ele>166.0</ele><time>2026-04-18T09:42:32Z</time></trkpt><trkpt lat="45.0358102400553" lon="8.157265768619322"><ele>166.0</ele><time>2026-04-18T09:42:33Z</time></trkpt><trkpt lat="45.0358469412847" lon="8.15713496505162"><ele>166.0</ele><time>2026-04-18T09:42:34Z</time></trkpt><trkpt lat="45.03588334911627" lon="8.157029969074785"><ele>166.0</ele><time>2026-04-18T09:42:35Z</time></trkpt><trkpt lat="45.035921953884795" lon="8.15692756553682"><ele>166.0</ele><time>2026-04-18T09:42:36Z</time></trkpt><trkpt lat="45.035977944679544" lon="8.156816758187382"><ele>166.0</ele><time>2026-04-18T09:42:37Z</time></trkpt><trkpt lat="45.03603635334575" lon="8.156692042590807"><ele>166.0</ele><time>2026-04-18T09:42:39Z</time></trkpt><trkpt lat="45.03612901254105" lon="8.156551514869548"><ele>166.0</ele><time>2026-04-18T09:42:41Z</time></trkpt><trkpt lat="45.03619610462436" lon="8.156437686604066"><ele>166.0</ele><time>2026-04-18T09:42:42Z</time></trkpt><trkpt lat="45.03626232340275" lon="8.156343598854543"><ele>166.0</ele><time>2026-04-18T09:42:43Z</time></trkpt><trkpt lat="45.03632295153073" lon="8.156248978175594"><ele>166.0</ele><time>2026-04-18T09:42:44Z</time></trkpt><trkpt lat="45.03639008520648" lon="8.15618219409074"><ele>166.0</ele><time>2026-04-18T09:42:45Z</time></trkpt><trkpt lat="45.036457307928764" lon="8.156157904229204"><ele>166.0</ele><time>2026-04-18T09:42:46Z</time></trkpt><trkpt lat="45.036546512940745" lon="8.156131075287398"><ele>166.0</ele><time>2026-04-18T09:42:47Z</time></trkpt><trkpt lat="45.03665198113145" lon="8.156097567701696"><ele>166.0</ele><time>2026-04-18T09:42:48Z</time></trkpt><trkpt lat="45.03676411424559" lon="8.156044089545885"><ele>166.0</ele><time>2026-04-18T09:42:49Z</time></trkpt><trkpt lat="45.03685319594249" lon="8.155965289592396"><ele>166.0</ele><time>2026-04-18T09:42:50Z</time></trkpt><trkpt lat="45.036967257782976" lon="8.155866643467414"><ele>166.0</ele><time>2026-04-18T09:42:51Z</time></trkpt><trkpt lat="45.037084521269946" lon="8.155735612391222"><ele>166.0</ele><time>2026-04-18T09:42:52Z</time></trkpt><trkpt lat="45.03717462875687" lon="8.155617916033853"><ele>166.0</ele><time>2026-04-18T09:42:53Z</time></trkpt><trkpt lat="45.037243583210724" lon="8.15553466462886"><ele>166.0</ele><time>2026-04-18T09:42:54Z</time></trkpt><trkpt lat="45.03731149035558" lon="8.155464599924619"><ele>166.0</ele><time>2026-04-18T09:42:55Z</time></trkpt><trkpt lat="45.037405999518775" lon="8.155373277374837"><ele>166.0</ele><time>2026-04-18T09:42:56Z</time></trkpt><trkpt lat="45.03749266966693" lon="8.155276514668468"><ele>166.0</ele><time>2026-04-18T09:42:57Z</time></trkpt><trkpt lat="45.037565908101" lon="8.15520092067203"><ele>165.83333333333334</ele><time>2026-04-18T09:42:58Z</time></trkpt><trkpt lat="45.037632445324356" lon="8.155138061853181"><ele>165.66666666666669</ele><time>2026-04-18T09:42:59Z</time></trkpt><trkpt lat="45.03770511683122" lon="8.155061245705454"><ele>165.5</ele><time>2026-04-18T09:43:00Z</time></trkpt><trkpt lat="45.0377711141299" lon="8.154978759379702"><ele>165.33333333333334</ele><time>2026-04-18T09:43:01Z</time></trkpt><trkpt lat="45.037838434616454" lon="8.15489581621246"><ele>165.16666666666666</ele><time>2026-04-18T09:43:02Z</time></trkpt><trkpt lat="45.03790427031078" lon="8.154793934356459"><ele>165.0</ele><time>2026-04-18T09:43:03Z</time></trkpt><trkpt lat="45.03795468513094" lon="8.15471075251776"><ele>165.0</ele><time>2026-04-18T09:43:04Z</time></trkpt><trkpt lat="45.03801627439849" lon="8.154638047332758"><ele>165.0</ele><time>2026-04-18T09:43:05Z</time></trkpt><trkpt lat="45.03807307566749" lon="8.15457525338006"><ele>165.0</ele><time>2026-04-18T09:43:06Z</time></trkpt><trkpt lat="45.03812798536374" lon="8.1545145408198"><ele>165.0</ele><time>2026-04-18T09:43:07Z</time></trkpt><trkpt lat="45.03818816962319" lon="8.154445969425314"><ele>165.0</ele><time>2026-04-18T09:43:08Z</time></trkpt><trkpt lat="45.03824988207757" lon="8.154378824419867"><ele>165.0</ele><time>2026-04-18T09:43:09Z</time></trkpt><trkpt lat="45.038324195579285" lon="8.154306280771795"><ele>165.0</ele><time>2026-04-18T09:43:10Z</time></trkpt><trkpt lat="45.03839622429552" lon="8.154232142737452"><ele>165.0</ele><time>2026-04-18T09:43:11Z</time></trkpt><trkpt lat="45.03846502931389" lon="8.15415881756922"><ele>165.0</ele><time>2026-04-18T09:43:12Z</time></trkpt><trkpt lat="45.038527315367936" lon="8.15408342109003"><ele>165.0</ele><time>2026-04-18T09:43:13Z</time></trkpt><trkpt lat="45.03859162523828" lon="8.153999190698773"><ele>165.0</ele><time>2026-04-18T09:43:14Z</time></trkpt><trkpt lat="45.038666713204414" lon="8.153936062564055"><ele>165.0</ele><time>2026-04-18T09:43:15Z</time></trkpt><trkpt lat="45.03874577785774" lon="8.15386767679511"><ele>165.0</ele><time>2026-04-18T09:43:16Z</time></trkpt><trkpt lat="45.038825023599166" lon="8.153807145268834"><ele>165.0</ele><time>2026-04-18T09:43:17Z</time></trkpt><trkpt lat="45.03889333795373" lon="8.153715897570287"><ele>165.0</ele><time>2026-04-18T09:43:18Z</time></trkpt><trkpt lat="45.03896102329416" lon="8.15363750959542"><ele>165.0</ele><time>2026-04-18T09:43:19Z</time></trkpt><trkpt lat="45.03904048683514" lon="8.153541070035644"><ele>165.0</ele><time>2026-04-18T09:43:20Z</time></trkpt><trkpt lat="45.039109087278185" lon="8.153458222538175"><ele>165.16666666666666</ele><time>2026-04-18T09:43:21Z</time></trkpt><trkpt lat="45.03915151255314" lon="8.1533621149389"><ele>165.33333333333334</ele><time>2026-04-18T09:43:22Z</time></trkpt><trkpt lat="45.03921978318412" lon="8.153283554216827"><ele>165.5</ele><time>2026-04-18T09:43:23Z</time></trkpt><trkpt lat="45.039275342825" lon="8.153195587607671"><ele>165.66666666666669</ele><time>2026-04-18T09:43:24Z</time></trkpt><trkpt lat="45.039322108208744" lon="8.153115233476164"><ele>165.83333333333334</ele><time>2026-04-18T09:43:25Z</time></trkpt><trkpt lat="45.03936967670302" lon="8.153016736683236"><ele>166.0</ele><time>2026-04-18T09:43:26Z</time></trkpt><trkpt lat="45.03941665946173" lon="8.152904655261645"><ele>166.0</ele><time>2026-04-18T09:43:27Z</time></trkpt><trkpt lat="45.039472194664974" lon="8.15279971351075"><ele>166.0</ele><time>2026-04-18T09:43:28Z</time></trkpt><trkpt lat="45.039527453371356" lon="8.152672499265783"><ele>166.0</ele><time>2026-04-18T09:43:29Z</time></trkpt><trkpt lat="45.039576220762335" lon="8.152547113861342"><ele>166.0</ele><time>2026-04-18T09:43:30Z</time></trkpt><trkpt lat="45.03961996875842" lon="8.152402938884391"><ele>166.0</ele><time>2026-04-18T09:43:31Z</time></trkpt><trkpt lat="45.039664592694265" lon="8.152255502505273"><ele>166.20000000000002</ele><time>2026-04-18T09:43:32Z</time></trkpt><trkpt lat="45.03971026725347" lon="8.152130150755639"><ele>166.4</ele><time>2026-04-18T09:43:33Z</time></trkpt><trkpt lat="45.03975959724968" lon="8.152013505880241"><ele>166.6</ele><time>2026-04-18T09:43:34Z</time></trkpt><trkpt lat="45.039814393373554" lon="8.151895188852416"><ele>166.8</ele><time>2026-04-18T09:43:35Z</time></trkpt><trkpt lat="45.03986851295079" lon="8.151790691978833"><ele>167.0</ele><time>2026-04-18T09:43:36Z</time></trkpt><trkpt lat="45.039934400861995" lon="8.151669964647299"><ele>167.0</ele><time>2026-04-18T09:43:37Z</time></trkpt><trkpt lat="45.04000004356247" lon="8.151570993062027"><ele>167.0</ele><time>2026-04-18T09:43:38Z</time></trkpt><trkpt lat="45.040055070965195" lon="8.15148014573294"><ele>167.0</ele><time>2026-04-18T09:43:39Z</time></trkpt><trkpt lat="45.040108931818196" lon="8.151399066503934"><ele>167.0</ele><time>2026-04-18T09:43:40Z</time></trkpt><trkpt lat="45.04017114618251" lon="8.15130542763457"><ele>167.0</ele><time>2026-04-18T09:43:41Z</time></trkpt><trkpt lat="45.04023212196293" lon="8.151219348684403"><ele>167.0</ele><time>2026-04-18T09:43:42Z</time></trkpt><trkpt lat="45.04028865958306" lon="8.15114058965912"><ele>167.2</ele><time>2026-04-18T09:43:43Z</time></trkpt><trkpt lat="45.04036050839295" lon="8.151058747162315"><ele>167.39999999999998</ele><time>2026-04-18T09:43:44Z</time></trkpt><trkpt lat="45.040451227956225" lon="8.15097874077615"><ele>167.60000000000002</ele><time>2026-04-18T09:43:45Z</time></trkpt><trkpt lat="45.04054868916765" lon="8.150896462659064"><ele>167.8</ele><time>2026-04-18T09:43:46Z</time></trkpt><trkpt lat="45.04064189276063" lon="8.150799675821967"><ele>168.0</ele><time>2026-04-18T09:43:47Z</time></trkpt><trkpt lat="45.04074005137492" lon="8.150713166349771"><ele>168.60000000000002</ele><time>2026-04-18T09:43:48Z</time></trkpt><trkpt lat="45.04083301923912" lon="8.150639094564198"><ele>169.20000000000002</ele><time>2026-04-18T09:43:49Z</time></trkpt><trkpt lat="45.04091619079537" lon="8.150579508975031"><ele>169.8</ele><time>2026-04-18T09:43:50Z</time></trkpt><trkpt lat="45.04100926290076" lon="8.150521794922533"><ele>170.4</ele><time>2026-04-18T09:43:51Z</time></trkpt><trkpt lat="45.041104570129924" lon="8.150453418737904"><ele>171.0</ele><time>2026-04-18T09:43:52Z</time></trkpt><trkpt lat="45.041199644578235" lon="8.150378798457668"><ele>171.0</ele><time>2026-04-18T09:43:53Z</time></trkpt><trkpt lat="45.04130210829078" lon="8.150296280066534"><ele>171.0</ele><time>2026-04-18T09:43:54Z</time></trkpt><trkpt lat="45.041399129814764" lon="8.15021498346088"><ele>171.0</ele><time>2026-04-18T09:43:55Z</time></trkpt><trkpt lat="45.04150032769357" lon="8.15012773971068"><ele>171.0</ele><time>2026-04-18T09:43:56Z</time></trkpt><trkpt lat="45.0416101108721" lon="8.150033382890213"><ele>170.5</ele><time>2026-04-18T09:43:57Z</time></trkpt><trkpt lat="45.04171982823736" lon="8.149944481021631"><ele>170.0</ele><time>2026-04-18T09:43:58Z</time></trkpt><trkpt lat="45.04182090812077" lon="8.149861007308568"><ele>169.5</ele><time>2026-04-18T09:43:59Z</time></trkpt><trkpt lat="45.04191001177698" lon="8.14977831970827"><ele>169.0</ele><time>2026-04-18T09:44:00Z</time></trkpt><trkpt lat="45.042015023503055" lon="8.149688328746112"><ele>169.0</ele><time>2026-04-18T09:44:01Z</time></trkpt><trkpt lat="45.04213692540301" lon="8.149594012700213"><ele>169.0</ele><time>2026-04-18T09:44:02Z</time></trkpt><trkpt lat="45.04225424596184" lon="8.149500193049134"><ele>169.0</ele><time>2026-04-18T09:44:03Z</time></trkpt><trkpt lat="45.04234874171934" lon="8.14941995777167"><ele>169.0</ele><time>2026-04-18T09:44:04Z</time></trkpt><trkpt lat="45.04243444621714" lon="8.149349635040219"><ele>170.0</ele><time>2026-04-18T09:44:05Z</time></trkpt><trkpt lat="45.04252135883292" lon="8.149287768697501"><ele>171.0</ele><time>2026-04-18T09:44:06Z</time></trkpt><trkpt lat="45.04261610031687" lon="8.149234469196275"><ele>172.0</ele><time>2026-04-18T09:44:07Z</time></trkpt><trkpt lat="45.04268038569552" lon="8.149214597195746"><ele>173.0</ele><time>2026-04-18T09:44:08Z</time></trkpt><trkpt lat="45.04281697781667" lon="8.149152256609595"><ele>174.0</ele><time>2026-04-18T09:44:10Z</time></trkpt><trkpt lat="45.04291205117352" lon="8.149120749149477"><ele>174.0</ele><time>2026-04-18T09:44:11Z</time></trkpt><trkpt lat="45.04300724138817" lon="8.149150031964833"><ele>174.0</ele><time>2026-04-18T09:44:12Z</time></trkpt><trkpt lat="45.04310757715402" lon="8.149197862054224"><ele>174.0</ele><time>2026-04-18T09:44:13Z</time></trkpt><trkpt lat="45.043194311949094" lon="8.14926330327325"><ele>174.0</ele><time>2026-04-18T09:44:14Z</time></trkpt><trkpt lat="45.04326538178593" lon="8.149326568173391"><ele>174.0</ele><time>2026-04-18T09:44:15Z</time></trkpt><trkpt lat="45.043351865167146" lon="8.149403705800095"><ele>174.39999999999998</ele><time>2026-04-18T09:44:16Z</time></trkpt><trkpt lat="45.04343946742124" lon="8.14949042977807"><ele>174.8</ele><time>2026-04-18T09:44:17Z</time></trkpt><trkpt lat="45.043520928455315" lon="8.149594969271773"><ele>175.2</ele><time>2026-04-18T09:44:18Z</time></trkpt><trkpt lat="45.04359674796173" lon="8.149705967204172"><ele>175.60000000000002</ele><time>2026-04-18T09:44:19Z</time></trkpt><trkpt lat="45.043641089810684" lon="8.149807577268229"><ele>176.0</ele><time>2026-04-18T09:44:20Z</time></trkpt><trkpt lat="45.04368104795118" lon="8.149906521579506"><ele>176.4</ele><time>2026-04-18T09:44:21Z</time></trkpt><trkpt lat="45.043735419773135" lon="8.150005087676636"><ele>176.8</ele><time>2026-04-18T09:44:22Z</time></trkpt><trkpt lat="45.04380139036116" lon="8.15013390326009"><ele>177.20000000000002</ele><time>2026-04-18T09:44:23Z</time></trkpt><trkpt lat="45.04383498178857" lon="8.150281622661998"><ele>177.60000000000002</ele><time>2026-04-18T09:44:24Z</time></trkpt><trkpt lat="45.043865994742454" lon="8.150402400016016"><ele>178.0</ele><time>2026-04-18T09:44:25Z</time></trkpt><trkpt lat="45.0438831501417" lon="8.150542453990896"><ele>178.0</ele><time>2026-04-18T09:44:26Z</time></trkpt><trkpt lat="45.04391416323648" lon="8.150642792167233"><ele>178.0</ele><time>2026-04-18T09:44:27Z</time></trkpt><trkpt lat="45.04398457782199" lon="8.150748759663871"><ele>178.0</ele><time>2026-04-18T09:44:28Z</time></trkpt><trkpt lat="45.044082220933866" lon="8.15084900645352"><ele>178.0</ele><time>2026-04-18T09:44:29Z</time></trkpt><trkpt lat="45.04417252667364" lon="8.15094868515003"><ele>178.0</ele><time>2026-04-18T09:44:30Z</time></trkpt><trkpt lat="45.044248175188386" lon="8.151008399719355"><ele>178.60000000000002</ele><time>2026-04-18T09:44:31Z</time></trkpt><trkpt lat="45.04431719531393" lon="8.15111196413583"><ele>179.20000000000002</ele><time>2026-04-18T09:44:32Z</time></trkpt><trkpt lat="45.04438218088214" lon="8.151235385858422"><ele>179.8</ele><time>2026-04-18T09:44:33Z</time></trkpt><trkpt lat="45.04445719788231" lon="8.151356437590845"><ele>180.4</ele><time>2026-04-18T09:44:34Z</time></trkpt><trkpt lat="45.0445267229472" lon="8.151466126108314"><ele>181.0</ele><time>2026-04-18T09:44:35Z</time></trkpt><trkpt lat="45.044596022057426" lon="8.151571883553299"><ele>181.8</ele><time>2026-04-18T09:44:36Z</time></trkpt><trkpt lat="45.04464814047976" lon="8.15167002017836"><ele>182.60000000000002</ele><time>2026-04-18T09:44:37Z</time></trkpt><trkpt lat="45.044714475361026" lon="8.1517684091954"><ele>183.4</ele><time>2026-04-18T09:44:38Z</time></trkpt><trkpt lat="45.04477956864251" lon="8.15186096285042"><ele>184.2</ele><time>2026-04-18T09:44:39Z</time></trkpt><trkpt lat="45.04484908899772" lon="8.151954320434736"><ele>185.0</ele><time>2026-04-18T09:44:40Z</time></trkpt><trkpt lat="45.04491674993744" lon="8.152055159261979"><ele>184.6</ele><time>2026-04-18T09:44:41Z</time></trkpt><trkpt lat="45.04498873056358" lon="8.152152509318114"><ele>184.2</ele><time>2026-04-18T09:44:42Z</time></trkpt><trkpt lat="45.0450581436413" lon="8.152243416576558"><ele>183.8</ele><time>2026-04-18T09:44:43Z</time></trkpt><trkpt lat="45.04512281039144" lon="8.152329641561295"><ele>183.4</ele><time>2026-04-18T09:44:44Z</time></trkpt><trkpt lat="45.04518534077969" lon="8.1524473187813"><ele>183.0</ele><time>2026-04-18T09:44:45Z</time></trkpt><trkpt lat="45.04523705557928" lon="8.152566848648357"><ele>183.0</ele><time>2026-04-18T09:44:46Z</time></trkpt><trkpt lat="45.045293094310836" lon="8.152644642489108"><ele>183.0</ele><time>2026-04-18T09:44:47Z</time></trkpt><trkpt lat="45.04535042034425" lon="8.152690806628852"><ele>183.0</ele><time>2026-04-18T09:44:48Z</time></trkpt><trkpt lat="45.04543212635046" lon="8.15275941672585"><ele>183.0</ele><time>2026-04-18T09:44:50Z</time></trkpt><trkpt lat="45.04549548798346" lon="8.15288685359363"><ele>183.0</ele><time>2026-04-18T09:44:52Z</time></trkpt><trkpt lat="45.0455365741002" lon="8.152956805199167"><ele>183.0</ele><time>2026-04-18T09:44:53Z</time></trkpt><trkpt lat="45.045579943581004" lon="8.153036476639915"><ele>183.0</ele><time>2026-04-18T09:44:54Z</time></trkpt><trkpt lat="45.045620513290274" lon="8.153108632789138"><ele>183.0</ele><time>2026-04-18T09:44:55Z</time></trkpt><trkpt lat="45.04569148228531" lon="8.153156399496817"><ele>183.0</ele><time>2026-04-18T09:44:56Z</time></trkpt><trkpt lat="45.04579213590996" lon="8.15320840408547"><ele>183.0</ele><time>2026-04-18T09:44:57Z</time></trkpt><trkpt lat="45.045906666955794" lon="8.153267713013086"><ele>183.0</ele><time>2026-04-18T09:44:58Z</time></trkpt><trkpt lat="45.04601920111823" lon="8.153337674140882"><ele>183.0</ele><time>2026-04-18T09:44:59Z</time></trkpt><trkpt lat="45.04613254467909" lon="8.153404606820619"><ele>183.0</ele><time>2026-04-18T09:45:00Z</time></trkpt><trkpt lat="45.04623060365824" lon="8.153471700940306"><ele>183.0</ele><time>2026-04-18T09:45:01Z</time></trkpt><trkpt lat="45.046321967426344" lon="8.153542690307559"><ele>183.0</ele><time>2026-04-18T09:45:02Z</time></trkpt><trkpt lat="45.04641441147595" lon="8.153643230449843"><ele>183.0</ele><time>2026-04-18T09:45:03Z</time></trkpt><trkpt lat="45.04649920740084" lon="8.153750919352323"><ele>183.0</ele><time>2026-04-18T09:45:04Z</time></trkpt><trkpt lat="45.04659818949821" lon="8.153857958819792"><ele>183.0</ele><time>2026-04-18T09:45:05Z</time></trkpt><trkpt lat="45.04669343533198" lon="8.15396921165971"><ele>183.0</ele><time>2026-04-18T09:45:06Z</time></trkpt><trkpt lat="45.04678770791943" lon="8.154063608137308"><ele>183.5</ele><time>2026-04-18T09:45:07Z</time></trkpt><trkpt lat="45.046889106001935" lon="8.154142136831208"><ele>184.0</ele><time>2026-04-18T09:45:08Z</time></trkpt><trkpt lat="45.047004996870925" lon="8.154218499451444"><ele>184.5</ele><time>2026-04-18T09:45:09Z</time></trkpt><trkpt lat="45.04713398041798" lon="8.154267314587951"><ele>185.0</ele><time>2026-04-18T09:45:10Z</time></trkpt><trkpt lat="45.047259429953385" lon="8.15431020422459"><ele>185.0</ele><time>2026-04-18T09:45:11Z</time></trkpt><trkpt lat="45.04738788356734" lon="8.154355967707264"><ele>185.0</ele><time>2026-04-18T09:45:12Z</time></trkpt><trkpt lat="45.0475094204346" lon="8.154409065510121"><ele>185.0</ele><time>2026-04-18T09:45:13Z</time></trkpt><trkpt lat="45.0476302963121" lon="8.154458609598251"><ele>185.0</ele><time>2026-04-18T09:45:14Z</time></trkpt><trkpt lat="45.0477437602002" lon="8.154507652792551"><ele>185.2</ele><time>2026-04-18T09:45:15Z</time></trkpt><trkpt lat="45.047847261371004" lon="8.154558913200564"><ele>185.4</ele><time>2026-04-18T09:45:16Z</time></trkpt><trkpt lat="45.04793424400348" lon="8.154607403063327"><ele>185.60000000000002</ele><time>2026-04-18T09:45:17Z</time></trkpt><trkpt lat="45.048016117833974" lon="8.154656434926514"><ele>185.8</ele><time>2026-04-18T09:45:18Z</time></trkpt><trkpt lat="45.048112366242684" lon="8.1546957497384"><ele>186.0</ele><time>2026-04-18T09:45:19Z</time></trkpt><trkpt lat="45.048230910501836" lon="8.154730735467801"><ele>186.0</ele><time>2026-04-18T09:45:20Z</time></trkpt><trkpt lat="45.048347061307425" lon="8.154747298502802"><ele>186.0</ele><time>2026-04-18T09:45:21Z</time></trkpt><trkpt lat="45.04848026588497" lon="8.154779472057026"><ele>186.0</ele><time>2026-04-18T09:45:22Z</time></trkpt><trkpt lat="45.04862196253993" lon="8.15479981617333"><ele>186.0</ele><time>2026-04-18T09:45:23Z</time></trkpt><trkpt lat="45.048770433863304" lon="8.154821682477658"><ele>186.0</ele><time>2026-04-18T09:45:24Z</time></trkpt><trkpt lat="45.048894233176064" lon="8.154833990606985"><ele>186.0</ele><time>2026-04-18T09:45:25Z</time></trkpt><trkpt lat="45.048998105183756" lon="8.15484017216596"><ele>186.0</ele><time>2026-04-18T09:45:26Z</time></trkpt><trkpt lat="45.04910694791076" lon="8.154851783507278"><ele>186.0</ele><time>2026-04-18T09:45:27Z</time></trkpt><trkpt lat="45.049224167958926" lon="8.154876589175934"><ele>185.5</ele><time>2026-04-18T09:45:28Z</time></trkpt><trkpt lat="45.049338933448105" lon="8.154927008963519"><ele>185.0</ele><time>2026-04-18T09:45:29Z</time></trkpt><trkpt lat="45.04943795607004" lon="8.15501018944766"><ele>184.5</ele><time>2026-04-18T09:45:30Z</time></trkpt><trkpt lat="45.049550819930175" lon="8.155114117608939"><ele>184.0</ele><time>2026-04-18T09:45:31Z</time></trkpt><trkpt lat="45.04966248173579" lon="8.155212638750083"><ele>184.0</ele><time>2026-04-18T09:45:32Z</time></trkpt><trkpt lat="45.04977759204718" lon="8.155313135219316"><ele>184.0</ele><time>2026-04-18T09:45:33Z</time></trkpt><trkpt lat="45.049895335283544" lon="8.155410803147513"><ele>184.0</ele><time>2026-04-18T09:45:34.001Z</time></trkpt><trkpt lat="45.050005953663224" lon="8.155500582564366"><ele>184.0</ele><time>2026-04-18T09:45:35.001Z</time></trkpt><trkpt lat="45.0501089360807" lon="8.15556353236116"><ele>184.0</ele><time>2026-04-18T09:45:36.001Z</time></trkpt><trkpt lat="45.05018221045063" lon="8.15562001417366"><ele>184.0</ele><time>2026-04-18T09:45:37.001Z</time></trkpt><trkpt lat="45.05024254354024" lon="8.155670614606809"><ele>184.0</ele><time>2026-04-18T09:45:38.001Z</time></trkpt><trkpt lat="45.050310973239476" lon="8.15569908697038"><ele>184.0</ele><time>2026-04-18T09:45:39.001Z</time></trkpt><trkpt lat="45.050395406598454" lon="8.155690654606808"><ele>184.0</ele><time>2026-04-18T09:45:40.001Z</time></trkpt><trkpt lat="45.05049482961248" lon="8.155664466281179"><ele>184.0</ele><time>2026-04-18T09:45:41.001Z</time></trkpt><trkpt lat="45.0506169665663" lon="8.155651009357666"><ele>184.0</ele><time>2026-04-18T09:45:42.001Z</time></trkpt><trkpt lat="45.050748493644605" lon="8.155644548782512"><ele>184.0</ele><time>2026-04-18T09:45:43Z</time></trkpt><trkpt lat="45.05089693370799" lon="8.155638745155645"><ele>184.0</ele><time>2026-04-18T09:45:44Z</time></trkpt><trkpt lat="45.05104816565761" lon="8.155618837334565"><ele>184.0</ele><time>2026-04-18T09:45:45Z</time></trkpt><trkpt lat="45.05119078199114" lon="8.155588729214397"><ele>184.0</ele><time>2026-04-18T09:45:46Z</time></trkpt><trkpt lat="45.05132038869227" lon="8.155567213640563"><ele>184.0</ele><time>2026-04-18T09:45:47Z</time></trkpt><trkpt lat="45.05143525332139" lon="8.155549131375286"><ele>184.0</ele><time>2026-04-18T09:45:48Z</time></trkpt><trkpt lat="45.051542825409804" lon="8.155532961408788"><ele>184.0</ele><time>2026-04-18T09:45:49Z</time></trkpt><trkpt lat="45.05165047903842" lon="8.155515320065884"><ele>184.25</ele><time>2026-04-18T09:45:50Z</time></trkpt><trkpt lat="45.0517713390051" lon="8.155489709105685"><ele>184.5</ele><time>2026-04-18T09:45:51Z</time></trkpt><trkpt lat="45.05189378985224" lon="8.1554595445288"><ele>184.75</ele><time>2026-04-18T09:45:52Z</time></trkpt><trkpt lat="45.052014009542894" lon="8.1554317729666"><ele>185.0</ele><time>2026-04-18T09:45:53Z</time></trkpt><trkpt lat="45.05213333792326" lon="8.155407932390112"><ele>185.0</ele><time>2026-04-18T09:45:54Z</time></trkpt><trkpt lat="45.05224107243278" lon="8.155377455325441"><ele>185.0</ele><time>2026-04-18T09:45:55Z</time></trkpt><trkpt lat="45.0523439890224" lon="8.155342226485509"><ele>185.0</ele><time>2026-04-18T09:45:56Z</time></trkpt><trkpt lat="45.05246211782216" lon="8.155319534870495"><ele>185.0</ele><time>2026-04-18T09:45:57Z</time></trkpt><trkpt lat="45.0525812990942" lon="8.15527624314789"><ele>185.8</ele><time>2026-04-18T09:45:58Z</time></trkpt><trkpt lat="45.05269223107898" lon="8.155250298309022"><ele>186.6</ele><time>2026-04-18T09:45:59Z</time></trkpt><trkpt lat="45.05281036551079" lon="8.155217444849885"><ele>187.39999999999998</ele><time>2026-04-18T09:46:00Z</time></trkpt><trkpt lat="45.052918465580525" lon="8.155191149213492"><ele>188.2</ele><time>2026-04-18T09:46:01Z</time></trkpt><trkpt lat="45.05300577720535" lon="8.155179244931977"><ele>189.0</ele><time>2026-04-18T09:46:02Z</time></trkpt><trkpt lat="45.053086418996955" lon="8.155149578698925"><ele>189.0</ele><time>2026-04-18T09:46:03Z</time></trkpt><trkpt lat="45.05317211911665" lon="8.155145377613259"><ele>189.0</ele><time>2026-04-18T09:46:04Z</time></trkpt><trkpt lat="45.053266410153995" lon="8.155146851087139"><ele>189.0</ele><time>2026-04-18T09:46:05Z</time></trkpt><trkpt lat="45.05335131449701" lon="8.155149310220535"><ele>189.0</ele><time>2026-04-18T09:46:06Z</time></trkpt><trkpt lat="45.05342500782165" lon="8.155165620123089"><ele>189.0</ele><time>2026-04-18T09:46:07Z</time></trkpt><trkpt lat="45.053511436842236" lon="8.155196603236138"><ele>189.0</ele><time>2026-04-18T09:46:08Z</time></trkpt><trkpt lat="45.05359121813773" lon="8.155216829155213"><ele>189.16666666666666</ele><time>2026-04-18T09:46:09Z</time></trkpt><trkpt lat="45.05365546162207" lon="8.155229587778079"><ele>189.33333333333334</ele><time>2026-04-18T09:46:10Z</time></trkpt><trkpt lat="45.05371712924259" lon="8.155210300545418"><ele>189.5</ele><time>2026-04-18T09:46:12Z</time></trkpt><trkpt lat="45.0538042137915" lon="8.155233063427836"><ele>189.66666666666669</ele><time>2026-04-18T09:46:14Z</time></trkpt><trkpt lat="45.05388228292216" lon="8.155235367767819"><ele>189.83333333333334</ele><time>2026-04-18T09:46:15Z</time></trkpt><trkpt lat="45.05397162924969" lon="8.155254562882085"><ele>190.0</ele><time>2026-04-18T09:46:16Z</time></trkpt><trkpt lat="45.054052135943664" lon="8.155258582322467"><ele>190.2</ele><time>2026-04-18T09:46:17Z</time></trkpt><trkpt lat="45.054134535599324" lon="8.155268654571481"><ele>190.4</ele><time>2026-04-18T09:46:18Z</time></trkpt><trkpt lat="45.05422707005897" lon="8.155278706683202"><ele>190.60000000000002</ele><time>2026-04-18T09:46:19Z</time></trkpt><trkpt lat="45.054304923044434" lon="8.155300554893005"><ele>190.8</ele><time>2026-04-18T09:46:20Z</time></trkpt><trkpt lat="45.05440678273169" lon="8.155325195689448"><ele>191.0</ele><time>2026-04-18T09:46:21Z</time></trkpt><trkpt lat="45.05450280579413" lon="8.155352761528952"><ele>191.0</ele><time>2026-04-18T09:46:22Z</time></trkpt><trkpt lat="45.05458221721857" lon="8.15535041220564"><ele>191.0</ele><time>2026-04-18T09:46:23Z</time></trkpt><trkpt lat="45.054659737520055" lon="8.155359922893487"><ele>191.0</ele><time>2026-04-18T09:46:24Z</time></trkpt><trkpt lat="45.05474426873672" lon="8.155393318081357"><ele>191.0</ele><time>2026-04-18T09:46:25Z</time></trkpt><trkpt lat="45.05481450713792" lon="8.15540337873856"><ele>191.0</ele><time>2026-04-18T09:46:26Z</time></trkpt><trkpt lat="45.05489085613924" lon="8.155411587501689"><ele>191.0</ele><time>2026-04-18T09:46:27Z</time></trkpt><trkpt lat="45.05495685701159" lon="8.155433468474765"><ele>191.83333333333331</ele><time>2026-04-18T09:46:28Z</time></trkpt><trkpt lat="45.05502113395285" lon="8.15546169534318"><ele>192.66666666666666</ele><time>2026-04-18T09:46:29Z</time></trkpt><trkpt lat="45.05508058401974" lon="8.155512763111545"><ele>193.5</ele><time>2026-04-18T09:46:30Z</time></trkpt><trkpt lat="45.05515139502869" lon="8.155565253912116"><ele>194.33333333333331</ele><time>2026-04-18T09:46:31Z</time></trkpt><trkpt lat="45.05522876658946" lon="8.155603355863509"><ele>195.16666666666666</ele><time>2026-04-18T09:46:32Z</time></trkpt><trkpt lat="45.05530526197764" lon="8.15561899721922"><ele>196.0</ele><time>2026-04-18T09:46:33Z</time></trkpt><trkpt lat="45.05538916685909" lon="8.155649942254618"><ele>195.99999999999997</ele><time>2026-04-18T09:46:34Z</time></trkpt><trkpt lat="45.05547787392254" lon="8.155684623568224"><ele>196.0</ele><time>2026-04-18T09:46:35Z</time></trkpt><trkpt lat="45.05554874323346" lon="8.155711602442947"><ele>196.0</ele><time>2026-04-18T09:46:36Z</time></trkpt><trkpt lat="45.0556240615012" lon="8.155737498435721"><ele>196.0</ele><time>2026-04-18T09:46:37Z</time></trkpt><trkpt lat="45.05571140263325" lon="8.155763210671655"><ele>195.99999999999997</ele><time>2026-04-18T09:46:38Z</time></trkpt><trkpt lat="45.055781813062836" lon="8.15579168067117"><ele>196.0</ele><time>2026-04-18T09:46:39Z</time></trkpt><trkpt lat="45.05586009330045" lon="8.155817945276684"><ele>197.60000000000002</ele><time>2026-04-18T09:46:40Z</time></trkpt><trkpt lat="45.05593692311329" lon="8.155843194692718"><ele>199.2</ele><time>2026-04-18T09:46:41Z</time></trkpt><trkpt lat="45.056018889861065" lon="8.155862454433828"><ele>200.8</ele><time>2026-04-18T09:46:42Z</time></trkpt><trkpt lat="45.05612012991012" lon="8.155880552047792"><ele>202.39999999999998</ele><time>2026-04-18T09:46:43Z</time></trkpt><trkpt lat="45.05621722439838" lon="8.155887070282859"><ele>204.0</ele><time>2026-04-18T09:46:44Z</time></trkpt><trkpt lat="45.056337683585575" lon="8.155875737266276"><ele>204.0</ele><time>2026-04-18T09:46:45Z</time></trkpt><trkpt lat="45.056461377398776" lon="8.15587455850527"><ele>204.0</ele><time>2026-04-18T09:46:46Z</time></trkpt><trkpt lat="45.05659170012425" lon="8.155876713593795"><ele>204.0</ele><time>2026-04-18T09:46:47Z</time></trkpt><trkpt lat="45.05669703117332" lon="8.155892741029637"><ele>204.0</ele><time>2026-04-18T09:46:48Z</time></trkpt><trkpt lat="45.05679409580449" lon="8.155904654505525"><ele>203.6</ele><time>2026-04-18T09:46:49Z</time></trkpt><trkpt lat="45.056887425619905" lon="8.155902959699576"><ele>203.2</ele><time>2026-04-18T09:46:50Z</time></trkpt><trkpt lat="45.05698194804792" lon="8.155925560073483"><ele>202.79999999999998</ele><time>2026-04-18T09:46:51Z</time></trkpt><trkpt lat="45.05709481660585" lon="8.155940511082258"><ele>202.39999999999998</ele><time>2026-04-18T09:46:52Z</time></trkpt><trkpt lat="45.057197163256006" lon="8.155959251388646"><ele>202.0</ele><time>2026-04-18T09:46:53Z</time></trkpt><trkpt lat="45.05728648900339" lon="8.15599297969047"><ele>202.0</ele><time>2026-04-18T09:46:54Z</time></trkpt><trkpt lat="45.057369838453674" lon="8.156041112748516"><ele>202.0</ele><time>2026-04-18T09:46:55Z</time></trkpt><trkpt lat="45.05745130524581" lon="8.156114626686133"><ele>202.0</ele><time>2026-04-18T09:46:56Z</time></trkpt><trkpt lat="45.05753804572358" lon="8.156200139880015"><ele>202.0</ele><time>2026-04-18T09:46:57Z</time></trkpt><trkpt lat="45.05763573992014" lon="8.156310092652483"><ele>202.0</ele><time>2026-04-18T09:46:58Z</time></trkpt><trkpt lat="45.05772999498471" lon="8.156395821379206"><ele>201.66666666666666</ele><time>2026-04-18T09:46:59Z</time></trkpt><trkpt lat="45.05778642999118" lon="8.15646828258335"><ele>201.33333333333331</ele><time>2026-04-18T09:47:00Z</time></trkpt><trkpt lat="45.057839080341466" lon="8.156545384508807"><ele>201.0</ele><time>2026-04-18T09:47:01Z</time></trkpt><trkpt lat="45.05787663934708" lon="8.15663122874347"><ele>200.66666666666669</ele><time>2026-04-18T09:47:02Z</time></trkpt><trkpt lat="45.057962256824815" lon="8.156671368199989"><ele>200.33333333333334</ele><time>2026-04-18T09:47:03Z</time></trkpt><trkpt lat="45.05800872481471" lon="8.15682310970767"><ele>200.0</ele><time>2026-04-18T09:47:05Z</time></trkpt><trkpt lat="45.058045554111686" lon="8.156985632028034"><ele>200.8</ele><time>2026-04-18T09:47:07Z</time></trkpt><trkpt lat="45.05810458823249" lon="8.157122607364936"><ele>201.6</ele><time>2026-04-18T09:47:08Z</time></trkpt><trkpt lat="45.05816469127952" lon="8.157254272586817"><ele>202.39999999999998</ele><time>2026-04-18T09:47:09Z</time></trkpt><trkpt lat="45.05821276031152" lon="8.157365640297142"><ele>203.2</ele><time>2026-04-18T09:47:10Z</time></trkpt><trkpt lat="45.058242506037345" lon="8.157511801225645"><ele>204.0</ele><time>2026-04-18T09:47:11Z</time></trkpt><trkpt lat="45.05827688824606" lon="8.157695585847325"><ele>203.6</ele><time>2026-04-18T09:47:12Z</time></trkpt><trkpt lat="45.058287005573895" lon="8.157897310154368"><ele>203.2</ele><time>2026-04-18T09:47:13Z</time></trkpt><trkpt lat="45.05832167396509" lon="8.158034226166254"><ele>202.79999999999998</ele><time>2026-04-18T09:47:14Z</time></trkpt><trkpt lat="45.05837725717308" lon="8.158137561274192"><ele>202.39999999999998</ele><time>2026-04-18T09:47:15Z</time></trkpt><trkpt lat="45.05845437990636" lon="8.158170276125459"><ele>202.0</ele><time>2026-04-18T09:47:16Z</time></trkpt><trkpt lat="45.05855610742925" lon="8.158187914372897"><ele>202.0</ele><time>2026-04-18T09:47:17Z</time></trkpt><trkpt lat="45.058689429614894" lon="8.158240757229015"><ele>202.0</ele><time>2026-04-18T09:47:18Z</time></trkpt><trkpt lat="45.05879345138165" lon="8.158243958480554"><ele>202.0</ele><time>2026-04-18T09:47:19Z</time></trkpt><trkpt lat="45.05887321755839" lon="8.158253130265715"><ele>202.0</ele><time>2026-04-18T09:47:20Z</time></trkpt><trkpt lat="45.058985616870196" lon="8.15827647847197"><ele>202.0</ele><time>2026-04-18T09:47:22Z</time></trkpt><trkpt lat="45.05906980368296" lon="8.158149486982968"><ele>201.99999999999997</ele><time>2026-04-18T09:47:25Z</time></trkpt><trkpt lat="45.05908128360673" lon="8.158048904901053"><ele>202.0</ele><time>2026-04-18T09:47:26Z</time></trkpt><trkpt lat="45.05910184707502" lon="8.157934856356457"><ele>202.0</ele><time>2026-04-18T09:47:27Z</time></trkpt><trkpt lat="45.05914039512623" lon="8.157820617722809"><ele>202.0</ele><time>2026-04-18T09:47:28Z</time></trkpt><trkpt lat="45.05916270716978" lon="8.1577118160849"><ele>201.99999999999997</ele><time>2026-04-18T09:47:29Z</time></trkpt><trkpt lat="45.05917133577628" lon="8.15758765690967"><ele>202.0</ele><time>2026-04-18T09:47:30Z</time></trkpt><trkpt lat="45.05920077943226" lon="8.157456672267635"><ele>201.0</ele><time>2026-04-18T09:47:31Z</time></trkpt><trkpt lat="45.059220820813266" lon="8.157316643172491"><ele>200.0</ele><time>2026-04-18T09:47:32Z</time></trkpt><trkpt lat="45.05925657910151" lon="8.157174184903559"><ele>199.0</ele><time>2026-04-18T09:47:33Z</time></trkpt><trkpt lat="45.05929260905716" lon="8.157033428798863"><ele>198.0</ele><time>2026-04-18T09:47:34Z</time></trkpt><trkpt lat="45.05934653231536" lon="8.156902610137394"><ele>197.0</ele><time>2026-04-18T09:47:35Z</time></trkpt><trkpt lat="45.05942577687842" lon="8.156789180824772"><ele>197.0</ele><time>2026-04-18T09:47:36Z</time></trkpt><trkpt lat="45.05951999200273" lon="8.156678517327382"><ele>197.0</ele><time>2026-04-18T09:47:37Z</time></trkpt><trkpt lat="45.059637765193585" lon="8.156587835627946"><ele>197.0</ele><time>2026-04-18T09:47:38Z</time></trkpt><trkpt lat="45.059761043534095" lon="8.156507581778591"><ele>197.0</ele><time>2026-04-18T09:47:39Z</time></trkpt><trkpt lat="45.05990074298726" lon="8.1564667203759"><ele>197.75</ele><time>2026-04-18T09:47:40Z</time></trkpt><trkpt lat="45.06004436645048" lon="8.156423825037685"><ele>198.5</ele><time>2026-04-18T09:47:41Z</time></trkpt><trkpt lat="45.0601885737242" lon="8.15637913508862"><ele>199.25</ele><time>2026-04-18T09:47:42Z</time></trkpt><trkpt lat="45.06033091375065" lon="8.156325510085043"><ele>200.0</ele><time>2026-04-18T09:47:43Z</time></trkpt><trkpt lat="45.060475170098876" lon="8.15625695615033"><ele>200.0</ele><time>2026-04-18T09:47:44Z</time></trkpt><trkpt lat="45.06061090338022" lon="8.156187959449705"><ele>200.0</ele><time>2026-04-18T09:47:45Z</time></trkpt><trkpt lat="45.06074461712535" lon="8.15611757375478"><ele>200.0</ele><time>2026-04-18T09:47:46Z</time></trkpt><trkpt lat="45.06087078860081" lon="8.156026918693836"><ele>200.0</ele><time>2026-04-18T09:47:47Z</time></trkpt><trkpt lat="45.061008054650806" lon="8.155980906258431"><ele>201.5</ele><time>2026-04-18T09:47:48Z</time></trkpt><trkpt lat="45.061128747913735" lon="8.155919346628465"><ele>203.0</ele><time>2026-04-18T09:47:49Z</time></trkpt><trkpt lat="45.061236714228734" lon="8.15586368185057"><ele>204.5</ele><time>2026-04-18T09:47:50Z</time></trkpt><trkpt lat="45.06133934593785" lon="8.155810492558729"><ele>206.0</ele><time>2026-04-18T09:47:51Z</time></trkpt><trkpt lat="45.06144662296165" lon="8.155754895814185"><ele>206.20000000000002</ele><time>2026-04-18T09:47:52Z</time></trkpt><trkpt lat="45.06155537551935" lon="8.155698831453549"><ele>206.4</ele><time>2026-04-18T09:47:53Z</time></trkpt><trkpt lat="45.06166057044647" lon="8.155646638301773"><ele>206.6</ele><time>2026-04-18T09:47:54Z</time></trkpt><trkpt lat="45.06175570006771" lon="8.155601653764144"><ele>206.8</ele><time>2026-04-18T09:47:55Z</time></trkpt><trkpt lat="45.061839580035425" lon="8.155565537820674"><ele>207.0</ele><time>2026-04-18T09:47:56Z</time></trkpt><trkpt lat="45.06191576003008" lon="8.155539013858798"><ele>206.5</ele><time>2026-04-18T09:47:57Z</time></trkpt><trkpt lat="45.0619872686731" lon="8.155518572917526"><ele>206.0</ele><time>2026-04-18T09:47:58Z</time></trkpt><trkpt lat="45.062061254284544" lon="8.155503916432254"><ele>205.5</ele><time>2026-04-18T09:47:59Z</time></trkpt><trkpt lat="45.06212917858092" lon="8.155491222072015"><ele>205.0</ele><time>2026-04-18T09:48:00Z</time></trkpt><trkpt lat="45.06219267723425" lon="8.15547935482012"><ele>204.5</ele><time>2026-04-18T09:48:01Z</time></trkpt><trkpt lat="45.06230551338932" lon="8.155454649920149"><ele>204.0</ele><time>2026-04-18T09:48:03Z</time></trkpt><trkpt lat="45.062363538560405" lon="8.15540489701502"><ele>204.5</ele><time>2026-04-18T09:48:04Z</time></trkpt><trkpt lat="45.06246242040332" lon="8.155387800983739"><ele>205.0</ele><time>2026-04-18T09:48:06Z</time></trkpt><trkpt lat="45.06260269010346" lon="8.155373501138271"><ele>205.5</ele><time>2026-04-18T09:48:08Z</time></trkpt><trkpt lat="45.06270052820686" lon="8.155541909131866"><ele>206.0</ele><time>2026-04-18T09:48:09Z</time></trkpt><trkpt lat="45.06277513819862" lon="8.155580548438293"><ele>206.0</ele><time>2026-04-18T09:48:10Z</time></trkpt><trkpt lat="45.062850494909185" lon="8.155629126552869"><ele>206.0</ele><time>2026-04-18T09:48:11Z</time></trkpt><trkpt lat="45.06292739152324" lon="8.155677825104044"><ele>206.0</ele><time>2026-04-18T09:48:12Z</time></trkpt><trkpt lat="45.06302089869178" lon="8.155732349249499"><ele>206.0</ele><time>2026-04-18T09:48:13Z</time></trkpt><trkpt lat="45.063114686172334" lon="8.155782276096536"><ele>206.0</ele><time>2026-04-18T09:48:14Z</time></trkpt><trkpt lat="45.06321056671838" lon="8.155825452551463"><ele>207.0</ele><time>2026-04-18T09:48:15Z</time></trkpt><trkpt lat="45.063297511222025" lon="8.155865103669823"><ele>208.0</ele><time>2026-04-18T09:48:16Z</time></trkpt><trkpt lat="45.06339643463267" lon="8.155895600617269"><ele>209.0</ele><time>2026-04-18T09:48:17Z</time></trkpt><trkpt lat="45.06348874382557" lon="8.155919943011401"><ele>210.0</ele><time>2026-04-18T09:48:18Z</time></trkpt><trkpt lat="45.06359236027188" lon="8.155935774772276"><ele>211.0</ele><time>2026-04-18T09:48:19Z</time></trkpt><trkpt lat="45.0636923725836" lon="8.155949745689888"><ele>211.0</ele><time>2026-04-18T09:48:20Z</time></trkpt><trkpt lat="45.063763863824605" lon="8.155977708079423"><ele>211.0</ele><time>2026-04-18T09:48:21Z</time></trkpt><trkpt lat="45.06384304783704" lon="8.156031280033933"><ele>211.0</ele><time>2026-04-18T09:48:22Z</time></trkpt><trkpt lat="45.06391817145192" lon="8.156106130871567"><ele>211.0</ele><time>2026-04-18T09:48:23Z</time></trkpt><trkpt lat="45.06399505943903" lon="8.156220330532497"><ele>211.0</ele><time>2026-04-18T09:48:24Z</time></trkpt><trkpt lat="45.06406973074808" lon="8.15633535480619"><ele>211.20000000000002</ele><time>2026-04-18T09:48:25Z</time></trkpt><trkpt lat="45.06414716202041" lon="8.156449721734406"><ele>211.4</ele><time>2026-04-18T09:48:26Z</time></trkpt><trkpt lat="45.0642233336712" lon="8.156570520696592"><ele>211.6</ele><time>2026-04-18T09:48:27Z</time></trkpt><trkpt lat="45.06429516589999" lon="8.156678318487504"><ele>211.8</ele><time>2026-04-18T09:48:28Z</time></trkpt><trkpt lat="45.06435841932149" lon="8.156757136061835"><ele>212.0</ele><time>2026-04-18T09:48:29Z</time></trkpt><trkpt lat="45.06441310143275" lon="8.156822001879746"><ele>212.8</ele><time>2026-04-18T09:48:30Z</time></trkpt><trkpt lat="45.06447178347282" lon="8.156884513592065"><ele>213.6</ele><time>2026-04-18T09:48:31Z</time></trkpt><trkpt lat="45.064548297887185" lon="8.156952586208007"><ele>214.40000000000003</ele><time>2026-04-18T09:48:33Z</time></trkpt><trkpt lat="45.064615876957895" lon="8.156843525281486"><ele>215.20000000000002</ele><time>2026-04-18T09:48:35Z</time></trkpt><trkpt lat="45.06462947151247" lon="8.15671265296737"><ele>216.0</ele><time>2026-04-18T09:48:36Z</time></trkpt><trkpt lat="45.064604812254906" lon="8.156564197820686"><ele>215.33333333333334</ele><time>2026-04-18T09:48:37Z</time></trkpt><trkpt lat="45.06458077086148" lon="8.15642638556825"><ele>214.66666666666669</ele><time>2026-04-18T09:48:38Z</time></trkpt><trkpt lat="45.06456836884885" lon="8.156315962344152"><ele>214.0</ele><time>2026-04-18T09:48:39Z</time></trkpt><trkpt lat="45.06455447136573" lon="8.156223538970936"><ele>213.33333333333334</ele><time>2026-04-18T09:48:40Z</time></trkpt><trkpt lat="45.06460293333394" lon="8.156110612839512"><ele>212.66666666666669</ele><time>2026-04-18T09:48:42Z</time></trkpt><trkpt lat="45.06468264902262" lon="8.156092636653403"><ele>212.0</ele><time>2026-04-18T09:48:43Z</time></trkpt><trkpt lat="45.06478771682937" lon="8.156082800696876"><ele>212.0</ele><time>2026-04-18T09:48:44Z</time></trkpt><trkpt lat="45.06489619818534" lon="8.156074304614831"><ele>212.0</ele><time>2026-04-18T09:48:45Z</time></trkpt><trkpt lat="45.06501082974643" lon="8.156059057906996"><ele>212.0</ele><time>2026-04-18T09:48:46Z</time></trkpt><trkpt lat="45.06512495405222" lon="8.156047163681826"><ele>212.0</ele><time>2026-04-18T09:48:47Z</time></trkpt><trkpt lat="45.06524796817324" lon="8.15604232082868"><ele>212.5</ele><time>2026-04-18T09:48:48Z</time></trkpt><trkpt lat="45.06537699773464" lon="8.15603707854205"><ele>213.0</ele><time>2026-04-18T09:48:49Z</time></trkpt><trkpt lat="45.06550414575536" lon="8.156031422824125"><ele>213.5</ele><time>2026-04-18T09:48:50Z</time></trkpt><trkpt lat="45.065618401813865" lon="8.156024812371468"><ele>214.0</ele><time>2026-04-18T09:48:51Z</time></trkpt><trkpt lat="45.065717537261825" lon="8.156013804528975"><ele>214.39999999999998</ele><time>2026-04-18T09:48:52Z</time></trkpt><trkpt lat="45.06583039102318" lon="8.156000168013103"><ele>214.79999999999998</ele><time>2026-04-18T09:48:53Z</time></trkpt><trkpt lat="45.065940333739675" lon="8.155985164790144"><ele>215.20000000000002</ele><time>2026-04-18T09:48:54Z</time></trkpt><trkpt lat="45.0660357622135" lon="8.155970137819994"><ele>215.60000000000002</ele><time>2026-04-18T09:48:55Z</time></trkpt><trkpt lat="45.06612023774991" lon="8.155972398653542"><ele>216.0</ele><time>2026-04-18T09:48:56Z</time></trkpt><trkpt lat="45.06620929453563" lon="8.155959601504557"><ele>216.0</ele><time>2026-04-18T09:48:57Z</time></trkpt><trkpt lat="45.06628692478723" lon="8.155953393127007"><ele>216.0</ele><time>2026-04-18T09:48:58Z</time></trkpt><trkpt lat="45.06637204480514" lon="8.155943330902758"><ele>216.0</ele><time>2026-04-18T09:48:59Z</time></trkpt><trkpt lat="45.06644329334629" lon="8.155922666426617"><ele>216.0</ele><time>2026-04-18T09:49:00Z</time></trkpt><trkpt lat="45.066538103071814" lon="8.155924517586175"><ele>216.0</ele><time>2026-04-18T09:49:01Z</time></trkpt><trkpt lat="45.06663185314385" lon="8.155940835319786"><ele>216.0</ele><time>2026-04-18T09:49:02Z</time></trkpt><trkpt lat="45.066737375001914" lon="8.155962567865538"><ele>216.4</ele><time>2026-04-18T09:49:03Z</time></trkpt><trkpt lat="45.06684839722126" lon="8.155978869507242"><ele>216.8</ele><time>2026-04-18T09:49:04Z</time></trkpt><trkpt lat="45.06695336596292" lon="8.155993897293923"><ele>217.20000000000002</ele><time>2026-04-18T09:49:05Z</time></trkpt><trkpt lat="45.06705073465575" lon="8.156010065826074"><ele>217.60000000000002</ele><time>2026-04-18T09:49:06Z</time></trkpt><trkpt lat="45.067149044983275" lon="8.156025895911508"><ele>218.0</ele><time>2026-04-18T09:49:07Z</time></trkpt><trkpt lat="45.06725083375692" lon="8.156052169266275"><ele>218.0</ele><time>2026-04-18T09:49:08Z</time></trkpt><trkpt lat="45.06736413494901" lon="8.156082516965576"><ele>218.0</ele><time>2026-04-18T09:49:09Z</time></trkpt><trkpt lat="45.06747690638629" lon="8.156100978358442"><ele>218.0</ele><time>2026-04-18T09:49:10Z</time></trkpt><trkpt lat="45.067575702078294" lon="8.156108529390634"><ele>218.0</ele><time>2026-04-18T09:49:11Z</time></trkpt><trkpt lat="45.067669358721126" lon="8.156103471356305"><ele>218.0</ele><time>2026-04-18T09:49:12Z</time></trkpt><trkpt lat="45.06775357238582" lon="8.156091452702217"><ele>219.2</ele><time>2026-04-18T09:49:13Z</time></trkpt><trkpt lat="45.06783552015977" lon="8.15606842072027"><ele>220.4</ele><time>2026-04-18T09:49:14Z</time></trkpt><trkpt lat="45.06793004644618" lon="8.15603164522772"><ele>221.59999999999997</ele><time>2026-04-18T09:49:15Z</time></trkpt><trkpt lat="45.06802001700354" lon="8.155998038620261"><ele>222.79999999999998</ele><time>2026-04-18T09:49:16Z</time></trkpt><trkpt lat="45.0681073578426" lon="8.155975812528022"><ele>224.0</ele><time>2026-04-18T09:49:17Z</time></trkpt><trkpt lat="45.068194302254135" lon="8.155966213113992"><ele>223.83333333333334</ele><time>2026-04-18T09:49:18Z</time></trkpt><trkpt lat="45.06827954698049" lon="8.1559594900879"><ele>223.66666666666669</ele><time>2026-04-18T09:49:19Z</time></trkpt><trkpt lat="45.06836944349975" lon="8.155958942747091"><ele>223.5</ele><time>2026-04-18T09:49:20Z</time></trkpt><trkpt lat="45.068453508075635" lon="8.15596561780994"><ele>223.33333333333331</ele><time>2026-04-18T09:49:21Z</time></trkpt><trkpt lat="45.06853006014708" lon="8.155976159799698"><ele>223.16666666666666</ele><time>2026-04-18T09:49:22Z</time></trkpt><trkpt lat="45.06859879134118" lon="8.155988727333291"><ele>223.0</ele><time>2026-04-18T09:49:23Z</time></trkpt><trkpt lat="45.068666503506485" lon="8.156003555323034"><ele>222.99999999999997</ele><time>2026-04-18T09:49:24Z</time></trkpt><trkpt lat="45.0687396463814" lon="8.156007160523616"><ele>223.0</ele><time>2026-04-18T09:49:25Z</time></trkpt><trkpt lat="45.068818210155435" lon="8.1560068732281"><ele>223.0</ele><time>2026-04-18T09:49:26Z</time></trkpt><trkpt lat="45.06890297070644" lon="8.155997131860273"><ele>223.0</ele><time>2026-04-18T09:49:27Z</time></trkpt><trkpt lat="45.068986925792125" lon="8.155976672880062"><ele>222.99999999999997</ele><time>2026-04-18T09:49:28Z</time></trkpt><trkpt lat="45.06905644458515" lon="8.155940267164272"><ele>223.0</ele><time>2026-04-18T09:49:29Z</time></trkpt><trkpt lat="45.069145149076974" lon="8.155846912150787"><ele>223.4</ele><time>2026-04-18T09:49:31Z</time></trkpt><trkpt lat="45.06922094522798" lon="8.155729810578183"><ele>223.8</ele><time>2026-04-18T09:49:33Z</time></trkpt><trkpt lat="45.06928413679556" lon="8.155612306667383"><ele>224.2</ele><time>2026-04-18T09:49:35Z</time></trkpt><trkpt lat="45.06932451977189" lon="8.155531021905299"><ele>224.6</ele><time>2026-04-18T09:49:37Z</time></trkpt><trkpt lat="45.0693915398585" lon="8.15539573166827"><ele>225.0</ele><time>2026-04-18T09:49:39Z</time></trkpt><trkpt lat="45.069449794273844" lon="8.155312645790081"><ele>225.33333333333334</ele><time>2026-04-18T09:49:40Z</time></trkpt><trkpt lat="45.069506568127984" lon="8.155234083192939"><ele>225.66666666666669</ele><time>2026-04-18T09:49:41Z</time></trkpt><trkpt lat="45.0695588526379" lon="8.155161032843258"><ele>226.0</ele><time>2026-04-18T09:49:42Z</time></trkpt><trkpt lat="45.06960310300001" lon="8.155096713222862"><ele>226.33333333333334</ele><time>2026-04-18T09:49:43Z</time></trkpt><trkpt lat="45.06970498651567" lon="8.155046647075125"><ele>226.66666666666669</ele><time>2026-04-18T09:49:45Z</time></trkpt><trkpt lat="45.06978389956757" lon="8.155050110162554"><ele>227.0</ele><time>2026-04-18T09:49:46Z</time></trkpt><trkpt lat="45.06986261562194" lon="8.155048743767395"><ele>227.00000000000003</ele><time>2026-04-18T09:49:47Z</time></trkpt><trkpt lat="45.069936939872036" lon="8.15504382429793"><ele>227.0</ele><time>2026-04-18T09:49:48Z</time></trkpt><trkpt lat="45.070016634069844" lon="8.155043690983518"><ele>227.0</ele><time>2026-04-18T09:49:49Z</time></trkpt><trkpt lat="45.07009717111207" lon="8.155046438058568"><ele>227.0</ele><time>2026-04-18T09:49:50Z</time></trkpt><trkpt lat="45.070169221422894" lon="8.155046740326304"><ele>227.00000000000003</ele><time>2026-04-18T09:49:51Z</time></trkpt><trkpt lat="45.07023974918435" lon="8.15503455735866"><ele>227.0</ele><time>2026-04-18T09:49:52Z</time></trkpt><trkpt lat="45.070350692788445" lon="8.155032732279683"><ele>226.8</ele><time>2026-04-18T09:49:54Z</time></trkpt><trkpt lat="45.07042416141053" lon="8.155031264741519"><ele>226.6</ele><time>2026-04-18T09:49:56Z</time></trkpt><trkpt lat="45.070486421634534" lon="8.155105446928962"><ele>226.40000000000003</ele><time>2026-04-18T09:49:59Z</time></trkpt><trkpt lat="45.070505802999065" lon="8.155274606281393"><ele>226.20000000000002</ele><time>2026-04-18T09:50:01Z</time></trkpt><trkpt lat="45.0705109863745" lon="8.155431538072454"><ele>226.0</ele><time>2026-04-18T09:50:03Z</time></trkpt><trkpt lat="45.070523608365455" lon="8.155524177405745"><ele>225.99999999999997</ele><time>2026-04-18T09:50:04Z</time></trkpt><trkpt lat="45.070544256472665" lon="8.155608840462264"><ele>226.0</ele><time>2026-04-18T09:50:05Z</time></trkpt><trkpt lat="45.07059909037846" lon="8.155763941183434"><ele>226.0</ele><time>2026-04-18T09:50:07Z</time></trkpt><trkpt lat="45.07062608235979" lon="8.155850410254654"><ele>226.0</ele><time>2026-04-18T09:50:08Z</time></trkpt><trkpt lat="45.07065783819141" lon="8.155950684625296"><ele>225.99999999999997</ele><time>2026-04-18T09:50:09Z</time></trkpt><trkpt lat="45.0706902676227" lon="8.156073387096116"><ele>226.0</ele><time>2026-04-18T09:50:10Z</time></trkpt><trkpt lat="45.07071349767877" lon="8.156196547057284"><ele>226.16666666666666</ele><time>2026-04-18T09:50:11Z</time></trkpt><trkpt lat="45.07074852043216" lon="8.156350677029513"><ele>226.33333333333331</ele><time>2026-04-18T09:50:13Z</time></trkpt><trkpt lat="45.07076804773899" lon="8.156453910076923"><ele>226.5</ele><time>2026-04-18T09:50:14Z</time></trkpt><trkpt lat="45.07079016429937" lon="8.156576995806336"><ele>226.66666666666669</ele><time>2026-04-18T09:50:15Z</time></trkpt><trkpt lat="45.07080797103503" lon="8.156679341039748"><ele>226.83333333333334</ele><time>2026-04-18T09:50:16Z</time></trkpt><trkpt lat="45.070830364751785" lon="8.156782204792853"><ele>227.0</ele><time>2026-04-18T09:50:18Z</time></trkpt><trkpt lat="45.07086770529598" lon="8.156885147910739"><ele>229.2</ele><time>2026-04-18T09:50:20Z</time></trkpt><trkpt lat="45.07093821404592" lon="8.156997020262974"><ele>231.39999999999998</ele><time>2026-04-18T09:50:22Z</time></trkpt><trkpt lat="45.07104258878522" lon="8.15708154383523"><ele>233.60000000000002</ele><time>2026-04-18T09:50:24Z</time></trkpt><trkpt lat="45.07110692656957" lon="8.15712226882254"><ele>235.8</ele><time>2026-04-18T09:50:25Z</time></trkpt><trkpt lat="45.07120802990752" lon="8.15720261831265"><ele>238.0</ele><time>2026-04-18T09:50:27Z</time></trkpt><trkpt lat="45.071276083507804" lon="8.157248545121936"><ele>237.99999999999997</ele><time>2026-04-18T09:50:28Z</time></trkpt><trkpt lat="45.07132730020884" lon="8.157302379319725"><ele>238.0</ele><time>2026-04-18T09:50:29Z</time></trkpt><trkpt lat="45.07139407474712" lon="8.15736192079007"><ele>238.0</ele><time>2026-04-18T09:50:30Z</time></trkpt><trkpt lat="45.07146756289189" lon="8.157418011641644"><ele>238.0</ele><time>2026-04-18T09:50:31Z</time></trkpt><trkpt lat="45.07155760334022" lon="8.157487420487659"><ele>237.99999999999997</ele><time>2026-04-18T09:50:32Z</time></trkpt><trkpt lat="45.071639901472864" lon="8.157557512497657"><ele>238.0</ele><time>2026-04-18T09:50:33Z</time></trkpt><trkpt lat="45.07170754681774" lon="8.157608279403007"><ele>240.49999999999997</ele><time>2026-04-18T09:50:34Z</time></trkpt><trkpt lat="45.07176840049735" lon="8.157653985263707"><ele>243.0</ele><time>2026-04-18T09:50:35Z</time></trkpt><trkpt lat="45.07182555811612" lon="8.157706772818582"><ele>245.5</ele><time>2026-04-18T09:50:36Z</time></trkpt><trkpt lat="45.071895359298544" lon="8.15781836084717"><ele>248.0</ele><time>2026-04-18T09:50:38Z</time></trkpt><trkpt lat="45.07192908304726" lon="8.157900778403086"><ele>250.49999999999997</ele><time>2026-04-18T09:50:39Z</time></trkpt><trkpt lat="45.07190936659427" lon="8.158040153395813"><ele>253.0</ele><time>2026-04-18T09:50:41Z</time></trkpt><trkpt lat="45.07186589826452" lon="8.158122176062923"><ele>253.60000000000002</ele><time>2026-04-18T09:50:42Z</time></trkpt><trkpt lat="45.0718043114157" lon="8.158227371849536"><ele>254.20000000000002</ele><time>2026-04-18T09:50:43Z</time></trkpt><trkpt lat="45.07174850711963" lon="8.158362670787024"><ele>254.8</ele><time>2026-04-18T09:50:44Z</time></trkpt><trkpt lat="45.07171295857096" lon="8.15845819648438"><ele>255.4</ele><time>2026-04-18T09:50:45Z</time></trkpt><trkpt lat="45.07166515243729" lon="8.158552716658367"><ele>256.0</ele><time>2026-04-18T09:50:46Z</time></trkpt><trkpt lat="45.071604729884946" lon="8.158670382715181"><ele>255.99999999999997</ele><time>2026-04-18T09:50:48Z</time></trkpt><trkpt lat="45.07157318869944" lon="8.15879982303782"><ele>256.0</ele><time>2026-04-18T09:50:50Z</time></trkpt><trkpt lat="45.07161492675209" lon="8.158926197322408"><ele>256.0</ele><time>2026-04-18T09:50:52Z</time></trkpt><trkpt lat="45.07165444483109" lon="8.159002103679597"><ele>256.0</ele><time>2026-04-18T09:50:53Z</time></trkpt><trkpt lat="45.07170012226885" lon="8.159073461242343"><ele>255.99999999999997</ele><time>2026-04-18T09:50:54Z</time></trkpt><trkpt lat="45.07176203008462" lon="8.159126241592025"><ele>256.0</ele><time>2026-04-18T09:50:55Z</time></trkpt><trkpt lat="45.07180676915291" lon="8.159208715526045"><ele>257.66666666666663</ele><time>2026-04-18T09:50:57Z</time></trkpt><trkpt lat="45.07176802559284" lon="8.159318058376188"><ele>259.3333333333333</ele><time>2026-04-18T09:50:59Z</time></trkpt><trkpt lat="45.07172922299462" lon="8.159398604533338"><ele>261.0</ele><time>2026-04-18T09:51:00Z</time></trkpt><trkpt lat="45.07167741642506" lon="8.159489267315607"><ele>262.6666666666667</ele><time>2026-04-18T09:51:01Z</time></trkpt><trkpt lat="45.071632796000074" lon="8.159584759983813"><ele>264.33333333333337</ele><time>2026-04-18T09:51:02Z</time></trkpt><trkpt lat="45.07158469612275" lon="8.159697205149977"><ele>266.0</ele><time>2026-04-18T09:51:03Z</time></trkpt><trkpt lat="45.07156066359955" lon="8.159790629243425"><ele>267.6</ele><time>2026-04-18T09:51:04Z</time></trkpt><trkpt lat="45.07153653009433" lon="8.15990926340294"><ele>269.20000000000005</ele><time>2026-04-18T09:51:05Z</time></trkpt><trkpt lat="45.07151238255747" lon="8.160049573100416"><ele>270.79999999999995</ele><time>2026-04-18T09:51:06Z</time></trkpt><trkpt lat="45.0714880673005" lon="8.160193152883425"><ele>272.4</ele><time>2026-04-18T09:51:07Z</time></trkpt><trkpt lat="45.07146927009646" lon="8.160347627444462"><ele>274.0</ele><time>2026-04-18T09:51:08Z</time></trkpt><trkpt lat="45.0714447033904" lon="8.16050231547011"><ele>274.0</ele><time>2026-04-18T09:51:09Z</time></trkpt><trkpt lat="45.071414040371366" lon="8.160653362672397"><ele>274.0</ele><time>2026-04-18T09:51:10Z</time></trkpt><trkpt lat="45.07136490764295" lon="8.16081037646371"><ele>274.0</ele><time>2026-04-18T09:51:11Z</time></trkpt><trkpt lat="45.0713102600078" lon="8.160960229514282"><ele>274.0</ele><time>2026-04-18T09:51:12Z</time></trkpt><trkpt lat="45.07124793248761" lon="8.161107118887161"><ele>275.8</ele><time>2026-04-18T09:51:13Z</time></trkpt><trkpt lat="45.07119314590962" lon="8.161258607453306"><ele>277.59999999999997</ele><time>2026-04-18T09:51:14Z</time></trkpt><trkpt lat="45.07115873544176" lon="8.161408123831235"><ele>279.4</ele><time>2026-04-18T09:51:15Z</time></trkpt><trkpt lat="45.071117952364055" lon="8.161541243159173"><ele>281.2</ele><time>2026-04-18T09:51:16Z</time></trkpt><trkpt lat="45.071083796312664" lon="8.161667057247474"><ele>283.0</ele><time>2026-04-18T09:51:17Z</time></trkpt><trkpt lat="45.071079593749914" lon="8.161799022689452"><ele>285.6</ele><time>2026-04-18T09:51:18Z</time></trkpt><trkpt lat="45.07110159974738" lon="8.161935725465256"><ele>288.20000000000005</ele><time>2026-04-18T09:51:19Z</time></trkpt><trkpt lat="45.0711225904643" lon="8.162112256435057"><ele>290.8</ele><time>2026-04-18T09:51:20Z</time></trkpt><trkpt lat="45.071137186746675" lon="8.162261331894776"><ele>293.40000000000003</ele><time>2026-04-18T09:51:21Z</time></trkpt><trkpt lat="45.07114443171981" lon="8.16241481339049"><ele>296.0</ele><time>2026-04-18T09:51:22Z</time></trkpt><trkpt lat="45.071146752014485" lon="8.162541245213637"><ele>297.0</ele><time>2026-04-18T09:51:23Z</time></trkpt><trkpt lat="45.07115109880298" lon="8.162642747163245"><ele>298.0</ele><time>2026-04-18T09:51:24Z</time></trkpt><trkpt lat="45.0711765321534" lon="8.162763122235294"><ele>299.0</ele><time>2026-04-18T09:51:26Z</time></trkpt><trkpt lat="45.071263827071924" lon="8.162761543766932"><ele>300.0</ele><time>2026-04-18T09:51:28Z</time></trkpt><trkpt lat="45.071297575029114" lon="8.162683027098762"><ele>301.0</ele><time>2026-04-18T09:51:29Z</time></trkpt><trkpt lat="45.07134514690348" lon="8.162612024090231"><ele>302.0</ele><time>2026-04-18T09:51:31Z</time></trkpt><trkpt lat="45.07138333423139" lon="8.16268771092336"><ele>303.0</ele><time>2026-04-18T09:51:33Z</time></trkpt><trkpt lat="45.071295440033815" lon="8.162816675727626"><ele>303.0</ele><time>2026-04-18T09:51:35Z</time></trkpt><trkpt lat="45.07124732682424" lon="8.162898827143703"><ele>303.0</ele><time>2026-04-18T09:51:36Z</time></trkpt><trkpt lat="45.07119910441295" lon="8.162994879442323"><ele>303.0</ele><time>2026-04-18T09:51:37Z</time></trkpt><trkpt lat="45.07117513036885" lon="8.163126729738927"><ele>303.0</ele><time>2026-04-18T09:51:38Z</time></trkpt><trkpt lat="45.07116159469984" lon="8.163295958194947"><ele>303.0</ele><time>2026-04-18T09:51:39Z</time></trkpt><trkpt lat="45.071166272768345" lon="8.16344259563066"><ele>304.1666666666667</ele><time>2026-04-18T09:51:40Z</time></trkpt><trkpt lat="45.07117141481699" lon="8.163548358187144"><ele>305.3333333333333</ele><time>2026-04-18T09:51:41Z</time></trkpt><trkpt lat="45.071145169292954" lon="8.16369472319069"><ele>306.5</ele><time>2026-04-18T09:51:43Z</time></trkpt><trkpt lat="45.071098966629556" lon="8.163783721201632"><ele>307.66666666666663</ele><time>2026-04-18T09:51:45Z</time></trkpt><trkpt lat="45.07113016064011" lon="8.163877181135504"><ele>308.8333333333333</ele><time>2026-04-18T09:51:47Z</time></trkpt><trkpt lat="45.071207605039056" lon="8.163856054115925"><ele>310.0</ele><time>2026-04-18T09:51:49Z</time></trkpt><trkpt lat="45.07119658452883" lon="8.163704496507734"><ele>310.0</ele><time>2026-04-18T09:51:51Z</time></trkpt><trkpt lat="45.07118106518336" lon="8.1635034271624"><ele>310.0</ele><time>2026-04-18T09:51:53Z</time></trkpt><trkpt lat="45.07117696905576" lon="8.163363256814364"><ele>310.0</ele><time>2026-04-18T09:51:54Z</time></trkpt><trkpt lat="45.07117820965505" lon="8.16321699761847"><ele>310.0</ele><time>2026-04-18T09:51:55Z</time></trkpt><trkpt lat="45.07119112680219" lon="8.163075122362677"><ele>310.0</ele><time>2026-04-18T09:51:56Z</time></trkpt><trkpt lat="45.07123239254222" lon="8.162940047230439"><ele>309.3333333333333</ele><time>2026-04-18T09:51:57Z</time></trkpt><trkpt lat="45.07129034796255" lon="8.16283577703622"><ele>308.66666666666663</ele><time>2026-04-18T09:51:58Z</time></trkpt><trkpt lat="45.07136763094192" lon="8.16277976314796"><ele>308.0</ele><time>2026-04-18T09:51:59Z</time></trkpt><trkpt lat="45.07143509998593" lon="8.162716145691867"><ele>307.3333333333333</ele><time>2026-04-18T09:52:00Z</time></trkpt><trkpt lat="45.07150409114979" lon="8.162712263764856"><ele>306.6666666666667</ele><time>2026-04-18T09:52:01Z</time></trkpt><trkpt lat="45.07158631969205" lon="8.162715091257859"><ele>306.0</ele><time>2026-04-18T09:52:02Z</time></trkpt><trkpt lat="45.0716751034565" lon="8.162759085358875"><ele>306.0</ele><time>2026-04-18T09:52:03Z</time></trkpt><trkpt lat="45.07174884586482" lon="8.162834984195722"><ele>306.0</ele><time>2026-04-18T09:52:04Z</time></trkpt><trkpt lat="45.07177033204144" lon="8.162993003319718"><ele>306.0</ele><time>2026-04-18T09:52:05Z</time></trkpt><trkpt lat="45.07178568823615" lon="8.163170749515382"><ele>306.0</ele><time>2026-04-18T09:52:06Z</time></trkpt><trkpt lat="45.07179702350649" lon="8.16331715123501"><ele>306.0</ele><time>2026-04-18T09:52:07Z</time></trkpt><trkpt lat="45.07182978388407" lon="8.1634541117371"><ele>306.40000000000003</ele><time>2026-04-18T09:52:08Z</time></trkpt><trkpt lat="45.07187303460946" lon="8.163587312942013"><ele>306.8</ele><time>2026-04-18T09:52:09Z</time></trkpt><trkpt lat="45.071928565567234" lon="8.163710825985586"><ele>307.20000000000005</ele><time>2026-04-18T09:52:10Z</time></trkpt><trkpt lat="45.07199508600685" lon="8.16381810404459"><ele>307.6</ele><time>2026-04-18T09:52:11Z</time></trkpt><trkpt lat="45.07207691193699" lon="8.163916035884656"><ele>308.0</ele><time>2026-04-18T09:52:12Z</time></trkpt><trkpt lat="45.07217192821341" lon="8.163986369214484"><ele>308.0</ele><time>2026-04-18T09:52:13Z</time></trkpt><trkpt lat="45.07227285609236" lon="8.164033606920574"><ele>308.0</ele><time>2026-04-18T09:52:14Z</time></trkpt><trkpt lat="45.07238067521843" lon="8.164099819030525"><ele>308.0</ele><time>2026-04-18T09:52:15Z</time></trkpt><trkpt lat="45.072500215951486" lon="8.164130085326168"><ele>308.0</ele><time>2026-04-18T09:52:16Z</time></trkpt><trkpt lat="45.07262003055524" lon="8.164137056475875"><ele>308.0</ele><time>2026-04-18T09:52:17Z</time></trkpt><trkpt lat="45.07274361249997" lon="8.164120559896178"><ele>308.0</ele><time>2026-04-18T09:52:18Z</time></trkpt><trkpt lat="45.07286829424258" lon="8.164101876154033"><ele>308.0</ele><time>2026-04-18T09:52:19Z</time></trkpt><trkpt lat="45.072984216311525" lon="8.164092710436723"><ele>308.0</ele><time>2026-04-18T09:52:20Z</time></trkpt><trkpt lat="45.073105915602895" lon="8.164103606927496"><ele>308.0</ele><time>2026-04-18T09:52:21Z</time></trkpt><trkpt lat="45.07320608857298" lon="8.16414462150677"><ele>308.0</ele><time>2026-04-18T09:52:22Z</time></trkpt><trkpt lat="45.073294454922426" lon="8.164200551158073"><ele>308.0</ele><time>2026-04-18T09:52:23Z</time></trkpt><trkpt lat="45.073411789790775" lon="8.164293937868507"><ele>308.0</ele><time>2026-04-18T09:52:24Z</time></trkpt><trkpt lat="45.073531964218766" lon="8.16439862341786"><ele>304.33333333333337</ele><time>2026-04-18T09:52:25Z</time></trkpt><trkpt lat="45.07365907494753" lon="8.164517717746794"><ele>300.6666666666667</ele><time>2026-04-18T09:52:26Z</time></trkpt><trkpt lat="45.07379047302245" lon="8.164641365029139"><ele>297.0</ele><time>2026-04-18T09:52:27Z</time></trkpt><trkpt lat="45.073912678805385" lon="8.16475471945907"><ele>297.0</ele><time>2026-04-18T09:52:28Z</time></trkpt><trkpt lat="45.074027667589654" lon="8.164859067854255"><ele>297.0</ele><time>2026-04-18T09:52:29Z</time></trkpt><trkpt lat="45.07414260979832" lon="8.164956193948512"><ele>297.0</ele><time>2026-04-18T09:52:30Z</time></trkpt><trkpt lat="45.07426557707449" lon="8.16503269778075"><ele>297.0</ele><time>2026-04-18T09:52:31Z</time></trkpt><trkpt lat="45.07436313426215" lon="8.165105055506887"><ele>294.2</ele><time>2026-04-18T09:52:32Z</time></trkpt><trkpt lat="45.0744642723868" lon="8.16516003282409"><ele>291.4</ele><time>2026-04-18T09:52:33Z</time></trkpt><trkpt lat="45.074564756710664" lon="8.165208761292105"><ele>288.6</ele><time>2026-04-18T09:52:34Z</time></trkpt><trkpt lat="45.074662707977325" lon="8.16525988335959"><ele>285.8</ele><time>2026-04-18T09:52:35Z</time></trkpt><trkpt lat="45.074746460317556" lon="8.165291119230353"><ele>283.0</ele><time>2026-04-18T09:52:36Z</time></trkpt><trkpt lat="45.0748398773017" lon="8.165307203751494"><ele>283.0</ele><time>2026-04-18T09:52:37Z</time></trkpt><trkpt lat="45.07492001707701" lon="8.165289155901108"><ele>283.0</ele><time>2026-04-18T09:52:38Z</time></trkpt><trkpt lat="45.074991582855624" lon="8.165235866541995"><ele>283.0</ele><time>2026-04-18T09:52:39Z</time></trkpt><trkpt lat="45.07506303570568" lon="8.165148939734456"><ele>283.0</ele><time>2026-04-18T09:52:40Z</time></trkpt><trkpt lat="45.07512141872417" lon="8.165030691192518"><ele>283.0</ele><time>2026-04-18T09:52:41Z</time></trkpt><trkpt lat="45.07515767642646" lon="8.164886726297102"><ele>279.0</ele><time>2026-04-18T09:52:42Z</time></trkpt><trkpt lat="45.07516814506177" lon="8.164726772315053"><ele>275.0</ele><time>2026-04-18T09:52:43Z</time></trkpt><trkpt lat="45.0751624789522" lon="8.164574972425267"><ele>271.0</ele><time>2026-04-18T09:52:44Z</time></trkpt><trkpt lat="45.07513655968096" lon="8.164436379647075"><ele>267.0</ele><time>2026-04-18T09:52:45Z</time></trkpt><trkpt lat="45.07517036488357" lon="8.16432734987357"><ele>263.0</ele><time>2026-04-18T09:52:46Z</time></trkpt><trkpt lat="45.07522398965131" lon="8.164243021256867"><ele>263.0</ele><time>2026-04-18T09:52:47Z</time></trkpt><trkpt lat="45.07529283340977" lon="8.164185291621468"><ele>263.0</ele><time>2026-04-18T09:52:48Z</time></trkpt><trkpt lat="45.075381296715264" lon="8.16416465859786"><ele>263.0</ele><time>2026-04-18T09:52:49Z</time></trkpt><trkpt lat="45.07547822475908" lon="8.164145780584656"><ele>263.0</ele><time>2026-04-18T09:52:50Z</time></trkpt><trkpt lat="45.07556289423557" lon="8.164252453876765"><ele>263.0</ele><time>2026-04-18T09:52:51Z</time></trkpt><trkpt lat="45.07565850903978" lon="8.164332428218849"><ele>263.0</ele><time>2026-04-18T09:52:52Z</time></trkpt><trkpt lat="45.07575727205864" lon="8.164414977056845"><ele>263.0</ele><time>2026-04-18T09:52:53Z</time></trkpt><trkpt lat="45.0758565094316" lon="8.164497920409366"><ele>263.0</ele><time>2026-04-18T09:52:54Z</time></trkpt><trkpt lat="45.075945393016696" lon="8.164572097360328"><ele>263.0</ele><time>2026-04-18T09:52:55Z</time></trkpt><trkpt lat="45.07603254122314" lon="8.164641570894377"><ele>263.0</ele><time>2026-04-18T09:52:56Z</time></trkpt><trkpt lat="45.07610942295909" lon="8.164695316053052"><ele>262.5</ele><time>2026-04-18T09:52:57Z</time></trkpt><trkpt lat="45.076181673635396" lon="8.164711526153303"><ele>262.0</ele><time>2026-04-18T09:52:58Z</time></trkpt><trkpt lat="45.076259303975014" lon="8.164794545702142"><ele>261.5</ele><time>2026-04-18T09:53:00Z</time></trkpt><trkpt lat="45.07621506592341" lon="8.164900761799222"><ele>261.0</ele><time>2026-04-18T09:53:02Z</time></trkpt><trkpt lat="45.07616827709783" lon="8.164972128076853"><ele>260.5</ele><time>2026-04-18T09:53:03Z</time></trkpt><trkpt lat="45.076110686468084" lon="8.165077139389846"><ele>260.0</ele><time>2026-04-18T09:53:04Z</time></trkpt><trkpt lat="45.07604989973607" lon="8.165190420135119"><ele>260.0</ele><time>2026-04-18T09:53:05Z</time></trkpt><trkpt lat="45.076016692426364" lon="8.165322919487853"><ele>260.0</ele><time>2026-04-18T09:53:06Z</time></trkpt><trkpt lat="45.076019530936314" lon="8.165475924224397"><ele>260.0</ele><time>2026-04-18T09:53:07Z</time></trkpt><trkpt lat="45.076012161878865" lon="8.165654115179315"><ele>260.0</ele><time>2026-04-18T09:53:08Z</time></trkpt><trkpt lat="45.075996227354956" lon="8.165853603774888"><ele>260.25</ele><time>2026-04-18T09:53:09Z</time></trkpt><trkpt lat="45.07599206622381" lon="8.166040634040494"><ele>260.5</ele><time>2026-04-18T09:53:10Z</time></trkpt><trkpt lat="45.075987392180146" lon="8.166219015136146"><ele>260.75</ele><time>2026-04-18T09:53:11Z</time></trkpt><trkpt lat="45.07598383147258" lon="8.166373851375342"><ele>261.0</ele><time>2026-04-18T09:53:12Z</time></trkpt><trkpt lat="45.0759803991873" lon="8.166516914495567"><ele>261.5</ele><time>2026-04-18T09:53:13Z</time></trkpt><trkpt lat="45.07597037529839" lon="8.166658938509418"><ele>262.0</ele><time>2026-04-18T09:53:14Z</time></trkpt><trkpt lat="45.075938643538876" lon="8.166788675309247"><ele>262.5</ele><time>2026-04-18T09:53:15Z</time></trkpt><trkpt lat="45.07586593344855" lon="8.16689321800838"><ele>263.0</ele><time>2026-04-18T09:53:16Z</time></trkpt><trkpt lat="45.07583591635314" lon="8.166979431976582"><ele>263.5</ele><time>2026-04-18T09:53:17Z</time></trkpt><trkpt lat="45.07581211590294" lon="8.16706565643116"><ele>264.0</ele><time>2026-04-18T09:53:18Z</time></trkpt><trkpt lat="45.07580266189608" lon="8.167180667836524"><ele>264.0</ele><time>2026-04-18T09:53:19Z</time></trkpt><trkpt lat="45.075818691743066" lon="8.167331509042734"><ele>264.0</ele><time>2026-04-18T09:53:20Z</time></trkpt><trkpt lat="45.07587610086204" lon="8.1674677731298"><ele>264.0</ele><time>2026-04-18T09:53:21Z</time></trkpt><trkpt lat="45.07594276693919" lon="8.16759175718915"><ele>264.0</ele><time>2026-04-18T09:53:22Z</time></trkpt><trkpt lat="45.07598522693185" lon="8.167717672703503"><ele>264.0</ele><time>2026-04-18T09:53:23Z</time></trkpt><trkpt lat="45.076053353583724" lon="8.167821038715193"><ele>264.8</ele><time>2026-04-18T09:53:24Z</time></trkpt><trkpt lat="45.07611851712864" lon="8.167942210566983"><ele>265.59999999999997</ele><time>2026-04-18T09:53:25Z</time></trkpt><trkpt lat="45.07617570155072" lon="8.168059209400884"><ele>266.4</ele><time>2026-04-18T09:53:26Z</time></trkpt><trkpt lat="45.07624365328208" lon="8.168136351985995"><ele>267.2</ele><time>2026-04-18T09:53:27Z</time></trkpt><trkpt lat="45.07628840511567" lon="8.16824155454136"><ele>268.0</ele><time>2026-04-18T09:53:28Z</time></trkpt><trkpt lat="45.07636062300324" lon="8.168350712776327"><ele>269.2</ele><time>2026-04-18T09:53:29Z</time></trkpt><trkpt lat="45.07644613122983" lon="8.168453461552625"><ele>270.4</ele><time>2026-04-18T09:53:30Z</time></trkpt><trkpt lat="45.07652247070759" lon="8.16855053274195"><ele>271.59999999999997</ele><time>2026-04-18T09:53:31Z</time></trkpt><trkpt lat="45.076609001655534" lon="8.168652673507978"><ele>272.8</ele><time>2026-04-18T09:53:32Z</time></trkpt><trkpt lat="45.07668070224425" lon="8.168728024444293"><ele>274.0</ele><time>2026-04-18T09:53:33Z</time></trkpt><trkpt lat="45.07673927105505" lon="8.168806262704154"><ele>271.0</ele><time>2026-04-18T09:53:34Z</time></trkpt><trkpt lat="45.076831471860395" lon="8.168888943245054"><ele>268.0</ele><time>2026-04-18T09:53:36Z</time></trkpt><trkpt lat="45.07693120721709" lon="8.168922045221603"><ele>265.0</ele><time>2026-04-18T09:53:37Z</time></trkpt><trkpt lat="45.07699585562472" lon="8.168988910931482"><ele>262.0</ele><time>2026-04-18T09:53:38Z</time></trkpt><trkpt lat="45.07706523648261" lon="8.169089574103957"><ele>259.0</ele><time>2026-04-18T09:53:39Z</time></trkpt><trkpt lat="45.07709759936428" lon="8.169237177139863"><ele>259.0</ele><time>2026-04-18T09:53:40Z</time></trkpt><trkpt lat="45.07715133945234" lon="8.169352868349687"><ele>259.0</ele><time>2026-04-18T09:53:41Z</time></trkpt><trkpt lat="45.07722976913832" lon="8.16941106934487"><ele>259.0</ele><time>2026-04-18T09:53:42Z</time></trkpt><trkpt lat="45.07728855857155" lon="8.169472667110508"><ele>259.0</ele><time>2026-04-18T09:53:43Z</time></trkpt><trkpt lat="45.077382282425205" lon="8.169492673586785"><ele>259.0</ele><time>2026-04-18T09:53:44Z</time></trkpt><trkpt lat="45.07747523108109" lon="8.169441768415206"><ele>257.2</ele><time>2026-04-18T09:53:45Z</time></trkpt><trkpt lat="45.07758610885555" lon="8.16944339406217"><ele>255.39999999999998</ele><time>2026-04-18T09:53:46Z</time></trkpt><trkpt lat="45.07768833056696" lon="8.169422659130062"><ele>253.6</ele><time>2026-04-18T09:53:47Z</time></trkpt><trkpt lat="45.07779849637749" lon="8.16940425215962"><ele>251.8</ele><time>2026-04-18T09:53:48Z</time></trkpt><trkpt lat="45.077899844424785" lon="8.169396862698166"><ele>250.0</ele><time>2026-04-18T09:53:49Z</time></trkpt><trkpt lat="45.078000450558946" lon="8.169399948695213"><ele>250.0</ele><time>2026-04-18T09:53:50Z</time></trkpt><trkpt lat="45.07810469897319" lon="8.169412512820369"><ele>250.0</ele><time>2026-04-18T09:53:51Z</time></trkpt><trkpt lat="45.07820811406642" lon="8.169433874190807"><ele>250.0</ele><time>2026-04-18T09:53:52Z</time></trkpt><trkpt lat="45.078320462282804" lon="8.169466879094408"><ele>250.0</ele><time>2026-04-18T09:53:53Z</time></trkpt><trkpt lat="45.078432234255686" lon="8.169505792558292"><ele>250.0</ele><time>2026-04-18T09:53:54Z</time></trkpt><trkpt lat="45.07853630727681" lon="8.169553540195448"><ele>249.6</ele><time>2026-04-18T09:53:55Z</time></trkpt><trkpt lat="45.07863394091803" lon="8.169609644153462"><ele>249.2</ele><time>2026-04-18T09:53:56Z</time></trkpt><trkpt lat="45.078728066246114" lon="8.169670087405184"><ele>248.8</ele><time>2026-04-18T09:53:57Z</time></trkpt><trkpt lat="45.07880926613874" lon="8.169727131865981"><ele>248.4</ele><time>2026-04-18T09:53:58Z</time></trkpt><trkpt lat="45.07888413942727" lon="8.169785758271159"><ele>248.0</ele><time>2026-04-18T09:53:59Z</time></trkpt><trkpt lat="45.07895155325348" lon="8.169820841410774"><ele>248.0</ele><time>2026-04-18T09:54:00Z</time></trkpt><trkpt lat="45.07903285764319" lon="8.169832184353327"><ele>248.0</ele><time>2026-04-18T09:54:01Z</time></trkpt><trkpt lat="45.07911283618937" lon="8.16988244106969"><ele>248.0</ele><time>2026-04-18T09:54:02Z</time></trkpt><trkpt lat="45.07919118254027" lon="8.169933103369036"><ele>248.0</ele><time>2026-04-18T09:54:04Z</time></trkpt><trkpt lat="45.07928646238887" lon="8.169977369154255"><ele>248.0</ele><time>2026-04-18T09:54:06Z</time></trkpt><trkpt lat="45.07938058284403" lon="8.170037217350922"><ele>250.60000000000002</ele><time>2026-04-18T09:54:08Z</time></trkpt><trkpt lat="45.079372268165464" lon="8.170209113610372"><ele>253.20000000000002</ele><time>2026-04-18T09:54:09Z</time></trkpt><trkpt lat="45.07939562173504" lon="8.170316010469515"><ele>255.8</ele><time>2026-04-18T09:54:10Z</time></trkpt><trkpt lat="45.07941064771372" lon="8.170411065549429"><ele>258.40000000000003</ele><time>2026-04-18T09:54:11Z</time></trkpt><trkpt lat="45.07938536528801" lon="8.170600031379943"><ele>261.0</ele><time>2026-04-18T09:54:13Z</time></trkpt><trkpt lat="45.0794073424774" lon="8.170710141989506"><ele>261.40000000000003</ele><time>2026-04-18T09:54:14Z</time></trkpt><trkpt lat="45.079407374412035" lon="8.170845495375858"><ele>261.8</ele><time>2026-04-18T09:54:16Z</time></trkpt><trkpt lat="45.079398483778135" lon="8.171002884120126"><ele>262.20000000000005</ele><time>2026-04-18T09:54:18Z</time></trkpt><trkpt lat="45.079354330324364" lon="8.17116777064794"><ele>262.6</ele><time>2026-04-18T09:54:20Z</time></trkpt><trkpt lat="45.07930864007156" lon="8.171292062211768"><ele>263.0</ele><time>2026-04-18T09:54:22Z</time></trkpt><trkpt lat="45.07923126656793" lon="8.171393696427167"><ele>263.0</ele><time>2026-04-18T09:54:24Z</time></trkpt><trkpt lat="45.079159487275824" lon="8.17150309127597"><ele>263.0</ele><time>2026-04-18T09:54:26Z</time></trkpt><trkpt lat="45.07911191248941" lon="8.17158000611415"><ele>263.0</ele><time>2026-04-18T09:54:28Z</time></trkpt><trkpt lat="45.07907460010857" lon="8.171683270938248"><ele>263.0</ele><time>2026-04-18T09:54:31Z</time></trkpt><trkpt lat="45.07901998870264" lon="8.171772853911634"><ele>263.0</ele><time>2026-04-18T09:54:33Z</time></trkpt><trkpt lat="45.07899867798205" lon="8.171888729469709"><ele>263.0</ele><time>2026-04-18T09:54:36Z</time></trkpt><trkpt lat="45.07898954343988" lon="8.171994185197434"><ele>260.8</ele><time>2026-04-18T09:54:38Z</time></trkpt><trkpt lat="45.07904669714676" lon="8.172128234457205"><ele>258.6</ele><time>2026-04-18T09:54:40Z</time></trkpt><trkpt lat="45.0791161018059" lon="8.172258625017434"><ele>256.4</ele><time>2026-04-18T09:54:42Z</time></trkpt><trkpt lat="45.07915343669623" lon="8.172377004512754"><ele>254.2</ele><time>2026-04-18T09:54:44Z</time></trkpt><trkpt lat="45.07923188829062" lon="8.172435717410593"><ele>252.0</ele><time>2026-04-18T09:54:48Z</time></trkpt><trkpt lat="45.079326090172394" lon="8.172421588195334"><ele>251.5</ele><time>2026-04-18T09:54:50Z</time></trkpt><trkpt lat="45.07941582133287" lon="8.172395298264423"><ele>251.0</ele><time>2026-04-18T09:54:53Z</time></trkpt><trkpt lat="45.079482608072304" lon="8.172375996659392"><ele>250.5</ele><time>2026-04-18T09:54:55Z</time></trkpt><trkpt lat="45.07956203856719" lon="8.172399373784973"><ele>250.0</ele><time>2026-04-18T09:54:57Z</time></trkpt><trkpt lat="45.07960475711382" lon="8.172511720017768"><ele>249.5</ele><time>2026-04-18T09:54:59Z</time></trkpt><trkpt lat="45.07962196933169" lon="8.172607671983654"><ele>249.0</ele><time>2026-04-18T09:55:01Z</time></trkpt><trkpt lat="45.079628230851135" lon="8.172708321008255"><ele>249.0</ele><time>2026-04-18T09:55:03Z</time></trkpt><trkpt lat="45.07963953802481" lon="8.172829598666938"><ele>249.0</ele><time>2026-04-18T09:55:06Z</time></trkpt><trkpt lat="45.079657788714464" lon="8.17295232980597"><ele>249.0</ele><time>2026-04-18T09:55:10Z</time></trkpt><trkpt lat="45.07969622006324" lon="8.173043348111424"><ele>249.0</ele><time>2026-04-18T09:55:12Z</time></trkpt><trkpt lat="45.07974922464992" lon="8.173126996089529"><ele>249.0</ele><time>2026-04-18T09:55:14Z</time></trkpt><trkpt lat="45.07984899635415" lon="8.173141168182395"><ele>249.0</ele><time>2026-04-18T09:55:16Z</time></trkpt><trkpt lat="45.07994377216222" lon="8.173137054747835"><ele>246.16666666666666</ele><time>2026-04-18T09:55:18Z</time></trkpt><trkpt lat="45.08002301191798" lon="8.173116690398505"><ele>243.33333333333331</ele><time>2026-04-18T09:55:20Z</time></trkpt><trkpt lat="45.08007133916416" lon="8.173187851524881"><ele>240.5</ele><time>2026-04-18T09:55:25Z</time></trkpt><trkpt lat="45.080156400554195" lon="8.173191920826744"><ele>237.66666666666666</ele><time>2026-04-18T09:55:29Z</time></trkpt><trkpt lat="45.080214512957916" lon="8.173287151804745"><ele>234.83333333333331</ele><time>2026-04-18T09:55:31Z</time></trkpt><trkpt lat="45.080248679659434" lon="8.173403825672786"><ele>232.0</ele><time>2026-04-18T09:55:33Z</time></trkpt><trkpt lat="45.08029996836052" lon="8.173483994095966"><ele>231.66666666666666</ele><time>2026-04-18T09:55:35Z</time></trkpt><trkpt lat="45.08037752784023" lon="8.17353911004618"><ele>231.33333333333331</ele><time>2026-04-18T09:55:38Z</time></trkpt><trkpt lat="45.080460861483786" lon="8.17355186529666"><ele>231.0</ele><time>2026-04-18T09:55:41Z</time></trkpt><trkpt lat="45.08054940326553" lon="8.17351397354711"><ele>230.66666666666669</ele><time>2026-04-18T09:55:43Z</time></trkpt><trkpt lat="45.08062924702101" lon="8.173495691833285"><ele>230.33333333333334</ele><time>2026-04-18T09:55:45Z</time></trkpt><trkpt lat="45.08072210892669" lon="8.173535532241392"><ele>230.0</ele><time>2026-04-18T09:55:48Z</time></trkpt><trkpt lat="45.08079801793165" lon="8.173579283427406"><ele>225.5</ele><time>2026-04-18T09:55:50Z</time></trkpt><trkpt lat="45.08090432794342" lon="8.173625209923117"><ele>221.0</ele><time>2026-04-18T09:55:52Z</time></trkpt><trkpt lat="45.081001429225154" lon="8.173655012244577"><ele>216.5</ele><time>2026-04-18T09:55:54Z</time></trkpt><trkpt lat="45.08118076749985" lon="8.173673234275157"><ele>212.0</ele><time>2026-04-18T09:55:58Z</time></trkpt><trkpt lat="45.08123149278539" lon="8.173771298336492"><ele>212.0</ele><time>2026-04-18T09:56:00Z</time></trkpt><trkpt lat="45.0812764132167" lon="8.173876828710895"><ele>212.0</ele><time>2026-04-18T09:56:02Z</time></trkpt><trkpt lat="45.08134093769988" lon="8.173999688148555"><ele>212.0</ele><time>2026-04-18T09:56:05.001Z</time></trkpt><trkpt lat="45.081408348921215" lon="8.174113229757893"><ele>226.0</ele><time>2026-04-18T09:56:07.001Z</time></trkpt></trkseg><trkseg><trkpt lat="45.0815399246675" lon="8.174263376433629"><ele>226.0</ele><time>2026-04-18T10:39:49.962Z</time></trkpt><trkpt lat="45.08144841670431" lon="8.174210806787112"><ele>226.00000000000003</ele><time>2026-04-18T10:40:18Z</time></trkpt><trkpt lat="45.08140836236118" lon="8.174116532571299"><ele>226.00000000000003</ele><time>2026-04-18T10:41:14Z</time></trkpt><trkpt lat="45.08135677718259" lon="8.174011260912733"><ele>226.0</ele><time>2026-04-18T10:41:17Z</time></trkpt><trkpt lat="45.081310701831526" lon="8.173910572083445"><ele>226.0</ele><time>2026-04-18T10:41:19Z</time></trkpt><trkpt lat="45.081245506804294" lon="8.173795306300558"><ele>223.66666666666666</ele><time>2026-04-18T10:41:22Z</time></trkpt><trkpt lat="45.08118575011454" lon="8.17369453352934"><ele>221.33333333333331</ele><time>2026-04-18T10:41:24Z</time></trkpt><trkpt lat="45.08110655525141" lon="8.173694338807941"><ele>219.0</ele><time>2026-04-18T10:41:26Z</time></trkpt><trkpt lat="45.08103686975803" lon="8.173682287107397"><ele>216.66666666666669</ele><time>2026-04-18T10:41:27Z</time></trkpt><trkpt lat="45.080940709412175" lon="8.173657670924916"><ele>214.33333333333334</ele><time>2026-04-18T10:41:29Z</time></trkpt><trkpt lat="45.08085299854208" lon="8.173615795056998"><ele>212.0</ele><time>2026-04-18T10:41:31Z</time></trkpt><trkpt lat="45.08077346354574" lon="8.173569780057715"><ele>215.00000000000003</ele><time>2026-04-18T10:41:33Z</time></trkpt><trkpt lat="45.080693669386434" lon="8.173546834705595"><ele>218.0</ele><time>2026-04-18T10:41:35Z</time></trkpt><trkpt lat="45.08058342328971" lon="8.173547880892086"><ele>221.0</ele><time>2026-04-18T10:41:38Z</time></trkpt><trkpt lat="45.08050573147879" lon="8.173593478481543"><ele>224.0</ele><time>2026-04-18T10:41:40Z</time></trkpt><trkpt lat="45.080441279426836" lon="8.173600455809625"><ele>227.00000000000003</ele><time>2026-04-18T10:41:42Z</time></trkpt><trkpt lat="45.08038153381932" lon="8.17354479266533"><ele>230.0</ele><time>2026-04-18T10:41:47Z</time></trkpt><trkpt lat="45.080304351374046" lon="8.17346658629274"><ele>230.0</ele><time>2026-04-18T10:41:57Z</time></trkpt><trkpt lat="45.08024694287036" lon="8.17332875257774"><ele>230.0</ele><time>2026-04-18T10:41:59Z</time></trkpt><trkpt lat="45.08019162437956" lon="8.173230866151657"><ele>230.0</ele><time>2026-04-18T10:42:01Z</time></trkpt><trkpt lat="45.080078809581906" lon="8.173200392143022"><ele>230.0</ele><time>2026-04-18T10:42:04Z</time></trkpt><trkpt lat="45.07997490181461" lon="8.17321681730125"><ele>230.0</ele><time>2026-04-18T10:42:06Z</time></trkpt><trkpt lat="45.07986821431435" lon="8.17322666631922"><ele>232.8</ele><time>2026-04-18T10:42:08Z</time></trkpt><trkpt lat="45.07977923593872" lon="8.173190954307058"><ele>235.6</ele><time>2026-04-18T10:42:10Z</time></trkpt><trkpt lat="45.07970686228188" lon="8.173085957632667"><ele>238.39999999999998</ele><time>2026-04-18T10:42:12Z</time></trkpt><trkpt lat="45.07969151176732" lon="8.172928613673799"><ele>241.2</ele><time>2026-04-18T10:42:14Z</time></trkpt><trkpt lat="45.07968648915092" lon="8.172786174995688"><ele>244.0</ele><time>2026-04-18T10:42:16Z</time></trkpt><trkpt lat="45.07968959568907" lon="8.172649778303283"><ele>245.0</ele><time>2026-04-18T10:42:18Z</time></trkpt><trkpt lat="45.07967786343909" lon="8.172534532168054"><ele>245.99999999999997</ele><time>2026-04-18T10:42:20Z</time></trkpt><trkpt lat="45.07962363992967" lon="8.17243171818084"><ele>246.99999999999997</ele><time>2026-04-18T10:42:22Z</time></trkpt><trkpt lat="45.079519193362266" lon="8.172459799268873"><ele>248.0</ele><time>2026-04-18T10:42:24Z</time></trkpt><trkpt lat="45.07941344643964" lon="8.172518807457749"><ele>249.0</ele><time>2026-04-18T10:42:26Z</time></trkpt><trkpt lat="45.0792942589097" lon="8.172527082655126"><ele>249.0</ele><time>2026-04-18T10:42:28Z</time></trkpt><trkpt lat="45.079228782423854" lon="8.172483876408691"><ele>249.0</ele><time>2026-04-18T10:42:31Z</time></trkpt><trkpt lat="45.079176862618276" lon="8.172385729252982"><ele>249.0</ele><time>2026-04-18T10:42:35Z</time></trkpt><trkpt lat="45.07913276031316" lon="8.172280585548014"><ele>249.0</ele><time>2026-04-18T10:42:38Z</time></trkpt><trkpt lat="45.07908920118272" lon="8.17218648008926"><ele>249.0</ele><time>2026-04-18T10:42:40Z</time></trkpt><trkpt lat="45.07905909237933" lon="8.17208310522092"><ele>249.0</ele><time>2026-04-18T10:42:42Z</time></trkpt><trkpt lat="45.079069962622164" lon="8.171986714491581"><ele>249.5</ele><time>2026-04-18T10:42:45Z</time></trkpt><trkpt lat="45.07906322402708" lon="8.171871858654335"><ele>250.0</ele><time>2026-04-18T10:42:47Z</time></trkpt><trkpt lat="45.0790926310874" lon="8.171753021650067"><ele>250.5</ele><time>2026-04-18T10:42:49Z</time></trkpt><trkpt lat="45.079146540233" lon="8.17160326969059"><ele>251.0</ele><time>2026-04-18T10:42:51Z</time></trkpt><trkpt lat="45.07920379809776" lon="8.171523876762365"><ele>251.5</ele><time>2026-04-18T10:42:52Z</time></trkpt><trkpt lat="45.07926654715023" lon="8.171454226670305"><ele>252.0</ele><time>2026-04-18T10:42:53Z</time></trkpt><trkpt lat="45.07931126715406" lon="8.171362981656442"><ele>253.83333333333334</ele><time>2026-04-18T10:42:54Z</time></trkpt><trkpt lat="45.079332353079806" lon="8.171274227470969"><ele>255.66666666666669</ele><time>2026-04-18T10:42:55Z</time></trkpt><trkpt lat="45.07937055966262" lon="8.171185550194924"><ele>257.5</ele><time>2026-04-18T10:42:56Z</time></trkpt><trkpt lat="45.07938270900975" lon="8.171097374096602"><ele>259.33333333333337</ele><time>2026-04-18T10:42:57Z</time></trkpt><trkpt lat="45.07939909345395" lon="8.170915848642101"><ele>261.1666666666667</ele><time>2026-04-18T10:42:59Z</time></trkpt><trkpt lat="45.0794126595346" lon="8.17080837375147"><ele>263.0</ele><time>2026-04-18T10:43:00Z</time></trkpt><trkpt lat="45.07942228361487" lon="8.170702634363758"><ele>262.6666666666667</ele><time>2026-04-18T10:43:01Z</time></trkpt><trkpt lat="45.07940666708323" lon="8.170575053941889"><ele>262.33333333333337</ele><time>2026-04-18T10:43:02Z</time></trkpt><trkpt lat="45.07939740203069" lon="8.170464707926856"><ele>262.0</ele><time>2026-04-18T10:43:03Z</time></trkpt><trkpt lat="45.079391976368505" lon="8.170368912161743"><ele>261.6666666666667</ele><time>2026-04-18T10:43:04Z</time></trkpt><trkpt lat="45.07938871967049" lon="8.170214648061108"><ele>261.3333333333333</ele><time>2026-04-18T10:43:06Z</time></trkpt><trkpt lat="45.079354269104485" lon="8.170127546696564"><ele>261.0</ele><time>2026-04-18T10:43:07Z</time></trkpt><trkpt lat="45.0793078071968" lon="8.170045649656947"><ele>261.0</ele><time>2026-04-18T10:43:08Z</time></trkpt><trkpt lat="45.07926091390946" lon="8.169982715627274"><ele>261.0</ele><time>2026-04-18T10:43:09Z</time></trkpt><trkpt lat="45.07919791533807" lon="8.169930687505849"><ele>261.0</ele><time>2026-04-18T10:43:11Z</time></trkpt><trkpt lat="45.079076382970534" lon="8.169864257927758"><ele>261.0</ele><time>2026-04-18T10:43:13Z</time></trkpt><trkpt lat="45.07897721780248" lon="8.169814695470324"><ele>261.0</ele><time>2026-04-18T10:43:15Z</time></trkpt><trkpt lat="45.07890574361325" lon="8.169800533110063"><ele>261.0</ele><time>2026-04-18T10:43:16Z</time></trkpt><trkpt lat="45.07884269864121" lon="8.169763510697795"><ele>258.8333333333333</ele><time>2026-04-18T10:43:17Z</time></trkpt><trkpt lat="45.07878342298402" lon="8.169707344234666"><ele>256.6666666666667</ele><time>2026-04-18T10:43:18Z</time></trkpt><trkpt lat="45.078708844097356" lon="8.169641427801553"><ele>254.5</ele><time>2026-04-18T10:43:19Z</time></trkpt><trkpt lat="45.07861836770932" lon="8.1695965483697"><ele>252.33333333333334</ele><time>2026-04-18T10:43:20Z</time></trkpt><trkpt lat="45.078542660602" lon="8.169553306131561"><ele>250.16666666666669</ele><time>2026-04-18T10:43:21Z</time></trkpt><trkpt lat="45.0784483639247" lon="8.169501747834882"><ele>248.0</ele><time>2026-04-18T10:43:22Z</time></trkpt><trkpt lat="45.07836523064379" lon="8.169459800382446"><ele>248.00000000000003</ele><time>2026-04-18T10:43:23Z</time></trkpt><trkpt lat="45.078279698020566" lon="8.169429533905232"><ele>248.0</ele><time>2026-04-18T10:43:24Z</time></trkpt><trkpt lat="45.078199572104616" lon="8.169411736891737"><ele>248.0</ele><time>2026-04-18T10:43:25Z</time></trkpt><trkpt lat="45.07810497119445" lon="8.169393553347545"><ele>248.0</ele><time>2026-04-18T10:43:26Z</time></trkpt><trkpt lat="45.078017752170815" lon="8.169386605495658"><ele>248.00000000000003</ele><time>2026-04-18T10:43:27Z</time></trkpt><trkpt lat="45.07792926089006" lon="8.169367120025866"><ele>248.0</ele><time>2026-04-18T10:43:28Z</time></trkpt><trkpt lat="45.07783715033348" lon="8.169369779200586"><ele>248.4</ele><time>2026-04-18T10:43:29Z</time></trkpt><trkpt lat="45.07774018973207" lon="8.169388103353759"><ele>248.8</ele><time>2026-04-18T10:43:30Z</time></trkpt><trkpt lat="45.077648797288816" lon="8.169401281355661"><ele>249.2</ele><time>2026-04-18T10:43:31Z</time></trkpt><trkpt lat="45.0775573761671" lon="8.169401981008413"><ele>249.6</ele><time>2026-04-18T10:43:32Z</time></trkpt><trkpt lat="45.077473965658264" lon="8.16943646644192"><ele>250.0</ele><time>2026-04-18T10:43:33Z</time></trkpt><trkpt lat="45.07738170750533" lon="8.169452959710766"><ele>251.33333333333331</ele><time>2026-04-18T10:43:34Z</time></trkpt><trkpt lat="45.07730461161206" lon="8.16944756220287"><ele>252.66666666666666</ele><time>2026-04-18T10:43:35Z</time></trkpt><trkpt lat="45.07723866131155" lon="8.169414188130341"><ele>254.0</ele><time>2026-04-18T10:43:36Z</time></trkpt><trkpt lat="45.07718318690858" lon="8.16930983757157"><ele>255.33333333333331</ele><time>2026-04-18T10:43:37Z</time></trkpt><trkpt lat="45.07712942100626" lon="8.169206850391019"><ele>256.6666666666667</ele><time>2026-04-18T10:43:38Z</time></trkpt><trkpt lat="45.07709252110025" lon="8.1690909221792"><ele>258.0</ele><time>2026-04-18T10:43:39Z</time></trkpt><trkpt lat="45.07703828268226" lon="8.169002446959205"><ele>258.0</ele><time>2026-04-18T10:43:40Z</time></trkpt><trkpt lat="45.07696128854675" lon="8.168900909306478"><ele>258.0</ele><time>2026-04-18T10:43:42Z</time></trkpt><trkpt lat="45.07689130744245" lon="8.168854260432434"><ele>258.0</ele><time>2026-04-18T10:43:43Z</time></trkpt><trkpt lat="45.076752941681704" lon="8.16882455908556"><ele>258.0</ele><time>2026-04-18T10:43:45Z</time></trkpt><trkpt lat="45.07668553923684" lon="8.168755758563579"><ele>258.0</ele><time>2026-04-18T10:43:46Z</time></trkpt><trkpt lat="45.07663729976438" lon="8.168626666640137"><ele>261.2</ele><time>2026-04-18T10:43:47Z</time></trkpt><trkpt lat="45.0765625942379" lon="8.168547361762242"><ele>264.4</ele><time>2026-04-18T10:43:48Z</time></trkpt><trkpt lat="45.07648964938057" lon="8.16846436137323"><ele>267.59999999999997</ele><time>2026-04-18T10:43:49Z</time></trkpt><trkpt lat="45.07642419696" lon="8.168376992988483"><ele>270.8</ele><time>2026-04-18T10:43:50Z</time></trkpt><trkpt lat="45.07635711235878" lon="8.16827765170004"><ele>274.0</ele><time>2026-04-18T10:43:51Z</time></trkpt><trkpt lat="45.07628480224435" lon="8.1681937225406"><ele>272.8</ele><time>2026-04-18T10:43:52Z</time></trkpt><trkpt lat="45.076217700305854" lon="8.168079921330849"><ele>271.59999999999997</ele><time>2026-04-18T10:43:53Z</time></trkpt><trkpt lat="45.07616418187618" lon="8.167967373707882"><ele>270.4</ele><time>2026-04-18T10:43:54Z</time></trkpt><trkpt lat="45.076106663810336" lon="8.167869101903664"><ele>269.2</ele><time>2026-04-18T10:43:55Z</time></trkpt><trkpt lat="45.07604316948917" lon="8.167751944624618"><ele>268.0</ele><time>2026-04-18T10:43:56Z</time></trkpt><trkpt lat="45.075981559771655" lon="8.167635796043125"><ele>268.0</ele><time>2026-04-18T10:43:57Z</time></trkpt><trkpt lat="45.07593155235699" lon="8.167513722701777"><ele>268.0</ele><time>2026-04-18T10:43:58Z</time></trkpt><trkpt lat="45.07589506030746" lon="8.167399834483145"><ele>268.0</ele><time>2026-04-18T10:43:59Z</time></trkpt><trkpt lat="45.07586712137513" lon="8.167284265695057"><ele>268.0</ele><time>2026-04-18T10:44:00Z</time></trkpt><trkpt lat="45.075846819283164" lon="8.167187990618656"><ele>268.0</ele><time>2026-04-18T10:44:01Z</time></trkpt><trkpt lat="45.07584604090889" lon="8.16708046525886"><ele>268.0</ele><time>2026-04-18T10:44:02Z</time></trkpt><trkpt lat="45.075890889601695" lon="8.166939975381602"><ele>267.2</ele><time>2026-04-18T10:44:04Z</time></trkpt><trkpt lat="45.075935707776864" lon="8.166865040849641"><ele>266.4</ele><time>2026-04-18T10:44:05Z</time></trkpt><trkpt lat="45.07596806533352" lon="8.166727038371452"><ele>265.59999999999997</ele><time>2026-04-18T10:44:06Z</time></trkpt><trkpt lat="45.0759938768593" lon="8.166559221319327"><ele>264.8</ele><time>2026-04-18T10:44:07Z</time></trkpt><trkpt lat="45.0759965638472" lon="8.16637563774639"><ele>264.0</ele><time>2026-04-18T10:44:08Z</time></trkpt><trkpt lat="45.07600032597355" lon="8.166207592936624"><ele>263.4</ele><time>2026-04-18T10:44:09Z</time></trkpt><trkpt lat="45.075999171486046" lon="8.166079884001222"><ele>262.79999999999995</ele><time>2026-04-18T10:44:10Z</time></trkpt><trkpt lat="45.07601236742721" lon="8.16594724621588"><ele>262.20000000000005</ele><time>2026-04-18T10:44:11Z</time></trkpt><trkpt lat="45.07601406709088" lon="8.165793543882657"><ele>261.6</ele><time>2026-04-18T10:44:12Z</time></trkpt><trkpt lat="45.07602104641912" lon="8.165624471503966"><ele>261.0</ele><time>2026-04-18T10:44:13Z</time></trkpt><trkpt lat="45.07602623863759" lon="8.165458300083"><ele>260.8</ele><time>2026-04-18T10:44:14Z</time></trkpt><trkpt lat="45.07604674135471" lon="8.165328626065804"><ele>260.6</ele><time>2026-04-18T10:44:15Z</time></trkpt><trkpt lat="45.07607429582436" lon="8.165229026157954"><ele>260.4</ele><time>2026-04-18T10:44:16Z</time></trkpt><trkpt lat="45.076120827683894" lon="8.16510842770583"><ele>260.2</ele><time>2026-04-18T10:44:17Z</time></trkpt><trkpt lat="45.07616763444201" lon="8.16502202229702"><ele>260.0</ele><time>2026-04-18T10:44:18Z</time></trkpt><trkpt lat="45.07624713731455" lon="8.164905161035737"><ele>259.6666666666667</ele><time>2026-04-18T10:44:20Z</time></trkpt><trkpt lat="45.07627839223041" lon="8.16482427461387"><ele>259.33333333333337</ele><time>2026-04-18T10:44:22Z</time></trkpt><trkpt lat="45.07630319843194" lon="8.164726965018135"><ele>259.0</ele><time>2026-04-18T10:44:25Z</time></trkpt><trkpt lat="45.07640150641459" lon="8.164698276509224"><ele>258.6666666666667</ele><time>2026-04-18T10:44:27Z</time></trkpt><trkpt lat="45.07647143705351" lon="8.164649527942633"><ele>258.3333333333333</ele><time>2026-04-18T10:44:28Z</time></trkpt><trkpt lat="45.07653445046817" lon="8.164558377210058"><ele>258.0</ele><time>2026-04-18T10:44:29Z</time></trkpt><trkpt lat="45.07659607201217" lon="8.164447176839925"><ele>255.25</ele><time>2026-04-18T10:44:30Z</time></trkpt><trkpt lat="45.07664384697667" lon="8.164302899018635"><ele>252.5</ele><time>2026-04-18T10:44:31Z</time></trkpt><trkpt lat="45.07668707147145" lon="8.164141341364974"><ele>249.75</ele><time>2026-04-18T10:44:32Z</time></trkpt><trkpt lat="45.0767126090729" lon="8.163978507602685"><ele>247.0</ele><time>2026-04-18T10:44:33Z</time></trkpt><trkpt lat="45.07672592788174" lon="8.163809813269031"><ele>247.0</ele><time>2026-04-18T10:44:34Z</time></trkpt><trkpt lat="45.07675738018074" lon="8.163639780449708"><ele>247.0</ele><time>2026-04-18T10:44:35Z</time></trkpt><trkpt lat="45.07679609508953" lon="8.163482192624173"><ele>247.0</ele><time>2026-04-18T10:44:36Z</time></trkpt><trkpt lat="45.07682679407236" lon="8.163300018213203"><ele>247.0</ele><time>2026-04-18T10:44:37Z</time></trkpt><trkpt lat="45.076843835778554" lon="8.163122660326144"><ele>247.0</ele><time>2026-04-18T10:44:38Z</time></trkpt><trkpt lat="45.076874295436845" lon="8.162961895256247"><ele>247.0</ele><time>2026-04-18T10:44:39Z</time></trkpt><trkpt lat="45.076899233100036" lon="8.162818598354457"><ele>247.0</ele><time>2026-04-18T10:44:40Z</time></trkpt><trkpt lat="45.07692535715298" lon="8.162681458580801"><ele>247.0</ele><time>2026-04-18T10:44:41Z</time></trkpt><trkpt lat="45.07695561062814" lon="8.162559327218984"><ele>247.0</ele><time>2026-04-18T10:44:42Z</time></trkpt><trkpt lat="45.07700913500259" lon="8.162460144300788"><ele>247.0</ele><time>2026-04-18T10:44:43Z</time></trkpt><trkpt lat="45.07709279267751" lon="8.162402082580645"><ele>247.0</ele><time>2026-04-18T10:44:44Z</time></trkpt><trkpt lat="45.077187100611" lon="8.162399132187259"><ele>247.0</ele><time>2026-04-18T10:44:45Z</time></trkpt><trkpt lat="45.07727958823089" lon="8.162447098498921"><ele>247.0</ele><time>2026-04-18T10:44:46Z</time></trkpt><trkpt lat="45.07736507660537" lon="8.162571722206147"><ele>247.0</ele><time>2026-04-18T10:44:47Z</time></trkpt><trkpt lat="45.0774365380404" lon="8.162696160474344"><ele>243.25</ele><time>2026-04-18T10:44:48Z</time></trkpt><trkpt lat="45.07750982983321" lon="8.162837971749468"><ele>239.5</ele><time>2026-04-18T10:44:49Z</time></trkpt><trkpt lat="45.077590116158746" lon="8.162973724089396"><ele>235.75</ele><time>2026-04-18T10:44:50Z</time></trkpt><trkpt lat="45.07767489002382" lon="8.163107997859854"><ele>232.0</ele><time>2026-04-18T10:44:51Z</time></trkpt><trkpt lat="45.077759499222964" lon="8.163243816882956"><ele>232.0</ele><time>2026-04-18T10:44:52Z</time></trkpt><trkpt lat="45.077840910586715" lon="8.163381144415434"><ele>232.0</ele><time>2026-04-18T10:44:53Z</time></trkpt><trkpt lat="45.07791999965107" lon="8.163521108694251"><ele>232.0</ele><time>2026-04-18T10:44:54Z</time></trkpt><trkpt lat="45.077998265201664" lon="8.16365503242654"><ele>232.0</ele><time>2026-04-18T10:44:55Z</time></trkpt><trkpt lat="45.078078433657616" lon="8.163789186693911"><ele>232.0</ele><time>2026-04-18T10:44:56Z</time></trkpt><trkpt lat="45.078150160828024" lon="8.163927491030742"><ele>232.0</ele><time>2026-04-18T10:44:57Z</time></trkpt><trkpt lat="45.07820791878911" lon="8.164074386737557"><ele>232.0</ele><time>2026-04-18T10:44:58Z</time></trkpt><trkpt lat="45.078242718389575" lon="8.164234679509239"><ele>232.0</ele><time>2026-04-18T10:44:59Z</time></trkpt><trkpt lat="45.07826304766715" lon="8.164384388642084"><ele>230.8</ele><time>2026-04-18T10:45:00Z</time></trkpt><trkpt lat="45.078295292570395" lon="8.164516783171763"><ele>229.6</ele><time>2026-04-18T10:45:01Z</time></trkpt><trkpt lat="45.07833883918204" lon="8.164639356537775"><ele>228.40000000000003</ele><time>2026-04-18T10:45:02Z</time></trkpt><trkpt lat="45.07842938597476" lon="8.164742842474531"><ele>227.20000000000002</ele><time>2026-04-18T10:45:03Z</time></trkpt><trkpt lat="45.078561265472146" lon="8.164780491298135"><ele>226.0</ele><time>2026-04-18T10:45:04Z</time></trkpt><trkpt lat="45.07868515254934" lon="8.164812869007003"><ele>226.0</ele><time>2026-04-18T10:45:05Z</time></trkpt><trkpt lat="45.07879909157313" lon="8.164834953285515"><ele>226.0</ele><time>2026-04-18T10:45:06Z</time></trkpt><trkpt lat="45.078914059943926" lon="8.164865756295402"><ele>226.0</ele><time>2026-04-18T10:45:07Z</time></trkpt><trkpt lat="45.07902805705837" lon="8.164895998260194"><ele>226.0</ele><time>2026-04-18T10:45:08Z</time></trkpt><trkpt lat="45.07914349772369" lon="8.164924416956913"><ele>223.0</ele><time>2026-04-18T10:45:09Z</time></trkpt><trkpt lat="45.07925610343297" lon="8.164974580173517"><ele>220.0</ele><time>2026-04-18T10:45:10Z</time></trkpt><trkpt lat="45.07937637820069" lon="8.16499746164092"><ele>217.0</ele><time>2026-04-18T10:45:11Z</time></trkpt><trkpt lat="45.07949192213115" lon="8.164992888943267"><ele>214.0</ele><time>2026-04-18T10:45:12Z</time></trkpt><trkpt lat="45.07961663395556" lon="8.164998019365552"><ele>214.0</ele><time>2026-04-18T10:45:13Z</time></trkpt><trkpt lat="45.079741849204886" lon="8.164974406183628"><ele>214.0</ele><time>2026-04-18T10:45:14Z</time></trkpt><trkpt lat="45.079862300296824" lon="8.164916107606302"><ele>214.0</ele><time>2026-04-18T10:45:15Z</time></trkpt><trkpt lat="45.079978568843096" lon="8.16487334545863"><ele>214.0</ele><time>2026-04-18T10:45:16Z</time></trkpt><trkpt lat="45.08009204368234" lon="8.164819710534516"><ele>212.25</ele><time>2026-04-18T10:45:17Z</time></trkpt><trkpt lat="45.08020580751284" lon="8.164754044728264"><ele>210.5</ele><time>2026-04-18T10:45:18Z</time></trkpt><trkpt lat="45.08031829399101" lon="8.164675165938908"><ele>208.75</ele><time>2026-04-18T10:45:19Z</time></trkpt><trkpt lat="45.08043177546188" lon="8.164597474308943"><ele>207.0</ele><time>2026-04-18T10:45:20Z</time></trkpt><trkpt lat="45.08054587913162" lon="8.164519342891252"><ele>207.0</ele><time>2026-04-18T10:45:21Z</time></trkpt><trkpt lat="45.080659333873264" lon="8.16444093426587"><ele>207.0</ele><time>2026-04-18T10:45:22Z</time></trkpt><trkpt lat="45.08077241432349" lon="8.164362729112996"><ele>207.0</ele><time>2026-04-18T10:45:23Z</time></trkpt><trkpt lat="45.08088331373174" lon="8.164287338279697"><ele>207.0</ele><time>2026-04-18T10:45:24Z</time></trkpt><trkpt lat="45.080991559125195" lon="8.164215313162126"><ele>206.5</ele><time>2026-04-18T10:45:25Z</time></trkpt><trkpt lat="45.08109971315659" lon="8.164142330357695"><ele>206.0</ele><time>2026-04-18T10:45:26Z</time></trkpt><trkpt lat="45.081206788527346" lon="8.164068558309356"><ele>205.5</ele><time>2026-04-18T10:45:27Z</time></trkpt><trkpt lat="45.08131037877456" lon="8.163995753701881"><ele>205.0</ele><time>2026-04-18T10:45:28Z</time></trkpt><trkpt lat="45.0814040189544" lon="8.163930450604255"><ele>205.2</ele><time>2026-04-18T10:45:29Z</time></trkpt><trkpt lat="45.081485368348844" lon="8.163870660463019"><ele>205.4</ele><time>2026-04-18T10:45:30Z</time></trkpt><trkpt lat="45.08155865035888" lon="8.163821511459211"><ele>205.60000000000002</ele><time>2026-04-18T10:45:31Z</time></trkpt><trkpt lat="45.08162783062397" lon="8.163807912721007"><ele>205.8</ele><time>2026-04-18T10:45:32Z</time></trkpt><trkpt lat="45.08170947974322" lon="8.16376931113577"><ele>206.0</ele><time>2026-04-18T10:45:33.999Z</time></trkpt><trkpt lat="45.08180491451545" lon="8.163999732068211"><ele>206.0</ele><time>2026-04-18T10:45:34.999Z</time></trkpt><trkpt lat="45.08182669709271" lon="8.164123492714419"><ele>206.0</ele><time>2026-04-18T10:45:35.999Z</time></trkpt><trkpt lat="45.08187470813354" lon="8.164247693672557"><ele>206.0</ele><time>2026-04-18T10:45:36.999Z</time></trkpt><trkpt lat="45.08189685212622" lon="8.164398501872446"><ele>206.0</ele><time>2026-04-18T10:45:37.999Z</time></trkpt><trkpt lat="45.08193245442917" lon="8.164538062806496"><ele>206.0</ele><time>2026-04-18T10:45:38.999Z</time></trkpt><trkpt lat="45.08198355366361" lon="8.16467164730604"><ele>206.0</ele><time>2026-04-18T10:45:39.999Z</time></trkpt><trkpt lat="45.08202047133264" lon="8.164824018723516"><ele>206.0</ele><time>2026-04-18T10:45:40.999Z</time></trkpt><trkpt lat="45.08205976712817" lon="8.164979277290296"><ele>206.0</ele><time>2026-04-18T10:45:41.999Z</time></trkpt><trkpt lat="45.082099833510526" lon="8.165138109767161"><ele>206.0</ele><time>2026-04-18T10:45:42.999Z</time></trkpt><trkpt lat="45.082140570110965" lon="8.165301338294293"><ele>206.25</ele><time>2026-04-18T10:45:43.999Z</time></trkpt><trkpt lat="45.082181676400616" lon="8.165464935472382"><ele>206.5</ele><time>2026-04-18T10:45:44.999Z</time></trkpt><trkpt lat="45.08222365931554" lon="8.165629055728244"><ele>206.75</ele><time>2026-04-18T10:45:45.999Z</time></trkpt><trkpt lat="45.082267775661656" lon="8.165792626628177"><ele>207.0</ele><time>2026-04-18T10:45:46.999Z</time></trkpt><trkpt lat="45.082308884476376" lon="8.16594903989443"><ele>207.0</ele><time>2026-04-18T10:45:47.999Z</time></trkpt><trkpt lat="45.08234853725089" lon="8.16610877616184"><ele>207.0</ele><time>2026-04-18T10:45:48.999Z</time></trkpt><trkpt lat="45.082388343480446" lon="8.166271115633768"><ele>207.0</ele><time>2026-04-18T10:45:49.999Z</time></trkpt><trkpt lat="45.082428477866074" lon="8.166433728826712"><ele>207.0</ele><time>2026-04-18T10:45:50.999Z</time></trkpt><trkpt lat="45.0824700685939" lon="8.166597149203362"><ele>206.75</ele><time>2026-04-18T10:45:51.999Z</time></trkpt><trkpt lat="45.0825129368603" lon="8.166761441029973"><ele>206.5</ele><time>2026-04-18T10:45:52.999Z</time></trkpt><trkpt lat="45.082557902922616" lon="8.16692713717998"><ele>206.25</ele><time>2026-04-18T10:45:53.999Z</time></trkpt><trkpt lat="45.0826031731157" lon="8.167093774185934"><ele>206.0</ele><time>2026-04-18T10:45:54.999Z</time></trkpt><trkpt lat="45.08264959456402" lon="8.167262096259925"><ele>205.5</ele><time>2026-04-18T10:45:55.999Z</time></trkpt><trkpt lat="45.08269986660243" lon="8.167433211336702"><ele>205.0</ele><time>2026-04-18T10:45:56.999Z</time></trkpt><trkpt lat="45.082751723787275" lon="8.167603939867602"><ele>204.5</ele><time>2026-04-18T10:45:57.999Z</time></trkpt><trkpt lat="45.08280394980869" lon="8.167774016228728"><ele>204.0</ele><time>2026-04-18T10:45:58.999Z</time></trkpt><trkpt lat="45.082857329850775" lon="8.167944532067176"><ele>204.0</ele><time>2026-04-18T10:45:59.999Z</time></trkpt><trkpt lat="45.08291028345578" lon="8.168114599635725"><ele>204.0</ele><time>2026-04-18T10:46:00.999Z</time></trkpt><trkpt lat="45.08296424472777" lon="8.168283553916512"><ele>204.0</ele><time>2026-04-18T10:46:01.999Z</time></trkpt><trkpt lat="45.08301865165703" lon="8.168453026977998"><ele>204.0</ele><time>2026-04-18T10:46:02.999Z</time></trkpt><trkpt lat="45.08307410613119" lon="8.168620026088211"><ele>204.0</ele><time>2026-04-18T10:46:03.999Z</time></trkpt><trkpt lat="45.083129971625176" lon="8.168785848384177"><ele>204.0</ele><time>2026-04-18T10:46:04.999Z</time></trkpt><trkpt lat="45.08318370493186" lon="8.168953438763893"><ele>204.0</ele><time>2026-04-18T10:46:05.999Z</time></trkpt><trkpt lat="45.08323917780951" lon="8.169120169498441"><ele>204.0</ele><time>2026-04-18T10:46:06.999Z</time></trkpt><trkpt lat="45.08329810464465" lon="8.169286538084723"><ele>203.5</ele><time>2026-04-18T10:46:07.999Z</time></trkpt><trkpt lat="45.083359347132955" lon="8.169453545094957"><ele>203.0</ele><time>2026-04-18T10:46:08.999Z</time></trkpt><trkpt lat="45.08342876025513" lon="8.169623177647233"><ele>202.5</ele><time>2026-04-18T10:46:09.999Z</time></trkpt><trkpt lat="45.08350120230202" lon="8.169788402559988"><ele>202.0</ele><time>2026-04-18T10:46:10.999Z</time></trkpt><trkpt lat="45.08355840905966" lon="8.169977387811874"><ele>201.5</ele><time>2026-04-18T10:46:11.999Z</time></trkpt><trkpt lat="45.083632379485906" lon="8.170160361677034"><ele>201.0</ele><time>2026-04-18T10:46:12.999Z</time></trkpt><trkpt lat="45.08369031520387" lon="8.170293805414254"><ele>200.5</ele><time>2026-04-18T10:46:13.999Z</time></trkpt><trkpt lat="45.08375987894624" lon="8.170464729102884"><ele>200.0</ele><time>2026-04-18T10:46:14.999Z</time></trkpt><trkpt lat="45.083830961702" lon="8.170634754484817"><ele>200.25</ele><time>2026-04-18T10:46:15.999Z</time></trkpt><trkpt lat="45.08390838322065" lon="8.170804697708233"><ele>200.5</ele><time>2026-04-18T10:46:16.999Z</time></trkpt><trkpt lat="45.08398485356461" lon="8.170968348107927"><ele>200.75</ele><time>2026-04-18T10:46:17.999Z</time></trkpt><trkpt lat="45.08406559800029" lon="8.171137465956187"><ele>201.0</ele><time>2026-04-18T10:46:18.999Z</time></trkpt><trkpt lat="45.08415750570335" lon="8.171321551776929"><ele>200.5</ele><time>2026-04-18T10:46:19.999Z</time></trkpt><trkpt lat="45.08422844891673" lon="8.171482221450928"><ele>200.0</ele><time>2026-04-18T10:46:20.999Z</time></trkpt><trkpt lat="45.084306640639596" lon="8.171648946587956"><ele>199.5</ele><time>2026-04-18T10:46:21.999Z</time></trkpt><trkpt lat="45.084388273197206" lon="8.1718160130516"><ele>199.0</ele><time>2026-04-18T10:46:22.999Z</time></trkpt><trkpt lat="45.08447459941034" lon="8.171978701542242"><ele>199.0</ele><time>2026-04-18T10:46:23.999Z</time></trkpt><trkpt lat="45.08456135808143" lon="8.172144602725975"><ele>199.0</ele><time>2026-04-18T10:46:24.999Z</time></trkpt><trkpt lat="45.08464643101899" lon="8.17230648844068"><ele>199.0</ele><time>2026-04-18T10:46:25.999Z</time></trkpt><trkpt lat="45.08473528266042" lon="8.172459399882364"><ele>199.0</ele><time>2026-04-18T10:46:26.999Z</time></trkpt><trkpt lat="45.08481746525474" lon="8.172607383798063"><ele>199.25</ele><time>2026-04-18T10:46:27.999Z</time></trkpt><trkpt lat="45.08491037523072" lon="8.172761626060304"><ele>199.5</ele><time>2026-04-18T10:46:28.999Z</time></trkpt><trkpt lat="45.08500321089524" lon="8.172913796193919"><ele>199.75</ele><time>2026-04-18T10:46:29.999Z</time></trkpt><trkpt lat="45.08509341580231" lon="8.173068069042422"><ele>200.0</ele><time>2026-04-18T10:46:30.999Z</time></trkpt><trkpt lat="45.08518281953037" lon="8.173222018413789"><ele>200.25</ele><time>2026-04-18T10:46:31.999Z</time></trkpt><trkpt lat="45.08527526988361" lon="8.17337760117374"><ele>200.5</ele><time>2026-04-18T10:46:32.999Z</time></trkpt><trkpt lat="45.08537253455713" lon="8.173531220424628"><ele>200.75</ele><time>2026-04-18T10:46:33.999Z</time></trkpt><trkpt lat="45.085468569991576" lon="8.17368365054433"><ele>201.0</ele><time>2026-04-18T10:46:34.999Z</time></trkpt><trkpt lat="45.08556632477252" lon="8.173829058119638"><ele>201.0</ele><time>2026-04-18T10:46:35.999Z</time></trkpt><trkpt lat="45.08566429142981" lon="8.173971891133016"><ele>201.0</ele><time>2026-04-18T10:46:36.999Z</time></trkpt><trkpt lat="45.08576008211706" lon="8.174115412132354"><ele>201.0</ele><time>2026-04-18T10:46:37.999Z</time></trkpt><trkpt lat="45.08585898175116" lon="8.174251984356077"><ele>201.0</ele><time>2026-04-18T10:46:38.999Z</time></trkpt><trkpt lat="45.08596097132129" lon="8.17438904114148"><ele>200.75</ele><time>2026-04-18T10:46:39.999Z</time></trkpt><trkpt lat="45.08606251556696" lon="8.17452632438725"><ele>200.5</ele><time>2026-04-18T10:46:40.999Z</time></trkpt><trkpt lat="45.0861623794136" lon="8.174658386329998"><ele>200.25</ele><time>2026-04-18T10:46:41.999Z</time></trkpt><trkpt lat="45.08626123069275" lon="8.174794742079829"><ele>200.0</ele><time>2026-04-18T10:46:42.999Z</time></trkpt><trkpt lat="45.08636464165337" lon="8.17492387717319"><ele>199.5</ele><time>2026-04-18T10:46:43.999Z</time></trkpt><trkpt lat="45.08646404808793" lon="8.175059312720293"><ele>199.0</ele><time>2026-04-18T10:46:44.999Z</time></trkpt><trkpt lat="45.08656375643415" lon="8.175190850458831"><ele>198.5</ele><time>2026-04-18T10:46:45.999Z</time></trkpt><trkpt lat="45.08666514472792" lon="8.1753165803736"><ele>198.0</ele><time>2026-04-18T10:46:46.999Z</time></trkpt><trkpt lat="45.086761767060416" lon="8.17544045914948"><ele>198.25</ele><time>2026-04-18T10:46:47.999Z</time></trkpt><trkpt lat="45.086846070320995" lon="8.175536319226628"><ele>198.5</ele><time>2026-04-18T10:46:48.999Z</time></trkpt><trkpt lat="45.08693671935202" lon="8.175661948988454"><ele>198.75</ele><time>2026-04-18T10:46:49.999Z</time></trkpt><trkpt lat="45.08701047658376" lon="8.175771544789304"><ele>199.0</ele><time>2026-04-18T10:46:50.999Z</time></trkpt><trkpt lat="45.0870920793595" lon="8.175872448875158"><ele>198.99999999999997</ele><time>2026-04-18T10:46:51.999Z</time></trkpt><trkpt lat="45.0871696088498" lon="8.175962390021292"><ele>199.0</ele><time>2026-04-18T10:46:52.999Z</time></trkpt><trkpt lat="45.08724064100213" lon="8.176048767606124"><ele>199.0</ele><time>2026-04-18T10:46:53.999Z</time></trkpt><trkpt lat="45.08731167956801" lon="8.176135064938798"><ele>199.0</ele><time>2026-04-18T10:46:54.999Z</time></trkpt><trkpt lat="45.087371436897406" lon="8.176212482835796"><ele>198.99999999999997</ele><time>2026-04-18T10:46:55.999Z</time></trkpt><trkpt lat="45.08742195054305" lon="8.176279791622166"><ele>199.0</ele><time>2026-04-18T10:46:56.999Z</time></trkpt><trkpt lat="45.08746452025409" lon="8.17634725665361"><ele>199.0</ele><time>2026-04-18T10:46:57.999Z</time></trkpt><trkpt lat="45.087490734073526" lon="8.176503973989533"><ele>199.0</ele><time>2026-04-18T10:46:59.999Z</time></trkpt><trkpt lat="45.087442640716546" lon="8.17658830166253"><ele>199.0</ele><time>2026-04-18T10:47:00.999Z</time></trkpt><trkpt lat="45.08739981542937" lon="8.176687516111452"><ele>199.0</ele><time>2026-04-18T10:47:01.999Z</time></trkpt><trkpt lat="45.08735605455371" lon="8.176811769319361"><ele>199.0</ele><time>2026-04-18T10:47:02.999Z</time></trkpt><trkpt lat="45.087293353438675" lon="8.176942515699379"><ele>198.6</ele><time>2026-04-18T10:47:03.999Z</time></trkpt><trkpt lat="45.08724748206038" lon="8.177071249883866"><ele>198.2</ele><time>2026-04-18T10:47:04.999Z</time></trkpt><trkpt lat="45.087187643288395" lon="8.177204933104884"><ele>197.79999999999998</ele><time>2026-04-18T10:47:05.999Z</time></trkpt><trkpt lat="45.08712927892977" lon="8.177347042482413"><ele>197.39999999999998</ele><time>2026-04-18T10:47:06.999Z</time></trkpt><trkpt lat="45.08706662386037" lon="8.177491028439261"><ele>197.0</ele><time>2026-04-18T10:47:07.999Z</time></trkpt><trkpt lat="45.086999714280815" lon="8.177635189816232"><ele>196.75</ele><time>2026-04-18T10:47:08.999Z</time></trkpt><trkpt lat="45.08693223339967" lon="8.177776744982525"><ele>196.5</ele><time>2026-04-18T10:47:09.999Z</time></trkpt><trkpt lat="45.08687209893839" lon="8.177914563892307"><ele>196.25</ele><time>2026-04-18T10:47:10.999Z</time></trkpt><trkpt lat="45.08680772529825" lon="8.178054956595751"><ele>196.0</ele><time>2026-04-18T10:47:11.999Z</time></trkpt><trkpt lat="45.08674962856581" lon="8.178193415839003"><ele>196.0</ele><time>2026-04-18T10:47:12.999Z</time></trkpt><trkpt lat="45.08668899102743" lon="8.17833836875346"><ele>196.0</ele><time>2026-04-18T10:47:13.999Z</time></trkpt><trkpt lat="45.086627598725144" lon="8.178479786132081"><ele>196.0</ele><time>2026-04-18T10:47:14.999Z</time></trkpt><trkpt lat="45.08657328400695" lon="8.178618854360847"><ele>196.0</ele><time>2026-04-18T10:47:15.999Z</time></trkpt><trkpt lat="45.08651507558142" lon="8.178770130019776"><ele>196.0</ele><time>2026-04-18T10:47:16.999Z</time></trkpt><trkpt lat="45.086448886626975" lon="8.178904003091821"><ele>196.0</ele><time>2026-04-18T10:47:17.999Z</time></trkpt><trkpt lat="45.08638660877822" lon="8.179041506176258"><ele>196.0</ele><time>2026-04-18T10:47:18.999Z</time></trkpt><trkpt lat="45.08632593988353" lon="8.179188446985796"><ele>196.0</ele><time>2026-04-18T10:47:19.999Z</time></trkpt><trkpt lat="45.08626324975889" lon="8.17933093756714"><ele>196.0</ele><time>2026-04-18T10:47:20.999Z</time></trkpt><trkpt lat="45.08619758492274" lon="8.179473646965171"><ele>196.0</ele><time>2026-04-18T10:47:21.999Z</time></trkpt><trkpt lat="45.0861297992117" lon="8.179621710000559"><ele>196.0</ele><time>2026-04-18T10:47:22.999Z</time></trkpt><trkpt lat="45.08606675499433" lon="8.179771407486314"><ele>196.0</ele><time>2026-04-18T10:47:23.999Z</time></trkpt><trkpt lat="45.08600397569708" lon="8.17991774996862"><ele>196.25</ele><time>2026-04-18T10:47:24.999Z</time></trkpt><trkpt lat="45.08594154902898" lon="8.180057786728113"><ele>196.5</ele><time>2026-04-18T10:47:25.999Z</time></trkpt><trkpt lat="45.08587976525189" lon="8.1802009040752"><ele>196.75</ele><time>2026-04-18T10:47:26.999Z</time></trkpt><trkpt lat="45.085820550971704" lon="8.18033769482997"><ele>197.0</ele><time>2026-04-18T10:47:27.999Z</time></trkpt><trkpt lat="45.0857604611216" lon="8.180474532767956"><ele>197.66666666666669</ele><time>2026-04-18T10:47:28.999Z</time></trkpt><trkpt lat="45.085705289545196" lon="8.18060056660373"><ele>198.33333333333334</ele><time>2026-04-18T10:47:29.999Z</time></trkpt><trkpt lat="45.085655054935" lon="8.18070741911382"><ele>199.0</ele><time>2026-04-18T10:47:30.999Z</time></trkpt><trkpt lat="45.08560978389216" lon="8.18081825642281"><ele>199.66666666666669</ele><time>2026-04-18T10:47:31.999Z</time></trkpt><trkpt lat="45.085564469885455" lon="8.180921112168752"><ele>200.33333333333334</ele><time>2026-04-18T10:47:32.999Z</time></trkpt><trkpt lat="45.08552314292277" lon="8.181007966634347"><ele>201.0</ele><time>2026-04-18T10:47:33.999Z</time></trkpt><trkpt lat="45.085485724275614" lon="8.181101657649931"><ele>201.4</ele><time>2026-04-18T10:47:34.999Z</time></trkpt><trkpt lat="45.085444125247534" lon="8.181169821919436"><ele>201.8</ele><time>2026-04-18T10:47:35.999Z</time></trkpt><trkpt lat="45.085383778748295" lon="8.1812921371933"><ele>202.20000000000002</ele><time>2026-04-18T10:47:37.999Z</time></trkpt><trkpt lat="45.08530650744916" lon="8.18139787312869"><ele>202.60000000000002</ele><time>2026-04-18T10:47:39.999Z</time></trkpt><trkpt lat="45.08522854706545" lon="8.18149535489556"><ele>203.0</ele><time>2026-04-18T10:47:41.999Z</time></trkpt><trkpt lat="45.085436463286406" lon="8.181980912421345"><ele>203.71428571428572</ele><time>2026-04-18T10:47:44.999Z</time></trkpt><trkpt lat="45.08545092635476" lon="8.182068634851507"><ele>204.42857142857144</ele><time>2026-04-18T10:47:46.999Z</time></trkpt><trkpt lat="45.08539816126832" lon="8.182118871539553"><ele>205.14285714285714</ele><time>2026-04-18T10:47:49.999Z</time></trkpt><trkpt lat="45.08533036967083" lon="8.182174928430154"><ele>205.85714285714286</ele><time>2026-04-18T10:47:52.999Z</time></trkpt><trkpt lat="45.085244723385564" lon="8.182206359601823"><ele>206.57142857142858</ele><time>2026-04-18T10:47:55.999Z</time></trkpt><trkpt lat="45.08531546801984" lon="8.182190122261542"><ele>207.28571428571428</ele><time>2026-04-18T10:48:07.999Z</time></trkpt><trkpt lat="45.08538219873613" lon="8.182126214066308"><ele>208.0</ele><time>2026-04-18T10:48:09.999Z</time></trkpt><trkpt lat="45.085450361249194" lon="8.182081947859439"><ele>208.0</ele><time>2026-04-18T10:48:12.999Z</time></trkpt><trkpt lat="45.085490194272765" lon="8.182160214303964"><ele>208.0</ele><time>2026-04-18T10:48:40Z</time></trkpt><trkpt lat="45.08544958671538" lon="8.182233713820255"><ele>208.0</ele><time>2026-04-18T10:48:57.999Z</time></trkpt><trkpt lat="45.08542559063614" lon="8.182147965296462"><ele>208.0</ele><time>2026-04-18T10:49:01.999Z</time></trkpt><trkpt lat="45.08544555153015" lon="8.18205404021683"><ele>208.0</ele><time>2026-04-18T10:49:06.999Z</time></trkpt><trkpt lat="45.08543368075188" lon="8.181956769170224"><ele>208.0</ele><time>2026-04-18T10:49:11.999Z</time></trkpt><trkpt lat="45.0854618152422" lon="8.181856957439555"><ele>208.0</ele><time>2026-04-18T10:50:14.999Z</time></trkpt><trkpt lat="45.08553123494963" lon="8.181888399287665"><ele>207.99999999999997</ele><time>2026-04-18T10:50:17.999Z</time></trkpt><trkpt lat="45.085574561302565" lon="8.181986846141946"><ele>208.0</ele><time>2026-04-18T10:50:50Z</time></trkpt><trkpt lat="45.0855591696843" lon="8.182082780562599"><ele>208.0</ele><time>2026-04-18T10:50:53Z</time></trkpt><trkpt lat="45.085572405574744" lon="8.182208335476135"><ele>208.0</ele><time>2026-04-18T10:51:14.999Z</time></trkpt><trkpt lat="45.08557225495602" lon="8.182327834814933"><ele>207.99999999999997</ele><time>2026-04-18T10:51:17.999Z</time></trkpt><trkpt lat="45.085583533073304" lon="8.18244790243725"><ele>208.0</ele><time>2026-04-18T10:51:20.999Z</time></trkpt><trkpt lat="45.08559106141852" lon="8.182542246066403"><ele>208.0</ele><time>2026-04-18T10:52:00.999Z</time></trkpt><trkpt lat="45.08558423994552" lon="8.182452324840732"><ele>208.0</ele><time>2026-04-18T10:52:52Z</time></trkpt><trkpt lat="45.0855747676826" lon="8.182359110583354"><ele>208.0</ele><time>2026-04-18T10:53:01Z</time></trkpt><trkpt lat="45.085565089616985" lon="8.182262320680918"><ele>208.0</ele><time>2026-04-18T10:53:06Z</time></trkpt><trkpt lat="45.085572440336776" lon="8.182152383905729"><ele>208.0</ele><time>2026-04-18T10:53:10Z</time></trkpt><trkpt lat="45.085568760162694" lon="8.18205754288079"><ele>208.0</ele><time>2026-04-18T10:53:11.999Z</time></trkpt><trkpt lat="45.08559299009479" lon="8.18194986271228"><ele>208.0</ele><time>2026-04-18T10:53:14.999Z</time></trkpt><trkpt lat="45.0856634633717" lon="8.181920532621865"><ele>207.99999999999997</ele><time>2026-04-18T10:54:40Z</time></trkpt><trkpt lat="45.085730328562576" lon="8.181941279675097"><ele>208.0</ele><time>2026-04-18T10:54:42Z</time></trkpt><trkpt lat="45.08581190902735" lon="8.1819599599705"><ele>208.0</ele><time>2026-04-18T10:54:44Z</time></trkpt><trkpt lat="45.085902363541024" lon="8.181965726147013"><ele>208.0</ele><time>2026-04-18T10:54:47Z</time></trkpt><trkpt lat="45.08596478162178" lon="8.181993366820222"><ele>207.99999999999997</ele><time>2026-04-18T10:54:49Z</time></trkpt><trkpt lat="45.086041570572895" lon="8.182023061630634"><ele>208.0</ele><time>2026-04-18T10:54:51Z</time></trkpt><trkpt lat="45.086118065048545" lon="8.182035142552738"><ele>207.60000000000002</ele><time>2026-04-18T10:54:53Z</time></trkpt><trkpt lat="45.08621624673108" lon="8.182060582601695"><ele>207.20000000000002</ele><time>2026-04-18T10:54:55Z</time></trkpt><trkpt lat="45.08632031135834" lon="8.18209120825473"><ele>206.8</ele><time>2026-04-18T10:54:57Z</time></trkpt><trkpt lat="45.086422885980255" lon="8.182125884916621"><ele>206.4</ele><time>2026-04-18T10:54:59Z</time></trkpt><trkpt lat="45.08650253335984" lon="8.182163739003618"><ele>206.0</ele><time>2026-04-18T10:55:01Z</time></trkpt><trkpt lat="45.08656742302493" lon="8.18219543330959"><ele>205.16666666666669</ele><time>2026-04-18T10:55:03Z</time></trkpt><trkpt lat="45.086635775005774" lon="8.18219908809148"><ele>204.33333333333334</ele><time>2026-04-18T10:55:05Z</time></trkpt><trkpt lat="45.086704389670686" lon="8.182093268330346"><ele>203.5</ele><time>2026-04-18T10:55:07Z</time></trkpt><trkpt lat="45.08677682013948" lon="8.18194012020085"><ele>202.66666666666669</ele><time>2026-04-18T10:55:09Z</time></trkpt><trkpt lat="45.08681116901106" lon="8.181860719542877"><ele>201.83333333333334</ele><time>2026-04-18T10:55:10Z</time></trkpt><trkpt lat="45.086848703846265" lon="8.18178446231258"><ele>201.0</ele><time>2026-04-18T10:55:11Z</time></trkpt><trkpt lat="45.08689104418058" lon="8.181714060155617"><ele>201.0</ele><time>2026-04-18T10:55:12Z</time></trkpt><trkpt lat="45.08696448197404" lon="8.181589000692991"><ele>201.0</ele><time>2026-04-18T10:55:14Z</time></trkpt><trkpt lat="45.08700132493996" lon="8.1815110462751"><ele>201.0</ele><time>2026-04-18T10:55:15Z</time></trkpt><trkpt lat="45.087072974045284" lon="8.181383002845763"><ele>201.0</ele><time>2026-04-18T10:55:17Z</time></trkpt><trkpt lat="45.087146316060185" lon="8.181289185483358"><ele>201.0</ele><time>2026-04-18T10:55:19Z</time></trkpt><trkpt lat="45.08722181659567" lon="8.181353542900034"><ele>201.0</ele><time>2026-04-18T10:55:21Z</time></trkpt><trkpt lat="45.08725962733515" lon="8.181452532358632"><ele>201.0</ele><time>2026-04-18T10:55:22Z</time></trkpt><trkpt lat="45.08730635968862" lon="8.181551462837492"><ele>201.0</ele><time>2026-04-18T10:55:23Z</time></trkpt><trkpt lat="45.08736942004766" lon="8.18164132493711"><ele>201.0</ele><time>2026-04-18T10:55:24Z</time></trkpt><trkpt lat="45.0874295829213" lon="8.181737876378659"><ele>201.0</ele><time>2026-04-18T10:55:25Z</time></trkpt><trkpt lat="45.087493785736186" lon="8.181849326577664"><ele>201.0</ele><time>2026-04-18T10:55:26Z</time></trkpt><trkpt lat="45.087557330017844" lon="8.181949816464583"><ele>201.20000000000002</ele><time>2026-04-18T10:55:27Z</time></trkpt><trkpt lat="45.087624683754726" lon="8.182040855520397"><ele>201.4</ele><time>2026-04-18T10:55:28Z</time></trkpt><trkpt lat="45.08770385370589" lon="8.182115650417451"><ele>201.6</ele><time>2026-04-18T10:55:29Z</time></trkpt><trkpt lat="45.08779458637451" lon="8.182178123370317"><ele>201.8</ele><time>2026-04-18T10:55:30Z</time></trkpt><trkpt lat="45.08787881475629" lon="8.182250143727076"><ele>202.0</ele><time>2026-04-18T10:55:31Z</time></trkpt><trkpt lat="45.0879534897845" lon="8.182328491403045"><ele>202.0</ele><time>2026-04-18T10:55:32Z</time></trkpt><trkpt lat="45.088018029925536" lon="8.182423000781434"><ele>202.0</ele><time>2026-04-18T10:55:33Z</time></trkpt><trkpt lat="45.08807923971195" lon="8.182511296186814"><ele>202.0</ele><time>2026-04-18T10:55:34Z</time></trkpt><trkpt lat="45.08814491253403" lon="8.182589016798078"><ele>202.0</ele><time>2026-04-18T10:55:35Z</time></trkpt><trkpt lat="45.08822111187668" lon="8.182664308294084"><ele>202.0</ele><time>2026-04-18T10:55:36Z</time></trkpt><trkpt lat="45.0883125963013" lon="8.182716251426434"><ele>201.2</ele><time>2026-04-18T10:55:37Z</time></trkpt><trkpt lat="45.088411920537375" lon="8.182749956009507"><ele>200.39999999999998</ele><time>2026-04-18T10:55:38Z</time></trkpt><trkpt lat="45.08850975874246" lon="8.182805813971328"><ele>199.60000000000002</ele><time>2026-04-18T10:55:39Z</time></trkpt><trkpt lat="45.08859894705615" lon="8.182875563545469"><ele>198.8</ele><time>2026-04-18T10:55:40Z</time></trkpt><trkpt lat="45.088689806439426" lon="8.182951141158435"><ele>198.0</ele><time>2026-04-18T10:55:41Z</time></trkpt><trkpt lat="45.08877963462613" lon="8.183030559229415"><ele>198.0</ele><time>2026-04-18T10:55:42Z</time></trkpt><trkpt lat="45.08887180041254" lon="8.183121061019554"><ele>198.0</ele><time>2026-04-18T10:55:43Z</time></trkpt><trkpt lat="45.08896263225235" lon="8.183200186431966"><ele>198.0</ele><time>2026-04-18T10:55:44Z</time></trkpt><trkpt lat="45.089051874750965" lon="8.18327887541264"><ele>198.0</ele><time>2026-04-18T10:55:45Z</time></trkpt><trkpt lat="45.08914331801638" lon="8.183355169005072"><ele>198.0</ele><time>2026-04-18T10:55:46Z</time></trkpt><trkpt lat="45.08924107291925" lon="8.183426350284734"><ele>197.0</ele><time>2026-04-18T10:55:46.999Z</time></trkpt><trkpt lat="45.0893367930388" lon="8.1834980011334"><ele>196.0</ele><time>2026-04-18T10:55:47.999Z</time></trkpt><trkpt lat="45.08943139137373" lon="8.183562464039138"><ele>195.0</ele><time>2026-04-18T10:55:48.999Z</time></trkpt><trkpt lat="45.08953362465597" lon="8.18363005464731"><ele>194.0</ele><time>2026-04-18T10:55:49.999Z</time></trkpt><trkpt lat="45.08962798790174" lon="8.183698253563687"><ele>193.0</ele><time>2026-04-18T10:55:50.999Z</time></trkpt><trkpt lat="45.08972619769545" lon="8.183767494889342"><ele>193.0</ele><time>2026-04-18T10:55:51.999Z</time></trkpt><trkpt lat="45.08982229520504" lon="8.183833744633873"><ele>193.0</ele><time>2026-04-18T10:55:52.999Z</time></trkpt><trkpt lat="45.08991410873993" lon="8.18390018082585"><ele>193.0</ele><time>2026-04-18T10:55:53.999Z</time></trkpt><trkpt lat="45.08999890147432" lon="8.18396132123168"><ele>193.0</ele><time>2026-04-18T10:55:54.999Z</time></trkpt><trkpt lat="45.09009640132766" lon="8.184011914439765"><ele>193.0</ele><time>2026-04-18T10:55:55.999Z</time></trkpt><trkpt lat="45.090186053273364" lon="8.184056291228014"><ele>193.2</ele><time>2026-04-18T10:55:56.999Z</time></trkpt><trkpt lat="45.0902686744112" lon="8.184095317711156"><ele>193.4</ele><time>2026-04-18T10:55:57.999Z</time></trkpt><trkpt lat="45.09034619268983" lon="8.184156699332489"><ele>193.6</ele><time>2026-04-18T10:55:58.999Z</time></trkpt><trkpt lat="45.09041737450777" lon="8.184242842831265"><ele>193.79999999999998</ele><time>2026-04-18T10:55:59.999Z</time></trkpt><trkpt lat="45.09047970838749" lon="8.184339081671713"><ele>194.0</ele><time>2026-04-18T10:56:00.999Z</time></trkpt><trkpt lat="45.090534320489425" lon="8.1844506508603"><ele>194.0</ele><time>2026-04-18T10:56:01.999Z</time></trkpt><trkpt lat="45.090587968265865" lon="8.184543572180239"><ele>194.0</ele><time>2026-04-18T10:56:02.999Z</time></trkpt><trkpt lat="45.09065209379018" lon="8.184624595291947"><ele>194.0</ele><time>2026-04-18T10:56:03.999Z</time></trkpt><trkpt lat="45.09073356947566" lon="8.184691712366403"><ele>194.0</ele><time>2026-04-18T10:56:04.999Z</time></trkpt><trkpt lat="45.09082575535678" lon="8.184738032462425"><ele>194.0</ele><time>2026-04-18T10:56:05.999Z</time></trkpt><trkpt lat="45.090918470993806" lon="8.184770350315269"><ele>193.6</ele><time>2026-04-18T10:56:06.999Z</time></trkpt><trkpt lat="45.091002323487686" lon="8.184795863083197"><ele>193.2</ele><time>2026-04-18T10:56:07.999Z</time></trkpt><trkpt lat="45.091057164534035" lon="8.184842480153854"><ele>192.79999999999998</ele><time>2026-04-18T10:56:08.999Z</time></trkpt><trkpt lat="45.09112125882853" lon="8.184941174425576"><ele>192.39999999999998</ele><time>2026-04-18T10:56:10.999Z</time></trkpt><trkpt lat="45.091247458528485" lon="8.184894328339235"><ele>192.0</ele><time>2026-04-18T10:56:12.999Z</time></trkpt><trkpt lat="45.091321585223895" lon="8.1848590715945"><ele>191.8</ele><time>2026-04-18T10:56:13.999Z</time></trkpt><trkpt lat="45.09138860131279" lon="8.184877392388978"><ele>191.6</ele><time>2026-04-18T10:56:14.999Z</time></trkpt><trkpt lat="45.09145272286512" lon="8.184949340881383"><ele>191.4</ele><time>2026-04-18T10:56:15.999Z</time></trkpt><trkpt lat="45.09151281106102" lon="8.185058502954778"><ele>191.20000000000002</ele><time>2026-04-18T10:56:16.999Z</time></trkpt><trkpt lat="45.091572443885404" lon="8.185173540613727"><ele>191.0</ele><time>2026-04-18T10:56:17.999Z</time></trkpt><trkpt lat="45.09164256728953" lon="8.18528379156498"><ele>191.20000000000002</ele><time>2026-04-18T10:56:18.999Z</time></trkpt><trkpt lat="45.091719412942815" lon="8.185402655208437"><ele>191.4</ele><time>2026-04-18T10:56:19.999Z</time></trkpt><trkpt lat="45.09179114301056" lon="8.18551992317516"><ele>191.6</ele><time>2026-04-18T10:56:20.999Z</time></trkpt><trkpt lat="45.09186230719241" lon="8.18564380129557"><ele>191.8</ele><time>2026-04-18T10:56:21.999Z</time></trkpt><trkpt lat="45.09192401685203" lon="8.185769045879786"><ele>192.0</ele><time>2026-04-18T10:56:22.999Z</time></trkpt><trkpt lat="45.09198270051885" lon="8.185898903532546"><ele>192.0</ele><time>2026-04-18T10:56:23.999Z</time></trkpt><trkpt lat="45.09204526971074" lon="8.186026908670778"><ele>192.0</ele><time>2026-04-18T10:56:24.999Z</time></trkpt><trkpt lat="45.09210946111556" lon="8.18614557725437"><ele>192.0</ele><time>2026-04-18T10:56:25.999Z</time></trkpt><trkpt lat="45.092179049956556" lon="8.186258138251135"><ele>192.0</ele><time>2026-04-18T10:56:26.999Z</time></trkpt><trkpt lat="45.09225825030107" lon="8.1863686309224"><ele>192.0</ele><time>2026-04-18T10:56:27.999Z</time></trkpt><trkpt lat="45.092343102198015" lon="8.186478389866776"><ele>191.8</ele><time>2026-04-18T10:56:28.999Z</time></trkpt><trkpt lat="45.09242052541618" lon="8.18657623553177"><ele>191.6</ele><time>2026-04-18T10:56:29.999Z</time></trkpt><trkpt lat="45.09249809037887" lon="8.186683503388595"><ele>191.4</ele><time>2026-04-18T10:56:30.999Z</time></trkpt><trkpt lat="45.092577240622774" lon="8.186790709315432"><ele>191.20000000000002</ele><time>2026-04-18T10:56:31.999Z</time></trkpt><trkpt lat="45.092656233369254" lon="8.186894007109613"><ele>191.0</ele><time>2026-04-18T10:56:32.999Z</time></trkpt><trkpt lat="45.09273933735617" lon="8.186994986293014"><ele>190.8</ele><time>2026-04-18T10:56:33.999Z</time></trkpt><trkpt lat="45.09282889821992" lon="8.187085396783656"><ele>190.60000000000002</ele><time>2026-04-18T10:56:34.999Z</time></trkpt><trkpt lat="45.09291355719804" lon="8.187147882318136"><ele>190.4</ele><time>2026-04-18T10:56:35.999Z</time></trkpt><trkpt lat="45.09299531984464" lon="8.18718019021883"><ele>190.2</ele><time>2026-04-18T10:56:36.999Z</time></trkpt><trkpt lat="45.093083883167075" lon="8.187213554566881"><ele>190.0</ele><time>2026-04-18T10:56:38Z</time></trkpt><trkpt lat="45.09317283743264" lon="8.187291692961304"><ele>189.83333333333334</ele><time>2026-04-18T10:56:39Z</time></trkpt><trkpt lat="45.09324673889935" lon="8.187369598893868"><ele>189.66666666666669</ele><time>2026-04-18T10:56:40Z</time></trkpt><trkpt lat="45.093315708786086" lon="8.187444648709885"><ele>189.5</ele><time>2026-04-18T10:56:41Z</time></trkpt><trkpt lat="45.09338565446854" lon="8.18750153636622"><ele>189.33333333333334</ele><time>2026-04-18T10:56:42Z</time></trkpt><trkpt lat="45.093450798841296" lon="8.18755126977864"><ele>189.16666666666666</ele><time>2026-04-18T10:56:43Z</time></trkpt><trkpt lat="45.09351650431421" lon="8.187626056735743"><ele>189.0</ele><time>2026-04-18T10:56:44Z</time></trkpt><trkpt lat="45.093576225446746" lon="8.187709364179105"><ele>189.0</ele><time>2026-04-18T10:56:45Z</time></trkpt><trkpt lat="45.093633046603074" lon="8.187785832506739"><ele>189.0</ele><time>2026-04-18T10:56:46Z</time></trkpt><trkpt lat="45.093692895400714" lon="8.187849618287865"><ele>189.0</ele><time>2026-04-18T10:56:47Z</time></trkpt><trkpt lat="45.093743656628874" lon="8.18790333355528"><ele>189.0</ele><time>2026-04-18T10:56:48Z</time></trkpt><trkpt lat="45.09381640860904" lon="8.187937927054081"><ele>189.0</ele><time>2026-04-18T10:56:50Z</time></trkpt><trkpt lat="45.09377902841684" lon="8.188037491360621"><ele>189.0</ele><time>2026-04-18T10:56:53Z</time></trkpt><trkpt lat="45.09371840542875" lon="8.188114595622986"><ele>188.6</ele><time>2026-04-18T10:56:54Z</time></trkpt><trkpt lat="45.09365493959329" lon="8.188210631584502"><ele>188.2</ele><time>2026-04-18T10:56:55Z</time></trkpt><trkpt lat="45.09359841649709" lon="8.188330836717189"><ele>187.79999999999998</ele><time>2026-04-18T10:56:56Z</time></trkpt><trkpt lat="45.09351983472966" lon="8.188428538063002"><ele>187.39999999999998</ele><time>2026-04-18T10:56:57Z</time></trkpt><trkpt lat="45.093447400525044" lon="8.188563332837413"><ele>187.0</ele><time>2026-04-18T10:56:58Z</time></trkpt><trkpt lat="45.09337421714301" lon="8.188698961304189"><ele>187.0</ele><time>2026-04-18T10:56:59Z</time></trkpt><trkpt lat="45.093308512393456" lon="8.188841795889555"><ele>187.0</ele><time>2026-04-18T10:57:00Z</time></trkpt><trkpt lat="45.09323273206946" lon="8.188957061719165"><ele>187.0</ele><time>2026-04-18T10:57:01Z</time></trkpt><trkpt lat="45.09317610895221" lon="8.189088241412357"><ele>187.0</ele><time>2026-04-18T10:57:02Z</time></trkpt><trkpt lat="45.09311689114105" lon="8.189189838037384"><ele>187.0</ele><time>2026-04-18T10:57:03Z</time></trkpt><trkpt lat="45.09306428673864" lon="8.189290025529905"><ele>188.39999999999998</ele><time>2026-04-18T10:57:04Z</time></trkpt><trkpt lat="45.093014650704156" lon="8.18938813677378"><ele>189.79999999999998</ele><time>2026-04-18T10:57:05Z</time></trkpt><trkpt lat="45.09302542219132" lon="8.189540533929188"><ele>191.2</ele><time>2026-04-18T10:57:06Z</time></trkpt><trkpt lat="45.093077955804105" lon="8.189682734680753"><ele>192.6</ele><time>2026-04-18T10:57:07Z</time></trkpt><trkpt lat="45.09312234576288" lon="8.189837429783005"><ele>194.0</ele><time>2026-04-18T10:57:08Z</time></trkpt><trkpt lat="45.093153145842976" lon="8.18999876376079"><ele>194.5</ele><time>2026-04-18T10:57:09Z</time></trkpt><trkpt lat="45.09318410762581" lon="8.190171192652475"><ele>195.0</ele><time>2026-04-18T10:57:10Z</time></trkpt><trkpt lat="45.0932059434656" lon="8.190346799162098"><ele>195.5</ele><time>2026-04-18T10:57:11Z</time></trkpt><trkpt lat="45.09322069438226" lon="8.190526961983391"><ele>196.0</ele><time>2026-04-18T10:57:12Z</time></trkpt><trkpt lat="45.09322878374204" lon="8.190712807713869"><ele>196.25</ele><time>2026-04-18T10:57:13Z</time></trkpt><trkpt lat="45.093202246151336" lon="8.190897433102545"><ele>196.5</ele><time>2026-04-18T10:57:14Z</time></trkpt><trkpt lat="45.09318928175057" lon="8.191091577961123"><ele>196.75</ele><time>2026-04-18T10:57:15Z</time></trkpt><trkpt lat="45.09318384085798" lon="8.19128152566143"><ele>197.0</ele><time>2026-04-18T10:57:16Z</time></trkpt><trkpt lat="45.09317827257309" lon="8.191454421200133"><ele>197.39999999999998</ele><time>2026-04-18T10:57:17Z</time></trkpt><trkpt lat="45.093167968603495" lon="8.191607145516425"><ele>197.79999999999998</ele><time>2026-04-18T10:57:18Z</time></trkpt><trkpt lat="45.09320047751457" lon="8.19180035016346"><ele>198.2</ele><time>2026-04-18T10:57:19Z</time></trkpt><trkpt lat="45.09322296920352" lon="8.191929219983056"><ele>198.6</ele><time>2026-04-18T10:57:20Z</time></trkpt><trkpt lat="45.093244929174396" lon="8.192036455720112"><ele>199.0</ele><time>2026-04-18T10:57:21Z</time></trkpt><trkpt lat="45.09325029709296" lon="8.192133225347899"><ele>198.79999999999998</ele><time>2026-04-18T10:57:22Z</time></trkpt><trkpt lat="45.09325960774104" lon="8.192237420882808"><ele>198.6</ele><time>2026-04-18T10:57:23Z</time></trkpt><trkpt lat="45.09326163236701" lon="8.192332131107744"><ele>198.4</ele><time>2026-04-18T10:57:24Z</time></trkpt><trkpt lat="45.093272336565924" lon="8.192420943360688"><ele>198.2</ele><time>2026-04-18T10:57:25Z</time></trkpt><trkpt lat="45.09328777726003" lon="8.192517593458462"><ele>198.0</ele><time>2026-04-18T10:57:26Z</time></trkpt><trkpt lat="45.093693470799515" lon="8.192577532444698"><ele>198.0</ele><time>2026-04-18T10:57:27Z</time></trkpt><trkpt lat="45.09376502337193" lon="8.19265842124697"><ele>198.0</ele><time>2026-04-18T10:57:28Z</time></trkpt><trkpt lat="45.09383694575618" lon="8.192747974957776"><ele>198.0</ele><time>2026-04-18T10:57:29Z</time></trkpt><trkpt lat="45.0939076684328" lon="8.192825845156083"><ele>198.0</ele><time>2026-04-18T10:57:30Z</time></trkpt><trkpt lat="45.093985177696624" lon="8.19290427145318"><ele>198.0</ele><time>2026-04-18T10:57:31Z</time></trkpt><trkpt lat="45.09406152695386" lon="8.192991150098827"><ele>196.8</ele><time>2026-04-18T10:57:32Z</time></trkpt><trkpt lat="45.094141292903736" lon="8.193090668685603"><ele>195.60000000000002</ele><time>2026-04-18T10:57:33Z</time></trkpt><trkpt lat="45.09421170020711" lon="8.193205877293558"><ele>194.39999999999998</ele><time>2026-04-18T10:57:34Z</time></trkpt><trkpt lat="45.09427288018334" lon="8.19334072654661"><ele>193.2</ele><time>2026-04-18T10:57:35Z</time></trkpt><trkpt lat="45.09433159296529" lon="8.193473612763018"><ele>192.0</ele><time>2026-04-18T10:57:36Z</time></trkpt><trkpt lat="45.09438323230833" lon="8.193591880724169"><ele>191.83333333333334</ele><time>2026-04-18T10:57:37Z</time></trkpt><trkpt lat="45.094425366291645" lon="8.19369370760726"><ele>191.66666666666666</ele><time>2026-04-18T10:57:38Z</time></trkpt><trkpt lat="45.09447186804857" lon="8.193775633673306"><ele>191.5</ele><time>2026-04-18T10:57:39Z</time></trkpt><trkpt lat="45.09451530491242" lon="8.193860569689473"><ele>191.33333333333331</ele><time>2026-04-18T10:57:40Z</time></trkpt><trkpt lat="45.09455967572714" lon="8.193964101531254"><ele>191.16666666666666</ele><time>2026-04-18T10:57:41Z</time></trkpt><trkpt lat="45.09460197401115" lon="8.194068855893827"><ele>191.0</ele><time>2026-04-18T10:57:42Z</time></trkpt><trkpt lat="45.09466058453089" lon="8.194175844348733"><ele>191.4</ele><time>2026-04-18T10:57:43Z</time></trkpt><trkpt lat="45.09471684213301" lon="8.194284296041939"><ele>191.8</ele><time>2026-04-18T10:57:44Z</time></trkpt><trkpt lat="45.09477393061502" lon="8.1943961388965"><ele>192.20000000000002</ele><time>2026-04-18T10:57:45Z</time></trkpt><trkpt lat="45.094826137263645" lon="8.194499977734534"><ele>192.60000000000002</ele><time>2026-04-18T10:57:46Z</time></trkpt><trkpt lat="45.09487522435116" lon="8.194611422832564"><ele>193.0</ele><time>2026-04-18T10:57:47Z</time></trkpt><trkpt lat="45.09493121032808" lon="8.194726896382027"><ele>192.99999999999997</ele><time>2026-04-18T10:57:48Z</time></trkpt><trkpt lat="45.094971021767556" lon="8.194809581574383"><ele>193.0</ele><time>2026-04-18T10:57:49Z</time></trkpt><trkpt lat="45.09500591221601" lon="8.194885155164563"><ele>193.0</ele><time>2026-04-18T10:57:50Z</time></trkpt><trkpt lat="45.09507972217699" lon="8.195007798216807"><ele>193.0</ele><time>2026-04-18T10:57:52Z</time></trkpt><trkpt lat="45.09513022625627" lon="8.1950833111916"><ele>192.99999999999997</ele><time>2026-04-18T10:57:53Z</time></trkpt><trkpt lat="45.09516752983006" lon="8.195159527022815"><ele>193.0</ele><time>2026-04-18T10:57:54Z</time></trkpt><trkpt lat="45.09519904945047" lon="8.19524079695773"><ele>193.66666666666666</ele><time>2026-04-18T10:57:55Z</time></trkpt><trkpt lat="45.095243253692196" lon="8.195309926549067"><ele>194.33333333333331</ele><time>2026-04-18T10:57:56Z</time></trkpt><trkpt lat="45.095295959863925" lon="8.195410063399926"><ele>195.0</ele><time>2026-04-18T10:57:58Z</time></trkpt><trkpt lat="45.09536490846467" lon="8.195462553022008"><ele>195.66666666666669</ele><time>2026-04-18T10:58:00Z</time></trkpt><trkpt lat="45.09543331042645" lon="8.195450341439267"><ele>196.33333333333334</ele><time>2026-04-18T10:58:02Z</time></trkpt><trkpt lat="45.09550787448947" lon="8.195391879445463"><ele>197.0</ele><time>2026-04-18T10:58:04Z</time></trkpt><trkpt lat="45.09560407890564" lon="8.195297500160247"><ele>197.00000000000003</ele><time>2026-04-18T10:58:06Z</time></trkpt><trkpt lat="45.09569477480101" lon="8.195212878901456"><ele>197.0</ele><time>2026-04-18T10:58:08Z</time></trkpt><trkpt lat="45.09574438243149" lon="8.195157370270552"><ele>197.0</ele><time>2026-04-18T10:58:09Z</time></trkpt><trkpt lat="45.095834243137496" lon="8.195061676089846"><ele>197.0</ele><time>2026-04-18T10:58:11Z</time></trkpt><trkpt lat="45.09588301627617" lon="8.194996373582036"><ele>197.00000000000003</ele><time>2026-04-18T10:58:12Z</time></trkpt><trkpt lat="45.09593441559461" lon="8.19494118676719"><ele>197.0</ele><time>2026-04-18T10:58:13Z</time></trkpt><trkpt lat="45.09599159451723" lon="8.194884665727661"><ele>195.0</ele><time>2026-04-18T10:58:14Z</time></trkpt><trkpt lat="45.09608112965313" lon="8.194805221481824"><ele>193.0</ele><time>2026-04-18T10:58:16Z</time></trkpt><trkpt lat="45.09619822675791" lon="8.194712643973077"><ele>191.0</ele><time>2026-04-18T10:58:17.999Z</time></trkpt><trkpt lat="45.09626148220227" lon="8.194641692948354"><ele>189.0</ele><time>2026-04-18T10:58:18.999Z</time></trkpt><trkpt lat="45.0963415376621" lon="8.19462288037682"><ele>187.0</ele><time>2026-04-18T10:58:20.999Z</time></trkpt><trkpt lat="45.096440021706194" lon="8.194722199120486"><ele>187.0</ele><time>2026-04-18T10:58:22.999Z</time></trkpt><trkpt lat="45.09649095309261" lon="8.194817716948304"><ele>187.0</ele><time>2026-04-18T10:58:23.999Z</time></trkpt><trkpt lat="45.09654525092381" lon="8.194922789391802"><ele>187.0</ele><time>2026-04-18T10:58:24.999Z</time></trkpt><trkpt lat="45.096593593025354" lon="8.19501976229099"><ele>187.0</ele><time>2026-04-18T10:58:25.999Z</time></trkpt><trkpt lat="45.096646296729354" lon="8.19509893930922"><ele>187.0</ele><time>2026-04-18T10:58:26.999Z</time></trkpt><trkpt lat="45.09670050033391" lon="8.195163180431859"><ele>187.0</ele><time>2026-04-18T10:58:27.999Z</time></trkpt><trkpt lat="45.09674962005651" lon="8.19522592873655"><ele>187.5</ele><time>2026-04-18T10:58:28.999Z</time></trkpt><trkpt lat="45.09679611656902" lon="8.195289831370028"><ele>188.0</ele><time>2026-04-18T10:58:29.999Z</time></trkpt><trkpt lat="45.09684072242874" lon="8.195364579233638"><ele>188.5</ele><time>2026-04-18T10:58:30.999Z</time></trkpt><trkpt lat="45.096897322070035" lon="8.195433547554295"><ele>189.0</ele><time>2026-04-18T10:58:31.999Z</time></trkpt><trkpt lat="45.09696078587809" lon="8.19548743107929"><ele>189.5</ele><time>2026-04-18T10:58:32.999Z</time></trkpt><trkpt lat="45.09706845253857" lon="8.195523233373324"><ele>190.0</ele><time>2026-04-18T10:58:34.999Z</time></trkpt><trkpt lat="45.09715254110211" lon="8.195574824477362"><ele>190.0</ele><time>2026-04-18T10:58:36.999Z</time></trkpt><trkpt lat="45.09723326269385" lon="8.195654426748598"><ele>190.0</ele><time>2026-04-18T10:58:38.999Z</time></trkpt><trkpt lat="45.09730727317522" lon="8.19563438228223"><ele>190.0</ele><time>2026-04-18T10:58:40.999Z</time></trkpt><trkpt lat="45.09742025274419" lon="8.195639601007368"><ele>190.0</ele><time>2026-04-18T10:58:42.999Z</time></trkpt><trkpt lat="45.09748991594716" lon="8.195614112948196"><ele>190.0</ele><time>2026-04-18T10:58:44Z</time></trkpt><trkpt lat="45.09757359291822" lon="8.19557524419154"><ele>190.0</ele><time>2026-04-18T10:58:45Z</time></trkpt><trkpt lat="45.09766867727145" lon="8.195543844478843"><ele>189.5</ele><time>2026-04-18T10:58:47Z</time></trkpt><trkpt lat="45.097714699696375" lon="8.195605395160507"><ele>189.0</ele><time>2026-04-18T10:58:49Z</time></trkpt><trkpt lat="45.097661273489074" lon="8.195719906001479"><ele>188.5</ele><time>2026-04-18T10:58:52Z</time></trkpt><trkpt lat="45.09761382330172" lon="8.195780457732399"><ele>188.0</ele><time>2026-04-18T10:58:53Z</time></trkpt><trkpt lat="45.09756510761268" lon="8.19584142994119"><ele>187.5</ele><time>2026-04-18T10:58:54Z</time></trkpt><trkpt lat="45.097519387057936" lon="8.195983695542543"><ele>187.0</ele><time>2026-04-18T10:58:56Z</time></trkpt><trkpt lat="45.09758678484109" lon="8.19615707156525"><ele>187.0</ele><time>2026-04-18T10:58:58Z</time></trkpt><trkpt lat="45.09763682522762" lon="8.196255378948564"><ele>187.0</ele><time>2026-04-18T10:58:59Z</time></trkpt><trkpt lat="45.09767677482433" lon="8.196338107486815"><ele>187.0</ele><time>2026-04-18T10:59:00Z</time></trkpt><trkpt lat="45.09770571812202" lon="8.196430825075392"><ele>187.0</ele><time>2026-04-18T10:59:01Z</time></trkpt><trkpt lat="45.097761734263905" lon="8.196517409618533"><ele>187.0</ele><time>2026-04-18T10:59:02Z</time></trkpt><trkpt lat="45.097809888186816" lon="8.196581259498414"><ele>187.0</ele><time>2026-04-18T10:59:03Z</time></trkpt><trkpt lat="45.09791301006864" lon="8.196603759715869"><ele>187.0</ele><time>2026-04-18T10:59:05Z</time></trkpt><trkpt lat="45.09797605216843" lon="8.196560585655092"><ele>187.0</ele><time>2026-04-18T10:59:06Z</time></trkpt><trkpt lat="45.09801955890562" lon="8.196490387614213"><ele>187.0</ele><time>2026-04-18T10:59:07Z</time></trkpt><trkpt lat="45.09806175432957" lon="8.196420888206916"><ele>187.0</ele><time>2026-04-18T10:59:08Z</time></trkpt><trkpt lat="45.098168730793745" lon="8.196450586871395"><ele>187.0</ele><time>2026-04-18T10:59:10Z</time></trkpt><trkpt lat="45.098234402821646" lon="8.196510082377028"><ele>187.0</ele><time>2026-04-18T10:59:11Z</time></trkpt><trkpt lat="45.09828973474846" lon="8.196582000816402"><ele>187.16666666666669</ele><time>2026-04-18T10:59:12Z</time></trkpt><trkpt lat="45.09836171285445" lon="8.19665209084177"><ele>187.33333333333334</ele><time>2026-04-18T10:59:13Z</time></trkpt><trkpt lat="45.09843045699395" lon="8.196729671185118"><ele>187.5</ele><time>2026-04-18T10:59:14Z</time></trkpt><trkpt lat="45.09849447714271" lon="8.196792309423916"><ele>187.66666666666666</ele><time>2026-04-18T10:59:15Z</time></trkpt><trkpt lat="45.09854583743726" lon="8.196849003156537"><ele>187.83333333333331</ele><time>2026-04-18T10:59:16Z</time></trkpt><trkpt lat="45.09864858819865" lon="8.196952653863862"><ele>188.0</ele><time>2026-04-18T10:59:18Z</time></trkpt><trkpt lat="45.09874052449502" lon="8.197040675087043"><ele>188.0</ele><time>2026-04-18T10:59:20Z</time></trkpt><trkpt lat="45.09884009131668" lon="8.197128816368707"><ele>188.0</ele><time>2026-04-18T10:59:22Z</time></trkpt><trkpt lat="45.09890202495235" lon="8.197145101950392"><ele>188.0</ele><time>2026-04-18T10:59:23Z</time></trkpt><trkpt lat="45.098975906229015" lon="8.197133207959988"><ele>188.0</ele><time>2026-04-18T10:59:24Z</time></trkpt><trkpt lat="45.09905611396511" lon="8.197097739055138"><ele>188.0</ele><time>2026-04-18T10:59:25Z</time></trkpt><trkpt lat="45.09914696852973" lon="8.197060293173823"><ele>188.0</ele><time>2026-04-18T10:59:26Z</time></trkpt><trkpt lat="45.099249874704284" lon="8.19701791825546"><ele>187.4</ele><time>2026-04-18T10:59:27Z</time></trkpt><trkpt lat="45.099352188286" lon="8.19698628185492"><ele>186.8</ele><time>2026-04-18T10:59:28Z</time></trkpt><trkpt lat="45.09946004202464" lon="8.196962647531503"><ele>186.2</ele><time>2026-04-18T10:59:29Z</time></trkpt><trkpt lat="45.09956624240334" lon="8.196943587771147"><ele>185.6</ele><time>2026-04-18T10:59:30Z</time></trkpt><trkpt lat="45.099656128399026" lon="8.196962827623306"><ele>185.0</ele><time>2026-04-18T10:59:31Z</time></trkpt><trkpt lat="45.09973946335889" lon="8.196929981353293"><ele>185.0</ele><time>2026-04-18T10:59:32Z</time></trkpt><trkpt lat="45.0998500165109" lon="8.196897603919794"><ele>185.0</ele><time>2026-04-18T10:59:34Z</time></trkpt><trkpt lat="45.099939292196495" lon="8.1970977648436"><ele>185.0</ele><time>2026-04-18T10:59:38Z</time></trkpt><trkpt lat="45.099977502474005" lon="8.197262992042834"><ele>185.0</ele><time>2026-04-18T10:59:40Z</time></trkpt><trkpt lat="45.10001710536746" lon="8.197431013726355"><ele>184.4</ele><time>2026-04-18T10:59:42Z</time></trkpt><trkpt lat="45.10003080934608" lon="8.197570747672462"><ele>183.8</ele><time>2026-04-18T10:59:44Z</time></trkpt><trkpt lat="45.1000469633162" lon="8.19770163855955"><ele>183.2</ele><time>2026-04-18T10:59:46Z</time></trkpt><trkpt lat="45.100056592339044" lon="8.197834272576978"><ele>182.6</ele><time>2026-04-18T10:59:48Z</time></trkpt><trkpt lat="45.10006754929848" lon="8.197939925231601"><ele>182.0</ele><time>2026-04-18T10:59:50Z</time></trkpt><trkpt lat="45.10007824175643" lon="8.198072321585684"><ele>183.2</ele><time>2026-04-18T10:59:52Z</time></trkpt><trkpt lat="45.10004171246154" lon="8.198200242048145"><ele>184.39999999999998</ele><time>2026-04-18T10:59:54Z</time></trkpt><trkpt lat="45.10000437139689" lon="8.198337853136184"><ele>185.60000000000002</ele><time>2026-04-18T10:59:56Z</time></trkpt><trkpt lat="45.099971376717704" lon="8.198485668017375"><ele>186.8</ele><time>2026-04-18T10:59:58Z</time></trkpt><trkpt lat="45.09991371658618" lon="8.198618549649037"><ele>188.0</ele><time>2026-04-18T11:00:00Z</time></trkpt><trkpt lat="45.09987904615828" lon="8.198746466291775"><ele>189.2</ele><time>2026-04-18T11:00:02Z</time></trkpt><trkpt lat="45.09983841543481" lon="8.198869794505205"><ele>190.4</ele><time>2026-04-18T11:00:04Z</time></trkpt><trkpt lat="45.099822338686145" lon="8.198967471493829"><ele>191.6</ele><time>2026-04-18T11:00:05Z</time></trkpt><trkpt lat="45.099785739129814" lon="8.199106922911902"><ele>192.79999999999998</ele><time>2026-04-18T11:00:07Z</time></trkpt><trkpt lat="45.09978945228567" lon="8.199214333245012"><ele>194.0</ele><time>2026-04-18T11:00:09Z</time></trkpt><trkpt lat="45.09989568481076" lon="8.199295711562065"><ele>193.83333333333334</ele><time>2026-04-18T11:00:11Z</time></trkpt><trkpt lat="45.099979396980636" lon="8.19932824455978"><ele>193.66666666666669</ele><time>2026-04-18T11:00:12Z</time></trkpt><trkpt lat="45.100065255142304" lon="8.19937000438247"><ele>193.5</ele><time>2026-04-18T11:00:13Z</time></trkpt><trkpt lat="45.10014005507393" lon="8.199407847260419"><ele>193.33333333333331</ele><time>2026-04-18T11:00:14Z</time></trkpt><trkpt lat="45.10022257134557" lon="8.199457800901161"><ele>193.16666666666666</ele><time>2026-04-18T11:00:15Z</time></trkpt><trkpt lat="45.10030831991575" lon="8.199502678598211"><ele>193.0</ele><time>2026-04-18T11:00:16Z</time></trkpt><trkpt lat="45.10039222560651" lon="8.19955305556291"><ele>193.0</ele><time>2026-04-18T11:00:17Z</time></trkpt><trkpt lat="45.10047398581068" lon="8.199615824636957"><ele>193.0</ele><time>2026-04-18T11:00:18Z</time></trkpt><trkpt lat="45.10056316935596" lon="8.19967912779231"><ele>193.0</ele><time>2026-04-18T11:00:19Z</time></trkpt><trkpt lat="45.10064978602774" lon="8.199745054431238"><ele>193.0</ele><time>2026-04-18T11:00:20Z</time></trkpt><trkpt lat="45.10072457065216" lon="8.19981749398209"><ele>193.0</ele><time>2026-04-18T11:00:21Z</time></trkpt><trkpt lat="45.100808581289115" lon="8.199884287020016"><ele>193.66666666666666</ele><time>2026-04-18T11:00:22Z</time></trkpt><trkpt lat="45.10088682956414" lon="8.199950323165227"><ele>194.33333333333331</ele><time>2026-04-18T11:00:23Z</time></trkpt><trkpt lat="45.10096749058804" lon="8.200013765955383"><ele>195.0</ele><time>2026-04-18T11:00:24Z</time></trkpt><trkpt lat="45.101034461251714" lon="8.20006579822862"><ele>195.66666666666669</ele><time>2026-04-18T11:00:25Z</time></trkpt><trkpt lat="45.101099741344655" lon="8.200115355670965"><ele>196.33333333333334</ele><time>2026-04-18T11:00:26Z</time></trkpt><trkpt lat="45.10116678254082" lon="8.200171069299842"><ele>197.0</ele><time>2026-04-18T11:00:27Z</time></trkpt><trkpt lat="45.10122759626682" lon="8.200231802993295"><ele>197.00000000000003</ele><time>2026-04-18T11:00:28Z</time></trkpt><trkpt lat="45.10128444126272" lon="8.200300934721994"><ele>197.0</ele><time>2026-04-18T11:00:29Z</time></trkpt><trkpt lat="45.10134425803504" lon="8.200380297001526"><ele>197.0</ele><time>2026-04-18T11:00:30Z</time></trkpt><trkpt lat="45.10140836736295" lon="8.200468270723633"><ele>197.0</ele><time>2026-04-18T11:00:31Z</time></trkpt><trkpt lat="45.101472743130984" lon="8.200544293830681"><ele>197.00000000000003</ele><time>2026-04-18T11:00:32Z</time></trkpt><trkpt lat="45.10154867933871" lon="8.200626669785143"><ele>197.0</ele><time>2026-04-18T11:00:33Z</time></trkpt><trkpt lat="45.10161424432367" lon="8.200701172026603"><ele>196.83333333333334</ele><time>2026-04-18T11:00:34Z</time></trkpt><trkpt lat="45.10167017441369" lon="8.200753786297689"><ele>196.66666666666669</ele><time>2026-04-18T11:00:35Z</time></trkpt><trkpt lat="45.101747419217595" lon="8.200805075338529"><ele>196.5</ele><time>2026-04-18T11:00:37Z</time></trkpt><trkpt lat="45.10181818408977" lon="8.200880972306315"><ele>196.33333333333331</ele><time>2026-04-18T11:00:39Z</time></trkpt><trkpt lat="45.10191049162991" lon="8.200892282262492"><ele>196.16666666666666</ele><time>2026-04-18T11:00:41Z</time></trkpt><trkpt lat="45.10197712533552" lon="8.200937408262154"><ele>196.0</ele><time>2026-04-18T11:00:43Z</time></trkpt><trkpt lat="45.10206748021831" lon="8.200977296463241"><ele>195.99999999999997</ele><time>2026-04-18T11:00:44.999Z</time></trkpt><trkpt lat="45.10213091085829" lon="8.201022970932561"><ele>196.0</ele><time>2026-04-18T11:00:45.999Z</time></trkpt><trkpt lat="45.102200469677165" lon="8.201065414625647"><ele>196.0</ele><time>2026-04-18T11:00:46.999Z</time></trkpt><trkpt lat="45.102270723874035" lon="8.201109259745685"><ele>196.0</ele><time>2026-04-18T11:00:47.999Z</time></trkpt><trkpt lat="45.10233089701399" lon="8.20113843504633"><ele>195.99999999999997</ele><time>2026-04-18T11:00:48.999Z</time></trkpt><trkpt lat="45.10244049277445" lon="8.201209080335014"><ele>196.0</ele><time>2026-04-18T11:00:51Z</time></trkpt><trkpt lat="45.10249889856765" lon="8.201258805202809"><ele>194.16666666666666</ele><time>2026-04-18T11:00:52Z</time></trkpt><trkpt lat="45.10257405396517" lon="8.201337307395253"><ele>192.33333333333331</ele><time>2026-04-18T11:00:54Z</time></trkpt><trkpt lat="45.102622422380506" lon="8.201405121713051"><ele>190.5</ele><time>2026-04-18T11:00:56Z</time></trkpt><trkpt lat="45.10260039126985" lon="8.201513652052958"><ele>188.66666666666666</ele><time>2026-04-18T11:00:58Z</time></trkpt><trkpt lat="45.10256495123723" lon="8.20158795914381"><ele>186.83333333333331</ele><time>2026-04-18T11:00:59Z</time></trkpt><trkpt lat="45.102518620018614" lon="8.201665582859519"><ele>185.0</ele><time>2026-04-18T11:01:00Z</time></trkpt><trkpt lat="45.10247073445269" lon="8.201750062128925"><ele>185.0</ele><time>2026-04-18T11:01:01Z</time></trkpt><trkpt lat="45.10243396681459" lon="8.201835026439433"><ele>185.0</ele><time>2026-04-18T11:01:02Z</time></trkpt><trkpt lat="45.102407202216554" lon="8.201965927477435"><ele>185.0</ele><time>2026-04-18T11:01:04Z</time></trkpt><trkpt lat="45.10249911594281" lon="8.20210568653054"><ele>185.0</ele><time>2026-04-18T11:01:06Z</time></trkpt><trkpt lat="45.102561890031126" lon="8.202190019484839"><ele>185.0</ele><time>2026-04-18T11:01:07Z</time></trkpt><trkpt lat="45.10262835956256" lon="8.20227171843575"><ele>185.5</ele><time>2026-04-18T11:01:08Z</time></trkpt><trkpt lat="45.102689349444546" lon="8.202342872010139"><ele>186.0</ele><time>2026-04-18T11:01:09Z</time></trkpt><trkpt lat="45.1027380645621" lon="8.202413471519792"><ele>186.5</ele><time>2026-04-18T11:01:10Z</time></trkpt><trkpt lat="45.10279026562525" lon="8.202473830360619"><ele>187.0</ele><time>2026-04-18T11:01:11Z</time></trkpt><trkpt lat="45.102848337387684" lon="8.20252053097918"><ele>187.5</ele><time>2026-04-18T11:01:12Z</time></trkpt><trkpt lat="45.10293418744355" lon="8.2025467183551"><ele>188.0</ele><time>2026-04-18T11:01:13Z</time></trkpt><trkpt lat="45.10302372028405" lon="8.202545674214747"><ele>188.0</ele><time>2026-04-18T11:01:14Z</time></trkpt><trkpt lat="45.10310463996588" lon="8.202544673048557"><ele>188.0</ele><time>2026-04-18T11:01:15Z</time></trkpt><trkpt lat="45.10316826122023" lon="8.202569854972163"><ele>188.0</ele><time>2026-04-18T11:01:16Z</time></trkpt><trkpt lat="45.10327764230046" lon="8.202658731346997"><ele>188.0</ele><time>2026-04-18T11:01:18Z</time></trkpt><trkpt lat="45.103311432728034" lon="8.202743706357323"><ele>188.0</ele><time>2026-04-18T11:01:19Z</time></trkpt><trkpt lat="45.10337747815547" lon="8.202803059887106"><ele>188.0</ele><time>2026-04-18T11:01:20Z</time></trkpt><trkpt lat="45.10345329688824" lon="8.202899671087241"><ele>188.2</ele><time>2026-04-18T11:01:22Z</time></trkpt><trkpt lat="45.10354123271623" lon="8.202986839527076"><ele>188.4</ele><time>2026-04-18T11:01:24Z</time></trkpt><trkpt lat="45.10359172924242" lon="8.203101967317803"><ele>188.6</ele><time>2026-04-18T11:01:26Z</time></trkpt><trkpt lat="45.10367531504254" lon="8.20321633357301"><ele>188.79999999999998</ele><time>2026-04-18T11:01:28Z</time></trkpt><trkpt lat="45.103750505567334" lon="8.203317972742417"><ele>189.0</ele><time>2026-04-18T11:01:30Z</time></trkpt><trkpt lat="45.10379870847083" lon="8.203405658416138"><ele>189.66666666666666</ele><time>2026-04-18T11:01:33Z</time></trkpt><trkpt lat="45.10384810504052" lon="8.203479907358927"><ele>190.33333333333331</ele><time>2026-04-18T11:01:36Z</time></trkpt><trkpt lat="45.10390062994161" lon="8.203539134356431"><ele>191.0</ele><time>2026-04-18T11:01:38Z</time></trkpt><trkpt lat="45.10396399444624" lon="8.203618913882119"><ele>191.66666666666666</ele><time>2026-04-18T11:01:39Z</time></trkpt><trkpt lat="45.104020654962355" lon="8.203681362898147"><ele>192.33333333333331</ele><time>2026-04-18T11:01:40Z</time></trkpt><trkpt lat="45.10408162708012" lon="8.20373370441935"><ele>193.0</ele><time>2026-04-18T11:01:41Z</time></trkpt><trkpt lat="45.10419822502183" lon="8.203794692575073"><ele>192.99999999999997</ele><time>2026-04-18T11:01:43Z</time></trkpt><trkpt lat="45.10426405755751" lon="8.203831773645058"><ele>193.0</ele><time>2026-04-18T11:01:44Z</time></trkpt><trkpt lat="45.104330151626485" lon="8.203866703763898"><ele>193.0</ele><time>2026-04-18T11:01:47Z</time></trkpt><trkpt lat="45.104374846598915" lon="8.203944764722143"><ele>193.0</ele><time>2026-04-18T11:01:49Z</time></trkpt><trkpt lat="45.10448339328026" lon="8.204047567168471"><ele>192.99999999999997</ele><time>2026-04-18T11:01:51Z</time></trkpt><trkpt lat="45.10454321303974" lon="8.204093747273749"><ele>193.0</ele><time>2026-04-18T11:01:52Z</time></trkpt><trkpt lat="45.104657418267166" lon="8.204179420472496"><ele>193.4</ele><time>2026-04-18T11:01:54Z</time></trkpt><trkpt lat="45.10471763043055" lon="8.204233804019177"><ele>193.8</ele><time>2026-04-18T11:01:55Z</time></trkpt><trkpt lat="45.104775817851085" lon="8.20427985587761"><ele>194.2</ele><time>2026-04-18T11:01:56Z</time></trkpt><trkpt lat="45.1048693807383" lon="8.204350022751582"><ele>194.6</ele><time>2026-04-18T11:01:58Z</time></trkpt><trkpt lat="45.10498147403033" lon="8.204352736245161"><ele>195.0</ele><time>2026-04-18T11:02:00Z</time></trkpt><trkpt lat="45.10509791110425" lon="8.204369039212262"><ele>195.0</ele><time>2026-04-18T11:02:02Z</time></trkpt><trkpt lat="45.10515902313664" lon="8.204406873318641"><ele>195.0</ele><time>2026-04-18T11:02:03Z</time></trkpt><trkpt lat="45.105226603918766" lon="8.204458628804822"><ele>195.0</ele><time>2026-04-18T11:02:04Z</time></trkpt><trkpt lat="45.105286053474735" lon="8.204513436357898"><ele>195.0</ele><time>2026-04-18T11:02:05Z</time></trkpt><trkpt lat="45.10535740309471" lon="8.204561650372654"><ele>195.0</ele><time>2026-04-18T11:02:06Z</time></trkpt><trkpt lat="45.10543181703252" lon="8.20461058438512"><ele>195.0</ele><time>2026-04-18T11:02:07Z</time></trkpt><trkpt lat="45.10549383657104" lon="8.204649277735188"><ele>195.0</ele><time>2026-04-18T11:02:08Z</time></trkpt><trkpt lat="45.10555498413838" lon="8.204691713577139"><ele>195.0</ele><time>2026-04-18T11:02:09Z</time></trkpt><trkpt lat="45.10561682875472" lon="8.204731377755333"><ele>195.0</ele><time>2026-04-18T11:02:10Z</time></trkpt><trkpt lat="45.10570952533514" lon="8.20481090896014"><ele>195.0</ele><time>2026-04-18T11:02:12Z</time></trkpt><trkpt lat="45.10576724745335" lon="8.204865418958"><ele>195.0</ele><time>2026-04-18T11:02:13Z</time></trkpt><trkpt lat="45.105832677272765" lon="8.204922941951498"><ele>195.0</ele><time>2026-04-18T11:02:14Z</time></trkpt><trkpt lat="45.105887724014885" lon="8.204980066601564"><ele>195.0</ele><time>2026-04-18T11:02:15Z</time></trkpt><trkpt lat="45.1059416861427" lon="8.205033189252912"><ele>195.16666666666666</ele><time>2026-04-18T11:02:16Z</time></trkpt><trkpt lat="45.10600377994486" lon="8.205090334632025"><ele>195.33333333333331</ele><time>2026-04-18T11:02:17Z</time></trkpt><trkpt lat="45.106063284730766" lon="8.205151370621317"><ele>195.5</ele><time>2026-04-18T11:02:18Z</time></trkpt><trkpt lat="45.106122706456794" lon="8.205199102474104"><ele>195.66666666666666</ele><time>2026-04-18T11:02:19Z</time></trkpt><trkpt lat="45.106182610538966" lon="8.20525399944803"><ele>195.83333333333331</ele><time>2026-04-18T11:02:20Z</time></trkpt><trkpt lat="45.106250250915075" lon="8.205315365474316"><ele>196.0</ele><time>2026-04-18T11:02:21Z</time></trkpt><trkpt lat="45.10634175313774" lon="8.205399609506546"><ele>195.99999999999997</ele><time>2026-04-18T11:02:23Z</time></trkpt><trkpt lat="45.106426797154235" lon="8.20547861584794"><ele>196.0</ele><time>2026-04-18T11:02:25Z</time></trkpt><trkpt lat="45.10649079857162" lon="8.20551198746903"><ele>196.0</ele><time>2026-04-18T11:02:27Z</time></trkpt><trkpt lat="45.10658349346852" lon="8.205462834553911"><ele>196.0</ele><time>2026-04-18T11:02:29Z</time></trkpt><trkpt lat="45.10663934325836" lon="8.20538999260158"><ele>195.99999999999997</ele><time>2026-04-18T11:02:30Z</time></trkpt><trkpt lat="45.1067091095262" lon="8.20529386817288"><ele>196.0</ele><time>2026-04-18T11:02:31Z</time></trkpt><trkpt lat="45.106768319030934" lon="8.20520839879283"><ele>194.83333333333331</ele><time>2026-04-18T11:02:32Z</time></trkpt><trkpt lat="45.106819825388946" lon="8.205138606075884"><ele>193.66666666666666</ele><time>2026-04-18T11:02:33Z</time></trkpt><trkpt lat="45.10686930482627" lon="8.205054206260932"><ele>192.5</ele><time>2026-04-18T11:02:34Z</time></trkpt><trkpt lat="45.10692977176211" lon="8.204959966189795"><ele>191.33333333333331</ele><time>2026-04-18T11:02:35Z</time></trkpt><trkpt lat="45.106984070971514" lon="8.20486877073666"><ele>190.16666666666666</ele><time>2026-04-18T11:02:36Z</time></trkpt><trkpt lat="45.10702498181536" lon="8.204794528985824"><ele>189.0</ele><time>2026-04-18T11:02:37Z</time></trkpt><trkpt lat="45.107054998066246" lon="8.204708860382704"><ele>188.2</ele><time>2026-04-18T11:02:38Z</time></trkpt><trkpt lat="45.107111784197436" lon="8.204567662700766"><ele>187.39999999999998</ele><time>2026-04-18T11:02:40Z</time></trkpt><trkpt lat="45.107177140062205" lon="8.204445353689296"><ele>186.6</ele><time>2026-04-18T11:02:42Z</time></trkpt><trkpt lat="45.107260271446386" lon="8.204392499001937"><ele>185.8</ele><time>2026-04-18T11:02:44Z</time></trkpt><trkpt lat="45.107323569755415" lon="8.20441062670337"><ele>185.0</ele><time>2026-04-18T11:02:45Z</time></trkpt><trkpt lat="45.107390850051345" lon="8.204459365466862"><ele>185.0</ele><time>2026-04-18T11:02:46Z</time></trkpt><trkpt lat="45.10747606238515" lon="8.204512344556976"><ele>185.0</ele><time>2026-04-18T11:02:47Z</time></trkpt><trkpt lat="45.10752995628497" lon="8.204573608592629"><ele>185.0</ele><time>2026-04-18T11:02:48Z</time></trkpt><trkpt lat="45.107582461398174" lon="8.204649049771406"><ele>185.0</ele><time>2026-04-18T11:02:49Z</time></trkpt><trkpt lat="45.10763481349173" lon="8.204743397880963"><ele>185.0</ele><time>2026-04-18T11:02:50Z</time></trkpt><trkpt lat="45.10768657692835" lon="8.20485479940965"><ele>185.0</ele><time>2026-04-18T11:02:51Z</time></trkpt><trkpt lat="45.10772532691543" lon="8.20495458931414"><ele>185.0</ele><time>2026-04-18T11:02:52Z</time></trkpt><trkpt lat="45.1077521245721" lon="8.205051010304107"><ele>185.0</ele><time>2026-04-18T11:02:53Z</time></trkpt><trkpt lat="45.10776756426628" lon="8.205174841869743"><ele>185.0</ele><time>2026-04-18T11:02:54Z</time></trkpt><trkpt lat="45.1077766850254" lon="8.20531500181129"><ele>185.0</ele><time>2026-04-18T11:02:55Z</time></trkpt><trkpt lat="45.10778887002973" lon="8.205469331240854"><ele>185.0</ele><time>2026-04-18T11:02:56Z</time></trkpt><trkpt lat="45.1077956389997" lon="8.20562989656442"><ele>185.83333333333331</ele><time>2026-04-18T11:02:57Z</time></trkpt><trkpt lat="45.107794425423876" lon="8.205776836361732"><ele>186.66666666666666</ele><time>2026-04-18T11:02:58Z</time></trkpt><trkpt lat="45.107793924573606" lon="8.205910680669028"><ele>187.5</ele><time>2026-04-18T11:02:59Z</time></trkpt><trkpt lat="45.107783486546396" lon="8.206042595988611"><ele>188.33333333333334</ele><time>2026-04-18T11:03:00Z</time></trkpt><trkpt lat="45.10777324226474" lon="8.206169897949032"><ele>189.16666666666669</ele><time>2026-04-18T11:03:01Z</time></trkpt><trkpt lat="45.10777380132875" lon="8.206260167003293"><ele>190.0</ele><time>2026-04-18T11:03:02Z</time></trkpt><trkpt lat="45.10778756734588" lon="8.206382035812885"><ele>190.2</ele><time>2026-04-18T11:03:03Z</time></trkpt><trkpt lat="45.107799157020864" lon="8.206519435930348"><ele>190.4</ele><time>2026-04-18T11:03:04Z</time></trkpt><trkpt lat="45.107813043655256" lon="8.206660087468466"><ele>190.60000000000002</ele><time>2026-04-18T11:03:05Z</time></trkpt><trkpt lat="45.10782607470518" lon="8.206802271721017"><ele>190.8</ele><time>2026-04-18T11:03:06Z</time></trkpt><trkpt lat="45.10783869461132" lon="8.206929980486155"><ele>191.0</ele><time>2026-04-18T11:03:07Z</time></trkpt><trkpt lat="45.10785153979608" lon="8.207055910955573"><ele>191.0</ele><time>2026-04-18T11:03:08Z</time></trkpt><trkpt lat="45.10786310394576" lon="8.207195989619951"><ele>191.0</ele><time>2026-04-18T11:03:09Z</time></trkpt><trkpt lat="45.10787736129406" lon="8.207332298211163"><ele>191.0</ele><time>2026-04-18T11:03:10Z</time></trkpt><trkpt lat="45.107887560823016" lon="8.207441948042392"><ele>191.0</ele><time>2026-04-18T11:03:11Z</time></trkpt><trkpt lat="45.107900565779595" lon="8.207549278829108"><ele>191.0</ele><time>2026-04-18T11:03:12Z</time></trkpt><trkpt lat="45.1079125462855" lon="8.20767381806415"><ele>191.0</ele><time>2026-04-18T11:03:13Z</time></trkpt><trkpt lat="45.10792559355777" lon="8.207784623891786"><ele>190.83333333333331</ele><time>2026-04-18T11:03:14Z</time></trkpt><trkpt lat="45.10793390819662" lon="8.20789545434616"><ele>190.66666666666666</ele><time>2026-04-18T11:03:15Z</time></trkpt><trkpt lat="45.10793362089811" lon="8.208037773769497"><ele>190.5</ele><time>2026-04-18T11:03:17Z</time></trkpt><trkpt lat="45.10793796487037" lon="8.208132076249608"><ele>190.33333333333334</ele><time>2026-04-18T11:03:20Z</time></trkpt><trkpt lat="45.1080301773908" lon="8.208147498074363"><ele>190.16666666666669</ele><time>2026-04-18T11:03:23Z</time></trkpt><trkpt lat="45.108130287918904" lon="8.20813346759277"><ele>190.0</ele><time>2026-04-18T11:03:25Z</time></trkpt><trkpt lat="45.108248890733464" lon="8.20818151173322"><ele>188.5</ele><time>2026-04-18T11:03:27Z</time></trkpt><trkpt lat="45.1082880323278" lon="8.208341571989111"><ele>187.0</ele><time>2026-04-18T11:03:29Z</time></trkpt><trkpt lat="45.10829628685156" lon="8.208432540596915"><ele>185.5</ele><time>2026-04-18T11:03:30Z</time></trkpt><trkpt lat="45.108325638553595" lon="8.208595146154838"><ele>184.0</ele><time>2026-04-18T11:03:32Z</time></trkpt><trkpt lat="45.10834724887627" lon="8.208690584852954"><ele>182.5</ele><time>2026-04-18T11:03:33Z</time></trkpt><trkpt lat="45.10836957947453" lon="8.208791563003514"><ele>181.0</ele><time>2026-04-18T11:03:34Z</time></trkpt><trkpt lat="45.10839008819936" lon="8.208894448692469"><ele>181.16666666666669</ele><time>2026-04-18T11:03:35Z</time></trkpt><trkpt lat="45.108407027148004" lon="8.209013626939866"><ele>181.33333333333334</ele><time>2026-04-18T11:03:36Z</time></trkpt><trkpt lat="45.10842288359588" lon="8.209132424357344"><ele>181.5</ele><time>2026-04-18T11:03:37Z</time></trkpt><trkpt lat="45.1084410073159" lon="8.209257533960583"><ele>181.66666666666666</ele><time>2026-04-18T11:03:38Z</time></trkpt><trkpt lat="45.10846002760796" lon="8.20938247009579"><ele>181.83333333333331</ele><time>2026-04-18T11:03:39Z</time></trkpt><trkpt lat="45.1084805557978" lon="8.20951166906087"><ele>182.0</ele><time>2026-04-18T11:03:40Z</time></trkpt><trkpt lat="45.10850407145092" lon="8.209643979834016"><ele>182.0</ele><time>2026-04-18T11:03:41Z</time></trkpt><trkpt lat="45.10852720523941" lon="8.209777122069948"><ele>182.0</ele><time>2026-04-18T11:03:42Z</time></trkpt><trkpt lat="45.108548256852664" lon="8.209906917001128"><ele>182.0</ele><time>2026-04-18T11:03:43Z</time></trkpt><trkpt lat="45.108571645315926" lon="8.210037575489029"><ele>182.0</ele><time>2026-04-18T11:03:44Z</time></trkpt><trkpt lat="45.108571129287846" lon="8.210144422195821"><ele>182.0</ele><time>2026-04-18T11:03:45Z</time></trkpt><trkpt lat="45.10858907818083" lon="8.210270701652869"><ele>182.57142857142858</ele><time>2026-04-18T11:03:46Z</time></trkpt><trkpt lat="45.108604864737096" lon="8.210378683794897"><ele>183.14285714285714</ele><time>2026-04-18T11:03:47Z</time></trkpt><trkpt lat="45.10860196679238" lon="8.210484411984371"><ele>183.71428571428572</ele><time>2026-04-18T11:03:48Z</time></trkpt><trkpt lat="45.10862788175642" lon="8.21057423574059"><ele>184.28571428571428</ele><time>2026-04-18T11:03:49Z</time></trkpt><trkpt lat="45.108661526010145" lon="8.210665353503348"><ele>184.85714285714286</ele><time>2026-04-18T11:03:50Z</time></trkpt><trkpt lat="45.108702039314856" lon="8.210743150335055"><ele>185.42857142857144</ele><time>2026-04-18T11:03:51Z</time></trkpt><trkpt lat="45.108777525301925" lon="8.210800395607414"><ele>186.0</ele><time>2026-04-18T11:03:52Z</time></trkpt><trkpt lat="45.10887138164102" lon="8.210757927482394"><ele>187.0</ele><time>2026-04-18T11:03:53Z</time></trkpt><trkpt lat="45.108954779214656" lon="8.210744640268839"><ele>188.0</ele><time>2026-04-18T11:03:54Z</time></trkpt><trkpt lat="45.1090532234199" lon="8.210732180502177"><ele>189.0</ele><time>2026-04-18T11:03:55Z</time></trkpt><trkpt lat="45.10914858025969" lon="8.21069751046739"><ele>190.0</ele><time>2026-04-18T11:03:56Z</time></trkpt><trkpt lat="45.10923552211079" lon="8.210698199202286"><ele>191.0</ele><time>2026-04-18T11:03:57Z</time></trkpt><trkpt lat="45.1093286086726" lon="8.210677242100305"><ele>188.66666666666666</ele><time>2026-04-18T11:03:58Z</time></trkpt><trkpt lat="45.10942819493075" lon="8.21063847379969"><ele>186.33333333333331</ele><time>2026-04-18T11:03:59Z</time></trkpt><trkpt lat="45.109512622176396" lon="8.210594803458532"><ele>184.0</ele><time>2026-04-18T11:04:00Z</time></trkpt><trkpt lat="45.109591789509764" lon="8.210555829633659"><ele>181.66666666666666</ele><time>2026-04-18T11:04:01Z</time></trkpt><trkpt lat="45.10966313727813" lon="8.210545854724014"><ele>179.33333333333334</ele><time>2026-04-18T11:04:02Z</time></trkpt><trkpt lat="45.10972680285905" lon="8.210544070005236"><ele>177.0</ele><time>2026-04-18T11:04:03Z</time></trkpt><trkpt lat="45.10980356877798" lon="8.210543406647682"><ele>177.0</ele><time>2026-04-18T11:04:04Z</time></trkpt><trkpt lat="45.10989618324123" lon="8.21054986776669"><ele>177.0</ele><time>2026-04-18T11:04:05Z</time></trkpt><trkpt lat="45.11000024231335" lon="8.210544845790505"><ele>177.0</ele><time>2026-04-18T11:04:06Z</time></trkpt><trkpt lat="45.11009875427899" lon="8.21056259292831"><ele>177.0</ele><time>2026-04-18T11:04:07Z</time></trkpt><trkpt lat="45.110195641389375" lon="8.210614787157409"><ele>177.0</ele><time>2026-04-18T11:04:08Z</time></trkpt><trkpt lat="45.110276460949464" lon="8.21064764700747"><ele>177.0</ele><time>2026-04-18T11:04:09Z</time></trkpt><trkpt lat="45.11036014881458" lon="8.210689921607546"><ele>177.0</ele><time>2026-04-18T11:04:10Z</time></trkpt><trkpt lat="45.110449212614064" lon="8.21074394847556"><ele>177.0</ele><time>2026-04-18T11:04:11Z</time></trkpt><trkpt lat="45.11052841080845" lon="8.210800170561035"><ele>177.0</ele><time>2026-04-18T11:04:12Z</time></trkpt><trkpt lat="45.11060335060619" lon="8.210863877899264"><ele>177.0</ele><time>2026-04-18T11:04:13Z</time></trkpt><trkpt lat="45.11066461740649" lon="8.210941892349515"><ele>177.0</ele><time>2026-04-18T11:04:14Z</time></trkpt><trkpt lat="45.110725964536265" lon="8.211034590006827"><ele>176.5</ele><time>2026-04-18T11:04:15Z</time></trkpt><trkpt lat="45.11078843534794" lon="8.211118169172963"><ele>176.0</ele><time>2026-04-18T11:04:16Z</time></trkpt><trkpt lat="45.110820806509" lon="8.211214653323438"><ele>175.5</ele><time>2026-04-18T11:04:17Z</time></trkpt><trkpt lat="45.1108713862198" lon="8.211313516075466"><ele>175.0</ele><time>2026-04-18T11:04:18Z</time></trkpt><trkpt lat="45.1109335042346" lon="8.211395219489162"><ele>174.5</ele><time>2026-04-18T11:04:19Z</time></trkpt><trkpt lat="45.110973660204785" lon="8.21151184047251"><ele>174.0</ele><time>2026-04-18T11:04:20Z</time></trkpt><trkpt lat="45.111039371185264" lon="8.211606267246912"><ele>174.0</ele><time>2026-04-18T11:04:21Z</time></trkpt><trkpt lat="45.11108925793263" lon="8.211710388731884"><ele>174.0</ele><time>2026-04-18T11:04:22Z</time></trkpt><trkpt lat="45.11114366823375" lon="8.211814987940604"><ele>174.0</ele><time>2026-04-18T11:04:23Z</time></trkpt><trkpt lat="45.111199367159266" lon="8.211924255918623"><ele>174.0</ele><time>2026-04-18T11:04:24Z</time></trkpt><trkpt lat="45.111254142065725" lon="8.21204308925258"><ele>174.0</ele><time>2026-04-18T11:04:25Z</time></trkpt><trkpt lat="45.11131366414065" lon="8.212168419242973"><ele>174.0</ele><time>2026-04-18T11:04:26Z</time></trkpt><trkpt lat="45.11136104898608" lon="8.212301443166616"><ele>174.0</ele><time>2026-04-18T11:04:27Z</time></trkpt><trkpt lat="45.111406102754344" lon="8.212399882106693"><ele>173.0</ele><time>2026-04-18T11:04:28Z</time></trkpt><trkpt lat="45.111455865424176" lon="8.212475139645047"><ele>173.0</ele><time>2026-04-18T11:04:29Z</time></trkpt><trkpt lat="45.11151310293113" lon="8.212601135003858"><ele>173.0</ele><time>2026-04-18T11:04:31Z</time></trkpt><trkpt lat="45.111548095433506" lon="8.21268135516228"><ele>173.0</ele><time>2026-04-18T11:04:34Z</time></trkpt></trkseg><trkseg><trkpt lat="45.11354279277653" lon="8.212121949040823"><ele>173.0</ele><time>2026-04-18T11:40:55.159Z</time></trkpt><trkpt lat="45.11366769344827" lon="8.2121142660785"><ele>173.0</ele><time>2026-04-18T11:41:39.999Z</time></trkpt><trkpt lat="45.11375191737232" lon="8.21203718900385"><ele>173.0</ele><time>2026-04-18T11:41:41.999Z</time></trkpt><trkpt lat="45.11380709202329" lon="8.211961109232353"><ele>173.0</ele><time>2026-04-18T11:41:43.999Z</time></trkpt><trkpt lat="45.11382423927253" lon="8.211871812212518"><ele>173.0</ele><time>2026-04-18T11:41:46.999Z</time></trkpt><trkpt lat="45.11380598106595" lon="8.211763939369721"><ele>173.0</ele><time>2026-04-18T11:41:48.999Z</time></trkpt><trkpt lat="45.11373533944658" lon="8.211654534775196"><ele>173.0</ele><time>2026-04-18T11:41:50.999Z</time></trkpt><trkpt lat="45.11367340382413" lon="8.211611944330453"><ele>173.0</ele><time>2026-04-18T11:41:52.999Z</time></trkpt><trkpt lat="45.11357309313722" lon="8.21169140174823"><ele>173.0</ele><time>2026-04-18T11:41:54.999Z</time></trkpt><trkpt lat="45.113504618770314" lon="8.211746615261378"><ele>173.0</ele><time>2026-04-18T11:41:55.999Z</time></trkpt><trkpt lat="45.11345214235939" lon="8.211801796933146"><ele>173.0</ele><time>2026-04-18T11:41:56.999Z</time></trkpt><trkpt lat="45.11337102819285" lon="8.211858956495593"><ele>173.0</ele><time>2026-04-18T11:41:57.999Z</time></trkpt><trkpt lat="45.11330683718331" lon="8.211896513718036"><ele>172.33333333333331</ele><time>2026-04-18T11:41:58.999Z</time></trkpt><trkpt lat="45.11322895965269" lon="8.21192655306747"><ele>171.66666666666666</ele><time>2026-04-18T11:41:59.999Z</time></trkpt><trkpt lat="45.11314507216752" lon="8.211954171242356"><ele>171.0</ele><time>2026-04-18T11:42:00.999Z</time></trkpt><trkpt lat="45.11305902202969" lon="8.211970055458812"><ele>170.33333333333334</ele><time>2026-04-18T11:42:01.999Z</time></trkpt><trkpt lat="45.11297336417027" lon="8.21198802718497"><ele>169.66666666666669</ele><time>2026-04-18T11:42:02.999Z</time></trkpt><trkpt lat="45.11288637911425" lon="8.212012467168284"><ele>169.0</ele><time>2026-04-18T11:42:03.999Z</time></trkpt><trkpt lat="45.11279471512793" lon="8.21203686888983"><ele>169.0</ele><time>2026-04-18T11:42:04.999Z</time></trkpt><trkpt lat="45.11271184759218" lon="8.21207082800836"><ele>169.0</ele><time>2026-04-18T11:42:05.999Z</time></trkpt><trkpt lat="45.11264797625063" lon="8.212088772410608"><ele>169.0</ele><time>2026-04-18T11:42:06.999Z</time></trkpt><trkpt lat="45.11256754884065" lon="8.212133119336306"><ele>169.0</ele><time>2026-04-18T11:42:07.999Z</time></trkpt><trkpt lat="45.11249694208014" lon="8.212185652389575"><ele>169.0</ele><time>2026-04-18T11:42:08.999Z</time></trkpt><trkpt lat="45.112433084585575" lon="8.212228173735436"><ele>169.0</ele><time>2026-04-18T11:42:09.999Z</time></trkpt><trkpt lat="45.11236429268739" lon="8.212268283647601"><ele>169.16666666666669</ele><time>2026-04-18T11:42:10.999Z</time></trkpt><trkpt lat="45.1122876314068" lon="8.212318152696177"><ele>169.33333333333334</ele><time>2026-04-18T11:42:11.999Z</time></trkpt><trkpt lat="45.11220331884601" lon="8.212356956462253"><ele>169.5</ele><time>2026-04-18T11:42:12.999Z</time></trkpt><trkpt lat="45.112119458086575" lon="8.21239468871001"><ele>169.66666666666666</ele><time>2026-04-18T11:42:13.999Z</time></trkpt><trkpt lat="45.11203728267188" lon="8.21243945727395"><ele>169.83333333333331</ele><time>2026-04-18T11:42:14.999Z</time></trkpt><trkpt lat="45.11195553765594" lon="8.212487926752177"><ele>170.0</ele><time>2026-04-18T11:42:15.999Z</time></trkpt><trkpt lat="45.11188073169775" lon="8.212526135966137"><ele>170.0</ele><time>2026-04-18T11:42:16.999Z</time></trkpt><trkpt lat="45.11181454977663" lon="8.212559322587007"><ele>170.0</ele><time>2026-04-18T11:42:17.999Z</time></trkpt><trkpt lat="45.11171108582804" lon="8.21260866211832"><ele>170.0</ele><time>2026-04-18T11:42:19.999Z</time></trkpt><trkpt lat="45.11162649362421" lon="8.212655088488129"><ele>170.0</ele><time>2026-04-18T11:42:21.999Z</time></trkpt><trkpt lat="45.11156144544967" lon="8.212670533498914"><ele>170.0</ele><time>2026-04-18T11:42:23.999Z</time></trkpt><trkpt lat="45.111591599720825" lon="8.21284357027653"><ele>170.0</ele><time>2026-04-18T11:42:24.999Z</time></trkpt><trkpt lat="45.11161594284201" lon="8.212944224000815"><ele>170.0</ele><time>2026-04-18T11:42:25.999Z</time></trkpt><trkpt lat="45.11165513766959" lon="8.213052116464903"><ele>170.0</ele><time>2026-04-18T11:42:26.999Z</time></trkpt><trkpt lat="45.11169025437432" lon="8.21316827048367"><ele>170.0</ele><time>2026-04-18T11:42:27.999Z</time></trkpt><trkpt lat="45.11173442406168" lon="8.213283807349947"><ele>170.0</ele><time>2026-04-18T11:42:28.999Z</time></trkpt><trkpt lat="45.111766101310074" lon="8.213398818888107"><ele>170.0</ele><time>2026-04-18T11:42:29.999Z</time></trkpt><trkpt lat="45.11180289573189" lon="8.213519980541188"><ele>169.6</ele><time>2026-04-18T11:42:30.999Z</time></trkpt><trkpt lat="45.11182765769097" lon="8.213653237730924"><ele>169.2</ele><time>2026-04-18T11:42:31.999Z</time></trkpt><trkpt lat="45.111856789483774" lon="8.213768272589729"><ele>168.8</ele><time>2026-04-18T11:42:32.999Z</time></trkpt><trkpt lat="45.111882512256905" lon="8.213885874658693"><ele>168.4</ele><time>2026-04-18T11:42:33.999Z</time></trkpt><trkpt lat="45.11192427197339" lon="8.214018248887081"><ele>168.0</ele><time>2026-04-18T11:42:34.999Z</time></trkpt><trkpt lat="45.11193499377645" lon="8.214162134968706"><ele>168.0</ele><time>2026-04-18T11:42:35.999Z</time></trkpt><trkpt lat="45.11197123059584" lon="8.214289321636194"><ele>168.0</ele><time>2026-04-18T11:42:36.999Z</time></trkpt><trkpt lat="45.11198416625233" lon="8.214420543654509"><ele>168.0</ele><time>2026-04-18T11:42:37.999Z</time></trkpt><trkpt lat="45.111987400018485" lon="8.214543139605619"><ele>168.0</ele><time>2026-04-18T11:42:38.999Z</time></trkpt><trkpt lat="45.11200870133224" lon="8.214666903824837"><ele>168.0</ele><time>2026-04-18T11:42:39.999Z</time></trkpt><trkpt lat="45.11204541645069" lon="8.214775747067652"><ele>168.60000000000002</ele><time>2026-04-18T11:42:40.999Z</time></trkpt><trkpt lat="45.11208475290908" lon="8.214892529380547"><ele>169.20000000000002</ele><time>2026-04-18T11:42:41.999Z</time></trkpt><trkpt lat="45.11212041444741" lon="8.215007990954971"><ele>169.8</ele><time>2026-04-18T11:42:42.999Z</time></trkpt><trkpt lat="45.11216089360859" lon="8.215132799906424"><ele>170.4</ele><time>2026-04-18T11:42:43.999Z</time></trkpt><trkpt lat="45.11220174098605" lon="8.215263997860404"><ele>171.0</ele><time>2026-04-18T11:42:44.999Z</time></trkpt><trkpt lat="45.11223741705152" lon="8.21539106256829"><ele>171.0</ele><time>2026-04-18T11:42:45.999Z</time></trkpt><trkpt lat="45.112275610124954" lon="8.2154976244331"><ele>171.0</ele><time>2026-04-18T11:42:46.999Z</time></trkpt><trkpt lat="45.11230692506453" lon="8.215593643699991"><ele>171.0</ele><time>2026-04-18T11:42:47.999Z</time></trkpt><trkpt lat="45.11234075557879" lon="8.215679369796177"><ele>171.0</ele><time>2026-04-18T11:42:48.999Z</time></trkpt><trkpt lat="45.11237358534779" lon="8.215773276929623"><ele>171.0</ele><time>2026-04-18T11:42:49.999Z</time></trkpt><trkpt lat="45.11241261456569" lon="8.215870580371893"><ele>171.0</ele><time>2026-04-18T11:42:50.999Z</time></trkpt><trkpt lat="45.11244368036374" lon="8.215969631046674"><ele>171.0</ele><time>2026-04-18T11:42:51.999Z</time></trkpt><trkpt lat="45.11248130387997" lon="8.216084441546965"><ele>171.0</ele><time>2026-04-18T11:42:52.999Z</time></trkpt><trkpt lat="45.11251714280193" lon="8.216188368574944"><ele>171.0</ele><time>2026-04-18T11:42:53.999Z</time></trkpt><trkpt lat="45.11254514340388" lon="8.216294955569154"><ele>171.0</ele><time>2026-04-18T11:42:54.999Z</time></trkpt><trkpt lat="45.11254665031047" lon="8.216406694397406"><ele>171.0</ele><time>2026-04-18T11:42:55.999Z</time></trkpt><trkpt lat="45.11255482362056" lon="8.216506494907009"><ele>171.0</ele><time>2026-04-18T11:42:56.999Z</time></trkpt><trkpt lat="45.11255968022096" lon="8.21660603243953"><ele>171.0</ele><time>2026-04-18T11:42:57.999Z</time></trkpt><trkpt lat="45.11257513268464" lon="8.216715292893616"><ele>171.0</ele><time>2026-04-18T11:42:58.999Z</time></trkpt><trkpt lat="45.112576141440854" lon="8.216832469618081"><ele>171.0</ele><time>2026-04-18T11:42:59.999Z</time></trkpt><trkpt lat="45.11258399728039" lon="8.21695782058972"><ele>171.0</ele><time>2026-04-18T11:43:00.999Z</time></trkpt><trkpt lat="45.11259886677104" lon="8.217083487271271"><ele>171.0</ele><time>2026-04-18T11:43:01.999Z</time></trkpt><trkpt lat="45.11261334620154" lon="8.217209411318407"><ele>171.0</ele><time>2026-04-18T11:43:02.999Z</time></trkpt><trkpt lat="45.11263314746022" lon="8.217344906017324"><ele>170.83333333333334</ele><time>2026-04-18T11:43:03.999Z</time></trkpt><trkpt lat="45.11265314958258" lon="8.217476293884971"><ele>170.66666666666666</ele><time>2026-04-18T11:43:04.999Z</time></trkpt><trkpt lat="45.11267293018835" lon="8.217603335886528"><ele>170.5</ele><time>2026-04-18T11:43:05.999Z</time></trkpt><trkpt lat="45.112692006536356" lon="8.21773284058404"><ele>170.33333333333331</ele><time>2026-04-18T11:43:06.999Z</time></trkpt><trkpt lat="45.11270952760257" lon="8.217842352818488"><ele>170.16666666666666</ele><time>2026-04-18T11:43:07.999Z</time></trkpt><trkpt lat="45.112724933657454" lon="8.21795656864157"><ele>170.0</ele><time>2026-04-18T11:43:08.999Z</time></trkpt><trkpt lat="45.112738694932624" lon="8.218066127361475"><ele>170.16666666666666</ele><time>2026-04-18T11:43:09.999Z</time></trkpt><trkpt lat="45.11275176502538" lon="8.21817805967516"><ele>170.33333333333331</ele><time>2026-04-18T11:43:10.999Z</time></trkpt><trkpt lat="45.11276395758293" lon="8.218290731893951"><ele>170.5</ele><time>2026-04-18T11:43:11.999Z</time></trkpt><trkpt lat="45.11278469721841" lon="8.21842136862091"><ele>170.66666666666666</ele><time>2026-04-18T11:43:12.999Z</time></trkpt><trkpt lat="45.11280728197662" lon="8.218533627139282"><ele>170.83333333333334</ele><time>2026-04-18T11:43:13.999Z</time></trkpt><trkpt lat="45.11281840201752" lon="8.218641551178647"><ele>171.0</ele><time>2026-04-18T11:43:14.999Z</time></trkpt><trkpt lat="45.11282383777355" lon="8.218764111611131"><ele>171.0</ele><time>2026-04-18T11:43:15.999Z</time></trkpt><trkpt lat="45.112824727458296" lon="8.218898537487721"><ele>171.0</ele><time>2026-04-18T11:43:16.999Z</time></trkpt><trkpt lat="45.112813557800315" lon="8.219032842095283"><ele>171.0</ele><time>2026-04-18T11:43:17.999Z</time></trkpt><trkpt lat="45.11280531615029" lon="8.219178308156247"><ele>171.0</ele><time>2026-04-18T11:43:19Z</time></trkpt><trkpt lat="45.11279834163699" lon="8.21932475752842"><ele>171.0</ele><time>2026-04-18T11:43:20Z</time></trkpt><trkpt lat="45.11280106882997" lon="8.219467588541313"><ele>170.8</ele><time>2026-04-18T11:43:21Z</time></trkpt><trkpt lat="45.11281400579085" lon="8.21961239067244"><ele>170.60000000000002</ele><time>2026-04-18T11:43:22Z</time></trkpt><trkpt lat="45.112824991124995" lon="8.219754045440895"><ele>170.4</ele><time>2026-04-18T11:43:23Z</time></trkpt><trkpt lat="45.11283304263959" lon="8.219893892030738"><ele>170.2</ele><time>2026-04-18T11:43:24Z</time></trkpt><trkpt lat="45.112844585291874" lon="8.220035687725906"><ele>170.0</ele><time>2026-04-18T11:43:25Z</time></trkpt><trkpt lat="45.112857227064055" lon="8.220165652101699"><ele>169.66666666666666</ele><time>2026-04-18T11:43:26Z</time></trkpt><trkpt lat="45.11286841979251" lon="8.220284864802673"><ele>169.33333333333331</ele><time>2026-04-18T11:43:26.999Z</time></trkpt><trkpt lat="45.11287360608337" lon="8.220408108023696"><ele>169.0</ele><time>2026-04-18T11:43:27.999Z</time></trkpt><trkpt lat="45.1128756998846" lon="8.220515801834686"><ele>168.66666666666666</ele><time>2026-04-18T11:43:28.999Z</time></trkpt><trkpt lat="45.11287210329667" lon="8.22060939349728"><ele>168.33333333333334</ele><time>2026-04-18T11:43:29.999Z</time></trkpt><trkpt lat="45.11287949685877" lon="8.220770433619343"><ele>168.0</ele><time>2026-04-18T11:43:31.999Z</time></trkpt><trkpt lat="45.112851257404486" lon="8.220872067309326"><ele>167.66666666666666</ele><time>2026-04-18T11:43:32.999Z</time></trkpt><trkpt lat="45.112822561255015" lon="8.220985407665498"><ele>167.33333333333334</ele><time>2026-04-18T11:43:33.999Z</time></trkpt><trkpt lat="45.11280324140654" lon="8.221092461888128"><ele>167.0</ele><time>2026-04-18T11:43:34.999Z</time></trkpt><trkpt lat="45.11278634265255" lon="8.221194882883527"><ele>166.66666666666669</ele><time>2026-04-18T11:43:35.999Z</time></trkpt><trkpt lat="45.11276050484037" lon="8.221362781842187"><ele>166.33333333333334</ele><time>2026-04-18T11:43:37.999Z</time></trkpt><trkpt lat="45.11272781017043" lon="8.221439492380584"><ele>166.0</ele><time>2026-04-18T11:43:38.999Z</time></trkpt><trkpt lat="45.11269440994753" lon="8.2215252328971"><ele>166.0</ele><time>2026-04-18T11:43:39.999Z</time></trkpt><trkpt lat="45.112673863641945" lon="8.221677362451807"><ele>166.0</ele><time>2026-04-18T11:43:41.999Z</time></trkpt><trkpt lat="45.112679805561726" lon="8.221770987554985"><ele>166.0</ele><time>2026-04-18T11:43:42.999Z</time></trkpt><trkpt lat="45.11269001513624" lon="8.221865444113924"><ele>166.0</ele><time>2026-04-18T11:43:43.999Z</time></trkpt><trkpt lat="45.11268759086967" lon="8.221971115693625"><ele>166.0</ele><time>2026-04-18T11:43:44.999Z</time></trkpt><trkpt lat="45.112671137911875" lon="8.222077174122793"><ele>166.0</ele><time>2026-04-18T11:43:45.999Z</time></trkpt><trkpt lat="45.11265876496404" lon="8.222184283530735"><ele>166.0</ele><time>2026-04-18T11:43:46.999Z</time></trkpt><trkpt lat="45.112649823772685" lon="8.22229213375975"><ele>166.0</ele><time>2026-04-18T11:43:47.999Z</time></trkpt><trkpt lat="45.11263046309384" lon="8.222443584692114"><ele>166.0</ele><time>2026-04-18T11:43:49.999Z</time></trkpt><trkpt lat="45.11260811760719" lon="8.222605335953695"><ele>166.0</ele><time>2026-04-18T11:43:51.999Z</time></trkpt><trkpt lat="45.11260355028836" lon="8.222701788081482"><ele>166.0</ele><time>2026-04-18T11:43:53.999Z</time></trkpt><trkpt lat="45.11257848936071" lon="8.222787977871823"><ele>166.0</ele><time>2026-04-18T11:43:56.999Z</time></trkpt><trkpt lat="45.11264475975541" lon="8.222852951114561"><ele>166.0</ele><time>2026-04-18T11:43:58.999Z</time></trkpt><trkpt lat="45.11276827510138" lon="8.2229046592578"><ele>166.0</ele><time>2026-04-18T11:44:00.999Z</time></trkpt><trkpt lat="45.112830189656165" lon="8.222956913778031"><ele>166.0</ele><time>2026-04-18T11:44:01.999Z</time></trkpt><trkpt lat="45.112894666477715" lon="8.22300218460978"><ele>166.0</ele><time>2026-04-18T11:44:02.999Z</time></trkpt><trkpt lat="45.11295413829796" lon="8.223039565904042"><ele>166.0</ele><time>2026-04-18T11:44:03.999Z</time></trkpt><trkpt lat="45.11306327256872" lon="8.22310095301176"><ele>166.0</ele><time>2026-04-18T11:44:05.999Z</time></trkpt><trkpt lat="45.113126385931" lon="8.223143689297656"><ele>166.0</ele><time>2026-04-18T11:44:06.999Z</time></trkpt><trkpt lat="45.113181889133166" lon="8.22318681223016"><ele>166.0</ele><time>2026-04-18T11:44:07.999Z</time></trkpt><trkpt lat="45.113245655563844" lon="8.22323509086234"><ele>166.0</ele><time>2026-04-18T11:44:08.999Z</time></trkpt><trkpt lat="45.11331633840313" lon="8.22327592069553"><ele>166.0</ele><time>2026-04-18T11:44:09.999Z</time></trkpt><trkpt lat="45.11338951049993" lon="8.223318821085062"><ele>166.0</ele><time>2026-04-18T11:44:10.999Z</time></trkpt><trkpt lat="45.11346686517781" lon="8.223363759178449"><ele>166.0</ele><time>2026-04-18T11:44:11.999Z</time></trkpt><trkpt lat="45.11354377906918" lon="8.223412036403229"><ele>165.8</ele><time>2026-04-18T11:44:12.999Z</time></trkpt><trkpt lat="45.11362358130889" lon="8.223460094573035"><ele>165.60000000000002</ele><time>2026-04-18T11:44:13.999Z</time></trkpt><trkpt lat="45.113706347041926" lon="8.223512323719325"><ele>165.4</ele><time>2026-04-18T11:44:14.999Z</time></trkpt><trkpt lat="45.113787100756966" lon="8.22357192605299"><ele>165.2</ele><time>2026-04-18T11:44:15.999Z</time></trkpt><trkpt lat="45.11386053813121" lon="8.223659409066425"><ele>165.0</ele><time>2026-04-18T11:44:16.999Z</time></trkpt><trkpt lat="45.11394549987658" lon="8.223705562237974"><ele>165.0</ele><time>2026-04-18T11:44:17.999Z</time></trkpt><trkpt lat="45.11402025084539" lon="8.223775496341753"><ele>165.0</ele><time>2026-04-18T11:44:18.999Z</time></trkpt><trkpt lat="45.11409033491837" lon="8.223841287061436"><ele>165.0</ele><time>2026-04-18T11:44:19.999Z</time></trkpt><trkpt lat="45.114161594614465" lon="8.223900985960787"><ele>165.0</ele><time>2026-04-18T11:44:20.999Z</time></trkpt><trkpt lat="45.11423259849845" lon="8.223960013419026"><ele>165.0</ele><time>2026-04-18T11:44:21.999Z</time></trkpt><trkpt lat="45.11430353040994" lon="8.224021595690076"><ele>165.0</ele><time>2026-04-18T11:44:22.999Z</time></trkpt><trkpt lat="45.11437509599395" lon="8.224067035297795"><ele>165.0</ele><time>2026-04-18T11:44:23.999Z</time></trkpt><trkpt lat="45.11444198928255" lon="8.224125509142723"><ele>165.0</ele><time>2026-04-18T11:44:24.999Z</time></trkpt><trkpt lat="45.11450372653448" lon="8.224191219041328"><ele>165.0</ele><time>2026-04-18T11:44:25.999Z</time></trkpt><trkpt lat="45.114567873300615" lon="8.22425675076732"><ele>165.0</ele><time>2026-04-18T11:44:26.999Z</time></trkpt><trkpt lat="45.11462043928412" lon="8.224315379667097"><ele>165.0</ele><time>2026-04-18T11:44:27.999Z</time></trkpt><trkpt lat="45.11469928323655" lon="8.224424357312412"><ele>165.0</ele><time>2026-04-18T11:44:29.999Z</time></trkpt><trkpt lat="45.11482767536547" lon="8.224334507231145"><ele>165.0</ele><time>2026-04-18T11:44:32.999Z</time></trkpt><trkpt lat="45.11492297975341" lon="8.224194046928444"><ele>165.0</ele><time>2026-04-18T11:44:34.999Z</time></trkpt><trkpt lat="45.1149650717496" lon="8.224097734066802"><ele>165.0</ele><time>2026-04-18T11:44:35.999Z</time></trkpt><trkpt lat="45.115026707519185" lon="8.224012251980854"><ele>165.0</ele><time>2026-04-18T11:44:36.999Z</time></trkpt><trkpt lat="45.11510402079308" lon="8.223952636450361"><ele>165.0</ele><time>2026-04-18T11:44:37.999Z</time></trkpt><trkpt lat="45.11517067600544" lon="8.223862634165265"><ele>165.0</ele><time>2026-04-18T11:44:38.999Z</time></trkpt><trkpt lat="45.11525464073716" lon="8.223804601783558"><ele>165.0</ele><time>2026-04-18T11:44:39.999Z</time></trkpt><trkpt lat="45.1153489529708" lon="8.223774367611306"><ele>165.0</ele><time>2026-04-18T11:44:40.999Z</time></trkpt><trkpt lat="45.1154331137117" lon="8.223730493899664"><ele>165.0</ele><time>2026-04-18T11:44:41.999Z</time></trkpt><trkpt lat="45.11552112907662" lon="8.223686179969542"><ele>165.0</ele><time>2026-04-18T11:44:42.999Z</time></trkpt><trkpt lat="45.11560869790483" lon="8.223643196471494"><ele>165.00000000000003</ele><time>2026-04-18T11:44:43.999Z</time></trkpt><trkpt lat="45.11568205551074" lon="8.223584823039012"><ele>165.0</ele><time>2026-04-18T11:44:44.999Z</time></trkpt><trkpt lat="45.11575462850581" lon="8.223552975410934"><ele>165.0</ele><time>2026-04-18T11:44:45.999Z</time></trkpt><trkpt lat="45.11582270571436" lon="8.22352180116679"><ele>165.0</ele><time>2026-04-18T11:44:46.999Z</time></trkpt><trkpt lat="45.11589353025548" lon="8.22348756482129"><ele>165.0</ele><time>2026-04-18T11:44:47.999Z</time></trkpt><trkpt lat="45.11595652467076" lon="8.223451864673349"><ele>165.00000000000003</ele><time>2026-04-18T11:44:48.999Z</time></trkpt><trkpt lat="45.11601886309603" lon="8.223420352325142"><ele>165.0</ele><time>2026-04-18T11:44:49.999Z</time></trkpt><trkpt lat="45.116126918829316" lon="8.223387409096903"><ele>165.2</ele><time>2026-04-18T11:44:51.999Z</time></trkpt><trkpt lat="45.11619675369068" lon="8.22337963384526"><ele>165.4</ele><time>2026-04-18T11:44:53.999Z</time></trkpt><trkpt lat="45.116233925149366" lon="8.223561337981867"><ele>165.60000000000002</ele><time>2026-04-18T11:44:55.999Z</time></trkpt><trkpt lat="45.116251082831155" lon="8.223692450572832"><ele>165.8</ele><time>2026-04-18T11:44:56.999Z</time></trkpt><trkpt lat="45.11627622096067" lon="8.223837047470095"><ele>166.0</ele><time>2026-04-18T11:44:57.999Z</time></trkpt><trkpt lat="45.11631477625616" lon="8.22396710568408"><ele>165.8</ele><time>2026-04-18T11:44:58.999Z</time></trkpt><trkpt lat="45.11633719886908" lon="8.224097998759822"><ele>165.60000000000002</ele><time>2026-04-18T11:44:59.999Z</time></trkpt><trkpt lat="45.116367943391325" lon="8.224232267504492"><ele>165.4</ele><time>2026-04-18T11:45:00.999Z</time></trkpt><trkpt lat="45.116396301237636" lon="8.224359163795244"><ele>165.2</ele><time>2026-04-18T11:45:01.999Z</time></trkpt><trkpt lat="45.11642841424567" lon="8.224506450312468"><ele>165.0</ele><time>2026-04-18T11:45:02.999Z</time></trkpt><trkpt lat="45.116460751128585" lon="8.22465984810735"><ele>165.0</ele><time>2026-04-18T11:45:03.999Z</time></trkpt><trkpt lat="45.11649453916505" lon="8.224814652880537"><ele>165.0</ele><time>2026-04-18T11:45:04.999Z</time></trkpt><trkpt lat="45.11652481312642" lon="8.22496586076067"><ele>165.0</ele><time>2026-04-18T11:45:05.999Z</time></trkpt><trkpt lat="45.11656590328911" lon="8.225120759848496"><ele>165.0</ele><time>2026-04-18T11:45:06.999Z</time></trkpt><trkpt lat="45.11659219985041" lon="8.225281386382255"><ele>164.75</ele><time>2026-04-18T11:45:07.999Z</time></trkpt><trkpt lat="45.11662184191613" lon="8.225441975631984"><ele>164.5</ele><time>2026-04-18T11:45:08.999Z</time></trkpt><trkpt lat="45.11663754059232" lon="8.225607113715437"><ele>164.25</ele><time>2026-04-18T11:45:09.999Z</time></trkpt><trkpt lat="45.11667668730053" lon="8.22574429371708"><ele>164.0</ele><time>2026-04-18T11:45:10.999Z</time></trkpt><trkpt lat="45.11670318573232" lon="8.22590337003522"><ele>164.79999999999998</ele><time>2026-04-18T11:45:11.999Z</time></trkpt><trkpt lat="45.1167287932887" lon="8.226061042869306"><ele>165.6</ele><time>2026-04-18T11:45:12.999Z</time></trkpt><trkpt lat="45.11675866389716" lon="8.226209440987004"><ele>166.4</ele><time>2026-04-18T11:45:13.999Z</time></trkpt><trkpt lat="45.116786237897514" lon="8.226356782507738"><ele>167.2</ele><time>2026-04-18T11:45:14.999Z</time></trkpt><trkpt lat="45.116817520918964" lon="8.226500915898036"><ele>168.0</ele><time>2026-04-18T11:45:15.999Z</time></trkpt><trkpt lat="45.11685076857198" lon="8.226643880687407"><ele>168.0</ele><time>2026-04-18T11:45:16.999Z</time></trkpt><trkpt lat="45.116888920881316" lon="8.226784784598998"><ele>168.0</ele><time>2026-04-18T11:45:17.999Z</time></trkpt><trkpt lat="45.11693234683916" lon="8.226928671937028"><ele>168.0</ele><time>2026-04-18T11:45:18.999Z</time></trkpt><trkpt lat="45.116973680190405" lon="8.22706067948556"><ele>168.0</ele><time>2026-04-18T11:45:19.999Z</time></trkpt><trkpt lat="45.11701242714973" lon="8.227193326522263"><ele>168.0</ele><time>2026-04-18T11:45:20.999Z</time></trkpt><trkpt lat="45.11705289429573" lon="8.227334489575467"><ele>167.2</ele><time>2026-04-18T11:45:21.999Z</time></trkpt><trkpt lat="45.11709711452435" lon="8.227471036063347"><ele>166.4</ele><time>2026-04-18T11:45:22.999Z</time></trkpt><trkpt lat="45.11713784344352" lon="8.22759639617132"><ele>165.6</ele><time>2026-04-18T11:45:23.999Z</time></trkpt><trkpt lat="45.117157934753585" lon="8.227712070527877"><ele>164.79999999999998</ele><time>2026-04-18T11:45:24.999Z</time></trkpt><trkpt lat="45.11719089857807" lon="8.227826956964245"><ele>164.0</ele><time>2026-04-18T11:45:25.999Z</time></trkpt><trkpt lat="45.11721708092437" lon="8.227938427699703"><ele>164.0</ele><time>2026-04-18T11:45:26.999Z</time></trkpt><trkpt lat="45.11723394449952" lon="8.2280585516847"><ele>164.0</ele><time>2026-04-18T11:45:27.999Z</time></trkpt><trkpt lat="45.11724646068837" lon="8.228173977491878"><ele>164.0</ele><time>2026-04-18T11:45:28.999Z</time></trkpt><trkpt lat="45.117270378231574" lon="8.228298975355559"><ele>164.0</ele><time>2026-04-18T11:45:29.999Z</time></trkpt><trkpt lat="45.11728272067186" lon="8.228425526678167"><ele>164.0</ele><time>2026-04-18T11:45:30.999Z</time></trkpt><trkpt lat="45.11729360039372" lon="8.228559979490068"><ele>164.0</ele><time>2026-04-18T11:45:31.999Z</time></trkpt><trkpt lat="45.11730346258355" lon="8.228683707429274"><ele>163.6</ele><time>2026-04-18T11:45:32.999Z</time></trkpt><trkpt lat="45.11732579183156" lon="8.228806200143454"><ele>163.2</ele><time>2026-04-18T11:45:33.999Z</time></trkpt><trkpt lat="45.117345472976304" lon="8.228929968529814"><ele>162.79999999999998</ele><time>2026-04-18T11:45:34.999Z</time></trkpt><trkpt lat="45.11735090444375" lon="8.229054025158943"><ele>162.39999999999998</ele><time>2026-04-18T11:45:35.999Z</time></trkpt><trkpt lat="45.11734552883217" lon="8.229153601223551"><ele>162.0</ele><time>2026-04-18T11:45:36.999Z</time></trkpt><trkpt lat="45.11737842246913" lon="8.229328113317033"><ele>162.0</ele><time>2026-04-18T11:45:38.999Z</time></trkpt><trkpt lat="45.11742300482772" lon="8.229446167645479"><ele>162.0</ele><time>2026-04-18T11:45:39.999Z</time></trkpt><trkpt lat="45.1174546181402" lon="8.2295556639271"><ele>162.0</ele><time>2026-04-18T11:45:40.999Z</time></trkpt><trkpt lat="45.117483715230165" lon="8.229667168969074"><ele>162.0</ele><time>2026-04-18T11:45:41.999Z</time></trkpt><trkpt lat="45.11750656050154" lon="8.229767131619091"><ele>162.0</ele><time>2026-04-18T11:45:42.999Z</time></trkpt><trkpt lat="45.11752747793094" lon="8.229877373305035"><ele>162.0</ele><time>2026-04-18T11:45:43.999Z</time></trkpt><trkpt lat="45.11755900577134" lon="8.230005074235304"><ele>162.16666666666666</ele><time>2026-04-18T11:45:44.999Z</time></trkpt><trkpt lat="45.117592906769794" lon="8.230108693879673"><ele>162.33333333333334</ele><time>2026-04-18T11:45:45.999Z</time></trkpt><trkpt lat="45.11761774519511" lon="8.230230268050414"><ele>162.5</ele><time>2026-04-18T11:45:46.999Z</time></trkpt><trkpt lat="45.11763924671652" lon="8.230365378135"><ele>162.66666666666669</ele><time>2026-04-18T11:45:47.999Z</time></trkpt><trkpt lat="45.11766266817906" lon="8.230483287696645"><ele>162.83333333333334</ele><time>2026-04-18T11:45:48.999Z</time></trkpt><trkpt lat="45.117700554671096" lon="8.23060440411602"><ele>163.0</ele><time>2026-04-18T11:45:49.999Z</time></trkpt><trkpt lat="45.11773449539402" lon="8.230716811433227"><ele>163.0</ele><time>2026-04-18T11:45:50.999Z</time></trkpt><trkpt lat="45.11777712038171" lon="8.230844941463852"><ele>163.0</ele><time>2026-04-18T11:45:51.999Z</time></trkpt><trkpt lat="45.11780415072336" lon="8.230957595232239"><ele>163.0</ele><time>2026-04-18T11:45:52.999Z</time></trkpt><trkpt lat="45.1178147382863" lon="8.231071343871804"><ele>163.0</ele><time>2026-04-18T11:45:53.999Z</time></trkpt><trkpt lat="45.117814615409316" lon="8.231221960268067"><ele>163.0</ele><time>2026-04-18T11:45:55.999Z</time></trkpt><trkpt lat="45.11784077278663" lon="8.231370867778024"><ele>162.83333333333334</ele><time>2026-04-18T11:45:57.999Z</time></trkpt><trkpt lat="45.11790599226575" lon="8.231506188903133"><ele>162.66666666666669</ele><time>2026-04-18T11:45:59.999Z</time></trkpt><trkpt lat="45.117924219907465" lon="8.23159992723029"><ele>162.5</ele><time>2026-04-18T11:46:00.999Z</time></trkpt><trkpt lat="45.11793388189857" lon="8.231693261766036"><ele>162.33333333333334</ele><time>2026-04-18T11:46:01.999Z</time></trkpt><trkpt lat="45.11795786052731" lon="8.231806104993625"><ele>162.16666666666666</ele><time>2026-04-18T11:46:02.999Z</time></trkpt><trkpt lat="45.11797816036818" lon="8.23192888702646"><ele>162.0</ele><time>2026-04-18T11:46:03.999Z</time></trkpt><trkpt lat="45.11800241130319" lon="8.232055662131742"><ele>162.0</ele><time>2026-04-18T11:46:04.999Z</time></trkpt><trkpt lat="45.11801704684478" lon="8.232175720639306"><ele>162.0</ele><time>2026-04-18T11:46:05.999Z</time></trkpt><trkpt lat="45.11803240722201" lon="8.23228781203954"><ele>162.0</ele><time>2026-04-18T11:46:06.999Z</time></trkpt><trkpt lat="45.11807798530851" lon="8.232423685510323"><ele>162.0</ele><time>2026-04-18T11:46:08.999Z</time></trkpt><trkpt lat="45.11810965308546" lon="8.232587664219988"><ele>162.0</ele><time>2026-04-18T11:46:10.999Z</time></trkpt><trkpt lat="45.11812696035696" lon="8.232678439227296"><ele>162.0</ele><time>2026-04-18T11:46:11.999Z</time></trkpt><trkpt lat="45.11814605735501" lon="8.232768447864082"><ele>162.0</ele><time>2026-04-18T11:46:12.999Z</time></trkpt><trkpt lat="45.11816620539328" lon="8.232864604498435"><ele>162.0</ele><time>2026-04-18T11:46:13.999Z</time></trkpt><trkpt lat="45.11819763236334" lon="8.232964229589845"><ele>162.0</ele><time>2026-04-18T11:46:14.999Z</time></trkpt><trkpt lat="45.11823342565275" lon="8.23304168518813"><ele>162.0</ele><time>2026-04-18T11:46:15.999Z</time></trkpt><trkpt lat="45.11827290244353" lon="8.233114773018409"><ele>162.0</ele><time>2026-04-18T11:46:16.999Z</time></trkpt><trkpt lat="45.11831484776022" lon="8.233190950842703"><ele>162.0</ele><time>2026-04-18T11:46:17.999Z</time></trkpt><trkpt lat="45.11837128360401" lon="8.233357437665717"><ele>161.83333333333334</ele><time>2026-04-18T11:46:19.999Z</time></trkpt><trkpt lat="45.118405762912275" lon="8.233450012953174"><ele>161.66666666666666</ele><time>2026-04-18T11:46:20.999Z</time></trkpt><trkpt lat="45.11845216061511" lon="8.23352484999425"><ele>161.5</ele><time>2026-04-18T11:46:21.999Z</time></trkpt><trkpt lat="45.11849910056901" lon="8.233585752075825"><ele>161.33333333333331</ele><time>2026-04-18T11:46:22.999Z</time></trkpt><trkpt lat="45.11854537196298" lon="8.233658539287129"><ele>161.16666666666666</ele><time>2026-04-18T11:46:23.999Z</time></trkpt><trkpt lat="45.11856047961609" lon="8.23386220599962"><ele>161.0</ele><time>2026-04-18T11:46:25.999Z</time></trkpt><trkpt lat="45.118562080114074" lon="8.233987438030775"><ele>160.83333333333331</ele><time>2026-04-18T11:46:26.999Z</time></trkpt><trkpt lat="45.11857283998822" lon="8.234101375793587"><ele>160.66666666666666</ele><time>2026-04-18T11:46:27.999Z</time></trkpt><trkpt lat="45.11858583547525" lon="8.234228124783511"><ele>160.5</ele><time>2026-04-18T11:46:28.999Z</time></trkpt><trkpt lat="45.11859209244744" lon="8.234360821607044"><ele>160.33333333333334</ele><time>2026-04-18T11:46:29.999Z</time></trkpt><trkpt lat="45.11858272985434" lon="8.234475696647953"><ele>160.16666666666669</ele><time>2026-04-18T11:46:30.999Z</time></trkpt><trkpt lat="45.118569418003204" lon="8.234608769887709"><ele>160.0</ele><time>2026-04-18T11:46:31.999Z</time></trkpt><trkpt lat="45.118560263283975" lon="8.234735385652364"><ele>160.5</ele><time>2026-04-18T11:46:32.999Z</time></trkpt><trkpt lat="45.1185532782195" lon="8.234855038715066"><ele>161.0</ele><time>2026-04-18T11:46:33.999Z</time></trkpt><trkpt lat="45.11854487002948" lon="8.23497786991802"><ele>161.5</ele><time>2026-04-18T11:46:34.999Z</time></trkpt><trkpt lat="45.11854579051388" lon="8.235091563856619"><ele>162.0</ele><time>2026-04-18T11:46:35.999Z</time></trkpt><trkpt lat="45.11855708828547" lon="8.235217732921445"><ele>162.5</ele><time>2026-04-18T11:46:36.999Z</time></trkpt><trkpt lat="45.11855763267895" lon="8.235349689456914"><ele>163.0</ele><time>2026-04-18T11:46:37.999Z</time></trkpt><trkpt lat="45.118567380230424" lon="8.235470751389595"><ele>163.0</ele><time>2026-04-18T11:46:38.999Z</time></trkpt><trkpt lat="45.11857254555343" lon="8.235591641811164"><ele>163.0</ele><time>2026-04-18T11:46:39.999Z</time></trkpt><trkpt lat="45.11857530602339" lon="8.235720442659575"><ele>163.0</ele><time>2026-04-18T11:46:40.999Z</time></trkpt><trkpt lat="45.1185745384349" lon="8.235850732575308"><ele>163.0</ele><time>2026-04-18T11:46:41.999Z</time></trkpt><trkpt lat="45.11857606414474" lon="8.23596710994321"><ele>163.0</ele><time>2026-04-18T11:46:42.999Z</time></trkpt><trkpt lat="45.11857925286764" lon="8.236056314428012"><ele>163.0</ele><time>2026-04-18T11:46:43.999Z</time></trkpt><trkpt lat="45.118590117158064" lon="8.236182662049833"><ele>162.8</ele><time>2026-04-18T11:46:45.999Z</time></trkpt><trkpt lat="45.118595687028716" lon="8.236343883807688"><ele>162.60000000000002</ele><time>2026-04-18T11:46:47.999Z</time></trkpt><trkpt lat="45.11861125408315" lon="8.23649258782759"><ele>162.39999999999998</ele><time>2026-04-18T11:46:49.999Z</time></trkpt><trkpt lat="45.11860969789068" lon="8.236626054359533"><ele>162.2</ele><time>2026-04-18T11:46:51.999Z</time></trkpt><trkpt lat="45.118610079019675" lon="8.236748088855249"><ele>162.0</ele><time>2026-04-18T11:46:55.999Z</time></trkpt><trkpt lat="45.11859431182574" lon="8.236855129245228"><ele>162.0</ele><time>2026-04-18T11:46:57.999Z</time></trkpt><trkpt lat="45.11859551132657" lon="8.236987424123619"><ele>162.0</ele><time>2026-04-18T11:46:59.999Z</time></trkpt><trkpt lat="45.11859083154132" lon="8.237176613913345"><ele>162.0</ele><time>2026-04-18T11:47:01.999Z</time></trkpt><trkpt lat="45.11859308710496" lon="8.237288543497565"><ele>162.0</ele><time>2026-04-18T11:47:02.999Z</time></trkpt><trkpt lat="45.118593243545526" lon="8.237403048544431"><ele>162.0</ele><time>2026-04-18T11:47:03.999Z</time></trkpt><trkpt lat="45.11859080902241" lon="8.237522670394485"><ele>162.0</ele><time>2026-04-18T11:47:04.999Z</time></trkpt><trkpt lat="45.11858932440357" lon="8.23765223884433"><ele>162.0</ele><time>2026-04-18T11:47:05.999Z</time></trkpt><trkpt lat="45.11858685579043" lon="8.237773008072956"><ele>162.0</ele><time>2026-04-18T11:47:06.999Z</time></trkpt><trkpt lat="45.11857937114557" lon="8.2378977494186"><ele>162.0</ele><time>2026-04-18T11:47:07.999Z</time></trkpt><trkpt lat="45.11857312471711" lon="8.238000444740289"><ele>162.0</ele><time>2026-04-18T11:47:08.999Z</time></trkpt><trkpt lat="45.11856605027257" lon="8.238105356294222"><ele>162.0</ele><time>2026-04-18T11:47:09.999Z</time></trkpt><trkpt lat="45.11855492364099" lon="8.238256136276242"><ele>162.6</ele><time>2026-04-18T11:47:11.999Z</time></trkpt><trkpt lat="45.11855076305128" lon="8.238399773483346"><ele>163.2</ele><time>2026-04-18T11:47:13.999Z</time></trkpt><trkpt lat="45.11853756994987" lon="8.2385648046098"><ele>163.8</ele><time>2026-04-18T11:47:15.999Z</time></trkpt><trkpt lat="45.118532419344945" lon="8.238738108234688"><ele>164.4</ele><time>2026-04-18T11:47:17.999Z</time></trkpt><trkpt lat="45.118529160383254" lon="8.238833937272563"><ele>165.0</ele><time>2026-04-18T11:47:18.999Z</time></trkpt><trkpt lat="45.11852701807422" lon="8.238938631880641"><ele>164.6</ele><time>2026-04-18T11:47:19.999Z</time></trkpt><trkpt lat="45.11851914932034" lon="8.239035781642825"><ele>164.2</ele><time>2026-04-18T11:47:20.999Z</time></trkpt><trkpt lat="45.11851023273742" lon="8.23922252527483"><ele>163.8</ele><time>2026-04-18T11:47:22.999Z</time></trkpt><trkpt lat="45.11850571940306" lon="8.23932892275878"><ele>163.4</ele><time>2026-04-18T11:47:23.999Z</time></trkpt><trkpt lat="45.11849565220748" lon="8.239479458968033"><ele>163.0</ele><time>2026-04-18T11:47:25.999Z</time></trkpt><trkpt lat="45.11849165818794" lon="8.239618408307068"><ele>163.0</ele><time>2026-04-18T11:47:27.999Z</time></trkpt><trkpt lat="45.11847350794672" lon="8.23979614059203"><ele>163.0</ele><time>2026-04-18T11:47:29.999Z</time></trkpt><trkpt lat="45.11846169857024" lon="8.23994886116399"><ele>163.0</ele><time>2026-04-18T11:47:31.999Z</time></trkpt><trkpt lat="45.11844967954658" lon="8.240044828894833"><ele>163.0</ele><time>2026-04-18T11:47:32.999Z</time></trkpt><trkpt lat="45.118432778800425" lon="8.240132742817645"><ele>163.0</ele><time>2026-04-18T11:47:34Z</time></trkpt><trkpt lat="45.11843622469169" lon="8.240236706643678"><ele>163.0</ele><time>2026-04-18T11:47:35Z</time></trkpt><trkpt lat="45.11845664632591" lon="8.240349104214824"><ele>162.66666666666669</ele><time>2026-04-18T11:47:36Z</time></trkpt><trkpt lat="45.11846866482152" lon="8.240456071209008"><ele>162.33333333333334</ele><time>2026-04-18T11:47:37Z</time></trkpt><trkpt lat="45.11846089955206" lon="8.240566654400991"><ele>162.0</ele><time>2026-04-18T11:47:38Z</time></trkpt><trkpt lat="45.118473858743045" lon="8.240664916951935"><ele>161.66666666666666</ele><time>2026-04-18T11:47:39Z</time></trkpt><trkpt lat="45.11848563478208" lon="8.240801976724962"><ele>161.33333333333331</ele><time>2026-04-18T11:47:41Z</time></trkpt><trkpt lat="45.11847086281611" lon="8.240938548083433"><ele>161.0</ele><time>2026-04-18T11:47:43Z</time></trkpt><trkpt lat="45.11843526329435" lon="8.241062329236632"><ele>161.0</ele><time>2026-04-18T11:47:44Z</time></trkpt><trkpt lat="45.118439553857804" lon="8.24119120025257"><ele>161.0</ele><time>2026-04-18T11:47:45Z</time></trkpt><trkpt lat="45.11842853812767" lon="8.241319428190605"><ele>161.0</ele><time>2026-04-18T11:47:46Z</time></trkpt><trkpt lat="45.118415692112286" lon="8.241457761435846"><ele>161.0</ele><time>2026-04-18T11:47:47Z</time></trkpt><trkpt lat="45.11840233011122" lon="8.241601203139414"><ele>161.0</ele><time>2026-04-18T11:47:48Z</time></trkpt><trkpt lat="45.118388369137264" lon="8.241740944353223"><ele>160.83333333333331</ele><time>2026-04-18T11:47:49Z</time></trkpt><trkpt lat="45.11837216061843" lon="8.24187550096775"><ele>160.66666666666666</ele><time>2026-04-18T11:47:50Z</time></trkpt><trkpt lat="45.11835535527089" lon="8.241997497859991"><ele>160.5</ele><time>2026-04-18T11:47:51Z</time></trkpt><trkpt lat="45.11833844591825" lon="8.242114331997744"><ele>160.33333333333334</ele><time>2026-04-18T11:47:52Z</time></trkpt><trkpt lat="45.11832271691106" lon="8.242223010555685"><ele>160.16666666666669</ele><time>2026-04-18T11:47:53Z</time></trkpt><trkpt lat="45.118309395230504" lon="8.242324089189516"><ele>160.0</ele><time>2026-04-18T11:47:54Z</time></trkpt><trkpt lat="45.11829639580699" lon="8.242435131595828"><ele>159.83333333333334</ele><time>2026-04-18T11:47:54.999Z</time></trkpt><trkpt lat="45.11830169550778" lon="8.242545985315383"><ele>159.66666666666669</ele><time>2026-04-18T11:47:55.999Z</time></trkpt><trkpt lat="45.118302315996985" lon="8.242661896276628"><ele>159.5</ele><time>2026-04-18T11:47:56.999Z</time></trkpt><trkpt lat="45.1183134580979" lon="8.242778715733989"><ele>159.33333333333334</ele><time>2026-04-18T11:47:57.999Z</time></trkpt><trkpt lat="45.11832710709327" lon="8.242896913501099"><ele>159.16666666666666</ele><time>2026-04-18T11:47:58.999Z</time></trkpt><trkpt lat="45.118332963084015" lon="8.24302184333915"><ele>159.0</ele><time>2026-04-18T11:47:59.999Z</time></trkpt><trkpt lat="45.11835214690462" lon="8.243145222041477"><ele>159.0</ele><time>2026-04-18T11:48:00.999Z</time></trkpt><trkpt lat="45.118373443587444" lon="8.243258695484077"><ele>159.0</ele><time>2026-04-18T11:48:01.999Z</time></trkpt><trkpt lat="45.11840264490403" lon="8.243364833888828"><ele>159.0</ele><time>2026-04-18T11:48:02.999Z</time></trkpt><trkpt lat="45.118422026849565" lon="8.243468005060972"><ele>159.0</ele><time>2026-04-18T11:48:03.999Z</time></trkpt><trkpt lat="45.118435884682455" lon="8.243565289622168"><ele>159.0</ele><time>2026-04-18T11:48:04.999Z</time></trkpt><trkpt lat="45.118449145608196" lon="8.243654190366993"><ele>159.0</ele><time>2026-04-18T11:48:05.999Z</time></trkpt><trkpt lat="45.11851842429148" lon="8.24381675350295"><ele>159.0</ele><time>2026-04-18T11:48:07.999Z</time></trkpt><trkpt lat="45.118571989241886" lon="8.243893122877935"><ele>159.0</ele><time>2026-04-18T11:48:08.999Z</time></trkpt><trkpt lat="45.11862875048141" lon="8.24397738634873"><ele>159.0</ele><time>2026-04-18T11:48:09.999Z</time></trkpt><trkpt lat="45.11867914251502" lon="8.244053860092137"><ele>159.0</ele><time>2026-04-18T11:48:10.999Z</time></trkpt><trkpt lat="45.11872424015776" lon="8.24411943039218"><ele>159.0</ele><time>2026-04-18T11:48:11.999Z</time></trkpt><trkpt lat="45.118816094261085" lon="8.244203818835581"><ele>159.0</ele><time>2026-04-18T11:48:13.999Z</time></trkpt><trkpt lat="45.11887883795714" lon="8.244229131256079"><ele>158.83333333333334</ele><time>2026-04-18T11:48:15.999Z</time></trkpt><trkpt lat="45.11896670374792" lon="8.244245447177569"><ele>158.66666666666666</ele><time>2026-04-18T11:48:19.999Z</time></trkpt><trkpt lat="45.11897851236138" lon="8.244385731361744"><ele>158.5</ele><time>2026-04-18T11:48:21.999Z</time></trkpt><trkpt lat="45.11896653756395" lon="8.244477226085152"><ele>158.33333333333331</ele><time>2026-04-18T11:48:22.999Z</time></trkpt><trkpt lat="45.11896778418411" lon="8.244577207273407"><ele>158.16666666666666</ele><time>2026-04-18T11:48:23.999Z</time></trkpt><trkpt lat="45.118971974373814" lon="8.244683038685881"><ele>158.0</ele><time>2026-04-18T11:48:24.999Z</time></trkpt><trkpt lat="45.11897376354527" lon="8.244794536790671"><ele>158.16666666666666</ele><time>2026-04-18T11:48:25.999Z</time></trkpt><trkpt lat="45.118975913793165" lon="8.244910433645073"><ele>158.33333333333331</ele><time>2026-04-18T11:48:26.999Z</time></trkpt><trkpt lat="45.11897820954877" lon="8.245030006269428"><ele>158.5</ele><time>2026-04-18T11:48:27.999Z</time></trkpt><trkpt lat="45.1189761574134" lon="8.24514312697573"><ele>158.66666666666666</ele><time>2026-04-18T11:48:28.999Z</time></trkpt><trkpt lat="45.11897552541882" lon="8.245253813223563"><ele>158.83333333333334</ele><time>2026-04-18T11:48:29.999Z</time></trkpt><trkpt lat="45.11897640840766" lon="8.245372739983955"><ele>159.0</ele><time>2026-04-18T11:48:30.999Z</time></trkpt><trkpt lat="45.1189785165433" lon="8.245497372628549"><ele>159.0</ele><time>2026-04-18T11:48:31.999Z</time></trkpt><trkpt lat="45.11897961894004" lon="8.245621617628263"><ele>159.0</ele><time>2026-04-18T11:48:32.999Z</time></trkpt><trkpt lat="45.118979601726515" lon="8.245755884957775"><ele>159.0</ele><time>2026-04-18T11:48:33.999Z</time></trkpt><trkpt lat="45.118980317262505" lon="8.245889980228103"><ele>159.0</ele><time>2026-04-18T11:48:34.999Z</time></trkpt><trkpt lat="45.118978185930594" lon="8.246024988868632"><ele>159.0</ele><time>2026-04-18T11:48:35.999Z</time></trkpt><trkpt lat="45.11897838341149" lon="8.246150089269165"><ele>159.0</ele><time>2026-04-18T11:48:36.999Z</time></trkpt><trkpt lat="45.11897804596349" lon="8.246271608126094"><ele>159.0</ele><time>2026-04-18T11:48:37.999Z</time></trkpt><trkpt lat="45.11897789931598" lon="8.246377006960016"><ele>159.0</ele><time>2026-04-18T11:48:38.999Z</time></trkpt><trkpt lat="45.11901326030087" lon="8.246541944564983"><ele>159.0</ele><time>2026-04-18T11:48:40.999Z</time></trkpt><trkpt lat="45.11918531581644" lon="8.246585566966889"><ele>159.0</ele><time>2026-04-18T11:48:43.999Z</time></trkpt><trkpt lat="45.11925784076212" lon="8.24657638625115"><ele>159.0</ele><time>2026-04-18T11:48:44.999Z</time></trkpt><trkpt lat="45.11932327282977" lon="8.246565709954757"><ele>159.0</ele><time>2026-04-18T11:48:45.999Z</time></trkpt><trkpt lat="45.119405061527054" lon="8.24655608307556"><ele>159.0</ele><time>2026-04-18T11:48:46.999Z</time></trkpt><trkpt lat="45.11950473109992" lon="8.246542512271096"><ele>159.0</ele><time>2026-04-18T11:48:47.999Z</time></trkpt><trkpt lat="45.11959518756612" lon="8.246519739044006"><ele>159.0</ele><time>2026-04-18T11:48:48.999Z</time></trkpt><trkpt lat="45.11969271174755" lon="8.24649699161689"><ele>159.0</ele><time>2026-04-18T11:48:49.999Z</time></trkpt><trkpt lat="45.119799208990635" lon="8.246497942024712"><ele>159.0</ele><time>2026-04-18T11:48:50.999Z</time></trkpt><trkpt lat="45.11990447748439" lon="8.246476462279382"><ele>159.0</ele><time>2026-04-18T11:48:51.999Z</time></trkpt><trkpt lat="45.120004600124496" lon="8.246432717107679"><ele>159.0</ele><time>2026-04-18T11:48:52.999Z</time></trkpt><trkpt lat="45.120112696568675" lon="8.246416216523595"><ele>159.0</ele><time>2026-04-18T11:48:53.999Z</time></trkpt><trkpt lat="45.120227257678415" lon="8.246404580627404"><ele>159.0</ele><time>2026-04-18T11:48:54.999Z</time></trkpt><trkpt lat="45.120337601787924" lon="8.246375421352246"><ele>159.0</ele><time>2026-04-18T11:48:55.999Z</time></trkpt><trkpt lat="45.12045300874154" lon="8.246346087916807"><ele>159.0</ele><time>2026-04-18T11:48:56.999Z</time></trkpt><trkpt lat="45.12054818417768" lon="8.246321896800987"><ele>159.0</ele><time>2026-04-18T11:48:57.999Z</time></trkpt><trkpt lat="45.120643871716894" lon="8.246276363724242"><ele>159.0</ele><time>2026-04-18T11:48:58.999Z</time></trkpt><trkpt lat="45.120742669434556" lon="8.246251658994941"><ele>159.0</ele><time>2026-04-18T11:48:59.999Z</time></trkpt><trkpt lat="45.120859270799066" lon="8.246227601044993"><ele>159.0</ele><time>2026-04-18T11:49:00.999Z</time></trkpt><trkpt lat="45.120965206503435" lon="8.246207420320207"><ele>159.0</ele><time>2026-04-18T11:49:01.999Z</time></trkpt><trkpt lat="45.12107659838966" lon="8.246197493306225"><ele>159.0</ele><time>2026-04-18T11:49:02.999Z</time></trkpt><trkpt lat="45.12118301437288" lon="8.246183937571754"><ele>159.0</ele><time>2026-04-18T11:49:03.999Z</time></trkpt><trkpt lat="45.12128242722538" lon="8.24617198422902"><ele>159.0</ele><time>2026-04-18T11:49:04.999Z</time></trkpt><trkpt lat="45.12138634300544" lon="8.246155661241499"><ele>159.0</ele><time>2026-04-18T11:49:05.999Z</time></trkpt><trkpt lat="45.12149294013061" lon="8.24613503789944"><ele>159.0</ele><time>2026-04-18T11:49:06.999Z</time></trkpt><trkpt lat="45.12159455582269" lon="8.246106016024402"><ele>159.0</ele><time>2026-04-18T11:49:07.999Z</time></trkpt><trkpt lat="45.121695372094365" lon="8.246063907225029"><ele>159.0</ele><time>2026-04-18T11:49:08.999Z</time></trkpt><trkpt lat="45.12179401656693" lon="8.246038257648422"><ele>160.0</ele><time>2026-04-18T11:49:09.999Z</time></trkpt><trkpt lat="45.12189045054274" lon="8.246020358854643"><ele>161.0</ele><time>2026-04-18T11:49:10.999Z</time></trkpt><trkpt lat="45.12199133970205" lon="8.246013162190454"><ele>162.0</ele><time>2026-04-18T11:49:11.999Z</time></trkpt><trkpt lat="45.12209326061931" lon="8.246012911926016"><ele>163.0</ele><time>2026-04-18T11:49:12.999Z</time></trkpt><trkpt lat="45.12219449248078" lon="8.246015704431203"><ele>164.0</ele><time>2026-04-18T11:49:13.999Z</time></trkpt><trkpt lat="45.122296305130625" lon="8.24603330568086"><ele>164.0</ele><time>2026-04-18T11:49:14.999Z</time></trkpt><trkpt lat="45.12239588011294" lon="8.24605315290718"><ele>164.0</ele><time>2026-04-18T11:49:15.999Z</time></trkpt><trkpt lat="45.12249552802868" lon="8.246062066017437"><ele>164.0</ele><time>2026-04-18T11:49:16.999Z</time></trkpt><trkpt lat="45.12257858410134" lon="8.246070021660353"><ele>164.0</ele><time>2026-04-18T11:49:17.999Z</time></trkpt><trkpt lat="45.122681696763635" lon="8.246069856252394"><ele>164.0</ele><time>2026-04-18T11:49:19.999Z</time></trkpt><trkpt lat="45.12276054374039" lon="8.246066298465127"><ele>164.2</ele><time>2026-04-18T11:49:23Z</time></trkpt><trkpt lat="45.12283700212861" lon="8.246054632234827"><ele>164.39999999999998</ele><time>2026-04-18T11:49:25Z</time></trkpt><trkpt lat="45.1229179995833" lon="8.246040855225147"><ele>164.6</ele><time>2026-04-18T11:49:27Z</time></trkpt><trkpt lat="45.12303355346224" lon="8.246047186259283"><ele>164.8</ele><time>2026-04-18T11:49:29Z</time></trkpt><trkpt lat="45.12316502394418" lon="8.246030652921203"><ele>165.0</ele><time>2026-04-18T11:49:31Z</time></trkpt><trkpt lat="45.123232241249546" lon="8.246028531004296"><ele>165.0</ele><time>2026-04-18T11:49:32Z</time></trkpt><trkpt lat="45.12330393757762" lon="8.246023644255668"><ele>165.0</ele><time>2026-04-18T11:49:33Z</time></trkpt><trkpt lat="45.12341145073174" lon="8.246016949326775"><ele>165.0</ele><time>2026-04-18T11:49:35Z</time></trkpt><trkpt lat="45.12347555305155" lon="8.245985015618817"><ele>165.0</ele><time>2026-04-18T11:49:39Z</time></trkpt><trkpt lat="45.12354963883924" lon="8.246015535883476"><ele>165.0</ele><time>2026-04-18T11:49:44Z</time></trkpt><trkpt lat="45.12361484413871" lon="8.245972626037801"><ele>165.0</ele><time>2026-04-18T11:49:46Z</time></trkpt><trkpt lat="45.12370337502199" lon="8.245952301143886"><ele>165.0</ele><time>2026-04-18T11:49:48Z</time></trkpt><trkpt lat="45.12377301348533" lon="8.245954533472231"><ele>165.0</ele><time>2026-04-18T11:49:50Z</time></trkpt><trkpt lat="45.12387127818761" lon="8.245965854197516"><ele>165.0</ele><time>2026-04-18T11:49:52Z</time></trkpt><trkpt lat="45.124000869330764" lon="8.245961753009732"><ele>165.0</ele><time>2026-04-18T11:49:54Z</time></trkpt><trkpt lat="45.12406590700964" lon="8.245963153260943"><ele>165.0</ele><time>2026-04-18T11:49:55Z</time></trkpt><trkpt lat="45.12417934957928" lon="8.245979088774172"><ele>165.66666666666666</ele><time>2026-04-18T11:49:57Z</time></trkpt><trkpt lat="45.12428618743601" lon="8.246023911482776"><ele>166.33333333333334</ele><time>2026-04-18T11:49:59Z</time></trkpt><trkpt lat="45.12434435351379" lon="8.246070264352507"><ele>167.0</ele><time>2026-04-18T11:50:00Z</time></trkpt><trkpt lat="45.12440042924048" lon="8.246136832449793"><ele>167.66666666666669</ele><time>2026-04-18T11:50:01Z</time></trkpt><trkpt lat="45.12446181658587" lon="8.246202899431362"><ele>168.33333333333334</ele><time>2026-04-18T11:50:02Z</time></trkpt><trkpt lat="45.124532424333154" lon="8.24626236824685"><ele>169.0</ele><time>2026-04-18T11:50:03Z</time></trkpt><trkpt lat="45.12460350202598" lon="8.246322191009028"><ele>169.0</ele><time>2026-04-18T11:50:04Z</time></trkpt><trkpt lat="45.124670215757405" lon="8.246379190142047"><ele>169.0</ele><time>2026-04-18T11:50:05Z</time></trkpt><trkpt lat="45.12473913097978" lon="8.246436587026961"><ele>169.0</ele><time>2026-04-18T11:50:06Z</time></trkpt><trkpt lat="45.12480055549993" lon="8.24648932758242"><ele>169.0</ele><time>2026-04-18T11:50:07Z</time></trkpt><trkpt lat="45.12486492236671" lon="8.246548442219579"><ele>169.0</ele><time>2026-04-18T11:50:08Z</time></trkpt><trkpt lat="45.124932690712164" lon="8.24660406181883"><ele>169.0</ele><time>2026-04-18T11:50:09Z</time></trkpt><trkpt lat="45.1249909252979" lon="8.24666159280163"><ele>168.83333333333334</ele><time>2026-04-18T11:50:10Z</time></trkpt><trkpt lat="45.12505155744426" lon="8.246719984755417"><ele>168.66666666666669</ele><time>2026-04-18T11:50:11Z</time></trkpt><trkpt lat="45.12511698652735" lon="8.246788911896743"><ele>168.5</ele><time>2026-04-18T11:50:13Z</time></trkpt><trkpt lat="45.125165672033475" lon="8.246711805337585"><ele>168.33333333333334</ele><time>2026-04-18T11:50:15Z</time></trkpt><trkpt lat="45.12518876978952" lon="8.246574233930843"><ele>168.16666666666666</ele><time>2026-04-18T11:50:17Z</time></trkpt><trkpt lat="45.12519832798621" lon="8.246410719455042"><ele>168.0</ele><time>2026-04-18T11:50:19Z</time></trkpt><trkpt lat="45.12521253475406" lon="8.246316898153319"><ele>168.0</ele><time>2026-04-18T11:50:20Z</time></trkpt><trkpt lat="45.125211920527256" lon="8.246194509443496"><ele>168.0</ele><time>2026-04-18T11:50:21Z</time></trkpt><trkpt lat="45.12520768986518" lon="8.246074546163413"><ele>168.0</ele><time>2026-04-18T11:50:22Z</time></trkpt><trkpt lat="45.1252171010235" lon="8.245979015948842"><ele>168.0</ele><time>2026-04-18T11:50:23Z</time></trkpt><trkpt lat="45.12521271967911" lon="8.245876369007467"><ele>168.0</ele><time>2026-04-18T11:50:24Z</time></trkpt><trkpt lat="45.12522501453116" lon="8.245716879717255"><ele>168.0</ele><time>2026-04-18T11:50:25.999Z</time></trkpt><trkpt lat="45.125296851152285" lon="8.245615675470324"><ele>167.83333333333334</ele><time>2026-04-18T11:50:27.999Z</time></trkpt><trkpt lat="45.12541824844464" lon="8.245595289391998"><ele>167.66666666666666</ele><time>2026-04-18T11:50:29.999Z</time></trkpt><trkpt lat="45.125488527842805" lon="8.245585948066687"><ele>167.5</ele><time>2026-04-18T11:50:30.999Z</time></trkpt><trkpt lat="45.12556728261332" lon="8.24559876046973"><ele>167.33333333333331</ele><time>2026-04-18T11:50:31.999Z</time></trkpt><trkpt lat="45.125642745110746" lon="8.245612103272386"><ele>167.16666666666666</ele><time>2026-04-18T11:50:32.999Z</time></trkpt><trkpt lat="45.12572032803364" lon="8.245616208114747"><ele>167.0</ele><time>2026-04-18T11:50:33.999Z</time></trkpt><trkpt lat="45.12579065320274" lon="8.245626201924399"><ele>168.16666666666666</ele><time>2026-04-18T11:50:34.999Z</time></trkpt><trkpt lat="45.12586195803867" lon="8.245632405134366"><ele>169.33333333333331</ele><time>2026-04-18T11:50:35.999Z</time></trkpt><trkpt lat="45.12593128962816" lon="8.245637244938008"><ele>170.5</ele><time>2026-04-18T11:50:36.999Z</time></trkpt><trkpt lat="45.12599420570107" lon="8.245656149237057"><ele>171.66666666666666</ele><time>2026-04-18T11:50:37.999Z</time></trkpt><trkpt lat="45.12606026225966" lon="8.245679203670523"><ele>172.83333333333334</ele><time>2026-04-18T11:50:38.999Z</time></trkpt><trkpt lat="45.126127078815465" lon="8.245699346213172"><ele>174.0</ele><time>2026-04-18T11:50:39.999Z</time></trkpt><trkpt lat="45.126250985391096" lon="8.245720360637824"><ele>174.33333333333334</ele><time>2026-04-18T11:50:41.999Z</time></trkpt><trkpt lat="45.12636424383361" lon="8.245625731948934"><ele>174.66666666666666</ele><time>2026-04-18T11:50:43.999Z</time></trkpt><trkpt lat="45.126423184168715" lon="8.245556841785058"><ele>175.0</ele><time>2026-04-18T11:50:44.999Z</time></trkpt><trkpt lat="45.12648302075764" lon="8.245491995954962"><ele>175.33333333333331</ele><time>2026-04-18T11:50:45.999Z</time></trkpt><trkpt lat="45.126538310808016" lon="8.245422695387557"><ele>175.66666666666666</ele><time>2026-04-18T11:50:46.999Z</time></trkpt><trkpt lat="45.126589657067356" lon="8.245345374502405"><ele>176.0</ele><time>2026-04-18T11:50:47.999Z</time></trkpt><trkpt lat="45.126644323812776" lon="8.245274536733271"><ele>176.0</ele><time>2026-04-18T11:50:48.999Z</time></trkpt><trkpt lat="45.12670276648361" lon="8.245223655947262"><ele>176.0</ele><time>2026-04-18T11:50:49.999Z</time></trkpt><trkpt lat="45.12676263490837" lon="8.245166375384462"><ele>176.0</ele><time>2026-04-18T11:50:51.999Z</time></trkpt><trkpt lat="45.12684425966968" lon="8.245082338535873"><ele>176.0</ele><time>2026-04-18T11:50:54.999Z</time></trkpt><trkpt lat="45.126906121441834" lon="8.245016645946205"><ele>176.0</ele><time>2026-04-18T11:50:56.999Z</time></trkpt><trkpt lat="45.126964222112775" lon="8.244932970635249"><ele>176.0</ele><time>2026-04-18T11:50:58.999Z</time></trkpt><trkpt lat="45.1270591845205" lon="8.244804903843004"><ele>176.5</ele><time>2026-04-18T11:51:00.999Z</time></trkpt><trkpt lat="45.12710915649103" lon="8.244744347728677"><ele>177.0</ele><time>2026-04-18T11:51:01.999Z</time></trkpt><trkpt lat="45.1272026558338" lon="8.244620951223903"><ele>177.5</ele><time>2026-04-18T11:51:03.999Z</time></trkpt><trkpt lat="45.12725751728256" lon="8.244554051064812"><ele>178.0</ele><time>2026-04-18T11:51:04.999Z</time></trkpt><trkpt lat="45.127306132075944" lon="8.24448842015068"><ele>178.5</ele><time>2026-04-18T11:51:05.999Z</time></trkpt><trkpt lat="45.12735869609507" lon="8.24442108173546"><ele>179.0</ele><time>2026-04-18T11:51:06.999Z</time></trkpt><trkpt lat="45.127406896425235" lon="8.244348861946946"><ele>179.0</ele><time>2026-04-18T11:51:07.999Z</time></trkpt><trkpt lat="45.12745974917868" lon="8.244275134430804"><ele>179.0</ele><time>2026-04-18T11:51:08.999Z</time></trkpt><trkpt lat="45.12750316152787" lon="8.244209864451651"><ele>179.0</ele><time>2026-04-18T11:51:09.999Z</time></trkpt><trkpt lat="45.12757723172489" lon="8.244079559343573"><ele>179.0</ele><time>2026-04-18T11:51:11.999Z</time></trkpt><trkpt lat="45.12764090298877" lon="8.243960807173943"><ele>179.0</ele><time>2026-04-18T11:51:13.999Z</time></trkpt><trkpt lat="45.12771089703482" lon="8.243831813683085"><ele>179.0</ele><time>2026-04-18T11:51:15.999Z</time></trkpt><trkpt lat="45.127770096718336" lon="8.243697607547125"><ele>179.0</ele><time>2026-04-18T11:51:17.999Z</time></trkpt><trkpt lat="45.12781848645349" lon="8.243522809558566"><ele>179.0</ele><time>2026-04-18T11:51:19.999Z</time></trkpt><trkpt lat="45.127832317936814" lon="8.24341675813097"><ele>179.0</ele><time>2026-04-18T11:51:20.999Z</time></trkpt><trkpt lat="45.127846683355806" lon="8.2433102848669"><ele>179.0</ele><time>2026-04-18T11:51:21.999Z</time></trkpt><trkpt lat="45.12786096820863" lon="8.243206265921183"><ele>179.5</ele><time>2026-04-18T11:51:22.999Z</time></trkpt><trkpt lat="45.12787138019491" lon="8.243094735002257"><ele>180.0</ele><time>2026-04-18T11:51:23.999Z</time></trkpt><trkpt lat="45.1278869986047" lon="8.242996013532103"><ele>180.5</ele><time>2026-04-18T11:51:24.999Z</time></trkpt><trkpt lat="45.127904020467966" lon="8.24287936331451"><ele>181.0</ele><time>2026-04-18T11:51:25.999Z</time></trkpt><trkpt lat="45.127921379529546" lon="8.242769786272765"><ele>181.5</ele><time>2026-04-18T11:51:26.999Z</time></trkpt><trkpt lat="45.12793548303131" lon="8.242675893501099"><ele>182.0</ele><time>2026-04-18T11:51:27.999Z</time></trkpt><trkpt lat="45.12798097080777" lon="8.242520411412787"><ele>182.0</ele><time>2026-04-18T11:51:30Z</time></trkpt><trkpt lat="45.12806538800023" lon="8.242514791093399"><ele>182.0</ele><time>2026-04-18T11:51:32Z</time></trkpt><trkpt lat="45.12813077746091" lon="8.24254093777117"><ele>182.0</ele><time>2026-04-18T11:51:33Z</time></trkpt><trkpt lat="45.128201314365114" lon="8.242564281224258"><ele>182.0</ele><time>2026-04-18T11:51:34Z</time></trkpt><trkpt lat="45.12831001036498" lon="8.24255458465921"><ele>182.0</ele><time>2026-04-18T11:51:36Z</time></trkpt><trkpt lat="45.12838117840447" lon="8.24256236098508"><ele>182.0</ele><time>2026-04-18T11:51:37Z</time></trkpt><trkpt lat="45.128456098909034" lon="8.242569024973418"><ele>181.66666666666666</ele><time>2026-04-18T11:51:38Z</time></trkpt><trkpt lat="45.12853238014981" lon="8.242574020774605"><ele>181.33333333333331</ele><time>2026-04-18T11:51:39Z</time></trkpt><trkpt lat="45.128622495216696" lon="8.242584164862265"><ele>181.0</ele><time>2026-04-18T11:51:40Z</time></trkpt><trkpt lat="45.12870147936129" lon="8.242584774542554"><ele>180.66666666666666</ele><time>2026-04-18T11:51:41Z</time></trkpt><trkpt lat="45.12876518137229" lon="8.24258049764098"><ele>180.33333333333334</ele><time>2026-04-18T11:51:42Z</time></trkpt><trkpt lat="45.12883375533531" lon="8.24256247605007"><ele>180.0</ele><time>2026-04-18T11:51:43Z</time></trkpt><trkpt lat="45.12890933887892" lon="8.242554191411914"><ele>180.0</ele><time>2026-04-18T11:51:44Z</time></trkpt><trkpt lat="45.129001379985965" lon="8.24256130241076"><ele>180.0</ele><time>2026-04-18T11:51:45Z</time></trkpt><trkpt lat="45.1290920937081" lon="8.242562235868562"><ele>180.0</ele><time>2026-04-18T11:51:46Z</time></trkpt><trkpt lat="45.12917651067122" lon="8.242565801220335"><ele>180.0</ele><time>2026-04-18T11:51:47Z</time></trkpt><trkpt lat="45.12925546078492" lon="8.242566128232538"><ele>180.0</ele><time>2026-04-18T11:51:48Z</time></trkpt><trkpt lat="45.12932819448418" lon="8.242566669121109"><ele>180.0</ele><time>2026-04-18T11:51:49Z</time></trkpt><trkpt lat="45.12939290502465" lon="8.242582872803153"><ele>180.16666666666666</ele><time>2026-04-18T11:51:50Z</time></trkpt><trkpt lat="45.12946690461307" lon="8.242599889791538"><ele>180.33333333333334</ele><time>2026-04-18T11:51:51Z</time></trkpt><trkpt lat="45.12954294048059" lon="8.242629587043243"><ele>180.5</ele><time>2026-04-18T11:51:52Z</time></trkpt><trkpt lat="45.12961710705709" lon="8.242646769078306"><ele>180.66666666666669</ele><time>2026-04-18T11:51:53Z</time></trkpt><trkpt lat="45.129687878154" lon="8.242639310197003"><ele>180.83333333333334</ele><time>2026-04-18T11:51:54Z</time></trkpt><trkpt lat="45.12979760681489" lon="8.24264790559246"><ele>181.0</ele><time>2026-04-18T11:51:56Z</time></trkpt><trkpt lat="45.12991570849206" lon="8.24267065951669"><ele>181.0</ele><time>2026-04-18T11:51:58Z</time></trkpt><trkpt lat="45.13000039907023" lon="8.242680462408643"><ele>181.0</ele><time>2026-04-18T11:51:59Z</time></trkpt><trkpt lat="45.130079395296306" lon="8.242696731666605"><ele>181.0</ele><time>2026-04-18T11:52:00Z</time></trkpt><trkpt lat="45.130156194889686" lon="8.242707609599313"><ele>181.0</ele><time>2026-04-18T11:52:01Z</time></trkpt><trkpt lat="45.13023463861918" lon="8.242712745195695"><ele>181.0</ele><time>2026-04-18T11:52:02Z</time></trkpt><trkpt lat="45.13037819518571" lon="8.242741374891507"><ele>181.0</ele><time>2026-04-18T11:52:04Z</time></trkpt><trkpt lat="45.13045930176918" lon="8.242764408396614"><ele>181.0</ele><time>2026-04-18T11:52:05Z</time></trkpt><trkpt lat="45.13054828153684" lon="8.242786406326719"><ele>181.0</ele><time>2026-04-18T11:52:06Z</time></trkpt><trkpt lat="45.13062982166704" lon="8.24282157840048"><ele>181.0</ele><time>2026-04-18T11:52:07Z</time></trkpt><trkpt lat="45.1307144256527" lon="8.242843273011202"><ele>181.0</ele><time>2026-04-18T11:52:08Z</time></trkpt><trkpt lat="45.130781759796605" lon="8.242859279837333"><ele>181.0</ele><time>2026-04-18T11:52:09Z</time></trkpt><trkpt lat="45.13085363323563" lon="8.242871317996162"><ele>181.16666666666669</ele><time>2026-04-18T11:52:10Z</time></trkpt><trkpt lat="45.13092646166927" lon="8.242900902990675"><ele>181.33333333333334</ele><time>2026-04-18T11:52:11Z</time></trkpt><trkpt lat="45.131004416217" lon="8.242922198498693"><ele>181.5</ele><time>2026-04-18T11:52:12Z</time></trkpt><trkpt lat="45.13107527237176" lon="8.242938378054559"><ele>181.66666666666666</ele><time>2026-04-18T11:52:13Z</time></trkpt><trkpt lat="45.13115316242403" lon="8.242951989598579"><ele>181.83333333333331</ele><time>2026-04-18T11:52:14Z</time></trkpt><trkpt lat="45.13123553743217" lon="8.242970670815655"><ele>182.0</ele><time>2026-04-18T11:52:15Z</time></trkpt><trkpt lat="45.1313226379279" lon="8.242985905158953"><ele>182.0</ele><time>2026-04-18T11:52:16Z</time></trkpt><trkpt lat="45.13140283795816" lon="8.24300187152662"><ele>182.0</ele><time>2026-04-18T11:52:17Z</time></trkpt><trkpt lat="45.131485235527876" lon="8.243023295581706"><ele>182.0</ele><time>2026-04-18T11:52:18Z</time></trkpt><trkpt lat="45.13156556997951" lon="8.243037420796009"><ele>182.0</ele><time>2026-04-18T11:52:19Z</time></trkpt><trkpt lat="45.13165036639331" lon="8.2430589817996"><ele>182.0</ele><time>2026-04-18T11:52:20Z</time></trkpt><trkpt lat="45.13173644477458" lon="8.243073048649544"><ele>182.0</ele><time>2026-04-18T11:52:21Z</time></trkpt><trkpt lat="45.13181784098723" lon="8.2430841569537"><ele>183.33333333333331</ele><time>2026-04-18T11:52:22Z</time></trkpt><trkpt lat="45.13189670722374" lon="8.243084220580567"><ele>184.66666666666666</ele><time>2026-04-18T11:52:23Z</time></trkpt><trkpt lat="45.13197438212109" lon="8.243085805954353"><ele>186.0</ele><time>2026-04-18T11:52:24Z</time></trkpt><trkpt lat="45.13205065151452" lon="8.243077099566573"><ele>187.33333333333334</ele><time>2026-04-18T11:52:25Z</time></trkpt><trkpt lat="45.13212757057084" lon="8.243084690905587"><ele>188.66666666666669</ele><time>2026-04-18T11:52:26Z</time></trkpt><trkpt lat="45.1322081383215" lon="8.243092300892512"><ele>190.0</ele><time>2026-04-18T11:52:27Z</time></trkpt><trkpt lat="45.13229497150531" lon="8.24310007242976"><ele>190.0</ele><time>2026-04-18T11:52:28Z</time></trkpt><trkpt lat="45.13237748713629" lon="8.243122046824935"><ele>190.0</ele><time>2026-04-18T11:52:29Z</time></trkpt><trkpt lat="45.132457346625614" lon="8.243134109269619"><ele>190.0</ele><time>2026-04-18T11:52:30Z</time></trkpt><trkpt lat="45.13252049272958" lon="8.243147321627163"><ele>190.0</ele><time>2026-04-18T11:52:31Z</time></trkpt><trkpt lat="45.13263596451924" lon="8.243173299685315"><ele>190.0</ele><time>2026-04-18T11:52:33Z</time></trkpt><trkpt lat="45.13271931498683" lon="8.243199364144969"><ele>190.0</ele><time>2026-04-18T11:52:34Z</time></trkpt><trkpt lat="45.13279622906101" lon="8.243242000059512"><ele>189.5</ele><time>2026-04-18T11:52:35Z</time></trkpt><trkpt lat="45.13287783785048" lon="8.24329299298927"><ele>189.0</ele><time>2026-04-18T11:52:36Z</time></trkpt><trkpt lat="45.13295991149849" lon="8.243327763164901"><ele>188.5</ele><time>2026-04-18T11:52:37Z</time></trkpt><trkpt lat="45.13304388201471" lon="8.243367560917124"><ele>188.0</ele><time>2026-04-18T11:52:38Z</time></trkpt><trkpt lat="45.13312823263919" lon="8.243397101729197"><ele>187.5</ele><time>2026-04-18T11:52:39Z</time></trkpt><trkpt lat="45.133211569528356" lon="8.243420885980314"><ele>187.0</ele><time>2026-04-18T11:52:40Z</time></trkpt><trkpt lat="45.13328637164848" lon="8.243434254923057"><ele>187.0</ele><time>2026-04-18T11:52:41Z</time></trkpt><trkpt lat="45.133364050111076" lon="8.243443656499126"><ele>187.0</ele><time>2026-04-18T11:52:42Z</time></trkpt><trkpt lat="45.13342768381172" lon="8.243463620294136"><ele>187.0</ele><time>2026-04-18T11:52:43Z</time></trkpt><trkpt lat="45.13351394831046" lon="8.243572340339739"><ele>187.0</ele><time>2026-04-18T11:52:45Z</time></trkpt><trkpt lat="45.13351325526941" lon="8.243675672991126"><ele>187.0</ele><time>2026-04-18T11:52:46Z</time></trkpt><trkpt lat="45.13349039492721" lon="8.243793918631107"><ele>187.0</ele><time>2026-04-18T11:52:47Z</time></trkpt><trkpt lat="45.133478386997005" lon="8.243908858080554"><ele>186.6</ele><time>2026-04-18T11:52:48Z</time></trkpt><trkpt lat="45.1334642855794" lon="8.244012918393363"><ele>186.2</ele><time>2026-04-18T11:52:49Z</time></trkpt><trkpt lat="45.13340839225074" lon="8.244154669713943"><ele>185.8</ele><time>2026-04-18T11:52:51Z</time></trkpt><trkpt lat="45.133432608477094" lon="8.244278351170903"><ele>185.4</ele><time>2026-04-18T11:52:53Z</time></trkpt><trkpt lat="45.13353557376444" lon="8.244379662674794"><ele>185.0</ele><time>2026-04-18T11:52:55Z</time></trkpt><trkpt lat="45.133605486561656" lon="8.24444697657918"><ele>185.0</ele><time>2026-04-18T11:52:56Z</time></trkpt><trkpt lat="45.1336745707943" lon="8.244514444865674"><ele>185.0</ele><time>2026-04-18T11:52:57Z</time></trkpt><trkpt lat="45.13374884747565" lon="8.244592172213139"><ele>185.0</ele><time>2026-04-18T11:52:58Z</time></trkpt><trkpt lat="45.13382483927101" lon="8.244665150421051"><ele>185.0</ele><time>2026-04-18T11:52:59Z</time></trkpt><trkpt lat="45.133901901796094" lon="8.244736867162539"><ele>185.0</ele><time>2026-04-18T11:53:00Z</time></trkpt><trkpt lat="45.13397988031021" lon="8.244801249367825"><ele>185.4</ele><time>2026-04-18T11:53:01Z</time></trkpt><trkpt lat="45.134062720987416" lon="8.244848128418289"><ele>185.8</ele><time>2026-04-18T11:53:01.999Z</time></trkpt><trkpt lat="45.13413498348278" lon="8.244880273727974"><ele>186.2</ele><time>2026-04-18T11:53:02.999Z</time></trkpt><trkpt lat="45.134225490861546" lon="8.244928450445936"><ele>186.6</ele><time>2026-04-18T11:53:04.999Z</time></trkpt><trkpt lat="45.13410734215613" lon="8.244883525221777"><ele>187.0</ele><time>2026-04-18T11:53:19.999Z</time></trkpt><trkpt lat="45.13402001515881" lon="8.244829585373028"><ele>186.66666666666669</ele><time>2026-04-18T11:53:20.999Z</time></trkpt><trkpt lat="45.13394070402237" lon="8.244764377778358"><ele>186.33333333333334</ele><time>2026-04-18T11:53:21.999Z</time></trkpt><trkpt lat="45.13387786234591" lon="8.24472845061207"><ele>186.0</ele><time>2026-04-18T11:53:22.999Z</time></trkpt><trkpt lat="45.133771932579464" lon="8.24462048683017"><ele>185.66666666666666</ele><time>2026-04-18T11:53:24.999Z</time></trkpt><trkpt lat="45.13371179108524" lon="8.24455445745562"><ele>185.33333333333331</ele><time>2026-04-18T11:53:25.999Z</time></trkpt><trkpt lat="45.13365170890068" lon="8.244487350742808"><ele>185.0</ele><time>2026-04-18T11:53:26.999Z</time></trkpt><trkpt lat="45.133591885855324" lon="8.24442404033596"><ele>185.0</ele><time>2026-04-18T11:53:27.999Z</time></trkpt><trkpt lat="45.13353798959371" lon="8.244369288373248"><ele>185.0</ele><time>2026-04-18T11:53:28.999Z</time></trkpt><trkpt lat="45.13346097001396" lon="8.244279454490249"><ele>185.0</ele><time>2026-04-18T11:53:30.999Z</time></trkpt><trkpt lat="45.13341498079515" lon="8.244195583979959"><ele>185.0</ele><time>2026-04-18T11:53:32.999Z</time></trkpt><trkpt lat="45.133440071650114" lon="8.244077550336808"><ele>185.0</ele><time>2026-04-18T11:53:48Z</time></trkpt><trkpt lat="45.133482269372585" lon="8.243977500687928"><ele>185.0</ele><time>2026-04-18T11:53:50Z</time></trkpt><trkpt lat="45.1334890824002" lon="8.24386512873311"><ele>185.33333333333331</ele><time>2026-04-18T11:53:52Z</time></trkpt><trkpt lat="45.13349915376915" lon="8.243729864651593"><ele>185.66666666666666</ele><time>2026-04-18T11:53:54Z</time></trkpt><trkpt lat="45.1335103926122" lon="8.243582033114274"><ele>186.0</ele><time>2026-04-18T11:53:56Z</time></trkpt><trkpt lat="45.133515309556394" lon="8.243476317722795"><ele>186.33333333333334</ele><time>2026-04-18T11:53:58Z</time></trkpt><trkpt lat="45.133502858851756" lon="8.243580654420864"><ele>186.66666666666669</ele><time>2026-04-18T11:54:08Z</time></trkpt><trkpt lat="45.13350924622831" lon="8.243706643820468"><ele>187.0</ele><time>2026-04-18T11:54:11Z</time></trkpt><trkpt lat="45.13349583032121" lon="8.243835773871615"><ele>187.0</ele><time>2026-04-18T11:54:13Z</time></trkpt><trkpt lat="45.13348840429674" lon="8.24393805259633"><ele>187.0</ele><time>2026-04-18T11:54:15Z</time></trkpt><trkpt lat="45.13346216233541" lon="8.244041302334798"><ele>187.0</ele><time>2026-04-18T11:54:17Z</time></trkpt><trkpt lat="45.13342924587251" lon="8.244119328070056"><ele>187.0</ele><time>2026-04-18T11:54:19Z</time></trkpt><trkpt lat="45.13337509395362" lon="8.244204229228199"><ele>187.0</ele><time>2026-04-18T11:54:22Z</time></trkpt><trkpt lat="45.133302005910664" lon="8.244214583351088"><ele>187.0</ele><time>2026-04-18T11:54:25Z</time></trkpt><trkpt lat="45.133242672026014" lon="8.24427671544708"><ele>187.0</ele><time>2026-04-18T11:54:28Z</time></trkpt><trkpt lat="45.133209994388245" lon="8.244391913499479"><ele>186.66666666666669</ele><time>2026-04-18T11:54:32Z</time></trkpt><trkpt lat="45.13318997261262" lon="8.244488044493945"><ele>186.33333333333334</ele><time>2026-04-18T11:54:35Z</time></trkpt><trkpt lat="45.13316982284219" lon="8.244596890952455"><ele>186.0</ele><time>2026-04-18T11:54:38Z</time></trkpt><trkpt lat="45.13314697473013" lon="8.244699603884383"><ele>185.66666666666666</ele><time>2026-04-18T11:54:40Z</time></trkpt><trkpt lat="45.13312605512606" lon="8.244797209128699"><ele>185.33333333333331</ele><time>2026-04-18T11:54:42Z</time></trkpt><trkpt lat="45.133109251929206" lon="8.2448895156424"><ele>185.0</ele><time>2026-04-18T11:54:44Z</time></trkpt><trkpt lat="45.13308262574887" lon="8.245006020920004"><ele>186.4</ele><time>2026-04-18T11:54:46Z</time></trkpt><trkpt lat="45.13306279495043" lon="8.245125774359312"><ele>187.8</ele><time>2026-04-18T11:54:48Z</time></trkpt><trkpt lat="45.13302997321339" lon="8.245226227072813"><ele>189.2</ele><time>2026-04-18T11:54:50Z</time></trkpt><trkpt lat="45.133000042820804" lon="8.245363776594735"><ele>190.6</ele><time>2026-04-18T11:54:52Z</time></trkpt><trkpt lat="45.132956172070095" lon="8.245467301455525"><ele>192.0</ele><time>2026-04-18T11:54:54Z</time></trkpt><trkpt lat="45.132911603687255" lon="8.245599690260974"><ele>193.42857142857142</ele><time>2026-04-18T11:54:57Z</time></trkpt><trkpt lat="45.13289153668193" lon="8.245716174963507"><ele>194.85714285714286</ele><time>2026-04-18T11:55:00Z</time></trkpt><trkpt lat="45.132873435878146" lon="8.245802835619353"><ele>196.28571428571428</ele><time>2026-04-18T11:55:02Z</time></trkpt><trkpt lat="45.132841957261896" lon="8.245893556645354"><ele>197.71428571428572</ele><time>2026-04-18T11:55:04Z</time></trkpt><trkpt lat="45.1328148848956" lon="8.245983901488552"><ele>199.14285714285714</ele><time>2026-04-18T11:55:07Z</time></trkpt><trkpt lat="45.13280381854476" lon="8.246110339505744"><ele>200.57142857142856</ele><time>2026-04-18T11:55:09Z</time></trkpt><trkpt lat="45.132808345410176" lon="8.246209419629338"><ele>202.0</ele><time>2026-04-18T11:57:34Z</time></trkpt><trkpt lat="45.13280338223181" lon="8.246338809777598"><ele>203.33333333333331</ele><time>2026-04-18T11:57:39Z</time></trkpt><trkpt lat="45.132804887342964" lon="8.246474981501397"><ele>204.66666666666666</ele><time>2026-04-18T11:57:42Z</time></trkpt><trkpt lat="45.13282286018797" lon="8.246603784140353"><ele>206.0</ele><time>2026-04-18T11:57:44Z</time></trkpt><trkpt lat="45.13283887955616" lon="8.246702506644958"><ele>207.33333333333331</ele><time>2026-04-18T11:57:46Z</time></trkpt><trkpt lat="45.13284286020344" lon="8.246799968498847"><ele>208.66666666666666</ele><time>2026-04-18T11:57:48Z</time></trkpt><trkpt lat="45.132878163358775" lon="8.24689395414838"><ele>210.0</ele><time>2026-04-18T11:57:51Z</time></trkpt><trkpt lat="45.13287261828706" lon="8.247019969544578"><ele>210.0</ele><time>2026-04-18T11:57:53Z</time></trkpt><trkpt lat="45.13289145398629" lon="8.24717270959527"><ele>210.0</ele><time>2026-04-18T11:57:55Z</time></trkpt><trkpt lat="45.13290919811506" lon="8.247335342208194"><ele>210.0</ele><time>2026-04-18T11:57:57Z</time></trkpt><trkpt lat="45.13291930730922" lon="8.247448428526132"><ele>210.0</ele><time>2026-04-18T11:57:59Z</time></trkpt><trkpt lat="45.13294162866595" lon="8.2476272674547"><ele>210.0</ele><time>2026-04-18T11:58:01Z</time></trkpt><trkpt lat="45.132966183665296" lon="8.247754509860783"><ele>213.0</ele><time>2026-04-18T11:58:03Z</time></trkpt><trkpt lat="45.13295274019427" lon="8.24787958410875"><ele>216.0</ele><time>2026-04-18T11:58:05Z</time></trkpt><trkpt lat="45.13290713449632" lon="8.247979101632593"><ele>219.0</ele><time>2026-04-18T11:58:07Z</time></trkpt><trkpt lat="45.132898740353646" lon="8.24808794115198"><ele>222.0</ele><time>2026-04-18T11:58:09Z</time></trkpt><trkpt lat="45.132796745130214" lon="8.24826145482005"><ele>225.0</ele><time>2026-04-18T11:58:10Z</time></trkpt><trkpt lat="45.13268620659746" lon="8.248328603281394"><ele>227.4</ele><time>2026-04-18T11:58:12Z</time></trkpt><trkpt lat="45.132585780381206" lon="8.248403765827408"><ele>229.8</ele><time>2026-04-18T11:58:14Z</time></trkpt><trkpt lat="45.13249845361227" lon="8.24849920014578"><ele>232.2</ele><time>2026-04-18T11:58:16Z</time></trkpt><trkpt lat="45.132453918288164" lon="8.248567689197134"><ele>234.6</ele><time>2026-04-18T11:58:17Z</time></trkpt><trkpt lat="45.13239266336937" lon="8.248689240877752"><ele>237.0</ele><time>2026-04-18T11:58:19Z</time></trkpt><trkpt lat="45.132384580340194" lon="8.248807127611515"><ele>237.0</ele><time>2026-04-18T11:58:21Z</time></trkpt><trkpt lat="45.13240536737353" lon="8.248931982499128"><ele>237.0</ele><time>2026-04-18T11:58:23Z</time></trkpt><trkpt lat="45.13245299268774" lon="8.24906477637748"><ele>237.0</ele><time>2026-04-18T11:58:32Z</time></trkpt><trkpt lat="45.13250310646005" lon="8.249154873855845"><ele>237.0</ele><time>2026-04-18T11:58:34Z</time></trkpt><trkpt lat="45.132522485537656" lon="8.249249541148163"><ele>237.0</ele><time>2026-04-18T11:58:36Z</time></trkpt><trkpt lat="45.13256113191185" lon="8.249346287137154"><ele>237.0</ele><time>2026-04-18T11:58:39Z</time></trkpt><trkpt lat="45.13247385434015" lon="8.249424224575646"><ele>240.66666666666666</ele><time>2026-04-18T11:58:45Z</time></trkpt><trkpt lat="45.13238398767742" lon="8.249472420600656"><ele>244.33333333333331</ele><time>2026-04-18T11:58:47Z</time></trkpt><trkpt lat="45.13230238024491" lon="8.249513988568065"><ele>248.0</ele><time>2026-04-18T11:58:49Z</time></trkpt><trkpt lat="45.132212145339984" lon="8.249500852362521"><ele>251.66666666666666</ele><time>2026-04-18T11:58:51Z</time></trkpt><trkpt lat="45.132153897268175" lon="8.249462119358167"><ele>255.33333333333331</ele><time>2026-04-18T11:58:52Z</time></trkpt><trkpt lat="45.132061580713035" lon="8.249426796905738"><ele>259.0</ele><time>2026-04-18T11:58:54Z</time></trkpt><trkpt lat="45.131994994418974" lon="8.249415879357892"><ele>259.0</ele><time>2026-04-18T11:58:56Z</time></trkpt><trkpt lat="45.131984611798295" lon="8.249539695256361"><ele>259.0</ele><time>2026-04-18T11:58:58Z</time></trkpt><trkpt lat="45.13206052490654" lon="8.249621411558456"><ele>259.0</ele><time>2026-04-18T11:59:01Z</time></trkpt><trkpt lat="45.13218506370305" lon="8.249669771342118"><ele>259.0</ele><time>2026-04-18T11:59:03Z</time></trkpt><trkpt lat="45.13225841105508" lon="8.249726633784116"><ele>259.0</ele><time>2026-04-18T11:59:04Z</time></trkpt><trkpt lat="45.13232805859498" lon="8.249797182798781"><ele>259.0</ele><time>2026-04-18T11:59:05Z</time></trkpt><trkpt lat="45.132370692861414" lon="8.24986851279882"><ele>259.0</ele><time>2026-04-18T11:59:06Z</time></trkpt><trkpt lat="45.13238889611886" lon="8.249960331940292"><ele>259.0</ele><time>2026-04-18T11:59:08Z</time></trkpt><trkpt lat="45.13240754763178" lon="8.250048643460811"><ele>259.0</ele><time>2026-04-18T11:59:13Z</time></trkpt><trkpt lat="45.132382525567486" lon="8.249945742294459"><ele>259.0</ele><time>2026-04-18T11:59:15Z</time></trkpt><trkpt lat="45.132338825928244" lon="8.249805681402547"><ele>259.0</ele><time>2026-04-18T11:59:17Z</time></trkpt><trkpt lat="45.13226056125147" lon="8.249714162439432"><ele>259.0</ele><time>2026-04-18T11:59:19Z</time></trkpt><trkpt lat="45.13216079927573" lon="8.249648382096085"><ele>259.0</ele><time>2026-04-18T11:59:21Z</time></trkpt><trkpt lat="45.13206302597692" lon="8.249571383982627"><ele>259.0</ele><time>2026-04-18T11:59:23Z</time></trkpt><trkpt lat="45.13205758201645" lon="8.2494703331369"><ele>259.0</ele><time>2026-04-18T11:59:25Z</time></trkpt><trkpt lat="45.1321351684382" lon="8.24944835252587"><ele>259.0</ele><time>2026-04-18T11:59:27Z</time></trkpt><trkpt lat="45.13219397660398" lon="8.249501731697107"><ele>259.0</ele><time>2026-04-18T11:59:28Z</time></trkpt><trkpt lat="45.13230761914393" lon="8.249522777750983"><ele>259.0</ele><time>2026-04-18T11:59:30Z</time></trkpt><trkpt lat="45.132369482311006" lon="8.249494979018387"><ele>259.0</ele><time>2026-04-18T11:59:31Z</time></trkpt><trkpt lat="45.13243375153328" lon="8.249459991307784"><ele>259.0</ele><time>2026-04-18T11:59:32Z</time></trkpt><trkpt lat="45.132508864274136" lon="8.249418456465841"><ele>259.0</ele><time>2026-04-18T11:59:33Z</time></trkpt><trkpt lat="45.132585927469414" lon="8.249364455241535"><ele>259.0</ele><time>2026-04-18T11:59:34Z</time></trkpt><trkpt lat="45.13267937971461" lon="8.249286134493122"><ele>259.0</ele><time>2026-04-18T11:59:35Z</time></trkpt><trkpt lat="45.13276285514885" lon="8.249212579208152"><ele>257.59999999999997</ele><time>2026-04-18T11:59:36Z</time></trkpt><trkpt lat="45.13284515592981" lon="8.24914651582818"><ele>256.2</ele><time>2026-04-18T11:59:37Z</time></trkpt><trkpt lat="45.132931046397466" lon="8.249080589931786"><ele>254.79999999999998</ele><time>2026-04-18T11:59:38Z</time></trkpt><trkpt lat="45.13301723175897" lon="8.24900821789469"><ele>253.39999999999998</ele><time>2026-04-18T11:59:39Z</time></trkpt><trkpt lat="45.13309728345822" lon="8.248940666506742"><ele>252.0</ele><time>2026-04-18T11:59:40Z</time></trkpt><trkpt lat="45.133167567748785" lon="8.248878393398451"><ele>252.39999999999998</ele><time>2026-04-18T11:59:41Z</time></trkpt><trkpt lat="45.1332274748823" lon="8.248824849871125"><ele>252.79999999999998</ele><time>2026-04-18T11:59:42Z</time></trkpt><trkpt lat="45.13332334383397" lon="8.248772218521848"><ele>253.2</ele><time>2026-04-18T11:59:44Z</time></trkpt><trkpt lat="45.133428929479976" lon="8.248837439022507"><ele>253.6</ele><time>2026-04-18T11:59:46Z</time></trkpt><trkpt lat="45.13353906731269" lon="8.248918304846711"><ele>254.0</ele><time>2026-04-18T11:59:48Z</time></trkpt><trkpt lat="45.13359302813482" lon="8.24897138400321"><ele>254.00000000000003</ele><time>2026-04-18T11:59:49Z</time></trkpt><trkpt lat="45.13365108029283" lon="8.249039909691822"><ele>254.0</ele><time>2026-04-18T11:59:50Z</time></trkpt><trkpt lat="45.13370541204652" lon="8.249109434307108"><ele>254.0</ele><time>2026-04-18T11:59:51Z</time></trkpt><trkpt lat="45.13376685718769" lon="8.24918112251886"><ele>254.0</ele><time>2026-04-18T11:59:52Z</time></trkpt><trkpt lat="45.13382815402664" lon="8.249267603050908"><ele>254.00000000000003</ele><time>2026-04-18T11:59:53Z</time></trkpt><trkpt lat="45.133879026530835" lon="8.249352740678543"><ele>254.0</ele><time>2026-04-18T11:59:54Z</time></trkpt><trkpt lat="45.13392230180931" lon="8.24944005088285"><ele>254.00000000000003</ele><time>2026-04-18T11:59:55Z</time></trkpt><trkpt lat="45.133953805259935" lon="8.249530784207625"><ele>254.0</ele><time>2026-04-18T11:59:56Z</time></trkpt><trkpt lat="45.133974015540936" lon="8.249632555772669"><ele>254.0</ele><time>2026-04-18T11:59:57Z</time></trkpt><trkpt lat="45.13399040475267" lon="8.24973479253922"><ele>254.0</ele><time>2026-04-18T11:59:58Z</time></trkpt><trkpt lat="45.13401376749742" lon="8.249859603370943"><ele>254.00000000000003</ele><time>2026-04-18T11:59:59Z</time></trkpt><trkpt lat="45.13405641993374" lon="8.249958541605338"><ele>254.0</ele><time>2026-04-18T12:00:00Z</time></trkpt><trkpt lat="45.1340891542845" lon="8.250054104633492"><ele>254.16666666666669</ele><time>2026-04-18T12:00:01Z</time></trkpt><trkpt lat="45.134120570386976" lon="8.250145468275274"><ele>254.33333333333334</ele><time>2026-04-18T12:00:02Z</time></trkpt><trkpt lat="45.13416620428492" lon="8.250243131039326"><ele>254.5</ele><time>2026-04-18T12:00:03Z</time></trkpt><trkpt lat="45.13420947000062" lon="8.250355473812423"><ele>254.66666666666669</ele><time>2026-04-18T12:00:04Z</time></trkpt><trkpt lat="45.134223309115214" lon="8.250465849760024"><ele>254.83333333333334</ele><time>2026-04-18T12:00:05Z</time></trkpt><trkpt lat="45.13424971785864" lon="8.250589265027552"><ele>255.0</ele><time>2026-04-18T12:00:06Z</time></trkpt><trkpt lat="45.13427163986801" lon="8.250714637891505"><ele>257.1666666666667</ele><time>2026-04-18T12:00:07Z</time></trkpt><trkpt lat="45.13429199343397" lon="8.250840649637325"><ele>259.3333333333333</ele><time>2026-04-18T12:00:08Z</time></trkpt><trkpt lat="45.13432612938427" lon="8.250949627300068"><ele>261.5</ele><time>2026-04-18T12:00:09Z</time></trkpt><trkpt lat="45.13435550472685" lon="8.251042916439523"><ele>263.66666666666663</ele><time>2026-04-18T12:00:10Z</time></trkpt><trkpt lat="45.13441148180155" lon="8.251129400416175"><ele>265.8333333333333</ele><time>2026-04-18T12:00:11Z</time></trkpt><trkpt lat="45.13446922719667" lon="8.251193318314542"><ele>268.0</ele><time>2026-04-18T12:00:12Z</time></trkpt><trkpt lat="45.1345406792254" lon="8.251263012015869"><ele>268.0</ele><time>2026-04-18T12:00:13Z</time></trkpt><trkpt lat="45.13460588135782" lon="8.251322928150778"><ele>268.0</ele><time>2026-04-18T12:00:14Z</time></trkpt><trkpt lat="45.134675410148176" lon="8.251383316970957"><ele>268.0</ele><time>2026-04-18T12:00:15Z</time></trkpt><trkpt lat="45.13467324302075" lon="8.251553759132017"><ele>268.0</ele><time>2026-04-18T12:00:16Z</time></trkpt><trkpt lat="45.13476029712117" lon="8.251637138717658"><ele>268.0</ele><time>2026-04-18T12:00:18Z</time></trkpt><trkpt lat="45.13482387549621" lon="8.251686851813703"><ele>268.0</ele><time>2026-04-18T12:00:20Z</time></trkpt><trkpt lat="45.134879407574914" lon="8.251759218530523"><ele>268.0</ele><time>2026-04-18T12:00:24Z</time></trkpt><trkpt lat="45.13496738921644" lon="8.251773241894917"><ele>268.0</ele><time>2026-04-18T12:00:41Z</time></trkpt><trkpt lat="45.13504656431967" lon="8.25176810811605"><ele>268.0</ele><time>2026-04-18T12:00:44Z</time></trkpt><trkpt lat="45.13508042690561" lon="8.25185633847553"><ele>268.0</ele><time>2026-04-18T12:00:46Z</time></trkpt><trkpt lat="45.13514414819196" lon="8.251937959902815"><ele>268.0</ele><time>2026-04-18T12:00:49Z</time></trkpt><trkpt lat="45.1352265176131" lon="8.252002867559392"><ele>268.0</ele><time>2026-04-18T12:00:51Z</time></trkpt><trkpt lat="45.13529453503664" lon="8.252065262331248"><ele>268.0</ele><time>2026-04-18T12:00:53Z</time></trkpt><trkpt lat="45.13539847714551" lon="8.252131571811109"><ele>268.0</ele><time>2026-04-18T12:00:55Z</time></trkpt><trkpt lat="45.13548290115444" lon="8.252229932738127"><ele>268.0</ele><time>2026-04-18T12:00:57Z</time></trkpt><trkpt lat="45.13558406542177" lon="8.252310517578056"><ele>268.0</ele><time>2026-04-18T12:00:59Z</time></trkpt><trkpt lat="45.13568584127901" lon="8.252363004669272"><ele>268.16666666666663</ele><time>2026-04-18T12:01:01Z</time></trkpt><trkpt lat="45.13577949164809" lon="8.252458792524907"><ele>268.3333333333333</ele><time>2026-04-18T12:01:03Z</time></trkpt><trkpt lat="45.135825652658745" lon="8.252520074559722"><ele>268.5</ele><time>2026-04-18T12:01:06Z</time></trkpt><trkpt lat="45.135771641819154" lon="8.252566515642897"><ele>268.6666666666667</ele><time>2026-04-18T12:01:14Z</time></trkpt><trkpt lat="45.13574842899758" lon="8.25241514153238"><ele>268.83333333333337</ele><time>2026-04-18T12:01:16Z</time></trkpt><trkpt lat="45.135683144319465" lon="8.252376924991225"><ele>269.0</ele><time>2026-04-18T12:01:18Z</time></trkpt><trkpt lat="45.13561171896942" lon="8.252337636326887"><ele>269.0</ele><time>2026-04-18T12:01:20Z</time></trkpt><trkpt lat="45.135554107096034" lon="8.252294372349395"><ele>269.0</ele><time>2026-04-18T12:01:22Z</time></trkpt><trkpt lat="45.13549069440548" lon="8.252244554374744"><ele>269.0</ele><time>2026-04-18T12:01:24Z</time></trkpt><trkpt lat="45.13542000610694" lon="8.252177394502505"><ele>269.0</ele><time>2026-04-18T12:01:26Z</time></trkpt><trkpt lat="45.13536016180504" lon="8.252149550640073"><ele>269.0</ele><time>2026-04-18T12:01:29Z</time></trkpt><trkpt lat="45.13530331889734" lon="8.252088335052507"><ele>269.0</ele><time>2026-04-18T12:01:32Z</time></trkpt><trkpt lat="45.13523590522546" lon="8.252037711459431"><ele>269.0</ele><time>2026-04-18T12:01:35Z</time></trkpt><trkpt lat="45.13517950524465" lon="8.251988249457895"><ele>268.8571428571429</ele><time>2026-04-18T12:01:37Z</time></trkpt><trkpt lat="45.13514059839827" lon="8.251897101973968"><ele>268.7142857142857</ele><time>2026-04-18T12:01:39Z</time></trkpt><trkpt lat="45.13514144917026" lon="8.251798224100067"><ele>268.57142857142856</ele><time>2026-04-18T12:01:43Z</time></trkpt><trkpt lat="45.13506650884687" lon="8.251771369466697"><ele>268.42857142857144</ele><time>2026-04-18T12:02:17Z</time></trkpt><trkpt lat="45.13499138322293" lon="8.251767576943234"><ele>268.2857142857143</ele><time>2026-04-18T12:02:19Z</time></trkpt><trkpt lat="45.13492221564456" lon="8.251769309714337"><ele>268.14285714285717</ele><time>2026-04-18T12:02:22Z</time></trkpt><trkpt lat="45.13497911975015" lon="8.251686614808904"><ele>268.0</ele><time>2026-04-18T12:02:26Z</time></trkpt><trkpt lat="45.135056685018704" lon="8.251663187781672"><ele>268.0</ele><time>2026-04-18T12:02:27Z</time></trkpt><trkpt lat="45.13512989545426" lon="8.251627408398647"><ele>268.0</ele><time>2026-04-18T12:02:28Z</time></trkpt><trkpt lat="45.135205544345155" lon="8.251592582558118"><ele>268.0</ele><time>2026-04-18T12:02:29Z</time></trkpt><trkpt lat="45.13528995671545" lon="8.251559411923997"><ele>268.0</ele><time>2026-04-18T12:02:30Z</time></trkpt><trkpt lat="45.135377498724246" lon="8.251536939825051"><ele>268.0</ele><time>2026-04-18T12:02:31Z</time></trkpt><trkpt lat="45.13546897674427" lon="8.251523452549797"><ele>268.0</ele><time>2026-04-18T12:02:32Z</time></trkpt><trkpt lat="45.13555749712696" lon="8.25153601230394"><ele>268.0</ele><time>2026-04-18T12:02:33Z</time></trkpt><trkpt lat="45.13565011625854" lon="8.25157567334022"><ele>268.0</ele><time>2026-04-18T12:02:34Z</time></trkpt><trkpt lat="45.135733614787064" lon="8.251658115111839"><ele>268.0</ele><time>2026-04-18T12:02:35Z</time></trkpt><trkpt lat="45.135816263887385" lon="8.25176473014708"><ele>268.0</ele><time>2026-04-18T12:02:36Z</time></trkpt><trkpt lat="45.13589227793529" lon="8.251891477185913"><ele>268.0</ele><time>2026-04-18T12:02:37Z</time></trkpt><trkpt lat="45.135972216220836" lon="8.252019446751893"><ele>268.25</ele><time>2026-04-18T12:02:38Z</time></trkpt><trkpt lat="45.13606505003926" lon="8.252113694932275"><ele>268.5</ele><time>2026-04-18T12:02:39Z</time></trkpt><trkpt lat="45.1361824615943" lon="8.252182861799778"><ele>268.75</ele><time>2026-04-18T12:02:40Z</time></trkpt><trkpt lat="45.13630361856183" lon="8.252268068106497"><ele>269.0</ele><time>2026-04-18T12:02:41Z</time></trkpt><trkpt lat="45.13641716732537" lon="8.252367875420816"><ele>269.25</ele><time>2026-04-18T12:02:42Z</time></trkpt><trkpt lat="45.13650747525821" lon="8.252486958825113"><ele>269.5</ele><time>2026-04-18T12:02:43Z</time></trkpt><trkpt lat="45.13659757163161" lon="8.2526021163736"><ele>269.75</ele><time>2026-04-18T12:02:44Z</time></trkpt><trkpt lat="45.13666717877842" lon="8.252730472133152"><ele>270.0</ele><time>2026-04-18T12:02:45Z</time></trkpt><trkpt lat="45.13673949907819" lon="8.252861628657879"><ele>270.0</ele><time>2026-04-18T12:02:46Z</time></trkpt><trkpt lat="45.13680973025694" lon="8.252979224648552"><ele>270.0</ele><time>2026-04-18T12:02:47Z</time></trkpt><trkpt lat="45.136883904279316" lon="8.253086171833681"><ele>270.0</ele><time>2026-04-18T12:02:48Z</time></trkpt><trkpt lat="45.136957946018455" lon="8.253190459330542"><ele>270.0</ele><time>2026-04-18T12:02:49Z</time></trkpt><trkpt lat="45.13703568896578" lon="8.253284817216922"><ele>270.0</ele><time>2026-04-18T12:02:50Z</time></trkpt><trkpt lat="45.13712963115028" lon="8.253358913863444"><ele>270.2</ele><time>2026-04-18T12:02:51Z</time></trkpt><trkpt lat="45.137227360501164" lon="8.253417256670037"><ele>270.4</ele><time>2026-04-18T12:02:52Z</time></trkpt><trkpt lat="45.13733446710598" lon="8.253467500290517"><ele>270.6</ele><time>2026-04-18T12:02:53Z</time></trkpt><trkpt lat="45.13743566750387" lon="8.25350918657268"><ele>270.8</ele><time>2026-04-18T12:02:54Z</time></trkpt><trkpt lat="45.13753191844482" lon="8.253546859790898"><ele>271.0</ele><time>2026-04-18T12:02:55Z</time></trkpt><trkpt lat="45.13762573385701" lon="8.253601826816416"><ele>271.0</ele><time>2026-04-18T12:02:56Z</time></trkpt><trkpt lat="45.137724082678446" lon="8.253654533275034"><ele>271.0</ele><time>2026-04-18T12:02:57Z</time></trkpt><trkpt lat="45.137821154336294" lon="8.253713583612196"><ele>271.0</ele><time>2026-04-18T12:02:58Z</time></trkpt><trkpt lat="45.13791687733291" lon="8.253771692451263"><ele>271.0</ele><time>2026-04-18T12:02:59Z</time></trkpt><trkpt lat="45.1380145911621" lon="8.253829107417543"><ele>271.0</ele><time>2026-04-18T12:03:00Z</time></trkpt><trkpt lat="45.13812018562129" lon="8.253894481744911"><ele>269.75</ele><time>2026-04-18T12:03:01Z</time></trkpt><trkpt lat="45.13822736256651" lon="8.253957806177183"><ele>268.5</ele><time>2026-04-18T12:03:02Z</time></trkpt><trkpt lat="45.138329337886624" lon="8.254010285859144"><ele>267.25</ele><time>2026-04-18T12:03:03Z</time></trkpt><trkpt lat="45.13843576984347" lon="8.254053674018511"><ele>266.0</ele><time>2026-04-18T12:03:04Z</time></trkpt><trkpt lat="45.138546272158536" lon="8.254098597915364"><ele>266.0</ele><time>2026-04-18T12:03:05Z</time></trkpt><trkpt lat="45.13865313116553" lon="8.254148123970177"><ele>266.0</ele><time>2026-04-18T12:03:06Z</time></trkpt><trkpt lat="45.13875613045255" lon="8.254191374419273"><ele>266.0</ele><time>2026-04-18T12:03:07Z</time></trkpt><trkpt lat="45.13885640277867" lon="8.254218823097169"><ele>266.0</ele><time>2026-04-18T12:03:08Z</time></trkpt><trkpt lat="45.1389400680408" lon="8.254239781884223"><ele>266.0</ele><time>2026-04-18T12:03:09Z</time></trkpt><trkpt lat="45.139007883885114" lon="8.254251616304112"><ele>266.6</ele><time>2026-04-18T12:03:10Z</time></trkpt><trkpt lat="45.13910235385279" lon="8.254271519390004"><ele>267.20000000000005</ele><time>2026-04-18T12:03:12Z</time></trkpt><trkpt lat="45.139124107197105" lon="8.254427265183196"><ele>267.79999999999995</ele><time>2026-04-18T12:03:15Z</time></trkpt><trkpt lat="45.13910400771127" lon="8.254578435594308"><ele>268.4</ele><time>2026-04-18T12:03:17Z</time></trkpt><trkpt lat="45.13909778217603" lon="8.254739852865853"><ele>269.0</ele><time>2026-04-18T12:03:19Z</time></trkpt><trkpt lat="45.13913223836174" lon="8.25488303024927"><ele>268.0</ele><time>2026-04-18T12:03:21Z</time></trkpt><trkpt lat="45.1391406279799" lon="8.254971782695605"><ele>267.0</ele><time>2026-04-18T12:03:22Z</time></trkpt><trkpt lat="45.1390286552965" lon="8.255099267460864"><ele>266.0</ele><time>2026-04-18T12:03:23Z</time></trkpt><trkpt lat="45.13904285247358" lon="8.255198166861165"><ele>265.0</ele><time>2026-04-18T12:03:24Z</time></trkpt><trkpt lat="45.13907444401423" lon="8.255312270447773"><ele>264.0</ele><time>2026-04-18T12:03:25Z</time></trkpt><trkpt lat="45.13910772012185" lon="8.255422555224127"><ele>263.0</ele><time>2026-04-18T12:03:26Z</time></trkpt><trkpt lat="45.13912758877167" lon="8.255537060256867"><ele>261.5</ele><time>2026-04-18T12:03:27Z</time></trkpt><trkpt lat="45.13913782832211" lon="8.255658327968767"><ele>260.0</ele><time>2026-04-18T12:03:28Z</time></trkpt><trkpt lat="45.13914398029176" lon="8.255780433041958"><ele>258.5</ele><time>2026-04-18T12:03:29Z</time></trkpt><trkpt lat="45.13914119339692" lon="8.255908774561512"><ele>257.0</ele><time>2026-04-18T12:03:30Z</time></trkpt><trkpt lat="45.13915732805973" lon="8.2560360824517"><ele>255.50000000000003</ele><time>2026-04-18T12:03:31Z</time></trkpt><trkpt lat="45.13918542353006" lon="8.256144956208406"><ele>254.0</ele><time>2026-04-18T12:03:32Z</time></trkpt><trkpt lat="45.139210298968194" lon="8.256269893764511"><ele>254.00000000000003</ele><time>2026-04-18T12:03:33Z</time></trkpt><trkpt lat="45.13923574708265" lon="8.256397168169114"><ele>254.0</ele><time>2026-04-18T12:03:34Z</time></trkpt><trkpt lat="45.13925537014557" lon="8.2565141693929"><ele>254.0</ele><time>2026-04-18T12:03:35Z</time></trkpt><trkpt lat="45.13926610796271" lon="8.256636608019992"><ele>254.0</ele><time>2026-04-18T12:03:36Z</time></trkpt><trkpt lat="45.13926968619074" lon="8.256737938569877"><ele>254.00000000000003</ele><time>2026-04-18T12:03:37Z</time></trkpt><trkpt lat="45.13928232122848" lon="8.256844843657346"><ele>254.0</ele><time>2026-04-18T12:03:38Z</time></trkpt><trkpt lat="45.139307999554475" lon="8.256956277786523"><ele>253.00000000000003</ele><time>2026-04-18T12:03:39Z</time></trkpt><trkpt lat="45.139338271807276" lon="8.257059594442602"><ele>252.0</ele><time>2026-04-18T12:03:40Z</time></trkpt><trkpt lat="45.139365699041974" lon="8.257162626327531"><ele>251.0</ele><time>2026-04-18T12:03:41Z</time></trkpt><trkpt lat="45.13939196322125" lon="8.257259293163232"><ele>250.0</ele><time>2026-04-18T12:03:42Z</time></trkpt><trkpt lat="45.13942296556163" lon="8.257337679182244"><ele>249.00000000000003</ele><time>2026-04-18T12:03:43Z</time></trkpt><trkpt lat="45.13947341150521" lon="8.257435321109261"><ele>248.0</ele><time>2026-04-18T12:03:45Z</time></trkpt><trkpt lat="45.13956056245817" lon="8.257525110203952"><ele>248.16666666666669</ele><time>2026-04-18T12:03:47Z</time></trkpt><trkpt lat="45.139664455870715" lon="8.257601577980894"><ele>248.33333333333334</ele><time>2026-04-18T12:03:49Z</time></trkpt><trkpt lat="45.139718509463144" lon="8.257651099059034"><ele>248.5</ele><time>2026-04-18T12:03:50Z</time></trkpt><trkpt lat="45.13978025678912" lon="8.257704013818277"><ele>248.66666666666669</ele><time>2026-04-18T12:03:51Z</time></trkpt><trkpt lat="45.139844007507385" lon="8.257757589695006"><ele>248.83333333333334</ele><time>2026-04-18T12:03:52Z</time></trkpt><trkpt lat="45.139908888351194" lon="8.257814470049096"><ele>249.0</ele><time>2026-04-18T12:03:53Z</time></trkpt><trkpt lat="45.139962308042364" lon="8.257869161893263"><ele>249.0</ele><time>2026-04-18T12:03:54Z</time></trkpt><trkpt lat="45.1399944046668" lon="8.258014419722663"><ele>248.99999999999997</ele><time>2026-04-18T12:03:56Z</time></trkpt><trkpt lat="45.13993765957443" lon="8.258172595891198"><ele>248.99999999999997</ele><time>2026-04-18T12:03:58Z</time></trkpt><trkpt lat="45.13987926516133" lon="8.258260477653284"><ele>249.0</ele><time>2026-04-18T12:03:59Z</time></trkpt><trkpt lat="45.13982917338395" lon="8.25834617345349"><ele>249.0</ele><time>2026-04-18T12:04:00Z</time></trkpt><trkpt lat="45.13978142607824" lon="8.258432896719341"><ele>246.0</ele><time>2026-04-18T12:04:01Z</time></trkpt><trkpt lat="45.13975444290148" lon="8.25852895355845"><ele>242.99999999999997</ele><time>2026-04-18T12:04:02Z</time></trkpt><trkpt lat="45.13974691384488" lon="8.258673257046999"><ele>239.99999999999997</ele><time>2026-04-18T12:04:04Z</time></trkpt><trkpt lat="45.139730735681816" lon="8.258832418333213"><ele>237.0</ele><time>2026-04-18T12:04:06Z</time></trkpt><trkpt lat="45.13969228376512" lon="8.258995494370332"><ele>234.0</ele><time>2026-04-18T12:04:08Z</time></trkpt><trkpt lat="45.13967136014759" lon="8.259085164224993"><ele>234.0</ele><time>2026-04-18T12:04:09Z</time></trkpt><trkpt lat="45.139646281194594" lon="8.259167800947639"><ele>234.0</ele><time>2026-04-18T12:04:10Z</time></trkpt><trkpt lat="45.13962795946267" lon="8.259253598206879"><ele>234.0</ele><time>2026-04-18T12:04:11Z</time></trkpt><trkpt lat="45.13960824772679" lon="8.259375409692264"><ele>234.0</ele><time>2026-04-18T12:04:12Z</time></trkpt><trkpt lat="45.13959183861813" lon="8.259489060223695"><ele>234.0</ele><time>2026-04-18T12:04:13Z</time></trkpt><trkpt lat="45.139583207331256" lon="8.259600723729305"><ele>234.0</ele><time>2026-04-18T12:04:14Z</time></trkpt><trkpt lat="45.13958142638677" lon="8.25970884156877"><ele>234.5</ele><time>2026-04-18T12:04:15Z</time></trkpt><trkpt lat="45.139596657576945" lon="8.259809502401664"><ele>235.0</ele><time>2026-04-18T12:04:16Z</time></trkpt><trkpt lat="45.139620297513666" lon="8.259910499143977"><ele>235.5</ele><time>2026-04-18T12:04:17Z</time></trkpt><trkpt lat="45.13966370942366" lon="8.260015069376703"><ele>236.0</ele><time>2026-04-18T12:04:18Z</time></trkpt><trkpt lat="45.139709556116095" lon="8.260103706020248"><ele>236.5</ele><time>2026-04-18T12:04:19Z</time></trkpt><trkpt lat="45.13975620940996" lon="8.260192536519432"><ele>237.0</ele><time>2026-04-18T12:04:20Z</time></trkpt><trkpt lat="45.13983710140902" lon="8.26028138152073"><ele>238.6</ele><time>2026-04-18T12:04:22Z</time></trkpt><trkpt lat="45.1399057669099" lon="8.260390787206754"><ele>240.2</ele><time>2026-04-18T12:04:25Z</time></trkpt><trkpt lat="45.139973231597715" lon="8.26055436152972"><ele>241.8</ele><time>2026-04-18T12:04:27Z</time></trkpt><trkpt lat="45.14001831137445" lon="8.26065585939177"><ele>243.4</ele><time>2026-04-18T12:04:28Z</time></trkpt><trkpt lat="45.14005420295932" lon="8.26074479994499"><ele>245.0</ele><time>2026-04-18T12:04:29Z</time></trkpt><trkpt lat="45.140078231421406" lon="8.260837811963231"><ele>245.00000000000003</ele><time>2026-04-18T12:04:30Z</time></trkpt><trkpt lat="45.140094216279735" lon="8.260925874524181"><ele>245.0</ele><time>2026-04-18T12:04:31Z</time></trkpt><trkpt lat="45.14011295129036" lon="8.26102294609194"><ele>245.0</ele><time>2026-04-18T12:04:32Z</time></trkpt><trkpt lat="45.140131715381344" lon="8.261196803102772"><ele>245.0</ele><time>2026-04-18T12:04:34Z</time></trkpt><trkpt lat="45.14014713648273" lon="8.261294814717997"><ele>245.00000000000003</ele><time>2026-04-18T12:04:35Z</time></trkpt><trkpt lat="45.14018292131968" lon="8.261378383219112"><ele>245.0</ele><time>2026-04-18T12:04:36Z</time></trkpt><trkpt lat="45.14022370911514" lon="8.261449105783269"><ele>243.83333333333334</ele><time>2026-04-18T12:04:37Z</time></trkpt><trkpt lat="45.14030810260614" lon="8.261550383062659"><ele>242.66666666666669</ele><time>2026-04-18T12:04:39Z</time></trkpt><trkpt lat="45.14034581717499" lon="8.261623690433685"><ele>241.5</ele><time>2026-04-18T12:04:40Z</time></trkpt><trkpt lat="45.140370301336446" lon="8.261715327293174"><ele>240.33333333333331</ele><time>2026-04-18T12:04:41Z</time></trkpt><trkpt lat="45.140412406779475" lon="8.261852738070603"><ele>239.16666666666666</ele><time>2026-04-18T12:04:43Z</time></trkpt><trkpt lat="45.14041379149415" lon="8.261988444332632"><ele>238.0</ele><time>2026-04-18T12:04:45Z</time></trkpt><trkpt lat="45.14036513362241" lon="8.262135126753018"><ele>238.0</ele><time>2026-04-18T12:04:47Z</time></trkpt><trkpt lat="45.140307666610205" lon="8.262276084908692"><ele>238.0</ele><time>2026-04-18T12:04:49Z</time></trkpt><trkpt lat="45.140312364084735" lon="8.262376855634505"><ele>238.0</ele><time>2026-04-18T12:04:51Z</time></trkpt><trkpt lat="45.140318867911795" lon="8.262538924937859"><ele>238.0</ele><time>2026-04-18T12:04:53Z</time></trkpt><trkpt lat="45.14036010200705" lon="8.26268372357748"><ele>238.0</ele><time>2026-04-18T12:04:55Z</time></trkpt><trkpt lat="45.14041415779376" lon="8.262840097981274"><ele>236.49999999999997</ele><time>2026-04-18T12:04:57Z</time></trkpt><trkpt lat="45.140450367125695" lon="8.262915765544305"><ele>235.0</ele><time>2026-04-18T12:04:58Z</time></trkpt><trkpt lat="45.140490904247" lon="8.262985916469772"><ele>233.5</ele><time>2026-04-18T12:04:59Z</time></trkpt><trkpt lat="45.14052795821051" lon="8.263072131080197"><ele>232.0</ele><time>2026-04-18T12:05:00Z</time></trkpt><trkpt lat="45.14054804015644" lon="8.263217206635833"><ele>230.49999999999997</ele><time>2026-04-18T12:05:02Z</time></trkpt><trkpt lat="45.140477821214915" lon="8.263358960610947"><ele>229.0</ele><time>2026-04-18T12:05:04Z</time></trkpt><trkpt lat="45.140412630498346" lon="8.263443352868412"><ele>228.49999999999997</ele><time>2026-04-18T12:05:05Z</time></trkpt><trkpt lat="45.140366189162016" lon="8.263528258210153"><ele>228.0</ele><time>2026-04-18T12:05:06Z</time></trkpt><trkpt lat="45.14033682862704" lon="8.263618986784635"><ele>227.5</ele><time>2026-04-18T12:05:07Z</time></trkpt><trkpt lat="45.14031202039328" lon="8.263789353043936"><ele>227.0</ele><time>2026-04-18T12:05:09Z</time></trkpt><trkpt lat="45.140301206358174" lon="8.26388611283657"><ele>226.49999999999997</ele><time>2026-04-18T12:05:10Z</time></trkpt><trkpt lat="45.14029609013322" lon="8.263987416623644"><ele>226.0</ele><time>2026-04-18T12:05:11Z</time></trkpt><trkpt lat="45.14028716164409" lon="8.264082230864332"><ele>227.60000000000002</ele><time>2026-04-18T12:05:12Z</time></trkpt><trkpt lat="45.14021769672746" lon="8.264192076931987"><ele>229.20000000000002</ele><time>2026-04-18T12:05:14Z</time></trkpt><trkpt lat="45.14016058350906" lon="8.264257977342313"><ele>230.79999999999998</ele><time>2026-04-18T12:05:15Z</time></trkpt><trkpt lat="45.14008481855101" lon="8.264409809310708"><ele>232.39999999999998</ele><time>2026-04-18T12:05:17Z</time></trkpt><trkpt lat="45.14002874725771" lon="8.264507444198511"><ele>234.0</ele><time>2026-04-18T12:05:18Z</time></trkpt><trkpt lat="45.13997519688693" lon="8.264612633592654"><ele>234.0</ele><time>2026-04-18T12:05:19Z</time></trkpt><trkpt lat="45.139924667742726" lon="8.264717976650292"><ele>234.0</ele><time>2026-04-18T12:05:20Z</time></trkpt><trkpt lat="45.13987485925083" lon="8.264820506816976"><ele>234.0</ele><time>2026-04-18T12:05:21Z</time></trkpt><trkpt lat="45.13982981491387" lon="8.264906982930206"><ele>234.0</ele><time>2026-04-18T12:05:22Z</time></trkpt><trkpt lat="45.13979961983778" lon="8.26499454751936"><ele>234.0</ele><time>2026-04-18T12:05:23Z</time></trkpt><trkpt lat="45.139763626088666" lon="8.265070415909237"><ele>234.0</ele><time>2026-04-18T12:05:24Z</time></trkpt><trkpt lat="45.13973798246391" lon="8.2651547941609"><ele>232.83333333333334</ele><time>2026-04-18T12:05:25Z</time></trkpt><trkpt lat="45.13972812199876" lon="8.265325232715075"><ele>231.66666666666669</ele><time>2026-04-18T12:05:27Z</time></trkpt><trkpt lat="45.13973674645807" lon="8.265415023415162"><ele>230.5</ele><time>2026-04-18T12:05:28Z</time></trkpt><trkpt lat="45.139737321007665" lon="8.26552055685553"><ele>229.33333333333334</ele><time>2026-04-18T12:05:29Z</time></trkpt><trkpt lat="45.13973430556232" lon="8.265610574719759"><ele>228.16666666666669</ele><time>2026-04-18T12:05:30Z</time></trkpt><trkpt lat="45.13973047159946" lon="8.265714793219647"><ele>227.0</ele><time>2026-04-18T12:05:31Z</time></trkpt><trkpt lat="45.13972660556956" lon="8.265814339537217"><ele>227.0</ele><time>2026-04-18T12:05:32Z</time></trkpt><trkpt lat="45.13970972684103" lon="8.265988862887385"><ele>227.0</ele><time>2026-04-18T12:05:34Z</time></trkpt><trkpt lat="45.13969331938715" lon="8.266082184429603"><ele>227.0</ele><time>2026-04-18T12:05:35Z</time></trkpt><trkpt lat="45.139658637455156" lon="8.266242652488284"><ele>227.0</ele><time>2026-04-18T12:05:37Z</time></trkpt><trkpt lat="45.13962605066537" lon="8.266392134005851"><ele>227.0</ele><time>2026-04-18T12:05:39Z</time></trkpt><trkpt lat="45.13960335224247" lon="8.266475681728496"><ele>227.50000000000003</ele><time>2026-04-18T12:05:40Z</time></trkpt><trkpt lat="45.13958959593916" lon="8.266563732867189"><ele>228.0</ele><time>2026-04-18T12:05:41Z</time></trkpt><trkpt lat="45.13955880775282" lon="8.266673206089118"><ele>228.5</ele><time>2026-04-18T12:05:42Z</time></trkpt><trkpt lat="45.13951294968015" lon="8.2667740597219"><ele>229.0</ele><time>2026-04-18T12:05:43Z</time></trkpt><trkpt lat="45.13946424961714" lon="8.266858569375819"><ele>229.50000000000003</ele><time>2026-04-18T12:05:44Z</time></trkpt><trkpt lat="45.139421921204224" lon="8.26696055907506"><ele>230.0</ele><time>2026-04-18T12:05:45Z</time></trkpt><trkpt lat="45.13940430091476" lon="8.26706844274959"><ele>230.00000000000003</ele><time>2026-04-18T12:05:46Z</time></trkpt><trkpt lat="45.13939339629026" lon="8.267200841923188"><ele>230.0</ele><time>2026-04-18T12:05:47Z</time></trkpt><trkpt lat="45.139373148545396" lon="8.26732684027192"><ele>230.0</ele><time>2026-04-18T12:05:48Z</time></trkpt><trkpt lat="45.13935936185257" lon="8.2674436216386"><ele>230.0</ele><time>2026-04-18T12:05:49Z</time></trkpt><trkpt lat="45.13934732656275" lon="8.267570418478975"><ele>230.00000000000003</ele><time>2026-04-18T12:05:50Z</time></trkpt><trkpt lat="45.13933519286345" lon="8.26768730065903"><ele>230.0</ele><time>2026-04-18T12:05:51Z</time></trkpt><trkpt lat="45.13931948308408" lon="8.267782495050287"><ele>230.2</ele><time>2026-04-18T12:05:52Z</time></trkpt><trkpt lat="45.13928910055342" lon="8.267885627950552"><ele>230.4</ele><time>2026-04-18T12:05:53Z</time></trkpt><trkpt lat="45.139250097681284" lon="8.267988696413742"><ele>230.60000000000002</ele><time>2026-04-18T12:05:54Z</time></trkpt><trkpt lat="45.13916669333164" lon="8.268126899454764"><ele>230.8</ele><time>2026-04-18T12:05:56Z</time></trkpt><trkpt lat="45.139106495595684" lon="8.268190578949962"><ele>231.0</ele><time>2026-04-18T12:05:57Z</time></trkpt><trkpt lat="45.139034614363034" lon="8.268283549379586"><ele>231.0</ele><time>2026-04-18T12:05:58Z</time></trkpt><trkpt lat="45.13897806005767" lon="8.268368785795198"><ele>231.0</ele><time>2026-04-18T12:05:59Z</time></trkpt><trkpt lat="45.138938607429516" lon="8.268479654541473"><ele>231.0</ele><time>2026-04-18T12:06:00Z</time></trkpt><trkpt lat="45.13889467806963" lon="8.268607746690575"><ele>231.0</ele><time>2026-04-18T12:06:01Z</time></trkpt><trkpt lat="45.138845967809544" lon="8.268705699194793"><ele>231.0</ele><time>2026-04-18T12:06:02Z</time></trkpt><trkpt lat="45.13879714262479" lon="8.268808417434437"><ele>231.0</ele><time>2026-04-18T12:06:03Z</time></trkpt><trkpt lat="45.138758439383835" lon="8.268917223004804"><ele>233.16666666666666</ele><time>2026-04-18T12:06:04Z</time></trkpt><trkpt lat="45.13872359310829" lon="8.269030622360543"><ele>235.33333333333331</ele><time>2026-04-18T12:06:05Z</time></trkpt><trkpt lat="45.138691680407" lon="8.269129600880373"><ele>237.5</ele><time>2026-04-18T12:06:06Z</time></trkpt><trkpt lat="45.138672570030344" lon="8.26927746227985"><ele>239.66666666666666</ele><time>2026-04-18T12:06:08Z</time></trkpt><trkpt lat="45.138666527335126" lon="8.269368359451967"><ele>241.83333333333331</ele><time>2026-04-18T12:06:09Z</time></trkpt><trkpt lat="45.13868365225532" lon="8.269473221979624"><ele>244.0</ele><time>2026-04-18T12:06:11Z</time></trkpt><trkpt lat="45.13876630209725" lon="8.269497389126972"><ele>243.99999999999997</ele><time>2026-04-18T12:06:13Z</time></trkpt><trkpt lat="45.13878035558789" lon="8.269632759456554"><ele>244.0</ele><time>2026-04-18T12:06:15Z</time></trkpt><trkpt lat="45.13876346464947" lon="8.269725685493638"><ele>244.0</ele><time>2026-04-18T12:06:16Z</time></trkpt><trkpt lat="45.13876017180401" lon="8.26986428829205"><ele>244.0</ele><time>2026-04-18T12:06:18Z</time></trkpt><trkpt lat="45.13875197559519" lon="8.269989241523252"><ele>243.99999999999997</ele><time>2026-04-18T12:06:21Z</time></trkpt><trkpt lat="45.13875220715544" lon="8.2700963021078"><ele>244.0</ele><time>2026-04-18T12:06:23Z</time></trkpt><trkpt lat="45.138741906079694" lon="8.270185768180468"><ele>244.39999999999998</ele><time>2026-04-18T12:06:25Z</time></trkpt><trkpt lat="45.13873792810046" lon="8.270329870801067"><ele>244.79999999999998</ele><time>2026-04-18T12:06:27Z</time></trkpt><trkpt lat="45.13873383590745" lon="8.270481059738161"><ele>245.20000000000002</ele><time>2026-04-18T12:06:29Z</time></trkpt><trkpt lat="45.1387330169345" lon="8.27063470347762"><ele>245.60000000000002</ele><time>2026-04-18T12:06:31Z</time></trkpt><trkpt lat="45.138747896933104" lon="8.27080346922301"><ele>246.0</ele><time>2026-04-18T12:06:33Z</time></trkpt><trkpt lat="45.13876287741519" lon="8.270897032688486"><ele>244.8</ele><time>2026-04-18T12:06:34Z</time></trkpt><trkpt lat="45.13876969450048" lon="8.270998882909163"><ele>243.60000000000002</ele><time>2026-04-18T12:06:35Z</time></trkpt><trkpt lat="45.138789473398205" lon="8.27109755186307"><ele>242.4</ele><time>2026-04-18T12:06:36Z</time></trkpt><trkpt lat="45.13879825415374" lon="8.271251287024562"><ele>241.2</ele><time>2026-04-18T12:06:38Z</time></trkpt><trkpt lat="45.138793141025396" lon="8.27140838868791"><ele>240.0</ele><time>2026-04-18T12:06:40Z</time></trkpt><trkpt lat="45.13879086761453" lon="8.271556844574143"><ele>239.5</ele><time>2026-04-18T12:06:42Z</time></trkpt><trkpt lat="45.13879338729293" lon="8.271697183829403"><ele>239.0</ele><time>2026-04-18T12:06:44Z</time></trkpt><trkpt lat="45.138784400131364" lon="8.271883801623046"><ele>238.5</ele><time>2026-04-18T12:06:46Z</time></trkpt><trkpt lat="45.13877314604692" lon="8.272039723586863"><ele>238.0</ele><time>2026-04-18T12:06:48Z</time></trkpt><trkpt lat="45.138763948550356" lon="8.272198302722288"><ele>237.25</ele><time>2026-04-18T12:06:50Z</time></trkpt><trkpt lat="45.13875487001057" lon="8.272353441243538"><ele>236.5</ele><time>2026-04-18T12:06:52Z</time></trkpt><trkpt lat="45.13872033019522" lon="8.272520616448018"><ele>235.75</ele><time>2026-04-18T12:06:54Z</time></trkpt><trkpt lat="45.138662260245646" lon="8.272666740619814"><ele>235.0</ele><time>2026-04-18T12:06:56Z</time></trkpt><trkpt lat="45.138592593204265" lon="8.27278188626912"><ele>235.0</ele><time>2026-04-18T12:06:58Z</time></trkpt><trkpt lat="45.138536688291104" lon="8.272866657320423"><ele>235.0</ele><time>2026-04-18T12:07:00Z</time></trkpt><trkpt lat="45.13848009400494" lon="8.272992334250924"><ele>235.0</ele><time>2026-04-18T12:07:02Z</time></trkpt><trkpt lat="45.13846769813806" lon="8.27312432506223"><ele>235.0</ele><time>2026-04-18T12:07:04Z</time></trkpt><trkpt lat="45.138459761311665" lon="8.27323671712183"><ele>235.0</ele><time>2026-04-18T12:07:06Z</time></trkpt><trkpt lat="45.138496289167534" lon="8.273407237398246"><ele>233.33333333333331</ele><time>2026-04-18T12:07:08Z</time></trkpt><trkpt lat="45.138503386731195" lon="8.273522695063829"><ele>231.66666666666666</ele><time>2026-04-18T12:07:09Z</time></trkpt><trkpt lat="45.13853078921252" lon="8.273637057234563"><ele>230.0</ele><time>2026-04-18T12:07:10Z</time></trkpt><trkpt lat="45.138557993771656" lon="8.273744030478147"><ele>228.33333333333331</ele><time>2026-04-18T12:07:11Z</time></trkpt><trkpt lat="45.138565710688106" lon="8.273846466019894"><ele>226.66666666666666</ele><time>2026-04-18T12:07:12Z</time></trkpt><trkpt lat="45.13857754301705" lon="8.273993274027923"><ele>225.0</ele><time>2026-04-18T12:07:14Z</time></trkpt><trkpt lat="45.138597633826365" lon="8.274147846516529"><ele>224.4</ele><time>2026-04-18T12:07:16Z</time></trkpt><trkpt lat="45.13860762534903" lon="8.274306799418042"><ele>223.8</ele><time>2026-04-18T12:07:18Z</time></trkpt><trkpt lat="45.13861314601493" lon="8.274458934186729"><ele>223.2</ele><time>2026-04-18T12:07:20Z</time></trkpt><trkpt lat="45.13862102413443" lon="8.274590731029063"><ele>222.6</ele><time>2026-04-18T12:07:22Z</time></trkpt><trkpt lat="45.13864952025236" lon="8.274691533708872"><ele>222.0</ele><time>2026-04-18T12:07:24Z</time></trkpt><trkpt lat="45.1386984461838" lon="8.274839158680903"><ele>222.0</ele><time>2026-04-18T12:07:26Z</time></trkpt><trkpt lat="45.138734695807365" lon="8.27494186232451"><ele>222.0</ele><time>2026-04-18T12:07:28Z</time></trkpt><trkpt lat="45.13878570104492" lon="8.275081540960052"><ele>222.0</ele><time>2026-04-18T12:07:30Z</time></trkpt><trkpt lat="45.138800827120164" lon="8.275229941856553"><ele>222.0</ele><time>2026-04-18T12:07:32Z</time></trkpt><trkpt lat="45.13879277785734" lon="8.275379658737316"><ele>222.0</ele><time>2026-04-18T12:07:34Z</time></trkpt><trkpt lat="45.13882984364816" lon="8.275474380023972"><ele>222.0</ele><time>2026-04-18T12:07:36Z</time></trkpt><trkpt lat="45.13888268012817" lon="8.275529322255666"><ele>222.0</ele><time>2026-04-18T12:07:37Z</time></trkpt><trkpt lat="45.13894375715191" lon="8.275582646836808"><ele>222.0</ele><time>2026-04-18T12:07:38Z</time></trkpt><trkpt lat="45.13899454305788" lon="8.275644903603679"><ele>222.0</ele><time>2026-04-18T12:07:39Z</time></trkpt><trkpt lat="45.139028391622325" lon="8.275730640329954"><ele>222.0</ele><time>2026-04-18T12:07:40Z</time></trkpt><trkpt lat="45.139053169426596" lon="8.275832523156055"><ele>222.0</ele><time>2026-04-18T12:07:41Z</time></trkpt><trkpt lat="45.13906613865402" lon="8.275950464386321"><ele>222.0</ele><time>2026-04-18T12:07:42Z</time></trkpt><trkpt lat="45.13907961318159" lon="8.276072759068583"><ele>218.28571428571428</ele><time>2026-04-18T12:07:43Z</time></trkpt><trkpt lat="45.13909343458515" lon="8.276180685146008"><ele>214.57142857142858</ele><time>2026-04-18T12:07:44Z</time></trkpt><trkpt lat="45.13910621399582" lon="8.276269974543805"><ele>210.85714285714286</ele><time>2026-04-18T12:07:45Z</time></trkpt><trkpt lat="45.13912466495407" lon="8.276361344570667"><ele>207.14285714285714</ele><time>2026-04-18T12:07:46Z</time></trkpt><trkpt lat="45.139141394574004" lon="8.2764571333462"><ele>203.42857142857144</ele><time>2026-04-18T12:07:47Z</time></trkpt><trkpt lat="45.13915096265891" lon="8.276547754897"><ele>199.71428571428572</ele><time>2026-04-18T12:07:48Z</time></trkpt><trkpt lat="45.1391621910086" lon="8.276646536110885"><ele>196.0</ele><time>2026-04-18T12:07:49Z</time></trkpt><trkpt lat="45.13916770899815" lon="8.27675020972374"><ele>195.99999999999997</ele><time>2026-04-18T12:07:50Z</time></trkpt><trkpt lat="45.13916518810937" lon="8.276843205304996"><ele>196.0</ele><time>2026-04-18T12:07:51Z</time></trkpt><trkpt lat="45.13916046417691" lon="8.276935921944977"><ele>196.0</ele><time>2026-04-18T12:07:52Z</time></trkpt><trkpt lat="45.13914123836361" lon="8.277082354424545"><ele>196.0</ele><time>2026-04-18T12:07:54Z</time></trkpt><trkpt lat="45.139120578647685" lon="8.277213048421066"><ele>195.99999999999997</ele><time>2026-04-18T12:07:56Z</time></trkpt><trkpt lat="45.139111555487865" lon="8.27732703725127"><ele>196.0</ele><time>2026-04-18T12:07:58Z</time></trkpt><trkpt lat="45.13917507783713" lon="8.277429244964512"><ele>195.33333333333331</ele><time>2026-04-18T12:08:01Z</time></trkpt><trkpt lat="45.13923173626853" lon="8.27747985388152"><ele>194.66666666666666</ele><time>2026-04-18T12:08:02Z</time></trkpt><trkpt lat="45.139283077307276" lon="8.27754685680096"><ele>194.0</ele><time>2026-04-18T12:08:03Z</time></trkpt><trkpt lat="45.13933480883809" lon="8.277614096787158"><ele>193.33333333333331</ele><time>2026-04-18T12:08:04Z</time></trkpt><trkpt lat="45.13941054027395" lon="8.277732457522646"><ele>192.66666666666666</ele><time>2026-04-18T12:08:06Z</time></trkpt><trkpt lat="45.1394405953367" lon="8.277833699950941"><ele>192.0</ele><time>2026-04-18T12:08:08Z</time></trkpt><trkpt lat="45.13937612702643" lon="8.277974215029912"><ele>191.8</ele><time>2026-04-18T12:08:10Z</time></trkpt><trkpt lat="45.1393201965215" lon="8.27810562891909"><ele>191.6</ele><time>2026-04-18T12:08:12Z</time></trkpt><trkpt lat="45.13925511078667" lon="8.278217658310304"><ele>191.4</ele><time>2026-04-18T12:08:15Z</time></trkpt><trkpt lat="45.13921301143613" lon="8.278298489248533"><ele>191.20000000000002</ele><time>2026-04-18T12:08:17Z</time></trkpt><trkpt lat="45.1391869173267" lon="8.278396565955395"><ele>191.0</ele><time>2026-04-18T12:08:26Z</time></trkpt><trkpt lat="45.13927158818127" lon="8.27820646866447"><ele>191.0</ele><time>2026-04-18T12:08:42Z</time></trkpt><trkpt lat="45.13931658848712" lon="8.278092670824408"><ele>191.0</ele><time>2026-04-18T12:08:43Z</time></trkpt><trkpt lat="45.13934766187436" lon="8.277979603130001"><ele>191.0</ele><time>2026-04-18T12:08:44Z</time></trkpt><trkpt lat="45.13940388602094" lon="8.27788362599385"><ele>191.0</ele><time>2026-04-18T12:08:47Z</time></trkpt><trkpt lat="45.13944634989041" lon="8.277950299675124"><ele>191.0</ele><time>2026-04-18T12:08:49Z</time></trkpt><trkpt lat="45.13946448017042" lon="8.27813435829903"><ele>191.0</ele><time>2026-04-18T12:08:51Z</time></trkpt><trkpt lat="45.13950262811254" lon="8.278274939659731"><ele>191.0</ele><time>2026-04-18T12:08:53Z</time></trkpt><trkpt lat="45.139557812288444" lon="8.278431044705943"><ele>191.0</ele><time>2026-04-18T12:08:55Z</time></trkpt><trkpt lat="45.139635090569584" lon="8.2785516340123"><ele>191.0</ele><time>2026-04-18T12:08:57Z</time></trkpt><trkpt lat="45.13968221704907" lon="8.278637403367785"><ele>191.0</ele><time>2026-04-18T12:08:57.999Z</time></trkpt><trkpt lat="45.139718619248505" lon="8.278782807638315"><ele>191.0</ele><time>2026-04-18T12:08:59.999Z</time></trkpt><trkpt lat="45.13974058442734" lon="8.278875499977874"><ele>191.0</ele><time>2026-04-18T12:09:00.999Z</time></trkpt><trkpt lat="45.13975892565922" lon="8.278963197534122"><ele>191.0</ele><time>2026-04-18T12:09:01.999Z</time></trkpt><trkpt lat="45.13979372230039" lon="8.27911604519712"><ele>191.0</ele><time>2026-04-18T12:09:03.999Z</time></trkpt><trkpt lat="45.139835657653855" lon="8.279250967691784"><ele>191.0</ele><time>2026-04-18T12:09:05.999Z</time></trkpt><trkpt lat="45.13985179517552" lon="8.279341998488773"><ele>191.0</ele><time>2026-04-18T12:09:06.999Z</time></trkpt><trkpt lat="45.13986602024112" lon="8.27943154507054"><ele>191.33333333333331</ele><time>2026-04-18T12:09:07.999Z</time></trkpt><trkpt lat="45.139908019395136" lon="8.279607944451676"><ele>191.66666666666666</ele><time>2026-04-18T12:09:09.999Z</time></trkpt><trkpt lat="45.13992764870695" lon="8.279703932354495"><ele>192.0</ele><time>2026-04-18T12:09:10.999Z</time></trkpt><trkpt lat="45.13994580436344" lon="8.279802542400697"><ele>192.33333333333331</ele><time>2026-04-18T12:09:11.999Z</time></trkpt><trkpt lat="45.13996362439749" lon="8.27990842905181"><ele>192.66666666666666</ele><time>2026-04-18T12:09:12.999Z</time></trkpt><trkpt lat="45.13998308496324" lon="8.280016613277295"><ele>193.0</ele><time>2026-04-18T12:09:13.999Z</time></trkpt><trkpt lat="45.14000497775287" lon="8.280116706446723"><ele>192.00000000000003</ele><time>2026-04-18T12:09:14.999Z</time></trkpt><trkpt lat="45.14002519551042" lon="8.280216670550631"><ele>191.0</ele><time>2026-04-18T12:09:15.999Z</time></trkpt><trkpt lat="45.14004131055448" lon="8.280308438945355"><ele>190.0</ele><time>2026-04-18T12:09:16.999Z</time></trkpt><trkpt lat="45.140055583104356" lon="8.280403948717618"><ele>189.0</ele><time>2026-04-18T12:09:17.999Z</time></trkpt><trkpt lat="45.14007140898532" lon="8.280502880672508"><ele>188.0</ele><time>2026-04-18T12:09:18.999Z</time></trkpt><trkpt lat="45.14007734178375" lon="8.280597959712505"><ele>187.00000000000003</ele><time>2026-04-18T12:09:19.999Z</time></trkpt><trkpt lat="45.140078919469545" lon="8.28069866541103"><ele>186.0</ele><time>2026-04-18T12:09:20.999Z</time></trkpt><trkpt lat="45.1400800801654" lon="8.280791404741835"><ele>185.83333333333334</ele><time>2026-04-18T12:09:21.999Z</time></trkpt><trkpt lat="45.14007468175134" lon="8.280885056576178"><ele>185.66666666666666</ele><time>2026-04-18T12:09:22.999Z</time></trkpt><trkpt lat="45.14007015655073" lon="8.280987005081892"><ele>185.5</ele><time>2026-04-18T12:09:23.999Z</time></trkpt><trkpt lat="45.1400628376527" lon="8.281089243740622"><ele>185.33333333333331</ele><time>2026-04-18T12:09:24.999Z</time></trkpt><trkpt lat="45.140066034957414" lon="8.281187386064278"><ele>185.16666666666666</ele><time>2026-04-18T12:09:25.999Z</time></trkpt><trkpt lat="45.140071063553485" lon="8.281356175509735"><ele>185.0</ele><time>2026-04-18T12:09:27.999Z</time></trkpt><trkpt lat="45.14007545358197" lon="8.281529630752386"><ele>185.0</ele><time>2026-04-18T12:09:29.999Z</time></trkpt><trkpt lat="45.140068427398795" lon="8.281629894859623"><ele>185.0</ele><time>2026-04-18T12:09:30.999Z</time></trkpt><trkpt lat="45.14007658194108" lon="8.281793174993277"><ele>185.0</ele><time>2026-04-18T12:09:32.999Z</time></trkpt><trkpt lat="45.140078047339976" lon="8.281948927434366"><ele>185.0</ele><time>2026-04-18T12:09:34.999Z</time></trkpt><trkpt lat="45.1400662969232" lon="8.282047932650404"><ele>185.0</ele><time>2026-04-18T12:09:35.999Z</time></trkpt><trkpt lat="45.14006405978959" lon="8.28214843908671"><ele>185.0</ele><time>2026-04-18T12:09:36.999Z</time></trkpt><trkpt lat="45.140088629222475" lon="8.282275537337219"><ele>184.75</ele><time>2026-04-18T12:09:38.999Z</time></trkpt><trkpt lat="45.14010514891744" lon="8.282432952199018"><ele>184.5</ele><time>2026-04-18T12:09:40.999Z</time></trkpt><trkpt lat="45.14015016686255" lon="8.28257675954662"><ele>184.25</ele><time>2026-04-18T12:09:42.999Z</time></trkpt><trkpt lat="45.14018575371772" lon="8.282752125366832"><ele>184.0</ele><time>2026-04-18T12:09:44.999Z</time></trkpt><trkpt lat="45.14022341797082" lon="8.282945324680716"><ele>184.0</ele><time>2026-04-18T12:09:46.999Z</time></trkpt><trkpt lat="45.140232386940596" lon="8.28304960032418"><ele>184.0</ele><time>2026-04-18T12:09:47.999Z</time></trkpt><trkpt lat="45.14023162132796" lon="8.283141646673386"><ele>184.0</ele><time>2026-04-18T12:09:48.999Z</time></trkpt><trkpt lat="45.14020090317804" lon="8.28328110954169"><ele>184.0</ele><time>2026-04-18T12:09:50.999Z</time></trkpt><trkpt lat="45.1402024012549" lon="8.283377700428996"><ele>184.0</ele><time>2026-04-18T12:09:52.999Z</time></trkpt><trkpt lat="45.14028104656692" lon="8.283499678795055"><ele>184.0</ele><time>2026-04-18T12:09:54.999Z</time></trkpt><trkpt lat="45.140346798680014" lon="8.28364516675738"><ele>184.39999999999998</ele><time>2026-04-18T12:09:56.999Z</time></trkpt><trkpt lat="45.14036818052264" lon="8.28375116631964"><ele>184.8</ele><time>2026-04-18T12:09:58.999Z</time></trkpt><trkpt lat="45.14039269371886" lon="8.283906042779352"><ele>185.2</ele><time>2026-04-18T12:10:00.999Z</time></trkpt><trkpt lat="45.14039725004796" lon="8.28400840651097"><ele>185.60000000000002</ele><time>2026-04-18T12:10:01.999Z</time></trkpt><trkpt lat="45.14039775367211" lon="8.284172742817601"><ele>186.0</ele><time>2026-04-18T12:10:03.999Z</time></trkpt><trkpt lat="45.140401769390444" lon="8.284324097628003"><ele>187.42857142857144</ele><time>2026-04-18T12:10:05.999Z</time></trkpt><trkpt lat="45.14042825688271" lon="8.284410590424992"><ele>188.85714285714286</ele><time>2026-04-18T12:10:06.999Z</time></trkpt><trkpt lat="45.14046972390793" lon="8.284484080489083"><ele>190.28571428571428</ele><time>2026-04-18T12:10:07.999Z</time></trkpt><trkpt lat="45.140490973324674" lon="8.284580042888102"><ele>191.71428571428572</ele><time>2026-04-18T12:10:08.999Z</time></trkpt><trkpt lat="45.140512893790834" lon="8.284676283117259"><ele>193.14285714285714</ele><time>2026-04-18T12:10:09.999Z</time></trkpt><trkpt lat="45.140527184326366" lon="8.284777490148175"><ele>194.57142857142858</ele><time>2026-04-18T12:10:10.999Z</time></trkpt><trkpt lat="45.140526014574846" lon="8.284873949278941"><ele>196.0</ele><time>2026-04-18T12:10:11.999Z</time></trkpt><trkpt lat="45.14051762214639" lon="8.284983300319512"><ele>196.16666666666666</ele><time>2026-04-18T12:10:12.999Z</time></trkpt><trkpt lat="45.14052006922375" lon="8.285092134621513"><ele>196.33333333333331</ele><time>2026-04-18T12:10:13.999Z</time></trkpt><trkpt lat="45.14051963068169" lon="8.285215547137836"><ele>196.5</ele><time>2026-04-18T12:10:14.999Z</time></trkpt><trkpt lat="45.140521165409716" lon="8.28533691489698"><ele>196.66666666666669</ele><time>2026-04-18T12:10:15.999Z</time></trkpt><trkpt lat="45.14052397139131" lon="8.285450091167728"><ele>196.83333333333334</ele><time>2026-04-18T12:10:16.999Z</time></trkpt><trkpt lat="45.14051874836315" lon="8.285565312522737"><ele>197.0</ele><time>2026-04-18T12:10:17.999Z</time></trkpt><trkpt lat="45.140503156922016" lon="8.285676766263446"><ele>197.0</ele><time>2026-04-18T12:10:18.999Z</time></trkpt><trkpt lat="45.140481849435176" lon="8.285795549650764"><ele>197.0</ele><time>2026-04-18T12:10:19.999Z</time></trkpt><trkpt lat="45.140448394910656" lon="8.285913777941666"><ele>197.0</ele><time>2026-04-18T12:10:20.999Z</time></trkpt><trkpt lat="45.14042647816308" lon="8.286039314498202"><ele>197.0</ele><time>2026-04-18T12:10:21.999Z</time></trkpt><trkpt lat="45.14041348652115" lon="8.286175309007382"><ele>197.0</ele><time>2026-04-18T12:10:22.999Z</time></trkpt><trkpt lat="45.14039712550198" lon="8.286302577263575"><ele>197.83333333333334</ele><time>2026-04-18T12:10:23.999Z</time></trkpt><trkpt lat="45.14038716530903" lon="8.286434231462092"><ele>198.66666666666669</ele><time>2026-04-18T12:10:24.999Z</time></trkpt><trkpt lat="45.14038761161886" lon="8.286542842615324"><ele>199.5</ele><time>2026-04-18T12:10:25.999Z</time></trkpt><trkpt lat="45.1403813589937" lon="8.286650892398308"><ele>200.33333333333331</ele><time>2026-04-18T12:10:26.999Z</time></trkpt><trkpt lat="45.14037204396012" lon="8.28675460206791"><ele>201.16666666666666</ele><time>2026-04-18T12:10:27.999Z</time></trkpt><trkpt lat="45.14036757946788" lon="8.28687502881391"><ele>202.0</ele><time>2026-04-18T12:10:28.999Z</time></trkpt><trkpt lat="45.14037567177872" lon="8.286989908742278"><ele>202.0</ele><time>2026-04-18T12:10:29.999Z</time></trkpt><trkpt lat="45.14037862614234" lon="8.28712049121619"><ele>202.0</ele><time>2026-04-18T12:10:30.999Z</time></trkpt><trkpt lat="45.14039699277073" lon="8.287254226774552"><ele>202.0</ele><time>2026-04-18T12:10:31.999Z</time></trkpt><trkpt lat="45.14041868818767" lon="8.287390421250889"><ele>202.0</ele><time>2026-04-18T12:10:32.999Z</time></trkpt><trkpt lat="45.140431839472406" lon="8.287526106666787"><ele>202.0</ele><time>2026-04-18T12:10:33.999Z</time></trkpt><trkpt lat="45.140438361565586" lon="8.287665667553426"><ele>204.0</ele><time>2026-04-18T12:10:34.999Z</time></trkpt><trkpt lat="45.140443407323296" lon="8.287797082693217"><ele>206.0</ele><time>2026-04-18T12:10:35.999Z</time></trkpt><trkpt lat="45.14044816195372" lon="8.28793191570684"><ele>208.0</ele><time>2026-04-18T12:10:36.999Z</time></trkpt><trkpt lat="45.14046113311089" lon="8.288053390366187"><ele>210.0</ele><time>2026-04-18T12:10:37.999Z</time></trkpt><trkpt lat="45.140470959677664" lon="8.288183167044593"><ele>212.0</ele><time>2026-04-18T12:10:38.999Z</time></trkpt><trkpt lat="45.1404767953619" lon="8.28831540345305"><ele>213.39999999999998</ele><time>2026-04-18T12:10:39.999Z</time></trkpt><trkpt lat="45.14047585898197" lon="8.288444845881319"><ele>214.79999999999998</ele><time>2026-04-18T12:10:40.999Z</time></trkpt><trkpt lat="45.140480837564816" lon="8.288590347560039"><ele>216.2</ele><time>2026-04-18T12:10:41.999Z</time></trkpt><trkpt lat="45.14048351192897" lon="8.28873312570385"><ele>217.6</ele><time>2026-04-18T12:10:42.999Z</time></trkpt><trkpt lat="45.14048770690579" lon="8.28887176306961"><ele>219.0</ele><time>2026-04-18T12:10:43.999Z</time></trkpt><trkpt lat="45.14049143802503" lon="8.289000389081176"><ele>220.6</ele><time>2026-04-18T12:10:44.999Z</time></trkpt><trkpt lat="45.140495015220196" lon="8.28913145264353"><ele>222.2</ele><time>2026-04-18T12:10:45.999Z</time></trkpt><trkpt lat="45.14051041098857" lon="8.289288572939155"><ele>223.79999999999998</ele><time>2026-04-18T12:10:46.999Z</time></trkpt><trkpt lat="45.14051423046481" lon="8.28943431014806"><ele>225.39999999999998</ele><time>2026-04-18T12:10:47.999Z</time></trkpt><trkpt lat="45.14051784382711" lon="8.289579407904831"><ele>227.0</ele><time>2026-04-18T12:10:48.999Z</time></trkpt><trkpt lat="45.14051318010434" lon="8.289718960938396"><ele>227.8</ele><time>2026-04-18T12:10:49.999Z</time></trkpt><trkpt lat="45.14051411750992" lon="8.289860830864544"><ele>228.6</ele><time>2026-04-18T12:10:50.999Z</time></trkpt><trkpt lat="45.14052397350109" lon="8.290014089354804"><ele>229.40000000000003</ele><time>2026-04-18T12:10:51.999Z</time></trkpt><trkpt lat="45.140524699173056" lon="8.290171153556335"><ele>230.20000000000002</ele><time>2026-04-18T12:10:52.999Z</time></trkpt><trkpt lat="45.14053415891573" lon="8.290290095724375"><ele>231.0</ele><time>2026-04-18T12:10:53.999Z</time></trkpt><trkpt lat="45.14053842142251" lon="8.290441749052219"><ele>231.0</ele><time>2026-04-18T12:10:55.999Z</time></trkpt><trkpt lat="45.14055125644148" lon="8.290536841093468"><ele>231.00000000000003</ele><time>2026-04-18T12:10:58.999Z</time></trkpt><trkpt lat="45.14058102147918" lon="8.290681765570053"><ele>231.00000000000003</ele><time>2026-04-18T12:11:00.999Z</time></trkpt><trkpt lat="45.14063718910506" lon="8.290850837759733"><ele>231.0</ele><time>2026-04-18T12:11:02.999Z</time></trkpt><trkpt lat="45.140662843128936" lon="8.290955095837722"><ele>231.0</ele><time>2026-04-18T12:11:03.999Z</time></trkpt><trkpt lat="45.140718718303475" lon="8.291068618111643"><ele>230.8</ele><time>2026-04-18T12:11:04.999Z</time></trkpt><trkpt lat="45.14078358778402" lon="8.291177704876402"><ele>230.60000000000002</ele><time>2026-04-18T12:11:05.999Z</time></trkpt><trkpt lat="45.140868223307244" lon="8.29128537957668"><ele>230.4</ele><time>2026-04-18T12:11:06.999Z</time></trkpt><trkpt lat="45.14096044155024" lon="8.291383278208054"><ele>230.2</ele><time>2026-04-18T12:11:07.999Z</time></trkpt><trkpt lat="45.14105366503574" lon="8.29147731307328"><ele>230.0</ele><time>2026-04-18T12:11:08.999Z</time></trkpt><trkpt lat="45.1411496467905" lon="8.291544495951173"><ele>230.0</ele><time>2026-04-18T12:11:09.999Z</time></trkpt><trkpt lat="45.14124687799767" lon="8.291591145047672"><ele>230.0</ele><time>2026-04-18T12:11:10.999Z</time></trkpt><trkpt lat="45.14135022107224" lon="8.2916157948795"><ele>230.0</ele><time>2026-04-18T12:11:11.999Z</time></trkpt><trkpt lat="45.14144978500227" lon="8.291634481509307"><ele>230.0</ele><time>2026-04-18T12:11:12.999Z</time></trkpt><trkpt lat="45.14154503324661" lon="8.291651536162579"><ele>230.0</ele><time>2026-04-18T12:11:13.999Z</time></trkpt><trkpt lat="45.14164267663607" lon="8.291664754856251"><ele>230.0</ele><time>2026-04-18T12:11:14.999Z</time></trkpt><trkpt lat="45.141734480004246" lon="8.291685529878894"><ele>230.0</ele><time>2026-04-18T12:11:15.999Z</time></trkpt><trkpt lat="45.141824536058515" lon="8.291711491448034"><ele>230.0</ele><time>2026-04-18T12:11:16.999Z</time></trkpt><trkpt lat="45.14191318404727" lon="8.29173614197757"><ele>230.0</ele><time>2026-04-18T12:11:17.999Z</time></trkpt><trkpt lat="45.142001301396235" lon="8.291752859388717"><ele>230.0</ele><time>2026-04-18T12:11:18.999Z</time></trkpt><trkpt lat="45.14209066122297" lon="8.291769403032886"><ele>230.0</ele><time>2026-04-18T12:11:19.999Z</time></trkpt><trkpt lat="45.14217776797929" lon="8.291783335121687"><ele>230.0</ele><time>2026-04-18T12:11:20.999Z</time></trkpt><trkpt lat="45.14228190322561" lon="8.291809532440785"><ele>230.0</ele><time>2026-04-18T12:11:21.999Z</time></trkpt><trkpt lat="45.14239200264952" lon="8.291839705416852"><ele>230.0</ele><time>2026-04-18T12:11:22.999Z</time></trkpt><trkpt lat="45.14250714181456" lon="8.291869826771814"><ele>230.0</ele><time>2026-04-18T12:11:23.999Z</time></trkpt><trkpt lat="45.14262303791474" lon="8.29190012027396"><ele>229.2</ele><time>2026-04-18T12:11:24.999Z</time></trkpt><trkpt lat="45.14273851857498" lon="8.291936276769412"><ele>228.4</ele><time>2026-04-18T12:11:25.999Z</time></trkpt><trkpt lat="45.1428457881047" lon="8.291982913140497"><ele>227.60000000000002</ele><time>2026-04-18T12:11:26.999Z</time></trkpt><trkpt lat="45.142948608521664" lon="8.29202603589955"><ele>226.8</ele><time>2026-04-18T12:11:27.999Z</time></trkpt><trkpt lat="45.14304746023865" lon="8.292073266732302"><ele>226.0</ele><time>2026-04-18T12:11:28.999Z</time></trkpt><trkpt lat="45.143138402387606" lon="8.292122723481327"><ele>225.8</ele><time>2026-04-18T12:11:29.999Z</time></trkpt><trkpt lat="45.14322523100351" lon="8.292169303326014"><ele>225.60000000000002</ele><time>2026-04-18T12:11:30.999Z</time></trkpt><trkpt lat="45.143311845537816" lon="8.292211654328653"><ele>225.4</ele><time>2026-04-18T12:11:31.999Z</time></trkpt><trkpt lat="45.14339114231364" lon="8.29228409673212"><ele>225.2</ele><time>2026-04-18T12:11:32.999Z</time></trkpt><trkpt lat="45.143478681512356" lon="8.29237827239864"><ele>225.0</ele><time>2026-04-18T12:11:33.999Z</time></trkpt><trkpt lat="45.14357217735227" lon="8.29248742207197"><ele>222.5</ele><time>2026-04-18T12:11:34.999Z</time></trkpt><trkpt lat="45.14367077180972" lon="8.292612706119467"><ele>220.0</ele><time>2026-04-18T12:11:35.999Z</time></trkpt><trkpt lat="45.14377449311787" lon="8.29274691898474"><ele>217.5</ele><time>2026-04-18T12:11:36.999Z</time></trkpt><trkpt lat="45.14388448176975" lon="8.292884876008847"><ele>215.0</ele><time>2026-04-18T12:11:37.999Z</time></trkpt><trkpt lat="45.14399086575999" lon="8.2930183335359"><ele>214.0</ele><time>2026-04-18T12:11:38.999Z</time></trkpt><trkpt lat="45.14408978907544" lon="8.293146808853425"><ele>213.0</ele><time>2026-04-18T12:11:39.999Z</time></trkpt><trkpt lat="45.14418231972516" lon="8.29326965997895"><ele>212.0</ele><time>2026-04-18T12:11:40.999Z</time></trkpt><trkpt lat="45.14427187775616" lon="8.293388940500211"><ele>211.0</ele><time>2026-04-18T12:11:41.999Z</time></trkpt><trkpt lat="45.14436114616478" lon="8.293495348577704"><ele>211.0</ele><time>2026-04-18T12:11:42.999Z</time></trkpt><trkpt lat="45.14445498811621" lon="8.293582939831827"><ele>211.0</ele><time>2026-04-18T12:11:43.999Z</time></trkpt><trkpt lat="45.14454757613601" lon="8.29364655989725"><ele>211.0</ele><time>2026-04-18T12:11:44.999Z</time></trkpt><trkpt lat="45.14464313608178" lon="8.293691234874176"><ele>211.0</ele><time>2026-04-18T12:11:45.999Z</time></trkpt><trkpt lat="45.144733963742404" lon="8.293717328349933"><ele>211.0</ele><time>2026-04-18T12:11:46.999Z</time></trkpt><trkpt lat="45.14482181935321" lon="8.293742574819913"><ele>210.83333333333331</ele><time>2026-04-18T12:11:47.999Z</time></trkpt><trkpt lat="45.144898584710184" lon="8.293779427450842"><ele>210.66666666666666</ele><time>2026-04-18T12:11:48.999Z</time></trkpt><trkpt lat="45.14497291861813" lon="8.293819172034121"><ele>210.5</ele><time>2026-04-18T12:11:49.999Z</time></trkpt><trkpt lat="45.145042316245416" lon="8.293847485537327"><ele>210.33333333333331</ele><time>2026-04-18T12:11:50.999Z</time></trkpt><trkpt lat="45.14510434195753" lon="8.293870502444465"><ele>210.16666666666666</ele><time>2026-04-18T12:11:51.999Z</time></trkpt><trkpt lat="45.145168899785176" lon="8.293872682727896"><ele>210.0</ele><time>2026-04-18T12:11:52.999Z</time></trkpt><trkpt lat="45.145260967401725" lon="8.293918259281936"><ele>208.75</ele><time>2026-04-18T12:11:54.999Z</time></trkpt><trkpt lat="45.14518405187636" lon="8.29414840480068"><ele>207.5</ele><time>2026-04-18T12:11:58.999Z</time></trkpt><trkpt lat="45.14519126758652" lon="8.29430571934334"><ele>206.25</ele><time>2026-04-18T12:12:00.999Z</time></trkpt><trkpt lat="45.14522602429705" lon="8.294384155030805"><ele>205.0</ele><time>2026-04-18T12:12:01.999Z</time></trkpt><trkpt lat="45.14527455020691" lon="8.294521588769404"><ele>205.0</ele><time>2026-04-18T12:12:03.999Z</time></trkpt><trkpt lat="45.1452464351986" lon="8.294653152401931"><ele>205.0</ele><time>2026-04-18T12:12:05.999Z</time></trkpt><trkpt lat="45.14513250666265" lon="8.294764887006437"><ele>205.0</ele><time>2026-04-18T12:12:07.999Z</time></trkpt><trkpt lat="45.14505880615402" lon="8.294819582854625"><ele>205.0</ele><time>2026-04-18T12:12:08.999Z</time></trkpt><trkpt lat="45.14495773083004" lon="8.294864190881993"><ele>205.0</ele><time>2026-04-18T12:12:09.999Z</time></trkpt><trkpt lat="45.1448618058502" lon="8.294900865927122"><ele>204.4</ele><time>2026-04-18T12:12:10.999Z</time></trkpt><trkpt lat="45.14477585175533" lon="8.294934444176084"><ele>203.8</ele><time>2026-04-18T12:12:11.999Z</time></trkpt><trkpt lat="45.14468475677427" lon="8.294992648678686"><ele>203.2</ele><time>2026-04-18T12:12:12.999Z</time></trkpt><trkpt lat="45.144604793290796" lon="8.295063454169368"><ele>202.6</ele><time>2026-04-18T12:12:13.999Z</time></trkpt><trkpt lat="45.14452694966571" lon="8.295140023560629"><ele>202.0</ele><time>2026-04-18T12:12:14.999Z</time></trkpt><trkpt lat="45.14444886783823" lon="8.295227925245655"><ele>201.99999999999997</ele><time>2026-04-18T12:12:15.999Z</time></trkpt><trkpt lat="45.14438373001701" lon="8.295320601718968"><ele>202.0</ele><time>2026-04-18T12:12:16.999Z</time></trkpt><trkpt lat="45.14432261253609" lon="8.29538751817503"><ele>202.0</ele><time>2026-04-18T12:12:17.999Z</time></trkpt><trkpt lat="45.14426910025413" lon="8.295446852284696"><ele>202.0</ele><time>2026-04-18T12:12:18.999Z</time></trkpt><trkpt lat="45.14422951282448" lon="8.295531219273254"><ele>201.99999999999997</ele><time>2026-04-18T12:12:19.999Z</time></trkpt><trkpt lat="45.14418390592745" lon="8.295613350503418"><ele>202.0</ele><time>2026-04-18T12:12:20.999Z</time></trkpt><trkpt lat="45.1441281854791" lon="8.295681851863923"><ele>200.99999999999997</ele><time>2026-04-18T12:12:21.999Z</time></trkpt><trkpt lat="45.14406761741451" lon="8.295769748948556"><ele>200.0</ele><time>2026-04-18T12:12:22.999Z</time></trkpt><trkpt lat="45.144007089652106" lon="8.295838052470499"><ele>199.0</ele><time>2026-04-18T12:12:23.999Z</time></trkpt><trkpt lat="45.14392939491227" lon="8.29590759254509"><ele>198.0</ele><time>2026-04-18T12:12:24.999Z</time></trkpt><trkpt lat="45.14386500021893" lon="8.29596869140304"><ele>196.99999999999997</ele><time>2026-04-18T12:12:25.999Z</time></trkpt><trkpt lat="45.14379450920916" lon="8.296037099912782"><ele>196.0</ele><time>2026-04-18T12:12:26.999Z</time></trkpt><trkpt lat="45.14373245239493" lon="8.296109648440599"><ele>195.99999999999997</ele><time>2026-04-18T12:12:28Z</time></trkpt><trkpt lat="45.14367916984479" lon="8.296194655653965"><ele>196.0</ele><time>2026-04-18T12:12:29Z</time></trkpt><trkpt lat="45.14362438676058" lon="8.296283164648274"><ele>196.0</ele><time>2026-04-18T12:12:30Z</time></trkpt><trkpt lat="45.1435732559103" lon="8.29635872144268"><ele>196.0</ele><time>2026-04-18T12:12:31Z</time></trkpt><trkpt lat="45.14351785645157" lon="8.296440634548258"><ele>195.99999999999997</ele><time>2026-04-18T12:12:32Z</time></trkpt><trkpt lat="45.14345897013865" lon="8.296523868712598"><ele>196.0</ele><time>2026-04-18T12:12:33Z</time></trkpt><trkpt lat="45.14338797292029" lon="8.2966031938162"><ele>195.99999999999997</ele><time>2026-04-18T12:12:34Z</time></trkpt><trkpt lat="45.14332754677953" lon="8.296682668376155"><ele>196.0</ele><time>2026-04-18T12:12:35Z</time></trkpt><trkpt lat="45.14325310719394" lon="8.296748618499494"><ele>196.0</ele><time>2026-04-18T12:12:36Z</time></trkpt><trkpt lat="45.14317560190168" lon="8.296804735739393"><ele>196.0</ele><time>2026-04-18T12:12:37Z</time></trkpt><trkpt lat="45.14309426636486" lon="8.296853450973703"><ele>195.99999999999997</ele><time>2026-04-18T12:12:38Z</time></trkpt><trkpt lat="45.14300677472082" lon="8.296893801609752"><ele>196.0</ele><time>2026-04-18T12:12:39Z</time></trkpt><trkpt lat="45.14293408852725" lon="8.296941295860124"><ele>195.8</ele><time>2026-04-18T12:12:40Z</time></trkpt><trkpt lat="45.14287180269573" lon="8.296995115320023"><ele>195.60000000000002</ele><time>2026-04-18T12:12:41Z</time></trkpt><trkpt lat="45.142778287266324" lon="8.297070560401686"><ele>195.4</ele><time>2026-04-18T12:12:43Z</time></trkpt><trkpt lat="45.14270174138443" lon="8.297112021755723"><ele>195.2</ele><time>2026-04-18T12:12:45Z</time></trkpt><trkpt lat="45.142620204811315" lon="8.297217208722072"><ele>195.0</ele><time>2026-04-18T12:12:48Z</time></trkpt><trkpt lat="45.142522801026" lon="8.29732343883965"><ele>195.0</ele><time>2026-04-18T12:12:50Z</time></trkpt><trkpt lat="45.14240409645591" lon="8.297409056100076"><ele>195.0</ele><time>2026-04-18T12:12:52Z</time></trkpt><trkpt lat="45.14232383879374" lon="8.297456348378168"><ele>195.0</ele><time>2026-04-18T12:12:54Z</time></trkpt><trkpt lat="45.14221218386051" lon="8.297519000502607"><ele>195.0</ele><time>2026-04-18T12:12:56Z</time></trkpt><trkpt lat="45.14213405410284" lon="8.297539384565367"><ele>195.0</ele><time>2026-04-18T12:12:58Z</time></trkpt><trkpt lat="45.142067777032665" lon="8.297570640187939"><ele>194.0</ele><time>2026-04-18T12:13:01Z</time></trkpt><trkpt lat="45.142003691250935" lon="8.29757095334619"><ele>193.0</ele><time>2026-04-18T12:13:06Z</time></trkpt><trkpt lat="45.141790706188424" lon="8.297618108790795"><ele>192.0</ele><time>2026-04-18T12:13:30Z</time></trkpt><trkpt lat="45.14172657277702" lon="8.297626568671653"><ele>191.0</ele><time>2026-04-18T12:13:31Z</time></trkpt><trkpt lat="45.14164726307154" lon="8.297630688777623"><ele>190.0</ele><time>2026-04-18T12:13:33Z</time></trkpt><trkpt lat="45.14156824340923" lon="8.297646178558184"><ele>190.5</ele><time>2026-04-18T12:13:35Z</time></trkpt><trkpt lat="45.141478412262906" lon="8.297699550331098"><ele>191.0</ele><time>2026-04-18T12:13:37Z</time></trkpt><trkpt lat="45.14146075225416" lon="8.297797713831796"><ele>191.5</ele><time>2026-04-18T12:13:39Z</time></trkpt><trkpt lat="45.141388135057696" lon="8.29783841550778"><ele>192.0</ele><time>2026-04-18T12:13:40Z</time></trkpt><trkpt lat="45.14130129895204" lon="8.297916724527008"><ele>192.49999999999997</ele><time>2026-04-18T12:13:42Z</time></trkpt><trkpt lat="45.14123010250805" lon="8.298002600071417"><ele>193.0</ele><time>2026-04-18T12:13:44Z</time></trkpt><trkpt lat="45.141151980238" lon="8.298106702734204"><ele>191.8</ele><time>2026-04-18T12:13:46Z</time></trkpt><trkpt lat="45.141071983318376" lon="8.298209373946522"><ele>190.60000000000002</ele><time>2026-04-18T12:13:48Z</time></trkpt><trkpt lat="45.14100098417984" lon="8.29828609771798"><ele>189.39999999999998</ele><time>2026-04-18T12:13:50Z</time></trkpt><trkpt lat="45.1409213103812" lon="8.298377845039424"><ele>188.2</ele><time>2026-04-18T12:13:52Z</time></trkpt><trkpt lat="45.14085438976021" lon="8.29846499276019"><ele>187.0</ele><time>2026-04-18T12:13:54Z</time></trkpt><trkpt lat="45.14081192227479" lon="8.298531695920442"><ele>187.0</ele><time>2026-04-18T12:13:56Z</time></trkpt><trkpt lat="45.14078594805679" lon="8.298615813889874"><ele>187.0</ele><time>2026-04-18T12:13:58Z</time></trkpt><trkpt lat="45.14080440086405" lon="8.29872353304394"><ele>187.0</ele><time>2026-04-18T12:14:00Z</time></trkpt><trkpt lat="45.140800514298505" lon="8.298835264966153"><ele>187.0</ele><time>2026-04-18T12:14:02Z</time></trkpt><trkpt lat="45.140708895499984" lon="8.298935095503795"><ele>187.0</ele><time>2026-04-18T12:14:04Z</time></trkpt><trkpt lat="45.14063972172145" lon="8.298966945333198"><ele>187.0</ele><time>2026-04-18T12:14:05Z</time></trkpt><trkpt lat="45.140569740686836" lon="8.298994065557872"><ele>186.66666666666669</ele><time>2026-04-18T12:14:06Z</time></trkpt><trkpt lat="45.14046952218774" lon="8.299039292046054"><ele>186.33333333333334</ele><time>2026-04-18T12:14:08Z</time></trkpt><trkpt lat="45.14036942199881" lon="8.299040706449421"><ele>186.0</ele><time>2026-04-18T12:14:10Z</time></trkpt><trkpt lat="45.140297081407326" lon="8.29905464881443"><ele>185.66666666666666</ele><time>2026-04-18T12:14:12Z</time></trkpt><trkpt lat="45.14024650781785" lon="8.299165477544975"><ele>185.33333333333331</ele><time>2026-04-18T12:14:14Z</time></trkpt><trkpt lat="45.140208326044714" lon="8.299238277082136"><ele>185.0</ele><time>2026-04-18T12:14:15Z</time></trkpt><trkpt lat="45.14016833240113" lon="8.299323909896296"><ele>185.0</ele><time>2026-04-18T12:14:16Z</time></trkpt><trkpt lat="45.14012682576179" lon="8.299410584050122"><ele>185.0</ele><time>2026-04-18T12:14:17Z</time></trkpt><trkpt lat="45.140070662749174" lon="8.299489554947472"><ele>185.0</ele><time>2026-04-18T12:14:18Z</time></trkpt><trkpt lat="45.14000912944596" lon="8.299567299492741"><ele>185.0</ele><time>2026-04-18T12:14:19Z</time></trkpt><trkpt lat="45.13994310910115" lon="8.299639213519551"><ele>185.0</ele><time>2026-04-18T12:14:20Z</time></trkpt><trkpt lat="45.13988391659682" lon="8.299704899429141"><ele>185.0</ele><time>2026-04-18T12:14:21Z</time></trkpt><trkpt lat="45.1398262381306" lon="8.299766122679289"><ele>184.7142857142857</ele><time>2026-04-18T12:14:22Z</time></trkpt><trkpt lat="45.139774284966066" lon="8.299824105449929"><ele>184.42857142857142</ele><time>2026-04-18T12:14:23Z</time></trkpt><trkpt lat="45.139721949337954" lon="8.299891931085309"><ele>184.14285714285714</ele><time>2026-04-18T12:14:24Z</time></trkpt><trkpt lat="45.13967588083553" lon="8.299965464340406"><ele>183.85714285714283</ele><time>2026-04-18T12:14:25Z</time></trkpt><trkpt lat="45.13963660625427" lon="8.300051346216268"><ele>183.57142857142858</ele><time>2026-04-18T12:14:26Z</time></trkpt><trkpt lat="45.13959288744093" lon="8.300142021605069"><ele>183.28571428571428</ele><time>2026-04-18T12:14:27Z</time></trkpt><trkpt lat="45.13955318909507" lon="8.300233219394464"><ele>183.0</ele><time>2026-04-18T12:14:28Z</time></trkpt><trkpt lat="45.139515328744636" lon="8.300334191848803"><ele>183.0</ele><time>2026-04-18T12:14:29Z</time></trkpt><trkpt lat="45.13947411964918" lon="8.300441684099342"><ele>183.0</ele><time>2026-04-18T12:14:30Z</time></trkpt><trkpt lat="45.1394371849462" lon="8.300548395714456"><ele>183.0</ele><time>2026-04-18T12:14:31Z</time></trkpt><trkpt lat="45.13939480621886" lon="8.300648926991979"><ele>183.0</ele><time>2026-04-18T12:14:32Z</time></trkpt><trkpt lat="45.13934993405264" lon="8.300747768674274"><ele>183.0</ele><time>2026-04-18T12:14:33Z</time></trkpt><trkpt lat="45.13930385649283" lon="8.300843005023824"><ele>183.0</ele><time>2026-04-18T12:14:34Z</time></trkpt><trkpt lat="45.13925864553823" lon="8.300933225981625"><ele>184.0</ele><time>2026-04-18T12:14:35Z</time></trkpt><trkpt lat="45.139213162643784" lon="8.30101505416152"><ele>185.0</ele><time>2026-04-18T12:14:36Z</time></trkpt><trkpt lat="45.139161792895216" lon="8.301102682666698"><ele>186.0</ele><time>2026-04-18T12:14:37Z</time></trkpt><trkpt lat="45.13910056159494" lon="8.301173950566362"><ele>187.0</ele><time>2026-04-18T12:14:38Z</time></trkpt><trkpt lat="45.13903355778687" lon="8.301234069649963"><ele>188.0</ele><time>2026-04-18T12:14:39Z</time></trkpt><trkpt lat="45.13896685837279" lon="8.301302244705557"><ele>189.0</ele><time>2026-04-18T12:14:40Z</time></trkpt><trkpt lat="45.138896331698675" lon="8.301370221067947"><ele>191.5</ele><time>2026-04-18T12:14:41Z</time></trkpt><trkpt lat="45.13883737124773" lon="8.30143864110639"><ele>194.0</ele><time>2026-04-18T12:14:42Z</time></trkpt><trkpt lat="45.13877937867072" lon="8.301504795989054"><ele>196.5</ele><time>2026-04-18T12:14:43Z</time></trkpt><trkpt lat="45.138727030080254" lon="8.30156739930426"><ele>199.0</ele><time>2026-04-18T12:14:44Z</time></trkpt><trkpt lat="45.13866947057738" lon="8.30163952016166"><ele>201.5</ele><time>2026-04-18T12:14:45Z</time></trkpt><trkpt lat="45.13860314143219" lon="8.301713982179542"><ele>204.0</ele><time>2026-04-18T12:14:46Z</time></trkpt><trkpt lat="45.138541498865976" lon="8.301784384096992"><ele>204.0</ele><time>2026-04-18T12:14:47Z</time></trkpt><trkpt lat="45.13848248917952" lon="8.301855160214815"><ele>204.0</ele><time>2026-04-18T12:14:48Z</time></trkpt><trkpt lat="45.138421491452974" lon="8.301929874753828"><ele>204.0</ele><time>2026-04-18T12:14:49Z</time></trkpt><trkpt lat="45.1383241041478" lon="8.301956086806126"><ele>204.0</ele><time>2026-04-18T12:14:50Z</time></trkpt><trkpt lat="45.13828000370494" lon="8.302023533638536"><ele>204.0</ele><time>2026-04-18T12:14:51Z</time></trkpt><trkpt lat="45.138216156588534" lon="8.30211860593185"><ele>204.0</ele><time>2026-04-18T12:14:53Z</time></trkpt><trkpt lat="45.13820054689956" lon="8.302263920382925"><ele>205.5</ele><time>2026-04-18T12:14:55Z</time></trkpt><trkpt lat="45.13826253228804" lon="8.302328346046556"><ele>207.0</ele><time>2026-04-18T12:14:56Z</time></trkpt><trkpt lat="45.138332425239405" lon="8.302364276722734"><ele>208.5</ele><time>2026-04-18T12:14:57Z</time></trkpt><trkpt lat="45.138403469803016" lon="8.302414194290328"><ele>210.0</ele><time>2026-04-18T12:14:58Z</time></trkpt><trkpt lat="45.138489587395476" lon="8.302471132071998"><ele>211.5</ele><time>2026-04-18T12:14:59Z</time></trkpt><trkpt lat="45.1385868310932" lon="8.302539006505704"><ele>213.0</ele><time>2026-04-18T12:15:00Z</time></trkpt><trkpt lat="45.13868690466777" lon="8.302619588430643"><ele>213.0</ele><time>2026-04-18T12:15:01Z</time></trkpt><trkpt lat="45.13877779206479" lon="8.302701626849187"><ele>213.0</ele><time>2026-04-18T12:15:02Z</time></trkpt><trkpt lat="45.13886085912446" lon="8.302750255776953"><ele>213.0</ele><time>2026-04-18T12:15:03Z</time></trkpt><trkpt lat="45.13893811643773" lon="8.302802045117177"><ele>213.0</ele><time>2026-04-18T12:15:04Z</time></trkpt><trkpt lat="45.139008959940526" lon="8.302856486919167"><ele>213.0</ele><time>2026-04-18T12:15:05Z</time></trkpt><trkpt lat="45.139093524921755" lon="8.302959521091532"><ele>214.16666666666666</ele><time>2026-04-18T12:15:07Z</time></trkpt><trkpt lat="45.13908287010572" lon="8.303129270099568"><ele>215.33333333333331</ele><time>2026-04-18T12:15:09Z</time></trkpt><trkpt lat="45.13903151068309" lon="8.303183197550068"><ele>216.5</ele><time>2026-04-18T12:15:10Z</time></trkpt><trkpt lat="45.13894636398255" lon="8.303177060045499"><ele>217.66666666666666</ele><time>2026-04-18T12:15:11Z</time></trkpt><trkpt lat="45.138872682996954" lon="8.303211087848172"><ele>218.83333333333331</ele><time>2026-04-18T12:15:12Z</time></trkpt><trkpt lat="45.13879902641093" lon="8.303260576157529"><ele>220.0</ele><time>2026-04-18T12:15:13Z</time></trkpt><trkpt lat="45.13872591841245" lon="8.303292859551096"><ele>219.99999999999997</ele><time>2026-04-18T12:15:14Z</time></trkpt><trkpt lat="45.13865811709842" lon="8.303330612387015"><ele>220.0</ele><time>2026-04-18T12:15:15Z</time></trkpt><trkpt lat="45.13857280410691" lon="8.303335673295921"><ele>220.0</ele><time>2026-04-18T12:15:17Z</time></trkpt><trkpt lat="45.13853817588012" lon="8.303234104385334"><ele>220.0</ele><time>2026-04-18T12:15:19Z</time></trkpt><trkpt lat="45.13848212695253" lon="8.30317919919859"><ele>219.99999999999997</ele><time>2026-04-18T12:15:20Z</time></trkpt><trkpt lat="45.13841809997053" lon="8.303121289217275"><ele>220.0</ele><time>2026-04-18T12:15:21Z</time></trkpt><trkpt lat="45.13835074832761" lon="8.303060372164627"><ele>220.16666666666666</ele><time>2026-04-18T12:15:22Z</time></trkpt><trkpt lat="45.13827654559887" lon="8.302994024066315"><ele>220.33333333333331</ele><time>2026-04-18T12:15:23Z</time></trkpt><trkpt lat="45.13820817107774" lon="8.302936435370937"><ele>220.5</ele><time>2026-04-18T12:15:24Z</time></trkpt><trkpt lat="45.13813597647691" lon="8.302874721877242"><ele>220.66666666666669</ele><time>2026-04-18T12:15:25Z</time></trkpt><trkpt lat="45.13806129314518" lon="8.30280652804905"><ele>220.83333333333334</ele><time>2026-04-18T12:15:26Z</time></trkpt><trkpt lat="45.13798428713535" lon="8.302738599382305"><ele>221.0</ele><time>2026-04-18T12:15:27Z</time></trkpt><trkpt lat="45.13791202192784" lon="8.302679163157846"><ele>221.00000000000003</ele><time>2026-04-18T12:15:28Z</time></trkpt><trkpt lat="45.13783934173184" lon="8.30263820698086"><ele>221.0</ele><time>2026-04-18T12:15:29Z</time></trkpt><trkpt lat="45.13776751651355" lon="8.302605431057993"><ele>221.0</ele><time>2026-04-18T12:15:30Z</time></trkpt><trkpt lat="45.13767874141567" lon="8.302623226589393"><ele>221.0</ele><time>2026-04-18T12:15:31Z</time></trkpt><trkpt lat="45.13760502119124" lon="8.302624148629718"><ele>221.00000000000003</ele><time>2026-04-18T12:15:32Z</time></trkpt><trkpt lat="45.13749826989121" lon="8.302637352930937"><ele>221.0</ele><time>2026-04-18T12:15:34Z</time></trkpt><trkpt lat="45.137417608489294" lon="8.302650096077867"><ele>221.0</ele><time>2026-04-18T12:15:36Z</time></trkpt><trkpt lat="45.137457064194756" lon="8.302789623488854"><ele>221.00000000000003</ele><time>2026-04-18T12:15:38Z</time></trkpt><trkpt lat="45.13748934817454" lon="8.302947303548091"><ele>221.00000000000003</ele><time>2026-04-18T12:15:40Z</time></trkpt><trkpt lat="45.13752289032068" lon="8.303104859675251"><ele>221.0</ele><time>2026-04-18T12:15:42Z</time></trkpt><trkpt lat="45.13757412519356" lon="8.303230239507718"><ele>221.0</ele><time>2026-04-18T12:15:44Z</time></trkpt><trkpt lat="45.137576214990446" lon="8.303323578102741"><ele>221.8</ele><time>2026-04-18T12:15:46Z</time></trkpt><trkpt lat="45.13752740467349" lon="8.30341546948677"><ele>222.60000000000002</ele><time>2026-04-18T12:15:48Z</time></trkpt><trkpt lat="45.13742517099242" lon="8.303564620155427"><ele>223.4</ele><time>2026-04-18T12:15:50Z</time></trkpt><trkpt lat="45.137372099142006" lon="8.303671092353746"><ele>224.2</ele><time>2026-04-18T12:15:51Z</time></trkpt><trkpt lat="45.13732430325601" lon="8.303798041421818"><ele>225.0</ele><time>2026-04-18T12:15:52Z</time></trkpt><trkpt lat="45.13727339886538" lon="8.303899971401657"><ele>224.83333333333334</ele><time>2026-04-18T12:15:53Z</time></trkpt><trkpt lat="45.13722655906772" lon="8.303991719096166"><ele>224.66666666666669</ele><time>2026-04-18T12:15:54Z</time></trkpt><trkpt lat="45.13718688384382" lon="8.304070021356432"><ele>224.5</ele><time>2026-04-18T12:15:55Z</time></trkpt><trkpt lat="45.13712107059987" lon="8.304126108599215"><ele>224.33333333333334</ele><time>2026-04-18T12:15:56Z</time></trkpt><trkpt lat="45.137054756310974" lon="8.304193764021534"><ele>224.16666666666669</ele><time>2026-04-18T12:15:57Z</time></trkpt><trkpt lat="45.13698720384485" lon="8.304263620926204"><ele>224.0</ele><time>2026-04-18T12:15:58Z</time></trkpt><trkpt lat="45.13691928626689" lon="8.304345404251208"><ele>224.0</ele><time>2026-04-18T12:15:59Z</time></trkpt><trkpt lat="45.13686137009873" lon="8.304404168928302"><ele>224.0</ele><time>2026-04-18T12:16:00Z</time></trkpt><trkpt lat="45.13679073954035" lon="8.304377192065731"><ele>224.0</ele><time>2026-04-18T12:16:01Z</time></trkpt><trkpt lat="45.13672451229031" lon="8.30438168385919"><ele>224.0</ele><time>2026-04-18T12:16:02Z</time></trkpt><trkpt lat="45.136645793023526" lon="8.30438975743629"><ele>224.0</ele><time>2026-04-18T12:16:03Z</time></trkpt><trkpt lat="45.13656630933734" lon="8.304389590698857"><ele>224.0</ele><time>2026-04-18T12:16:04Z</time></trkpt><trkpt lat="45.13649667118046" lon="8.30439539534225"><ele>224.0</ele><time>2026-04-18T12:16:05Z</time></trkpt><trkpt lat="45.13643367113017" lon="8.304411362178419"><ele>223.50000000000003</ele><time>2026-04-18T12:16:06Z</time></trkpt><trkpt lat="45.136310925117456" lon="8.304393969435697"><ele>223.0</ele><time>2026-04-18T12:16:08Z</time></trkpt><trkpt lat="45.13623882733375" lon="8.304398451026946"><ele>222.5</ele><time>2026-04-18T12:16:09Z</time></trkpt><trkpt lat="45.13616928226214" lon="8.30439864940809"><ele>222.0</ele><time>2026-04-18T12:16:10Z</time></trkpt><trkpt lat="45.13610119508512" lon="8.30439301840169"><ele>221.50000000000003</ele><time>2026-04-18T12:16:11Z</time></trkpt><trkpt lat="45.136025796050525" lon="8.304388490579845"><ele>221.0</ele><time>2026-04-18T12:16:12Z</time></trkpt><trkpt lat="45.135960168854304" lon="8.304378580717412"><ele>221.0</ele><time>2026-04-18T12:16:13Z</time></trkpt><trkpt lat="45.13582737776927" lon="8.304345369032701"><ele>221.00000000000003</ele><time>2026-04-18T12:16:15Z</time></trkpt><trkpt lat="45.13574780570721" lon="8.304305499738224"><ele>221.00000000000003</ele><time>2026-04-18T12:16:16Z</time></trkpt><trkpt lat="45.13567889755891" lon="8.304273796988628"><ele>221.0</ele><time>2026-04-18T12:16:17Z</time></trkpt><trkpt lat="45.135593030795064" lon="8.304229314301207"><ele>221.0</ele><time>2026-04-18T12:16:19Z</time></trkpt><trkpt lat="45.13550260064656" lon="8.30418771304147"><ele>220.8</ele><time>2026-04-18T12:16:21Z</time></trkpt><trkpt lat="45.135380555663055" lon="8.304151543103117"><ele>220.60000000000002</ele><time>2026-04-18T12:16:23Z</time></trkpt><trkpt lat="45.13527567341402" lon="8.304115117064782"><ele>220.4</ele><time>2026-04-18T12:16:25Z</time></trkpt><trkpt lat="45.13516043701691" lon="8.3040859480101"><ele>220.2</ele><time>2026-04-18T12:16:27Z</time></trkpt><trkpt lat="45.13509846603424" lon="8.304102383622345"><ele>220.0</ele><time>2026-04-18T12:16:28Z</time></trkpt><trkpt lat="45.13498303911767" lon="8.304171442666107"><ele>219.99999999999997</ele><time>2026-04-18T12:16:30Z</time></trkpt><trkpt lat="45.134914746508464" lon="8.304204763835887"><ele>220.0</ele><time>2026-04-18T12:16:31Z</time></trkpt><trkpt lat="45.13483587222859" lon="8.304234966665074"><ele>220.0</ele><time>2026-04-18T12:16:32Z</time></trkpt><trkpt lat="45.13476692718882" lon="8.304262807332076"><ele>220.0</ele><time>2026-04-18T12:16:33Z</time></trkpt><trkpt lat="45.134703046424065" lon="8.30429877311377"><ele>219.99999999999997</ele><time>2026-04-18T12:16:34Z</time></trkpt><trkpt lat="45.13460732964411" lon="8.304315728381345"><ele>220.0</ele><time>2026-04-18T12:16:36Z</time></trkpt><trkpt lat="45.13450496702333" lon="8.304326486986863"><ele>219.49999999999997</ele><time>2026-04-18T12:16:39Z</time></trkpt><trkpt lat="45.134402603528045" lon="8.304335585197693"><ele>219.0</ele><time>2026-04-18T12:16:41Z</time></trkpt><trkpt lat="45.13428358122265" lon="8.304392358013313"><ele>218.5</ele><time>2026-04-18T12:16:43Z</time></trkpt><trkpt lat="45.13422937464661" lon="8.30444467220383"><ele>218.0</ele><time>2026-04-18T12:16:44Z</time></trkpt><trkpt lat="45.134165233861424" lon="8.304526753051515"><ele>217.49999999999997</ele><time>2026-04-18T12:16:46Z</time></trkpt><trkpt lat="45.134129812990395" lon="8.304605419607249"><ele>217.0</ele><time>2026-04-18T12:16:47Z</time></trkpt><trkpt lat="45.13411485338974" lon="8.304704812813632"><ele>218.8</ele><time>2026-04-18T12:16:48Z</time></trkpt><trkpt lat="45.13410777295158" lon="8.304873194992751"><ele>220.6</ele><time>2026-04-18T12:16:50Z</time></trkpt><trkpt lat="45.13408744903528" lon="8.304982440606233"><ele>222.40000000000003</ele><time>2026-04-18T12:16:52Z</time></trkpt><trkpt lat="45.134050463848425" lon="8.305127314182775"><ele>224.20000000000002</ele><time>2026-04-18T12:16:54Z</time></trkpt><trkpt lat="45.13401439277774" lon="8.305254430179962"><ele>226.0</ele><time>2026-04-18T12:16:56Z</time></trkpt><trkpt lat="45.13395521398958" lon="8.305407159277202"><ele>223.83333333333331</ele><time>2026-04-18T12:16:58Z</time></trkpt><trkpt lat="45.133917400898255" lon="8.305530516891436"><ele>221.66666666666666</ele><time>2026-04-18T12:17:00Z</time></trkpt><trkpt lat="45.13388857826297" lon="8.305611233394258"><ele>219.5</ele><time>2026-04-18T12:17:02Z</time></trkpt><trkpt lat="45.1338652216436" lon="8.30574167604552"><ele>217.33333333333331</ele><time>2026-04-18T12:17:04Z</time></trkpt><trkpt lat="45.13380949306968" lon="8.305812569527085"><ele>215.16666666666666</ele><time>2026-04-18T12:17:06Z</time></trkpt><trkpt lat="45.133723175607265" lon="8.30584873027763"><ele>213.0</ele><time>2026-04-18T12:17:08Z</time></trkpt><trkpt lat="45.13365399326437" lon="8.305898913922622"><ele>213.0</ele><time>2026-04-18T12:17:10Z</time></trkpt><trkpt lat="45.133583289926584" lon="8.305947610824514"><ele>213.0</ele><time>2026-04-18T12:17:12Z</time></trkpt><trkpt lat="45.133486317237285" lon="8.305956958258383"><ele>213.0</ele><time>2026-04-18T12:17:14Z</time></trkpt><trkpt lat="45.13340391790652" lon="8.305972415952102"><ele>213.0</ele><time>2026-04-18T12:17:16Z</time></trkpt><trkpt lat="45.133315265698634" lon="8.30598643075796"><ele>213.0</ele><time>2026-04-18T12:17:18Z</time></trkpt><trkpt lat="45.13322436801712" lon="8.305968234011068"><ele>213.0</ele><time>2026-04-18T12:17:20Z</time></trkpt><trkpt lat="45.13316098089028" lon="8.30595605268308"><ele>212.0</ele><time>2026-04-18T12:17:22Z</time></trkpt><trkpt lat="45.133125691826415" lon="8.30586290933525"><ele>211.0</ele><time>2026-04-18T12:17:24Z</time></trkpt><trkpt lat="45.133080848882784" lon="8.305739168263566"><ele>210.0</ele><time>2026-04-18T12:17:26Z</time></trkpt><trkpt lat="45.13303809690382" lon="8.305646161690138"><ele>209.0</ele><time>2026-04-18T12:17:28Z</time></trkpt><trkpt lat="45.13294188637855" lon="8.305563972072965"><ele>208.0</ele><time>2026-04-18T12:17:30Z</time></trkpt><trkpt lat="45.13284140399821" lon="8.305501806754874"><ele>206.8</ele><time>2026-04-18T12:17:32Z</time></trkpt><trkpt lat="45.13271477730934" lon="8.30543964300608"><ele>205.60000000000002</ele><time>2026-04-18T12:17:34Z</time></trkpt><trkpt lat="45.13260910471516" lon="8.305394483269062"><ele>204.39999999999998</ele><time>2026-04-18T12:17:36Z</time></trkpt><trkpt lat="45.13251278892492" lon="8.30535111527766"><ele>203.2</ele><time>2026-04-18T12:17:38Z</time></trkpt><trkpt lat="45.13243124049879" lon="8.305307457083265"><ele>202.0</ele><time>2026-04-18T12:17:40Z</time></trkpt><trkpt lat="45.132362122199474" lon="8.305222624997077"><ele>201.66666666666666</ele><time>2026-04-18T12:17:43Z</time></trkpt><trkpt lat="45.13228461377804" lon="8.305166035060363"><ele>201.33333333333331</ele><time>2026-04-18T12:17:45Z</time></trkpt><trkpt lat="45.13219988117606" lon="8.305149056289064"><ele>201.0</ele><time>2026-04-18T12:17:46Z</time></trkpt><trkpt lat="45.1321302670477" lon="8.305108576653751"><ele>200.66666666666669</ele><time>2026-04-18T12:17:47Z</time></trkpt><trkpt lat="45.132054817138744" lon="8.305048386551617"><ele>200.33333333333334</ele><time>2026-04-18T12:17:48Z</time></trkpt><trkpt lat="45.131986443015265" lon="8.304989756187474"><ele>200.0</ele><time>2026-04-18T12:17:49Z</time></trkpt><trkpt lat="45.13192924370642" lon="8.304941642882051"><ele>200.00000000000003</ele><time>2026-04-18T12:17:50Z</time></trkpt><trkpt lat="45.13187030305375" lon="8.304892919749149"><ele>200.0</ele><time>2026-04-18T12:17:51Z</time></trkpt><trkpt lat="45.13180811411824" lon="8.304837755776969"><ele>200.0</ele><time>2026-04-18T12:17:52Z</time></trkpt><trkpt lat="45.13174592205806" lon="8.304783670827616"><ele>200.0</ele><time>2026-04-18T12:17:53Z</time></trkpt><trkpt lat="45.13167967034159" lon="8.304728045502813"><ele>200.0</ele><time>2026-04-18T12:17:54Z</time></trkpt><trkpt lat="45.1316166530233" lon="8.30467650832695"><ele>200.00000000000003</ele><time>2026-04-18T12:17:55Z</time></trkpt><trkpt lat="45.13155097814327" lon="8.304620681752532"><ele>200.0</ele><time>2026-04-18T12:17:56Z</time></trkpt><trkpt lat="45.13147941547603" lon="8.304571964305916"><ele>199.2</ele><time>2026-04-18T12:17:57Z</time></trkpt><trkpt lat="45.13139952146321" lon="8.304527008076438"><ele>198.4</ele><time>2026-04-18T12:17:58Z</time></trkpt><trkpt lat="45.13132531407746" lon="8.304428163366648"><ele>197.60000000000002</ele><time>2026-04-18T12:17:59Z</time></trkpt><trkpt lat="45.131232899847994" lon="8.304400149222626"><ele>196.8</ele><time>2026-04-18T12:18:00Z</time></trkpt><trkpt lat="45.13113754786597" lon="8.304372963536032"><ele>196.0</ele><time>2026-04-18T12:18:01Z</time></trkpt><trkpt lat="45.1310503376631" lon="8.304356206358996"><ele>195.99999999999997</ele><time>2026-04-18T12:18:02Z</time></trkpt><trkpt lat="45.13096879387613" lon="8.304339352164055"><ele>196.0</ele><time>2026-04-18T12:18:03Z</time></trkpt><trkpt lat="45.13089501546479" lon="8.304322029284583"><ele>196.0</ele><time>2026-04-18T12:18:04Z</time></trkpt><trkpt lat="45.130829931285845" lon="8.304303409563405"><ele>196.0</ele><time>2026-04-18T12:18:05Z</time></trkpt><trkpt lat="45.13074609815016" lon="8.304277176270547"><ele>195.99999999999997</ele><time>2026-04-18T12:18:07Z</time></trkpt><trkpt lat="45.13074509127692" lon="8.304461781810367"><ele>196.0</ele><time>2026-04-18T12:18:08Z</time></trkpt><trkpt lat="45.130759932955954" lon="8.304558715784285"><ele>195.99999999999997</ele><time>2026-04-18T12:18:09Z</time></trkpt><trkpt lat="45.13076597753139" lon="8.304669233973803"><ele>196.0</ele><time>2026-04-18T12:18:10Z</time></trkpt><trkpt lat="45.13079091165915" lon="8.304779220930206"><ele>196.0</ele><time>2026-04-18T12:18:11Z</time></trkpt><trkpt lat="45.130835472902604" lon="8.304892810721709"><ele>196.0</ele><time>2026-04-18T12:18:12Z</time></trkpt><trkpt lat="45.130873708382666" lon="8.305021203290666"><ele>195.99999999999997</ele><time>2026-04-18T12:18:13Z</time></trkpt><trkpt lat="45.130896906755055" lon="8.30514797976205"><ele>196.0</ele><time>2026-04-18T12:18:14Z</time></trkpt><trkpt lat="45.13093583204536" lon="8.305265822510632"><ele>195.60000000000002</ele><time>2026-04-18T12:18:15Z</time></trkpt><trkpt lat="45.13097847495747" lon="8.305384351956329"><ele>195.2</ele><time>2026-04-18T12:18:16Z</time></trkpt><trkpt lat="45.13102543420001" lon="8.305508415863633"><ele>194.8</ele><time>2026-04-18T12:18:17Z</time></trkpt><trkpt lat="45.13108179971922" lon="8.305633355681266"><ele>194.39999999999998</ele><time>2026-04-18T12:18:18Z</time></trkpt><trkpt lat="45.13111054544325" lon="8.305762333091137"><ele>194.0</ele><time>2026-04-18T12:18:19Z</time></trkpt><trkpt lat="45.13117360507763" lon="8.305882222428995"><ele>193.0</ele><time>2026-04-18T12:18:20Z</time></trkpt><trkpt lat="45.1312097000406" lon="8.306026199117415"><ele>192.0</ele><time>2026-04-18T12:18:21Z</time></trkpt><trkpt lat="45.13126114968043" lon="8.306161728470096"><ele>191.0</ele><time>2026-04-18T12:18:22Z</time></trkpt><trkpt lat="45.13130992983434" lon="8.306301665150748"><ele>190.0</ele><time>2026-04-18T12:18:23Z</time></trkpt><trkpt lat="45.13135956899193" lon="8.306443005763064"><ele>189.0</ele><time>2026-04-18T12:18:24Z</time></trkpt><trkpt lat="45.13142762867293" lon="8.306571326638673"><ele>188.0</ele><time>2026-04-18T12:18:25Z</time></trkpt><trkpt lat="45.1314722283798" lon="8.306721735635215"><ele>187.0</ele><time>2026-04-18T12:18:26Z</time></trkpt><trkpt lat="45.131530637149844" lon="8.30685790899761"><ele>186.0</ele><time>2026-04-18T12:18:27Z</time></trkpt><trkpt lat="45.131584428945956" lon="8.306997875559574"><ele>185.0</ele><time>2026-04-18T12:18:28Z</time></trkpt><trkpt lat="45.13164606449884" lon="8.30712944693566"><ele>187.6</ele><time>2026-04-18T12:18:29Z</time></trkpt><trkpt lat="45.13168451158384" lon="8.30727118569568"><ele>190.2</ele><time>2026-04-18T12:18:30Z</time></trkpt><trkpt lat="45.131744208222024" lon="8.307393145511389"><ele>192.8</ele><time>2026-04-18T12:18:31Z</time></trkpt><trkpt lat="45.13180592013246" lon="8.307518882762514"><ele>195.4</ele><time>2026-04-18T12:18:32Z</time></trkpt><trkpt lat="45.13187024672658" lon="8.307657557922392"><ele>198.0</ele><time>2026-04-18T12:18:33Z</time></trkpt><trkpt lat="45.13193645186718" lon="8.307782699311884"><ele>198.0</ele><time>2026-04-18T12:18:34Z</time></trkpt><trkpt lat="45.13200622274497" lon="8.3078951577386"><ele>198.0</ele><time>2026-04-18T12:18:35Z</time></trkpt><trkpt lat="45.1320928129637" lon="8.307976173605296"><ele>198.0</ele><time>2026-04-18T12:18:36Z</time></trkpt><trkpt lat="45.13215216545452" lon="8.308091139825972"><ele>198.0</ele><time>2026-04-18T12:18:37Z</time></trkpt><trkpt lat="45.1322265217214" lon="8.308167650081902"><ele>198.0</ele><time>2026-04-18T12:18:38Z</time></trkpt><trkpt lat="45.13229151420685" lon="8.308260909557474"><ele>199.25</ele><time>2026-04-18T12:18:39Z</time></trkpt><trkpt lat="45.13239332665697" lon="8.308320217816185"><ele>200.5</ele><time>2026-04-18T12:18:40Z</time></trkpt><trkpt lat="45.1324891701059" lon="8.308409547789244"><ele>201.75</ele><time>2026-04-18T12:18:41Z</time></trkpt><trkpt lat="45.132595360617486" lon="8.308492736922581"><ele>203.0</ele><time>2026-04-18T12:18:42Z</time></trkpt><trkpt lat="45.132701739048684" lon="8.308574374676798"><ele>203.0</ele><time>2026-04-18T12:18:43Z</time></trkpt><trkpt lat="45.132802898742284" lon="8.308668859543072"><ele>203.0</ele><time>2026-04-18T12:18:44Z</time></trkpt><trkpt lat="45.13290050911929" lon="8.308768761289791"><ele>203.0</ele><time>2026-04-18T12:18:45Z</time></trkpt><trkpt lat="45.133000196876104" lon="8.308878061089802"><ele>203.0</ele><time>2026-04-18T12:18:46Z</time></trkpt><trkpt lat="45.13309327066464" lon="8.308980042744032"><ele>202.4</ele><time>2026-04-18T12:18:47Z</time></trkpt><trkpt lat="45.133188070040084" lon="8.30908064607651"><ele>201.8</ele><time>2026-04-18T12:18:48Z</time></trkpt><trkpt lat="45.13327476125796" lon="8.309165542477253"><ele>201.2</ele><time>2026-04-18T12:18:49Z</time></trkpt><trkpt lat="45.13336030757562" lon="8.309260286861136"><ele>200.6</ele><time>2026-04-18T12:18:50Z</time></trkpt><trkpt lat="45.13345259855721" lon="8.30935485515532"><ele>200.0</ele><time>2026-04-18T12:18:51Z</time></trkpt><trkpt lat="45.13354595860379" lon="8.30944064758193"><ele>198.0</ele><time>2026-04-18T12:18:52Z</time></trkpt><trkpt lat="45.133641356602396" lon="8.309535870279618"><ele>196.0</ele><time>2026-04-18T12:18:53Z</time></trkpt><trkpt lat="45.133741444162936" lon="8.309624303695172"><ele>194.0</ele><time>2026-04-18T12:18:54Z</time></trkpt><trkpt lat="45.13384292655146" lon="8.30970295514537"><ele>192.0</ele><time>2026-04-18T12:18:55Z</time></trkpt><trkpt lat="45.133943282232885" lon="8.309768695913409"><ele>190.0</ele><time>2026-04-18T12:18:56Z</time></trkpt><trkpt lat="45.13404531177704" lon="8.309838787830468"><ele>188.0</ele><time>2026-04-18T12:18:57Z</time></trkpt><trkpt lat="45.134139578834066" lon="8.309905125942672"><ele>186.0</ele><time>2026-04-18T12:18:58Z</time></trkpt><trkpt lat="45.13422712684591" lon="8.3099726153899"><ele>184.0</ele><time>2026-04-18T12:18:59Z</time></trkpt><trkpt lat="45.13431359424525" lon="8.310034221493815"><ele>182.0</ele><time>2026-04-18T12:19:00Z</time></trkpt><trkpt lat="45.134404421574075" lon="8.310095592364783"><ele>182.0</ele><time>2026-04-18T12:19:01Z</time></trkpt><trkpt lat="45.1344919323226" lon="8.31016434085688"><ele>182.0</ele><time>2026-04-18T12:19:02Z</time></trkpt><trkpt lat="45.13458271245276" lon="8.310239518066656"><ele>182.0</ele><time>2026-04-18T12:19:03Z</time></trkpt><trkpt lat="45.13467706562976" lon="8.310308636523656"><ele>182.0</ele><time>2026-04-18T12:19:04Z</time></trkpt><trkpt lat="45.13476357386275" lon="8.310384099156416"><ele>182.0</ele><time>2026-04-18T12:19:05Z</time></trkpt><trkpt lat="45.134826324273796" lon="8.310465437301978"><ele>182.0</ele><time>2026-04-18T12:19:06Z</time></trkpt><trkpt lat="45.13487967695282" lon="8.310550220046355"><ele>182.0</ele><time>2026-04-18T12:19:07Z</time></trkpt><trkpt lat="45.134937837717594" lon="8.310652325159351"><ele>182.0</ele><time>2026-04-18T12:19:08Z</time></trkpt><trkpt lat="45.13499426152218" lon="8.310755567177997"><ele>182.0</ele><time>2026-04-18T12:19:09Z</time></trkpt><trkpt lat="45.13505348565358" lon="8.310866161363105"><ele>182.0</ele><time>2026-04-18T12:19:10Z</time></trkpt><trkpt lat="45.13510639882922" lon="8.310967732384698"><ele>182.0</ele><time>2026-04-18T12:19:11Z</time></trkpt><trkpt lat="45.1351573890571" lon="8.311066300676588"><ele>182.0</ele><time>2026-04-18T12:19:12Z</time></trkpt><trkpt lat="45.135214157701434" lon="8.311148112873008"><ele>182.0</ele><time>2026-04-18T12:19:13Z</time></trkpt><trkpt lat="45.1352740259262" lon="8.311208694712034"><ele>182.0</ele><time>2026-04-18T12:19:14Z</time></trkpt><trkpt lat="45.13533798506454" lon="8.311278058300985"><ele>182.0</ele><time>2026-04-18T12:19:15Z</time></trkpt><trkpt lat="45.135407102313515" lon="8.311359811201513"><ele>182.0</ele><time>2026-04-18T12:19:16Z</time></trkpt><trkpt lat="45.13547658449203" lon="8.311459753135399"><ele>182.0</ele><time>2026-04-18T12:19:17Z</time></trkpt><trkpt lat="45.13553354055769" lon="8.311573961396327"><ele>182.0</ele><time>2026-04-18T12:19:18Z</time></trkpt><trkpt lat="45.13557060949002" lon="8.31168824294323"><ele>182.0</ele><time>2026-04-18T12:19:19Z</time></trkpt><trkpt lat="45.13559276107168" lon="8.31179698802541"><ele>182.0</ele><time>2026-04-18T12:19:20Z</time></trkpt><trkpt lat="45.13561944374633" lon="8.311916929212908"><ele>182.0</ele><time>2026-04-18T12:19:21Z</time></trkpt><trkpt lat="45.13564689543547" lon="8.312043015192584"><ele>182.0</ele><time>2026-04-18T12:19:22Z</time></trkpt><trkpt lat="45.13567123832705" lon="8.312160497216338"><ele>182.0</ele><time>2026-04-18T12:19:23Z</time></trkpt><trkpt lat="45.13569609106844" lon="8.312254377186914"><ele>182.0</ele><time>2026-04-18T12:19:24Z</time></trkpt><trkpt lat="45.13572696694918" lon="8.312350521475308"><ele>182.0</ele><time>2026-04-18T12:19:25Z</time></trkpt><trkpt lat="45.13575271576696" lon="8.312447996830265"><ele>182.0</ele><time>2026-04-18T12:19:26Z</time></trkpt><trkpt lat="45.13578081387609" lon="8.312534363858058"><ele>182.0</ele><time>2026-04-18T12:19:27Z</time></trkpt><trkpt lat="45.13581823888953" lon="8.312669548648499"><ele>182.0</ele><time>2026-04-18T12:19:29Z</time></trkpt><trkpt lat="45.135855974422356" lon="8.312770959497607"><ele>182.8</ele><time>2026-04-18T12:19:30Z</time></trkpt><trkpt lat="45.13590594593326" lon="8.312858417031483"><ele>183.6</ele><time>2026-04-18T12:19:31Z</time></trkpt><trkpt lat="45.13597992514698" lon="8.312957853168442"><ele>184.4</ele><time>2026-04-18T12:19:32Z</time></trkpt><trkpt lat="45.13605345787112" lon="8.313043278122908"><ele>185.20000000000002</ele><time>2026-04-18T12:19:33Z</time></trkpt><trkpt lat="45.13611992035466" lon="8.313124259634275"><ele>186.0</ele><time>2026-04-18T12:19:34Z</time></trkpt><trkpt lat="45.13618696949382" lon="8.3132070607823"><ele>186.0</ele><time>2026-04-18T12:19:35Z</time></trkpt><trkpt lat="45.1362463132474" lon="8.313277653636876"><ele>186.0</ele><time>2026-04-18T12:19:36Z</time></trkpt><trkpt lat="45.13631656002756" lon="8.313357458152904"><ele>186.0</ele><time>2026-04-18T12:19:37Z</time></trkpt><trkpt lat="45.136375054893755" lon="8.313426239665182"><ele>186.0</ele><time>2026-04-18T12:19:38Z</time></trkpt><trkpt lat="45.13643352834156" lon="8.313505769443868"><ele>186.0</ele><time>2026-04-18T12:19:39Z</time></trkpt><trkpt lat="45.136489266012006" lon="8.313569378619615"><ele>186.0</ele><time>2026-04-18T12:19:40Z</time></trkpt><trkpt lat="45.136535615425345" lon="8.313651838822834"><ele>185.0</ele><time>2026-04-18T12:19:41Z</time></trkpt><trkpt lat="45.13660353253698" lon="8.31376860389346"><ele>184.0</ele><time>2026-04-18T12:19:43Z</time></trkpt><trkpt lat="45.136654463446334" lon="8.313891479552012"><ele>183.0</ele><time>2026-04-18T12:19:45Z</time></trkpt><trkpt lat="45.13666841049976" lon="8.314073641522722"><ele>182.0</ele><time>2026-04-18T12:19:47Z</time></trkpt><trkpt lat="45.136658374474926" lon="8.314188995286397"><ele>181.0</ele><time>2026-04-18T12:19:48Z</time></trkpt><trkpt lat="45.136653331885654" lon="8.314281021940385"><ele>179.8</ele><time>2026-04-18T12:19:49Z</time></trkpt><trkpt lat="45.13667265220008" lon="8.31443301286817"><ele>178.60000000000002</ele><time>2026-04-18T12:19:51Z</time></trkpt><trkpt lat="45.13668142640061" lon="8.314561819661982"><ele>177.4</ele><time>2026-04-18T12:19:53Z</time></trkpt><trkpt lat="45.13676548267808" lon="8.314699050109615"><ele>176.2</ele><time>2026-04-18T12:19:55Z</time></trkpt><trkpt lat="45.136818375795585" lon="8.31476559603437"><ele>175.0</ele><time>2026-04-18T12:19:56Z</time></trkpt><trkpt lat="45.136899803141084" lon="8.314832290390534"><ele>174.0</ele><time>2026-04-18T12:19:57Z</time></trkpt><trkpt lat="45.13700830135725" lon="8.314897099886341"><ele>173.0</ele><time>2026-04-18T12:19:58Z</time></trkpt><trkpt lat="45.137104561668195" lon="8.314952364109551"><ele>172.0</ele><time>2026-04-18T12:19:59Z</time></trkpt><trkpt lat="45.137187668858516" lon="8.31500146962446"><ele>171.0</ele><time>2026-04-18T12:20:00Z</time></trkpt><trkpt lat="45.13726839135234" lon="8.315057445126888"><ele>170.0</ele><time>2026-04-18T12:20:01Z</time></trkpt><trkpt lat="45.13734410068401" lon="8.315122867471826"><ele>167.8</ele><time>2026-04-18T12:20:02Z</time></trkpt><trkpt lat="45.13741724110676" lon="8.315199036393574"><ele>165.6</ele><time>2026-04-18T12:20:03Z</time></trkpt><trkpt lat="45.13748037224206" lon="8.315291392580248"><ele>163.4</ele><time>2026-04-18T12:20:04Z</time></trkpt><trkpt lat="45.13753231779083" lon="8.315393731153522"><ele>161.2</ele><time>2026-04-18T12:20:05Z</time></trkpt><trkpt lat="45.13758217876893" lon="8.31552519534821"><ele>159.0</ele><time>2026-04-18T12:20:06Z</time></trkpt><trkpt lat="45.1376336059265" lon="8.315648658869554"><ele>158.4</ele><time>2026-04-18T12:20:07Z</time></trkpt><trkpt lat="45.13770153556554" lon="8.315743133234355"><ele>157.8</ele><time>2026-04-18T12:20:08Z</time></trkpt><trkpt lat="45.137775864541645" lon="8.315836493848375"><ele>157.2</ele><time>2026-04-18T12:20:09Z</time></trkpt><trkpt lat="45.13785501603091" lon="8.315931786883928"><ele>156.6</ele><time>2026-04-18T12:20:10Z</time></trkpt><trkpt lat="45.137935012225235" lon="8.316022338928565"><ele>156.0</ele><time>2026-04-18T12:20:11Z</time></trkpt><trkpt lat="45.138018703777206" lon="8.316117592861664"><ele>156.0</ele><time>2026-04-18T12:20:12Z</time></trkpt><trkpt lat="45.13809905477485" lon="8.316211110481126"><ele>156.0</ele><time>2026-04-18T12:20:13Z</time></trkpt><trkpt lat="45.13817738337454" lon="8.316304774033954"><ele>156.0</ele><time>2026-04-18T12:20:14Z</time></trkpt><trkpt lat="45.13823991460084" lon="8.31641779381846"><ele>156.0</ele><time>2026-04-18T12:20:15Z</time></trkpt><trkpt lat="45.13831103239495" lon="8.316514196673785"><ele>156.0</ele><time>2026-04-18T12:20:16Z</time></trkpt><trkpt lat="45.13839701546144" lon="8.316615339043343"><ele>154.0</ele><time>2026-04-18T12:20:17Z</time></trkpt><trkpt lat="45.1384699757129" lon="8.316738523777278"><ele>152.0</ele><time>2026-04-18T12:20:18Z</time></trkpt><trkpt lat="45.138515557529644" lon="8.316878460112276"><ele>150.0</ele><time>2026-04-18T12:20:19Z</time></trkpt><trkpt lat="45.13856031658942" lon="8.316984387663313"><ele>148.0</ele><time>2026-04-18T12:20:20Z</time></trkpt><trkpt lat="45.138580798809905" lon="8.317083722447991"><ele>146.0</ele><time>2026-04-18T12:20:21Z</time></trkpt><trkpt lat="45.13860524467404" lon="8.317195699166493"><ele>145.5</ele><time>2026-04-18T12:20:22Z</time></trkpt><trkpt lat="45.138613453871635" lon="8.317371536986913"><ele>145.0</ele><time>2026-04-18T12:20:23Z</time></trkpt><trkpt lat="45.13860866509947" lon="8.317533814856814"><ele>144.5</ele><time>2026-04-18T12:20:24Z</time></trkpt><trkpt lat="45.13857336684253" lon="8.317700008907547"><ele>144.0</ele><time>2026-04-18T12:20:25Z</time></trkpt><trkpt lat="45.138542824565825" lon="8.317874327620581"><ele>144.0</ele><time>2026-04-18T12:20:26Z</time></trkpt><trkpt lat="45.138522441636965" lon="8.318032600265099"><ele>144.0</ele><time>2026-04-18T12:20:27Z</time></trkpt><trkpt lat="45.138499009017586" lon="8.318143880728567"><ele>144.0</ele><time>2026-04-18T12:20:28Z</time></trkpt><trkpt lat="45.13846356770342" lon="8.318229026605044"><ele>144.0</ele><time>2026-04-18T12:20:29Z</time></trkpt><trkpt lat="45.13850799347737" lon="8.31831183918432"><ele>144.0</ele><time>2026-04-18T12:20:30Z</time></trkpt><trkpt lat="45.138555244269945" lon="8.318383926480854"><ele>144.0</ele><time>2026-04-18T12:20:31Z</time></trkpt><trkpt lat="45.13861147902518" lon="8.31851131198187"><ele>144.0</ele><time>2026-04-18T12:20:32Z</time></trkpt><trkpt lat="45.138654103884" lon="8.318616537966768"><ele>144.0</ele><time>2026-04-18T12:20:33Z</time></trkpt><trkpt lat="45.138687038567326" lon="8.318695320095973"><ele>144.0</ele><time>2026-04-18T12:20:34Z</time></trkpt><trkpt lat="45.13872670699357" lon="8.318880476593058"><ele>144.0</ele><time>2026-04-18T12:20:36Z</time></trkpt><trkpt lat="45.138694616627944" lon="8.319015157833999"><ele>144.0</ele><time>2026-04-18T12:20:37Z</time></trkpt><trkpt lat="45.13869127776259" lon="8.319140800752692"><ele>143.8</ele><time>2026-04-18T12:20:38Z</time></trkpt><trkpt lat="45.13870245604413" lon="8.31924392847796"><ele>143.60000000000002</ele><time>2026-04-18T12:20:39Z</time></trkpt><trkpt lat="45.138753686202016" lon="8.319400023367338"><ele>143.4</ele><time>2026-04-18T12:20:41Z</time></trkpt><trkpt lat="45.138886803277764" lon="8.319475871093506"><ele>143.20000000000002</ele><time>2026-04-18T12:20:43Z</time></trkpt><trkpt lat="45.138972209171904" lon="8.319502112182402"><ele>143.0</ele><time>2026-04-18T12:20:44Z</time></trkpt><trkpt lat="45.13906733278133" lon="8.319534791970646"><ele>142.6</ele><time>2026-04-18T12:20:45Z</time></trkpt><trkpt lat="45.139166455958424" lon="8.319548859791727"><ele>142.20000000000002</ele><time>2026-04-18T12:20:46Z</time></trkpt><trkpt lat="45.139272701982456" lon="8.319548730602241"><ele>141.8</ele><time>2026-04-18T12:20:47Z</time></trkpt><trkpt lat="45.139363736090296" lon="8.31957071071291"><ele>141.4</ele><time>2026-04-18T12:20:48Z</time></trkpt><trkpt lat="45.1394577049753" lon="8.319577970148284"><ele>141.0</ele><time>2026-04-18T12:20:49Z</time></trkpt><trkpt lat="45.13955210296402" lon="8.319593410978793"><ele>141.0</ele><time>2026-04-18T12:20:50Z</time></trkpt><trkpt lat="45.1396492054095" lon="8.31961311949042"><ele>141.0</ele><time>2026-04-18T12:20:51Z</time></trkpt><trkpt lat="45.13973628430522" lon="8.319624869230358"><ele>141.0</ele><time>2026-04-18T12:20:52Z</time></trkpt><trkpt lat="45.1398159790056" lon="8.319648731738083"><ele>141.0</ele><time>2026-04-18T12:20:53Z</time></trkpt><trkpt lat="45.13988777392718" lon="8.319670370337159"><ele>141.0</ele><time>2026-04-18T12:20:54Z</time></trkpt><trkpt lat="45.13997675303588" lon="8.319717507818229"><ele>141.0</ele><time>2026-04-18T12:20:56Z</time></trkpt><trkpt lat="45.14005562794628" lon="8.319783770761887"><ele>141.0</ele><time>2026-04-18T12:20:58Z</time></trkpt><trkpt lat="45.140129355168185" lon="8.319826341573377"><ele>141.0</ele><time>2026-04-18T12:20:59Z</time></trkpt><trkpt lat="45.14021285764782" lon="8.319874556841237"><ele>141.0</ele><time>2026-04-18T12:21:00Z</time></trkpt><trkpt lat="45.14029846067215" lon="8.319923984861722"><ele>141.0</ele><time>2026-04-18T12:21:01Z</time></trkpt><trkpt lat="45.14047733236211" lon="8.319666922532267"><ele>141.0</ele><time>2026-04-18T12:21:02Z</time></trkpt><trkpt lat="45.140582446885126" lon="8.319669038498288"><ele>141.0</ele><time>2026-04-18T12:21:03Z</time></trkpt><trkpt lat="45.14069536447581" lon="8.31966555653112"><ele>141.0</ele><time>2026-04-18T12:21:04Z</time></trkpt><trkpt lat="45.14081049992629" lon="8.319674677951054"><ele>141.0</ele><time>2026-04-18T12:21:05Z</time></trkpt><trkpt lat="45.140923223675685" lon="8.319687778118617"><ele>141.0</ele><time>2026-04-18T12:21:06Z</time></trkpt><trkpt lat="45.14102782964999" lon="8.31969531557246"><ele>142.6</ele><time>2026-04-18T12:21:07Z</time></trkpt><trkpt lat="45.14113399828678" lon="8.319699239406948"><ele>144.2</ele><time>2026-04-18T12:21:08Z</time></trkpt><trkpt lat="45.1412485891854" lon="8.319696455368137"><ele>145.8</ele><time>2026-04-18T12:21:09Z</time></trkpt><trkpt lat="45.14136214187639" lon="8.319696773390417"><ele>147.4</ele><time>2026-04-18T12:21:10Z</time></trkpt><trkpt lat="45.141462185471845" lon="8.319690317239006"><ele>149.0</ele><time>2026-04-18T12:21:11Z</time></trkpt><trkpt lat="45.14156751137611" lon="8.31966962808609"><ele>151.0</ele><time>2026-04-18T12:21:12Z</time></trkpt><trkpt lat="45.14166946347715" lon="8.319638904557074"><ele>153.0</ele><time>2026-04-18T12:21:13Z</time></trkpt><trkpt lat="45.141768029540394" lon="8.319606497073318"><ele>155.0</ele><time>2026-04-18T12:21:14Z</time></trkpt><trkpt lat="45.14187766749863" lon="8.319583491654914"><ele>157.0</ele><time>2026-04-18T12:21:15Z</time></trkpt><trkpt lat="45.14199653144362" lon="8.319563564711759"><ele>159.0</ele><time>2026-04-18T12:21:16Z</time></trkpt><trkpt lat="45.1421079793983" lon="8.3195534254241"><ele>159.0</ele><time>2026-04-18T12:21:17Z</time></trkpt><trkpt lat="45.142223826629085" lon="8.319540400856376"><ele>159.0</ele><time>2026-04-18T12:21:18Z</time></trkpt><trkpt lat="45.142334650972956" lon="8.319536675398966"><ele>159.0</ele><time>2026-04-18T12:21:19Z</time></trkpt><trkpt lat="45.142442849513046" lon="8.319541547093513"><ele>159.0</ele><time>2026-04-18T12:21:20Z</time></trkpt><trkpt lat="45.14254106875212" lon="8.319529918505141"><ele>159.0</ele><time>2026-04-18T12:21:21Z</time></trkpt><trkpt lat="45.14263337261193" lon="8.319505430765503"><ele>160.4</ele><time>2026-04-18T12:21:22Z</time></trkpt><trkpt lat="45.14273269910968" lon="8.319477567050575"><ele>161.8</ele><time>2026-04-18T12:21:23Z</time></trkpt><trkpt lat="45.142826550972316" lon="8.319446195410961"><ele>163.20000000000002</ele><time>2026-04-18T12:21:24Z</time></trkpt><trkpt lat="45.14291551654435" lon="8.319412889093783"><ele>164.60000000000002</ele><time>2026-04-18T12:21:25Z</time></trkpt><trkpt lat="45.14300357503594" lon="8.319372607430207"><ele>166.0</ele><time>2026-04-18T12:21:26Z</time></trkpt><trkpt lat="45.14308894005967" lon="8.319321914692955"><ele>166.0</ele><time>2026-04-18T12:21:27Z</time></trkpt><trkpt lat="45.14318304102048" lon="8.31925096666841"><ele>166.0</ele><time>2026-04-18T12:21:28Z</time></trkpt><trkpt lat="45.1432767708986" lon="8.319182281648708"><ele>166.0</ele><time>2026-04-18T12:21:29Z</time></trkpt><trkpt lat="45.14336226487937" lon="8.319137165389208"><ele>166.0</ele><time>2026-04-18T12:21:30Z</time></trkpt><trkpt lat="45.14343888478308" lon="8.319093660757646"><ele>166.0</ele><time>2026-04-18T12:21:31Z</time></trkpt><trkpt lat="45.143516329214776" lon="8.319059687901285"><ele>167.8</ele><time>2026-04-18T12:21:32Z</time></trkpt><trkpt lat="45.14358601788651" lon="8.319040209632151"><ele>169.60000000000002</ele><time>2026-04-18T12:21:33Z</time></trkpt><trkpt lat="45.14365392337089" lon="8.319032747742684"><ele>171.4</ele><time>2026-04-18T12:21:34Z</time></trkpt><trkpt lat="45.143739426185086" lon="8.31903982010544"><ele>173.2</ele><time>2026-04-18T12:21:36Z</time></trkpt><trkpt lat="45.14379595237418" lon="8.319137456796692"><ele>175.0</ele><time>2026-04-18T12:21:39Z</time></trkpt><trkpt lat="45.14375049506541" lon="8.319318697178632"><ele>175.0</ele><time>2026-04-18T12:21:41Z</time></trkpt><trkpt lat="45.14371972120334" lon="8.31944096513104"><ele>175.0</ele><time>2026-04-18T12:21:42Z</time></trkpt><trkpt lat="45.14369763029881" lon="8.319560853981704"><ele>175.0</ele><time>2026-04-18T12:21:43Z</time></trkpt><trkpt lat="45.14365877171458" lon="8.31968922678294"><ele>175.0</ele><time>2026-04-18T12:21:44Z</time></trkpt><trkpt lat="45.14361276378099" lon="8.319816280388697"><ele>175.0</ele><time>2026-04-18T12:21:45Z</time></trkpt><trkpt lat="45.14355029337839" lon="8.319948093754212"><ele>174.2</ele><time>2026-04-18T12:21:46Z</time></trkpt><trkpt lat="45.1434949741445" lon="8.320088979858335"><ele>173.4</ele><time>2026-04-18T12:21:47Z</time></trkpt><trkpt lat="45.14343734622035" lon="8.320236126764883"><ele>172.60000000000002</ele><time>2026-04-18T12:21:48Z</time></trkpt><trkpt lat="45.143385938630274" lon="8.320375177693203"><ele>171.8</ele><time>2026-04-18T12:21:49Z</time></trkpt><trkpt lat="45.14333853551566" lon="8.320493182317074"><ele>171.0</ele><time>2026-04-18T12:21:50Z</time></trkpt><trkpt lat="45.14330450271449" lon="8.320599456206386"><ele>170.5</ele><time>2026-04-18T12:21:51Z</time></trkpt><trkpt lat="45.143288096626016" lon="8.320706475580511"><ele>170.0</ele><time>2026-04-18T12:21:52Z</time></trkpt><trkpt lat="45.14328703274867" lon="8.3208090657626"><ele>169.5</ele><time>2026-04-18T12:21:53Z</time></trkpt><trkpt lat="45.14329635029574" lon="8.320918491027928"><ele>169.0</ele><time>2026-04-18T12:21:54Z</time></trkpt><trkpt lat="45.14331866685008" lon="8.321044120502696"><ele>168.5</ele><time>2026-04-18T12:21:55Z</time></trkpt><trkpt lat="45.14335521865587" lon="8.321150384256507"><ele>168.0</ele><time>2026-04-18T12:21:56Z</time></trkpt><trkpt lat="45.143398153165606" lon="8.321254612005458"><ele>168.0</ele><time>2026-04-18T12:21:57Z</time></trkpt><trkpt lat="45.143452269169636" lon="8.321362134629874"><ele>168.0</ele><time>2026-04-18T12:21:58Z</time></trkpt><trkpt lat="45.14350120697983" lon="8.32147812973381"><ele>168.0</ele><time>2026-04-18T12:21:59Z</time></trkpt><trkpt lat="45.14353113935486" lon="8.321575468607444"><ele>168.0</ele><time>2026-04-18T12:22:00Z</time></trkpt><trkpt lat="45.14352736267683" lon="8.32176786737711"><ele>168.0</ele><time>2026-04-18T12:22:02Z</time></trkpt><trkpt lat="45.14351016127508" lon="8.32189884296436"><ele>168.0</ele><time>2026-04-18T12:22:03Z</time></trkpt><trkpt lat="45.143492681239344" lon="8.322031282477383"><ele>168.0</ele><time>2026-04-18T12:22:04Z</time></trkpt><trkpt lat="45.14346005884096" lon="8.32215199269676"><ele>168.0</ele><time>2026-04-18T12:22:05Z</time></trkpt><trkpt lat="45.14342151265644" lon="8.322259921769176"><ele>168.0</ele><time>2026-04-18T12:22:06Z</time></trkpt><trkpt lat="45.14338984774221" lon="8.322345828217623"><ele>168.0</ele><time>2026-04-18T12:22:07Z</time></trkpt><trkpt lat="45.14332914373242" lon="8.322544942418109"><ele>168.28571428571428</ele><time>2026-04-18T12:22:09Z</time></trkpt><trkpt lat="45.14329071717296" lon="8.322638682825371"><ele>168.57142857142856</ele><time>2026-04-18T12:22:10Z</time></trkpt><trkpt lat="45.14325653373063" lon="8.32274396717343"><ele>168.85714285714286</ele><time>2026-04-18T12:22:11Z</time></trkpt><trkpt lat="45.14323527437751" lon="8.322853554243773"><ele>169.14285714285714</ele><time>2026-04-18T12:22:12Z</time></trkpt><trkpt lat="45.14322083986265" lon="8.322947089016148"><ele>169.42857142857142</ele><time>2026-04-18T12:22:13Z</time></trkpt><trkpt lat="45.14321820520656" lon="8.323040028330087"><ele>169.71428571428572</ele><time>2026-04-18T12:22:14Z</time></trkpt><trkpt lat="45.14321982830271" lon="8.32313519356197"><ele>170.0</ele><time>2026-04-18T12:22:15Z</time></trkpt><trkpt lat="45.14320473088482" lon="8.323292914690464"><ele>169.16666666666666</ele><time>2026-04-18T12:22:17Z</time></trkpt><trkpt lat="45.14321031938949" lon="8.323467252827879"><ele>168.33333333333331</ele><time>2026-04-18T12:22:19Z</time></trkpt><trkpt lat="45.1432054902425" lon="8.323565571603528"><ele>167.5</ele><time>2026-04-18T12:22:20Z</time></trkpt><trkpt lat="45.143199010930296" lon="8.323661221954424"><ele>166.66666666666666</ele><time>2026-04-18T12:22:21Z</time></trkpt><trkpt lat="45.14319542382542" lon="8.323762064732893"><ele>165.83333333333334</ele><time>2026-04-18T12:22:22Z</time></trkpt><trkpt lat="45.14319319694491" lon="8.323858266823246"><ele>165.0</ele><time>2026-04-18T12:22:23Z</time></trkpt><trkpt lat="45.14319466135565" lon="8.323947525796552"><ele>165.0</ele><time>2026-04-18T12:22:24Z</time></trkpt><trkpt lat="45.143175113695584" lon="8.324035147303372"><ele>165.0</ele><time>2026-04-18T12:22:25Z</time></trkpt><trkpt lat="45.1431562159566" lon="8.324129539733502"><ele>165.0</ele><time>2026-04-18T12:22:26Z</time></trkpt><trkpt lat="45.14314050896158" lon="8.324216860983018"><ele>165.0</ele><time>2026-04-18T12:22:27Z</time></trkpt><trkpt lat="45.143112741305025" lon="8.324313738739955"><ele>165.0</ele><time>2026-04-18T12:22:28Z</time></trkpt><trkpt lat="45.143066379197776" lon="8.324469339702082"><ele>165.0</ele><time>2026-04-18T12:22:30Z</time></trkpt><trkpt lat="45.14303129663415" lon="8.324553480221125"><ele>165.00000000000003</ele><time>2026-04-18T12:22:31Z</time></trkpt><trkpt lat="45.14300387629208" lon="8.324641159335627"><ele>165.0</ele><time>2026-04-18T12:22:32Z</time></trkpt><trkpt lat="45.14297848756885" lon="8.324730362083312"><ele>165.0</ele><time>2026-04-18T12:22:33Z</time></trkpt><trkpt lat="45.14295130761982" lon="8.324832354239637"><ele>165.0</ele><time>2026-04-18T12:22:34Z</time></trkpt><trkpt lat="45.14293596600214" lon="8.324940639942826"><ele>165.0</ele><time>2026-04-18T12:22:35Z</time></trkpt><trkpt lat="45.142919259176054" lon="8.325045866756364"><ele>165.00000000000003</ele><time>2026-04-18T12:22:36Z</time></trkpt><trkpt lat="45.14291213494978" lon="8.325152211591362"><ele>165.0</ele><time>2026-04-18T12:22:37Z</time></trkpt><trkpt lat="45.1429095146477" lon="8.32524737710627"><ele>164.83333333333334</ele><time>2026-04-18T12:22:38Z</time></trkpt><trkpt lat="45.14291128877588" lon="8.32535447904297"><ele>164.66666666666666</ele><time>2026-04-18T12:22:39Z</time></trkpt><trkpt lat="45.14292054669065" lon="8.325461616695122"><ele>164.5</ele><time>2026-04-18T12:22:40Z</time></trkpt><trkpt lat="45.14292783146467" lon="8.325574549405133"><ele>164.33333333333331</ele><time>2026-04-18T12:22:41Z</time></trkpt><trkpt lat="45.14294086052116" lon="8.32567756808307"><ele>164.16666666666666</ele><time>2026-04-18T12:22:42Z</time></trkpt><trkpt lat="45.14295243960889" lon="8.325787418117024"><ele>164.0</ele><time>2026-04-18T12:22:43Z</time></trkpt><trkpt lat="45.14297087827053" lon="8.325901254206222"><ele>163.5</ele><time>2026-04-18T12:22:44Z</time></trkpt><trkpt lat="45.142977624073914" lon="8.326020101095827"><ele>163.0</ele><time>2026-04-18T12:22:45Z</time></trkpt><trkpt lat="45.14300309832843" lon="8.326119686130497"><ele>162.5</ele><time>2026-04-18T12:22:46Z</time></trkpt><trkpt lat="45.14303198850108" lon="8.326238002914172"><ele>162.0</ele><time>2026-04-18T12:22:47Z</time></trkpt><trkpt lat="45.14306003300805" lon="8.32634522552303"><ele>161.5</ele><time>2026-04-18T12:22:48Z</time></trkpt><trkpt lat="45.14307826455454" lon="8.326451347547287"><ele>161.0</ele><time>2026-04-18T12:22:49Z</time></trkpt><trkpt lat="45.14310966088753" lon="8.326551677357712"><ele>160.83333333333331</ele><time>2026-04-18T12:22:50Z</time></trkpt><trkpt lat="45.14313969954068" lon="8.326654384918582"><ele>160.66666666666666</ele><time>2026-04-18T12:22:51Z</time></trkpt><trkpt lat="45.14315777360312" lon="8.326754034370804"><ele>160.5</ele><time>2026-04-18T12:22:52Z</time></trkpt><trkpt lat="45.143192867266144" lon="8.326852579021725"><ele>160.33333333333334</ele><time>2026-04-18T12:22:53Z</time></trkpt><trkpt lat="45.143226030510824" lon="8.32696417079703"><ele>160.16666666666669</ele><time>2026-04-18T12:22:54Z</time></trkpt><trkpt lat="45.143247375132795" lon="8.327068867657927"><ele>160.0</ele><time>2026-04-18T12:22:55Z</time></trkpt><trkpt lat="45.14327944110394" lon="8.327152740583049"><ele>159.0</ele><time>2026-04-18T12:22:56Z</time></trkpt><trkpt lat="45.143301190264644" lon="8.327244218535071"><ele>158.0</ele><time>2026-04-18T12:22:57Z</time></trkpt><trkpt lat="45.14333429392327" lon="8.327335533241746"><ele>157.0</ele><time>2026-04-18T12:22:58Z</time></trkpt><trkpt lat="45.14336487848664" lon="8.327436920086358"><ele>156.0</ele><time>2026-04-18T12:22:59Z</time></trkpt><trkpt lat="45.1434210553483" lon="8.327552008635674"><ele>155.0</ele><time>2026-04-18T12:23:00Z</time></trkpt><trkpt lat="45.14347762247061" lon="8.32766024322459"><ele>154.0</ele><time>2026-04-18T12:23:01Z</time></trkpt><trkpt lat="45.143530633407586" lon="8.327762557151935"><ele>154.0</ele><time>2026-04-18T12:23:02Z</time></trkpt><trkpt lat="45.14357890944458" lon="8.32785743378784"><ele>154.0</ele><time>2026-04-18T12:23:03Z</time></trkpt><trkpt lat="45.14361348600333" lon="8.327945546119114"><ele>154.0</ele><time>2026-04-18T12:23:04Z</time></trkpt><trkpt lat="45.143641135418704" lon="8.328031847774085"><ele>154.0</ele><time>2026-04-18T12:23:05Z</time></trkpt><trkpt lat="45.143666760354634" lon="8.328122901010882"><ele>154.0</ele><time>2026-04-18T12:23:06Z</time></trkpt><trkpt lat="45.143695254094716" lon="8.328269115704558"><ele>154.0</ele><time>2026-04-18T12:23:08Z</time></trkpt><trkpt lat="45.14375769169205" lon="8.32831891998279"><ele>152.8</ele><time>2026-04-18T12:23:10Z</time></trkpt><trkpt lat="45.1438613928935" lon="8.328372752543288"><ele>151.60000000000002</ele><time>2026-04-18T12:23:12Z</time></trkpt><trkpt lat="45.143918014975725" lon="8.328513711240694"><ele>150.4</ele><time>2026-04-18T12:23:14Z</time></trkpt><trkpt lat="45.14396910308425" lon="8.328608635659029"><ele>149.20000000000002</ele><time>2026-04-18T12:23:15Z</time></trkpt><trkpt lat="45.14400903128681" lon="8.328702190212823"><ele>148.0</ele><time>2026-04-18T12:23:16Z</time></trkpt><trkpt lat="45.144078202597996" lon="8.328815213050124"><ele>146.66666666666669</ele><time>2026-04-18T12:23:18Z</time></trkpt><trkpt lat="45.14415230745867" lon="8.328948555013676"><ele>145.33333333333334</ele><time>2026-04-18T12:23:20Z</time></trkpt><trkpt lat="45.144175849383764" lon="8.329036802739067"><ele>144.0</ele><time>2026-04-18T12:23:21Z</time></trkpt><trkpt lat="45.14419530970806" lon="8.329124746128228"><ele>142.66666666666666</ele><time>2026-04-18T12:23:22Z</time></trkpt><trkpt lat="45.14422524223922" lon="8.32921483563334"><ele>141.33333333333331</ele><time>2026-04-18T12:23:23Z</time></trkpt><trkpt lat="45.1442441712777" lon="8.329303251060171"><ele>140.0</ele><time>2026-04-18T12:23:24Z</time></trkpt><trkpt lat="45.1442605874443" lon="8.329443496574795"><ele>140.0</ele><time>2026-04-18T12:23:26Z</time></trkpt><trkpt lat="45.144316036445005" lon="8.329530161872523"><ele>140.0</ele><time>2026-04-18T12:23:28Z</time></trkpt><trkpt lat="45.144383745185976" lon="8.329488514735877"><ele>140.0</ele><time>2026-04-18T12:23:30Z</time></trkpt><trkpt lat="45.14439531653766" lon="8.329351508947207"><ele>140.0</ele><time>2026-04-18T12:23:32Z</time></trkpt><trkpt lat="45.14441910049818" lon="8.329239126795343"><ele>140.0</ele><time>2026-04-18T12:23:33Z</time></trkpt><trkpt lat="45.1444399375007" lon="8.329135966372204"><ele>140.0</ele><time>2026-04-18T12:23:34Z</time></trkpt><trkpt lat="45.14447953611276" lon="8.329058716458807"><ele>140.0</ele><time>2026-04-18T12:23:35Z</time></trkpt><trkpt lat="45.144469545925396" lon="8.328913837421405"><ele>140.0</ele><time>2026-04-18T12:23:37Z</time></trkpt><trkpt lat="45.14447232938634" lon="8.32878733125125"><ele>140.0</ele><time>2026-04-18T12:23:39Z</time></trkpt><trkpt lat="45.14450188301203" lon="8.328669630200814"><ele>140.0</ele><time>2026-04-18T12:23:41Z</time></trkpt><trkpt lat="45.14456063729021" lon="8.328507798833114"><ele>140.0</ele><time>2026-04-18T12:23:43Z</time></trkpt><trkpt lat="45.144639534422915" lon="8.328369008395843"><ele>140.5</ele><time>2026-04-18T12:23:45Z</time></trkpt><trkpt lat="45.144707203263366" lon="8.328267058356895"><ele>141.0</ele><time>2026-04-18T12:23:47Z</time></trkpt><trkpt lat="45.144801140674886" lon="8.328204135969798"><ele>141.5</ele><time>2026-04-18T12:23:49Z</time></trkpt><trkpt lat="45.144869292659315" lon="8.32821395593043"><ele>142.0</ele><time>2026-04-18T12:23:50Z</time></trkpt><trkpt lat="45.144932206508734" lon="8.328232677380726"><ele>142.5</ele><time>2026-04-18T12:23:51Z</time></trkpt><trkpt lat="45.145017362696905" lon="8.328270437371387"><ele>143.0</ele><time>2026-04-18T12:23:52Z</time></trkpt><trkpt lat="45.14509236506973" lon="8.328302407607216"><ele>139.83333333333331</ele><time>2026-04-18T12:23:53Z</time></trkpt><trkpt lat="45.145148464019826" lon="8.328359544253265"><ele>136.66666666666666</ele><time>2026-04-18T12:23:54Z</time></trkpt><trkpt lat="45.14521068562462" lon="8.328415121342045"><ele>133.5</ele><time>2026-04-18T12:23:55Z</time></trkpt><trkpt lat="45.14526760736452" lon="8.328480837881983"><ele>130.33333333333334</ele><time>2026-04-18T12:23:56Z</time></trkpt><trkpt lat="45.145316443474904" lon="8.328562477585223"><ele>127.16666666666667</ele><time>2026-04-18T12:23:57Z</time></trkpt><trkpt lat="45.14534497876497" lon="8.328649497292373"><ele>124.0</ele><time>2026-04-18T12:23:58Z</time></trkpt><trkpt lat="45.14539619643563" lon="8.328828152688864"><ele>123.80000000000001</ele><time>2026-04-18T12:24:00Z</time></trkpt><trkpt lat="45.1454406079594" lon="8.328913587521548"><ele>123.60000000000001</ele><time>2026-04-18T12:24:01Z</time></trkpt><trkpt lat="45.14549666722956" lon="8.328964317647515"><ele>123.4</ele><time>2026-04-18T12:24:02Z</time></trkpt><trkpt lat="45.14558956857772" lon="8.329032942087698"><ele>123.2</ele><time>2026-04-18T12:24:04Z</time></trkpt><trkpt lat="45.14567998511893" lon="8.329135232883903"><ele>123.0</ele><time>2026-04-18T12:24:06Z</time></trkpt><trkpt lat="45.145771076511416" lon="8.329221821119118"><ele>122.4</ele><time>2026-04-18T12:24:08Z</time></trkpt><trkpt lat="45.14582112055927" lon="8.329277383594588"><ele>121.80000000000001</ele><time>2026-04-18T12:24:09Z</time></trkpt><trkpt lat="45.14589998174284" lon="8.329404524053002"><ele>121.2</ele><time>2026-04-18T12:24:11Z</time></trkpt><trkpt lat="45.14595318962678" lon="8.329470617426546"><ele>120.6</ele><time>2026-04-18T12:24:12Z</time></trkpt><trkpt lat="45.146051226802406" lon="8.329581863712011"><ele>120.0</ele><time>2026-04-18T12:24:14Z</time></trkpt><trkpt lat="45.14610289053456" lon="8.329651661650091"><ele>120.0</ele><time>2026-04-18T12:24:15Z</time></trkpt><trkpt lat="45.14618370315526" lon="8.329781159434965"><ele>121.0</ele><time>2026-04-18T12:24:17Z</time></trkpt><trkpt lat="45.146241030162486" lon="8.329898461556828"><ele>121.0</ele><time>2026-04-18T12:24:19Z</time></trkpt><trkpt lat="45.14624296624607" lon="8.33000602429138"><ele>121.0</ele><time>2026-04-18T12:24:39Z</time></trkpt></trkseg><trkseg><trkpt lat="45.14629102573806" lon="8.330192557069038"><ele>121.00000000000001</ele><time>2026-04-18T13:33:13Z</time></trkpt><trkpt lat="45.14625551435732" lon="8.330329192027424"><ele>121.0</ele><time>2026-04-18T13:33:15Z</time></trkpt><trkpt lat="45.1462222343109" lon="8.33041839353964"><ele>121.0</ele><time>2026-04-18T13:33:16Z</time></trkpt><trkpt lat="45.1461656147042" lon="8.330568833946675"><ele>121.0</ele><time>2026-04-18T13:33:18Z</time></trkpt><trkpt lat="45.14609615453328" lon="8.330626073022293"><ele>121.00000000000001</ele><time>2026-04-18T13:33:19Z</time></trkpt><trkpt lat="45.14607438945431" lon="8.33071807905858"><ele>121.0</ele><time>2026-04-18T13:33:20Z</time></trkpt><trkpt lat="45.14605274103219" lon="8.330811727249191"><ele>121.4</ele><time>2026-04-18T13:33:21Z</time></trkpt><trkpt lat="45.14603146343677" lon="8.330905381802967"><ele>121.8</ele><time>2026-04-18T13:33:22Z</time></trkpt><trkpt lat="45.14601932529465" lon="8.331008149960107"><ele>122.20000000000002</ele><time>2026-04-18T13:33:23Z</time></trkpt><trkpt lat="45.146002430721325" lon="8.331094559851309"><ele>122.60000000000001</ele><time>2026-04-18T13:33:24Z</time></trkpt><trkpt lat="45.145953179402525" lon="8.331253126065404"><ele>123.0</ele><time>2026-04-18T13:33:26Z</time></trkpt><trkpt lat="45.145914531447914" lon="8.331429510773177"><ele>123.5</ele><time>2026-04-18T13:33:28Z</time></trkpt><trkpt lat="45.145894621263174" lon="8.331520378507278"><ele>124.0</ele><time>2026-04-18T13:33:29Z</time></trkpt><trkpt lat="45.14587240639363" lon="8.331614281087308"><ele>124.5</ele><time>2026-04-18T13:33:30Z</time></trkpt><trkpt lat="45.14584919749609" lon="8.331711042076174"><ele>125.0</ele><time>2026-04-18T13:33:31Z</time></trkpt><trkpt lat="45.1458237920371" lon="8.331810748619308"><ele>125.5</ele><time>2026-04-18T13:33:32Z</time></trkpt><trkpt lat="45.145793726788305" lon="8.3319155437255"><ele>126.0</ele><time>2026-04-18T13:33:33Z</time></trkpt><trkpt lat="45.14575922152063" lon="8.332028467522473"><ele>126.0</ele><time>2026-04-18T13:33:34Z</time></trkpt><trkpt lat="45.145727965176924" lon="8.33212998126339"><ele>126.0</ele><time>2026-04-18T13:33:35Z</time></trkpt><trkpt lat="45.14569749784296" lon="8.33222893247584"><ele>126.0</ele><time>2026-04-18T13:33:36Z</time></trkpt><trkpt lat="45.14566295968046" lon="8.332341858658962"><ele>126.0</ele><time>2026-04-18T13:33:37Z</time></trkpt><trkpt lat="45.145647936372264" lon="8.332452535462991"><ele>126.0</ele><time>2026-04-18T13:33:38Z</time></trkpt><trkpt lat="45.145621497664536" lon="8.33254877945782"><ele>126.0</ele><time>2026-04-18T13:33:39Z</time></trkpt><trkpt lat="45.145594333180995" lon="8.332649891702964"><ele>125.83333333333333</ele><time>2026-04-18T13:33:40Z</time></trkpt><trkpt lat="45.14556174361296" lon="8.33275733474676"><ele>125.66666666666666</ele><time>2026-04-18T13:33:41Z</time></trkpt><trkpt lat="45.145538215192374" lon="8.33285919892202"><ele>125.5</ele><time>2026-04-18T13:33:42Z</time></trkpt><trkpt lat="45.14551717636958" lon="8.332950827815916"><ele>125.33333333333333</ele><time>2026-04-18T13:33:43Z</time></trkpt><trkpt lat="45.14549628319154" lon="8.33304786252572"><ele>125.16666666666666</ele><time>2026-04-18T13:33:44Z</time></trkpt><trkpt lat="45.14547227159" lon="8.333153935816783"><ele>125.0</ele><time>2026-04-18T13:33:45Z</time></trkpt><trkpt lat="45.145446379931954" lon="8.333258789442095"><ele>124.99999999999999</ele><time>2026-04-18T13:33:46Z</time></trkpt><trkpt lat="45.14541191902843" lon="8.333365149841708"><ele>125.0</ele><time>2026-04-18T13:33:47Z</time></trkpt><trkpt lat="45.145390898080215" lon="8.333474014426937"><ele>125.0</ele><time>2026-04-18T13:33:48Z</time></trkpt><trkpt lat="45.14537030468784" lon="8.333584436218695"><ele>125.0</ele><time>2026-04-18T13:33:49Z</time></trkpt><trkpt lat="45.14535097146892" lon="8.333689604384467"><ele>124.99999999999999</ele><time>2026-04-18T13:33:50Z</time></trkpt><trkpt lat="45.14533250898337" lon="8.333795801200578"><ele>125.0</ele><time>2026-04-18T13:33:51Z</time></trkpt><trkpt lat="45.14531424185024" lon="8.333900874349924"><ele>125.49999999999999</ele><time>2026-04-18T13:33:52Z</time></trkpt><trkpt lat="45.145294824778325" lon="8.334013282122749"><ele>126.0</ele><time>2026-04-18T13:33:53Z</time></trkpt><trkpt lat="45.14527666680925" lon="8.334119212753485"><ele>126.5</ele><time>2026-04-18T13:33:54Z</time></trkpt><trkpt lat="45.145260010299076" lon="8.334223014006866"><ele>127.0</ele><time>2026-04-18T13:33:55Z</time></trkpt><trkpt lat="45.14524420372188" lon="8.334325238774865"><ele>127.49999999999999</ele><time>2026-04-18T13:33:56Z</time></trkpt><trkpt lat="45.145227139692615" lon="8.334435595801564"><ele>128.0</ele><time>2026-04-18T13:33:57Z</time></trkpt><trkpt lat="45.14520925033493" lon="8.334548822518883"><ele>127.99999999999999</ele><time>2026-04-18T13:33:58Z</time></trkpt><trkpt lat="45.14519791023365" lon="8.334673915435921"><ele>128.0</ele><time>2026-04-18T13:33:59Z</time></trkpt><trkpt lat="45.145182583942194" lon="8.334794881869387"><ele>128.0</ele><time>2026-04-18T13:34:00Z</time></trkpt><trkpt lat="45.145159897440045" lon="8.334917974102598"><ele>128.0</ele><time>2026-04-18T13:34:01Z</time></trkpt><trkpt lat="45.145150188989604" lon="8.33504580572434"><ele>127.99999999999999</ele><time>2026-04-18T13:34:02Z</time></trkpt><trkpt lat="45.14514550576895" lon="8.335174132543596"><ele>128.0</ele><time>2026-04-18T13:34:03Z</time></trkpt><trkpt lat="45.1451441570206" lon="8.335281313343168"><ele>127.99999999999999</ele><time>2026-04-18T13:34:04Z</time></trkpt><trkpt lat="45.145133098077686" lon="8.335387172349982"><ele>128.0</ele><time>2026-04-18T13:34:05Z</time></trkpt><trkpt lat="45.14513768767884" lon="8.335502074330318"><ele>128.0</ele><time>2026-04-18T13:34:06Z</time></trkpt><trkpt lat="45.145122028569446" lon="8.335601925770678"><ele>128.0</ele><time>2026-04-18T13:34:08Z</time></trkpt><trkpt lat="45.145117639346466" lon="8.335719048779382"><ele>127.99999999999999</ele><time>2026-04-18T13:34:11Z</time></trkpt><trkpt lat="45.14511357882748" lon="8.335831270919117"><ele>128.0</ele><time>2026-04-18T13:34:13Z</time></trkpt><trkpt lat="45.14511184831814" lon="8.335944298981547"><ele>128.4</ele><time>2026-04-18T13:34:15Z</time></trkpt><trkpt lat="45.14511145690554" lon="8.336084898845648"><ele>128.8</ele><time>2026-04-18T13:34:17Z</time></trkpt><trkpt lat="45.1451138671894" lon="8.336253253006197"><ele>129.2</ele><time>2026-04-18T13:34:19Z</time></trkpt><trkpt lat="45.14513474492861" lon="8.33642398403256"><ele>129.6</ele><time>2026-04-18T13:34:21Z</time></trkpt><trkpt lat="45.14512503449234" lon="8.33652034103993"><ele>130.0</ele><time>2026-04-18T13:34:22Z</time></trkpt><trkpt lat="45.145128758528784" lon="8.336627583582091"><ele>130.16666666666669</ele><time>2026-04-18T13:34:23Z</time></trkpt><trkpt lat="45.14513709712006" lon="8.336735349872221"><ele>130.33333333333334</ele><time>2026-04-18T13:34:24Z</time></trkpt><trkpt lat="45.14513873141374" lon="8.336853831339338"><ele>130.5</ele><time>2026-04-18T13:34:25Z</time></trkpt><trkpt lat="45.145147273466016" lon="8.336964223309579"><ele>130.66666666666666</ele><time>2026-04-18T13:34:26Z</time></trkpt><trkpt lat="45.14517041763478" lon="8.337055607092635"><ele>130.83333333333331</ele><time>2026-04-18T13:34:27Z</time></trkpt><trkpt lat="45.145172527652825" lon="8.337165797537214"><ele>131.0</ele><time>2026-04-18T13:34:28Z</time></trkpt><trkpt lat="45.14517844382024" lon="8.337272150856755"><ele>131.0</ele><time>2026-04-18T13:34:29Z</time></trkpt><trkpt lat="45.14517440557085" lon="8.33736988854284"><ele>131.0</ele><time>2026-04-18T13:34:31Z</time></trkpt><trkpt lat="45.14517679883901" lon="8.337529510792413"><ele>131.0</ele><time>2026-04-18T13:34:33Z</time></trkpt><trkpt lat="45.14514142447629" lon="8.337638542985756"><ele>131.0</ele><time>2026-04-18T13:34:35Z</time></trkpt><trkpt lat="45.14504462747884" lon="8.337646106535352"><ele>131.0</ele><time>2026-04-18T13:34:37Z</time></trkpt><trkpt lat="45.14497528604425" lon="8.337659442519886"><ele>131.0</ele><time>2026-04-18T13:34:38Z</time></trkpt><trkpt lat="45.1449074060181" lon="8.33764994740815"><ele>131.83333333333331</ele><time>2026-04-18T13:34:39Z</time></trkpt><trkpt lat="45.14483903618049" lon="8.33767475910168"><ele>132.66666666666666</ele><time>2026-04-18T13:34:40Z</time></trkpt><trkpt lat="45.14476923808556" lon="8.337705746692329"><ele>133.5</ele><time>2026-04-18T13:34:41Z</time></trkpt><trkpt lat="45.144702962334826" lon="8.337714688043826"><ele>134.33333333333334</ele><time>2026-04-18T13:34:42Z</time></trkpt><trkpt lat="45.14462110110196" lon="8.3377377781702"><ele>135.16666666666669</ele><time>2026-04-18T13:34:43Z</time></trkpt><trkpt lat="45.14454931200617" lon="8.337758027303844"><ele>136.0</ele><time>2026-04-18T13:34:44Z</time></trkpt><trkpt lat="45.14440855618205" lon="8.337810973879694"><ele>136.0</ele><time>2026-04-18T13:34:46Z</time></trkpt><trkpt lat="45.14434138623579" lon="8.33786319022343"><ele>136.0</ele><time>2026-04-18T13:34:47Z</time></trkpt><trkpt lat="45.14426841227477" lon="8.337887436279154"><ele>136.0</ele><time>2026-04-18T13:34:48Z</time></trkpt><trkpt lat="45.14419432517899" lon="8.337903920765227"><ele>136.0</ele><time>2026-04-18T13:34:49Z</time></trkpt><trkpt lat="45.14411971003039" lon="8.337926696531158"><ele>136.0</ele><time>2026-04-18T13:34:50Z</time></trkpt><trkpt lat="45.14401315957551" lon="8.337915276787077"><ele>136.0</ele><time>2026-04-18T13:34:52Z</time></trkpt><trkpt lat="45.143945966457004" lon="8.33796972098974"><ele>135.8</ele><time>2026-04-18T13:34:53Z</time></trkpt><trkpt lat="45.14387561860916" lon="8.337979748329044"><ele>135.6</ele><time>2026-04-18T13:34:54Z</time></trkpt><trkpt lat="45.14381331920589" lon="8.337993102383972"><ele>135.4</ele><time>2026-04-18T13:34:55Z</time></trkpt><trkpt lat="45.14371962595574" lon="8.33798397943773"><ele>135.2</ele><time>2026-04-18T13:34:57Z</time></trkpt><trkpt lat="45.14368890225409" lon="8.338209990696045"><ele>135.0</ele><time>2026-04-18T13:34:59Z</time></trkpt><trkpt lat="45.14371067778762" lon="8.33832218064797"><ele>134.6</ele><time>2026-04-18T13:35:00Z</time></trkpt><trkpt lat="45.14373085192662" lon="8.338435229791992"><ele>134.2</ele><time>2026-04-18T13:35:01Z</time></trkpt><trkpt lat="45.14374397456436" lon="8.338555667685643"><ele>133.8</ele><time>2026-04-18T13:35:02Z</time></trkpt><trkpt lat="45.14375325739871" lon="8.338686832550634"><ele>133.4</ele><time>2026-04-18T13:35:03Z</time></trkpt><trkpt lat="45.14376756039214" lon="8.33882508523401"><ele>133.0</ele><time>2026-04-18T13:35:04Z</time></trkpt><trkpt lat="45.143780322717205" lon="8.33896613547345"><ele>132.4</ele><time>2026-04-18T13:35:05Z</time></trkpt><trkpt lat="45.14378941088674" lon="8.339102293642418"><ele>131.8</ele><time>2026-04-18T13:35:06Z</time></trkpt><trkpt lat="45.1438004047702" lon="8.33923810087093"><ele>131.2</ele><time>2026-04-18T13:35:07Z</time></trkpt><trkpt lat="45.14381091891338" lon="8.339384319470069"><ele>130.6</ele><time>2026-04-18T13:35:08Z</time></trkpt><trkpt lat="45.14380407353909" lon="8.339531318842738"><ele>130.0</ele><time>2026-04-18T13:35:09Z</time></trkpt><trkpt lat="45.14381301909496" lon="8.3396781830814"><ele>130.2</ele><time>2026-04-18T13:35:10Z</time></trkpt><trkpt lat="45.14382163925496" lon="8.339819705099101"><ele>130.4</ele><time>2026-04-18T13:35:11Z</time></trkpt><trkpt lat="45.143830669302424" lon="8.339967956481583"><ele>130.6</ele><time>2026-04-18T13:35:12Z</time></trkpt><trkpt lat="45.14383943296623" lon="8.340111834483986"><ele>130.8</ele><time>2026-04-18T13:35:13Z</time></trkpt><trkpt lat="45.14384815015148" lon="8.340254949441253"><ele>131.0</ele><time>2026-04-18T13:35:14Z</time></trkpt><trkpt lat="45.14385691291353" lon="8.340398812643711"><ele>130.6</ele><time>2026-04-18T13:35:15Z</time></trkpt><trkpt lat="45.14386610873262" lon="8.340549785627601"><ele>130.2</ele><time>2026-04-18T13:35:16Z</time></trkpt><trkpt lat="45.143897502065876" lon="8.340696283653616"><ele>129.8</ele><time>2026-04-18T13:35:17Z</time></trkpt><trkpt lat="45.14390651542371" lon="8.34084261976148"><ele>129.4</ele><time>2026-04-18T13:35:18Z</time></trkpt><trkpt lat="45.14391836526752" lon="8.340991299108989"><ele>129.0</ele><time>2026-04-18T13:35:19Z</time></trkpt><trkpt lat="45.14392692473597" lon="8.341135822516549"><ele>129.0</ele><time>2026-04-18T13:35:20Z</time></trkpt><trkpt lat="45.14393911748542" lon="8.341280019948346"><ele>129.0</ele><time>2026-04-18T13:35:21Z</time></trkpt><trkpt lat="45.14395012717057" lon="8.341422873953913"><ele>129.0</ele><time>2026-04-18T13:35:22Z</time></trkpt><trkpt lat="45.14395964230329" lon="8.341562560431838"><ele>129.0</ele><time>2026-04-18T13:35:23Z</time></trkpt><trkpt lat="45.14396843228962" lon="8.341698269267214"><ele>129.0</ele><time>2026-04-18T13:35:24Z</time></trkpt><trkpt lat="45.1439741068416" lon="8.341837027713394"><ele>129.0</ele><time>2026-04-18T13:35:25Z</time></trkpt><trkpt lat="45.14397866509867" lon="8.341951376143728"><ele>129.0</ele><time>2026-04-18T13:35:26Z</time></trkpt><trkpt lat="45.14398403230345" lon="8.342058312711933"><ele>129.0</ele><time>2026-04-18T13:35:27Z</time></trkpt><trkpt lat="45.143989557631365" lon="8.342163488899304"><ele>129.0</ele><time>2026-04-18T13:35:28Z</time></trkpt><trkpt lat="45.144000518352534" lon="8.342264461987572"><ele>129.0</ele><time>2026-04-18T13:35:29Z</time></trkpt><trkpt lat="45.144068353667194" lon="8.34238934101947"><ele>129.0</ele><time>2026-04-18T13:35:31Z</time></trkpt><trkpt lat="45.14414258591458" lon="8.342400089305649"><ele>128.83333333333334</ele><time>2026-04-18T13:35:32Z</time></trkpt><trkpt lat="45.14422196168836" lon="8.342376766818491"><ele>128.66666666666666</ele><time>2026-04-18T13:35:33Z</time></trkpt><trkpt lat="45.14430827444751" lon="8.3423400348603"><ele>128.5</ele><time>2026-04-18T13:35:34Z</time></trkpt><trkpt lat="45.14439373809669" lon="8.342320700139982"><ele>128.33333333333331</ele><time>2026-04-18T13:35:35Z</time></trkpt><trkpt lat="45.14448222269275" lon="8.342312296541955"><ele>128.16666666666666</ele><time>2026-04-18T13:35:36Z</time></trkpt><trkpt lat="45.14457065209586" lon="8.342302673679"><ele>128.0</ele><time>2026-04-18T13:35:37Z</time></trkpt><trkpt lat="45.144666331725396" lon="8.342290140417576"><ele>128.0</ele><time>2026-04-18T13:35:38Z</time></trkpt><trkpt lat="45.14475524714349" lon="8.342276052983975"><ele>128.0</ele><time>2026-04-18T13:35:39Z</time></trkpt><trkpt lat="45.14483517838603" lon="8.342244987918722"><ele>128.0</ele><time>2026-04-18T13:35:40Z</time></trkpt><trkpt lat="45.14491671720954" lon="8.34219303117307"><ele>128.0</ele><time>2026-04-18T13:35:41Z</time></trkpt><trkpt lat="45.14506287480521" lon="8.342273007626718"><ele>128.0</ele><time>2026-04-18T13:35:42Z</time></trkpt><trkpt lat="45.14515053553548" lon="8.34219813605385"><ele>128.0</ele><time>2026-04-18T13:35:43Z</time></trkpt><trkpt lat="45.14523539559546" lon="8.342122452534175"><ele>128.0</ele><time>2026-04-18T13:35:44Z</time></trkpt><trkpt lat="45.14532033210352" lon="8.342046700836146"><ele>128.0</ele><time>2026-04-18T13:35:45Z</time></trkpt><trkpt lat="45.145409243487094" lon="8.341967404091244"><ele>128.0</ele><time>2026-04-18T13:35:46Z</time></trkpt><trkpt lat="45.14549877291284" lon="8.341887556145778"><ele>128.0</ele><time>2026-04-18T13:35:47Z</time></trkpt><trkpt lat="45.14558132535126" lon="8.341813866765511"><ele>127.99999999999999</ele><time>2026-04-18T13:35:48Z</time></trkpt><trkpt lat="45.145650121281676" lon="8.341752433650065"><ele>128.0</ele><time>2026-04-18T13:35:49Z</time></trkpt><trkpt lat="45.14571973105464" lon="8.341690094615567"><ele>128.0</ele><time>2026-04-18T13:35:50Z</time></trkpt><trkpt lat="45.14578157062932" lon="8.341634714183106"><ele>128.0</ele><time>2026-04-18T13:35:51Z</time></trkpt><trkpt lat="45.14587116537909" lon="8.341554244241689"><ele>127.99999999999999</ele><time>2026-04-18T13:35:53Z</time></trkpt><trkpt lat="45.145944009373544" lon="8.341488746237408"><ele>128.0</ele><time>2026-04-18T13:35:55Z</time></trkpt><trkpt lat="45.14603732331736" lon="8.341580406083521"><ele>128.0</ele><time>2026-04-18T13:35:59Z</time></trkpt><trkpt lat="45.14597550221492" lon="8.341613773729827"><ele>127.99999999999999</ele><time>2026-04-18T13:36:01Z</time></trkpt><trkpt lat="45.1459087944991" lon="8.341677382103443"><ele>128.0</ele><time>2026-04-18T13:36:02Z</time></trkpt><trkpt lat="45.14585356501782" lon="8.341723414098531"><ele>128.0</ele><time>2026-04-18T13:36:03Z</time></trkpt><trkpt lat="45.14579607320885" lon="8.341774893886901"><ele>127.99999999999999</ele><time>2026-04-18T13:36:04Z</time></trkpt><trkpt lat="45.14573685342588" lon="8.341827928140884"><ele>128.0</ele><time>2026-04-18T13:36:05Z</time></trkpt><trkpt lat="45.14566824276583" lon="8.341891408921773"><ele>128.0</ele><time>2026-04-18T13:36:06Z</time></trkpt><trkpt lat="45.14562682597228" lon="8.342011375419453"><ele>128.0</ele><time>2026-04-18T13:36:07Z</time></trkpt><trkpt lat="45.14555582416742" lon="8.342076140013111"><ele>128.0</ele><time>2026-04-18T13:36:08Z</time></trkpt><trkpt lat="45.14538420171541" lon="8.34193410628402"><ele>128.0</ele><time>2026-04-18T13:36:09Z</time></trkpt><trkpt lat="45.145301434508845" lon="8.342007923265463"><ele>128.0</ele><time>2026-04-18T13:36:10Z</time></trkpt><trkpt lat="45.145217073749485" lon="8.342083161478554"><ele>127.99999999999999</ele><time>2026-04-18T13:36:11Z</time></trkpt><trkpt lat="45.1451345532931" lon="8.342156758393154"><ele>128.0</ele><time>2026-04-18T13:36:12Z</time></trkpt><trkpt lat="45.145059449940256" lon="8.342221037947926"><ele>128.0</ele><time>2026-04-18T13:36:13Z</time></trkpt><trkpt lat="45.144980979773116" lon="8.342287625487456"><ele>128.0</ele><time>2026-04-18T13:36:14Z</time></trkpt><trkpt lat="45.14490498623741" lon="8.342352111431016"><ele>127.99999999999999</ele><time>2026-04-18T13:36:15Z</time></trkpt><trkpt lat="45.14484058069554" lon="8.34240623792103"><ele>128.0</ele><time>2026-04-18T13:36:16Z</time></trkpt><trkpt lat="45.14476865571522" lon="8.342466234581169"><ele>127.99999999999999</ele><time>2026-04-18T13:36:17Z</time></trkpt><trkpt lat="45.144689897193295" lon="8.342528312811535"><ele>128.0</ele><time>2026-04-18T13:36:18Z</time></trkpt><trkpt lat="45.14461591594907" lon="8.34258411581354"><ele>128.0</ele><time>2026-04-18T13:36:19Z</time></trkpt><trkpt lat="45.144538920820125" lon="8.342640037995801"><ele>128.0</ele><time>2026-04-18T13:36:20Z</time></trkpt><trkpt lat="45.144457431496086" lon="8.342696754137911"><ele>127.99999999999999</ele><time>2026-04-18T13:36:21Z</time></trkpt><trkpt lat="45.14437519533746" lon="8.342752997631456"><ele>128.0</ele><time>2026-04-18T13:36:22Z</time></trkpt><trkpt lat="45.14429032602472" lon="8.34280908999467"><ele>128.0</ele><time>2026-04-18T13:36:23Z</time></trkpt><trkpt lat="45.14420390105417" lon="8.342864985312008"><ele>128.0</ele><time>2026-04-18T13:36:24Z</time></trkpt><trkpt lat="45.1441182878701" lon="8.342918241268805"><ele>128.0</ele><time>2026-04-18T13:36:25Z</time></trkpt><trkpt lat="45.14402932966936" lon="8.342973114442696"><ele>128.0</ele><time>2026-04-18T13:36:26Z</time></trkpt><trkpt lat="45.143936453162084" lon="8.34302595438159"><ele>128.0</ele><time>2026-04-18T13:36:27Z</time></trkpt><trkpt lat="45.14384319616877" lon="8.343078293958538"><ele>128.20000000000002</ele><time>2026-04-18T13:36:28Z</time></trkpt><trkpt lat="45.14373864493043" lon="8.343133581510203"><ele>128.4</ele><time>2026-04-18T13:36:29Z</time></trkpt><trkpt lat="45.14363295795539" lon="8.343183928049838"><ele>128.60000000000002</ele><time>2026-04-18T13:36:30Z</time></trkpt><trkpt lat="45.14352882392296" lon="8.343230689427154"><ele>128.8</ele><time>2026-04-18T13:36:31Z</time></trkpt><trkpt lat="45.143426677963966" lon="8.343273942603716"><ele>129.0</ele><time>2026-04-18T13:36:32Z</time></trkpt><trkpt lat="45.14331566015595" lon="8.343317049788473"><ele>129.0</ele><time>2026-04-18T13:36:33Z</time></trkpt><trkpt lat="45.14321164324581" lon="8.343355745360068"><ele>129.0</ele><time>2026-04-18T13:36:34Z</time></trkpt><trkpt lat="45.143102479408526" lon="8.343394549489677"><ele>129.0</ele><time>2026-04-18T13:36:35Z</time></trkpt><trkpt lat="45.14298682935403" lon="8.34343273260592"><ele>129.0</ele><time>2026-04-18T13:36:36Z</time></trkpt><trkpt lat="45.14287044624566" lon="8.343471157746585"><ele>129.0</ele><time>2026-04-18T13:36:37Z</time></trkpt><trkpt lat="45.142758163574776" lon="8.343507748219317"><ele>129.0</ele><time>2026-04-18T13:36:38Z</time></trkpt><trkpt lat="45.14264762708054" lon="8.343543031732757"><ele>129.0</ele><time>2026-04-18T13:36:39Z</time></trkpt><trkpt lat="45.14254286130577" lon="8.343576085787028"><ele>129.0</ele><time>2026-04-18T13:36:40Z</time></trkpt><trkpt lat="45.14245471680276" lon="8.343603691347115"><ele>129.0</ele><time>2026-04-18T13:36:41Z</time></trkpt><trkpt lat="45.14237489760618" lon="8.343627727959603"><ele>128.83333333333334</ele><time>2026-04-18T13:36:42Z</time></trkpt><trkpt lat="45.14229755134033" lon="8.343651019872542"><ele>128.66666666666666</ele><time>2026-04-18T13:36:43Z</time></trkpt><trkpt lat="45.14221031171464" lon="8.343677291056903"><ele>128.5</ele><time>2026-04-18T13:36:44Z</time></trkpt><trkpt lat="45.14212888773578" lon="8.343701679329572"><ele>128.33333333333331</ele><time>2026-04-18T13:36:45Z</time></trkpt><trkpt lat="45.14205455678462" lon="8.343738795075586"><ele>128.16666666666666</ele><time>2026-04-18T13:36:46Z</time></trkpt><trkpt lat="45.141989207408145" lon="8.343777818945538"><ele>128.0</ele><time>2026-04-18T13:36:47Z</time></trkpt><trkpt lat="45.141927502570844" lon="8.343821081013836"><ele>129.0</ele><time>2026-04-18T13:36:48Z</time></trkpt><trkpt lat="45.14199343814497" lon="8.344643754510571"><ele>128.6</ele><time>2026-04-18T13:36:49Z</time></trkpt><trkpt lat="45.14195854830958" lon="8.344770416709705"><ele>128.2</ele><time>2026-04-18T13:36:50Z</time></trkpt><trkpt lat="45.141922542622055" lon="8.344895343666337"><ele>127.79999999999998</ele><time>2026-04-18T13:36:51Z</time></trkpt><trkpt lat="45.14188433450567" lon="8.345019734271258"><ele>127.39999999999999</ele><time>2026-04-18T13:36:52Z</time></trkpt><trkpt lat="45.14184169776235" lon="8.345141954323035"><ele>127.0</ele><time>2026-04-18T13:36:53Z</time></trkpt><trkpt lat="45.1417916274937" lon="8.345253188082694"><ele>127.0</ele><time>2026-04-18T13:36:54Z</time></trkpt><trkpt lat="45.141736071884296" lon="8.345368807853136"><ele>126.99999999999999</ele><time>2026-04-18T13:36:55Z</time></trkpt><trkpt lat="45.14166785156707" lon="8.345469877654862"><ele>126.99999999999999</ele><time>2026-04-18T13:36:56Z</time></trkpt><trkpt lat="45.14158622859886" lon="8.345564057634737"><ele>127.0</ele><time>2026-04-18T13:36:57Z</time></trkpt><trkpt lat="45.14149864056763" lon="8.345639902102604"><ele>127.0</ele><time>2026-04-18T13:36:58Z</time></trkpt><trkpt lat="45.141407866803554" lon="8.345690590733442"><ele>126.83333333333334</ele><time>2026-04-18T13:36:59Z</time></trkpt><trkpt lat="45.141318884627964" lon="8.345726803368612"><ele>126.66666666666667</ele><time>2026-04-18T13:37:00Z</time></trkpt><trkpt lat="45.14123470874325" lon="8.345760804475752"><ele>126.5</ele><time>2026-04-18T13:37:01Z</time></trkpt><trkpt lat="45.14116240778481" lon="8.345788173279228"><ele>126.33333333333334</ele><time>2026-04-18T13:37:02Z</time></trkpt><trkpt lat="45.141050283579155" lon="8.345763391284763"><ele>126.16666666666667</ele><time>2026-04-18T13:37:04Z</time></trkpt><trkpt lat="45.14101390795066" lon="8.345690448702067"><ele>126.0</ele><time>2026-04-18T13:37:05Z</time></trkpt><trkpt lat="45.140995387023324" lon="8.345572924868822"><ele>126.16666666666667</ele><time>2026-04-18T13:37:07Z</time></trkpt><trkpt lat="45.140936647610616" lon="8.345488089243576"><ele>126.33333333333334</ele><time>2026-04-18T13:37:09Z</time></trkpt><trkpt lat="45.14086768455022" lon="8.345451528705654"><ele>126.5</ele><time>2026-04-18T13:37:10Z</time></trkpt><trkpt lat="45.14079271099106" lon="8.34541268259217"><ele>126.66666666666667</ele><time>2026-04-18T13:37:11Z</time></trkpt><trkpt lat="45.14071561805947" lon="8.345370064685236"><ele>126.83333333333334</ele><time>2026-04-18T13:37:12Z</time></trkpt><trkpt lat="45.14062829707303" lon="8.345325665805666"><ele>127.0</ele><time>2026-04-18T13:37:13Z</time></trkpt><trkpt lat="45.140532845858935" lon="8.34528089379015"><ele>127.00000000000001</ele><time>2026-04-18T13:37:14Z</time></trkpt><trkpt lat="45.140439075739565" lon="8.34523448557118"><ele>127.0</ele><time>2026-04-18T13:37:15Z</time></trkpt><trkpt lat="45.140357811529945" lon="8.345184828533947"><ele>127.0</ele><time>2026-04-18T13:37:16Z</time></trkpt><trkpt lat="45.140281152848154" lon="8.345139887192998"><ele>127.0</ele><time>2026-04-18T13:37:17Z</time></trkpt><trkpt lat="45.14021213296155" lon="8.345099572929078"><ele>127.00000000000001</ele><time>2026-04-18T13:37:18Z</time></trkpt><trkpt lat="45.14015241508289" lon="8.345061877581433"><ele>127.0</ele><time>2026-04-18T13:37:18.999Z</time></trkpt><trkpt lat="45.140071973026394" lon="8.345021583489212"><ele>127.0</ele><time>2026-04-18T13:37:20.999Z</time></trkpt><trkpt lat="45.139959763048395" lon="8.345035263061021"><ele>126.99999999999999</ele><time>2026-04-18T13:37:23.999Z</time></trkpt><trkpt lat="45.1399135126694" lon="8.345125880532951"><ele>126.99999999999999</ele><time>2026-04-18T13:37:24.999Z</time></trkpt><trkpt lat="45.13987805003635" lon="8.345231859448514"><ele>127.0</ele><time>2026-04-18T13:37:25.999Z</time></trkpt><trkpt lat="45.13985396068494" lon="8.34534314475094"><ele>127.0</ele><time>2026-04-18T13:37:26.999Z</time></trkpt><trkpt lat="45.1398168004502" lon="8.34546443279399"><ele>126.6</ele><time>2026-04-18T13:37:27.999Z</time></trkpt><trkpt lat="45.13977626730939" lon="8.345604894809412"><ele>126.19999999999999</ele><time>2026-04-18T13:37:29Z</time></trkpt><trkpt lat="45.13973781392" lon="8.34574964755229"><ele>125.8</ele><time>2026-04-18T13:37:30Z</time></trkpt><trkpt lat="45.13970034329635" lon="8.345889807867064"><ele>125.4</ele><time>2026-04-18T13:37:31Z</time></trkpt><trkpt lat="45.13966955168076" lon="8.346005267839384"><ele>125.0</ele><time>2026-04-18T13:37:32Z</time></trkpt><trkpt lat="45.13962739218198" lon="8.346092358327304"><ele>125.0</ele><time>2026-04-18T13:37:33Z</time></trkpt><trkpt lat="45.139602884011886" lon="8.346176913085172"><ele>125.0</ele><time>2026-04-18T13:37:34Z</time></trkpt><trkpt lat="45.13955895766159" lon="8.346304913205431"><ele>125.0</ele><time>2026-04-18T13:37:36Z</time></trkpt><trkpt lat="45.13949712220137" lon="8.346326271359963"><ele>125.0</ele><time>2026-04-18T13:37:38Z</time></trkpt><trkpt lat="45.13926612573286" lon="8.346229019931807"><ele>124.99999999999999</ele><time>2026-04-18T13:37:40Z</time></trkpt><trkpt lat="45.1391983294178" lon="8.346201296490602"><ele>125.0</ele><time>2026-04-18T13:37:41Z</time></trkpt><trkpt lat="45.13908873914529" lon="8.346219379709517"><ele>125.0</ele><time>2026-04-18T13:37:43Z</time></trkpt><trkpt lat="45.139049041715516" lon="8.346289369013874"><ele>125.0</ele><time>2026-04-18T13:37:44Z</time></trkpt><trkpt lat="45.139013841261146" lon="8.346386346267618"><ele>124.99999999999999</ele><time>2026-04-18T13:37:45Z</time></trkpt><trkpt lat="45.138970716275786" lon="8.346492544572895"><ele>125.0</ele><time>2026-04-18T13:37:46Z</time></trkpt><trkpt lat="45.138931843450976" lon="8.34659620677597"><ele>125.49999999999999</ele><time>2026-04-18T13:37:47Z</time></trkpt><trkpt lat="45.13888536758313" lon="8.34670064710608"><ele>126.0</ele><time>2026-04-18T13:37:48Z</time></trkpt><trkpt lat="45.13884076233769" lon="8.346807121982465"><ele>126.5</ele><time>2026-04-18T13:37:49Z</time></trkpt><trkpt lat="45.138795909815755" lon="8.346913225916769"><ele>127.0</ele><time>2026-04-18T13:37:50Z</time></trkpt><trkpt lat="45.13875293930133" lon="8.347008848104332"><ele>127.49999999999999</ele><time>2026-04-18T13:37:51Z</time></trkpt><trkpt lat="45.13870904921112" lon="8.347112130956704"><ele>128.0</ele><time>2026-04-18T13:37:52Z</time></trkpt><trkpt lat="45.13866328950813" lon="8.347202746971929"><ele>128.33333333333331</ele><time>2026-04-18T13:37:53Z</time></trkpt><trkpt lat="45.138612650896796" lon="8.347292024931049"><ele>128.66666666666666</ele><time>2026-04-18T13:37:54Z</time></trkpt><trkpt lat="45.13856109084328" lon="8.34735146622402"><ele>129.0</ele><time>2026-04-18T13:37:55Z</time></trkpt><trkpt lat="45.13849236720965" lon="8.347393679077966"><ele>129.33333333333334</ele><time>2026-04-18T13:37:56Z</time></trkpt><trkpt lat="45.13842074222032" lon="8.347394562536431"><ele>129.66666666666669</ele><time>2026-04-18T13:37:57Z</time></trkpt><trkpt lat="45.13833648979536" lon="8.347359371889832"><ele>130.0</ele><time>2026-04-18T13:37:58Z</time></trkpt><trkpt lat="45.138269694594335" lon="8.347321562285357"><ele>129.83333333333334</ele><time>2026-04-18T13:37:59Z</time></trkpt><trkpt lat="45.138200374051046" lon="8.347304179722963"><ele>129.66666666666669</ele><time>2026-04-18T13:38:00Z</time></trkpt><trkpt lat="45.13808081503864" lon="8.347376111897145"><ele>129.5</ele><time>2026-04-18T13:38:02Z</time></trkpt><trkpt lat="45.13800773416343" lon="8.347436408691424"><ele>129.33333333333334</ele><time>2026-04-18T13:38:03Z</time></trkpt><trkpt lat="45.13793335407867" lon="8.34746571639832"><ele>129.16666666666666</ele><time>2026-04-18T13:38:04Z</time></trkpt><trkpt lat="45.13786049612537" lon="8.347481701137017"><ele>129.0</ele><time>2026-04-18T13:38:05Z</time></trkpt><trkpt lat="45.137769654957054" lon="8.347528290622114"><ele>129.0</ele><time>2026-04-18T13:38:07Z</time></trkpt><trkpt lat="45.137690388832034" lon="8.34765585322746"><ele>129.0</ele><time>2026-04-18T13:38:09Z</time></trkpt><trkpt lat="45.13766236466625" lon="8.347756961138142"><ele>129.0</ele><time>2026-04-18T13:38:10Z</time></trkpt><trkpt lat="45.137636812924924" lon="8.347877642200793"><ele>129.0</ele><time>2026-04-18T13:38:11Z</time></trkpt><trkpt lat="45.13760613763564" lon="8.347978492570451"><ele>129.0</ele><time>2026-04-18T13:38:12Z</time></trkpt><trkpt lat="45.137560723859046" lon="8.34804332491598"><ele>129.0</ele><time>2026-04-18T13:38:13Z</time></trkpt><trkpt lat="45.13748214734408" lon="8.348063044927175"><ele>129.0</ele><time>2026-04-18T13:38:14Z</time></trkpt><trkpt lat="45.13739054391661" lon="8.348040400129745"><ele>129.0</ele><time>2026-04-18T13:38:15Z</time></trkpt><trkpt lat="45.1372942027333" lon="8.34800055218089"><ele>129.0</ele><time>2026-04-18T13:38:16Z</time></trkpt><trkpt lat="45.137203407240456" lon="8.347954552079761"><ele>129.0</ele><time>2026-04-18T13:38:17Z</time></trkpt><trkpt lat="45.137113187144344" lon="8.347914840847709"><ele>129.0</ele><time>2026-04-18T13:38:18Z</time></trkpt><trkpt lat="45.13703033611066" lon="8.347878467326241"><ele>129.33333333333334</ele><time>2026-04-18T13:38:19Z</time></trkpt><trkpt lat="45.136943506349034" lon="8.347850376822956"><ele>129.66666666666666</ele><time>2026-04-18T13:38:20Z</time></trkpt><trkpt lat="45.13685466197069" lon="8.347817682966632"><ele>130.0</ele><time>2026-04-18T13:38:21Z</time></trkpt><trkpt lat="45.13677666678622" lon="8.347786726931464"><ele>130.33333333333331</ele><time>2026-04-18T13:38:22Z</time></trkpt><trkpt lat="45.13671107588482" lon="8.347744431784621"><ele>130.66666666666666</ele><time>2026-04-18T13:38:23Z</time></trkpt><trkpt lat="45.13665273226492" lon="8.347690037285089"><ele>131.0</ele><time>2026-04-18T13:38:24Z</time></trkpt><trkpt lat="45.136590546888144" lon="8.347629184774037"><ele>131.16666666666666</ele><time>2026-04-18T13:38:25Z</time></trkpt><trkpt lat="45.13652160059334" lon="8.347577810621054"><ele>131.33333333333331</ele><time>2026-04-18T13:38:26Z</time></trkpt><trkpt lat="45.136429370267884" lon="8.347546758641297"><ele>131.5</ele><time>2026-04-18T13:38:27Z</time></trkpt><trkpt lat="45.13633988168152" lon="8.347537948613107"><ele>131.66666666666666</ele><time>2026-04-18T13:38:28Z</time></trkpt><trkpt lat="45.13624759513878" lon="8.347549869981352"><ele>131.83333333333334</ele><time>2026-04-18T13:38:29Z</time></trkpt><trkpt lat="45.13615926134126" lon="8.347569010135112"><ele>132.0</ele><time>2026-04-18T13:38:30Z</time></trkpt><trkpt lat="45.13608245814025" lon="8.347585854133406"><ele>132.0</ele><time>2026-04-18T13:38:31Z</time></trkpt><trkpt lat="45.13597614478832" lon="8.347604273780892"><ele>132.0</ele><time>2026-04-18T13:38:33Z</time></trkpt><trkpt lat="45.13592455512759" lon="8.347679182880409"><ele>132.0</ele><time>2026-04-18T13:38:35Z</time></trkpt><trkpt lat="45.135896611855635" lon="8.347785968379448"><ele>132.0</ele><time>2026-04-18T13:38:36Z</time></trkpt><trkpt lat="45.13587962929685" lon="8.347911453668813"><ele>132.0</ele><time>2026-04-18T13:38:37Z</time></trkpt><trkpt lat="45.13586187979451" lon="8.34803797096186"><ele>132.0</ele><time>2026-04-18T13:38:38Z</time></trkpt><trkpt lat="45.1358347415411" lon="8.34819259868193"><ele>132.2</ele><time>2026-04-18T13:38:39Z</time></trkpt><trkpt lat="45.13580936120463" lon="8.34833551153442"><ele>132.39999999999998</ele><time>2026-04-18T13:38:40Z</time></trkpt><trkpt lat="45.13580256382047" lon="8.348473856185045"><ele>132.60000000000002</ele><time>2026-04-18T13:38:41Z</time></trkpt><trkpt lat="45.135797566506334" lon="8.34858827918347"><ele>132.8</ele><time>2026-04-18T13:38:42Z</time></trkpt><trkpt lat="45.13578648612169" lon="8.348708308469737"><ele>133.0</ele><time>2026-04-18T13:38:43Z</time></trkpt><trkpt lat="45.13577793913997" lon="8.348829139698433"><ele>133.16666666666669</ele><time>2026-04-18T13:38:44Z</time></trkpt><trkpt lat="45.13576714293855" lon="8.348951276874844"><ele>133.33333333333334</ele><time>2026-04-18T13:38:45Z</time></trkpt><trkpt lat="45.135751466062" lon="8.349077409166927"><ele>133.5</ele><time>2026-04-18T13:38:46Z</time></trkpt><trkpt lat="45.1357388501682" lon="8.349202457451574"><ele>133.66666666666666</ele><time>2026-04-18T13:38:47Z</time></trkpt><trkpt lat="45.13572955211538" lon="8.349327803533788"><ele>133.83333333333331</ele><time>2026-04-18T13:38:48Z</time></trkpt><trkpt lat="45.13571495112949" lon="8.349457609294957"><ele>134.0</ele><time>2026-04-18T13:38:49Z</time></trkpt><trkpt lat="45.13570474981059" lon="8.349588330354381"><ele>134.83333333333331</ele><time>2026-04-18T13:38:50Z</time></trkpt><trkpt lat="45.135689818552486" lon="8.349708249056858"><ele>135.66666666666666</ele><time>2026-04-18T13:38:51Z</time></trkpt><trkpt lat="45.135677868788434" lon="8.349823031580556"><ele>136.5</ele><time>2026-04-18T13:38:52Z</time></trkpt><trkpt lat="45.13566480061426" lon="8.349935557687315"><ele>137.33333333333334</ele><time>2026-04-18T13:38:53Z</time></trkpt><trkpt lat="45.13565367606359" lon="8.350045170944524"><ele>138.16666666666669</ele><time>2026-04-18T13:38:54Z</time></trkpt><trkpt lat="45.135644942688096" lon="8.350149065793582"><ele>139.0</ele><time>2026-04-18T13:38:55Z</time></trkpt><trkpt lat="45.13563445759661" lon="8.350259937375537"><ele>139.5</ele><time>2026-04-18T13:38:56Z</time></trkpt><trkpt lat="45.13562752362041" lon="8.350367139318102"><ele>140.0</ele><time>2026-04-18T13:38:57Z</time></trkpt><trkpt lat="45.13562018621244" lon="8.350479602119522"><ele>140.5</ele><time>2026-04-18T13:38:58Z</time></trkpt><trkpt lat="45.13561449058403" lon="8.350587630823657"><ele>141.0</ele><time>2026-04-18T13:38:59Z</time></trkpt><trkpt lat="45.13561309374684" lon="8.35070192311842"><ele>141.5</ele><time>2026-04-18T13:39:00Z</time></trkpt><trkpt lat="45.135611691143" lon="8.350805081284062"><ele>142.0</ele><time>2026-04-18T13:39:01Z</time></trkpt><trkpt lat="45.135611704662516" lon="8.350910953571207"><ele>142.16666666666669</ele><time>2026-04-18T13:39:02Z</time></trkpt><trkpt lat="45.135610032543255" lon="8.351008991243976"><ele>142.33333333333334</ele><time>2026-04-18T13:39:03Z</time></trkpt><trkpt lat="45.13560715063325" lon="8.351105763667512"><ele>142.5</ele><time>2026-04-18T13:39:04Z</time></trkpt><trkpt lat="45.13560395478715" lon="8.351221867251088"><ele>142.66666666666666</ele><time>2026-04-18T13:39:05Z</time></trkpt><trkpt lat="45.13561704103198" lon="8.351335261826534"><ele>142.83333333333331</ele><time>2026-04-18T13:39:06Z</time></trkpt><trkpt lat="45.13560721459728" lon="8.351447843497304"><ele>143.0</ele><time>2026-04-18T13:39:07Z</time></trkpt><trkpt lat="45.13560092076462" lon="8.351555210333093"><ele>143.33333333333331</ele><time>2026-04-18T13:39:08Z</time></trkpt><trkpt lat="45.13560913827446" lon="8.351667723729982"><ele>143.66666666666666</ele><time>2026-04-18T13:39:09Z</time></trkpt><trkpt lat="45.13562148633176" lon="8.351784404099549"><ele>144.0</ele><time>2026-04-18T13:39:10Z</time></trkpt><trkpt lat="45.13563513021943" lon="8.351891084403263"><ele>144.33333333333334</ele><time>2026-04-18T13:39:11Z</time></trkpt><trkpt lat="45.13565018501519" lon="8.352005989671676"><ele>144.66666666666669</ele><time>2026-04-18T13:39:12Z</time></trkpt><trkpt lat="45.135662832826895" lon="8.35213024787136"><ele>145.0</ele><time>2026-04-18T13:39:13Z</time></trkpt><trkpt lat="45.13567654332161" lon="8.352248550879738"><ele>145.33333333333334</ele><time>2026-04-18T13:39:14Z</time></trkpt><trkpt lat="45.13569084676013" lon="8.352358175066195"><ele>145.66666666666669</ele><time>2026-04-18T13:39:15Z</time></trkpt><trkpt lat="45.13569907866798" lon="8.352461115926756"><ele>146.0</ele><time>2026-04-18T13:39:16Z</time></trkpt><trkpt lat="45.135708347850404" lon="8.35256431956748"><ele>146.33333333333334</ele><time>2026-04-18T13:39:17Z</time></trkpt><trkpt lat="45.13572074954598" lon="8.352677279098712"><ele>146.66666666666666</ele><time>2026-04-18T13:39:18Z</time></trkpt><trkpt lat="45.13573039735858" lon="8.352775018255253"><ele>147.0</ele><time>2026-04-18T13:39:19Z</time></trkpt><trkpt lat="45.13572798418967" lon="8.3529136755313"><ele>148.79999999999998</ele><time>2026-04-18T13:39:21Z</time></trkpt><trkpt lat="45.13568785388358" lon="8.353042056111967"><ele>150.6</ele><time>2026-04-18T13:39:23Z</time></trkpt><trkpt lat="45.135685520389394" lon="8.35316153487368"><ele>152.39999999999998</ele><time>2026-04-18T13:39:24.999Z</time></trkpt><trkpt lat="45.1356739267183" lon="8.353295722604939"><ele>154.2</ele><time>2026-04-18T13:39:26.999Z</time></trkpt><trkpt lat="45.135659016866995" lon="8.353456065538493"><ele>156.0</ele><time>2026-04-18T13:39:28.999Z</time></trkpt><trkpt lat="45.13566597649981" lon="8.353577215404995"><ele>156.0</ele><time>2026-04-18T13:39:29.999Z</time></trkpt><trkpt lat="45.13566566962585" lon="8.3536864087172"><ele>156.0</ele><time>2026-04-18T13:39:30.999Z</time></trkpt><trkpt lat="45.135664464745794" lon="8.353824831210307"><ele>156.0</ele><time>2026-04-18T13:39:32.999Z</time></trkpt><trkpt lat="45.13568044536834" lon="8.353973124300692"><ele>156.0</ele><time>2026-04-18T13:39:34.999Z</time></trkpt><trkpt lat="45.13565984362212" lon="8.35411135393454"><ele>156.0</ele><time>2026-04-18T13:39:36.999Z</time></trkpt><trkpt lat="45.13563593300666" lon="8.354275452121483"><ele>156.16666666666666</ele><time>2026-04-18T13:39:38.999Z</time></trkpt><trkpt lat="45.13563353153886" lon="8.354385195596391"><ele>156.33333333333334</ele><time>2026-04-18T13:39:40Z</time></trkpt><trkpt lat="45.13561434820092" lon="8.35451975537111"><ele>156.5</ele><time>2026-04-18T13:39:42Z</time></trkpt><trkpt lat="45.135610874598854" lon="8.354622059699862"><ele>156.66666666666669</ele><time>2026-04-18T13:39:44Z</time></trkpt><trkpt lat="45.1356035126822" lon="8.354747982948574"><ele>156.83333333333334</ele><time>2026-04-18T13:39:46Z</time></trkpt><trkpt lat="45.13560065693488" lon="8.354859360459416"><ele>157.0</ele><time>2026-04-18T13:39:48Z</time></trkpt><trkpt lat="45.13566082342374" lon="8.354900584201873"><ele>157.0</ele><time>2026-04-18T13:39:50Z</time></trkpt><trkpt lat="45.13576560758699" lon="8.354902413042604"><ele>157.0</ele><time>2026-04-18T13:39:52Z</time></trkpt><trkpt lat="45.1358760988704" lon="8.354930706055693"><ele>157.0</ele><time>2026-04-18T13:39:54Z</time></trkpt><trkpt lat="45.13594199606748" lon="8.354938541545996"><ele>157.0</ele><time>2026-04-18T13:39:55Z</time></trkpt><trkpt lat="45.13604390893516" lon="8.354971667945033"><ele>157.0</ele><time>2026-04-18T13:39:57Z</time></trkpt><trkpt lat="45.13609031363772" lon="8.355083379580194"><ele>157.0</ele><time>2026-04-18T13:39:59Z</time></trkpt><trkpt lat="45.13613609905037" lon="8.355205218016257"><ele>157.0</ele><time>2026-04-18T13:40:02Z</time></trkpt><trkpt lat="45.13616819100471" lon="8.355310556061"><ele>157.0</ele><time>2026-04-18T13:40:03Z</time></trkpt><trkpt lat="45.136182511092734" lon="8.355409539015234"><ele>157.0</ele><time>2026-04-18T13:40:04Z</time></trkpt><trkpt lat="45.1362239707455" lon="8.355536864184016"><ele>157.0</ele><time>2026-04-18T13:40:06Z</time></trkpt><trkpt lat="45.13629122648213" lon="8.355586849356945"><ele>157.0</ele><time>2026-04-18T13:40:10Z</time></trkpt><trkpt lat="45.13636067413804" lon="8.355645027844714"><ele>157.5</ele><time>2026-04-18T13:40:12Z</time></trkpt><trkpt lat="45.13647126126441" lon="8.35567943441766"><ele>158.0</ele><time>2026-04-18T13:40:14Z</time></trkpt><trkpt lat="45.13658329198372" lon="8.355728622788096"><ele>158.5</ele><time>2026-04-18T13:40:16Z</time></trkpt><trkpt lat="45.13669859820806" lon="8.3558079758585"><ele>159.0</ele><time>2026-04-18T13:40:18Z</time></trkpt><trkpt lat="45.13681670704956" lon="8.355867755840723"><ele>160.4</ele><time>2026-04-18T13:40:20Z</time></trkpt><trkpt lat="45.13692992673481" lon="8.3559268746022"><ele>161.8</ele><time>2026-04-18T13:40:22Z</time></trkpt><trkpt lat="45.137050503645696" lon="8.355982920958807"><ele>163.20000000000002</ele><time>2026-04-18T13:40:24Z</time></trkpt><trkpt lat="45.13716999857049" lon="8.35603315176327"><ele>164.60000000000002</ele><time>2026-04-18T13:40:26Z</time></trkpt><trkpt lat="45.137232733069354" lon="8.35604639077302"><ele>166.0</ele><time>2026-04-18T13:40:27Z</time></trkpt><trkpt lat="45.13729482399704" lon="8.356070367152839"><ele>168.8</ele><time>2026-04-18T13:40:28Z</time></trkpt><trkpt lat="45.137398912264636" lon="8.356120314375879"><ele>171.60000000000002</ele><time>2026-04-18T13:40:30Z</time></trkpt><trkpt lat="45.1374949220479" lon="8.356162220742084"><ele>174.4</ele><time>2026-04-18T13:40:32Z</time></trkpt><trkpt lat="45.13758222697485" lon="8.35618981102393"><ele>177.2</ele><time>2026-04-18T13:40:34Z</time></trkpt><trkpt lat="45.1376952842219" lon="8.356216543764575"><ele>180.0</ele><time>2026-04-18T13:40:36Z</time></trkpt><trkpt lat="45.137774991778954" lon="8.35626267004447"><ele>180.0</ele><time>2026-04-18T13:40:38Z</time></trkpt><trkpt lat="45.13781723702513" lon="8.356358652185042"><ele>180.0</ele><time>2026-04-18T13:40:41Z</time></trkpt><trkpt lat="45.1378052510388" lon="8.356505942441922"><ele>180.0</ele><time>2026-04-18T13:40:43Z</time></trkpt><trkpt lat="45.13779919018016" lon="8.356597794739484"><ele>180.0</ele><time>2026-04-18T13:40:44Z</time></trkpt><trkpt lat="45.13781888612349" lon="8.356755039470947"><ele>180.0</ele><time>2026-04-18T13:40:46Z</time></trkpt><trkpt lat="45.137875789909" lon="8.356839646405849"><ele>180.0</ele><time>2026-04-18T13:40:48Z</time></trkpt><trkpt lat="45.137961524342636" lon="8.356927435451025"><ele>181.2</ele><time>2026-04-18T13:40:50Z</time></trkpt><trkpt lat="45.13804354128488" lon="8.357036683420421"><ele>182.4</ele><time>2026-04-18T13:40:52Z</time></trkpt><trkpt lat="45.13809349562934" lon="8.357146144740465"><ele>183.60000000000002</ele><time>2026-04-18T13:40:54Z</time></trkpt><trkpt lat="45.13813074487764" lon="8.357274432719977"><ele>184.8</ele><time>2026-04-18T13:40:56Z</time></trkpt><trkpt lat="45.13815325317748" lon="8.35739211058378"><ele>186.0</ele><time>2026-04-18T13:40:58Z</time></trkpt><trkpt lat="45.13821970338305" lon="8.357427650244983"><ele>190.4</ele><time>2026-04-18T13:41:01Z</time></trkpt><trkpt lat="45.1382590931554" lon="8.357523566945"><ele>194.8</ele><time>2026-04-18T13:41:03Z</time></trkpt><trkpt lat="45.138262614959196" lon="8.357644914552969"><ele>199.20000000000002</ele><time>2026-04-18T13:41:05Z</time></trkpt><trkpt lat="45.138307606780764" lon="8.35773101801363"><ele>203.60000000000002</ele><time>2026-04-18T13:41:07Z</time></trkpt><trkpt lat="45.13834540677087" lon="8.357810388772277"><ele>208.0</ele><time>2026-04-18T13:41:09Z</time></trkpt><trkpt lat="45.13833428085709" lon="8.358019603846563"><ele>208.99999999999997</ele><time>2026-04-18T13:41:11Z</time></trkpt><trkpt lat="45.13832882207076" lon="8.358155259836401"><ele>210.0</ele><time>2026-04-18T13:41:12Z</time></trkpt><trkpt lat="45.138342769910984" lon="8.358298106612517"><ele>211.0</ele><time>2026-04-18T13:41:13Z</time></trkpt><trkpt lat="45.13833877883362" lon="8.35842864297267"><ele>212.0</ele><time>2026-04-18T13:41:14Z</time></trkpt><trkpt lat="45.13833692882316" lon="8.358529520238621"><ele>212.99999999999997</ele><time>2026-04-18T13:41:15Z</time></trkpt><trkpt lat="45.13834211226854" lon="8.358647930023059"><ele>214.0</ele><time>2026-04-18T13:41:16Z</time></trkpt><trkpt lat="45.13834582327963" lon="8.358748242208167"><ele>213.99999999999997</ele><time>2026-04-18T13:41:17Z</time></trkpt><trkpt lat="45.13834792052435" lon="8.358846434336892"><ele>214.0</ele><time>2026-04-18T13:41:18Z</time></trkpt><trkpt lat="45.13835690148501" lon="8.35893782532318"><ele>214.0</ele><time>2026-04-18T13:41:19Z</time></trkpt><trkpt lat="45.13835893123055" lon="8.359124685579555"><ele>214.0</ele><time>2026-04-18T13:41:21Z</time></trkpt><trkpt lat="45.13836317356335" lon="8.359217787839027"><ele>213.99999999999997</ele><time>2026-04-18T13:41:22Z</time></trkpt><trkpt lat="45.13836771314646" lon="8.359311875357102"><ele>214.0</ele><time>2026-04-18T13:41:23Z</time></trkpt><trkpt lat="45.13837102115278" lon="8.359419608212653"><ele>214.49999999999997</ele><time>2026-04-18T13:41:24Z</time></trkpt><trkpt lat="45.13837962592728" lon="8.359546248392915"><ele>215.0</ele><time>2026-04-18T13:41:26Z</time></trkpt><trkpt lat="45.1384182303988" lon="8.359692510617197"><ele>215.5</ele><time>2026-04-18T13:41:28Z</time></trkpt><trkpt lat="45.13843705480763" lon="8.359788011617997"><ele>216.0</ele><time>2026-04-18T13:41:29Z</time></trkpt><trkpt lat="45.138459576194386" lon="8.359879321452777"><ele>216.49999999999997</ele><time>2026-04-18T13:41:30Z</time></trkpt><trkpt lat="45.13847567259857" lon="8.359968233008944"><ele>217.0</ele><time>2026-04-18T13:41:30.999Z</time></trkpt><trkpt lat="45.13850456798976" lon="8.360099877327482"><ele>217.6</ele><time>2026-04-18T13:41:32.999Z</time></trkpt><trkpt lat="45.13852740843496" lon="8.360267133919688"><ele>218.2</ele><time>2026-04-18T13:41:34.999Z</time></trkpt><trkpt lat="45.138550123231376" lon="8.360369021561569"><ele>218.8</ele><time>2026-04-18T13:41:35.999Z</time></trkpt><trkpt lat="45.138576112845385" lon="8.360478869706368"><ele>219.4</ele><time>2026-04-18T13:41:36.999Z</time></trkpt><trkpt lat="45.1386041692922" lon="8.360592201611723"><ele>220.0</ele><time>2026-04-18T13:41:37.999Z</time></trkpt><trkpt lat="45.138635179641156" lon="8.360711132117189"><ele>220.0</ele><time>2026-04-18T13:41:38.999Z</time></trkpt><trkpt lat="45.13866510128595" lon="8.36083114435444"><ele>220.0</ele><time>2026-04-18T13:41:39.999Z</time></trkpt><trkpt lat="45.13868789847951" lon="8.360963454758133"><ele>220.0</ele><time>2026-04-18T13:41:40.999Z</time></trkpt><trkpt lat="45.13871671617006" lon="8.361090062140889"><ele>220.0</ele><time>2026-04-18T13:41:41.999Z</time></trkpt><trkpt lat="45.13874877374278" lon="8.361229472338099"><ele>220.0</ele><time>2026-04-18T13:41:42.999Z</time></trkpt><trkpt lat="45.138783248093965" lon="8.361355943536026"><ele>218.8</ele><time>2026-04-18T13:41:43.999Z</time></trkpt><trkpt lat="45.13880844672029" lon="8.36147245275683"><ele>217.6</ele><time>2026-04-18T13:41:44.999Z</time></trkpt><trkpt lat="45.13883561652748" lon="8.361597835239078"><ele>216.39999999999998</ele><time>2026-04-18T13:41:46Z</time></trkpt><trkpt lat="45.138862501680585" lon="8.361729587695441"><ele>215.2</ele><time>2026-04-18T13:41:47Z</time></trkpt><trkpt lat="45.13889291180294" lon="8.361860613537836"><ele>214.0</ele><time>2026-04-18T13:41:48Z</time></trkpt><trkpt lat="45.13892485213115" lon="8.361995913130906"><ele>214.0</ele><time>2026-04-18T13:41:49Z</time></trkpt><trkpt lat="45.13895176785293" lon="8.362127404581752"><ele>213.99999999999997</ele><time>2026-04-18T13:41:50Z</time></trkpt><trkpt lat="45.13897926683011" lon="8.362259472097083"><ele>213.99999999999997</ele><time>2026-04-18T13:41:51Z</time></trkpt><trkpt lat="45.13900823315409" lon="8.362402840074605"><ele>214.0</ele><time>2026-04-18T13:41:52Z</time></trkpt><trkpt lat="45.13903647225821" lon="8.362541910716741"><ele>214.0</ele><time>2026-04-18T13:41:53Z</time></trkpt><trkpt lat="45.1390656209171" lon="8.362685263012294"><ele>214.79999999999998</ele><time>2026-04-18T13:41:54Z</time></trkpt><trkpt lat="45.13909723836227" lon="8.36283067892756"><ele>215.59999999999997</ele><time>2026-04-18T13:41:55Z</time></trkpt><trkpt lat="45.13913084845819" lon="8.362975546233848"><ele>216.4</ele><time>2026-04-18T13:41:56Z</time></trkpt><trkpt lat="45.1391650256888" lon="8.363118656987751"><ele>217.2</ele><time>2026-04-18T13:41:57Z</time></trkpt><trkpt lat="45.139197056848666" lon="8.363264107646275"><ele>218.0</ele><time>2026-04-18T13:41:58Z</time></trkpt><trkpt lat="45.13922645769836" lon="8.363411745412465"><ele>218.25</ele><time>2026-04-18T13:41:59Z</time></trkpt><trkpt lat="45.1392556822195" lon="8.363561167092906"><ele>218.5</ele><time>2026-04-18T13:42:00Z</time></trkpt><trkpt lat="45.13928213831523" lon="8.363715747657572"><ele>218.75</ele><time>2026-04-18T13:42:01Z</time></trkpt><trkpt lat="45.13930830035892" lon="8.363877342631435"><ele>219.0</ele><time>2026-04-18T13:42:02Z</time></trkpt><trkpt lat="45.13932996376983" lon="8.364044741156427"><ele>219.0</ele><time>2026-04-18T13:42:03Z</time></trkpt><trkpt lat="45.13934248748167" lon="8.364208582081071"><ele>219.0</ele><time>2026-04-18T13:42:04Z</time></trkpt><trkpt lat="45.139353128031146" lon="8.36436779327643"><ele>219.0</ele><time>2026-04-18T13:42:05Z</time></trkpt><trkpt lat="45.13936312246919" lon="8.364530175963154"><ele>219.0</ele><time>2026-04-18T13:42:06Z</time></trkpt><trkpt lat="45.13936674454238" lon="8.364699533666416"><ele>217.75</ele><time>2026-04-18T13:42:07Z</time></trkpt><trkpt lat="45.139327513609736" lon="8.364868223039123"><ele>216.5</ele><time>2026-04-18T13:42:08Z</time></trkpt><trkpt lat="45.13927806726474" lon="8.365048974268335"><ele>215.25</ele><time>2026-04-18T13:42:09Z</time></trkpt><trkpt lat="45.13921501848563" lon="8.365229194908002"><ele>214.0</ele><time>2026-04-18T13:42:10Z</time></trkpt><trkpt lat="45.1391458793181" lon="8.365392019132242"><ele>214.0</ele><time>2026-04-18T13:42:11Z</time></trkpt><trkpt lat="45.13907389761061" lon="8.36552561285913"><ele>214.0</ele><time>2026-04-18T13:42:12Z</time></trkpt><trkpt lat="45.139000570229264" lon="8.365658113294673"><ele>214.0</ele><time>2026-04-18T13:42:13Z</time></trkpt><trkpt lat="45.13893279386922" lon="8.365784179707298"><ele>214.0</ele><time>2026-04-18T13:42:14Z</time></trkpt><trkpt lat="45.13887812124991" lon="8.365911803858609"><ele>212.2</ele><time>2026-04-18T13:42:15Z</time></trkpt><trkpt lat="45.1388364156492" lon="8.366045119302184"><ele>210.39999999999998</ele><time>2026-04-18T13:42:16Z</time></trkpt><trkpt lat="45.138802910548534" lon="8.366178850315558"><ele>208.6</ele><time>2026-04-18T13:42:17Z</time></trkpt><trkpt lat="45.13879618214137" lon="8.366317779075176"><ele>206.8</ele><time>2026-04-18T13:42:18Z</time></trkpt><trkpt lat="45.13878359460035" lon="8.366432703546279"><ele>205.0</ele><time>2026-04-18T13:42:19Z</time></trkpt><trkpt lat="45.138782726152726" lon="8.366532601234768"><ele>205.0</ele><time>2026-04-18T13:42:20Z</time></trkpt><trkpt lat="45.13873925114531" lon="8.366635436929919"><ele>205.0</ele><time>2026-04-18T13:42:22Z</time></trkpt><trkpt lat="45.138596262764736" lon="8.366513081978745"><ele>205.0</ele><time>2026-04-18T13:42:25Z</time></trkpt><trkpt lat="45.13849221134879" lon="8.366451507773723"><ele>205.0</ele><time>2026-04-18T13:42:27Z</time></trkpt><trkpt lat="45.13838985446218" lon="8.366440281501868"><ele>204.99999999999997</ele><time>2026-04-18T13:42:29Z</time></trkpt><trkpt lat="45.138315758762225" lon="8.366459535889621"><ele>205.0</ele><time>2026-04-18T13:42:30Z</time></trkpt><trkpt lat="45.1382414900263" lon="8.366568000133825"><ele>205.0</ele><time>2026-04-18T13:42:31Z</time></trkpt><trkpt lat="45.13818546585083" lon="8.366622250792894"><ele>205.0</ele><time>2026-04-18T13:42:32Z</time></trkpt><trkpt lat="45.13808531959578" lon="8.366716057669812"><ele>204.99999999999997</ele><time>2026-04-18T13:42:34Z</time></trkpt><trkpt lat="45.13803144836665" lon="8.366764177506317"><ele>205.0</ele><time>2026-04-18T13:42:35Z</time></trkpt><trkpt lat="45.1379275068605" lon="8.366857022033342"><ele>202.49999999999997</ele><time>2026-04-18T13:42:37Z</time></trkpt><trkpt lat="45.1378364133464" lon="8.366932868537756"><ele>200.0</ele><time>2026-04-18T13:42:39Z</time></trkpt><trkpt lat="45.13771746499927" lon="8.366976344296022"><ele>197.5</ele><time>2026-04-18T13:42:41Z</time></trkpt><trkpt lat="45.137650477419506" lon="8.3669632814529"><ele>195.0</ele><time>2026-04-18T13:42:42Z</time></trkpt><trkpt lat="45.137585271482216" lon="8.36693459010786"><ele>192.5</ele><time>2026-04-18T13:42:43Z</time></trkpt><trkpt lat="45.137518353212826" lon="8.366916848614503"><ele>190.0</ele><time>2026-04-18T13:42:44Z</time></trkpt><trkpt lat="45.137442661909446" lon="8.366917247222647"><ele>188.0</ele><time>2026-04-18T13:42:45Z</time></trkpt><trkpt lat="45.13736949536957" lon="8.366876372249747"><ele>186.0</ele><time>2026-04-18T13:42:46Z</time></trkpt><trkpt lat="45.137292801474345" lon="8.366855248983576"><ele>184.0</ele><time>2026-04-18T13:42:47Z</time></trkpt><trkpt lat="45.13721267676037" lon="8.366833180810284"><ele>182.0</ele><time>2026-04-18T13:42:48Z</time></trkpt><trkpt lat="45.137137193285874" lon="8.366835170960808"><ele>180.0</ele><time>2026-04-18T13:42:49Z</time></trkpt><trkpt lat="45.1370579309862" lon="8.366809394662022"><ele>178.0</ele><time>2026-04-18T13:42:50Z</time></trkpt><trkpt lat="45.136985144854705" lon="8.366770513306276"><ele>178.0</ele><time>2026-04-18T13:42:51Z</time></trkpt><trkpt lat="45.13691453090618" lon="8.366775095739545"><ele>178.0</ele><time>2026-04-18T13:42:52Z</time></trkpt><trkpt lat="45.136849523585454" lon="8.366757037766352"><ele>178.0</ele><time>2026-04-18T13:42:53Z</time></trkpt><trkpt lat="45.13673288835373" lon="8.36673149461734"><ele>178.0</ele><time>2026-04-18T13:42:55Z</time></trkpt><trkpt lat="45.13663713789561" lon="8.366728693691803"><ele>178.0</ele><time>2026-04-18T13:42:57Z</time></trkpt><trkpt lat="45.136565058634545" lon="8.366810740116629"><ele>178.0</ele><time>2026-04-18T13:42:59Z</time></trkpt><trkpt lat="45.13656839903042" lon="8.366975972112831"><ele>178.0</ele><time>2026-04-18T13:43:01Z</time></trkpt><trkpt lat="45.13659191442052" lon="8.367084513233392"><ele>178.0</ele><time>2026-04-18T13:43:02Z</time></trkpt><trkpt lat="45.13658432095877" lon="8.367198067125216"><ele>178.0</ele><time>2026-04-18T13:43:03Z</time></trkpt><trkpt lat="45.136608346094064" lon="8.367304900756528"><ele>178.0</ele><time>2026-04-18T13:43:04Z</time></trkpt><trkpt lat="45.13660180668476" lon="8.367410953884255"><ele>178.0</ele><time>2026-04-18T13:43:05Z</time></trkpt><trkpt lat="45.13663491403403" lon="8.367585452452216"><ele>178.0</ele><time>2026-04-18T13:43:07Z</time></trkpt><trkpt lat="45.13661108475848" lon="8.367741098015367"><ele>177.33333333333334</ele><time>2026-04-18T13:43:09Z</time></trkpt><trkpt lat="45.13651818303734" lon="8.367825582474454"><ele>176.66666666666669</ele><time>2026-04-18T13:43:11Z</time></trkpt><trkpt lat="45.136508829154444" lon="8.367948195125566"><ele>176.0</ele><time>2026-04-18T13:43:13Z</time></trkpt><trkpt lat="45.1365290238553" lon="8.368036374351743"><ele>175.33333333333334</ele><time>2026-04-18T13:43:14Z</time></trkpt><trkpt lat="45.13654572035738" lon="8.368142121619172"><ele>174.66666666666666</ele><time>2026-04-18T13:43:15Z</time></trkpt><trkpt lat="45.136562550975036" lon="8.36824379214485"><ele>174.0</ele><time>2026-04-18T13:43:16Z</time></trkpt><trkpt lat="45.136577909499366" lon="8.368344806685302"><ele>174.0</ele><time>2026-04-18T13:43:17Z</time></trkpt><trkpt lat="45.13659416254047" lon="8.36844942895138"><ele>174.0</ele><time>2026-04-18T13:43:18Z</time></trkpt><trkpt lat="45.13661305328705" lon="8.368563089344578"><ele>174.0</ele><time>2026-04-18T13:43:19Z</time></trkpt><trkpt lat="45.136614762124985" lon="8.368672418932244"><ele>174.0</ele><time>2026-04-18T13:43:20Z</time></trkpt><trkpt lat="45.136637981279556" lon="8.36877532583724"><ele>174.0</ele><time>2026-04-18T13:43:21Z</time></trkpt><trkpt lat="45.13665176050908" lon="8.368874371017322"><ele>174.0</ele><time>2026-04-18T13:43:22Z</time></trkpt><trkpt lat="45.13664563980705" lon="8.368984178109168"><ele>174.16666666666666</ele><time>2026-04-18T13:43:23Z</time></trkpt><trkpt lat="45.136653704419395" lon="8.369077454129545"><ele>174.33333333333334</ele><time>2026-04-18T13:43:24Z</time></trkpt><trkpt lat="45.13667055665372" lon="8.369176125746803"><ele>174.5</ele><time>2026-04-18T13:43:25Z</time></trkpt><trkpt lat="45.136677112130386" lon="8.369282264535995"><ele>174.66666666666669</ele><time>2026-04-18T13:43:26Z</time></trkpt><trkpt lat="45.1366798883213" lon="8.369374993785538"><ele>174.83333333333334</ele><time>2026-04-18T13:43:27Z</time></trkpt><trkpt lat="45.13666255393863" lon="8.369528931387924"><ele>175.0</ele><time>2026-04-18T13:43:29Z</time></trkpt><trkpt lat="45.13666689837622" lon="8.369666239540948"><ele>174.83333333333334</ele><time>2026-04-18T13:43:31Z</time></trkpt><trkpt lat="45.13670611499082" lon="8.369808511946664"><ele>174.66666666666669</ele><time>2026-04-18T13:43:33Z</time></trkpt><trkpt lat="45.13677700922744" lon="8.369938682256945"><ele>174.5</ele><time>2026-04-18T13:43:35Z</time></trkpt><trkpt lat="45.13681855675573" lon="8.370031588166468"><ele>174.33333333333334</ele><time>2026-04-18T13:43:36.999Z</time></trkpt><trkpt lat="45.136851290396905" lon="8.370139080562348"><ele>174.16666666666666</ele><time>2026-04-18T13:43:39.999Z</time></trkpt><trkpt lat="45.13686790054176" lon="8.370228690210261"><ele>174.0</ele><time>2026-04-18T13:43:41.999Z</time></trkpt><trkpt lat="45.13687317578129" lon="8.370319130208653"><ele>174.0</ele><time>2026-04-18T13:43:44.999Z</time></trkpt><trkpt lat="45.1368842236459" lon="8.37040793562004"><ele>174.0</ele><time>2026-04-18T13:46:58Z</time></trkpt><trkpt lat="45.13687204136166" lon="8.37051488989308"><ele>174.0</ele><time>2026-04-18T13:47:04Z</time></trkpt><trkpt lat="45.13685033944495" lon="8.370629331755637"><ele>174.0</ele><time>2026-04-18T13:47:39Z</time></trkpt><trkpt lat="45.1368498732329" lon="8.370782860165054"><ele>174.0</ele><time>2026-04-18T13:47:41Z</time></trkpt><trkpt lat="45.13686786359392" lon="8.370932456084043"><ele>174.0</ele><time>2026-04-18T13:47:43Z</time></trkpt><trkpt lat="45.13688742965222" lon="8.371062720973873"><ele>173.66666666666666</ele><time>2026-04-18T13:47:45Z</time></trkpt><trkpt lat="45.13690580962846" lon="8.371186510840676"><ele>173.33333333333334</ele><time>2026-04-18T13:47:47Z</time></trkpt><trkpt lat="45.13691598278593" lon="8.371280921164562"><ele>173.0</ele><time>2026-04-18T13:47:48Z</time></trkpt><trkpt lat="45.13692992505296" lon="8.371373023385308"><ele>172.66666666666669</ele><time>2026-04-18T13:47:49Z</time></trkpt><trkpt lat="45.13695731602835" lon="8.371466411788685"><ele>172.33333333333334</ele><time>2026-04-18T13:47:50Z</time></trkpt><trkpt lat="45.13697486128048" lon="8.371566972545821"><ele>172.0</ele><time>2026-04-18T13:47:51Z</time></trkpt><trkpt lat="45.1369951100618" lon="8.371735753177"><ele>171.33333333333334</ele><time>2026-04-18T13:47:53Z</time></trkpt><trkpt lat="45.137019607643964" lon="8.371834279190562"><ele>170.66666666666669</ele><time>2026-04-18T13:47:54Z</time></trkpt><trkpt lat="45.13703511852708" lon="8.371942989296475"><ele>170.0</ele><time>2026-04-18T13:47:55Z</time></trkpt><trkpt lat="45.1370584944596" lon="8.372044607274692"><ele>169.33333333333334</ele><time>2026-04-18T13:47:56Z</time></trkpt><trkpt lat="45.137064050161754" lon="8.37215182740432"><ele>168.66666666666666</ele><time>2026-04-18T13:47:57Z</time></trkpt><trkpt lat="45.13707053520103" lon="8.372278220775819"><ele>168.0</ele><time>2026-04-18T13:47:58Z</time></trkpt><trkpt lat="45.13708015887999" lon="8.372390987584367"><ele>167.4</ele><time>2026-04-18T13:47:59Z</time></trkpt><trkpt lat="45.13708627762619" lon="8.372514017851186"><ele>166.8</ele><time>2026-04-18T13:48:00Z</time></trkpt><trkpt lat="45.13708654931868" lon="8.37265024653141"><ele>166.2</ele><time>2026-04-18T13:48:01Z</time></trkpt><trkpt lat="45.13707905271674" lon="8.372786754994747"><ele>165.6</ele><time>2026-04-18T13:48:02Z</time></trkpt><trkpt lat="45.137068131877655" lon="8.372926370050605"><ele>165.0</ele><time>2026-04-18T13:48:03Z</time></trkpt><trkpt lat="45.13705440709126" lon="8.373060200006085"><ele>164.66666666666666</ele><time>2026-04-18T13:48:04Z</time></trkpt><trkpt lat="45.13703523266199" lon="8.373185867081324"><ele>164.33333333333334</ele><time>2026-04-18T13:48:05Z</time></trkpt><trkpt lat="45.13700695678272" lon="8.37331586618106"><ele>164.0</ele><time>2026-04-18T13:48:06Z</time></trkpt><trkpt lat="45.13697810883917" lon="8.373437895259704"><ele>163.66666666666669</ele><time>2026-04-18T13:48:07Z</time></trkpt><trkpt lat="45.13694143976051" lon="8.373544587421934"><ele>163.33333333333334</ele><time>2026-04-18T13:48:08Z</time></trkpt><trkpt lat="45.13692560854766" lon="8.373644414879166"><ele>163.0</ele><time>2026-04-18T13:48:09Z</time></trkpt><trkpt lat="45.136883975422904" lon="8.373767945040775"><ele>162.60000000000002</ele><time>2026-04-18T13:48:11Z</time></trkpt><trkpt lat="45.13684225082572" lon="8.373866303598623"><ele>162.20000000000002</ele><time>2026-04-18T13:48:14Z</time></trkpt><trkpt lat="45.13679947786545" lon="8.373986222352057"><ele>161.8</ele><time>2026-04-18T13:48:17Z</time></trkpt><trkpt lat="45.136760854206" lon="8.37409960700025"><ele>161.4</ele><time>2026-04-18T13:48:21Z</time></trkpt><trkpt lat="45.13672795795575" lon="8.37423121116387"><ele>161.0</ele><time>2026-04-18T13:48:24Z</time></trkpt><trkpt lat="45.13673016059803" lon="8.37437099374356"><ele>161.0</ele><time>2026-04-18T13:48:26Z</time></trkpt><trkpt lat="45.13670644293824" lon="8.374456909281957"><ele>161.0</ele><time>2026-04-18T13:48:27Z</time></trkpt><trkpt lat="45.13669424488688" lon="8.37459405101174"><ele>161.0</ele><time>2026-04-18T13:48:29Z</time></trkpt><trkpt lat="45.136684400807646" lon="8.37469367334323"><ele>161.0</ele><time>2026-04-18T13:48:31Z</time></trkpt><trkpt lat="45.136688618877415" lon="8.374837621253391"><ele>161.0</ele><time>2026-04-18T13:48:33Z</time></trkpt><trkpt lat="45.136699955922154" lon="8.374947380482894"><ele>161.0</ele><time>2026-04-18T13:48:34Z</time></trkpt><trkpt lat="45.13671211922582" lon="8.37510212510683"><ele>160.8</ele><time>2026-04-18T13:48:36Z</time></trkpt><trkpt lat="45.13672191934221" lon="8.375266582165308"><ele>160.60000000000002</ele><time>2026-04-18T13:48:38Z</time></trkpt><trkpt lat="45.13672691705534" lon="8.37544521747432"><ele>160.4</ele><time>2026-04-18T13:48:40Z</time></trkpt><trkpt lat="45.13673876984762" lon="8.375537554270977"><ele>160.2</ele><time>2026-04-18T13:48:41Z</time></trkpt><trkpt lat="45.136742655296686" lon="8.375629318878342"><ele>160.0</ele><time>2026-04-18T13:48:42Z</time></trkpt><trkpt lat="45.1367610293905" lon="8.375783486373356"><ele>159.4</ele><time>2026-04-18T13:48:44Z</time></trkpt><trkpt lat="45.136763981703055" lon="8.375952554213784"><ele>158.8</ele><time>2026-04-18T13:48:46Z</time></trkpt><trkpt lat="45.13677051444372" lon="8.376043474477576"><ele>158.2</ele><time>2026-04-18T13:48:47Z</time></trkpt><trkpt lat="45.13678751584363" lon="8.376236463719653"><ele>157.6</ele><time>2026-04-18T13:48:49Z</time></trkpt><trkpt lat="45.136799756101794" lon="8.376335337243672"><ele>157.0</ele><time>2026-04-18T13:48:50Z</time></trkpt><trkpt lat="45.13681448290406" lon="8.37642333418415"><ele>156.66666666666669</ele><time>2026-04-18T13:48:51Z</time></trkpt><trkpt lat="45.136823040883485" lon="8.37653662551122"><ele>156.33333333333334</ele><time>2026-04-18T13:48:53Z</time></trkpt><trkpt lat="45.136840002215784" lon="8.376694211118267"><ele>156.0</ele><time>2026-04-18T13:48:55Z</time></trkpt><trkpt lat="45.136854164513224" lon="8.376781993311887"><ele>155.66666666666666</ele><time>2026-04-18T13:48:56Z</time></trkpt><trkpt lat="45.13687643220433" lon="8.376893367516248"><ele>155.33333333333331</ele><time>2026-04-18T13:48:57Z</time></trkpt><trkpt lat="45.136888568835424" lon="8.376996943702334"><ele>155.0</ele><time>2026-04-18T13:48:58Z</time></trkpt><trkpt lat="45.1369018300188" lon="8.377102659065937"><ele>154.33333333333331</ele><time>2026-04-18T13:48:59Z</time></trkpt><trkpt lat="45.1369168130602" lon="8.377214789373673"><ele>153.66666666666666</ele><time>2026-04-18T13:49:00Z</time></trkpt><trkpt lat="45.136931034713115" lon="8.37731986197714"><ele>153.0</ele><time>2026-04-18T13:49:01Z</time></trkpt><trkpt lat="45.136947326688116" lon="8.377428740857521"><ele>152.33333333333334</ele><time>2026-04-18T13:49:02Z</time></trkpt><trkpt lat="45.1369647712463" lon="8.377535215647919"><ele>151.66666666666669</ele><time>2026-04-18T13:49:03Z</time></trkpt><trkpt lat="45.136981095821746" lon="8.377644222388783"><ele>151.0</ele><time>2026-04-18T13:49:04Z</time></trkpt><trkpt lat="45.136995011863355" lon="8.377751366980407"><ele>151.0</ele><time>2026-04-18T13:49:05Z</time></trkpt><trkpt lat="45.13701079562267" lon="8.377865403622492"><ele>151.0</ele><time>2026-04-18T13:49:06Z</time></trkpt><trkpt lat="45.13702944858253" lon="8.377977105524213"><ele>151.0</ele><time>2026-04-18T13:49:07Z</time></trkpt><trkpt lat="45.1370456576284" lon="8.37809116430789"><ele>151.0</ele><time>2026-04-18T13:49:08Z</time></trkpt><trkpt lat="45.13706286661107" lon="8.378212001406204"><ele>151.0</ele><time>2026-04-18T13:49:09Z</time></trkpt><trkpt lat="45.13707804587246" lon="8.378333828167383"><ele>151.0</ele><time>2026-04-18T13:49:10Z</time></trkpt><trkpt lat="45.13709523335842" lon="8.378451533593406"><ele>150.71428571428572</ele><time>2026-04-18T13:49:11Z</time></trkpt><trkpt lat="45.13709410627095" lon="8.378570114828758"><ele>150.42857142857144</ele><time>2026-04-18T13:49:12Z</time></trkpt><trkpt lat="45.13709222286165" lon="8.378674746338838"><ele>150.14285714285714</ele><time>2026-04-18T13:49:13Z</time></trkpt><trkpt lat="45.137090097526375" lon="8.378773281926524"><ele>149.85714285714286</ele><time>2026-04-18T13:49:14Z</time></trkpt><trkpt lat="45.13710105356707" lon="8.378897319095348"><ele>149.57142857142856</ele><time>2026-04-18T13:49:16Z</time></trkpt><trkpt lat="45.13708060998767" lon="8.378986804723363"><ele>149.28571428571428</ele><time>2026-04-18T13:49:18Z</time></trkpt><trkpt lat="45.13709067705657" lon="8.379081466620377"><ele>149.0</ele><time>2026-04-18T13:49:20Z</time></trkpt><trkpt lat="45.13706730769158" lon="8.379218401550272"><ele>148.83333333333331</ele><time>2026-04-18T13:49:22Z</time></trkpt><trkpt lat="45.13705785367937" lon="8.379345183024308"><ele>148.66666666666666</ele><time>2026-04-18T13:49:24Z</time></trkpt><trkpt lat="45.137065975787" lon="8.37943437487497"><ele>148.5</ele><time>2026-04-18T13:49:28Z</time></trkpt><trkpt lat="45.13705160644498" lon="8.379526792749425"><ele>148.33333333333334</ele><time>2026-04-18T13:49:57.999Z</time></trkpt><trkpt lat="45.137052883567236" lon="8.379625605457223"><ele>148.16666666666669</ele><time>2026-04-18T13:50:58Z</time></trkpt><trkpt lat="45.13703069465227" lon="8.379780929240905"><ele>148.0</ele><time>2026-04-18T13:51:00Z</time></trkpt><trkpt lat="45.13704493560177" lon="8.379943767316258"><ele>148.0</ele><time>2026-04-18T13:51:02Z</time></trkpt><trkpt lat="45.137082094527095" lon="8.380046750225828"><ele>148.0</ele><time>2026-04-18T13:51:03Z</time></trkpt><trkpt lat="45.13713585080339" lon="8.38017113629419"><ele>148.0</ele><time>2026-04-18T13:51:04Z</time></trkpt><trkpt lat="45.13717958982988" lon="8.380310654058977"><ele>148.0</ele><time>2026-04-18T13:51:05Z</time></trkpt><trkpt lat="45.137237678025066" lon="8.380457628185967"><ele>148.0</ele><time>2026-04-18T13:51:06Z</time></trkpt><trkpt lat="45.137305527858544" lon="8.380596753362047"><ele>146.5</ele><time>2026-04-18T13:51:07Z</time></trkpt><trkpt lat="45.137354711018695" lon="8.380744362496861"><ele>145.0</ele><time>2026-04-18T13:51:08Z</time></trkpt><trkpt lat="45.13741134682547" lon="8.380896003625645"><ele>143.5</ele><time>2026-04-18T13:51:09Z</time></trkpt><trkpt lat="45.137464614747934" lon="8.381038573607329"><ele>142.0</ele><time>2026-04-18T13:51:10Z</time></trkpt><trkpt lat="45.13751682939559" lon="8.381177018208131"><ele>142.0</ele><time>2026-04-18T13:51:11Z</time></trkpt><trkpt lat="45.137571056731765" lon="8.381314224646712"><ele>142.0</ele><time>2026-04-18T13:51:12Z</time></trkpt><trkpt lat="45.137630301238424" lon="8.381451569502202"><ele>142.0</ele><time>2026-04-18T13:51:13Z</time></trkpt><trkpt lat="45.137683459278" lon="8.381584576498197"><ele>142.0</ele><time>2026-04-18T13:51:14Z</time></trkpt><trkpt lat="45.1377314929402" lon="8.381706689599538"><ele>142.0</ele><time>2026-04-18T13:51:15Z</time></trkpt><trkpt lat="45.13776968948113" lon="8.381840277876936"><ele>142.2</ele><time>2026-04-18T13:51:16Z</time></trkpt><trkpt lat="45.137817570923154" lon="8.381969555777541"><ele>142.39999999999998</ele><time>2026-04-18T13:51:17Z</time></trkpt><trkpt lat="45.137860190095196" lon="8.382098225984953"><ele>142.60000000000002</ele><time>2026-04-18T13:51:18Z</time></trkpt><trkpt lat="45.137910213969235" lon="8.382223507668936"><ele>142.8</ele><time>2026-04-18T13:51:19Z</time></trkpt><trkpt lat="45.13795123583809" lon="8.38234890439132"><ele>143.0</ele><time>2026-04-18T13:51:20Z</time></trkpt><trkpt lat="45.137986958554905" lon="8.382465089123086"><ele>143.0</ele><time>2026-04-18T13:51:21Z</time></trkpt><trkpt lat="45.138027378832085" lon="8.382576495674321"><ele>143.0</ele><time>2026-04-18T13:51:22Z</time></trkpt><trkpt lat="45.13806894422775" lon="8.38268982757602"><ele>143.0</ele><time>2026-04-18T13:51:23Z</time></trkpt><trkpt lat="45.13811678671648" lon="8.382801781224211"><ele>143.0</ele><time>2026-04-18T13:51:24Z</time></trkpt><trkpt lat="45.13816369613069" lon="8.38290362809811"><ele>143.0</ele><time>2026-04-18T13:51:25Z</time></trkpt><trkpt lat="45.13822251677274" lon="8.383002507616647"><ele>143.0</ele><time>2026-04-18T13:51:26Z</time></trkpt><trkpt lat="45.1382825920171" lon="8.38308214958796"><ele>143.0</ele><time>2026-04-18T13:51:27Z</time></trkpt><trkpt lat="45.138355147528735" lon="8.383163009463237"><ele>143.0</ele><time>2026-04-18T13:51:28Z</time></trkpt><trkpt lat="45.13843790802849" lon="8.383225646484957"><ele>143.0</ele><time>2026-04-18T13:51:29Z</time></trkpt><trkpt lat="45.138529412693316" lon="8.383276137755011"><ele>143.0</ele><time>2026-04-18T13:51:30Z</time></trkpt><trkpt lat="45.1386283038115" lon="8.383303402443294"><ele>143.0</ele><time>2026-04-18T13:51:31Z</time></trkpt><trkpt lat="45.138721611861705" lon="8.383321984786866"><ele>143.0</ele><time>2026-04-18T13:51:32Z</time></trkpt><trkpt lat="45.13880919107248" lon="8.383370116134286"><ele>143.0</ele><time>2026-04-18T13:51:33Z</time></trkpt><trkpt lat="45.138898454218726" lon="8.383398797670898"><ele>143.0</ele><time>2026-04-18T13:51:34Z</time></trkpt><trkpt lat="45.138996162811495" lon="8.383409961391786"><ele>143.0</ele><time>2026-04-18T13:51:35Z</time></trkpt><trkpt lat="45.1390862557877" lon="8.38345079596858"><ele>143.0</ele><time>2026-04-18T13:51:36Z</time></trkpt><trkpt lat="45.13917358932908" lon="8.383496165145306"><ele>143.16666666666666</ele><time>2026-04-18T13:51:37Z</time></trkpt><trkpt lat="45.13924075581623" lon="8.383580393549934"><ele>143.33333333333331</ele><time>2026-04-18T13:51:38Z</time></trkpt><trkpt lat="45.139321545630054" lon="8.383634401663038"><ele>143.5</ele><time>2026-04-18T13:51:39Z</time></trkpt><trkpt lat="45.13938662010798" lon="8.383712121286294"><ele>143.66666666666666</ele><time>2026-04-18T13:51:40Z</time></trkpt><trkpt lat="45.139446343388386" lon="8.383782725696975"><ele>143.83333333333334</ele><time>2026-04-18T13:51:41Z</time></trkpt><trkpt lat="45.13950934666372" lon="8.383848914646027"><ele>144.0</ele><time>2026-04-18T13:51:42Z</time></trkpt><trkpt lat="45.13956841236603" lon="8.383909918018134"><ele>144.0</ele><time>2026-04-18T13:51:43Z</time></trkpt><trkpt lat="45.13962320185234" lon="8.383969856304331"><ele>144.0</ele><time>2026-04-18T13:51:44Z</time></trkpt><trkpt lat="45.13968179969989" lon="8.384022505342815"><ele>144.0</ele><time>2026-04-18T13:51:45Z</time></trkpt><trkpt lat="45.139722945773514" lon="8.38409663359429"><ele>144.0</ele><time>2026-04-18T13:51:46Z</time></trkpt><trkpt lat="45.13984227476442" lon="8.384162482304765"><ele>144.0</ele><time>2026-04-18T13:51:48Z</time></trkpt><trkpt lat="45.13991135807093" lon="8.38415660797721"><ele>144.0</ele><time>2026-04-18T13:51:49Z</time></trkpt><trkpt lat="45.14002317384092" lon="8.384187659792667"><ele>143.0</ele><time>2026-04-18T13:51:51Z</time></trkpt><trkpt lat="45.1401030006188" lon="8.3842010025715"><ele>142.0</ele><time>2026-04-18T13:51:53Z</time></trkpt><trkpt lat="45.14017389109343" lon="8.384249678256603"><ele>141.0</ele><time>2026-04-18T13:51:56Z</time></trkpt><trkpt lat="45.140180972388286" lon="8.384364643607144"><ele>140.0</ele><time>2026-04-18T13:51:57Z</time></trkpt><trkpt lat="45.14018290637631" lon="8.384463345062938"><ele>139.0</ele><time>2026-04-18T13:51:58Z</time></trkpt><trkpt lat="45.14019304082701" lon="8.384581188038593"><ele>138.0</ele><time>2026-04-18T13:51:59Z</time></trkpt><trkpt lat="45.140210943309334" lon="8.384701433851394"><ele>138.0</ele><time>2026-04-18T13:52:00Z</time></trkpt><trkpt lat="45.140220026447444" lon="8.384825673746773"><ele>138.0</ele><time>2026-04-18T13:52:01Z</time></trkpt><trkpt lat="45.14025039286907" lon="8.38499035173272"><ele>138.0</ele><time>2026-04-18T13:52:02Z</time></trkpt><trkpt lat="45.14026185060576" lon="8.385137842508394"><ele>138.0</ele><time>2026-04-18T13:52:03Z</time></trkpt><trkpt lat="45.14027711336423" lon="8.385293078045581"><ele>138.0</ele><time>2026-04-18T13:52:04Z</time></trkpt><trkpt lat="45.14028388655073" lon="8.38545478876942"><ele>138.0</ele><time>2026-04-18T13:52:05Z</time></trkpt><trkpt lat="45.1402789425769" lon="8.385624531506574"><ele>138.0</ele><time>2026-04-18T13:52:06Z</time></trkpt><trkpt lat="45.14026676257712" lon="8.385799367276205"><ele>138.0</ele><time>2026-04-18T13:52:07Z</time></trkpt><trkpt lat="45.14024149815109" lon="8.385975075012205"><ele>138.0</ele><time>2026-04-18T13:52:08Z</time></trkpt><trkpt lat="45.14020955146999" lon="8.386150335665013"><ele>138.0</ele><time>2026-04-18T13:52:09Z</time></trkpt><trkpt lat="45.1401746367118" lon="8.38633028656654"><ele>138.0</ele><time>2026-04-18T13:52:10Z</time></trkpt><trkpt lat="45.140130734571194" lon="8.386508343153945"><ele>138.0</ele><time>2026-04-18T13:52:11Z</time></trkpt><trkpt lat="45.14008003258136" lon="8.38668831776931"><ele>138.0</ele><time>2026-04-18T13:52:12Z</time></trkpt><trkpt lat="45.14003848308575" lon="8.386870013930418"><ele>137.75</ele><time>2026-04-18T13:52:13Z</time></trkpt><trkpt lat="45.13998875139061" lon="8.3870623494535"><ele>137.5</ele><time>2026-04-18T13:52:14Z</time></trkpt><trkpt lat="45.13993749719431" lon="8.387258745906047"><ele>137.25</ele><time>2026-04-18T13:52:15Z</time></trkpt><trkpt lat="45.139888450109204" lon="8.387456218016064"><ele>137.0</ele><time>2026-04-18T13:52:16Z</time></trkpt><trkpt lat="45.139832937887974" lon="8.387658481271847"><ele>138.66666666666666</ele><time>2026-04-18T13:52:17Z</time></trkpt><trkpt lat="45.13977460663294" lon="8.387864719091644"><ele>140.33333333333334</ele><time>2026-04-18T13:52:18Z</time></trkpt><trkpt lat="45.13971817802867" lon="8.388076430536277"><ele>142.0</ele><time>2026-04-18T13:52:19Z</time></trkpt><trkpt lat="45.139663198735" lon="8.38829160421985"><ele>142.0</ele><time>2026-04-18T13:52:20Z</time></trkpt><trkpt lat="45.1395924939309" lon="8.388495985464909"><ele>142.0</ele><time>2026-04-18T13:52:21Z</time></trkpt><trkpt lat="45.13953229497578" lon="8.388696916093169"><ele>142.0</ele><time>2026-04-18T13:52:22Z</time></trkpt><trkpt lat="45.13947533227729" lon="8.388900551641363"><ele>141.5</ele><time>2026-04-18T13:52:23Z</time></trkpt><trkpt lat="45.13939492521538" lon="8.389085565325905"><ele>141.0</ele><time>2026-04-18T13:52:24Z</time></trkpt><trkpt lat="45.139311082311714" lon="8.389258134374039"><ele>140.5</ele><time>2026-04-18T13:52:25Z</time></trkpt><trkpt lat="45.13922720208937" lon="8.389422356008186"><ele>140.0</ele><time>2026-04-18T13:52:26Z</time></trkpt><trkpt lat="45.13914569361344" lon="8.3895907629436"><ele>139.5</ele><time>2026-04-18T13:52:27Z</time></trkpt><trkpt lat="45.13906959660322" lon="8.389750488906378"><ele>139.0</ele><time>2026-04-18T13:52:28Z</time></trkpt><trkpt lat="45.13900175435835" lon="8.389896554099657"><ele>138.5</ele><time>2026-04-18T13:52:29Z</time></trkpt><trkpt lat="45.138926990853584" lon="8.390017649523925"><ele>138.0</ele><time>2026-04-18T13:52:30Z</time></trkpt><trkpt lat="45.13887003592545" lon="8.390137020682706"><ele>138.75</ele><time>2026-04-18T13:52:31Z</time></trkpt><trkpt lat="45.13881366498039" lon="8.390253072843896"><ele>139.5</ele><time>2026-04-18T13:52:32Z</time></trkpt><trkpt lat="45.13885649950732" lon="8.390458635709466"><ele>140.25</ele><time>2026-04-18T13:52:33Z</time></trkpt><trkpt lat="45.13883820065304" lon="8.390618302489287"><ele>141.0</ele><time>2026-04-18T13:52:34Z</time></trkpt><trkpt lat="45.13880746532394" lon="8.39078516784344"><ele>141.0</ele><time>2026-04-18T13:52:35Z</time></trkpt><trkpt lat="45.13877524452158" lon="8.390956700851001"><ele>141.0</ele><time>2026-04-18T13:52:36Z</time></trkpt><trkpt lat="45.13873273427496" lon="8.391133823803697"><ele>141.0</ele><time>2026-04-18T13:52:37Z</time></trkpt><trkpt lat="45.13872133501077" lon="8.391306283010193"><ele>141.0</ele><time>2026-04-18T13:52:38Z</time></trkpt><trkpt lat="45.13872031389131" lon="8.39148979543391"><ele>139.5</ele><time>2026-04-18T13:52:39Z</time></trkpt><trkpt lat="45.13872584171626" lon="8.391684090196472"><ele>138.0</ele><time>2026-04-18T13:52:40Z</time></trkpt><trkpt lat="45.1387306712883" lon="8.391886388474061"><ele>136.5</ele><time>2026-04-18T13:52:41Z</time></trkpt><trkpt lat="45.13874190027976" lon="8.392060341959942"><ele>135.0</ele><time>2026-04-18T13:52:42Z</time></trkpt><trkpt lat="45.1387309923868" lon="8.392223770590943"><ele>133.75</ele><time>2026-04-18T13:52:43Z</time></trkpt><trkpt lat="45.138730494090275" lon="8.392387709742149"><ele>132.5</ele><time>2026-04-18T13:52:44Z</time></trkpt><trkpt lat="45.13872998335217" lon="8.392555742604678"><ele>131.25</ele><time>2026-04-18T13:52:45Z</time></trkpt><trkpt lat="45.138730690339536" lon="8.392719717450289"><ele>130.0</ele><time>2026-04-18T13:52:46Z</time></trkpt><trkpt lat="45.13873184534785" lon="8.39288707132852"><ele>129.0</ele><time>2026-04-18T13:52:47Z</time></trkpt><trkpt lat="45.13873296591166" lon="8.393049434380666"><ele>128.0</ele><time>2026-04-18T13:52:48Z</time></trkpt><trkpt lat="45.13873411818757" lon="8.393216392354624"><ele>127.0</ele><time>2026-04-18T13:52:49Z</time></trkpt><trkpt lat="45.138735280852" lon="8.393384855489877"><ele>126.0</ele><time>2026-04-18T13:52:50Z</time></trkpt><trkpt lat="45.13873639977178" lon="8.39354698036998"><ele>126.0</ele><time>2026-04-18T13:52:51Z</time></trkpt><trkpt lat="45.1387374352495" lon="8.393722280009172"><ele>126.0</ele><time>2026-04-18T13:52:52Z</time></trkpt><trkpt lat="45.13873842678341" lon="8.393891490508453"><ele>126.0</ele><time>2026-04-18T13:52:53Z</time></trkpt><trkpt lat="45.13873938682465" lon="8.394062381235802"><ele>126.0</ele><time>2026-04-18T13:52:54Z</time></trkpt><trkpt lat="45.13873983574807" lon="8.39423573696088"><ele>125.25</ele><time>2026-04-18T13:52:55Z</time></trkpt><trkpt lat="45.138740272925865" lon="8.394404556777296"><ele>124.5</ele><time>2026-04-18T13:52:56Z</time></trkpt><trkpt lat="45.138740711922246" lon="8.394574078980757"><ele>123.75</ele><time>2026-04-18T13:52:57Z</time></trkpt><trkpt lat="45.13875725653069" lon="8.39474107510176"><ele>123.0</ele><time>2026-04-18T13:52:58Z</time></trkpt><trkpt lat="45.13874788722075" lon="8.394913520198063"><ele>122.5</ele><time>2026-04-18T13:52:59Z</time></trkpt><trkpt lat="45.13875388216785" lon="8.39508783376479"><ele>122.0</ele><time>2026-04-18T13:53:00Z</time></trkpt><trkpt lat="45.1387562438386" lon="8.395251537896563"><ele>121.5</ele><time>2026-04-18T13:53:01Z</time></trkpt><trkpt lat="45.138759453071174" lon="8.395402426935263"><ele>121.0</ele><time>2026-04-18T13:53:02Z</time></trkpt><trkpt lat="45.13875866080304" lon="8.395554706156435"><ele>121.00000000000001</ele><time>2026-04-18T13:53:03Z</time></trkpt><trkpt lat="45.13876152233532" lon="8.395699038427782"><ele>121.0</ele><time>2026-04-18T13:53:04Z</time></trkpt><trkpt lat="45.13875732683717" lon="8.395832354100119"><ele>121.0</ele><time>2026-04-18T13:53:05Z</time></trkpt><trkpt lat="45.13875508973896" lon="8.395951728964723"><ele>121.0</ele><time>2026-04-18T13:53:06Z</time></trkpt><trkpt lat="45.13875306528247" lon="8.396055666760772"><ele>121.00000000000001</ele><time>2026-04-18T13:53:07Z</time></trkpt><trkpt lat="45.13875210008317" lon="8.396149535503772"><ele>121.0</ele><time>2026-04-18T13:53:08Z</time></trkpt><trkpt lat="45.13874697008881" lon="8.396243648764223"><ele>121.00000000000001</ele><time>2026-04-18T13:53:09Z</time></trkpt><trkpt lat="45.13874984147542" lon="8.396334132899241"><ele>121.0</ele><time>2026-04-18T13:53:10Z</time></trkpt><trkpt lat="45.13867787809543" lon="8.396424905027775"><ele>121.0</ele><time>2026-04-18T13:53:11Z</time></trkpt><trkpt lat="45.13863069422016" lon="8.396532099377307"><ele>121.0</ele><time>2026-04-18T13:53:12Z</time></trkpt><trkpt lat="45.138585970474836" lon="8.39663444695274"><ele>121.00000000000001</ele><time>2026-04-18T13:53:13Z</time></trkpt><trkpt lat="45.13854771789505" lon="8.396755135476525"><ele>121.0</ele><time>2026-04-18T13:53:14Z</time></trkpt><trkpt lat="45.1384906949819" lon="8.396848771514415"><ele>120.83333333333334</ele><time>2026-04-18T13:53:15Z</time></trkpt><trkpt lat="45.138435010448525" lon="8.396939155043363"><ele>120.66666666666667</ele><time>2026-04-18T13:53:16Z</time></trkpt><trkpt lat="45.13837708324871" lon="8.397020965563925"><ele>120.5</ele><time>2026-04-18T13:53:17Z</time></trkpt><trkpt lat="45.13829994155525" lon="8.397101567664944"><ele>120.33333333333334</ele><time>2026-04-18T13:53:18Z</time></trkpt><trkpt lat="45.13824189554559" lon="8.397210511098042"><ele>120.16666666666667</ele><time>2026-04-18T13:53:19Z</time></trkpt><trkpt lat="45.13819614186118" lon="8.397299237642482"><ele>120.0</ele><time>2026-04-18T13:53:20Z</time></trkpt><trkpt lat="45.13816955924969" lon="8.397399477154238"><ele>121.16666666666667</ele><time>2026-04-18T13:53:21Z</time></trkpt><trkpt lat="45.13814785832765" lon="8.39753109097532"><ele>122.33333333333334</ele><time>2026-04-18T13:53:22Z</time></trkpt><trkpt lat="45.13813393568906" lon="8.397655217489183"><ele>123.5</ele><time>2026-04-18T13:53:23Z</time></trkpt><trkpt lat="45.13811167922857" lon="8.39776604590115"><ele>124.66666666666667</ele><time>2026-04-18T13:53:24Z</time></trkpt><trkpt lat="45.13807840439945" lon="8.397871722476319"><ele>125.83333333333334</ele><time>2026-04-18T13:53:25Z</time></trkpt><trkpt lat="45.13802877794971" lon="8.397968265380896"><ele>127.0</ele><time>2026-04-18T13:53:26Z</time></trkpt><trkpt lat="45.137942036170735" lon="8.397995798395366"><ele>127.00000000000001</ele><time>2026-04-18T13:53:27Z</time></trkpt><trkpt lat="45.13786398649547" lon="8.398045370658723"><ele>127.0</ele><time>2026-04-18T13:53:28Z</time></trkpt><trkpt lat="45.13777712839988" lon="8.398098130977287"><ele>127.0</ele><time>2026-04-18T13:53:29Z</time></trkpt><trkpt lat="45.13768914104636" lon="8.398142916910977"><ele>127.0</ele><time>2026-04-18T13:53:30Z</time></trkpt><trkpt lat="45.13760488688803" lon="8.398188546238176"><ele>127.00000000000001</ele><time>2026-04-18T13:53:31Z</time></trkpt><trkpt lat="45.137530778903084" lon="8.398229645553124"><ele>127.0</ele><time>2026-04-18T13:53:32Z</time></trkpt><trkpt lat="45.137450253166364" lon="8.398275330800308"><ele>128.2</ele><time>2026-04-18T13:53:33Z</time></trkpt><trkpt lat="45.13736034145625" lon="8.398326341057864"><ele>129.39999999999998</ele><time>2026-04-18T13:53:34Z</time></trkpt><trkpt lat="45.137278150118355" lon="8.398372971267984"><ele>130.60000000000002</ele><time>2026-04-18T13:53:35Z</time></trkpt><trkpt lat="45.13718988060381" lon="8.39842249613927"><ele>131.8</ele><time>2026-04-18T13:53:36Z</time></trkpt><trkpt lat="45.13710541155814" lon="8.398469867995885"><ele>133.0</ele><time>2026-04-18T13:53:37Z</time></trkpt><trkpt lat="45.13701579194134" lon="8.398520128383424"><ele>133.0</ele><time>2026-04-18T13:53:38Z</time></trkpt><trkpt lat="45.136930119731126" lon="8.398568174990869"><ele>133.0</ele><time>2026-04-18T13:53:39Z</time></trkpt><trkpt lat="45.13685262510913" lon="8.39863589845379"><ele>133.0</ele><time>2026-04-18T13:53:40Z</time></trkpt><trkpt lat="45.136768255511676" lon="8.39868052317273"><ele>133.0</ele><time>2026-04-18T13:53:41Z</time></trkpt><trkpt lat="45.136685047288985" lon="8.398727913135877"><ele>133.0</ele><time>2026-04-18T13:53:42Z</time></trkpt><trkpt lat="45.13660245738939" lon="8.398772405302786"><ele>133.66666666666669</ele><time>2026-04-18T13:53:43Z</time></trkpt><trkpt lat="45.13651995995463" lon="8.398817985778162"><ele>134.33333333333334</ele><time>2026-04-18T13:53:44Z</time></trkpt><trkpt lat="45.13644364504854" lon="8.398873374375095"><ele>135.0</ele><time>2026-04-18T13:53:45Z</time></trkpt><trkpt lat="45.136378244026005" lon="8.398951716575139"><ele>135.66666666666666</ele><time>2026-04-18T13:53:46Z</time></trkpt><trkpt lat="45.1363298447491" lon="8.399037929397997"><ele>136.33333333333331</ele><time>2026-04-18T13:53:47Z</time></trkpt><trkpt lat="45.13629240583506" lon="8.399126782718852"><ele>137.0</ele><time>2026-04-18T13:53:48Z</time></trkpt><trkpt lat="45.136265219316655" lon="8.399207372991171"><ele>137.0</ele><time>2026-04-18T13:53:49Z</time></trkpt><trkpt lat="45.13623155518698" lon="8.39930988029916"><ele>137.0</ele><time>2026-04-18T13:53:51Z</time></trkpt><trkpt lat="45.13618952196384" lon="8.399443682044758"><ele>137.0</ele><time>2026-04-18T13:53:53Z</time></trkpt><trkpt lat="45.13613351585535" lon="8.399517110298842"><ele>137.0</ele><time>2026-04-18T13:53:54Z</time></trkpt><trkpt lat="45.13612972046332" lon="8.399617156624648"><ele>137.0</ele><time>2026-04-18T13:53:55Z</time></trkpt><trkpt lat="45.13609617933172" lon="8.399737226639461"><ele>137.0</ele><time>2026-04-18T13:53:56Z</time></trkpt><trkpt lat="45.13606696511429" lon="8.399856590514572"><ele>137.2</ele><time>2026-04-18T13:53:57Z</time></trkpt><trkpt lat="45.136043693392686" lon="8.399986581348825"><ele>137.39999999999998</ele><time>2026-04-18T13:53:58Z</time></trkpt><trkpt lat="45.13600855162118" lon="8.400131960046306"><ele>137.60000000000002</ele><time>2026-04-18T13:53:59Z</time></trkpt><trkpt lat="45.135986405219334" lon="8.400268429666495"><ele>137.8</ele><time>2026-04-18T13:54:00Z</time></trkpt><trkpt lat="45.13595432420123" lon="8.400430172520803"><ele>138.0</ele><time>2026-04-18T13:54:01Z</time></trkpt><trkpt lat="45.13592558682129" lon="8.400591394949132"><ele>137.5</ele><time>2026-04-18T13:54:02Z</time></trkpt><trkpt lat="45.13589440463578" lon="8.400758751583396"><ele>137.0</ele><time>2026-04-18T13:54:03Z</time></trkpt><trkpt lat="45.13586481085591" lon="8.400919831342943"><ele>136.5</ele><time>2026-04-18T13:54:04Z</time></trkpt><trkpt lat="45.135832751705514" lon="8.401095895156967"><ele>136.0</ele><time>2026-04-18T13:54:05Z</time></trkpt><trkpt lat="45.135805856725575" lon="8.401266735561572"><ele>135.5</ele><time>2026-04-18T13:54:06Z</time></trkpt><trkpt lat="45.135768861737546" lon="8.401440273000327"><ele>135.0</ele><time>2026-04-18T13:54:07Z</time></trkpt><trkpt lat="45.135723621233055" lon="8.401601820130853"><ele>134.5</ele><time>2026-04-18T13:54:08Z</time></trkpt><trkpt lat="45.13566715445557" lon="8.401754436804705"><ele>134.0</ele><time>2026-04-18T13:54:09Z</time></trkpt><trkpt lat="45.1356006028713" lon="8.401895996828918"><ele>134.25</ele><time>2026-04-18T13:54:10Z</time></trkpt><trkpt lat="45.135521819221715" lon="8.402026354844233"><ele>134.5</ele><time>2026-04-18T13:54:11Z</time></trkpt><trkpt lat="45.13543795222294" lon="8.402146234186183"><ele>134.75</ele><time>2026-04-18T13:54:12Z</time></trkpt><trkpt lat="45.13535411310068" lon="8.402262747578138"><ele>135.0</ele><time>2026-04-18T13:54:13Z</time></trkpt><trkpt lat="45.135274975863844" lon="8.402385016139553"><ele>135.0</ele><time>2026-04-18T13:54:14Z</time></trkpt><trkpt lat="45.13520376304092" lon="8.402525199283874"><ele>135.0</ele><time>2026-04-18T13:54:15Z</time></trkpt><trkpt lat="45.13513390749419" lon="8.402679318940192"><ele>135.0</ele><time>2026-04-18T13:54:16Z</time></trkpt><trkpt lat="45.13509096975735" lon="8.402840736017456"><ele>135.0</ele><time>2026-04-18T13:54:17Z</time></trkpt><trkpt lat="45.13504594100224" lon="8.403016889750704"><ele>134.0</ele><time>2026-04-18T13:54:18Z</time></trkpt><trkpt lat="45.13500901392425" lon="8.403195093063609"><ele>133.0</ele><time>2026-04-18T13:54:19Z</time></trkpt><trkpt lat="45.13497723334783" lon="8.403394731510568"><ele>132.0</ele><time>2026-04-18T13:54:20Z</time></trkpt><trkpt lat="45.13495518439863" lon="8.403570384844626"><ele>131.0</ele><time>2026-04-18T13:54:21Z</time></trkpt><trkpt lat="45.134900350452085" lon="8.40375873975695"><ele>132.5</ele><time>2026-04-18T13:54:22Z</time></trkpt><trkpt lat="45.13485643831392" lon="8.403946660014244"><ele>134.0</ele><time>2026-04-18T13:54:22.999Z</time></trkpt><trkpt lat="45.134836618322375" lon="8.404136791661221"><ele>135.5</ele><time>2026-04-18T13:54:23.999Z</time></trkpt><trkpt lat="45.13479299412345" lon="8.404305252107408"><ele>137.0</ele><time>2026-04-18T13:54:24.999Z</time></trkpt><trkpt lat="45.13476121039934" lon="8.404479479165534"><ele>137.0</ele><time>2026-04-18T13:54:25.999Z</time></trkpt><trkpt lat="45.13472485241696" lon="8.404651661026024"><ele>137.0</ele><time>2026-04-18T13:54:26.999Z</time></trkpt><trkpt lat="45.13469864014151" lon="8.404815255799805"><ele>137.0</ele><time>2026-04-18T13:54:27.999Z</time></trkpt><trkpt lat="45.13466862006374" lon="8.404975544767463"><ele>137.0</ele><time>2026-04-18T13:54:28.999Z</time></trkpt><trkpt lat="45.13463422872573" lon="8.405143515458429"><ele>138.75</ele><time>2026-04-18T13:54:29.999Z</time></trkpt><trkpt lat="45.134596629461235" lon="8.405303038121609"><ele>140.5</ele><time>2026-04-18T13:54:30.999Z</time></trkpt><trkpt lat="45.13454459215527" lon="8.405444497807538"><ele>142.25</ele><time>2026-04-18T13:54:31.998Z</time></trkpt><trkpt lat="45.134491349049654" lon="8.405613297648806"><ele>144.0</ele><time>2026-04-18T13:54:32.998Z</time></trkpt><trkpt lat="45.13443738696036" lon="8.405766067749575"><ele>145.0</ele><time>2026-04-18T13:54:33.998Z</time></trkpt><trkpt lat="45.13438131730634" lon="8.405929673693711"><ele>146.0</ele><time>2026-04-18T13:54:34.998Z</time></trkpt><trkpt lat="45.13432721995616" lon="8.406088869756367"><ele>147.0</ele><time>2026-04-18T13:54:35.998Z</time></trkpt><trkpt lat="45.134272593121736" lon="8.406249623971524"><ele>148.0</ele><time>2026-04-18T13:54:36.998Z</time></trkpt><trkpt lat="45.13423145311778" lon="8.406424099362885"><ele>148.0</ele><time>2026-04-18T13:54:37.998Z</time></trkpt><trkpt lat="45.134175577753425" lon="8.406585447905021"><ele>148.0</ele><time>2026-04-18T13:54:38.998Z</time></trkpt><trkpt lat="45.13411676780098" lon="8.406744286746438"><ele>148.0</ele><time>2026-04-18T13:54:39.998Z</time></trkpt><trkpt lat="45.13406296756859" lon="8.40691002363085"><ele>148.0</ele><time>2026-04-18T13:54:40.998Z</time></trkpt><trkpt lat="45.13400652321995" lon="8.407069132892826"><ele>151.5</ele><time>2026-04-18T13:54:41.998Z</time></trkpt><trkpt lat="45.13395226105679" lon="8.407231851947147"><ele>155.0</ele><time>2026-04-18T13:54:42.998Z</time></trkpt><trkpt lat="45.133898726108384" lon="8.407393788597712"><ele>158.5</ele><time>2026-04-18T13:54:43.998Z</time></trkpt><trkpt lat="45.13384302938177" lon="8.407555740718827"><ele>162.0</ele><time>2026-04-18T13:54:44.998Z</time></trkpt><trkpt lat="45.133786016281626" lon="8.4077162206295"><ele>162.0</ele><time>2026-04-18T13:54:45.998Z</time></trkpt><trkpt lat="45.13372709623737" lon="8.407874105772956"><ele>162.0</ele><time>2026-04-18T13:54:46.998Z</time></trkpt><trkpt lat="45.13367545089977" lon="8.408037466487258"><ele>162.0</ele><time>2026-04-18T13:54:47.998Z</time></trkpt><trkpt lat="45.133625024788046" lon="8.408204671755092"><ele>162.0</ele><time>2026-04-18T13:54:48.998Z</time></trkpt><trkpt lat="45.13357087150576" lon="8.4083702759079"><ele>161.5</ele><time>2026-04-18T13:54:49.998Z</time></trkpt><trkpt lat="45.13351983937638" lon="8.408535171206767"><ele>161.0</ele><time>2026-04-18T13:54:50.998Z</time></trkpt><trkpt lat="45.13348387033409" lon="8.408710826719293"><ele>160.5</ele><time>2026-04-18T13:54:51.998Z</time></trkpt><trkpt lat="45.13343453164996" lon="8.408881399882032"><ele>160.0</ele><time>2026-04-18T13:54:52.998Z</time></trkpt><trkpt lat="45.13343241809044" lon="8.409070676035883"><ele>159.75</ele><time>2026-04-18T13:54:53.998Z</time></trkpt><trkpt lat="45.133421022426795" lon="8.409257393998333"><ele>159.5</ele><time>2026-04-18T13:54:54.998Z</time></trkpt><trkpt lat="45.13341241434875" lon="8.40945020517814"><ele>159.25</ele><time>2026-04-18T13:54:55.998Z</time></trkpt><trkpt lat="45.13339227980076" lon="8.409638987545888"><ele>159.0</ele><time>2026-04-18T13:54:56.998Z</time></trkpt><trkpt lat="45.13336654940101" lon="8.409805625111082"><ele>159.0</ele><time>2026-04-18T13:54:57.998Z</time></trkpt><trkpt lat="45.13334692085701" lon="8.409979046363896"><ele>159.0</ele><time>2026-04-18T13:54:58.998Z</time></trkpt><trkpt lat="45.13333314620892" lon="8.410158685795418"><ele>159.0</ele><time>2026-04-18T13:54:59.998Z</time></trkpt><trkpt lat="45.13334528798191" lon="8.410340211903748"><ele>159.0</ele><time>2026-04-18T13:55:00.998Z</time></trkpt><trkpt lat="45.13337810018814" lon="8.410518316937582"><ele>158.75</ele><time>2026-04-18T13:55:01.998Z</time></trkpt><trkpt lat="45.13343504414083" lon="8.410668255580331"><ele>158.5</ele><time>2026-04-18T13:55:02.998Z</time></trkpt><trkpt lat="45.1335082631249" lon="8.410776089858153"><ele>158.25</ele><time>2026-04-18T13:55:03.998Z</time></trkpt><trkpt lat="45.13361496034415" lon="8.41084880409988"><ele>158.0</ele><time>2026-04-18T13:55:04.998Z</time></trkpt><trkpt lat="45.13373897266999" lon="8.41088318123593"><ele>158.0</ele><time>2026-04-18T13:55:05.998Z</time></trkpt><trkpt lat="45.13386786990914" lon="8.410899466460908"><ele>158.0</ele><time>2026-04-18T13:55:06.998Z</time></trkpt><trkpt lat="45.133980622006305" lon="8.410970784556724"><ele>158.0</ele><time>2026-04-18T13:55:07.998Z</time></trkpt><trkpt lat="45.13408703581142" lon="8.411055981505422"><ele>158.0</ele><time>2026-04-18T13:55:08.998Z</time></trkpt><trkpt lat="45.13417509256607" lon="8.411198141299165"><ele>158.5</ele><time>2026-04-18T13:55:09.998Z</time></trkpt><trkpt lat="45.13423492373285" lon="8.411367609888021"><ele>159.0</ele><time>2026-04-18T13:55:10.998Z</time></trkpt><trkpt lat="45.1342858600211" lon="8.411556204010664"><ele>159.5</ele><time>2026-04-18T13:55:11.998Z</time></trkpt><trkpt lat="45.134298992812894" lon="8.411733218583846"><ele>160.0</ele><time>2026-04-18T13:55:12.998Z</time></trkpt><trkpt lat="45.13427949457117" lon="8.411918672163067"><ele>160.0</ele><time>2026-04-18T13:55:13.998Z</time></trkpt><trkpt lat="45.134256156476646" lon="8.412117680820558"><ele>160.0</ele><time>2026-04-18T13:55:14.998Z</time></trkpt><trkpt lat="45.1342387658047" lon="8.41230334443235"><ele>160.0</ele><time>2026-04-18T13:55:15.998Z</time></trkpt><trkpt lat="45.13421273112956" lon="8.412491965008314"><ele>160.0</ele><time>2026-04-18T13:55:16.998Z</time></trkpt><trkpt lat="45.1341836621696" lon="8.412682028091854"><ele>160.5</ele><time>2026-04-18T13:55:17.998Z</time></trkpt><trkpt lat="45.13415259869206" lon="8.412871085251268"><ele>161.0</ele><time>2026-04-18T13:55:18.998Z</time></trkpt><trkpt lat="45.13411427457909" lon="8.413055514055056"><ele>161.5</ele><time>2026-04-18T13:55:19.998Z</time></trkpt><trkpt lat="45.13405472529595" lon="8.413234187331552"><ele>162.0</ele><time>2026-04-18T13:55:20.998Z</time></trkpt><trkpt lat="45.13398201599945" lon="8.41340161987605"><ele>162.0</ele><time>2026-04-18T13:55:21.998Z</time></trkpt><trkpt lat="45.133904675326036" lon="8.413566390146324"><ele>162.0</ele><time>2026-04-18T13:55:22.998Z</time></trkpt><trkpt lat="45.1338264534596" lon="8.413727172032864"><ele>162.0</ele><time>2026-04-18T13:55:23.998Z</time></trkpt><trkpt lat="45.13375050273436" lon="8.413890418797564"><ele>162.0</ele><time>2026-04-18T13:55:24.998Z</time></trkpt><trkpt lat="45.13367805338404" lon="8.414050430146904"><ele>161.25</ele><time>2026-04-18T13:55:25.998Z</time></trkpt><trkpt lat="45.13362024160045" lon="8.414212940282404"><ele>160.5</ele><time>2026-04-18T13:55:26.998Z</time></trkpt><trkpt lat="45.133584436466116" lon="8.414386347828897"><ele>159.75</ele><time>2026-04-18T13:55:27.998Z</time></trkpt><trkpt lat="45.13357319388136" lon="8.414567016082675"><ele>159.0</ele><time>2026-04-18T13:55:28.998Z</time></trkpt><trkpt lat="45.13357967305533" lon="8.4147427010372"><ele>159.0</ele><time>2026-04-18T13:55:29.998Z</time></trkpt><trkpt lat="45.13361269742429" lon="8.414919137666645"><ele>159.0</ele><time>2026-04-18T13:55:30.998Z</time></trkpt><trkpt lat="45.133671073189014" lon="8.41508697503896"><ele>159.0</ele><time>2026-04-18T13:55:31.998Z</time></trkpt><trkpt lat="45.13374783673791" lon="8.41524633578597"><ele>159.0</ele><time>2026-04-18T13:55:32.998Z</time></trkpt><trkpt lat="45.133831219017246" lon="8.415399079288942"><ele>159.25</ele><time>2026-04-18T13:55:33.998Z</time></trkpt><trkpt lat="45.13391105577716" lon="8.415556474080388"><ele>159.5</ele><time>2026-04-18T13:55:34.998Z</time></trkpt><trkpt lat="45.133986323993916" lon="8.41571973630607"><ele>159.75</ele><time>2026-04-18T13:55:35.998Z</time></trkpt><trkpt lat="45.134064302407204" lon="8.415886759165307"><ele>160.0</ele><time>2026-04-18T13:55:36.998Z</time></trkpt><trkpt lat="45.134140195277894" lon="8.416054588379184"><ele>157.75</ele><time>2026-04-18T13:55:37.998Z</time></trkpt><trkpt lat="45.134216504801124" lon="8.416219640205977"><ele>155.5</ele><time>2026-04-18T13:55:38.998Z</time></trkpt><trkpt lat="45.13429520997702" lon="8.416376971529068"><ele>153.25</ele><time>2026-04-18T13:55:39.998Z</time></trkpt><trkpt lat="45.134369692090125" lon="8.41653223416935"><ele>151.0</ele><time>2026-04-18T13:55:40.998Z</time></trkpt><trkpt lat="45.13444359464303" lon="8.416682248956684"><ele>151.0</ele><time>2026-04-18T13:55:41.998Z</time></trkpt><trkpt lat="45.13450520898616" lon="8.416829787665815"><ele>151.0</ele><time>2026-04-18T13:55:42.998Z</time></trkpt><trkpt lat="45.13453589534292" lon="8.416992163009162"><ele>151.0</ele><time>2026-04-18T13:55:43.998Z</time></trkpt><trkpt lat="45.13455106438138" lon="8.417170233933264"><ele>151.0</ele><time>2026-04-18T13:55:44.998Z</time></trkpt><trkpt lat="45.134539532464494" lon="8.41735377641568"><ele>149.5</ele><time>2026-04-18T13:55:45.998Z</time></trkpt><trkpt lat="45.13449729479885" lon="8.417531351731963"><ele>148.0</ele><time>2026-04-18T13:55:46.998Z</time></trkpt><trkpt lat="45.13443184629008" lon="8.417694209018217"><ele>146.5</ele><time>2026-04-18T13:55:47.998Z</time></trkpt><trkpt lat="45.13435294817171" lon="8.417843338609167"><ele>145.0</ele><time>2026-04-18T13:55:48.998Z</time></trkpt><trkpt lat="45.134280737296194" lon="8.417999676038734"><ele>143.75</ele><time>2026-04-18T13:55:49.998Z</time></trkpt><trkpt lat="45.13422412757181" lon="8.418168410015879"><ele>142.5</ele><time>2026-04-18T13:55:50.998Z</time></trkpt><trkpt lat="45.1341881183468" lon="8.418345216293762"><ele>141.25</ele><time>2026-04-18T13:55:51.998Z</time></trkpt><trkpt lat="45.13418326070742" lon="8.418534450083753"><ele>140.0</ele><time>2026-04-18T13:55:52.998Z</time></trkpt><trkpt lat="45.134209571102915" lon="8.418722816998857"><ele>140.25</ele><time>2026-04-18T13:55:53.998Z</time></trkpt><trkpt lat="45.13426000484466" lon="8.418900039568996"><ele>140.5</ele><time>2026-04-18T13:55:54.998Z</time></trkpt><trkpt lat="45.134329380476494" lon="8.41906458072469"><ele>140.75</ele><time>2026-04-18T13:55:55.998Z</time></trkpt><trkpt lat="45.13440894324118" lon="8.41921979584592"><ele>141.0</ele><time>2026-04-18T13:55:56.998Z</time></trkpt><trkpt lat="45.13449433257247" lon="8.41936755150003"><ele>141.0</ele><time>2026-04-18T13:55:57.998Z</time></trkpt><trkpt lat="45.134581842301884" lon="8.419512889224642"><ele>141.0</ele><time>2026-04-18T13:55:58.998Z</time></trkpt><trkpt lat="45.134669330255086" lon="8.419661496138481"><ele>141.0</ele><time>2026-04-18T13:55:59.998Z</time></trkpt><trkpt lat="45.1347613996727" lon="8.419808471704561"><ele>141.0</ele><time>2026-04-18T13:56:00.998Z</time></trkpt><trkpt lat="45.1348539737068" lon="8.419954519559258"><ele>140.75</ele><time>2026-04-18T13:56:01.998Z</time></trkpt><trkpt lat="45.134943057305414" lon="8.420105453129084"><ele>140.5</ele><time>2026-04-18T13:56:02.998Z</time></trkpt><trkpt lat="45.13502834483083" lon="8.420257805597615"><ele>140.25</ele><time>2026-04-18T13:56:03.998Z</time></trkpt><trkpt lat="45.1351094562743" lon="8.420412013399812"><ele>140.0</ele><time>2026-04-18T13:56:04.998Z</time></trkpt><trkpt lat="45.13518551519099" lon="8.420568785984154"><ele>140.5</ele><time>2026-04-18T13:56:05.998Z</time></trkpt><trkpt lat="45.13525635542967" lon="8.420728386179176"><ele>141.0</ele><time>2026-04-18T13:56:06.998Z</time></trkpt><trkpt lat="45.13530934657823" lon="8.420895775967514"><ele>141.5</ele><time>2026-04-18T13:56:07.998Z</time></trkpt><trkpt lat="45.13534623871725" lon="8.421073452859547"><ele>142.0</ele><time>2026-04-18T13:56:08.998Z</time></trkpt><trkpt lat="45.135371396438956" lon="8.421254832474094"><ele>142.25</ele><time>2026-04-18T13:56:09.998Z</time></trkpt><trkpt lat="45.13538648140778" lon="8.421437964737198"><ele>142.5</ele><time>2026-04-18T13:56:10.998Z</time></trkpt><trkpt lat="45.13538593427607" lon="8.421625463508017"><ele>142.75</ele><time>2026-04-18T13:56:11.998Z</time></trkpt><trkpt lat="45.13537253066794" lon="8.421812453055082"><ele>143.0</ele><time>2026-04-18T13:56:12.997Z</time></trkpt><trkpt lat="45.13536520175773" lon="8.42200076094654"><ele>142.75</ele><time>2026-04-18T13:56:13.997Z</time></trkpt><trkpt lat="45.135356259669436" lon="8.422187361327268"><ele>142.5</ele><time>2026-04-18T13:56:14.997Z</time></trkpt><trkpt lat="45.13534677463915" lon="8.422374754266215"><ele>142.25</ele><time>2026-04-18T13:56:15.997Z</time></trkpt><trkpt lat="45.13533717628911" lon="8.422562657038112"><ele>142.0</ele><time>2026-04-18T13:56:16.998Z</time></trkpt><trkpt lat="45.13532681595752" lon="8.42274914507943"><ele>142.0</ele><time>2026-04-18T13:56:17.998Z</time></trkpt><trkpt lat="45.13531439878273" lon="8.422933137743339"><ele>142.0</ele><time>2026-04-18T13:56:18.998Z</time></trkpt><trkpt lat="45.135300797609" lon="8.423116665935616"><ele>142.0</ele><time>2026-04-18T13:56:19.998Z</time></trkpt><trkpt lat="45.13528853445065" lon="8.423316557032186"><ele>142.0</ele><time>2026-04-18T13:56:20.998Z</time></trkpt><trkpt lat="45.13526958745865" lon="8.423501058392146"><ele>141.5</ele><time>2026-04-18T13:56:21.998Z</time></trkpt><trkpt lat="45.13524792435523" lon="8.423677076139752"><ele>141.0</ele><time>2026-04-18T13:56:22.998Z</time></trkpt><trkpt lat="45.135224747845186" lon="8.423854697626574"><ele>140.5</ele><time>2026-04-18T13:56:23.998Z</time></trkpt><trkpt lat="45.13519901671869" lon="8.424029581043015"><ele>140.0</ele><time>2026-04-18T13:56:24.999Z</time></trkpt><trkpt lat="45.13517264693442" lon="8.424200733987016"><ele>140.0</ele><time>2026-04-18T13:56:25.999Z</time></trkpt><trkpt lat="45.135175041830344" lon="8.424428561733203"><ele>140.0</ele><time>2026-04-18T13:56:26.999Z</time></trkpt><trkpt lat="45.13518580096814" lon="8.42466278548719"><ele>140.0</ele><time>2026-04-18T13:56:27.999Z</time></trkpt><trkpt lat="45.13518762187875" lon="8.424875880107532"><ele>138.5</ele><time>2026-04-18T13:56:28.999Z</time></trkpt><trkpt lat="45.135175502949835" lon="8.425082111528845"><ele>137.0</ele><time>2026-04-18T13:56:29.999Z</time></trkpt><trkpt lat="45.1351706181787" lon="8.425292199051805"><ele>135.5</ele><time>2026-04-18T13:56:30.999Z</time></trkpt><trkpt lat="45.13515928710799" lon="8.425500109511573"><ele>134.0</ele><time>2026-04-18T13:56:31.999Z</time></trkpt><trkpt lat="45.13514737258919" lon="8.42571017278755"><ele>133.5</ele><time>2026-04-18T13:56:32.999Z</time></trkpt><trkpt lat="45.13512717665251" lon="8.425913999400896"><ele>133.0</ele><time>2026-04-18T13:56:33.999Z</time></trkpt><trkpt lat="45.1350998503395" lon="8.426121078592658"><ele>132.5</ele><time>2026-04-18T13:56:34.999Z</time></trkpt><trkpt lat="45.13506143625349" lon="8.426322098989429"><ele>132.0</ele><time>2026-04-18T13:56:35.999Z</time></trkpt><trkpt lat="45.13501180142821" lon="8.426516882631464"><ele>131.5</ele><time>2026-04-18T13:56:36.999Z</time></trkpt><trkpt lat="45.13494607975944" lon="8.426700859804056"><ele>131.0</ele><time>2026-04-18T13:56:37.999Z</time></trkpt><trkpt lat="45.13487541723839" lon="8.426875817911233"><ele>130.5</ele><time>2026-04-18T13:56:38.999Z</time></trkpt><trkpt lat="45.13477703766873" lon="8.427018003840354"><ele>130.0</ele><time>2026-04-18T13:56:40Z</time></trkpt><trkpt lat="45.13469510728439" lon="8.427172786006441"><ele>131.5</ele><time>2026-04-18T13:56:41Z</time></trkpt><trkpt lat="45.13459363876993" lon="8.42730615628595"><ele>133.0</ele><time>2026-04-18T13:56:42Z</time></trkpt><trkpt lat="45.134492037030654" lon="8.427430615006182"><ele>134.5</ele><time>2026-04-18T13:56:43Z</time></trkpt><trkpt lat="45.1343897361975" lon="8.427546638729776"><ele>136.0</ele><time>2026-04-18T13:56:44Z</time></trkpt><trkpt lat="45.13427522600977" lon="8.427642631703069"><ele>136.0</ele><time>2026-04-18T13:56:45Z</time></trkpt><trkpt lat="45.13416900312306" lon="8.427756543045287"><ele>136.0</ele><time>2026-04-18T13:56:46Z</time></trkpt><trkpt lat="45.1340654531998" lon="8.427870658725654"><ele>136.0</ele><time>2026-04-18T13:56:47Z</time></trkpt><trkpt lat="45.13396423767166" lon="8.427987049644338"><ele>136.0</ele><time>2026-04-18T13:56:48Z</time></trkpt><trkpt lat="45.133878485844015" lon="8.428129944574891"><ele>135.25</ele><time>2026-04-18T13:56:49Z</time></trkpt><trkpt lat="45.1337862589924" lon="8.428262996071949"><ele>134.5</ele><time>2026-04-18T13:56:50Z</time></trkpt><trkpt lat="45.13369905339087" lon="8.42840459662906"><ele>133.75</ele><time>2026-04-18T13:56:51Z</time></trkpt><trkpt lat="45.133621134014255" lon="8.428550632221786"><ele>133.0</ele><time>2026-04-18T13:56:52Z</time></trkpt><trkpt lat="45.13356098614811" lon="8.428704053171062"><ele>132.75</ele><time>2026-04-18T13:56:53Z</time></trkpt><trkpt lat="45.13351917186773" lon="8.428867937020645"><ele>132.5</ele><time>2026-04-18T13:56:54Z</time></trkpt><trkpt lat="45.13350717073065" lon="8.42904539419647"><ele>132.25</ele><time>2026-04-18T13:56:55Z</time></trkpt><trkpt lat="45.133518814393184" lon="8.429222771759353"><ele>132.0</ele><time>2026-04-18T13:56:56Z</time></trkpt><trkpt lat="45.13355351275691" lon="8.429393252356421"><ele>132.0</ele><time>2026-04-18T13:56:57Z</time></trkpt><trkpt lat="45.13361540228649" lon="8.429558171040714"><ele>132.0</ele><time>2026-04-18T13:56:58Z</time></trkpt><trkpt lat="45.13370115945846" lon="8.429704805688365"><ele>132.0</ele><time>2026-04-18T13:56:59Z</time></trkpt><trkpt lat="45.13380214204167" lon="8.429831020876193"><ele>132.0</ele><time>2026-04-18T13:57:00Z</time></trkpt><trkpt lat="45.133915206231826" lon="8.429952088149845"><ele>132.0</ele><time>2026-04-18T13:57:01Z</time></trkpt><trkpt lat="45.13402661739282" lon="8.43007831130978"><ele>132.0</ele><time>2026-04-18T13:57:02Z</time></trkpt><trkpt lat="45.13413140345622" lon="8.430209606542041"><ele>132.0</ele><time>2026-04-18T13:57:03Z</time></trkpt><trkpt lat="45.13423915068019" lon="8.430332639729443"><ele>132.0</ele><time>2026-04-18T13:57:04Z</time></trkpt><trkpt lat="45.1343348383798" lon="8.430468605178005"><ele>131.25</ele><time>2026-04-18T13:57:05Z</time></trkpt><trkpt lat="45.134440695796535" lon="8.430586144153892"><ele>130.5</ele><time>2026-04-18T13:57:06Z</time></trkpt><trkpt lat="45.1345262281526" lon="8.43072278000071"><ele>129.75</ele><time>2026-04-18T13:57:07Z</time></trkpt><trkpt lat="45.13459450898677" lon="8.430890445851269"><ele>129.0</ele><time>2026-04-18T13:57:08Z</time></trkpt><trkpt lat="45.13464901218083" lon="8.431053248638984"><ele>129.0</ele><time>2026-04-18T13:57:09Z</time></trkpt><trkpt lat="45.13468266962139" lon="8.431234272261593"><ele>129.0</ele><time>2026-04-18T13:57:10Z</time></trkpt><trkpt lat="45.13470986762376" lon="8.43141963057791"><ele>129.0</ele><time>2026-04-18T13:57:11Z</time></trkpt><trkpt lat="45.1347388342709" lon="8.43160931638451"><ele>129.0</ele><time>2026-04-18T13:57:12Z</time></trkpt><trkpt lat="45.13476842617198" lon="8.431797895982946"><ele>129.0</ele><time>2026-04-18T13:57:13Z</time></trkpt><trkpt lat="45.134798749591425" lon="8.431983377406699"><ele>129.0</ele><time>2026-04-18T13:57:14Z</time></trkpt><trkpt lat="45.134829400518655" lon="8.432165550903887"><ele>129.0</ele><time>2026-04-18T13:57:15Z</time></trkpt><trkpt lat="45.134859954408704" lon="8.43234537054742"><ele>129.0</ele><time>2026-04-18T13:57:16Z</time></trkpt><trkpt lat="45.13488864634402" lon="8.432518832417342"><ele>128.8</ele><time>2026-04-18T13:57:17Z</time></trkpt><trkpt lat="45.13491564236414" lon="8.432687827296927"><ele>128.60000000000002</ele><time>2026-04-18T13:57:18Z</time></trkpt><trkpt lat="45.13493827457182" lon="8.432844937803504"><ele>128.4</ele><time>2026-04-18T13:57:19Z</time></trkpt><trkpt lat="45.13496787556934" lon="8.432987566658419"><ele>128.20000000000002</ele><time>2026-04-18T13:57:20Z</time></trkpt><trkpt lat="45.13499108878861" lon="8.433130076070034"><ele>128.0</ele><time>2026-04-18T13:57:21Z</time></trkpt><trkpt lat="45.134995294140616" lon="8.433267548496907"><ele>128.0</ele><time>2026-04-18T13:57:22Z</time></trkpt><trkpt lat="45.13501445753989" lon="8.433389505208273"><ele>128.0</ele><time>2026-04-18T13:57:23Z</time></trkpt><trkpt lat="45.13503126954101" lon="8.433518671489239"><ele>128.0</ele><time>2026-04-18T13:57:24Z</time></trkpt><trkpt lat="45.13505060709483" lon="8.43365219955773"><ele>128.0</ele><time>2026-04-18T13:57:25Z</time></trkpt><trkpt lat="45.13507742597676" lon="8.433778643815543"><ele>128.0</ele><time>2026-04-18T13:57:26Z</time></trkpt><trkpt lat="45.13510772303553" lon="8.433926515143105"><ele>127.75</ele><time>2026-04-18T13:57:27Z</time></trkpt><trkpt lat="45.13513909025351" lon="8.434079589067348"><ele>127.5</ele><time>2026-04-18T13:57:28Z</time></trkpt><trkpt lat="45.135168151375126" lon="8.434241370946449"><ele>127.25</ele><time>2026-04-18T13:57:29Z</time></trkpt><trkpt lat="45.13519616730534" lon="8.434406922785003"><ele>127.0</ele><time>2026-04-18T13:57:30Z</time></trkpt><trkpt lat="45.135221090092955" lon="8.434583519300748"><ele>126.5</ele><time>2026-04-18T13:57:31Z</time></trkpt><trkpt lat="45.13525372853041" lon="8.434759549822187"><ele>126.0</ele><time>2026-04-18T13:57:32Z</time></trkpt><trkpt lat="45.13528183356946" lon="8.434936795705969"><ele>125.5</ele><time>2026-04-18T13:57:33Z</time></trkpt><trkpt lat="45.13530700513087" lon="8.435106989329451"><ele>125.0</ele><time>2026-04-18T13:57:34Z</time></trkpt><trkpt lat="45.13533461199945" lon="8.435261654754557"><ele>125.0</ele><time>2026-04-18T13:57:35Z</time></trkpt><trkpt lat="45.13535052801473" lon="8.435406102121018"><ele>125.0</ele><time>2026-04-18T13:57:36Z</time></trkpt><trkpt lat="45.13536896207606" lon="8.4355419164401"><ele>125.0</ele><time>2026-04-18T13:57:37Z</time></trkpt><trkpt lat="45.135388434304936" lon="8.43566793536594"><ele>125.0</ele><time>2026-04-18T13:57:38Z</time></trkpt><trkpt lat="45.13540891754635" lon="8.435787922535534"><ele>125.0</ele><time>2026-04-18T13:57:39Z</time></trkpt><trkpt lat="45.13542610555078" lon="8.435903144555262"><ele>124.49999999999999</ele><time>2026-04-18T13:57:40Z</time></trkpt><trkpt lat="45.13543228696311" lon="8.436016353289293"><ele>124.0</ele><time>2026-04-18T13:57:41Z</time></trkpt><trkpt lat="45.13541239312307" lon="8.436135569142138"><ele>123.5</ele><time>2026-04-18T13:57:42Z</time></trkpt><trkpt lat="45.13539683602649" lon="8.436245837069377"><ele>123.0</ele><time>2026-04-18T13:57:43Z</time></trkpt><trkpt lat="45.135441333554404" lon="8.436344389049145"><ele>122.49999999999999</ele><time>2026-04-18T13:57:44Z</time></trkpt><trkpt lat="45.13549727227574" lon="8.436447765223607"><ele>122.0</ele><time>2026-04-18T13:57:45Z</time></trkpt><trkpt lat="45.135540743949576" lon="8.436559421024448"><ele>121.8</ele><time>2026-04-18T13:57:46Z</time></trkpt><trkpt lat="45.13555805563396" lon="8.436697255654355"><ele>121.6</ele><time>2026-04-18T13:57:47Z</time></trkpt><trkpt lat="45.13556716760004" lon="8.436840052412169"><ele>121.39999999999999</ele><time>2026-04-18T13:57:48Z</time></trkpt><trkpt lat="45.135581849738735" lon="8.436992434285258"><ele>121.19999999999999</ele><time>2026-04-18T13:57:49Z</time></trkpt><trkpt lat="45.1356186643325" lon="8.437139106047901"><ele>121.0</ele><time>2026-04-18T13:57:50Z</time></trkpt><trkpt lat="45.13567001157163" lon="8.437280121917896"><ele>120.19999999999999</ele><time>2026-04-18T13:57:51Z</time></trkpt><trkpt lat="45.13573491029822" lon="8.437409155676502"><ele>119.39999999999999</ele><time>2026-04-18T13:57:52Z</time></trkpt><trkpt lat="45.13580520489946" lon="8.437537494171695"><ele>118.6</ele><time>2026-04-18T13:57:53Z</time></trkpt><trkpt lat="45.13585663804778" lon="8.437675851032528"><ele>117.8</ele><time>2026-04-18T13:57:54Z</time></trkpt><trkpt lat="45.1358783787212" lon="8.437830079734036"><ele>117.0</ele><time>2026-04-18T13:57:55Z</time></trkpt><trkpt lat="45.13588780801613" lon="8.437986785364004"><ele>117.0</ele><time>2026-04-18T13:57:56Z</time></trkpt><trkpt lat="45.135895286728925" lon="8.438138203140403"><ele>116.99999999999999</ele><time>2026-04-18T13:57:57.001Z</time></trkpt><trkpt lat="45.13590867477513" lon="8.438295538025871"><ele>116.99999999999999</ele><time>2026-04-18T13:57:58.001Z</time></trkpt><trkpt lat="45.13591834462912" lon="8.438452115824498"><ele>117.0</ele><time>2026-04-18T13:57:59.001Z</time></trkpt><trkpt lat="45.135924349560405" lon="8.43860623292743"><ele>117.0</ele><time>2026-04-18T13:58:00.001Z</time></trkpt><trkpt lat="45.135928039122064" lon="8.43875773709014"><ele>116.8</ele><time>2026-04-18T13:58:01.001Z</time></trkpt><trkpt lat="45.13593243348706" lon="8.43890880460422"><ele>116.6</ele><time>2026-04-18T13:58:02.001Z</time></trkpt><trkpt lat="45.135934774058896" lon="8.439061113535393"><ele>116.39999999999999</ele><time>2026-04-18T13:58:03.001Z</time></trkpt><trkpt lat="45.13593352065785" lon="8.43921164229822"><ele>116.19999999999999</ele><time>2026-04-18T13:58:04.001Z</time></trkpt><trkpt lat="45.135934000539635" lon="8.439360991292506"><ele>116.0</ele><time>2026-04-18T13:58:05.001Z</time></trkpt><trkpt lat="45.135936288811614" lon="8.439509702757663"><ele>116.19999999999999</ele><time>2026-04-18T13:58:06.001Z</time></trkpt><trkpt lat="45.135940814809366" lon="8.439662347080981"><ele>116.39999999999999</ele><time>2026-04-18T13:58:07.001Z</time></trkpt><trkpt lat="45.135924553799775" lon="8.439816118679047"><ele>116.6</ele><time>2026-04-18T13:58:08.001Z</time></trkpt><trkpt lat="45.1359236911146" lon="8.439970826939751"><ele>116.8</ele><time>2026-04-18T13:58:09.001Z</time></trkpt><trkpt lat="45.13592287898147" lon="8.440117609308693"><ele>117.0</ele><time>2026-04-18T13:58:10.001Z</time></trkpt><trkpt lat="45.135921682041385" lon="8.44025045361329"><ele>117.0</ele><time>2026-04-18T13:58:11.001Z</time></trkpt><trkpt lat="45.13592037682459" lon="8.440374330593123"><ele>117.0</ele><time>2026-04-18T13:58:12.001Z</time></trkpt><trkpt lat="45.135919198201535" lon="8.440486192626944"><ele>117.0</ele><time>2026-04-18T13:58:13.001Z</time></trkpt><trkpt lat="45.13591811904661" lon="8.440588614149997"><ele>117.0</ele><time>2026-04-18T13:58:14.001Z</time></trkpt><trkpt lat="45.13591699597443" lon="8.440695203902898"><ele>117.0</ele><time>2026-04-18T13:58:15.001Z</time></trkpt><trkpt lat="45.13593108997409" lon="8.44080886174714"><ele>117.0</ele><time>2026-04-18T13:58:16.001Z</time></trkpt><trkpt lat="45.135927122510104" lon="8.440928549584097"><ele>117.0</ele><time>2026-04-18T13:58:17.001Z</time></trkpt><trkpt lat="45.135917005719115" lon="8.441054203297705"><ele>116.99999999999999</ele><time>2026-04-18T13:58:18.001Z</time></trkpt><trkpt lat="45.13591363740829" lon="8.441191825296167"><ele>116.99999999999999</ele><time>2026-04-18T13:58:19Z</time></trkpt><trkpt lat="45.13591299154475" lon="8.441331820941427"><ele>117.0</ele><time>2026-04-18T13:58:20Z</time></trkpt><trkpt lat="45.13590828803557" lon="8.441476700821989"><ele>117.0</ele><time>2026-04-18T13:58:21Z</time></trkpt><trkpt lat="45.13590503186162" lon="8.441615866423774"><ele>117.16666666666667</ele><time>2026-04-18T13:58:22Z</time></trkpt><trkpt lat="45.13590413108372" lon="8.441750422150504"><ele>117.33333333333334</ele><time>2026-04-18T13:58:23Z</time></trkpt><trkpt lat="45.13589993011006" lon="8.441880793164863"><ele>117.5</ele><time>2026-04-18T13:58:24Z</time></trkpt><trkpt lat="45.13589453900928" lon="8.44200572478771"><ele>117.66666666666667</ele><time>2026-04-18T13:58:25Z</time></trkpt><trkpt lat="45.135890834869436" lon="8.442124633570291"><ele>117.83333333333334</ele><time>2026-04-18T13:58:26Z</time></trkpt><trkpt lat="45.13589367699667" lon="8.442246474611913"><ele>118.0</ele><time>2026-04-18T13:58:27Z</time></trkpt><trkpt lat="45.135905409931496" lon="8.442373746562495"><ele>118.00000000000001</ele><time>2026-04-18T13:58:28Z</time></trkpt><trkpt lat="45.13589087372974" lon="8.442508690991527"><ele>118.0</ele><time>2026-04-18T13:58:29Z</time></trkpt><trkpt lat="45.13588996352842" lon="8.442637843666681"><ele>118.0</ele><time>2026-04-18T13:58:30Z</time></trkpt><trkpt lat="45.13586229434333" lon="8.442734927466748"><ele>118.0</ele><time>2026-04-18T13:58:31Z</time></trkpt><trkpt lat="45.13586245862541" lon="8.442854148233097"><ele>118.00000000000001</ele><time>2026-04-18T13:58:32Z</time></trkpt><trkpt lat="45.13586302616312" lon="8.442960783809305"><ele>118.0</ele><time>2026-04-18T13:58:33Z</time></trkpt><trkpt lat="45.13586560607679" lon="8.443058520255933"><ele>118.2</ele><time>2026-04-18T13:58:34Z</time></trkpt><trkpt lat="45.135872998205286" lon="8.443224264984183"><ele>118.4</ele><time>2026-04-18T13:58:36Z</time></trkpt><trkpt lat="45.13587405054549" lon="8.443319062569332"><ele>118.60000000000001</ele><time>2026-04-18T13:58:37Z</time></trkpt><trkpt lat="45.135889903680834" lon="8.44348973952307"><ele>118.80000000000001</ele><time>2026-04-18T13:58:39Z</time></trkpt><trkpt lat="45.135893365323916" lon="8.443578912731587"><ele>119.0</ele><time>2026-04-18T13:58:40Z</time></trkpt><trkpt lat="45.13589295953944" lon="8.443752161232808"><ele>118.80000000000001</ele><time>2026-04-18T13:58:42Z</time></trkpt><trkpt lat="45.13590537232514" lon="8.443928930242496"><ele>118.60000000000001</ele><time>2026-04-18T13:58:44Z</time></trkpt><trkpt lat="45.13591386897263" lon="8.444054932860332"><ele>118.4</ele><time>2026-04-18T13:58:46Z</time></trkpt><trkpt lat="45.135901836834506" lon="8.44415902401147"><ele>118.2</ele><time>2026-04-18T13:58:51Z</time></trkpt><trkpt lat="45.13588762184598" lon="8.444266566541076"><ele>118.0</ele><time>2026-04-18T13:58:53Z</time></trkpt><trkpt lat="45.13589798469046" lon="8.444385967896821"><ele>118.0</ele><time>2026-04-18T13:58:54Z</time></trkpt><trkpt lat="45.13594410609779" lon="8.44450010601966"><ele>118.0</ele><time>2026-04-18T13:58:55Z</time></trkpt><trkpt lat="45.13579587304269" lon="8.444291677760557"><ele>118.0</ele><time>2026-04-18T13:58:56Z</time></trkpt><trkpt lat="45.1356649076856" lon="8.444254637121459"><ele>118.0</ele><time>2026-04-18T13:58:58Z</time></trkpt><trkpt lat="45.13559785012225" lon="8.444243910347629"><ele>117.60000000000001</ele><time>2026-04-18T13:58:59Z</time></trkpt><trkpt lat="45.13552557094391" lon="8.444246354702592"><ele>117.20000000000002</ele><time>2026-04-18T13:59:00Z</time></trkpt><trkpt lat="45.135413299749445" lon="8.444254847929322"><ele>116.8</ele><time>2026-04-18T13:59:02Z</time></trkpt><trkpt lat="45.135304025919396" lon="8.444259573601329"><ele>116.4</ele><time>2026-04-18T13:59:04Z</time></trkpt><trkpt lat="45.13519531366474" lon="8.444264054680765"><ele>116.0</ele><time>2026-04-18T13:59:06Z</time></trkpt><trkpt lat="45.13508341693069" lon="8.444268341347"><ele>116.0</ele><time>2026-04-18T13:59:08Z</time></trkpt><trkpt lat="45.13496073930134" lon="8.444287669411962"><ele>116.0</ele><time>2026-04-18T13:59:10Z</time></trkpt><trkpt lat="45.13484426810907" lon="8.444323256603642"><ele>116.0</ele><time>2026-04-18T13:59:12Z</time></trkpt><trkpt lat="45.134722387793566" lon="8.444311005759229"><ele>116.0</ele><time>2026-04-18T13:59:14Z</time></trkpt><trkpt lat="45.13464686864599" lon="8.444299797004225"><ele>116.0</ele><time>2026-04-18T13:59:15Z</time></trkpt><trkpt lat="45.13457560770729" lon="8.444303789815978"><ele>115.99999999999999</ele><time>2026-04-18T13:59:16Z</time></trkpt><trkpt lat="45.1344932883597" lon="8.444317214498163"><ele>116.0</ele><time>2026-04-18T13:59:17Z</time></trkpt><trkpt lat="45.13439552363425" lon="8.444334363909789"><ele>116.0</ele><time>2026-04-18T13:59:18Z</time></trkpt><trkpt lat="45.1342768761669" lon="8.444329490422149"><ele>116.0</ele><time>2026-04-18T13:59:20Z</time></trkpt><trkpt lat="45.13420507240003" lon="8.444347081582082"><ele>115.99999999999999</ele><time>2026-04-18T13:59:21Z</time></trkpt><trkpt lat="45.13412956878316" lon="8.444353774433598"><ele>116.0</ele><time>2026-04-18T13:59:22Z</time></trkpt><trkpt lat="45.134055058718765" lon="8.444359611705249"><ele>116.00000000000001</ele><time>2026-04-18T13:59:23Z</time></trkpt><trkpt lat="45.13397831019608" lon="8.444371317769946"><ele>116.0</ele><time>2026-04-18T13:59:24Z</time></trkpt><trkpt lat="45.13390371773017" lon="8.444390607116933"><ele>116.00000000000001</ele><time>2026-04-18T13:59:25Z</time></trkpt><trkpt lat="45.13383169156809" lon="8.4444272940925"><ele>116.00000000000001</ele><time>2026-04-18T13:59:26Z</time></trkpt><trkpt lat="45.13375878986297" lon="8.444474049726812"><ele>116.0</ele><time>2026-04-18T13:59:27Z</time></trkpt><trkpt lat="45.13369342246497" lon="8.444523513757249"><ele>116.00000000000001</ele><time>2026-04-18T13:59:28Z</time></trkpt><trkpt lat="45.13363945498099" lon="8.444570906646513"><ele>116.00000000000001</ele><time>2026-04-18T13:59:29Z</time></trkpt><trkpt lat="45.13353918620261" lon="8.444658380528406"><ele>115.99999999999999</ele><time>2026-04-18T13:59:31Z</time></trkpt><trkpt lat="45.13344955844417" lon="8.444695806993124"><ele>116.0</ele><time>2026-04-18T13:59:33Z</time></trkpt><trkpt lat="45.133364268257786" lon="8.444680438210835"><ele>116.0</ele><time>2026-04-18T13:59:35Z</time></trkpt><trkpt lat="45.13330150008807" lon="8.44463898043437"><ele>116.0</ele><time>2026-04-18T13:59:37Z</time></trkpt><trkpt lat="45.13323280855097" lon="8.444604874272873"><ele>115.99999999999999</ele><time>2026-04-18T13:59:40Z</time></trkpt><trkpt lat="45.13314275111959" lon="8.444520122774941"><ele>116.0</ele><time>2026-04-18T13:59:43Z</time></trkpt><trkpt lat="45.133063636210366" lon="8.444466947353567"><ele>116.8</ele><time>2026-04-18T13:59:45Z</time></trkpt><trkpt lat="45.13295316231133" lon="8.444656140232633"><ele>117.6</ele><time>2026-04-18T13:59:47Z</time></trkpt><trkpt lat="45.13291431054254" lon="8.444757112793306"><ele>118.4</ele><time>2026-04-18T13:59:48Z</time></trkpt><trkpt lat="45.1328703108272" lon="8.444850737766304"><ele>119.2</ele><time>2026-04-18T13:59:49Z</time></trkpt><trkpt lat="45.13282100909093" lon="8.44494753981834"><ele>120.0</ele><time>2026-04-18T13:59:50Z</time></trkpt><trkpt lat="45.132756003087444" lon="8.445055640659811"><ele>120.0</ele><time>2026-04-18T13:59:51Z</time></trkpt><trkpt lat="45.13268991839861" lon="8.445166284622275"><ele>120.0</ele><time>2026-04-18T13:59:52Z</time></trkpt><trkpt lat="45.13261836600327" lon="8.445274230288392"><ele>120.0</ele><time>2026-04-18T13:59:53Z</time></trkpt><trkpt lat="45.13254355282537" lon="8.445382384891321"><ele>120.0</ele><time>2026-04-18T13:59:54Z</time></trkpt><trkpt lat="45.13247493488268" lon="8.44549402707889"><ele>120.0</ele><time>2026-04-18T13:59:55Z</time></trkpt><trkpt lat="45.1323999368065" lon="8.445597948471105"><ele>119.2</ele><time>2026-04-18T13:59:56Z</time></trkpt><trkpt lat="45.1323291738541" lon="8.445707638518902"><ele>118.4</ele><time>2026-04-18T13:59:57Z</time></trkpt><trkpt lat="45.13225112305368" lon="8.4458135011629"><ele>117.6</ele><time>2026-04-18T13:59:58Z</time></trkpt><trkpt lat="45.13217794724423" lon="8.445923348484918"><ele>116.8</ele><time>2026-04-18T13:59:59Z</time></trkpt><trkpt lat="45.13210724104239" lon="8.446033213017797"><ele>116.0</ele><time>2026-04-18T14:00:00Z</time></trkpt><trkpt lat="45.132039038586875" lon="8.446139245481596"><ele>116.0</ele><time>2026-04-18T14:00:01Z</time></trkpt><trkpt lat="45.131973190842245" lon="8.446235960949284"><ele>116.0</ele><time>2026-04-18T14:00:02Z</time></trkpt><trkpt lat="45.13190131833806" lon="8.446337689733834"><ele>116.0</ele><time>2026-04-18T14:00:03Z</time></trkpt><trkpt lat="45.13182389489408" lon="8.446442913847035"><ele>116.0</ele><time>2026-04-18T14:00:04Z</time></trkpt><trkpt lat="45.13174855524673" lon="8.446550625132943"><ele>116.0</ele><time>2026-04-18T14:00:05Z</time></trkpt><trkpt lat="45.131677553128455" lon="8.446664028404276"><ele>116.0</ele><time>2026-04-18T14:00:06Z</time></trkpt><trkpt lat="45.131600899917416" lon="8.44677439414763"><ele>116.0</ele><time>2026-04-18T14:00:07Z</time></trkpt><trkpt lat="45.13152627928631" lon="8.44688677738233"><ele>116.0</ele><time>2026-04-18T14:00:08Z</time></trkpt><trkpt lat="45.13144980154033" lon="8.446994671351687"><ele>116.0</ele><time>2026-04-18T14:00:09Z</time></trkpt><trkpt lat="45.13137523839279" lon="8.447109552301114"><ele>116.0</ele><time>2026-04-18T14:00:10Z</time></trkpt><trkpt lat="45.13130072122181" lon="8.44722366292347"><ele>116.25</ele><time>2026-04-18T14:00:11Z</time></trkpt><trkpt lat="45.13122333020145" lon="8.447337412092732"><ele>116.5</ele><time>2026-04-18T14:00:12Z</time></trkpt><trkpt lat="45.13114635819842" lon="8.447452078003446"><ele>116.75</ele><time>2026-04-18T14:00:13Z</time></trkpt><trkpt lat="45.13106645102905" lon="8.447564024288322"><ele>117.0</ele><time>2026-04-18T14:00:14.001Z</time></trkpt><trkpt lat="45.13098527368306" lon="8.447679301905977"><ele>117.0</ele><time>2026-04-18T14:00:15.001Z</time></trkpt><trkpt lat="45.13090925080645" lon="8.447801148190651"><ele>116.99999999999999</ele><time>2026-04-18T14:00:16.001Z</time></trkpt><trkpt lat="45.130831294423295" lon="8.447910417546115"><ele>116.99999999999999</ele><time>2026-04-18T14:00:17.001Z</time></trkpt><trkpt lat="45.13075813147552" lon="8.448017565013929"><ele>117.0</ele><time>2026-04-18T14:00:18.001Z</time></trkpt><trkpt lat="45.13069087328173" lon="8.448112031782234"><ele>117.0</ele><time>2026-04-18T14:00:19.001Z</time></trkpt><trkpt lat="45.130631809443535" lon="8.448199881853087"><ele>117.33333333333333</ele><time>2026-04-18T14:00:20.001Z</time></trkpt><trkpt lat="45.130576407758326" lon="8.44828611289628"><ele>117.66666666666666</ele><time>2026-04-18T14:00:21.001Z</time></trkpt><trkpt lat="45.13051907609123" lon="8.448362473118511"><ele>118.0</ele><time>2026-04-18T14:00:22.001Z</time></trkpt><trkpt lat="45.13047015428615" lon="8.448429138588587"><ele>118.33333333333333</ele><time>2026-04-18T14:00:23.001Z</time></trkpt><trkpt lat="45.13036973454402" lon="8.448519361606387"><ele>118.66666666666666</ele><time>2026-04-18T14:00:24.999Z</time></trkpt><trkpt lat="45.13030947293679" lon="8.448562614166539"><ele>119.0</ele><time>2026-04-18T14:00:25.999Z</time></trkpt><trkpt lat="45.13024094564732" lon="8.448605529710377"><ele>118.99999999999999</ele><time>2026-04-18T14:00:26.999Z</time></trkpt><trkpt lat="45.130210454751634" lon="8.448717663587509"><ele>119.0</ele><time>2026-04-18T14:00:27.999Z</time></trkpt><trkpt lat="45.130172686175754" lon="8.448821784809848"><ele>119.0</ele><time>2026-04-18T14:00:28.999Z</time></trkpt><trkpt lat="45.13012926107902" lon="8.44892243107536"><ele>119.0</ele><time>2026-04-18T14:00:29.999Z</time></trkpt><trkpt lat="45.130071708734526" lon="8.449015454549832"><ele>118.99999999999999</ele><time>2026-04-18T14:00:30.999Z</time></trkpt><trkpt lat="45.13000910977331" lon="8.44912140023754"><ele>119.0</ele><time>2026-04-18T14:00:31.999Z</time></trkpt><trkpt lat="45.129948045594205" lon="8.449212861521449"><ele>118.99999999999999</ele><time>2026-04-18T14:00:33Z</time></trkpt><trkpt lat="45.12988375585995" lon="8.44930885105528"><ele>119.0</ele><time>2026-04-18T14:00:34Z</time></trkpt><trkpt lat="45.12981912029814" lon="8.449401084185503"><ele>119.0</ele><time>2026-04-18T14:00:35Z</time></trkpt><trkpt lat="45.12975594754231" lon="8.449486646570135"><ele>119.0</ele><time>2026-04-18T14:00:36Z</time></trkpt><trkpt lat="45.129698330676185" lon="8.449576630321065"><ele>118.99999999999999</ele><time>2026-04-18T14:00:37Z</time></trkpt><trkpt lat="45.129638479439635" lon="8.449661514377942"><ele>119.0</ele><time>2026-04-18T14:00:38Z</time></trkpt><trkpt lat="45.129581963639936" lon="8.449742692770963"><ele>118.83333333333333</ele><time>2026-04-18T14:00:39Z</time></trkpt><trkpt lat="45.12953195354898" lon="8.449813013557941"><ele>118.66666666666666</ele><time>2026-04-18T14:00:40Z</time></trkpt><trkpt lat="45.1294835373964" lon="8.449881286499613"><ele>118.5</ele><time>2026-04-18T14:00:41Z</time></trkpt><trkpt lat="45.12941067733972" lon="8.450010445903356"><ele>118.33333333333334</ele><time>2026-04-18T14:00:43Z</time></trkpt><trkpt lat="45.129344696207404" lon="8.450098940325416"><ele>118.16666666666667</ele><time>2026-04-18T14:00:45Z</time></trkpt><trkpt lat="45.129295580113464" lon="8.450176792297956"><ele>118.0</ele><time>2026-04-18T14:00:47Z</time></trkpt><trkpt lat="45.12922025374077" lon="8.450293369304163"><ele>118.0</ele><time>2026-04-18T14:00:50Z</time></trkpt><trkpt lat="45.12916158938701" lon="8.450397853702567"><ele>118.00000000000001</ele><time>2026-04-18T14:00:52Z</time></trkpt><trkpt lat="45.12911986990122" lon="8.450478359342263"><ele>118.00000000000001</ele><time>2026-04-18T14:00:53Z</time></trkpt><trkpt lat="45.12908693036086" lon="8.450570014751046"><ele>118.0</ele><time>2026-04-18T14:00:54Z</time></trkpt><trkpt lat="45.12907869365181" lon="8.450745138505443"><ele>118.0</ele><time>2026-04-18T14:00:56Z</time></trkpt><trkpt lat="45.12909226490546" lon="8.450888884620403"><ele>117.80000000000001</ele><time>2026-04-18T14:00:58Z</time></trkpt><trkpt lat="45.129039165983286" lon="8.450994292830986"><ele>117.60000000000001</ele><time>2026-04-18T14:01:00Z</time></trkpt><trkpt lat="45.128970730603434" lon="8.45111337734452"><ele>117.39999999999999</ele><time>2026-04-18T14:01:02Z</time></trkpt><trkpt lat="45.12888275162784" lon="8.451254798783726"><ele>117.19999999999999</ele><time>2026-04-18T14:01:04Z</time></trkpt><trkpt lat="45.12882692161308" lon="8.451330273714955"><ele>117.0</ele><time>2026-04-18T14:01:05Z</time></trkpt><trkpt lat="45.1287725527519" lon="8.451407320060282"><ele>117.0</ele><time>2026-04-18T14:01:06Z</time></trkpt><trkpt lat="45.128716946831894" lon="8.45149525757148"><ele>117.0</ele><time>2026-04-18T14:01:07Z</time></trkpt><trkpt lat="45.12865993234774" lon="8.451576754980556"><ele>117.0</ele><time>2026-04-18T14:01:08Z</time></trkpt><trkpt lat="45.128602068636894" lon="8.451661133533433"><ele>117.0</ele><time>2026-04-18T14:01:09Z</time></trkpt><trkpt lat="45.128537265173236" lon="8.451752262418253"><ele>117.0</ele><time>2026-04-18T14:01:10Z</time></trkpt><trkpt lat="45.128478282825576" lon="8.451845118566332"><ele>117.0</ele><time>2026-04-18T14:01:11Z</time></trkpt><trkpt lat="45.12841528372641" lon="8.451942943526497"><ele>117.0</ele><time>2026-04-18T14:01:12Z</time></trkpt><trkpt lat="45.12834849600265" lon="8.45204180660388"><ele>116.99999999999999</ele><time>2026-04-18T14:01:13Z</time></trkpt><trkpt lat="45.12827930194906" lon="8.452144728422722"><ele>116.99999999999999</ele><time>2026-04-18T14:01:14Z</time></trkpt><trkpt lat="45.12820894427353" lon="8.45224276369842"><ele>117.0</ele><time>2026-04-18T14:01:15Z</time></trkpt><trkpt lat="45.12814070287955" lon="8.452339346982567"><ele>117.0</ele><time>2026-04-18T14:01:16Z</time></trkpt><trkpt lat="45.12807376276667" lon="8.45243554700988"><ele>116.6</ele><time>2026-04-18T14:01:17Z</time></trkpt><trkpt lat="45.12800741363156" lon="8.452534730170143"><ele>116.19999999999999</ele><time>2026-04-18T14:01:18Z</time></trkpt><trkpt lat="45.127939364587895" lon="8.452634248367094"><ele>115.8</ele><time>2026-04-18T14:01:19Z</time></trkpt><trkpt lat="45.12787629658084" lon="8.452733169072294"><ele>115.4</ele><time>2026-04-18T14:01:20Z</time></trkpt><trkpt lat="45.12780579141433" lon="8.452821190511294"><ele>115.0</ele><time>2026-04-18T14:01:21Z</time></trkpt><trkpt lat="45.12778746958613" lon="8.45296041982456"><ele>115.00000000000001</ele><time>2026-04-18T14:01:22Z</time></trkpt><trkpt lat="45.12776923508006" lon="8.453087318645592"><ele>115.0</ele><time>2026-04-18T14:01:23Z</time></trkpt><trkpt lat="45.127763240456844" lon="8.453214699121599"><ele>115.0</ele><time>2026-04-18T14:01:24Z</time></trkpt><trkpt lat="45.12775656310864" lon="8.4533231457359"><ele>115.0</ele><time>2026-04-18T14:01:25Z</time></trkpt><trkpt lat="45.12774948511485" lon="8.45342536538647"><ele>115.00000000000001</ele><time>2026-04-18T14:01:26Z</time></trkpt><trkpt lat="45.12773890157306" lon="8.453521579359284"><ele>115.0</ele><time>2026-04-18T14:01:27Z</time></trkpt><trkpt lat="45.12772208913497" lon="8.453616566255427"><ele>115.0</ele><time>2026-04-18T14:01:28Z</time></trkpt><trkpt lat="45.12769366846752" lon="8.453722258730158"><ele>115.0</ele><time>2026-04-18T14:01:30Z</time></trkpt><trkpt lat="45.1276920285548" lon="8.453850747650545"><ele>115.0</ele><time>2026-04-18T14:01:34Z</time></trkpt><trkpt lat="45.12753374684805" lon="8.453817049903382"><ele>115.0</ele><time>2026-04-18T14:01:36Z</time></trkpt><trkpt lat="45.12746007228107" lon="8.453821939292437"><ele>115.0</ele><time>2026-04-18T14:01:37Z</time></trkpt><trkpt lat="45.127392665051744" lon="8.453806430860505"><ele>114.83333333333334</ele><time>2026-04-18T14:01:38Z</time></trkpt><trkpt lat="45.12732668173991" lon="8.45379972815865"><ele>114.66666666666667</ele><time>2026-04-18T14:01:39Z</time></trkpt><trkpt lat="45.127254532901816" lon="8.45380750849118"><ele>114.5</ele><time>2026-04-18T14:01:40Z</time></trkpt><trkpt lat="45.12718038188239" lon="8.453846408022299"><ele>114.33333333333334</ele><time>2026-04-18T14:01:41Z</time></trkpt><trkpt lat="45.12711589494755" lon="8.453910281506545"><ele>114.16666666666667</ele><time>2026-04-18T14:01:42Z</time></trkpt><trkpt lat="45.1270528958048" lon="8.453994905558009"><ele>114.0</ele><time>2026-04-18T14:01:43Z</time></trkpt><trkpt lat="45.127002474244065" lon="8.454088851529919"><ele>114.0</ele><time>2026-04-18T14:01:44Z</time></trkpt><trkpt lat="45.12695335606862" lon="8.454180434870059"><ele>114.0</ele><time>2026-04-18T14:01:45Z</time></trkpt><trkpt lat="45.12690180147141" lon="8.454268672675727"><ele>114.0</ele><time>2026-04-18T14:01:46Z</time></trkpt><trkpt lat="45.12684833825671" lon="8.454346618857418"><ele>114.0</ele><time>2026-04-18T14:01:47Z</time></trkpt><trkpt lat="45.12679031082058" lon="8.454417162390946"><ele>114.0</ele><time>2026-04-18T14:01:48Z</time></trkpt><trkpt lat="45.12672713420384" lon="8.454499336064755"><ele>114.0</ele><time>2026-04-18T14:01:49Z</time></trkpt><trkpt lat="45.1266645935746" lon="8.454587276182396"><ele>114.0</ele><time>2026-04-18T14:01:50Z</time></trkpt><trkpt lat="45.126594647801745" lon="8.454672738663614"><ele>114.0</ele><time>2026-04-18T14:01:51Z</time></trkpt><trkpt lat="45.12649886316235" lon="8.454731344621552"><ele>114.0</ele><time>2026-04-18T14:01:52Z</time></trkpt><trkpt lat="45.12639852131407" lon="8.454764071914159"><ele>114.0</ele><time>2026-04-18T14:01:53Z</time></trkpt><trkpt lat="45.12628343237736" lon="8.454779070969932"><ele>114.0</ele><time>2026-04-18T14:01:54Z</time></trkpt><trkpt lat="45.12616714350107" lon="8.454773029979723"><ele>114.0</ele><time>2026-04-18T14:01:55Z</time></trkpt><trkpt lat="45.12604706677013" lon="8.454758376356672"><ele>114.0</ele><time>2026-04-18T14:01:56Z</time></trkpt><trkpt lat="45.12592475184033" lon="8.454743257465216"><ele>114.0</ele><time>2026-04-18T14:01:57Z</time></trkpt><trkpt lat="45.1257968898876" lon="8.454729349423703"><ele>114.0</ele><time>2026-04-18T14:01:58Z</time></trkpt><trkpt lat="45.12566774034301" lon="8.454715627915618"><ele>114.75</ele><time>2026-04-18T14:01:59Z</time></trkpt><trkpt lat="45.1255350354413" lon="8.454702976383308"><ele>115.5</ele><time>2026-04-18T14:02:00Z</time></trkpt><trkpt lat="45.1254022458723" lon="8.454688035399966"><ele>116.25</ele><time>2026-04-18T14:02:01Z</time></trkpt><trkpt lat="45.125273191391315" lon="8.454673412775708"><ele>117.0</ele><time>2026-04-18T14:02:02Z</time></trkpt><trkpt lat="45.125151802767654" lon="8.454655887295687"><ele>117.0</ele><time>2026-04-18T14:02:03Z</time></trkpt><trkpt lat="45.12503422277402" lon="8.454638085388801"><ele>116.99999999999999</ele><time>2026-04-18T14:02:04Z</time></trkpt><trkpt lat="45.12492581233273" lon="8.454623914111778"><ele>116.99999999999999</ele><time>2026-04-18T14:02:05Z</time></trkpt><trkpt lat="45.12481435791478" lon="8.454615554635232"><ele>117.0</ele><time>2026-04-18T14:02:06Z</time></trkpt><trkpt lat="45.124704279664556" lon="8.454605831171218"><ele>117.0</ele><time>2026-04-18T14:02:07Z</time></trkpt><trkpt lat="45.124599600617536" lon="8.45459607299587"><ele>116.83333333333333</ele><time>2026-04-18T14:02:08Z</time></trkpt><trkpt lat="45.12450668227392" lon="8.454586486486107"><ele>116.66666666666666</ele><time>2026-04-18T14:02:09Z</time></trkpt><trkpt lat="45.124422354554945" lon="8.45458172379318"><ele>116.5</ele><time>2026-04-18T14:02:10Z</time></trkpt><trkpt lat="45.12434697765498" lon="8.454570217444529"><ele>116.33333333333333</ele><time>2026-04-18T14:02:11Z</time></trkpt><trkpt lat="45.12427836134295" lon="8.454561694086097"><ele>116.16666666666666</ele><time>2026-04-18T14:02:12Z</time></trkpt><trkpt lat="45.12419686216264" lon="8.454553209073364"><ele>116.0</ele><time>2026-04-18T14:02:14Z</time></trkpt><trkpt lat="45.12412782527369" lon="8.454522629317156"><ele>116.6</ele><time>2026-04-18T14:02:18.001Z</time></trkpt><trkpt lat="45.12406080517421" lon="8.454536842241096"><ele>117.19999999999999</ele><time>2026-04-18T14:02:20.001Z</time></trkpt><trkpt lat="45.12401400559673" lon="8.454472300347469"><ele>117.80000000000001</ele><time>2026-04-18T14:02:21.001Z</time></trkpt><trkpt lat="45.123873347183206" lon="8.454479105700765"><ele>118.4</ele><time>2026-04-18T14:02:23.001Z</time></trkpt><trkpt lat="45.12378768070612" lon="8.45450887468448"><ele>119.0</ele><time>2026-04-18T14:02:24.001Z</time></trkpt><trkpt lat="45.123696084879604" lon="8.454511977872777"><ele>119.0</ele><time>2026-04-18T14:02:25.001Z</time></trkpt><trkpt lat="45.12359351140053" lon="8.45450461124159"><ele>119.0</ele><time>2026-04-18T14:02:26.001Z</time></trkpt><trkpt lat="45.12348630046258" lon="8.454493409998797"><ele>119.0</ele><time>2026-04-18T14:02:27.001Z</time></trkpt><trkpt lat="45.12337404359876" lon="8.454485419263227"><ele>119.0</ele><time>2026-04-18T14:02:28.001Z</time></trkpt><trkpt lat="45.12325935642408" lon="8.454468315350477"><ele>119.0</ele><time>2026-04-18T14:02:29.001Z</time></trkpt><trkpt lat="45.12313485467568" lon="8.454455559111869"><ele>119.0</ele><time>2026-04-18T14:02:30.001Z</time></trkpt><trkpt lat="45.123012773293425" lon="8.454436568927184"><ele>119.0</ele><time>2026-04-18T14:02:31Z</time></trkpt><trkpt lat="45.122912405124936" lon="8.454388214085503"><ele>119.0</ele><time>2026-04-18T14:02:32Z</time></trkpt><trkpt lat="45.1228113526888" lon="8.454359067883951"><ele>119.0</ele><time>2026-04-18T14:02:33Z</time></trkpt><trkpt lat="45.12270267069531" lon="8.454326532939085"><ele>119.0</ele><time>2026-04-18T14:02:34Z</time></trkpt><trkpt lat="45.12258057538406" lon="8.454294012225319"><ele>119.0</ele><time>2026-04-18T14:02:35Z</time></trkpt><trkpt lat="45.122451336961326" lon="8.454277640853672"><ele>119.0</ele><time>2026-04-18T14:02:36Z</time></trkpt><trkpt lat="45.122321794547105" lon="8.454243494507798"><ele>119.0</ele><time>2026-04-18T14:02:37Z</time></trkpt><trkpt lat="45.122187459946915" lon="8.454205586096592"><ele>119.0</ele><time>2026-04-18T14:02:38Z</time></trkpt><trkpt lat="45.122055167187064" lon="8.454164323485443"><ele>119.0</ele><time>2026-04-18T14:02:39Z</time></trkpt><trkpt lat="45.121918636507594" lon="8.454127969321856"><ele>119.0</ele><time>2026-04-18T14:02:40Z</time></trkpt><trkpt lat="45.12177967034881" lon="8.454090696889411"><ele>119.0</ele><time>2026-04-18T14:02:41Z</time></trkpt><trkpt lat="45.121638774939065" lon="8.454051160856615"><ele>119.0</ele><time>2026-04-18T14:02:42Z</time></trkpt><trkpt lat="45.121494416128265" lon="8.454009232034212"><ele>118.5</ele><time>2026-04-18T14:02:43Z</time></trkpt><trkpt lat="45.12135261643722" lon="8.453967270947873"><ele>118.0</ele><time>2026-04-18T14:02:44Z</time></trkpt><trkpt lat="45.12121411918224" lon="8.45392744179556"><ele>117.5</ele><time>2026-04-18T14:02:45Z</time></trkpt><trkpt lat="45.121088461006316" lon="8.453866865339137"><ele>117.0</ele><time>2026-04-18T14:02:46Z</time></trkpt><trkpt lat="45.12095527008295" lon="8.45382591268852"><ele>117.0</ele><time>2026-04-18T14:02:47Z</time></trkpt><trkpt lat="45.12082179660979" lon="8.45378487317003"><ele>117.0</ele><time>2026-04-18T14:02:48Z</time></trkpt><trkpt lat="45.120694496375506" lon="8.453745731765098"><ele>117.0</ele><time>2026-04-18T14:02:49Z</time></trkpt><trkpt lat="45.12057052010426" lon="8.453706750986358"><ele>117.0</ele><time>2026-04-18T14:02:50Z</time></trkpt><trkpt lat="45.120455031559416" lon="8.453668414749904"><ele>117.0</ele><time>2026-04-18T14:02:51Z</time></trkpt><trkpt lat="45.12034600472541" lon="8.45362686918526"><ele>116.99999999999999</ele><time>2026-04-18T14:02:52Z</time></trkpt><trkpt lat="45.120245446428875" lon="8.453585601326331"><ele>116.99999999999999</ele><time>2026-04-18T14:02:53Z</time></trkpt><trkpt lat="45.12015418365681" lon="8.453550027487335"><ele>117.0</ele><time>2026-04-18T14:02:54Z</time></trkpt><trkpt lat="45.12007023987244" lon="8.45351730653399"><ele>117.0</ele><time>2026-04-18T14:02:55Z</time></trkpt><trkpt lat="45.120005792223445" lon="8.453480015976893"><ele>117.0</ele><time>2026-04-18T14:02:56Z</time></trkpt><trkpt lat="45.11995339180577" lon="8.453417658447522"><ele>117.00000000000001</ele><time>2026-04-18T14:02:57Z</time></trkpt><trkpt lat="45.11991973582589" lon="8.453328083157743"><ele>117.0</ele><time>2026-04-18T14:02:58Z</time></trkpt><trkpt lat="45.11992178632971" lon="8.453208999993867"><ele>117.0</ele><time>2026-04-18T14:02:59Z</time></trkpt><trkpt lat="45.11993123233557" lon="8.45311043103622"><ele>117.00000000000001</ele><time>2026-04-18T14:03:00Z</time></trkpt><trkpt lat="45.119934324278155" lon="8.45301534092729"><ele>117.0</ele><time>2026-04-18T14:03:01Z</time></trkpt><trkpt lat="45.11993170024738" lon="8.452912309608564"><ele>117.0</ele><time>2026-04-18T14:03:02Z</time></trkpt><trkpt lat="45.11992437750258" lon="8.452760662865332"><ele>117.0</ele><time>2026-04-18T14:03:04Z</time></trkpt><trkpt lat="45.119910415556646" lon="8.452637291174426"><ele>117.0</ele><time>2026-04-18T14:03:06Z</time></trkpt><trkpt lat="45.11990437375373" lon="8.45254432887393"><ele>117.0</ele><time>2026-04-18T14:03:09Z</time></trkpt><trkpt lat="45.1197748783309" lon="8.452571187204121"><ele>117.0</ele><time>2026-04-18T14:03:10Z</time></trkpt><trkpt lat="45.11970522168926" lon="8.452573568541672"><ele>117.0</ele><time>2026-04-18T14:03:32Z</time></trkpt><trkpt lat="45.11961708112265" lon="8.45257479119597"><ele>117.0</ele><time>2026-04-18T14:03:35Z</time></trkpt><trkpt lat="45.11958497410695" lon="8.452659078648582"><ele>119.0</ele><time>2026-04-18T14:03:40Z</time></trkpt><trkpt lat="45.11957345331737" lon="8.452765011852092"><ele>119.0</ele><time>2026-04-18T14:03:43Z</time></trkpt><trkpt lat="45.119581965756275" lon="8.452874083200896"><ele>119.0</ele><time>2026-04-18T14:03:46Z</time></trkpt><trkpt lat="45.11958247599372" lon="8.452976044144762"><ele>118.0</ele><time>2026-04-18T14:05:21.001Z</time></trkpt></trkseg></trk></gpx>